<?xml version="1.0" encoding="UTF-8" standalone="no" ?>
<gpx xmlns="http://www.topografix.com/GPX/1/1" xmlns:xsi="http://www.w3.org/2001/XMLSchema-instance" xsi:schemaLocation="http://www.topografix.com/GPX/1/1 http://www.topografix.com/GPX/1/1/gpx.xsd" version="1.1" creator="VisuGPX - https://www.visugpx.com">
  <metadata>
    <name>Moissac - Pin Guillot</name>
    <desc><![CDATA[Moissac le pin Guillot]]></desc>
  </metadata>
  <trk>
    <name><![CDATA[Moissac - Pin Guillot_1]]></name>
    <extensions>
      <line xmlns="http://www.topografix.com/GPX/gpx_style/0/2">
        <color>0000FF</color>
        <width>4</width>
      </line>
    </extensions>
    <trkseg>
      <trkpt lat="43.65576" lon="6.16221">
        <ele>584.3</ele>
        <time>2023-10-09T12:00:55Z</time>
      </trkpt>
      <trkpt lat="43.65577" lon="6.16223">
        <ele>584.2</ele>
        <time>2023-10-09T12:00:56Z</time>
      </trkpt>
      <trkpt lat="43.65578" lon="6.16225">
        <ele>584.2</ele>
        <time>2023-10-09T12:00:57Z</time>
      </trkpt>
      <trkpt lat="43.65578" lon="6.16226">
        <ele>584.2</ele>
        <time>2023-10-09T12:00:58Z</time>
      </trkpt>
      <trkpt lat="43.65578" lon="6.16226">
        <ele>584.2</ele>
        <time>2023-10-09T12:00:59Z</time>
      </trkpt>
      <trkpt lat="43.65578" lon="6.16226">
        <ele>584.2</ele>
        <time>2023-10-09T12:01:00Z</time>
      </trkpt>
      <trkpt lat="43.65578" lon="6.16227">
        <ele>584.2</ele>
        <time>2023-10-09T12:01:01Z</time>
      </trkpt>
      <trkpt lat="43.65578" lon="6.16228">
        <ele>584.2</ele>
        <time>2023-10-09T12:01:03Z</time>
      </trkpt>
      <trkpt lat="43.65577" lon="6.16228">
        <ele>584.2</ele>
        <time>2023-10-09T12:01:05Z</time>
      </trkpt>
      <trkpt lat="43.65577" lon="6.16227">
        <ele>584.2</ele>
        <time>2023-10-09T12:01:06Z</time>
      </trkpt>
      <trkpt lat="43.65577" lon="6.16227">
        <ele>584.2</ele>
        <time>2023-10-09T12:01:07Z</time>
      </trkpt>
      <trkpt lat="43.65577" lon="6.16227">
        <ele>584.2</ele>
        <time>2023-10-09T12:01:08Z</time>
      </trkpt>
      <trkpt lat="43.65577" lon="6.16227">
        <ele>584.2</ele>
        <time>2023-10-09T12:01:09Z</time>
      </trkpt>
      <trkpt lat="43.65578" lon="6.16226">
        <ele>584.2</ele>
        <time>2023-10-09T12:01:10Z</time>
      </trkpt>
      <trkpt lat="43.65578" lon="6.16227">
        <ele>584.2</ele>
        <time>2023-10-09T12:01:11Z</time>
      </trkpt>
      <trkpt lat="43.65578" lon="6.16226">
        <ele>584.2</ele>
        <time>2023-10-09T12:01:12Z</time>
      </trkpt>
      <trkpt lat="43.65579" lon="6.16226">
        <ele>584.2</ele>
        <time>2023-10-09T12:01:13Z</time>
      </trkpt>
      <trkpt lat="43.6558" lon="6.16227">
        <ele>584.1</ele>
        <time>2023-10-09T12:01:14Z</time>
      </trkpt>
      <trkpt lat="43.6558" lon="6.16227">
        <ele>584.1</ele>
        <time>2023-10-09T12:01:15Z</time>
      </trkpt>
      <trkpt lat="43.65581" lon="6.16228">
        <ele>584.1</ele>
        <time>2023-10-09T12:01:16Z</time>
      </trkpt>
      <trkpt lat="43.65583" lon="6.16229">
        <ele>584</ele>
        <time>2023-10-09T12:01:17Z</time>
      </trkpt>
      <trkpt lat="43.65584" lon="6.1623">
        <ele>584</ele>
        <time>2023-10-09T12:01:18Z</time>
      </trkpt>
      <trkpt lat="43.65584" lon="6.16231">
        <ele>584</ele>
        <time>2023-10-09T12:01:19Z</time>
      </trkpt>
      <trkpt lat="43.65586" lon="6.16232">
        <ele>584.1</ele>
        <time>2023-10-09T12:01:20Z</time>
      </trkpt>
      <trkpt lat="43.65587" lon="6.16233">
        <ele>584.1</ele>
        <time>2023-10-09T12:01:21Z</time>
      </trkpt>
      <trkpt lat="43.65589" lon="6.16234">
        <ele>584.1</ele>
        <time>2023-10-09T12:01:22Z</time>
      </trkpt>
      <trkpt lat="43.6559" lon="6.16235">
        <ele>584.1</ele>
        <time>2023-10-09T12:01:23Z</time>
      </trkpt>
      <trkpt lat="43.65592" lon="6.16235">
        <ele>584.2</ele>
        <time>2023-10-09T12:01:24Z</time>
      </trkpt>
      <trkpt lat="43.65594" lon="6.16235">
        <ele>584.2</ele>
        <time>2023-10-09T12:01:25Z</time>
      </trkpt>
      <trkpt lat="43.65595" lon="6.16235">
        <ele>584.2</ele>
        <time>2023-10-09T12:01:26Z</time>
      </trkpt>
      <trkpt lat="43.65597" lon="6.16235">
        <ele>584.3</ele>
        <time>2023-10-09T12:01:27Z</time>
      </trkpt>
      <trkpt lat="43.65598" lon="6.16236">
        <ele>584.3</ele>
        <time>2023-10-09T12:01:28Z</time>
      </trkpt>
      <trkpt lat="43.65599" lon="6.16236">
        <ele>584.3</ele>
        <time>2023-10-09T12:01:29Z</time>
      </trkpt>
      <trkpt lat="43.656" lon="6.16236">
        <ele>584.3</ele>
        <time>2023-10-09T12:01:30Z</time>
      </trkpt>
      <trkpt lat="43.65601" lon="6.16235">
        <ele>584.3</ele>
        <time>2023-10-09T12:01:31Z</time>
      </trkpt>
      <trkpt lat="43.65602" lon="6.16235">
        <ele>584.4</ele>
        <time>2023-10-09T12:01:32Z</time>
      </trkpt>
      <trkpt lat="43.65603" lon="6.16235">
        <ele>584.4</ele>
        <time>2023-10-09T12:01:33Z</time>
      </trkpt>
      <trkpt lat="43.65604" lon="6.16235">
        <ele>584.4</ele>
        <time>2023-10-09T12:01:34Z</time>
      </trkpt>
      <trkpt lat="43.65605" lon="6.16234">
        <ele>584.4</ele>
        <time>2023-10-09T12:01:35Z</time>
      </trkpt>
      <trkpt lat="43.65605" lon="6.16233">
        <ele>584.5</ele>
        <time>2023-10-09T12:01:36Z</time>
      </trkpt>
      <trkpt lat="43.65606" lon="6.16233">
        <ele>584.5</ele>
        <time>2023-10-09T12:01:37Z</time>
      </trkpt>
      <trkpt lat="43.65607" lon="6.16233">
        <ele>584.5</ele>
        <time>2023-10-09T12:01:38Z</time>
      </trkpt>
      <trkpt lat="43.65608" lon="6.16233">
        <ele>584.5</ele>
        <time>2023-10-09T12:01:39Z</time>
      </trkpt>
      <trkpt lat="43.65609" lon="6.16232">
        <ele>584.6</ele>
        <time>2023-10-09T12:01:40Z</time>
      </trkpt>
      <trkpt lat="43.65609" lon="6.16232">
        <ele>584.6</ele>
        <time>2023-10-09T12:01:41Z</time>
      </trkpt>
      <trkpt lat="43.6561" lon="6.16232">
        <ele>584.6</ele>
        <time>2023-10-09T12:01:42Z</time>
      </trkpt>
      <trkpt lat="43.65611" lon="6.16231">
        <ele>584.7</ele>
        <time>2023-10-09T12:01:43Z</time>
      </trkpt>
      <trkpt lat="43.65611" lon="6.16231">
        <ele>584.7</ele>
        <time>2023-10-09T12:01:44Z</time>
      </trkpt>
      <trkpt lat="43.65612" lon="6.16232">
        <ele>584.7</ele>
        <time>2023-10-09T12:01:45Z</time>
      </trkpt>
      <trkpt lat="43.65613" lon="6.16231">
        <ele>584.8</ele>
        <time>2023-10-09T12:01:46Z</time>
      </trkpt>
      <trkpt lat="43.65613" lon="6.16231">
        <ele>584.8</ele>
        <time>2023-10-09T12:01:47Z</time>
      </trkpt>
      <trkpt lat="43.65614" lon="6.16231">
        <ele>584.8</ele>
        <time>2023-10-09T12:01:48Z</time>
      </trkpt>
      <trkpt lat="43.65615" lon="6.16231">
        <ele>584.9</ele>
        <time>2023-10-09T12:01:49Z</time>
      </trkpt>
      <trkpt lat="43.65616" lon="6.16231">
        <ele>584.9</ele>
        <time>2023-10-09T12:01:50Z</time>
      </trkpt>
      <trkpt lat="43.65616" lon="6.1623">
        <ele>584.9</ele>
        <time>2023-10-09T12:01:51Z</time>
      </trkpt>
      <trkpt lat="43.65617" lon="6.16229">
        <ele>585</ele>
        <time>2023-10-09T12:01:52Z</time>
      </trkpt>
      <trkpt lat="43.65618" lon="6.16229">
        <ele>585.1</ele>
        <time>2023-10-09T12:01:53Z</time>
      </trkpt>
      <trkpt lat="43.65619" lon="6.1623">
        <ele>585.1</ele>
        <time>2023-10-09T12:01:54Z</time>
      </trkpt>
      <trkpt lat="43.6562" lon="6.1623">
        <ele>585.1</ele>
        <time>2023-10-09T12:01:55Z</time>
      </trkpt>
      <trkpt lat="43.65621" lon="6.16231">
        <ele>585.2</ele>
        <time>2023-10-09T12:01:56Z</time>
      </trkpt>
      <trkpt lat="43.65623" lon="6.16233">
        <ele>585.2</ele>
        <time>2023-10-09T12:01:57Z</time>
      </trkpt>
      <trkpt lat="43.65624" lon="6.16233">
        <ele>585.3</ele>
        <time>2023-10-09T12:01:58Z</time>
      </trkpt>
      <trkpt lat="43.65624" lon="6.16234">
        <ele>585.2</ele>
        <time>2023-10-09T12:01:59Z</time>
      </trkpt>
      <trkpt lat="43.65626" lon="6.16235">
        <ele>585.3</ele>
        <time>2023-10-09T12:02:00Z</time>
      </trkpt>
      <trkpt lat="43.65627" lon="6.16236">
        <ele>585.4</ele>
        <time>2023-10-09T12:02:01Z</time>
      </trkpt>
      <trkpt lat="43.65628" lon="6.16236">
        <ele>585.4</ele>
        <time>2023-10-09T12:02:02Z</time>
      </trkpt>
      <trkpt lat="43.65629" lon="6.16237">
        <ele>585.5</ele>
        <time>2023-10-09T12:02:03Z</time>
      </trkpt>
      <trkpt lat="43.6563" lon="6.16238">
        <ele>585.5</ele>
        <time>2023-10-09T12:02:04Z</time>
      </trkpt>
      <trkpt lat="43.65632" lon="6.1624">
        <ele>585.6</ele>
        <time>2023-10-09T12:02:05Z</time>
      </trkpt>
      <trkpt lat="43.65633" lon="6.16241">
        <ele>585.6</ele>
        <time>2023-10-09T12:02:06Z</time>
      </trkpt>
      <trkpt lat="43.65634" lon="6.16241">
        <ele>585.7</ele>
        <time>2023-10-09T12:02:07Z</time>
      </trkpt>
      <trkpt lat="43.65635" lon="6.16242">
        <ele>585.8</ele>
        <time>2023-10-09T12:02:08Z</time>
      </trkpt>
      <trkpt lat="43.65636" lon="6.16243">
        <ele>585.8</ele>
        <time>2023-10-09T12:02:09Z</time>
      </trkpt>
      <trkpt lat="43.65638" lon="6.16244">
        <ele>585.9</ele>
        <time>2023-10-09T12:02:10Z</time>
      </trkpt>
      <trkpt lat="43.65638" lon="6.16245">
        <ele>585.9</ele>
        <time>2023-10-09T12:02:11Z</time>
      </trkpt>
      <trkpt lat="43.65639" lon="6.16246">
        <ele>586</ele>
        <time>2023-10-09T12:02:12Z</time>
      </trkpt>
      <trkpt lat="43.6564" lon="6.16248">
        <ele>586</ele>
        <time>2023-10-09T12:02:13Z</time>
      </trkpt>
      <trkpt lat="43.65641" lon="6.16249">
        <ele>586.1</ele>
        <time>2023-10-09T12:02:14Z</time>
      </trkpt>
      <trkpt lat="43.65642" lon="6.1625">
        <ele>586.1</ele>
        <time>2023-10-09T12:02:15Z</time>
      </trkpt>
      <trkpt lat="43.65643" lon="6.16251">
        <ele>586.1</ele>
        <time>2023-10-09T12:02:16Z</time>
      </trkpt>
      <trkpt lat="43.65644" lon="6.16252">
        <ele>586.2</ele>
        <time>2023-10-09T12:02:17Z</time>
      </trkpt>
      <trkpt lat="43.65645" lon="6.16254">
        <ele>586.2</ele>
        <time>2023-10-09T12:02:18Z</time>
      </trkpt>
      <trkpt lat="43.65647" lon="6.16255">
        <ele>586.3</ele>
        <time>2023-10-09T12:02:19Z</time>
      </trkpt>
      <trkpt lat="43.65648" lon="6.16256">
        <ele>586.3</ele>
        <time>2023-10-09T12:02:20Z</time>
      </trkpt>
      <trkpt lat="43.65649" lon="6.16256">
        <ele>586.4</ele>
        <time>2023-10-09T12:02:21Z</time>
      </trkpt>
      <trkpt lat="43.6565" lon="6.16256">
        <ele>586.4</ele>
        <time>2023-10-09T12:02:22Z</time>
      </trkpt>
      <trkpt lat="43.6565" lon="6.16257">
        <ele>586.4</ele>
        <time>2023-10-09T12:02:23Z</time>
      </trkpt>
      <trkpt lat="43.65651" lon="6.16257">
        <ele>586.4</ele>
        <time>2023-10-09T12:02:24Z</time>
      </trkpt>
      <trkpt lat="43.65652" lon="6.16258">
        <ele>586.5</ele>
        <time>2023-10-09T12:02:25Z</time>
      </trkpt>
      <trkpt lat="43.65654" lon="6.16259">
        <ele>586.5</ele>
        <time>2023-10-09T12:02:26Z</time>
      </trkpt>
      <trkpt lat="43.65655" lon="6.16259">
        <ele>586.6</ele>
        <time>2023-10-09T12:02:27Z</time>
      </trkpt>
      <trkpt lat="43.65657" lon="6.1626">
        <ele>586.7</ele>
        <time>2023-10-09T12:02:28Z</time>
      </trkpt>
      <trkpt lat="43.65658" lon="6.16261">
        <ele>586.7</ele>
        <time>2023-10-09T12:02:29Z</time>
      </trkpt>
      <trkpt lat="43.65659" lon="6.16261">
        <ele>586.7</ele>
        <time>2023-10-09T12:02:30Z</time>
      </trkpt>
      <trkpt lat="43.6566" lon="6.16262">
        <ele>586.8</ele>
        <time>2023-10-09T12:02:31Z</time>
      </trkpt>
      <trkpt lat="43.65661" lon="6.16262">
        <ele>586.8</ele>
        <time>2023-10-09T12:02:32Z</time>
      </trkpt>
      <trkpt lat="43.65662" lon="6.16263">
        <ele>586.8</ele>
        <time>2023-10-09T12:02:33Z</time>
      </trkpt>
      <trkpt lat="43.65663" lon="6.16263">
        <ele>586.9</ele>
        <time>2023-10-09T12:02:34Z</time>
      </trkpt>
      <trkpt lat="43.65664" lon="6.16264">
        <ele>586.9</ele>
        <time>2023-10-09T12:02:35Z</time>
      </trkpt>
      <trkpt lat="43.65665" lon="6.16264">
        <ele>586.9</ele>
        <time>2023-10-09T12:02:36Z</time>
      </trkpt>
      <trkpt lat="43.65665" lon="6.16264">
        <ele>586.9</ele>
        <time>2023-10-09T12:02:37Z</time>
      </trkpt>
      <trkpt lat="43.65666" lon="6.16264">
        <ele>587</ele>
        <time>2023-10-09T12:02:38Z</time>
      </trkpt>
      <trkpt lat="43.65667" lon="6.16264">
        <ele>587</ele>
        <time>2023-10-09T12:02:39Z</time>
      </trkpt>
      <trkpt lat="43.65668" lon="6.16265">
        <ele>587.1</ele>
        <time>2023-10-09T12:02:40Z</time>
      </trkpt>
      <trkpt lat="43.65669" lon="6.16265">
        <ele>587.1</ele>
        <time>2023-10-09T12:02:41Z</time>
      </trkpt>
      <trkpt lat="43.65671" lon="6.16265">
        <ele>587.2</ele>
        <time>2023-10-09T12:02:42Z</time>
      </trkpt>
      <trkpt lat="43.65673" lon="6.16265">
        <ele>587.4</ele>
        <time>2023-10-09T12:02:43Z</time>
      </trkpt>
      <trkpt lat="43.65673" lon="6.16265">
        <ele>587.4</ele>
        <time>2023-10-09T12:02:44Z</time>
      </trkpt>
      <trkpt lat="43.65674" lon="6.16265">
        <ele>587.4</ele>
        <time>2023-10-09T12:02:45Z</time>
      </trkpt>
      <trkpt lat="43.65677" lon="6.16265">
        <ele>587.6</ele>
        <time>2023-10-09T12:02:46Z</time>
      </trkpt>
      <trkpt lat="43.65677" lon="6.16265">
        <ele>587.6</ele>
        <time>2023-10-09T12:02:47Z</time>
      </trkpt>
      <trkpt lat="43.65678" lon="6.16265">
        <ele>587.6</ele>
        <time>2023-10-09T12:02:48Z</time>
      </trkpt>
      <trkpt lat="43.6568" lon="6.16266">
        <ele>587.8</ele>
        <time>2023-10-09T12:02:49Z</time>
      </trkpt>
      <trkpt lat="43.65681" lon="6.16266">
        <ele>587.8</ele>
        <time>2023-10-09T12:02:50Z</time>
      </trkpt>
      <trkpt lat="43.65682" lon="6.16267">
        <ele>587.9</ele>
        <time>2023-10-09T12:02:51Z</time>
      </trkpt>
      <trkpt lat="43.65683" lon="6.16267">
        <ele>587.9</ele>
        <time>2023-10-09T12:02:52Z</time>
      </trkpt>
      <trkpt lat="43.65685" lon="6.16267">
        <ele>588.1</ele>
        <time>2023-10-09T12:02:53Z</time>
      </trkpt>
      <trkpt lat="43.65686" lon="6.16267">
        <ele>588.1</ele>
        <time>2023-10-09T12:02:54Z</time>
      </trkpt>
      <trkpt lat="43.65687" lon="6.16267">
        <ele>588.2</ele>
        <time>2023-10-09T12:02:55Z</time>
      </trkpt>
      <trkpt lat="43.65687" lon="6.16266">
        <ele>588.2</ele>
        <time>2023-10-09T12:02:56Z</time>
      </trkpt>
      <trkpt lat="43.65687" lon="6.16266">
        <ele>588.2</ele>
        <time>2023-10-09T12:02:57Z</time>
      </trkpt>
      <trkpt lat="43.65688" lon="6.16265">
        <ele>588.2</ele>
        <time>2023-10-09T12:02:58Z</time>
      </trkpt>
      <trkpt lat="43.65688" lon="6.16265">
        <ele>588.2</ele>
        <time>2023-10-09T12:02:59Z</time>
      </trkpt>
      <trkpt lat="43.65689" lon="6.16265">
        <ele>588.2</ele>
        <time>2023-10-09T12:03:00Z</time>
      </trkpt>
      <trkpt lat="43.6569" lon="6.16265">
        <ele>588.3</ele>
        <time>2023-10-09T12:03:01Z</time>
      </trkpt>
      <trkpt lat="43.65691" lon="6.16266">
        <ele>588.4</ele>
        <time>2023-10-09T12:03:02Z</time>
      </trkpt>
      <trkpt lat="43.65692" lon="6.16266">
        <ele>588.4</ele>
        <time>2023-10-09T12:03:03Z</time>
      </trkpt>
      <trkpt lat="43.65694" lon="6.16266">
        <ele>588.6</ele>
        <time>2023-10-09T12:03:04Z</time>
      </trkpt>
      <trkpt lat="43.65695" lon="6.16266">
        <ele>588.6</ele>
        <time>2023-10-09T12:03:05Z</time>
      </trkpt>
      <trkpt lat="43.65696" lon="6.16266">
        <ele>588.6</ele>
        <time>2023-10-09T12:03:06Z</time>
      </trkpt>
      <trkpt lat="43.65698" lon="6.16267">
        <ele>588.7</ele>
        <time>2023-10-09T12:03:07Z</time>
      </trkpt>
      <trkpt lat="43.657" lon="6.16267">
        <ele>588.8</ele>
        <time>2023-10-09T12:03:08Z</time>
      </trkpt>
      <trkpt lat="43.65701" lon="6.16268">
        <ele>588.9</ele>
        <time>2023-10-09T12:03:09Z</time>
      </trkpt>
      <trkpt lat="43.65702" lon="6.16268">
        <ele>588.9</ele>
        <time>2023-10-09T12:03:10Z</time>
      </trkpt>
      <trkpt lat="43.65704" lon="6.16268">
        <ele>589</ele>
        <time>2023-10-09T12:03:11Z</time>
      </trkpt>
      <trkpt lat="43.65705" lon="6.16268">
        <ele>589</ele>
        <time>2023-10-09T12:03:12Z</time>
      </trkpt>
      <trkpt lat="43.65706" lon="6.16268">
        <ele>589.1</ele>
        <time>2023-10-09T12:03:13Z</time>
      </trkpt>
      <trkpt lat="43.65707" lon="6.16268">
        <ele>589.1</ele>
        <time>2023-10-09T12:03:14Z</time>
      </trkpt>
      <trkpt lat="43.65708" lon="6.16268">
        <ele>589.1</ele>
        <time>2023-10-09T12:03:15Z</time>
      </trkpt>
      <trkpt lat="43.6571" lon="6.16268">
        <ele>589.2</ele>
        <time>2023-10-09T12:03:16Z</time>
      </trkpt>
      <trkpt lat="43.65712" lon="6.16269">
        <ele>589.3</ele>
        <time>2023-10-09T12:03:17Z</time>
      </trkpt>
      <trkpt lat="43.65713" lon="6.16269">
        <ele>589.4</ele>
        <time>2023-10-09T12:03:18Z</time>
      </trkpt>
      <trkpt lat="43.65714" lon="6.1627">
        <ele>589.4</ele>
        <time>2023-10-09T12:03:19Z</time>
      </trkpt>
      <trkpt lat="43.65716" lon="6.1627">
        <ele>589.5</ele>
        <time>2023-10-09T12:03:20Z</time>
      </trkpt>
      <trkpt lat="43.65717" lon="6.1627">
        <ele>589.5</ele>
        <time>2023-10-09T12:03:21Z</time>
      </trkpt>
      <trkpt lat="43.65719" lon="6.16271">
        <ele>589.6</ele>
        <time>2023-10-09T12:03:22Z</time>
      </trkpt>
      <trkpt lat="43.6572" lon="6.16272">
        <ele>589.7</ele>
        <time>2023-10-09T12:03:23Z</time>
      </trkpt>
      <trkpt lat="43.65722" lon="6.16272">
        <ele>589.8</ele>
        <time>2023-10-09T12:03:24Z</time>
      </trkpt>
      <trkpt lat="43.65723" lon="6.16273">
        <ele>589.9</ele>
        <time>2023-10-09T12:03:25Z</time>
      </trkpt>
      <trkpt lat="43.65724" lon="6.16274">
        <ele>589.9</ele>
        <time>2023-10-09T12:03:26Z</time>
      </trkpt>
      <trkpt lat="43.65725" lon="6.16274">
        <ele>590</ele>
        <time>2023-10-09T12:03:27Z</time>
      </trkpt>
      <trkpt lat="43.65726" lon="6.16275">
        <ele>590</ele>
        <time>2023-10-09T12:03:28Z</time>
      </trkpt>
      <trkpt lat="43.65727" lon="6.16276">
        <ele>590.1</ele>
        <time>2023-10-09T12:03:29Z</time>
      </trkpt>
      <trkpt lat="43.65729" lon="6.16276">
        <ele>590.2</ele>
        <time>2023-10-09T12:03:30Z</time>
      </trkpt>
      <trkpt lat="43.65729" lon="6.16277">
        <ele>590.2</ele>
        <time>2023-10-09T12:03:31Z</time>
      </trkpt>
      <trkpt lat="43.65731" lon="6.16277">
        <ele>590.3</ele>
        <time>2023-10-09T12:03:32Z</time>
      </trkpt>
      <trkpt lat="43.65732" lon="6.16278">
        <ele>590.4</ele>
        <time>2023-10-09T12:03:33Z</time>
      </trkpt>
      <trkpt lat="43.65732" lon="6.16278">
        <ele>590.4</ele>
        <time>2023-10-09T12:03:34Z</time>
      </trkpt>
      <trkpt lat="43.65733" lon="6.16279">
        <ele>590.4</ele>
        <time>2023-10-09T12:03:35Z</time>
      </trkpt>
      <trkpt lat="43.65734" lon="6.16279">
        <ele>590.5</ele>
        <time>2023-10-09T12:03:36Z</time>
      </trkpt>
      <trkpt lat="43.65736" lon="6.16279">
        <ele>590.5</ele>
        <time>2023-10-09T12:03:37Z</time>
      </trkpt>
      <trkpt lat="43.65737" lon="6.1628">
        <ele>590.6</ele>
        <time>2023-10-09T12:03:38Z</time>
      </trkpt>
      <trkpt lat="43.65739" lon="6.1628">
        <ele>590.7</ele>
        <time>2023-10-09T12:03:39Z</time>
      </trkpt>
      <trkpt lat="43.6574" lon="6.1628">
        <ele>590.7</ele>
        <time>2023-10-09T12:03:40Z</time>
      </trkpt>
      <trkpt lat="43.65742" lon="6.1628">
        <ele>590.8</ele>
        <time>2023-10-09T12:03:41Z</time>
      </trkpt>
      <trkpt lat="43.65743" lon="6.1628">
        <ele>590.8</ele>
        <time>2023-10-09T12:03:42Z</time>
      </trkpt>
      <trkpt lat="43.65744" lon="6.1628">
        <ele>590.9</ele>
        <time>2023-10-09T12:03:43Z</time>
      </trkpt>
      <trkpt lat="43.65745" lon="6.1628">
        <ele>590.9</ele>
        <time>2023-10-09T12:03:44Z</time>
      </trkpt>
      <trkpt lat="43.65747" lon="6.1628">
        <ele>591</ele>
        <time>2023-10-09T12:03:45Z</time>
      </trkpt>
      <trkpt lat="43.65747" lon="6.16281">
        <ele>591</ele>
        <time>2023-10-09T12:03:46Z</time>
      </trkpt>
      <trkpt lat="43.65748" lon="6.16281">
        <ele>591</ele>
        <time>2023-10-09T12:03:47Z</time>
      </trkpt>
      <trkpt lat="43.6575" lon="6.16282">
        <ele>591.2</ele>
        <time>2023-10-09T12:03:48Z</time>
      </trkpt>
      <trkpt lat="43.65751" lon="6.16282">
        <ele>591.2</ele>
        <time>2023-10-09T12:03:49Z</time>
      </trkpt>
      <trkpt lat="43.65752" lon="6.16282">
        <ele>591.2</ele>
        <time>2023-10-09T12:03:50Z</time>
      </trkpt>
      <trkpt lat="43.65754" lon="6.16282">
        <ele>591.2</ele>
        <time>2023-10-09T12:03:51Z</time>
      </trkpt>
      <trkpt lat="43.65755" lon="6.16282">
        <ele>591.2</ele>
        <time>2023-10-09T12:03:52Z</time>
      </trkpt>
      <trkpt lat="43.65756" lon="6.16283">
        <ele>591.2</ele>
        <time>2023-10-09T12:03:53Z</time>
      </trkpt>
      <trkpt lat="43.65758" lon="6.16282">
        <ele>591.2</ele>
        <time>2023-10-09T12:03:54Z</time>
      </trkpt>
      <trkpt lat="43.65759" lon="6.16282">
        <ele>591.2</ele>
        <time>2023-10-09T12:03:55Z</time>
      </trkpt>
      <trkpt lat="43.65759" lon="6.16282">
        <ele>591.2</ele>
        <time>2023-10-09T12:03:56Z</time>
      </trkpt>
      <trkpt lat="43.65761" lon="6.16282">
        <ele>591.2</ele>
        <time>2023-10-09T12:03:57Z</time>
      </trkpt>
      <trkpt lat="43.65762" lon="6.16282">
        <ele>591.2</ele>
        <time>2023-10-09T12:03:58Z</time>
      </trkpt>
      <trkpt lat="43.65763" lon="6.16282">
        <ele>591.2</ele>
        <time>2023-10-09T12:03:59Z</time>
      </trkpt>
      <trkpt lat="43.65764" lon="6.16283">
        <ele>591.2</ele>
        <time>2023-10-09T12:04:00Z</time>
      </trkpt>
      <trkpt lat="43.65765" lon="6.16283">
        <ele>591.2</ele>
        <time>2023-10-09T12:04:01Z</time>
      </trkpt>
      <trkpt lat="43.65766" lon="6.16283">
        <ele>591.2</ele>
        <time>2023-10-09T12:04:02Z</time>
      </trkpt>
      <trkpt lat="43.65766" lon="6.16283">
        <ele>591.2</ele>
        <time>2023-10-09T12:04:03Z</time>
      </trkpt>
      <trkpt lat="43.65768" lon="6.16283">
        <ele>591.2</ele>
        <time>2023-10-09T12:04:04Z</time>
      </trkpt>
      <trkpt lat="43.65769" lon="6.16283">
        <ele>591.2</ele>
        <time>2023-10-09T12:04:05Z</time>
      </trkpt>
      <trkpt lat="43.6577" lon="6.16283">
        <ele>591.2</ele>
        <time>2023-10-09T12:04:06Z</time>
      </trkpt>
      <trkpt lat="43.65771" lon="6.16284">
        <ele>591.2</ele>
        <time>2023-10-09T12:04:07Z</time>
      </trkpt>
      <trkpt lat="43.65772" lon="6.16285">
        <ele>591.3</ele>
        <time>2023-10-09T12:04:08Z</time>
      </trkpt>
      <trkpt lat="43.65773" lon="6.16285">
        <ele>591.3</ele>
        <time>2023-10-09T12:04:09Z</time>
      </trkpt>
      <trkpt lat="43.65774" lon="6.16286">
        <ele>591.3</ele>
        <time>2023-10-09T12:04:10Z</time>
      </trkpt>
      <trkpt lat="43.65776" lon="6.16287">
        <ele>591.3</ele>
        <time>2023-10-09T12:04:11Z</time>
      </trkpt>
      <trkpt lat="43.65779" lon="6.16287">
        <ele>591.3</ele>
        <time>2023-10-09T12:04:12Z</time>
      </trkpt>
      <trkpt lat="43.65779" lon="6.16288">
        <ele>591.4</ele>
        <time>2023-10-09T12:04:13Z</time>
      </trkpt>
      <trkpt lat="43.65781" lon="6.16288">
        <ele>591.4</ele>
        <time>2023-10-09T12:04:14Z</time>
      </trkpt>
      <trkpt lat="43.65783" lon="6.16289">
        <ele>591.4</ele>
        <time>2023-10-09T12:04:15Z</time>
      </trkpt>
      <trkpt lat="43.65784" lon="6.16289">
        <ele>591.4</ele>
        <time>2023-10-09T12:04:16Z</time>
      </trkpt>
      <trkpt lat="43.65786" lon="6.16289">
        <ele>591.4</ele>
        <time>2023-10-09T12:04:17Z</time>
      </trkpt>
      <trkpt lat="43.65788" lon="6.1629">
        <ele>591.4</ele>
        <time>2023-10-09T12:04:18Z</time>
      </trkpt>
      <trkpt lat="43.65789" lon="6.1629">
        <ele>591.4</ele>
        <time>2023-10-09T12:04:19Z</time>
      </trkpt>
      <trkpt lat="43.65789" lon="6.16291">
        <ele>591.5</ele>
        <time>2023-10-09T12:04:20Z</time>
      </trkpt>
      <trkpt lat="43.6579" lon="6.16291">
        <ele>591.5</ele>
        <time>2023-10-09T12:04:21Z</time>
      </trkpt>
      <trkpt lat="43.65791" lon="6.16291">
        <ele>591.5</ele>
        <time>2023-10-09T12:04:22Z</time>
      </trkpt>
      <trkpt lat="43.65792" lon="6.16291">
        <ele>591.5</ele>
        <time>2023-10-09T12:04:23Z</time>
      </trkpt>
      <trkpt lat="43.65794" lon="6.16292">
        <ele>591.5</ele>
        <time>2023-10-09T12:04:24Z</time>
      </trkpt>
      <trkpt lat="43.65795" lon="6.16292">
        <ele>591.5</ele>
        <time>2023-10-09T12:04:25Z</time>
      </trkpt>
      <trkpt lat="43.65796" lon="6.16292">
        <ele>591.5</ele>
        <time>2023-10-09T12:04:26Z</time>
      </trkpt>
      <trkpt lat="43.65797" lon="6.16293">
        <ele>591.5</ele>
        <time>2023-10-09T12:04:27Z</time>
      </trkpt>
      <trkpt lat="43.65799" lon="6.16293">
        <ele>591.5</ele>
        <time>2023-10-09T12:04:28Z</time>
      </trkpt>
      <trkpt lat="43.658" lon="6.16294">
        <ele>591.6</ele>
        <time>2023-10-09T12:04:29Z</time>
      </trkpt>
      <trkpt lat="43.65802" lon="6.16294">
        <ele>591.6</ele>
        <time>2023-10-09T12:04:30Z</time>
      </trkpt>
      <trkpt lat="43.65804" lon="6.16295">
        <ele>591.6</ele>
        <time>2023-10-09T12:04:31Z</time>
      </trkpt>
      <trkpt lat="43.65805" lon="6.16295">
        <ele>591.6</ele>
        <time>2023-10-09T12:04:32Z</time>
      </trkpt>
      <trkpt lat="43.65806" lon="6.16295">
        <ele>591.6</ele>
        <time>2023-10-09T12:04:33Z</time>
      </trkpt>
      <trkpt lat="43.65807" lon="6.16295">
        <ele>591.6</ele>
        <time>2023-10-09T12:04:34Z</time>
      </trkpt>
      <trkpt lat="43.65809" lon="6.16295">
        <ele>591.5</ele>
        <time>2023-10-09T12:04:35Z</time>
      </trkpt>
      <trkpt lat="43.6581" lon="6.16296">
        <ele>591.5</ele>
        <time>2023-10-09T12:04:36Z</time>
      </trkpt>
      <trkpt lat="43.65812" lon="6.16296">
        <ele>591.4</ele>
        <time>2023-10-09T12:04:37Z</time>
      </trkpt>
      <trkpt lat="43.65813" lon="6.16297">
        <ele>591.4</ele>
        <time>2023-10-09T12:04:38Z</time>
      </trkpt>
      <trkpt lat="43.65815" lon="6.16298">
        <ele>591.4</ele>
        <time>2023-10-09T12:04:39Z</time>
      </trkpt>
      <trkpt lat="43.65816" lon="6.16298">
        <ele>591.4</ele>
        <time>2023-10-09T12:04:40Z</time>
      </trkpt>
      <trkpt lat="43.65818" lon="6.16299">
        <ele>591.3</ele>
        <time>2023-10-09T12:04:41Z</time>
      </trkpt>
      <trkpt lat="43.6582" lon="6.163">
        <ele>591.3</ele>
        <time>2023-10-09T12:04:42Z</time>
      </trkpt>
      <trkpt lat="43.6582" lon="6.163">
        <ele>591.3</ele>
        <time>2023-10-09T12:04:43Z</time>
      </trkpt>
      <trkpt lat="43.65821" lon="6.163">
        <ele>591.2</ele>
        <time>2023-10-09T12:04:44Z</time>
      </trkpt>
      <trkpt lat="43.65822" lon="6.163">
        <ele>591.2</ele>
        <time>2023-10-09T12:04:45Z</time>
      </trkpt>
      <trkpt lat="43.65824" lon="6.163">
        <ele>591.1</ele>
        <time>2023-10-09T12:04:46Z</time>
      </trkpt>
      <trkpt lat="43.65825" lon="6.163">
        <ele>591.1</ele>
        <time>2023-10-09T12:04:47Z</time>
      </trkpt>
      <trkpt lat="43.65826" lon="6.163">
        <ele>591.1</ele>
        <time>2023-10-09T12:04:48Z</time>
      </trkpt>
      <trkpt lat="43.65826" lon="6.16301">
        <ele>591.1</ele>
        <time>2023-10-09T12:04:49Z</time>
      </trkpt>
      <trkpt lat="43.65828" lon="6.16301">
        <ele>591</ele>
        <time>2023-10-09T12:04:50Z</time>
      </trkpt>
      <trkpt lat="43.65829" lon="6.16301">
        <ele>591</ele>
        <time>2023-10-09T12:04:51Z</time>
      </trkpt>
      <trkpt lat="43.6583" lon="6.16301">
        <ele>591</ele>
        <time>2023-10-09T12:04:52Z</time>
      </trkpt>
      <trkpt lat="43.65831" lon="6.16301">
        <ele>590.9</ele>
        <time>2023-10-09T12:04:53Z</time>
      </trkpt>
      <trkpt lat="43.65832" lon="6.16302">
        <ele>590.9</ele>
        <time>2023-10-09T12:04:54Z</time>
      </trkpt>
      <trkpt lat="43.65833" lon="6.16302">
        <ele>590.9</ele>
        <time>2023-10-09T12:04:55Z</time>
      </trkpt>
      <trkpt lat="43.65834" lon="6.16302">
        <ele>590.8</ele>
        <time>2023-10-09T12:04:56Z</time>
      </trkpt>
      <trkpt lat="43.65836" lon="6.16303">
        <ele>590.8</ele>
        <time>2023-10-09T12:04:57Z</time>
      </trkpt>
      <trkpt lat="43.65837" lon="6.16303">
        <ele>590.8</ele>
        <time>2023-10-09T12:04:58Z</time>
      </trkpt>
      <trkpt lat="43.65838" lon="6.16303">
        <ele>590.7</ele>
        <time>2023-10-09T12:04:59Z</time>
      </trkpt>
      <trkpt lat="43.65839" lon="6.16304">
        <ele>590.7</ele>
        <time>2023-10-09T12:05:00Z</time>
      </trkpt>
      <trkpt lat="43.6584" lon="6.16304">
        <ele>590.7</ele>
        <time>2023-10-09T12:05:01Z</time>
      </trkpt>
      <trkpt lat="43.65842" lon="6.16305">
        <ele>590.7</ele>
        <time>2023-10-09T12:05:02Z</time>
      </trkpt>
      <trkpt lat="43.65843" lon="6.16305">
        <ele>590.6</ele>
        <time>2023-10-09T12:05:03Z</time>
      </trkpt>
      <trkpt lat="43.65844" lon="6.16305">
        <ele>590.6</ele>
        <time>2023-10-09T12:05:04Z</time>
      </trkpt>
      <trkpt lat="43.65846" lon="6.16305">
        <ele>590.5</ele>
        <time>2023-10-09T12:05:05Z</time>
      </trkpt>
      <trkpt lat="43.65847" lon="6.16305">
        <ele>590.5</ele>
        <time>2023-10-09T12:05:06Z</time>
      </trkpt>
      <trkpt lat="43.65848" lon="6.16305">
        <ele>590.4</ele>
        <time>2023-10-09T12:05:07Z</time>
      </trkpt>
      <trkpt lat="43.65849" lon="6.16305">
        <ele>590.4</ele>
        <time>2023-10-09T12:05:08Z</time>
      </trkpt>
      <trkpt lat="43.6585" lon="6.16305">
        <ele>590.4</ele>
        <time>2023-10-09T12:05:09Z</time>
      </trkpt>
      <trkpt lat="43.65851" lon="6.16305">
        <ele>590.3</ele>
        <time>2023-10-09T12:05:10Z</time>
      </trkpt>
      <trkpt lat="43.65852" lon="6.16306">
        <ele>590.4</ele>
        <time>2023-10-09T12:05:11Z</time>
      </trkpt>
      <trkpt lat="43.65853" lon="6.16306">
        <ele>590.3</ele>
        <time>2023-10-09T12:05:12Z</time>
      </trkpt>
      <trkpt lat="43.65854" lon="6.16307">
        <ele>590.3</ele>
        <time>2023-10-09T12:05:13Z</time>
      </trkpt>
      <trkpt lat="43.65855" lon="6.16308">
        <ele>590.4</ele>
        <time>2023-10-09T12:05:14Z</time>
      </trkpt>
      <trkpt lat="43.65856" lon="6.16308">
        <ele>590.3</ele>
        <time>2023-10-09T12:05:15Z</time>
      </trkpt>
      <trkpt lat="43.65857" lon="6.16309">
        <ele>590.4</ele>
        <time>2023-10-09T12:05:16Z</time>
      </trkpt>
      <trkpt lat="43.65858" lon="6.1631">
        <ele>590.4</ele>
        <time>2023-10-09T12:05:17Z</time>
      </trkpt>
      <trkpt lat="43.6586" lon="6.16311">
        <ele>590.4</ele>
        <time>2023-10-09T12:05:18Z</time>
      </trkpt>
      <trkpt lat="43.65861" lon="6.16312">
        <ele>590.5</ele>
        <time>2023-10-09T12:05:19Z</time>
      </trkpt>
      <trkpt lat="43.65861" lon="6.16313">
        <ele>590.5</ele>
        <time>2023-10-09T12:05:20Z</time>
      </trkpt>
      <trkpt lat="43.65862" lon="6.16313">
        <ele>590.6</ele>
        <time>2023-10-09T12:05:21Z</time>
      </trkpt>
      <trkpt lat="43.65863" lon="6.16313">
        <ele>590.6</ele>
        <time>2023-10-09T12:05:22Z</time>
      </trkpt>
      <trkpt lat="43.65864" lon="6.16313">
        <ele>590.6</ele>
        <time>2023-10-09T12:05:23Z</time>
      </trkpt>
      <trkpt lat="43.65865" lon="6.16313">
        <ele>590.7</ele>
        <time>2023-10-09T12:05:24Z</time>
      </trkpt>
      <trkpt lat="43.65866" lon="6.16314">
        <ele>590.8</ele>
        <time>2023-10-09T12:05:25Z</time>
      </trkpt>
      <trkpt lat="43.65867" lon="6.16314">
        <ele>590.8</ele>
        <time>2023-10-09T12:05:26Z</time>
      </trkpt>
      <trkpt lat="43.65868" lon="6.16315">
        <ele>590.9</ele>
        <time>2023-10-09T12:05:27Z</time>
      </trkpt>
      <trkpt lat="43.65869" lon="6.16315">
        <ele>591</ele>
        <time>2023-10-09T12:05:28Z</time>
      </trkpt>
      <trkpt lat="43.6587" lon="6.16315">
        <ele>591</ele>
        <time>2023-10-09T12:05:29Z</time>
      </trkpt>
      <trkpt lat="43.65871" lon="6.16316">
        <ele>591.1</ele>
        <time>2023-10-09T12:05:30Z</time>
      </trkpt>
      <trkpt lat="43.65872" lon="6.16317">
        <ele>591.2</ele>
        <time>2023-10-09T12:05:31Z</time>
      </trkpt>
      <trkpt lat="43.65873" lon="6.16317">
        <ele>591.3</ele>
        <time>2023-10-09T12:05:32Z</time>
      </trkpt>
      <trkpt lat="43.65875" lon="6.16318">
        <ele>591.4</ele>
        <time>2023-10-09T12:05:33Z</time>
      </trkpt>
      <trkpt lat="43.65876" lon="6.16319">
        <ele>591.5</ele>
        <time>2023-10-09T12:05:34Z</time>
      </trkpt>
      <trkpt lat="43.65877" lon="6.16319">
        <ele>591.5</ele>
        <time>2023-10-09T12:05:35Z</time>
      </trkpt>
      <trkpt lat="43.65878" lon="6.16319">
        <ele>591.6</ele>
        <time>2023-10-09T12:05:36Z</time>
      </trkpt>
      <trkpt lat="43.65879" lon="6.16319">
        <ele>591.6</ele>
        <time>2023-10-09T12:05:37Z</time>
      </trkpt>
      <trkpt lat="43.65881" lon="6.1632">
        <ele>591.8</ele>
        <time>2023-10-09T12:05:38Z</time>
      </trkpt>
      <trkpt lat="43.65882" lon="6.1632">
        <ele>591.8</ele>
        <time>2023-10-09T12:05:39Z</time>
      </trkpt>
      <trkpt lat="43.65884" lon="6.16321">
        <ele>591.9</ele>
        <time>2023-10-09T12:05:40Z</time>
      </trkpt>
      <trkpt lat="43.65885" lon="6.16321">
        <ele>592</ele>
        <time>2023-10-09T12:05:41Z</time>
      </trkpt>
      <trkpt lat="43.65887" lon="6.16322">
        <ele>592.1</ele>
        <time>2023-10-09T12:05:42Z</time>
      </trkpt>
      <trkpt lat="43.65888" lon="6.16323">
        <ele>592.2</ele>
        <time>2023-10-09T12:05:43Z</time>
      </trkpt>
      <trkpt lat="43.65889" lon="6.16324">
        <ele>592.3</ele>
        <time>2023-10-09T12:05:44Z</time>
      </trkpt>
      <trkpt lat="43.6589" lon="6.16324">
        <ele>592.4</ele>
        <time>2023-10-09T12:05:45Z</time>
      </trkpt>
      <trkpt lat="43.65891" lon="6.16325">
        <ele>592.5</ele>
        <time>2023-10-09T12:05:46Z</time>
      </trkpt>
      <trkpt lat="43.65892" lon="6.16325">
        <ele>592.5</ele>
        <time>2023-10-09T12:05:47Z</time>
      </trkpt>
      <trkpt lat="43.65892" lon="6.16325">
        <ele>592.5</ele>
        <time>2023-10-09T12:05:48Z</time>
      </trkpt>
      <trkpt lat="43.65893" lon="6.16326">
        <ele>592.6</ele>
        <time>2023-10-09T12:05:49Z</time>
      </trkpt>
      <trkpt lat="43.65895" lon="6.16326">
        <ele>592.7</ele>
        <time>2023-10-09T12:05:50Z</time>
      </trkpt>
      <trkpt lat="43.65896" lon="6.16326">
        <ele>592.7</ele>
        <time>2023-10-09T12:05:51Z</time>
      </trkpt>
      <trkpt lat="43.65897" lon="6.16326">
        <ele>592.8</ele>
        <time>2023-10-09T12:05:52Z</time>
      </trkpt>
      <trkpt lat="43.65898" lon="6.16326">
        <ele>592.8</ele>
        <time>2023-10-09T12:05:53Z</time>
      </trkpt>
      <trkpt lat="43.659" lon="6.16326">
        <ele>592.9</ele>
        <time>2023-10-09T12:05:54Z</time>
      </trkpt>
      <trkpt lat="43.65901" lon="6.16326">
        <ele>592.9</ele>
        <time>2023-10-09T12:05:55Z</time>
      </trkpt>
      <trkpt lat="43.65902" lon="6.16327">
        <ele>593</ele>
        <time>2023-10-09T12:05:56Z</time>
      </trkpt>
      <trkpt lat="43.65903" lon="6.16327">
        <ele>593.1</ele>
        <time>2023-10-09T12:05:57Z</time>
      </trkpt>
      <trkpt lat="43.65904" lon="6.16327">
        <ele>593.1</ele>
        <time>2023-10-09T12:05:58Z</time>
      </trkpt>
      <trkpt lat="43.65904" lon="6.16327">
        <ele>593.1</ele>
        <time>2023-10-09T12:05:59Z</time>
      </trkpt>
      <trkpt lat="43.65905" lon="6.16327">
        <ele>593.1</ele>
        <time>2023-10-09T12:06:00Z</time>
      </trkpt>
      <trkpt lat="43.65906" lon="6.16327">
        <ele>593.2</ele>
        <time>2023-10-09T12:06:01Z</time>
      </trkpt>
      <trkpt lat="43.65907" lon="6.16327">
        <ele>593.2</ele>
        <time>2023-10-09T12:06:02Z</time>
      </trkpt>
      <trkpt lat="43.65908" lon="6.16328">
        <ele>593.3</ele>
        <time>2023-10-09T12:06:03Z</time>
      </trkpt>
      <trkpt lat="43.65908" lon="6.16328">
        <ele>593.3</ele>
        <time>2023-10-09T12:06:04Z</time>
      </trkpt>
      <trkpt lat="43.65909" lon="6.16329">
        <ele>593.4</ele>
        <time>2023-10-09T12:06:05Z</time>
      </trkpt>
      <trkpt lat="43.6591" lon="6.16329">
        <ele>593.4</ele>
        <time>2023-10-09T12:06:06Z</time>
      </trkpt>
      <trkpt lat="43.65911" lon="6.16329">
        <ele>593.5</ele>
        <time>2023-10-09T12:06:07Z</time>
      </trkpt>
      <trkpt lat="43.65912" lon="6.1633">
        <ele>593.6</ele>
        <time>2023-10-09T12:06:08Z</time>
      </trkpt>
      <trkpt lat="43.65913" lon="6.1633">
        <ele>593.6</ele>
        <time>2023-10-09T12:06:09Z</time>
      </trkpt>
      <trkpt lat="43.65914" lon="6.1633">
        <ele>593.7</ele>
        <time>2023-10-09T12:06:10Z</time>
      </trkpt>
      <trkpt lat="43.65916" lon="6.16331">
        <ele>593.8</ele>
        <time>2023-10-09T12:06:11Z</time>
      </trkpt>
      <trkpt lat="43.65917" lon="6.16332">
        <ele>593.9</ele>
        <time>2023-10-09T12:06:12Z</time>
      </trkpt>
      <trkpt lat="43.65918" lon="6.16332">
        <ele>593.9</ele>
        <time>2023-10-09T12:06:13Z</time>
      </trkpt>
      <trkpt lat="43.65919" lon="6.16333">
        <ele>593.9</ele>
        <time>2023-10-09T12:06:14Z</time>
      </trkpt>
      <trkpt lat="43.6592" lon="6.16333">
        <ele>593.9</ele>
        <time>2023-10-09T12:06:15Z</time>
      </trkpt>
      <trkpt lat="43.65921" lon="6.16333">
        <ele>593.8</ele>
        <time>2023-10-09T12:06:16Z</time>
      </trkpt>
      <trkpt lat="43.65922" lon="6.16334">
        <ele>593.9</ele>
        <time>2023-10-09T12:06:17Z</time>
      </trkpt>
      <trkpt lat="43.65923" lon="6.16334">
        <ele>593.8</ele>
        <time>2023-10-09T12:06:18Z</time>
      </trkpt>
      <trkpt lat="43.65924" lon="6.16335">
        <ele>593.9</ele>
        <time>2023-10-09T12:06:19Z</time>
      </trkpt>
      <trkpt lat="43.65924" lon="6.16335">
        <ele>593.9</ele>
        <time>2023-10-09T12:06:20Z</time>
      </trkpt>
      <trkpt lat="43.65925" lon="6.16336">
        <ele>594</ele>
        <time>2023-10-09T12:06:21Z</time>
      </trkpt>
      <trkpt lat="43.65926" lon="6.16336">
        <ele>594</ele>
        <time>2023-10-09T12:06:22Z</time>
      </trkpt>
      <trkpt lat="43.65928" lon="6.16337">
        <ele>594</ele>
        <time>2023-10-09T12:06:23Z</time>
      </trkpt>
      <trkpt lat="43.65929" lon="6.16337">
        <ele>594</ele>
        <time>2023-10-09T12:06:24Z</time>
      </trkpt>
      <trkpt lat="43.65929" lon="6.16337">
        <ele>594</ele>
        <time>2023-10-09T12:06:25Z</time>
      </trkpt>
      <trkpt lat="43.65931" lon="6.16338">
        <ele>594</ele>
        <time>2023-10-09T12:06:26Z</time>
      </trkpt>
      <trkpt lat="43.65932" lon="6.16339">
        <ele>594.1</ele>
        <time>2023-10-09T12:06:27Z</time>
      </trkpt>
      <trkpt lat="43.65934" lon="6.16339">
        <ele>594</ele>
        <time>2023-10-09T12:06:28Z</time>
      </trkpt>
      <trkpt lat="43.65935" lon="6.16339">
        <ele>594</ele>
        <time>2023-10-09T12:06:29Z</time>
      </trkpt>
      <trkpt lat="43.65937" lon="6.1634">
        <ele>594</ele>
        <time>2023-10-09T12:06:30Z</time>
      </trkpt>
      <trkpt lat="43.65938" lon="6.16341">
        <ele>594.1</ele>
        <time>2023-10-09T12:06:31Z</time>
      </trkpt>
      <trkpt lat="43.65939" lon="6.16341">
        <ele>594</ele>
        <time>2023-10-09T12:06:32Z</time>
      </trkpt>
      <trkpt lat="43.6594" lon="6.16342">
        <ele>594.1</ele>
        <time>2023-10-09T12:06:33Z</time>
      </trkpt>
      <trkpt lat="43.65941" lon="6.16342">
        <ele>594.1</ele>
        <time>2023-10-09T12:06:34Z</time>
      </trkpt>
      <trkpt lat="43.65942" lon="6.16343">
        <ele>594.1</ele>
        <time>2023-10-09T12:06:35Z</time>
      </trkpt>
      <trkpt lat="43.65943" lon="6.16343">
        <ele>594.1</ele>
        <time>2023-10-09T12:06:36Z</time>
      </trkpt>
      <trkpt lat="43.65944" lon="6.16344">
        <ele>594.2</ele>
        <time>2023-10-09T12:06:37Z</time>
      </trkpt>
      <trkpt lat="43.65945" lon="6.16344">
        <ele>594.1</ele>
        <time>2023-10-09T12:06:38Z</time>
      </trkpt>
      <trkpt lat="43.65945" lon="6.16345">
        <ele>594.2</ele>
        <time>2023-10-09T12:06:39Z</time>
      </trkpt>
      <trkpt lat="43.65946" lon="6.16346">
        <ele>594.3</ele>
        <time>2023-10-09T12:06:40Z</time>
      </trkpt>
      <trkpt lat="43.65947" lon="6.16346">
        <ele>594.2</ele>
        <time>2023-10-09T12:06:41Z</time>
      </trkpt>
      <trkpt lat="43.65948" lon="6.16346">
        <ele>594.2</ele>
        <time>2023-10-09T12:06:42Z</time>
      </trkpt>
      <trkpt lat="43.65949" lon="6.16346">
        <ele>594.1</ele>
        <time>2023-10-09T12:06:43Z</time>
      </trkpt>
      <trkpt lat="43.6595" lon="6.16347">
        <ele>594.2</ele>
        <time>2023-10-09T12:06:44Z</time>
      </trkpt>
      <trkpt lat="43.65951" lon="6.16347">
        <ele>594.1</ele>
        <time>2023-10-09T12:06:45Z</time>
      </trkpt>
      <trkpt lat="43.65951" lon="6.16348">
        <ele>594.2</ele>
        <time>2023-10-09T12:06:46Z</time>
      </trkpt>
      <trkpt lat="43.65952" lon="6.16348">
        <ele>594.2</ele>
        <time>2023-10-09T12:06:47Z</time>
      </trkpt>
      <trkpt lat="43.65953" lon="6.16349">
        <ele>594.2</ele>
        <time>2023-10-09T12:06:48Z</time>
      </trkpt>
      <trkpt lat="43.65953" lon="6.1635">
        <ele>594.4</ele>
        <time>2023-10-09T12:06:49Z</time>
      </trkpt>
      <trkpt lat="43.65954" lon="6.16351">
        <ele>594.4</ele>
        <time>2023-10-09T12:06:50Z</time>
      </trkpt>
      <trkpt lat="43.65955" lon="6.16353">
        <ele>594.6</ele>
        <time>2023-10-09T12:06:51Z</time>
      </trkpt>
      <trkpt lat="43.65957" lon="6.16354">
        <ele>594.7</ele>
        <time>2023-10-09T12:06:52Z</time>
      </trkpt>
      <trkpt lat="43.65958" lon="6.16354">
        <ele>594.6</ele>
        <time>2023-10-09T12:06:53Z</time>
      </trkpt>
      <trkpt lat="43.65958" lon="6.16355">
        <ele>594.7</ele>
        <time>2023-10-09T12:06:54Z</time>
      </trkpt>
      <trkpt lat="43.6596" lon="6.16356">
        <ele>594.8</ele>
        <time>2023-10-09T12:06:55Z</time>
      </trkpt>
      <trkpt lat="43.65962" lon="6.16356">
        <ele>594.7</ele>
        <time>2023-10-09T12:06:56Z</time>
      </trkpt>
      <trkpt lat="43.65963" lon="6.16356">
        <ele>594.7</ele>
        <time>2023-10-09T12:06:57Z</time>
      </trkpt>
      <trkpt lat="43.65964" lon="6.16357">
        <ele>594.7</ele>
        <time>2023-10-09T12:06:58Z</time>
      </trkpt>
      <trkpt lat="43.65965" lon="6.16357">
        <ele>594.7</ele>
        <time>2023-10-09T12:06:59Z</time>
      </trkpt>
      <trkpt lat="43.65967" lon="6.16357">
        <ele>594.6</ele>
        <time>2023-10-09T12:07:00Z</time>
      </trkpt>
      <trkpt lat="43.65968" lon="6.16357">
        <ele>594.6</ele>
        <time>2023-10-09T12:07:01Z</time>
      </trkpt>
      <trkpt lat="43.65969" lon="6.16357">
        <ele>594.5</ele>
        <time>2023-10-09T12:07:02Z</time>
      </trkpt>
      <trkpt lat="43.6597" lon="6.16358">
        <ele>594.6</ele>
        <time>2023-10-09T12:07:03Z</time>
      </trkpt>
      <trkpt lat="43.65971" lon="6.16358">
        <ele>594.6</ele>
        <time>2023-10-09T12:07:04Z</time>
      </trkpt>
      <trkpt lat="43.65972" lon="6.16358">
        <ele>594.6</ele>
        <time>2023-10-09T12:07:05Z</time>
      </trkpt>
      <trkpt lat="43.65973" lon="6.16359">
        <ele>594.7</ele>
        <time>2023-10-09T12:07:06Z</time>
      </trkpt>
      <trkpt lat="43.65974" lon="6.16359">
        <ele>594.7</ele>
        <time>2023-10-09T12:07:07Z</time>
      </trkpt>
      <trkpt lat="43.65975" lon="6.16359">
        <ele>594.7</ele>
        <time>2023-10-09T12:07:08Z</time>
      </trkpt>
      <trkpt lat="43.65976" lon="6.16359">
        <ele>594.7</ele>
        <time>2023-10-09T12:07:09Z</time>
      </trkpt>
      <trkpt lat="43.65977" lon="6.1636">
        <ele>594.9</ele>
        <time>2023-10-09T12:07:10Z</time>
      </trkpt>
      <trkpt lat="43.65978" lon="6.1636">
        <ele>594.9</ele>
        <time>2023-10-09T12:07:11Z</time>
      </trkpt>
      <trkpt lat="43.65979" lon="6.1636">
        <ele>594.9</ele>
        <time>2023-10-09T12:07:12Z</time>
      </trkpt>
      <trkpt lat="43.6598" lon="6.1636">
        <ele>594.9</ele>
        <time>2023-10-09T12:07:13Z</time>
      </trkpt>
      <trkpt lat="43.65981" lon="6.1636">
        <ele>594.9</ele>
        <time>2023-10-09T12:07:14Z</time>
      </trkpt>
      <trkpt lat="43.65982" lon="6.1636">
        <ele>594.9</ele>
        <time>2023-10-09T12:07:15Z</time>
      </trkpt>
      <trkpt lat="43.65983" lon="6.1636">
        <ele>594.9</ele>
        <time>2023-10-09T12:07:16Z</time>
      </trkpt>
      <trkpt lat="43.65984" lon="6.16361">
        <ele>595</ele>
        <time>2023-10-09T12:07:17Z</time>
      </trkpt>
      <trkpt lat="43.65985" lon="6.16361">
        <ele>595</ele>
        <time>2023-10-09T12:07:18Z</time>
      </trkpt>
      <trkpt lat="43.65986" lon="6.16361">
        <ele>595</ele>
        <time>2023-10-09T12:07:19Z</time>
      </trkpt>
      <trkpt lat="43.65987" lon="6.16361">
        <ele>595</ele>
        <time>2023-10-09T12:07:20Z</time>
      </trkpt>
      <trkpt lat="43.65989" lon="6.16362">
        <ele>595.1</ele>
        <time>2023-10-09T12:07:21Z</time>
      </trkpt>
      <trkpt lat="43.6599" lon="6.16363">
        <ele>595.2</ele>
        <time>2023-10-09T12:07:22Z</time>
      </trkpt>
      <trkpt lat="43.65991" lon="6.16363">
        <ele>595.2</ele>
        <time>2023-10-09T12:07:23Z</time>
      </trkpt>
      <trkpt lat="43.65992" lon="6.16364">
        <ele>595.3</ele>
        <time>2023-10-09T12:07:24Z</time>
      </trkpt>
      <trkpt lat="43.65992" lon="6.16364">
        <ele>595.3</ele>
        <time>2023-10-09T12:07:25Z</time>
      </trkpt>
      <trkpt lat="43.65993" lon="6.16365">
        <ele>595.4</ele>
        <time>2023-10-09T12:07:26Z</time>
      </trkpt>
      <trkpt lat="43.65994" lon="6.16366">
        <ele>595.4</ele>
        <time>2023-10-09T12:07:27Z</time>
      </trkpt>
      <trkpt lat="43.65995" lon="6.16367">
        <ele>595.5</ele>
        <time>2023-10-09T12:07:28Z</time>
      </trkpt>
      <trkpt lat="43.65995" lon="6.16368">
        <ele>595.6</ele>
        <time>2023-10-09T12:07:29Z</time>
      </trkpt>
      <trkpt lat="43.65996" lon="6.16369">
        <ele>595.6</ele>
        <time>2023-10-09T12:07:30Z</time>
      </trkpt>
      <trkpt lat="43.65997" lon="6.16371">
        <ele>595.8</ele>
        <time>2023-10-09T12:07:31Z</time>
      </trkpt>
      <trkpt lat="43.65998" lon="6.16372">
        <ele>595.8</ele>
        <time>2023-10-09T12:07:32Z</time>
      </trkpt>
      <trkpt lat="43.65998" lon="6.16373">
        <ele>595.9</ele>
        <time>2023-10-09T12:07:33Z</time>
      </trkpt>
      <trkpt lat="43.65999" lon="6.16374">
        <ele>596</ele>
        <time>2023-10-09T12:07:34Z</time>
      </trkpt>
      <trkpt lat="43.66" lon="6.16375">
        <ele>596</ele>
        <time>2023-10-09T12:07:35Z</time>
      </trkpt>
      <trkpt lat="43.66" lon="6.16376">
        <ele>596.1</ele>
        <time>2023-10-09T12:07:36Z</time>
      </trkpt>
      <trkpt lat="43.66001" lon="6.16377">
        <ele>596.2</ele>
        <time>2023-10-09T12:07:37Z</time>
      </trkpt>
      <trkpt lat="43.66001" lon="6.16378">
        <ele>596.3</ele>
        <time>2023-10-09T12:07:38Z</time>
      </trkpt>
      <trkpt lat="43.66002" lon="6.16379">
        <ele>596.5</ele>
        <time>2023-10-09T12:07:39Z</time>
      </trkpt>
      <trkpt lat="43.66002" lon="6.1638">
        <ele>596.6</ele>
        <time>2023-10-09T12:07:40Z</time>
      </trkpt>
      <trkpt lat="43.66003" lon="6.16381">
        <ele>596.7</ele>
        <time>2023-10-09T12:07:41Z</time>
      </trkpt>
      <trkpt lat="43.66004" lon="6.16383">
        <ele>596.9</ele>
        <time>2023-10-09T12:07:42Z</time>
      </trkpt>
      <trkpt lat="43.66004" lon="6.16384">
        <ele>597</ele>
        <time>2023-10-09T12:07:43Z</time>
      </trkpt>
      <trkpt lat="43.66005" lon="6.16385">
        <ele>597.1</ele>
        <time>2023-10-09T12:07:44Z</time>
      </trkpt>
      <trkpt lat="43.66005" lon="6.16386">
        <ele>597.2</ele>
        <time>2023-10-09T12:07:45Z</time>
      </trkpt>
      <trkpt lat="43.66006" lon="6.16387">
        <ele>597.3</ele>
        <time>2023-10-09T12:07:46Z</time>
      </trkpt>
      <trkpt lat="43.66006" lon="6.16389">
        <ele>597.4</ele>
        <time>2023-10-09T12:07:47Z</time>
      </trkpt>
      <trkpt lat="43.66007" lon="6.1639">
        <ele>597.6</ele>
        <time>2023-10-09T12:07:48Z</time>
      </trkpt>
      <trkpt lat="43.66007" lon="6.16391">
        <ele>597.7</ele>
        <time>2023-10-09T12:07:49Z</time>
      </trkpt>
      <trkpt lat="43.66008" lon="6.16392">
        <ele>597.8</ele>
        <time>2023-10-09T12:07:50Z</time>
      </trkpt>
      <trkpt lat="43.66008" lon="6.16393">
        <ele>597.9</ele>
        <time>2023-10-09T12:07:51Z</time>
      </trkpt>
      <trkpt lat="43.66009" lon="6.16394">
        <ele>598.1</ele>
        <time>2023-10-09T12:07:52Z</time>
      </trkpt>
      <trkpt lat="43.66009" lon="6.16396">
        <ele>598.3</ele>
        <time>2023-10-09T12:07:53Z</time>
      </trkpt>
      <trkpt lat="43.66009" lon="6.16397">
        <ele>598.3</ele>
        <time>2023-10-09T12:07:54Z</time>
      </trkpt>
      <trkpt lat="43.6601" lon="6.16398">
        <ele>598.5</ele>
        <time>2023-10-09T12:07:55Z</time>
      </trkpt>
      <trkpt lat="43.6601" lon="6.164">
        <ele>598.6</ele>
        <time>2023-10-09T12:07:56Z</time>
      </trkpt>
      <trkpt lat="43.6601" lon="6.16401">
        <ele>598.7</ele>
        <time>2023-10-09T12:07:57Z</time>
      </trkpt>
      <trkpt lat="43.6601" lon="6.16402">
        <ele>598.8</ele>
        <time>2023-10-09T12:07:58Z</time>
      </trkpt>
      <trkpt lat="43.6601" lon="6.16403">
        <ele>598.9</ele>
        <time>2023-10-09T12:07:59Z</time>
      </trkpt>
      <trkpt lat="43.66011" lon="6.16404">
        <ele>599</ele>
        <time>2023-10-09T12:08:00Z</time>
      </trkpt>
      <trkpt lat="43.66011" lon="6.16405">
        <ele>599.1</ele>
        <time>2023-10-09T12:08:01Z</time>
      </trkpt>
      <trkpt lat="43.66012" lon="6.16406">
        <ele>599.2</ele>
        <time>2023-10-09T12:08:02Z</time>
      </trkpt>
      <trkpt lat="43.66013" lon="6.16407">
        <ele>599.3</ele>
        <time>2023-10-09T12:08:03Z</time>
      </trkpt>
      <trkpt lat="43.66013" lon="6.16408">
        <ele>599.4</ele>
        <time>2023-10-09T12:08:04Z</time>
      </trkpt>
      <trkpt lat="43.66013" lon="6.16409">
        <ele>599.4</ele>
        <time>2023-10-09T12:08:05Z</time>
      </trkpt>
      <trkpt lat="43.66013" lon="6.1641">
        <ele>599.5</ele>
        <time>2023-10-09T12:08:06Z</time>
      </trkpt>
      <trkpt lat="43.66013" lon="6.16411">
        <ele>599.6</ele>
        <time>2023-10-09T12:08:07Z</time>
      </trkpt>
      <trkpt lat="43.66013" lon="6.16412">
        <ele>599.7</ele>
        <time>2023-10-09T12:08:08Z</time>
      </trkpt>
      <trkpt lat="43.66013" lon="6.16413">
        <ele>599.7</ele>
        <time>2023-10-09T12:08:09Z</time>
      </trkpt>
      <trkpt lat="43.66014" lon="6.16415">
        <ele>599.9</ele>
        <time>2023-10-09T12:08:10Z</time>
      </trkpt>
      <trkpt lat="43.66015" lon="6.16416">
        <ele>600</ele>
        <time>2023-10-09T12:08:11Z</time>
      </trkpt>
      <trkpt lat="43.66015" lon="6.16417">
        <ele>600</ele>
        <time>2023-10-09T12:08:12Z</time>
      </trkpt>
      <trkpt lat="43.66016" lon="6.16418">
        <ele>600.1</ele>
        <time>2023-10-09T12:08:13Z</time>
      </trkpt>
      <trkpt lat="43.66017" lon="6.16419">
        <ele>600.2</ele>
        <time>2023-10-09T12:08:14Z</time>
      </trkpt>
      <trkpt lat="43.66017" lon="6.1642">
        <ele>600.3</ele>
        <time>2023-10-09T12:08:15Z</time>
      </trkpt>
      <trkpt lat="43.66018" lon="6.16421">
        <ele>600.4</ele>
        <time>2023-10-09T12:08:16Z</time>
      </trkpt>
      <trkpt lat="43.66018" lon="6.16422">
        <ele>600.5</ele>
        <time>2023-10-09T12:08:17Z</time>
      </trkpt>
      <trkpt lat="43.66019" lon="6.16423">
        <ele>600.5</ele>
        <time>2023-10-09T12:08:18Z</time>
      </trkpt>
      <trkpt lat="43.6602" lon="6.16424">
        <ele>600.6</ele>
        <time>2023-10-09T12:08:19Z</time>
      </trkpt>
      <trkpt lat="43.6602" lon="6.16425">
        <ele>600.7</ele>
        <time>2023-10-09T12:08:20Z</time>
      </trkpt>
      <trkpt lat="43.66021" lon="6.16426">
        <ele>600.8</ele>
        <time>2023-10-09T12:08:21Z</time>
      </trkpt>
      <trkpt lat="43.66022" lon="6.16427">
        <ele>600.8</ele>
        <time>2023-10-09T12:08:22Z</time>
      </trkpt>
      <trkpt lat="43.66023" lon="6.16428">
        <ele>600.9</ele>
        <time>2023-10-09T12:08:23Z</time>
      </trkpt>
      <trkpt lat="43.66024" lon="6.16429">
        <ele>600.9</ele>
        <time>2023-10-09T12:08:24Z</time>
      </trkpt>
      <trkpt lat="43.66025" lon="6.1643">
        <ele>601</ele>
        <time>2023-10-09T12:08:25Z</time>
      </trkpt>
      <trkpt lat="43.66026" lon="6.16431">
        <ele>601.1</ele>
        <time>2023-10-09T12:08:26Z</time>
      </trkpt>
      <trkpt lat="43.66027" lon="6.16432">
        <ele>601.1</ele>
        <time>2023-10-09T12:08:27Z</time>
      </trkpt>
      <trkpt lat="43.66028" lon="6.16433">
        <ele>601.2</ele>
        <time>2023-10-09T12:08:28Z</time>
      </trkpt>
      <trkpt lat="43.66028" lon="6.16433">
        <ele>601.2</ele>
        <time>2023-10-09T12:08:29Z</time>
      </trkpt>
      <trkpt lat="43.66029" lon="6.16433">
        <ele>601.3</ele>
        <time>2023-10-09T12:08:30Z</time>
      </trkpt>
      <trkpt lat="43.6603" lon="6.16433">
        <ele>601.4</ele>
        <time>2023-10-09T12:08:31Z</time>
      </trkpt>
      <trkpt lat="43.66031" lon="6.16434">
        <ele>601.5</ele>
        <time>2023-10-09T12:08:32Z</time>
      </trkpt>
      <trkpt lat="43.66032" lon="6.16434">
        <ele>601.6</ele>
        <time>2023-10-09T12:08:33Z</time>
      </trkpt>
      <trkpt lat="43.66032" lon="6.16433">
        <ele>601.5</ele>
        <time>2023-10-09T12:08:34Z</time>
      </trkpt>
      <trkpt lat="43.66033" lon="6.16432">
        <ele>601.6</ele>
        <time>2023-10-09T12:08:35Z</time>
      </trkpt>
      <trkpt lat="43.66034" lon="6.16432">
        <ele>601.7</ele>
        <time>2023-10-09T12:08:36Z</time>
      </trkpt>
      <trkpt lat="43.66035" lon="6.16432">
        <ele>601.7</ele>
        <time>2023-10-09T12:08:37Z</time>
      </trkpt>
      <trkpt lat="43.66036" lon="6.16432">
        <ele>601.8</ele>
        <time>2023-10-09T12:08:38Z</time>
      </trkpt>
      <trkpt lat="43.66037" lon="6.16432">
        <ele>601.9</ele>
        <time>2023-10-09T12:08:39Z</time>
      </trkpt>
      <trkpt lat="43.66038" lon="6.16431">
        <ele>601.9</ele>
        <time>2023-10-09T12:08:40Z</time>
      </trkpt>
      <trkpt lat="43.66038" lon="6.16431">
        <ele>601.9</ele>
        <time>2023-10-09T12:08:41Z</time>
      </trkpt>
      <trkpt lat="43.66039" lon="6.1643">
        <ele>602</ele>
        <time>2023-10-09T12:08:42Z</time>
      </trkpt>
      <trkpt lat="43.66039" lon="6.16429">
        <ele>601.9</ele>
        <time>2023-10-09T12:08:43Z</time>
      </trkpt>
      <trkpt lat="43.6604" lon="6.16428">
        <ele>602</ele>
        <time>2023-10-09T12:08:44Z</time>
      </trkpt>
      <trkpt lat="43.66041" lon="6.16427">
        <ele>602</ele>
        <time>2023-10-09T12:08:45Z</time>
      </trkpt>
      <trkpt lat="43.66041" lon="6.16427">
        <ele>602</ele>
        <time>2023-10-09T12:08:46Z</time>
      </trkpt>
      <trkpt lat="43.66042" lon="6.16426">
        <ele>602</ele>
        <time>2023-10-09T12:08:47Z</time>
      </trkpt>
      <trkpt lat="43.66043" lon="6.16425">
        <ele>602.1</ele>
        <time>2023-10-09T12:08:48Z</time>
      </trkpt>
      <trkpt lat="43.66043" lon="6.16424">
        <ele>602</ele>
        <time>2023-10-09T12:08:49Z</time>
      </trkpt>
      <trkpt lat="43.66044" lon="6.16423">
        <ele>602.1</ele>
        <time>2023-10-09T12:08:50Z</time>
      </trkpt>
      <trkpt lat="43.66045" lon="6.16423">
        <ele>602.2</ele>
        <time>2023-10-09T12:08:51Z</time>
      </trkpt>
      <trkpt lat="43.66045" lon="6.16422">
        <ele>602.1</ele>
        <time>2023-10-09T12:08:52Z</time>
      </trkpt>
      <trkpt lat="43.66046" lon="6.16421">
        <ele>602.2</ele>
        <time>2023-10-09T12:08:53Z</time>
      </trkpt>
      <trkpt lat="43.66047" lon="6.1642">
        <ele>602.2</ele>
        <time>2023-10-09T12:08:54Z</time>
      </trkpt>
      <trkpt lat="43.66048" lon="6.16419">
        <ele>602.3</ele>
        <time>2023-10-09T12:08:55Z</time>
      </trkpt>
      <trkpt lat="43.66048" lon="6.16419">
        <ele>602.3</ele>
        <time>2023-10-09T12:08:56Z</time>
      </trkpt>
      <trkpt lat="43.66049" lon="6.16418">
        <ele>602.4</ele>
        <time>2023-10-09T12:08:57Z</time>
      </trkpt>
      <trkpt lat="43.6605" lon="6.16417">
        <ele>602.4</ele>
        <time>2023-10-09T12:08:58Z</time>
      </trkpt>
      <trkpt lat="43.66051" lon="6.16416">
        <ele>602.5</ele>
        <time>2023-10-09T12:08:59Z</time>
      </trkpt>
      <trkpt lat="43.66052" lon="6.16416">
        <ele>602.6</ele>
        <time>2023-10-09T12:09:00Z</time>
      </trkpt>
      <trkpt lat="43.66053" lon="6.16415">
        <ele>602.7</ele>
        <time>2023-10-09T12:09:01Z</time>
      </trkpt>
      <trkpt lat="43.66054" lon="6.16413">
        <ele>602.7</ele>
        <time>2023-10-09T12:09:02Z</time>
      </trkpt>
      <trkpt lat="43.66054" lon="6.16413">
        <ele>602.7</ele>
        <time>2023-10-09T12:09:03Z</time>
      </trkpt>
      <trkpt lat="43.66055" lon="6.16412">
        <ele>602.8</ele>
        <time>2023-10-09T12:09:04Z</time>
      </trkpt>
      <trkpt lat="43.66057" lon="6.1641">
        <ele>602.8</ele>
        <time>2023-10-09T12:09:05Z</time>
      </trkpt>
      <trkpt lat="43.66057" lon="6.16409">
        <ele>602.8</ele>
        <time>2023-10-09T12:09:06Z</time>
      </trkpt>
      <trkpt lat="43.66058" lon="6.16408">
        <ele>602.7</ele>
        <time>2023-10-09T12:09:07Z</time>
      </trkpt>
      <trkpt lat="43.66059" lon="6.16406">
        <ele>602.7</ele>
        <time>2023-10-09T12:09:08Z</time>
      </trkpt>
      <trkpt lat="43.6606" lon="6.16406">
        <ele>602.7</ele>
        <time>2023-10-09T12:09:09Z</time>
      </trkpt>
      <trkpt lat="43.66061" lon="6.16405">
        <ele>602.7</ele>
        <time>2023-10-09T12:09:10Z</time>
      </trkpt>
      <trkpt lat="43.66062" lon="6.16404">
        <ele>602.7</ele>
        <time>2023-10-09T12:09:11Z</time>
      </trkpt>
      <trkpt lat="43.66062" lon="6.16403">
        <ele>602.6</ele>
        <time>2023-10-09T12:09:12Z</time>
      </trkpt>
      <trkpt lat="43.66063" lon="6.16403">
        <ele>602.6</ele>
        <time>2023-10-09T12:09:13Z</time>
      </trkpt>
      <trkpt lat="43.66063" lon="6.16402">
        <ele>602.6</ele>
        <time>2023-10-09T12:09:14Z</time>
      </trkpt>
      <trkpt lat="43.66064" lon="6.16401">
        <ele>602.6</ele>
        <time>2023-10-09T12:09:15Z</time>
      </trkpt>
      <trkpt lat="43.66065" lon="6.16401">
        <ele>602.6</ele>
        <time>2023-10-09T12:09:16Z</time>
      </trkpt>
      <trkpt lat="43.66066" lon="6.16401">
        <ele>602.6</ele>
        <time>2023-10-09T12:09:17Z</time>
      </trkpt>
      <trkpt lat="43.66068" lon="6.16401">
        <ele>602.6</ele>
        <time>2023-10-09T12:09:18Z</time>
      </trkpt>
      <trkpt lat="43.66069" lon="6.16401">
        <ele>602.6</ele>
        <time>2023-10-09T12:09:19Z</time>
      </trkpt>
      <trkpt lat="43.66069" lon="6.16401">
        <ele>602.6</ele>
        <time>2023-10-09T12:09:20Z</time>
      </trkpt>
      <trkpt lat="43.6607" lon="6.16401">
        <ele>602.7</ele>
        <time>2023-10-09T12:09:21Z</time>
      </trkpt>
      <trkpt lat="43.66071" lon="6.16402">
        <ele>602.7</ele>
        <time>2023-10-09T12:09:22Z</time>
      </trkpt>
      <trkpt lat="43.66073" lon="6.16402">
        <ele>602.8</ele>
        <time>2023-10-09T12:09:23Z</time>
      </trkpt>
      <trkpt lat="43.66074" lon="6.16403">
        <ele>602.8</ele>
        <time>2023-10-09T12:09:24Z</time>
      </trkpt>
      <trkpt lat="43.66075" lon="6.16403">
        <ele>602.9</ele>
        <time>2023-10-09T12:09:25Z</time>
      </trkpt>
      <trkpt lat="43.66077" lon="6.16403">
        <ele>602.9</ele>
        <time>2023-10-09T12:09:26Z</time>
      </trkpt>
      <trkpt lat="43.66078" lon="6.16404">
        <ele>603</ele>
        <time>2023-10-09T12:09:27Z</time>
      </trkpt>
      <trkpt lat="43.66079" lon="6.16404">
        <ele>603</ele>
        <time>2023-10-09T12:09:28Z</time>
      </trkpt>
      <trkpt lat="43.6608" lon="6.16404">
        <ele>603</ele>
        <time>2023-10-09T12:09:29Z</time>
      </trkpt>
      <trkpt lat="43.66081" lon="6.16405">
        <ele>603.1</ele>
        <time>2023-10-09T12:09:30Z</time>
      </trkpt>
      <trkpt lat="43.66082" lon="6.16405">
        <ele>603.1</ele>
        <time>2023-10-09T12:09:31Z</time>
      </trkpt>
      <trkpt lat="43.66083" lon="6.16405">
        <ele>603.2</ele>
        <time>2023-10-09T12:09:32Z</time>
      </trkpt>
      <trkpt lat="43.66084" lon="6.16406">
        <ele>603.2</ele>
        <time>2023-10-09T12:09:33Z</time>
      </trkpt>
      <trkpt lat="43.66086" lon="6.16406">
        <ele>603.3</ele>
        <time>2023-10-09T12:09:34Z</time>
      </trkpt>
      <trkpt lat="43.66087" lon="6.16407">
        <ele>603.3</ele>
        <time>2023-10-09T12:09:35Z</time>
      </trkpt>
      <trkpt lat="43.66088" lon="6.16408">
        <ele>603.4</ele>
        <time>2023-10-09T12:09:36Z</time>
      </trkpt>
      <trkpt lat="43.66089" lon="6.16408">
        <ele>603.4</ele>
        <time>2023-10-09T12:09:37Z</time>
      </trkpt>
      <trkpt lat="43.6609" lon="6.16409">
        <ele>603.5</ele>
        <time>2023-10-09T12:09:38Z</time>
      </trkpt>
      <trkpt lat="43.66091" lon="6.16409">
        <ele>603.5</ele>
        <time>2023-10-09T12:09:39Z</time>
      </trkpt>
      <trkpt lat="43.66091" lon="6.1641">
        <ele>603.6</ele>
        <time>2023-10-09T12:09:40Z</time>
      </trkpt>
      <trkpt lat="43.66092" lon="6.16411">
        <ele>603.7</ele>
        <time>2023-10-09T12:09:41Z</time>
      </trkpt>
      <trkpt lat="43.66093" lon="6.16411">
        <ele>603.7</ele>
        <time>2023-10-09T12:09:42Z</time>
      </trkpt>
      <trkpt lat="43.66094" lon="6.16411">
        <ele>603.7</ele>
        <time>2023-10-09T12:09:43Z</time>
      </trkpt>
      <trkpt lat="43.66095" lon="6.16412">
        <ele>603.7</ele>
        <time>2023-10-09T12:09:44Z</time>
      </trkpt>
      <trkpt lat="43.66095" lon="6.16412">
        <ele>603.7</ele>
        <time>2023-10-09T12:09:45Z</time>
      </trkpt>
      <trkpt lat="43.66096" lon="6.16413">
        <ele>603.8</ele>
        <time>2023-10-09T12:09:46Z</time>
      </trkpt>
      <trkpt lat="43.66097" lon="6.16414">
        <ele>603.9</ele>
        <time>2023-10-09T12:09:47Z</time>
      </trkpt>
      <trkpt lat="43.66099" lon="6.16416">
        <ele>604</ele>
        <time>2023-10-09T12:09:48Z</time>
      </trkpt>
      <trkpt lat="43.66099" lon="6.16417">
        <ele>604</ele>
        <time>2023-10-09T12:09:49Z</time>
      </trkpt>
      <trkpt lat="43.661" lon="6.16418">
        <ele>604.1</ele>
        <time>2023-10-09T12:09:50Z</time>
      </trkpt>
      <trkpt lat="43.661" lon="6.16419">
        <ele>604.2</ele>
        <time>2023-10-09T12:09:51Z</time>
      </trkpt>
      <trkpt lat="43.66101" lon="6.1642">
        <ele>604.2</ele>
        <time>2023-10-09T12:09:52Z</time>
      </trkpt>
      <trkpt lat="43.66102" lon="6.16421">
        <ele>604.3</ele>
        <time>2023-10-09T12:09:53Z</time>
      </trkpt>
      <trkpt lat="43.66103" lon="6.16423">
        <ele>604.5</ele>
        <time>2023-10-09T12:09:54Z</time>
      </trkpt>
      <trkpt lat="43.66103" lon="6.16424">
        <ele>604.5</ele>
        <time>2023-10-09T12:09:55Z</time>
      </trkpt>
      <trkpt lat="43.66104" lon="6.16425">
        <ele>604.6</ele>
        <time>2023-10-09T12:09:56Z</time>
      </trkpt>
      <trkpt lat="43.66104" lon="6.16427">
        <ele>604.7</ele>
        <time>2023-10-09T12:09:57Z</time>
      </trkpt>
      <trkpt lat="43.66105" lon="6.16428">
        <ele>604.8</ele>
        <time>2023-10-09T12:09:58Z</time>
      </trkpt>
      <trkpt lat="43.66105" lon="6.16429">
        <ele>604.9</ele>
        <time>2023-10-09T12:09:59Z</time>
      </trkpt>
      <trkpt lat="43.66105" lon="6.16431">
        <ele>605</ele>
        <time>2023-10-09T12:10:00Z</time>
      </trkpt>
      <trkpt lat="43.66106" lon="6.16432">
        <ele>605.1</ele>
        <time>2023-10-09T12:10:01Z</time>
      </trkpt>
      <trkpt lat="43.66106" lon="6.16434">
        <ele>605.2</ele>
        <time>2023-10-09T12:10:02Z</time>
      </trkpt>
      <trkpt lat="43.66106" lon="6.16435">
        <ele>605.3</ele>
        <time>2023-10-09T12:10:03Z</time>
      </trkpt>
      <trkpt lat="43.66107" lon="6.16436">
        <ele>605.4</ele>
        <time>2023-10-09T12:10:04Z</time>
      </trkpt>
      <trkpt lat="43.66108" lon="6.16437">
        <ele>605.5</ele>
        <time>2023-10-09T12:10:05Z</time>
      </trkpt>
      <trkpt lat="43.66109" lon="6.16438">
        <ele>605.5</ele>
        <time>2023-10-09T12:10:06Z</time>
      </trkpt>
      <trkpt lat="43.66109" lon="6.1644">
        <ele>605.7</ele>
        <time>2023-10-09T12:10:07Z</time>
      </trkpt>
      <trkpt lat="43.6611" lon="6.16441">
        <ele>605.8</ele>
        <time>2023-10-09T12:10:08Z</time>
      </trkpt>
      <trkpt lat="43.6611" lon="6.16442">
        <ele>605.8</ele>
        <time>2023-10-09T12:10:09Z</time>
      </trkpt>
      <trkpt lat="43.66111" lon="6.16443">
        <ele>605.9</ele>
        <time>2023-10-09T12:10:10Z</time>
      </trkpt>
      <trkpt lat="43.66111" lon="6.16445">
        <ele>606</ele>
        <time>2023-10-09T12:10:11Z</time>
      </trkpt>
      <trkpt lat="43.66112" lon="6.16447">
        <ele>606</ele>
        <time>2023-10-09T12:10:12Z</time>
      </trkpt>
      <trkpt lat="43.66112" lon="6.16447">
        <ele>606</ele>
        <time>2023-10-09T12:10:13Z</time>
      </trkpt>
      <trkpt lat="43.66113" lon="6.16448">
        <ele>606</ele>
        <time>2023-10-09T12:10:14Z</time>
      </trkpt>
      <trkpt lat="43.66113" lon="6.16449">
        <ele>606</ele>
        <time>2023-10-09T12:10:15Z</time>
      </trkpt>
      <trkpt lat="43.66113" lon="6.16451">
        <ele>606.1</ele>
        <time>2023-10-09T12:10:16Z</time>
      </trkpt>
      <trkpt lat="43.66113" lon="6.16452">
        <ele>606.2</ele>
        <time>2023-10-09T12:10:17Z</time>
      </trkpt>
      <trkpt lat="43.66114" lon="6.16454">
        <ele>606.2</ele>
        <time>2023-10-09T12:10:18Z</time>
      </trkpt>
      <trkpt lat="43.66114" lon="6.16455">
        <ele>606.2</ele>
        <time>2023-10-09T12:10:19Z</time>
      </trkpt>
      <trkpt lat="43.66114" lon="6.16457">
        <ele>606.3</ele>
        <time>2023-10-09T12:10:20Z</time>
      </trkpt>
      <trkpt lat="43.66115" lon="6.16458">
        <ele>606.3</ele>
        <time>2023-10-09T12:10:21Z</time>
      </trkpt>
      <trkpt lat="43.66115" lon="6.1646">
        <ele>606.4</ele>
        <time>2023-10-09T12:10:22Z</time>
      </trkpt>
      <trkpt lat="43.66115" lon="6.16461">
        <ele>606.4</ele>
        <time>2023-10-09T12:10:23Z</time>
      </trkpt>
      <trkpt lat="43.66115" lon="6.16463">
        <ele>606.5</ele>
        <time>2023-10-09T12:10:24Z</time>
      </trkpt>
      <trkpt lat="43.66115" lon="6.16464">
        <ele>606.5</ele>
        <time>2023-10-09T12:10:25Z</time>
      </trkpt>
      <trkpt lat="43.66116" lon="6.16466">
        <ele>606.6</ele>
        <time>2023-10-09T12:10:26Z</time>
      </trkpt>
      <trkpt lat="43.66115" lon="6.16468">
        <ele>606.7</ele>
        <time>2023-10-09T12:10:27Z</time>
      </trkpt>
      <trkpt lat="43.66115" lon="6.16469">
        <ele>606.7</ele>
        <time>2023-10-09T12:10:28Z</time>
      </trkpt>
      <trkpt lat="43.66115" lon="6.1647">
        <ele>606.8</ele>
        <time>2023-10-09T12:10:29Z</time>
      </trkpt>
      <trkpt lat="43.66116" lon="6.16472">
        <ele>606.8</ele>
        <time>2023-10-09T12:10:30Z</time>
      </trkpt>
      <trkpt lat="43.66116" lon="6.16474">
        <ele>606.9</ele>
        <time>2023-10-09T12:10:31Z</time>
      </trkpt>
      <trkpt lat="43.66116" lon="6.16475">
        <ele>607</ele>
        <time>2023-10-09T12:10:32Z</time>
      </trkpt>
      <trkpt lat="43.66116" lon="6.16477">
        <ele>607.1</ele>
        <time>2023-10-09T12:10:33Z</time>
      </trkpt>
      <trkpt lat="43.66117" lon="6.16478">
        <ele>607.2</ele>
        <time>2023-10-09T12:10:34Z</time>
      </trkpt>
      <trkpt lat="43.66117" lon="6.16479">
        <ele>607.2</ele>
        <time>2023-10-09T12:10:35Z</time>
      </trkpt>
      <trkpt lat="43.66117" lon="6.16481">
        <ele>607.4</ele>
        <time>2023-10-09T12:10:36Z</time>
      </trkpt>
      <trkpt lat="43.66118" lon="6.16482">
        <ele>607.4</ele>
        <time>2023-10-09T12:10:37Z</time>
      </trkpt>
      <trkpt lat="43.66118" lon="6.16483">
        <ele>607.4</ele>
        <time>2023-10-09T12:10:38Z</time>
      </trkpt>
      <trkpt lat="43.66118" lon="6.16485">
        <ele>607.6</ele>
        <time>2023-10-09T12:10:39Z</time>
      </trkpt>
      <trkpt lat="43.66119" lon="6.16486">
        <ele>607.6</ele>
        <time>2023-10-09T12:10:40Z</time>
      </trkpt>
      <trkpt lat="43.66119" lon="6.16487">
        <ele>607.6</ele>
        <time>2023-10-09T12:10:41Z</time>
      </trkpt>
      <trkpt lat="43.66119" lon="6.16489">
        <ele>607.8</ele>
        <time>2023-10-09T12:10:42Z</time>
      </trkpt>
      <trkpt lat="43.66119" lon="6.1649">
        <ele>607.8</ele>
        <time>2023-10-09T12:10:43Z</time>
      </trkpt>
      <trkpt lat="43.66119" lon="6.16491">
        <ele>607.9</ele>
        <time>2023-10-09T12:10:44Z</time>
      </trkpt>
      <trkpt lat="43.66119" lon="6.16493">
        <ele>608</ele>
        <time>2023-10-09T12:10:45Z</time>
      </trkpt>
      <trkpt lat="43.66119" lon="6.16494">
        <ele>608.1</ele>
        <time>2023-10-09T12:10:46Z</time>
      </trkpt>
      <trkpt lat="43.66119" lon="6.16495">
        <ele>608.1</ele>
        <time>2023-10-09T12:10:47Z</time>
      </trkpt>
      <trkpt lat="43.6612" lon="6.16496">
        <ele>608.1</ele>
        <time>2023-10-09T12:10:48Z</time>
      </trkpt>
      <trkpt lat="43.6612" lon="6.16498">
        <ele>608.2</ele>
        <time>2023-10-09T12:10:49Z</time>
      </trkpt>
      <trkpt lat="43.6612" lon="6.16499">
        <ele>608.3</ele>
        <time>2023-10-09T12:10:50Z</time>
      </trkpt>
      <trkpt lat="43.66121" lon="6.16501">
        <ele>608.3</ele>
        <time>2023-10-09T12:10:51Z</time>
      </trkpt>
      <trkpt lat="43.66121" lon="6.16502">
        <ele>608.4</ele>
        <time>2023-10-09T12:10:52Z</time>
      </trkpt>
      <trkpt lat="43.66121" lon="6.16504">
        <ele>608.5</ele>
        <time>2023-10-09T12:10:53Z</time>
      </trkpt>
      <trkpt lat="43.66121" lon="6.16505">
        <ele>608.5</ele>
        <time>2023-10-09T12:10:54Z</time>
      </trkpt>
      <trkpt lat="43.66122" lon="6.16508">
        <ele>608.6</ele>
        <time>2023-10-09T12:10:55Z</time>
      </trkpt>
      <trkpt lat="43.66122" lon="6.16509">
        <ele>608.7</ele>
        <time>2023-10-09T12:10:56Z</time>
      </trkpt>
      <trkpt lat="43.66122" lon="6.1651">
        <ele>608.7</ele>
        <time>2023-10-09T12:10:57Z</time>
      </trkpt>
      <trkpt lat="43.66122" lon="6.16512">
        <ele>608.8</ele>
        <time>2023-10-09T12:10:58Z</time>
      </trkpt>
      <trkpt lat="43.66122" lon="6.16513">
        <ele>608.9</ele>
        <time>2023-10-09T12:10:59Z</time>
      </trkpt>
      <trkpt lat="43.66123" lon="6.16514">
        <ele>608.9</ele>
        <time>2023-10-09T12:11:00Z</time>
      </trkpt>
      <trkpt lat="43.66123" lon="6.16516">
        <ele>609</ele>
        <time>2023-10-09T12:11:01Z</time>
      </trkpt>
      <trkpt lat="43.66123" lon="6.16518">
        <ele>609.1</ele>
        <time>2023-10-09T12:11:02Z</time>
      </trkpt>
      <trkpt lat="43.66123" lon="6.16519">
        <ele>609.1</ele>
        <time>2023-10-09T12:11:03Z</time>
      </trkpt>
      <trkpt lat="43.66124" lon="6.1652">
        <ele>609.1</ele>
        <time>2023-10-09T12:11:04Z</time>
      </trkpt>
      <trkpt lat="43.66124" lon="6.16522">
        <ele>609.2</ele>
        <time>2023-10-09T12:11:05Z</time>
      </trkpt>
      <trkpt lat="43.66124" lon="6.16523">
        <ele>609.3</ele>
        <time>2023-10-09T12:11:06Z</time>
      </trkpt>
      <trkpt lat="43.66125" lon="6.16526">
        <ele>609.4</ele>
        <time>2023-10-09T12:11:07Z</time>
      </trkpt>
      <trkpt lat="43.66126" lon="6.16527">
        <ele>609.4</ele>
        <time>2023-10-09T12:11:09Z</time>
      </trkpt>
      <trkpt lat="43.66126" lon="6.16529">
        <ele>609.5</ele>
        <time>2023-10-09T12:11:10Z</time>
      </trkpt>
      <trkpt lat="43.66127" lon="6.1653">
        <ele>609.5</ele>
        <time>2023-10-09T12:11:11Z</time>
      </trkpt>
      <trkpt lat="43.66127" lon="6.16531">
        <ele>609.5</ele>
        <time>2023-10-09T12:11:12Z</time>
      </trkpt>
      <trkpt lat="43.66128" lon="6.16533">
        <ele>609.6</ele>
        <time>2023-10-09T12:11:13Z</time>
      </trkpt>
      <trkpt lat="43.66128" lon="6.16534">
        <ele>609.6</ele>
        <time>2023-10-09T12:11:14Z</time>
      </trkpt>
      <trkpt lat="43.66129" lon="6.16535">
        <ele>609.6</ele>
        <time>2023-10-09T12:11:15Z</time>
      </trkpt>
      <trkpt lat="43.66129" lon="6.16536">
        <ele>609.7</ele>
        <time>2023-10-09T12:11:16Z</time>
      </trkpt>
      <trkpt lat="43.6613" lon="6.16537">
        <ele>609.7</ele>
        <time>2023-10-09T12:11:17Z</time>
      </trkpt>
      <trkpt lat="43.6613" lon="6.16539">
        <ele>609.7</ele>
        <time>2023-10-09T12:11:18Z</time>
      </trkpt>
      <trkpt lat="43.66131" lon="6.1654">
        <ele>609.7</ele>
        <time>2023-10-09T12:11:19Z</time>
      </trkpt>
      <trkpt lat="43.66131" lon="6.16541">
        <ele>609.8</ele>
        <time>2023-10-09T12:11:20Z</time>
      </trkpt>
      <trkpt lat="43.66131" lon="6.16542">
        <ele>609.8</ele>
        <time>2023-10-09T12:11:21Z</time>
      </trkpt>
      <trkpt lat="43.66132" lon="6.16544">
        <ele>609.8</ele>
        <time>2023-10-09T12:11:22Z</time>
      </trkpt>
      <trkpt lat="43.66132" lon="6.16545">
        <ele>609.9</ele>
        <time>2023-10-09T12:11:23Z</time>
      </trkpt>
      <trkpt lat="43.66133" lon="6.16546">
        <ele>609.9</ele>
        <time>2023-10-09T12:11:24Z</time>
      </trkpt>
      <trkpt lat="43.66133" lon="6.16548">
        <ele>609.9</ele>
        <time>2023-10-09T12:11:25Z</time>
      </trkpt>
      <trkpt lat="43.66134" lon="6.16549">
        <ele>609.9</ele>
        <time>2023-10-09T12:11:26Z</time>
      </trkpt>
      <trkpt lat="43.66135" lon="6.1655">
        <ele>609.9</ele>
        <time>2023-10-09T12:11:27Z</time>
      </trkpt>
      <trkpt lat="43.66136" lon="6.16552">
        <ele>610</ele>
        <time>2023-10-09T12:11:28Z</time>
      </trkpt>
      <trkpt lat="43.66137" lon="6.16553">
        <ele>610</ele>
        <time>2023-10-09T12:11:29Z</time>
      </trkpt>
      <trkpt lat="43.66137" lon="6.16554">
        <ele>610</ele>
        <time>2023-10-09T12:11:30Z</time>
      </trkpt>
      <trkpt lat="43.66138" lon="6.16555">
        <ele>610</ele>
        <time>2023-10-09T12:11:31Z</time>
      </trkpt>
      <trkpt lat="43.66139" lon="6.16556">
        <ele>610</ele>
        <time>2023-10-09T12:11:32Z</time>
      </trkpt>
      <trkpt lat="43.66139" lon="6.16558">
        <ele>610</ele>
        <time>2023-10-09T12:11:33Z</time>
      </trkpt>
      <trkpt lat="43.66141" lon="6.1656">
        <ele>609.8</ele>
        <time>2023-10-09T12:11:34Z</time>
      </trkpt>
      <trkpt lat="43.66141" lon="6.16561">
        <ele>609.8</ele>
        <time>2023-10-09T12:11:35Z</time>
      </trkpt>
      <trkpt lat="43.66142" lon="6.16561">
        <ele>609.7</ele>
        <time>2023-10-09T12:11:36Z</time>
      </trkpt>
      <trkpt lat="43.66143" lon="6.16562">
        <ele>609.6</ele>
        <time>2023-10-09T12:11:37Z</time>
      </trkpt>
      <trkpt lat="43.66144" lon="6.16563">
        <ele>609.5</ele>
        <time>2023-10-09T12:11:38Z</time>
      </trkpt>
      <trkpt lat="43.66144" lon="6.16564">
        <ele>609.6</ele>
        <time>2023-10-09T12:11:39Z</time>
      </trkpt>
      <trkpt lat="43.66145" lon="6.16565">
        <ele>609.5</ele>
        <time>2023-10-09T12:11:40Z</time>
      </trkpt>
      <trkpt lat="43.66146" lon="6.16567">
        <ele>609.4</ele>
        <time>2023-10-09T12:11:41Z</time>
      </trkpt>
      <trkpt lat="43.66146" lon="6.16568">
        <ele>609.5</ele>
        <time>2023-10-09T12:11:42Z</time>
      </trkpt>
      <trkpt lat="43.66147" lon="6.1657">
        <ele>609.4</ele>
        <time>2023-10-09T12:11:43Z</time>
      </trkpt>
      <trkpt lat="43.66148" lon="6.16571">
        <ele>609.4</ele>
        <time>2023-10-09T12:11:44Z</time>
      </trkpt>
      <trkpt lat="43.66148" lon="6.16572">
        <ele>609.4</ele>
        <time>2023-10-09T12:11:45Z</time>
      </trkpt>
      <trkpt lat="43.66149" lon="6.16573">
        <ele>609.4</ele>
        <time>2023-10-09T12:11:46Z</time>
      </trkpt>
      <trkpt lat="43.6615" lon="6.16574">
        <ele>609.3</ele>
        <time>2023-10-09T12:11:47Z</time>
      </trkpt>
      <trkpt lat="43.66151" lon="6.16575">
        <ele>609.3</ele>
        <time>2023-10-09T12:11:48Z</time>
      </trkpt>
      <trkpt lat="43.66151" lon="6.16576">
        <ele>609.3</ele>
        <time>2023-10-09T12:11:49Z</time>
      </trkpt>
      <trkpt lat="43.66152" lon="6.16577">
        <ele>609.3</ele>
        <time>2023-10-09T12:11:50Z</time>
      </trkpt>
      <trkpt lat="43.66153" lon="6.16579">
        <ele>609.3</ele>
        <time>2023-10-09T12:11:51Z</time>
      </trkpt>
      <trkpt lat="43.66154" lon="6.16581">
        <ele>609.4</ele>
        <time>2023-10-09T12:11:52Z</time>
      </trkpt>
      <trkpt lat="43.66154" lon="6.16582">
        <ele>609.4</ele>
        <time>2023-10-09T12:11:53Z</time>
      </trkpt>
      <trkpt lat="43.66155" lon="6.16583">
        <ele>609.4</ele>
        <time>2023-10-09T12:11:54Z</time>
      </trkpt>
      <trkpt lat="43.66156" lon="6.16584">
        <ele>609.4</ele>
        <time>2023-10-09T12:11:55Z</time>
      </trkpt>
      <trkpt lat="43.66156" lon="6.16585">
        <ele>609.5</ele>
        <time>2023-10-09T12:11:56Z</time>
      </trkpt>
      <trkpt lat="43.66157" lon="6.16587">
        <ele>609.5</ele>
        <time>2023-10-09T12:11:57Z</time>
      </trkpt>
      <trkpt lat="43.66158" lon="6.16588">
        <ele>609.5</ele>
        <time>2023-10-09T12:11:58Z</time>
      </trkpt>
      <trkpt lat="43.66158" lon="6.16589">
        <ele>609.6</ele>
        <time>2023-10-09T12:11:59Z</time>
      </trkpt>
      <trkpt lat="43.66159" lon="6.1659">
        <ele>609.6</ele>
        <time>2023-10-09T12:12:00Z</time>
      </trkpt>
      <trkpt lat="43.6616" lon="6.16592">
        <ele>609.6</ele>
        <time>2023-10-09T12:12:01Z</time>
      </trkpt>
      <trkpt lat="43.6616" lon="6.16593">
        <ele>609.7</ele>
        <time>2023-10-09T12:12:02Z</time>
      </trkpt>
      <trkpt lat="43.6616" lon="6.16594">
        <ele>609.7</ele>
        <time>2023-10-09T12:12:03Z</time>
      </trkpt>
      <trkpt lat="43.66161" lon="6.16594">
        <ele>609.7</ele>
        <time>2023-10-09T12:12:04Z</time>
      </trkpt>
      <trkpt lat="43.66161" lon="6.16596">
        <ele>609.8</ele>
        <time>2023-10-09T12:12:05Z</time>
      </trkpt>
      <trkpt lat="43.66161" lon="6.16597">
        <ele>609.8</ele>
        <time>2023-10-09T12:12:06Z</time>
      </trkpt>
      <trkpt lat="43.66161" lon="6.16598">
        <ele>609.8</ele>
        <time>2023-10-09T12:12:07Z</time>
      </trkpt>
      <trkpt lat="43.66162" lon="6.16601">
        <ele>609.9</ele>
        <time>2023-10-09T12:12:08Z</time>
      </trkpt>
      <trkpt lat="43.66163" lon="6.16602">
        <ele>609.9</ele>
        <time>2023-10-09T12:12:09Z</time>
      </trkpt>
      <trkpt lat="43.66163" lon="6.16603">
        <ele>609.9</ele>
        <time>2023-10-09T12:12:10Z</time>
      </trkpt>
      <trkpt lat="43.66165" lon="6.16605">
        <ele>609.9</ele>
        <time>2023-10-09T12:12:11Z</time>
      </trkpt>
      <trkpt lat="43.66165" lon="6.16606">
        <ele>609.9</ele>
        <time>2023-10-09T12:12:12Z</time>
      </trkpt>
      <trkpt lat="43.66166" lon="6.16607">
        <ele>609.9</ele>
        <time>2023-10-09T12:12:13Z</time>
      </trkpt>
      <trkpt lat="43.66167" lon="6.16609">
        <ele>609.9</ele>
        <time>2023-10-09T12:12:14Z</time>
      </trkpt>
      <trkpt lat="43.66167" lon="6.1661">
        <ele>609.9</ele>
        <time>2023-10-09T12:12:15Z</time>
      </trkpt>
      <trkpt lat="43.66168" lon="6.16611">
        <ele>609.9</ele>
        <time>2023-10-09T12:12:16Z</time>
      </trkpt>
      <trkpt lat="43.66169" lon="6.16613">
        <ele>609.8</ele>
        <time>2023-10-09T12:12:17Z</time>
      </trkpt>
      <trkpt lat="43.6617" lon="6.16615">
        <ele>609.7</ele>
        <time>2023-10-09T12:12:18Z</time>
      </trkpt>
      <trkpt lat="43.66171" lon="6.16617">
        <ele>609.6</ele>
        <time>2023-10-09T12:12:19Z</time>
      </trkpt>
      <trkpt lat="43.66172" lon="6.16618">
        <ele>609.5</ele>
        <time>2023-10-09T12:12:20Z</time>
      </trkpt>
      <trkpt lat="43.66172" lon="6.16619">
        <ele>609.5</ele>
        <time>2023-10-09T12:12:21Z</time>
      </trkpt>
      <trkpt lat="43.66173" lon="6.1662">
        <ele>609.4</ele>
        <time>2023-10-09T12:12:22Z</time>
      </trkpt>
      <trkpt lat="43.66173" lon="6.16622">
        <ele>609.4</ele>
        <time>2023-10-09T12:12:23Z</time>
      </trkpt>
      <trkpt lat="43.66175" lon="6.16625">
        <ele>609.3</ele>
        <time>2023-10-09T12:12:24Z</time>
      </trkpt>
      <trkpt lat="43.66175" lon="6.16626">
        <ele>609.3</ele>
        <time>2023-10-09T12:12:25Z</time>
      </trkpt>
      <trkpt lat="43.66176" lon="6.16627">
        <ele>609.2</ele>
        <time>2023-10-09T12:12:26Z</time>
      </trkpt>
      <trkpt lat="43.66177" lon="6.16629">
        <ele>609.1</ele>
        <time>2023-10-09T12:12:27Z</time>
      </trkpt>
      <trkpt lat="43.66177" lon="6.1663">
        <ele>609.1</ele>
        <time>2023-10-09T12:12:28Z</time>
      </trkpt>
      <trkpt lat="43.66177" lon="6.16631">
        <ele>609.2</ele>
        <time>2023-10-09T12:12:29Z</time>
      </trkpt>
      <trkpt lat="43.66178" lon="6.16633">
        <ele>609.1</ele>
        <time>2023-10-09T12:12:30Z</time>
      </trkpt>
      <trkpt lat="43.66178" lon="6.16634">
        <ele>609.1</ele>
        <time>2023-10-09T12:12:31Z</time>
      </trkpt>
      <trkpt lat="43.66178" lon="6.16636">
        <ele>609.1</ele>
        <time>2023-10-09T12:12:32Z</time>
      </trkpt>
      <trkpt lat="43.66179" lon="6.16637">
        <ele>609.1</ele>
        <time>2023-10-09T12:12:33Z</time>
      </trkpt>
      <trkpt lat="43.66179" lon="6.16638">
        <ele>609.1</ele>
        <time>2023-10-09T12:12:34Z</time>
      </trkpt>
      <trkpt lat="43.66179" lon="6.16639">
        <ele>609.1</ele>
        <time>2023-10-09T12:12:35Z</time>
      </trkpt>
      <trkpt lat="43.6618" lon="6.16641">
        <ele>609.1</ele>
        <time>2023-10-09T12:12:36Z</time>
      </trkpt>
      <trkpt lat="43.6618" lon="6.16642">
        <ele>609.1</ele>
        <time>2023-10-09T12:12:37Z</time>
      </trkpt>
      <trkpt lat="43.6618" lon="6.16644">
        <ele>609.1</ele>
        <time>2023-10-09T12:12:38Z</time>
      </trkpt>
      <trkpt lat="43.6618" lon="6.16646">
        <ele>609.2</ele>
        <time>2023-10-09T12:12:39Z</time>
      </trkpt>
      <trkpt lat="43.6618" lon="6.16648">
        <ele>609.2</ele>
        <time>2023-10-09T12:12:40Z</time>
      </trkpt>
      <trkpt lat="43.66181" lon="6.16649">
        <ele>609.1</ele>
        <time>2023-10-09T12:12:41Z</time>
      </trkpt>
      <trkpt lat="43.66181" lon="6.1665">
        <ele>609.2</ele>
        <time>2023-10-09T12:12:42Z</time>
      </trkpt>
      <trkpt lat="43.66182" lon="6.16652">
        <ele>609.1</ele>
        <time>2023-10-09T12:12:43Z</time>
      </trkpt>
      <trkpt lat="43.66182" lon="6.16653">
        <ele>609.1</ele>
        <time>2023-10-09T12:12:44Z</time>
      </trkpt>
      <trkpt lat="43.66183" lon="6.16656">
        <ele>609.1</ele>
        <time>2023-10-09T12:12:45Z</time>
      </trkpt>
      <trkpt lat="43.66183" lon="6.16657">
        <ele>609.1</ele>
        <time>2023-10-09T12:12:46Z</time>
      </trkpt>
      <trkpt lat="43.66183" lon="6.16658">
        <ele>609.1</ele>
        <time>2023-10-09T12:12:47Z</time>
      </trkpt>
      <trkpt lat="43.66184" lon="6.1666">
        <ele>609</ele>
        <time>2023-10-09T12:12:48Z</time>
      </trkpt>
      <trkpt lat="43.66184" lon="6.16661">
        <ele>609.1</ele>
        <time>2023-10-09T12:12:49Z</time>
      </trkpt>
      <trkpt lat="43.66185" lon="6.16662">
        <ele>609</ele>
        <time>2023-10-09T12:12:50Z</time>
      </trkpt>
      <trkpt lat="43.66186" lon="6.16663">
        <ele>608.9</ele>
        <time>2023-10-09T12:12:51Z</time>
      </trkpt>
      <trkpt lat="43.66186" lon="6.16665">
        <ele>608.9</ele>
        <time>2023-10-09T12:12:52Z</time>
      </trkpt>
      <trkpt lat="43.66187" lon="6.16667">
        <ele>608.8</ele>
        <time>2023-10-09T12:12:53Z</time>
      </trkpt>
      <trkpt lat="43.66187" lon="6.16668">
        <ele>608.8</ele>
        <time>2023-10-09T12:12:54Z</time>
      </trkpt>
      <trkpt lat="43.66188" lon="6.1667">
        <ele>608.7</ele>
        <time>2023-10-09T12:12:55Z</time>
      </trkpt>
      <trkpt lat="43.66187" lon="6.16671">
        <ele>608.8</ele>
        <time>2023-10-09T12:12:56Z</time>
      </trkpt>
      <trkpt lat="43.66188" lon="6.16672">
        <ele>608.7</ele>
        <time>2023-10-09T12:12:57Z</time>
      </trkpt>
      <trkpt lat="43.66188" lon="6.16674">
        <ele>608.7</ele>
        <time>2023-10-09T12:12:58Z</time>
      </trkpt>
      <trkpt lat="43.66188" lon="6.16676">
        <ele>608.7</ele>
        <time>2023-10-09T12:12:59Z</time>
      </trkpt>
      <trkpt lat="43.66188" lon="6.16678">
        <ele>608.7</ele>
        <time>2023-10-09T12:13:00Z</time>
      </trkpt>
      <trkpt lat="43.66188" lon="6.1668">
        <ele>608.7</ele>
        <time>2023-10-09T12:13:01Z</time>
      </trkpt>
      <trkpt lat="43.66188" lon="6.16682">
        <ele>608.7</ele>
        <time>2023-10-09T12:13:02Z</time>
      </trkpt>
      <trkpt lat="43.66188" lon="6.16683">
        <ele>608.7</ele>
        <time>2023-10-09T12:13:03Z</time>
      </trkpt>
      <trkpt lat="43.66188" lon="6.16685">
        <ele>608.7</ele>
        <time>2023-10-09T12:13:04Z</time>
      </trkpt>
      <trkpt lat="43.66189" lon="6.16687">
        <ele>608.6</ele>
        <time>2023-10-09T12:13:05Z</time>
      </trkpt>
      <trkpt lat="43.66189" lon="6.16688">
        <ele>608.6</ele>
        <time>2023-10-09T12:13:06Z</time>
      </trkpt>
      <trkpt lat="43.66189" lon="6.16689">
        <ele>608.6</ele>
        <time>2023-10-09T12:13:07Z</time>
      </trkpt>
      <trkpt lat="43.66189" lon="6.16691">
        <ele>608.6</ele>
        <time>2023-10-09T12:13:08Z</time>
      </trkpt>
      <trkpt lat="43.66189" lon="6.16692">
        <ele>608.6</ele>
        <time>2023-10-09T12:13:09Z</time>
      </trkpt>
      <trkpt lat="43.66189" lon="6.16694">
        <ele>608.6</ele>
        <time>2023-10-09T12:13:10Z</time>
      </trkpt>
      <trkpt lat="43.66189" lon="6.16695">
        <ele>608.6</ele>
        <time>2023-10-09T12:13:11Z</time>
      </trkpt>
      <trkpt lat="43.66189" lon="6.16696">
        <ele>608.6</ele>
        <time>2023-10-09T12:13:12Z</time>
      </trkpt>
      <trkpt lat="43.6619" lon="6.16698">
        <ele>608.5</ele>
        <time>2023-10-09T12:13:13Z</time>
      </trkpt>
      <trkpt lat="43.6619" lon="6.16699">
        <ele>608.5</ele>
        <time>2023-10-09T12:13:14Z</time>
      </trkpt>
      <trkpt lat="43.6619" lon="6.16701">
        <ele>608.5</ele>
        <time>2023-10-09T12:13:15Z</time>
      </trkpt>
      <trkpt lat="43.6619" lon="6.16703">
        <ele>608.5</ele>
        <time>2023-10-09T12:13:16Z</time>
      </trkpt>
      <trkpt lat="43.6619" lon="6.16704">
        <ele>608.5</ele>
        <time>2023-10-09T12:13:17Z</time>
      </trkpt>
      <trkpt lat="43.6619" lon="6.16705">
        <ele>608.5</ele>
        <time>2023-10-09T12:13:18Z</time>
      </trkpt>
      <trkpt lat="43.6619" lon="6.16707">
        <ele>608.5</ele>
        <time>2023-10-09T12:13:19Z</time>
      </trkpt>
      <trkpt lat="43.6619" lon="6.16708">
        <ele>608.5</ele>
        <time>2023-10-09T12:13:20Z</time>
      </trkpt>
      <trkpt lat="43.6619" lon="6.1671">
        <ele>608.5</ele>
        <time>2023-10-09T12:13:21Z</time>
      </trkpt>
      <trkpt lat="43.66191" lon="6.16712">
        <ele>608.4</ele>
        <time>2023-10-09T12:13:22Z</time>
      </trkpt>
      <trkpt lat="43.66191" lon="6.16714">
        <ele>608.4</ele>
        <time>2023-10-09T12:13:23Z</time>
      </trkpt>
      <trkpt lat="43.66191" lon="6.16715">
        <ele>608.4</ele>
        <time>2023-10-09T12:13:24Z</time>
      </trkpt>
      <trkpt lat="43.66191" lon="6.16716">
        <ele>608.4</ele>
        <time>2023-10-09T12:13:25Z</time>
      </trkpt>
      <trkpt lat="43.66191" lon="6.16718">
        <ele>608.4</ele>
        <time>2023-10-09T12:13:26Z</time>
      </trkpt>
      <trkpt lat="43.66191" lon="6.16719">
        <ele>608.4</ele>
        <time>2023-10-09T12:13:27Z</time>
      </trkpt>
      <trkpt lat="43.66191" lon="6.16721">
        <ele>608.4</ele>
        <time>2023-10-09T12:13:28Z</time>
      </trkpt>
      <trkpt lat="43.66191" lon="6.16722">
        <ele>608.4</ele>
        <time>2023-10-09T12:13:29Z</time>
      </trkpt>
      <trkpt lat="43.66191" lon="6.16724">
        <ele>608.3</ele>
        <time>2023-10-09T12:13:30Z</time>
      </trkpt>
      <trkpt lat="43.66191" lon="6.16725">
        <ele>608.3</ele>
        <time>2023-10-09T12:13:31Z</time>
      </trkpt>
      <trkpt lat="43.66191" lon="6.16727">
        <ele>608.2</ele>
        <time>2023-10-09T12:13:32Z</time>
      </trkpt>
      <trkpt lat="43.66191" lon="6.16728">
        <ele>608.2</ele>
        <time>2023-10-09T12:13:33Z</time>
      </trkpt>
      <trkpt lat="43.66191" lon="6.1673">
        <ele>608.1</ele>
        <time>2023-10-09T12:13:34Z</time>
      </trkpt>
      <trkpt lat="43.66191" lon="6.16732">
        <ele>608</ele>
        <time>2023-10-09T12:13:35Z</time>
      </trkpt>
      <trkpt lat="43.66191" lon="6.16733">
        <ele>608</ele>
        <time>2023-10-09T12:13:36Z</time>
      </trkpt>
      <trkpt lat="43.66191" lon="6.16736">
        <ele>607.9</ele>
        <time>2023-10-09T12:13:37Z</time>
      </trkpt>
      <trkpt lat="43.66191" lon="6.16737">
        <ele>607.8</ele>
        <time>2023-10-09T12:13:38Z</time>
      </trkpt>
      <trkpt lat="43.66191" lon="6.16739">
        <ele>607.8</ele>
        <time>2023-10-09T12:13:39Z</time>
      </trkpt>
      <trkpt lat="43.66191" lon="6.16742">
        <ele>607.7</ele>
        <time>2023-10-09T12:13:40Z</time>
      </trkpt>
      <trkpt lat="43.66191" lon="6.16743">
        <ele>607.6</ele>
        <time>2023-10-09T12:13:41Z</time>
      </trkpt>
      <trkpt lat="43.66191" lon="6.16744">
        <ele>607.6</ele>
        <time>2023-10-09T12:13:42Z</time>
      </trkpt>
      <trkpt lat="43.66191" lon="6.16745">
        <ele>607.6</ele>
        <time>2023-10-09T12:13:43Z</time>
      </trkpt>
      <trkpt lat="43.66191" lon="6.16747">
        <ele>607.5</ele>
        <time>2023-10-09T12:13:44Z</time>
      </trkpt>
      <trkpt lat="43.66192" lon="6.16749">
        <ele>607.3</ele>
        <time>2023-10-09T12:13:45Z</time>
      </trkpt>
      <trkpt lat="43.66192" lon="6.16751">
        <ele>607.3</ele>
        <time>2023-10-09T12:13:46Z</time>
      </trkpt>
      <trkpt lat="43.66192" lon="6.16753">
        <ele>607.3</ele>
        <time>2023-10-09T12:13:47Z</time>
      </trkpt>
      <trkpt lat="43.66192" lon="6.16755">
        <ele>607.3</ele>
        <time>2023-10-09T12:13:48Z</time>
      </trkpt>
      <trkpt lat="43.66191" lon="6.16757">
        <ele>607.4</ele>
        <time>2023-10-09T12:13:49Z</time>
      </trkpt>
      <trkpt lat="43.66191" lon="6.16759">
        <ele>607.4</ele>
        <time>2023-10-09T12:13:50Z</time>
      </trkpt>
      <trkpt lat="43.66192" lon="6.16761">
        <ele>607.3</ele>
        <time>2023-10-09T12:13:51Z</time>
      </trkpt>
      <trkpt lat="43.66192" lon="6.16762">
        <ele>607.3</ele>
        <time>2023-10-09T12:13:52Z</time>
      </trkpt>
      <trkpt lat="43.66192" lon="6.16765">
        <ele>607.3</ele>
        <time>2023-10-09T12:13:53Z</time>
      </trkpt>
      <trkpt lat="43.66192" lon="6.16766">
        <ele>607.3</ele>
        <time>2023-10-09T12:13:54Z</time>
      </trkpt>
      <trkpt lat="43.66192" lon="6.16767">
        <ele>607.3</ele>
        <time>2023-10-09T12:13:55Z</time>
      </trkpt>
      <trkpt lat="43.66192" lon="6.16769">
        <ele>607.3</ele>
        <time>2023-10-09T12:13:56Z</time>
      </trkpt>
      <trkpt lat="43.66192" lon="6.16771">
        <ele>607.3</ele>
        <time>2023-10-09T12:13:57Z</time>
      </trkpt>
      <trkpt lat="43.66192" lon="6.16772">
        <ele>607.3</ele>
        <time>2023-10-09T12:13:58Z</time>
      </trkpt>
      <trkpt lat="43.66192" lon="6.16774">
        <ele>607.3</ele>
        <time>2023-10-09T12:13:59Z</time>
      </trkpt>
      <trkpt lat="43.66191" lon="6.16775">
        <ele>607.4</ele>
        <time>2023-10-09T12:14:00Z</time>
      </trkpt>
      <trkpt lat="43.66191" lon="6.16776">
        <ele>607.4</ele>
        <time>2023-10-09T12:14:01Z</time>
      </trkpt>
      <trkpt lat="43.66191" lon="6.16778">
        <ele>607.4</ele>
        <time>2023-10-09T12:14:02Z</time>
      </trkpt>
      <trkpt lat="43.66191" lon="6.1678">
        <ele>607.4</ele>
        <time>2023-10-09T12:14:03Z</time>
      </trkpt>
      <trkpt lat="43.66191" lon="6.16781">
        <ele>607.4</ele>
        <time>2023-10-09T12:14:04Z</time>
      </trkpt>
      <trkpt lat="43.66191" lon="6.16783">
        <ele>607.4</ele>
        <time>2023-10-09T12:14:05Z</time>
      </trkpt>
      <trkpt lat="43.66192" lon="6.16784">
        <ele>607.3</ele>
        <time>2023-10-09T12:14:06Z</time>
      </trkpt>
      <trkpt lat="43.66192" lon="6.16786">
        <ele>607.3</ele>
        <time>2023-10-09T12:14:07Z</time>
      </trkpt>
      <trkpt lat="43.66192" lon="6.16787">
        <ele>607.3</ele>
        <time>2023-10-09T12:14:08Z</time>
      </trkpt>
      <trkpt lat="43.66192" lon="6.16789">
        <ele>607.3</ele>
        <time>2023-10-09T12:14:09Z</time>
      </trkpt>
      <trkpt lat="43.66192" lon="6.1679">
        <ele>607.3</ele>
        <time>2023-10-09T12:14:10Z</time>
      </trkpt>
      <trkpt lat="43.66192" lon="6.16793">
        <ele>607.3</ele>
        <time>2023-10-09T12:14:11Z</time>
      </trkpt>
      <trkpt lat="43.66192" lon="6.16794">
        <ele>607.3</ele>
        <time>2023-10-09T12:14:12Z</time>
      </trkpt>
      <trkpt lat="43.66192" lon="6.16795">
        <ele>607.3</ele>
        <time>2023-10-09T12:14:13Z</time>
      </trkpt>
      <trkpt lat="43.66192" lon="6.16797">
        <ele>607.3</ele>
        <time>2023-10-09T12:14:14Z</time>
      </trkpt>
      <trkpt lat="43.66192" lon="6.16798">
        <ele>607.3</ele>
        <time>2023-10-09T12:14:15Z</time>
      </trkpt>
      <trkpt lat="43.66193" lon="6.168">
        <ele>607.2</ele>
        <time>2023-10-09T12:14:16Z</time>
      </trkpt>
      <trkpt lat="43.66193" lon="6.16801">
        <ele>607.2</ele>
        <time>2023-10-09T12:14:17Z</time>
      </trkpt>
      <trkpt lat="43.66193" lon="6.16803">
        <ele>607.2</ele>
        <time>2023-10-09T12:14:18Z</time>
      </trkpt>
      <trkpt lat="43.66193" lon="6.16804">
        <ele>607.2</ele>
        <time>2023-10-09T12:14:19Z</time>
      </trkpt>
      <trkpt lat="43.66194" lon="6.16805">
        <ele>607</ele>
        <time>2023-10-09T12:14:20Z</time>
      </trkpt>
      <trkpt lat="43.66194" lon="6.16807">
        <ele>607</ele>
        <time>2023-10-09T12:14:21Z</time>
      </trkpt>
      <trkpt lat="43.66194" lon="6.16808">
        <ele>607</ele>
        <time>2023-10-09T12:14:22Z</time>
      </trkpt>
      <trkpt lat="43.66194" lon="6.1681">
        <ele>607</ele>
        <time>2023-10-09T12:14:23Z</time>
      </trkpt>
      <trkpt lat="43.66194" lon="6.16811">
        <ele>607</ele>
        <time>2023-10-09T12:14:24Z</time>
      </trkpt>
      <trkpt lat="43.66194" lon="6.16813">
        <ele>607</ele>
        <time>2023-10-09T12:14:25Z</time>
      </trkpt>
      <trkpt lat="43.66194" lon="6.16814">
        <ele>607</ele>
        <time>2023-10-09T12:14:26Z</time>
      </trkpt>
      <trkpt lat="43.66194" lon="6.16816">
        <ele>607</ele>
        <time>2023-10-09T12:14:27Z</time>
      </trkpt>
      <trkpt lat="43.66194" lon="6.16817">
        <ele>607</ele>
        <time>2023-10-09T12:14:28Z</time>
      </trkpt>
      <trkpt lat="43.66194" lon="6.1682">
        <ele>607</ele>
        <time>2023-10-09T12:14:29Z</time>
      </trkpt>
      <trkpt lat="43.66194" lon="6.16821">
        <ele>607</ele>
        <time>2023-10-09T12:14:30Z</time>
      </trkpt>
      <trkpt lat="43.66194" lon="6.16822">
        <ele>607</ele>
        <time>2023-10-09T12:14:31Z</time>
      </trkpt>
      <trkpt lat="43.66193" lon="6.16824">
        <ele>607.2</ele>
        <time>2023-10-09T12:14:32Z</time>
      </trkpt>
      <trkpt lat="43.66192" lon="6.16826">
        <ele>607.3</ele>
        <time>2023-10-09T12:14:33Z</time>
      </trkpt>
      <trkpt lat="43.66191" lon="6.16829">
        <ele>607.4</ele>
        <time>2023-10-09T12:14:34Z</time>
      </trkpt>
      <trkpt lat="43.66191" lon="6.1683">
        <ele>607.4</ele>
        <time>2023-10-09T12:14:35Z</time>
      </trkpt>
      <trkpt lat="43.66191" lon="6.16831">
        <ele>607.4</ele>
        <time>2023-10-09T12:14:36Z</time>
      </trkpt>
      <trkpt lat="43.66191" lon="6.16833">
        <ele>607.4</ele>
        <time>2023-10-09T12:14:37Z</time>
      </trkpt>
      <trkpt lat="43.66191" lon="6.16835">
        <ele>607.4</ele>
        <time>2023-10-09T12:14:38Z</time>
      </trkpt>
      <trkpt lat="43.66191" lon="6.16837">
        <ele>607.4</ele>
        <time>2023-10-09T12:14:39Z</time>
      </trkpt>
      <trkpt lat="43.6619" lon="6.16839">
        <ele>607.5</ele>
        <time>2023-10-09T12:14:40Z</time>
      </trkpt>
      <trkpt lat="43.6619" lon="6.1684">
        <ele>607.5</ele>
        <time>2023-10-09T12:14:41Z</time>
      </trkpt>
      <trkpt lat="43.6619" lon="6.16842">
        <ele>607.5</ele>
        <time>2023-10-09T12:14:42Z</time>
      </trkpt>
      <trkpt lat="43.6619" lon="6.16843">
        <ele>607.5</ele>
        <time>2023-10-09T12:14:43Z</time>
      </trkpt>
      <trkpt lat="43.6619" lon="6.16845">
        <ele>607.5</ele>
        <time>2023-10-09T12:14:44Z</time>
      </trkpt>
      <trkpt lat="43.66191" lon="6.16846">
        <ele>607.4</ele>
        <time>2023-10-09T12:14:45Z</time>
      </trkpt>
      <trkpt lat="43.66191" lon="6.16848">
        <ele>607.4</ele>
        <time>2023-10-09T12:14:46Z</time>
      </trkpt>
      <trkpt lat="43.66191" lon="6.1685">
        <ele>607.4</ele>
        <time>2023-10-09T12:14:47Z</time>
      </trkpt>
      <trkpt lat="43.66191" lon="6.16851">
        <ele>607.4</ele>
        <time>2023-10-09T12:14:48Z</time>
      </trkpt>
      <trkpt lat="43.6619" lon="6.16853">
        <ele>607.5</ele>
        <time>2023-10-09T12:14:49Z</time>
      </trkpt>
      <trkpt lat="43.6619" lon="6.16856">
        <ele>607.5</ele>
        <time>2023-10-09T12:14:50Z</time>
      </trkpt>
      <trkpt lat="43.66191" lon="6.16857">
        <ele>607.4</ele>
        <time>2023-10-09T12:14:51Z</time>
      </trkpt>
      <trkpt lat="43.66191" lon="6.16858">
        <ele>607.4</ele>
        <time>2023-10-09T12:14:52Z</time>
      </trkpt>
      <trkpt lat="43.66191" lon="6.16859">
        <ele>607.4</ele>
        <time>2023-10-09T12:14:53Z</time>
      </trkpt>
      <trkpt lat="43.66191" lon="6.16861">
        <ele>607.4</ele>
        <time>2023-10-09T12:14:54Z</time>
      </trkpt>
      <trkpt lat="43.66191" lon="6.16863">
        <ele>607.4</ele>
        <time>2023-10-09T12:14:55Z</time>
      </trkpt>
      <trkpt lat="43.66191" lon="6.16864">
        <ele>607.4</ele>
        <time>2023-10-09T12:14:56Z</time>
      </trkpt>
      <trkpt lat="43.66191" lon="6.16865">
        <ele>607.4</ele>
        <time>2023-10-09T12:14:57Z</time>
      </trkpt>
      <trkpt lat="43.66191" lon="6.16867">
        <ele>607.4</ele>
        <time>2023-10-09T12:14:58Z</time>
      </trkpt>
      <trkpt lat="43.66191" lon="6.16868">
        <ele>607.4</ele>
        <time>2023-10-09T12:14:59Z</time>
      </trkpt>
      <trkpt lat="43.66191" lon="6.16869">
        <ele>607.4</ele>
        <time>2023-10-09T12:15:00Z</time>
      </trkpt>
      <trkpt lat="43.66191" lon="6.16871">
        <ele>607.4</ele>
        <time>2023-10-09T12:15:01Z</time>
      </trkpt>
      <trkpt lat="43.66191" lon="6.16873">
        <ele>607.4</ele>
        <time>2023-10-09T12:15:02Z</time>
      </trkpt>
      <trkpt lat="43.66191" lon="6.16874">
        <ele>607.4</ele>
        <time>2023-10-09T12:15:03Z</time>
      </trkpt>
      <trkpt lat="43.66191" lon="6.16876">
        <ele>607.4</ele>
        <time>2023-10-09T12:15:04Z</time>
      </trkpt>
      <trkpt lat="43.66191" lon="6.16878">
        <ele>607.4</ele>
        <time>2023-10-09T12:15:05Z</time>
      </trkpt>
      <trkpt lat="43.66192" lon="6.1688">
        <ele>607.3</ele>
        <time>2023-10-09T12:15:06Z</time>
      </trkpt>
      <trkpt lat="43.66192" lon="6.16881">
        <ele>607.3</ele>
        <time>2023-10-09T12:15:07Z</time>
      </trkpt>
      <trkpt lat="43.66192" lon="6.16883">
        <ele>607.3</ele>
        <time>2023-10-09T12:15:08Z</time>
      </trkpt>
      <trkpt lat="43.66192" lon="6.16885">
        <ele>607.3</ele>
        <time>2023-10-09T12:15:09Z</time>
      </trkpt>
      <trkpt lat="43.66192" lon="6.16887">
        <ele>607.3</ele>
        <time>2023-10-09T12:15:10Z</time>
      </trkpt>
      <trkpt lat="43.66192" lon="6.16888">
        <ele>607.3</ele>
        <time>2023-10-09T12:15:11Z</time>
      </trkpt>
      <trkpt lat="43.66192" lon="6.1689">
        <ele>607.3</ele>
        <time>2023-10-09T12:15:12Z</time>
      </trkpt>
      <trkpt lat="43.66192" lon="6.16891">
        <ele>607.3</ele>
        <time>2023-10-09T12:15:13Z</time>
      </trkpt>
      <trkpt lat="43.66193" lon="6.16892">
        <ele>607.3</ele>
        <time>2023-10-09T12:15:14Z</time>
      </trkpt>
      <trkpt lat="43.66193" lon="6.16894">
        <ele>607.3</ele>
        <time>2023-10-09T12:15:15Z</time>
      </trkpt>
      <trkpt lat="43.66193" lon="6.16896">
        <ele>607.4</ele>
        <time>2023-10-09T12:15:16Z</time>
      </trkpt>
      <trkpt lat="43.66193" lon="6.16897">
        <ele>607.4</ele>
        <time>2023-10-09T12:15:17Z</time>
      </trkpt>
      <trkpt lat="43.66193" lon="6.16899">
        <ele>607.5</ele>
        <time>2023-10-09T12:15:18Z</time>
      </trkpt>
      <trkpt lat="43.66193" lon="6.169">
        <ele>607.5</ele>
        <time>2023-10-09T12:15:19Z</time>
      </trkpt>
      <trkpt lat="43.66193" lon="6.16901">
        <ele>607.6</ele>
        <time>2023-10-09T12:15:20Z</time>
      </trkpt>
      <trkpt lat="43.66193" lon="6.16902">
        <ele>607.6</ele>
        <time>2023-10-09T12:15:21Z</time>
      </trkpt>
      <trkpt lat="43.66194" lon="6.16905">
        <ele>607.6</ele>
        <time>2023-10-09T12:15:22Z</time>
      </trkpt>
      <trkpt lat="43.66194" lon="6.16906">
        <ele>607.7</ele>
        <time>2023-10-09T12:15:23Z</time>
      </trkpt>
      <trkpt lat="43.66194" lon="6.16908">
        <ele>607.7</ele>
        <time>2023-10-09T12:15:24Z</time>
      </trkpt>
      <trkpt lat="43.66194" lon="6.1691">
        <ele>607.8</ele>
        <time>2023-10-09T12:15:25Z</time>
      </trkpt>
      <trkpt lat="43.66194" lon="6.16911">
        <ele>607.8</ele>
        <time>2023-10-09T12:15:26Z</time>
      </trkpt>
      <trkpt lat="43.66194" lon="6.16913">
        <ele>607.9</ele>
        <time>2023-10-09T12:15:27Z</time>
      </trkpt>
      <trkpt lat="43.66193" lon="6.16914">
        <ele>608</ele>
        <time>2023-10-09T12:15:28Z</time>
      </trkpt>
      <trkpt lat="43.66194" lon="6.16916">
        <ele>608</ele>
        <time>2023-10-09T12:15:29Z</time>
      </trkpt>
      <trkpt lat="43.66194" lon="6.16917">
        <ele>608</ele>
        <time>2023-10-09T12:15:30Z</time>
      </trkpt>
      <trkpt lat="43.66194" lon="6.1692">
        <ele>608</ele>
        <time>2023-10-09T12:15:31Z</time>
      </trkpt>
      <trkpt lat="43.66194" lon="6.16921">
        <ele>608</ele>
        <time>2023-10-09T12:15:32Z</time>
      </trkpt>
      <trkpt lat="43.66194" lon="6.16923">
        <ele>608</ele>
        <time>2023-10-09T12:15:33Z</time>
      </trkpt>
      <trkpt lat="43.66194" lon="6.16924">
        <ele>608</ele>
        <time>2023-10-09T12:15:34Z</time>
      </trkpt>
      <trkpt lat="43.66194" lon="6.16925">
        <ele>608</ele>
        <time>2023-10-09T12:15:35Z</time>
      </trkpt>
      <trkpt lat="43.66195" lon="6.16927">
        <ele>608</ele>
        <time>2023-10-09T12:15:36Z</time>
      </trkpt>
      <trkpt lat="43.66195" lon="6.1693">
        <ele>608</ele>
        <time>2023-10-09T12:15:37Z</time>
      </trkpt>
      <trkpt lat="43.66195" lon="6.16931">
        <ele>608</ele>
        <time>2023-10-09T12:15:38Z</time>
      </trkpt>
      <trkpt lat="43.66195" lon="6.16932">
        <ele>608</ele>
        <time>2023-10-09T12:15:39Z</time>
      </trkpt>
      <trkpt lat="43.66195" lon="6.16933">
        <ele>608</ele>
        <time>2023-10-09T12:15:40Z</time>
      </trkpt>
      <trkpt lat="43.66195" lon="6.16935">
        <ele>608</ele>
        <time>2023-10-09T12:15:41Z</time>
      </trkpt>
      <trkpt lat="43.66195" lon="6.16936">
        <ele>608</ele>
        <time>2023-10-09T12:15:42Z</time>
      </trkpt>
      <trkpt lat="43.66195" lon="6.16938">
        <ele>608</ele>
        <time>2023-10-09T12:15:43Z</time>
      </trkpt>
      <trkpt lat="43.66195" lon="6.16939">
        <ele>608</ele>
        <time>2023-10-09T12:15:44Z</time>
      </trkpt>
      <trkpt lat="43.66195" lon="6.16941">
        <ele>608</ele>
        <time>2023-10-09T12:15:45Z</time>
      </trkpt>
      <trkpt lat="43.66195" lon="6.16943">
        <ele>608</ele>
        <time>2023-10-09T12:15:46Z</time>
      </trkpt>
      <trkpt lat="43.66194" lon="6.16944">
        <ele>608</ele>
        <time>2023-10-09T12:15:47Z</time>
      </trkpt>
      <trkpt lat="43.66194" lon="6.16945">
        <ele>608</ele>
        <time>2023-10-09T12:15:48Z</time>
      </trkpt>
      <trkpt lat="43.66194" lon="6.16947">
        <ele>607.9</ele>
        <time>2023-10-09T12:15:49Z</time>
      </trkpt>
      <trkpt lat="43.66194" lon="6.16948">
        <ele>607.9</ele>
        <time>2023-10-09T12:15:50Z</time>
      </trkpt>
      <trkpt lat="43.66194" lon="6.1695">
        <ele>607.8</ele>
        <time>2023-10-09T12:15:51Z</time>
      </trkpt>
      <trkpt lat="43.66194" lon="6.16953">
        <ele>607.7</ele>
        <time>2023-10-09T12:15:52Z</time>
      </trkpt>
      <trkpt lat="43.66194" lon="6.16954">
        <ele>607.7</ele>
        <time>2023-10-09T12:15:53Z</time>
      </trkpt>
      <trkpt lat="43.66194" lon="6.16955">
        <ele>607.7</ele>
        <time>2023-10-09T12:15:54Z</time>
      </trkpt>
      <trkpt lat="43.66194" lon="6.16957">
        <ele>607.6</ele>
        <time>2023-10-09T12:15:55Z</time>
      </trkpt>
      <trkpt lat="43.66193" lon="6.16958">
        <ele>607.6</ele>
        <time>2023-10-09T12:15:56Z</time>
      </trkpt>
      <trkpt lat="43.66193" lon="6.1696">
        <ele>607.6</ele>
        <time>2023-10-09T12:15:57Z</time>
      </trkpt>
      <trkpt lat="43.66193" lon="6.16963">
        <ele>607.5</ele>
        <time>2023-10-09T12:15:58Z</time>
      </trkpt>
      <trkpt lat="43.66193" lon="6.16964">
        <ele>607.4</ele>
        <time>2023-10-09T12:15:59Z</time>
      </trkpt>
      <trkpt lat="43.66193" lon="6.16965">
        <ele>607.4</ele>
        <time>2023-10-09T12:16:00Z</time>
      </trkpt>
      <trkpt lat="43.66192" lon="6.16967">
        <ele>607.4</ele>
        <time>2023-10-09T12:16:01Z</time>
      </trkpt>
      <trkpt lat="43.66192" lon="6.16968">
        <ele>607.4</ele>
        <time>2023-10-09T12:16:02Z</time>
      </trkpt>
      <trkpt lat="43.66192" lon="6.1697">
        <ele>607.3</ele>
        <time>2023-10-09T12:16:03Z</time>
      </trkpt>
      <trkpt lat="43.66192" lon="6.16971">
        <ele>607.3</ele>
        <time>2023-10-09T12:16:04Z</time>
      </trkpt>
      <trkpt lat="43.66192" lon="6.16973">
        <ele>607.3</ele>
        <time>2023-10-09T12:16:05Z</time>
      </trkpt>
      <trkpt lat="43.66192" lon="6.16975">
        <ele>607.4</ele>
        <time>2023-10-09T12:16:06Z</time>
      </trkpt>
      <trkpt lat="43.66192" lon="6.16976">
        <ele>607.4</ele>
        <time>2023-10-09T12:16:07Z</time>
      </trkpt>
      <trkpt lat="43.66192" lon="6.16978">
        <ele>607.5</ele>
        <time>2023-10-09T12:16:08Z</time>
      </trkpt>
      <trkpt lat="43.66193" lon="6.16979">
        <ele>607.4</ele>
        <time>2023-10-09T12:16:09Z</time>
      </trkpt>
      <trkpt lat="43.66193" lon="6.16981">
        <ele>607.5</ele>
        <time>2023-10-09T12:16:10Z</time>
      </trkpt>
      <trkpt lat="43.66193" lon="6.16982">
        <ele>607.5</ele>
        <time>2023-10-09T12:16:11Z</time>
      </trkpt>
      <trkpt lat="43.66193" lon="6.16983">
        <ele>607.5</ele>
        <time>2023-10-09T12:16:12Z</time>
      </trkpt>
      <trkpt lat="43.66193" lon="6.16986">
        <ele>607.6</ele>
        <time>2023-10-09T12:16:13Z</time>
      </trkpt>
      <trkpt lat="43.66192" lon="6.16987">
        <ele>607.7</ele>
        <time>2023-10-09T12:16:14Z</time>
      </trkpt>
      <trkpt lat="43.66192" lon="6.16988">
        <ele>607.8</ele>
        <time>2023-10-09T12:16:15Z</time>
      </trkpt>
      <trkpt lat="43.66192" lon="6.1699">
        <ele>607.8</ele>
        <time>2023-10-09T12:16:16Z</time>
      </trkpt>
      <trkpt lat="43.66191" lon="6.16991">
        <ele>608</ele>
        <time>2023-10-09T12:16:17Z</time>
      </trkpt>
      <trkpt lat="43.66191" lon="6.16993">
        <ele>608</ele>
        <time>2023-10-09T12:16:18Z</time>
      </trkpt>
      <trkpt lat="43.66191" lon="6.16995">
        <ele>608.1</ele>
        <time>2023-10-09T12:16:19Z</time>
      </trkpt>
      <trkpt lat="43.66191" lon="6.16996">
        <ele>608.1</ele>
        <time>2023-10-09T12:16:20Z</time>
      </trkpt>
      <trkpt lat="43.66191" lon="6.16998">
        <ele>608.2</ele>
        <time>2023-10-09T12:16:21Z</time>
      </trkpt>
      <trkpt lat="43.6619" lon="6.16999">
        <ele>608.3</ele>
        <time>2023-10-09T12:16:22Z</time>
      </trkpt>
      <trkpt lat="43.6619" lon="6.17001">
        <ele>608.4</ele>
        <time>2023-10-09T12:16:23Z</time>
      </trkpt>
      <trkpt lat="43.6619" lon="6.17002">
        <ele>608.4</ele>
        <time>2023-10-09T12:16:24Z</time>
      </trkpt>
      <trkpt lat="43.6619" lon="6.17004">
        <ele>608.4</ele>
        <time>2023-10-09T12:16:25Z</time>
      </trkpt>
      <trkpt lat="43.66189" lon="6.17006">
        <ele>608.6</ele>
        <time>2023-10-09T12:16:26Z</time>
      </trkpt>
      <trkpt lat="43.66189" lon="6.17007">
        <ele>608.6</ele>
        <time>2023-10-09T12:16:27Z</time>
      </trkpt>
      <trkpt lat="43.66189" lon="6.17009">
        <ele>608.7</ele>
        <time>2023-10-09T12:16:28Z</time>
      </trkpt>
      <trkpt lat="43.66189" lon="6.1701">
        <ele>608.7</ele>
        <time>2023-10-09T12:16:29Z</time>
      </trkpt>
      <trkpt lat="43.66188" lon="6.17012">
        <ele>608.8</ele>
        <time>2023-10-09T12:16:30Z</time>
      </trkpt>
      <trkpt lat="43.66188" lon="6.17015">
        <ele>608.9</ele>
        <time>2023-10-09T12:16:31Z</time>
      </trkpt>
      <trkpt lat="43.66188" lon="6.17016">
        <ele>608.9</ele>
        <time>2023-10-09T12:16:32Z</time>
      </trkpt>
      <trkpt lat="43.66188" lon="6.17017">
        <ele>608.9</ele>
        <time>2023-10-09T12:16:33Z</time>
      </trkpt>
      <trkpt lat="43.66188" lon="6.17018">
        <ele>609</ele>
        <time>2023-10-09T12:16:34Z</time>
      </trkpt>
      <trkpt lat="43.66188" lon="6.1702">
        <ele>609</ele>
        <time>2023-10-09T12:16:35Z</time>
      </trkpt>
      <trkpt lat="43.66187" lon="6.17021">
        <ele>609.1</ele>
        <time>2023-10-09T12:16:36Z</time>
      </trkpt>
      <trkpt lat="43.66187" lon="6.17023">
        <ele>609.1</ele>
        <time>2023-10-09T12:16:37Z</time>
      </trkpt>
      <trkpt lat="43.66187" lon="6.17024">
        <ele>609.2</ele>
        <time>2023-10-09T12:16:38Z</time>
      </trkpt>
      <trkpt lat="43.66186" lon="6.17025">
        <ele>609.2</ele>
        <time>2023-10-09T12:16:39Z</time>
      </trkpt>
      <trkpt lat="43.66186" lon="6.17027">
        <ele>609.3</ele>
        <time>2023-10-09T12:16:40Z</time>
      </trkpt>
      <trkpt lat="43.66186" lon="6.17028">
        <ele>609.3</ele>
        <time>2023-10-09T12:16:41Z</time>
      </trkpt>
      <trkpt lat="43.66185" lon="6.1703">
        <ele>609.4</ele>
        <time>2023-10-09T12:16:42Z</time>
      </trkpt>
      <trkpt lat="43.66184" lon="6.17031">
        <ele>609.5</ele>
        <time>2023-10-09T12:16:43Z</time>
      </trkpt>
      <trkpt lat="43.66184" lon="6.17032">
        <ele>609.5</ele>
        <time>2023-10-09T12:16:44Z</time>
      </trkpt>
      <trkpt lat="43.66183" lon="6.17034">
        <ele>609.6</ele>
        <time>2023-10-09T12:16:45Z</time>
      </trkpt>
      <trkpt lat="43.66183" lon="6.17035">
        <ele>609.6</ele>
        <time>2023-10-09T12:16:46Z</time>
      </trkpt>
      <trkpt lat="43.66183" lon="6.17036">
        <ele>609.6</ele>
        <time>2023-10-09T12:16:47Z</time>
      </trkpt>
      <trkpt lat="43.66182" lon="6.17037">
        <ele>609.7</ele>
        <time>2023-10-09T12:16:48Z</time>
      </trkpt>
      <trkpt lat="43.66182" lon="6.17039">
        <ele>609.7</ele>
        <time>2023-10-09T12:16:49Z</time>
      </trkpt>
      <trkpt lat="43.66181" lon="6.1704">
        <ele>609.7</ele>
        <time>2023-10-09T12:16:50Z</time>
      </trkpt>
      <trkpt lat="43.66181" lon="6.17041">
        <ele>609.7</ele>
        <time>2023-10-09T12:16:51Z</time>
      </trkpt>
      <trkpt lat="43.6618" lon="6.17042">
        <ele>609.7</ele>
        <time>2023-10-09T12:16:52Z</time>
      </trkpt>
      <trkpt lat="43.66179" lon="6.17043">
        <ele>609.7</ele>
        <time>2023-10-09T12:16:53Z</time>
      </trkpt>
      <trkpt lat="43.66179" lon="6.17045">
        <ele>609.8</ele>
        <time>2023-10-09T12:16:54Z</time>
      </trkpt>
      <trkpt lat="43.66178" lon="6.17047">
        <ele>609.7</ele>
        <time>2023-10-09T12:16:55Z</time>
      </trkpt>
      <trkpt lat="43.66177" lon="6.17048">
        <ele>609.7</ele>
        <time>2023-10-09T12:16:56Z</time>
      </trkpt>
      <trkpt lat="43.66177" lon="6.17049">
        <ele>609.7</ele>
        <time>2023-10-09T12:16:57Z</time>
      </trkpt>
      <trkpt lat="43.66176" lon="6.1705">
        <ele>609.7</ele>
        <time>2023-10-09T12:16:58Z</time>
      </trkpt>
      <trkpt lat="43.66176" lon="6.17052">
        <ele>609.7</ele>
        <time>2023-10-09T12:16:59Z</time>
      </trkpt>
      <trkpt lat="43.66176" lon="6.17053">
        <ele>609.7</ele>
        <time>2023-10-09T12:17:00Z</time>
      </trkpt>
      <trkpt lat="43.66175" lon="6.17055">
        <ele>609.6</ele>
        <time>2023-10-09T12:17:01Z</time>
      </trkpt>
      <trkpt lat="43.66174" lon="6.17056">
        <ele>609.5</ele>
        <time>2023-10-09T12:17:02Z</time>
      </trkpt>
      <trkpt lat="43.66174" lon="6.17057">
        <ele>609.6</ele>
        <time>2023-10-09T12:17:03Z</time>
      </trkpt>
      <trkpt lat="43.66172" lon="6.17059">
        <ele>609.5</ele>
        <time>2023-10-09T12:17:04Z</time>
      </trkpt>
      <trkpt lat="43.66172" lon="6.1706">
        <ele>609.5</ele>
        <time>2023-10-09T12:17:05Z</time>
      </trkpt>
      <trkpt lat="43.66171" lon="6.17061">
        <ele>609.5</ele>
        <time>2023-10-09T12:17:06Z</time>
      </trkpt>
      <trkpt lat="43.6617" lon="6.17064">
        <ele>609.5</ele>
        <time>2023-10-09T12:17:07Z</time>
      </trkpt>
      <trkpt lat="43.6617" lon="6.17065">
        <ele>609.6</ele>
        <time>2023-10-09T12:17:08Z</time>
      </trkpt>
      <trkpt lat="43.6617" lon="6.17066">
        <ele>609.6</ele>
        <time>2023-10-09T12:17:09Z</time>
      </trkpt>
      <trkpt lat="43.66169" lon="6.17067">
        <ele>609.6</ele>
        <time>2023-10-09T12:17:10Z</time>
      </trkpt>
      <trkpt lat="43.66169" lon="6.17069">
        <ele>609.7</ele>
        <time>2023-10-09T12:17:11Z</time>
      </trkpt>
      <trkpt lat="43.66169" lon="6.17071">
        <ele>609.7</ele>
        <time>2023-10-09T12:17:12Z</time>
      </trkpt>
      <trkpt lat="43.66169" lon="6.17072">
        <ele>609.8</ele>
        <time>2023-10-09T12:17:13Z</time>
      </trkpt>
      <trkpt lat="43.66169" lon="6.17074">
        <ele>609.8</ele>
        <time>2023-10-09T12:17:14Z</time>
      </trkpt>
      <trkpt lat="43.66168" lon="6.17075">
        <ele>609.8</ele>
        <time>2023-10-09T12:17:15Z</time>
      </trkpt>
      <trkpt lat="43.66168" lon="6.17077">
        <ele>609.9</ele>
        <time>2023-10-09T12:17:16Z</time>
      </trkpt>
      <trkpt lat="43.66167" lon="6.17079">
        <ele>609.9</ele>
        <time>2023-10-09T12:17:17Z</time>
      </trkpt>
      <trkpt lat="43.66166" lon="6.17082">
        <ele>610</ele>
        <time>2023-10-09T12:17:18Z</time>
      </trkpt>
      <trkpt lat="43.66166" lon="6.17083">
        <ele>610</ele>
        <time>2023-10-09T12:17:19Z</time>
      </trkpt>
      <trkpt lat="43.66165" lon="6.17084">
        <ele>610.1</ele>
        <time>2023-10-09T12:17:20Z</time>
      </trkpt>
      <trkpt lat="43.66164" lon="6.17085">
        <ele>610.2</ele>
        <time>2023-10-09T12:17:21Z</time>
      </trkpt>
      <trkpt lat="43.66164" lon="6.17087">
        <ele>610.3</ele>
        <time>2023-10-09T12:17:22Z</time>
      </trkpt>
      <trkpt lat="43.66163" lon="6.17089">
        <ele>610.5</ele>
        <time>2023-10-09T12:17:23Z</time>
      </trkpt>
      <trkpt lat="43.66162" lon="6.1709">
        <ele>610.6</ele>
        <time>2023-10-09T12:17:24Z</time>
      </trkpt>
      <trkpt lat="43.66162" lon="6.17092">
        <ele>610.7</ele>
        <time>2023-10-09T12:17:25Z</time>
      </trkpt>
      <trkpt lat="43.66162" lon="6.17093">
        <ele>610.7</ele>
        <time>2023-10-09T12:17:26Z</time>
      </trkpt>
      <trkpt lat="43.66161" lon="6.17095">
        <ele>610.9</ele>
        <time>2023-10-09T12:17:27Z</time>
      </trkpt>
      <trkpt lat="43.66161" lon="6.17096">
        <ele>610.9</ele>
        <time>2023-10-09T12:17:28Z</time>
      </trkpt>
      <trkpt lat="43.6616" lon="6.17098">
        <ele>611</ele>
        <time>2023-10-09T12:17:29Z</time>
      </trkpt>
      <trkpt lat="43.6616" lon="6.171">
        <ele>611.2</ele>
        <time>2023-10-09T12:17:30Z</time>
      </trkpt>
      <trkpt lat="43.66159" lon="6.17101">
        <ele>611.2</ele>
        <time>2023-10-09T12:17:31Z</time>
      </trkpt>
      <trkpt lat="43.66159" lon="6.17102">
        <ele>611.2</ele>
        <time>2023-10-09T12:17:32Z</time>
      </trkpt>
      <trkpt lat="43.66158" lon="6.17103">
        <ele>611.3</ele>
        <time>2023-10-09T12:17:33Z</time>
      </trkpt>
      <trkpt lat="43.66158" lon="6.17105">
        <ele>611.4</ele>
        <time>2023-10-09T12:17:34Z</time>
      </trkpt>
      <trkpt lat="43.66157" lon="6.17106">
        <ele>611.4</ele>
        <time>2023-10-09T12:17:35Z</time>
      </trkpt>
      <trkpt lat="43.66157" lon="6.17107">
        <ele>611.5</ele>
        <time>2023-10-09T12:17:36Z</time>
      </trkpt>
      <trkpt lat="43.66156" lon="6.17108">
        <ele>611.5</ele>
        <time>2023-10-09T12:17:37Z</time>
      </trkpt>
      <trkpt lat="43.66156" lon="6.17109">
        <ele>611.5</ele>
        <time>2023-10-09T12:17:38Z</time>
      </trkpt>
      <trkpt lat="43.66156" lon="6.1711">
        <ele>611.6</ele>
        <time>2023-10-09T12:17:39Z</time>
      </trkpt>
      <trkpt lat="43.66155" lon="6.17111">
        <ele>611.6</ele>
        <time>2023-10-09T12:17:40Z</time>
      </trkpt>
      <trkpt lat="43.66155" lon="6.17113">
        <ele>611.6</ele>
        <time>2023-10-09T12:17:41Z</time>
      </trkpt>
      <trkpt lat="43.66154" lon="6.17114">
        <ele>611.6</ele>
        <time>2023-10-09T12:17:42Z</time>
      </trkpt>
      <trkpt lat="43.66153" lon="6.17115">
        <ele>611.6</ele>
        <time>2023-10-09T12:17:43Z</time>
      </trkpt>
      <trkpt lat="43.66153" lon="6.17116">
        <ele>611.6</ele>
        <time>2023-10-09T12:17:44Z</time>
      </trkpt>
      <trkpt lat="43.66152" lon="6.17117">
        <ele>611.6</ele>
        <time>2023-10-09T12:17:45Z</time>
      </trkpt>
      <trkpt lat="43.66151" lon="6.17118">
        <ele>611.5</ele>
        <time>2023-10-09T12:17:46Z</time>
      </trkpt>
      <trkpt lat="43.66151" lon="6.17119">
        <ele>611.6</ele>
        <time>2023-10-09T12:17:47Z</time>
      </trkpt>
      <trkpt lat="43.6615" lon="6.17121">
        <ele>611.5</ele>
        <time>2023-10-09T12:17:48Z</time>
      </trkpt>
      <trkpt lat="43.6615" lon="6.17122">
        <ele>611.6</ele>
        <time>2023-10-09T12:17:49Z</time>
      </trkpt>
      <trkpt lat="43.66149" lon="6.17123">
        <ele>611.5</ele>
        <time>2023-10-09T12:17:50Z</time>
      </trkpt>
      <trkpt lat="43.66148" lon="6.17125">
        <ele>611.5</ele>
        <time>2023-10-09T12:17:51Z</time>
      </trkpt>
      <trkpt lat="43.66148" lon="6.17126">
        <ele>611.5</ele>
        <time>2023-10-09T12:17:52Z</time>
      </trkpt>
      <trkpt lat="43.66147" lon="6.17127">
        <ele>611.5</ele>
        <time>2023-10-09T12:17:53Z</time>
      </trkpt>
      <trkpt lat="43.66146" lon="6.17129">
        <ele>611.4</ele>
        <time>2023-10-09T12:17:54Z</time>
      </trkpt>
      <trkpt lat="43.66145" lon="6.17131">
        <ele>611.4</ele>
        <time>2023-10-09T12:17:55Z</time>
      </trkpt>
      <trkpt lat="43.66145" lon="6.17132">
        <ele>611.4</ele>
        <time>2023-10-09T12:17:56Z</time>
      </trkpt>
      <trkpt lat="43.66144" lon="6.17133">
        <ele>611.3</ele>
        <time>2023-10-09T12:17:57Z</time>
      </trkpt>
      <trkpt lat="43.66144" lon="6.17135">
        <ele>611.3</ele>
        <time>2023-10-09T12:17:58Z</time>
      </trkpt>
      <trkpt lat="43.66143" lon="6.17137">
        <ele>611.3</ele>
        <time>2023-10-09T12:17:59Z</time>
      </trkpt>
      <trkpt lat="43.66142" lon="6.17139">
        <ele>611.2</ele>
        <time>2023-10-09T12:18:00Z</time>
      </trkpt>
      <trkpt lat="43.66141" lon="6.1714">
        <ele>611.2</ele>
        <time>2023-10-09T12:18:01Z</time>
      </trkpt>
      <trkpt lat="43.6614" lon="6.17143">
        <ele>611.4</ele>
        <time>2023-10-09T12:18:02Z</time>
      </trkpt>
      <trkpt lat="43.6614" lon="6.17144">
        <ele>611.4</ele>
        <time>2023-10-09T12:18:03Z</time>
      </trkpt>
      <trkpt lat="43.6614" lon="6.17145">
        <ele>611.5</ele>
        <time>2023-10-09T12:18:04Z</time>
      </trkpt>
      <trkpt lat="43.66139" lon="6.17147">
        <ele>611.6</ele>
        <time>2023-10-09T12:18:05Z</time>
      </trkpt>
      <trkpt lat="43.66139" lon="6.17149">
        <ele>611.7</ele>
        <time>2023-10-09T12:18:06Z</time>
      </trkpt>
      <trkpt lat="43.66139" lon="6.1715">
        <ele>611.8</ele>
        <time>2023-10-09T12:18:07Z</time>
      </trkpt>
      <trkpt lat="43.66138" lon="6.17151">
        <ele>611.9</ele>
        <time>2023-10-09T12:18:08Z</time>
      </trkpt>
      <trkpt lat="43.66138" lon="6.17153">
        <ele>612</ele>
        <time>2023-10-09T12:18:09Z</time>
      </trkpt>
      <trkpt lat="43.66137" lon="6.17154">
        <ele>612.2</ele>
        <time>2023-10-09T12:18:10Z</time>
      </trkpt>
      <trkpt lat="43.66137" lon="6.17156">
        <ele>612.3</ele>
        <time>2023-10-09T12:18:11Z</time>
      </trkpt>
      <trkpt lat="43.66137" lon="6.17157">
        <ele>612.4</ele>
        <time>2023-10-09T12:18:12Z</time>
      </trkpt>
      <trkpt lat="43.66136" lon="6.17158">
        <ele>612.4</ele>
        <time>2023-10-09T12:18:13Z</time>
      </trkpt>
      <trkpt lat="43.66136" lon="6.17159">
        <ele>612.5</ele>
        <time>2023-10-09T12:18:14Z</time>
      </trkpt>
      <trkpt lat="43.66135" lon="6.1716">
        <ele>612.6</ele>
        <time>2023-10-09T12:18:15Z</time>
      </trkpt>
      <trkpt lat="43.66135" lon="6.17161">
        <ele>612.6</ele>
        <time>2023-10-09T12:18:16Z</time>
      </trkpt>
      <trkpt lat="43.66135" lon="6.17163">
        <ele>612.8</ele>
        <time>2023-10-09T12:18:17Z</time>
      </trkpt>
      <trkpt lat="43.66135" lon="6.17164">
        <ele>612.8</ele>
        <time>2023-10-09T12:18:18Z</time>
      </trkpt>
      <trkpt lat="43.66134" lon="6.17166">
        <ele>613</ele>
        <time>2023-10-09T12:18:19Z</time>
      </trkpt>
      <trkpt lat="43.66134" lon="6.17167">
        <ele>613</ele>
        <time>2023-10-09T12:18:20Z</time>
      </trkpt>
      <trkpt lat="43.66133" lon="6.17169">
        <ele>613.1</ele>
        <time>2023-10-09T12:18:21Z</time>
      </trkpt>
      <trkpt lat="43.66133" lon="6.1717">
        <ele>613.1</ele>
        <time>2023-10-09T12:18:22Z</time>
      </trkpt>
      <trkpt lat="43.66133" lon="6.17172">
        <ele>613.2</ele>
        <time>2023-10-09T12:18:23Z</time>
      </trkpt>
      <trkpt lat="43.66133" lon="6.17173">
        <ele>613.2</ele>
        <time>2023-10-09T12:18:24Z</time>
      </trkpt>
      <trkpt lat="43.66132" lon="6.17174">
        <ele>613.2</ele>
        <time>2023-10-09T12:18:25Z</time>
      </trkpt>
      <trkpt lat="43.66132" lon="6.17176">
        <ele>613.3</ele>
        <time>2023-10-09T12:18:26Z</time>
      </trkpt>
      <trkpt lat="43.66131" lon="6.17177">
        <ele>613.3</ele>
        <time>2023-10-09T12:18:27Z</time>
      </trkpt>
      <trkpt lat="43.66131" lon="6.17178">
        <ele>613.3</ele>
        <time>2023-10-09T12:18:28Z</time>
      </trkpt>
      <trkpt lat="43.6613" lon="6.17179">
        <ele>613.3</ele>
        <time>2023-10-09T12:18:29Z</time>
      </trkpt>
      <trkpt lat="43.6613" lon="6.1718">
        <ele>613.3</ele>
        <time>2023-10-09T12:18:30Z</time>
      </trkpt>
      <trkpt lat="43.66129" lon="6.17182">
        <ele>613.4</ele>
        <time>2023-10-09T12:18:31Z</time>
      </trkpt>
      <trkpt lat="43.66129" lon="6.17183">
        <ele>613.4</ele>
        <time>2023-10-09T12:18:32Z</time>
      </trkpt>
      <trkpt lat="43.66128" lon="6.17186">
        <ele>613.4</ele>
        <time>2023-10-09T12:18:33Z</time>
      </trkpt>
      <trkpt lat="43.66127" lon="6.17187">
        <ele>613.4</ele>
        <time>2023-10-09T12:18:34Z</time>
      </trkpt>
      <trkpt lat="43.66127" lon="6.17188">
        <ele>613.4</ele>
        <time>2023-10-09T12:18:35Z</time>
      </trkpt>
      <trkpt lat="43.66126" lon="6.17191">
        <ele>613.5</ele>
        <time>2023-10-09T12:18:36Z</time>
      </trkpt>
      <trkpt lat="43.66126" lon="6.17192">
        <ele>613.5</ele>
        <time>2023-10-09T12:18:37Z</time>
      </trkpt>
      <trkpt lat="43.66125" lon="6.17193">
        <ele>613.5</ele>
        <time>2023-10-09T12:18:38Z</time>
      </trkpt>
      <trkpt lat="43.66124" lon="6.17195">
        <ele>613.5</ele>
        <time>2023-10-09T12:18:39Z</time>
      </trkpt>
      <trkpt lat="43.66124" lon="6.17196">
        <ele>613.5</ele>
        <time>2023-10-09T12:18:40Z</time>
      </trkpt>
      <trkpt lat="43.66123" lon="6.17197">
        <ele>613.5</ele>
        <time>2023-10-09T12:18:41Z</time>
      </trkpt>
      <trkpt lat="43.66123" lon="6.17198">
        <ele>613.5</ele>
        <time>2023-10-09T12:18:42Z</time>
      </trkpt>
      <trkpt lat="43.66122" lon="6.172">
        <ele>613.5</ele>
        <time>2023-10-09T12:18:43Z</time>
      </trkpt>
      <trkpt lat="43.66121" lon="6.17201">
        <ele>613.4</ele>
        <time>2023-10-09T12:18:44Z</time>
      </trkpt>
      <trkpt lat="43.66121" lon="6.17202">
        <ele>613.5</ele>
        <time>2023-10-09T12:18:45Z</time>
      </trkpt>
      <trkpt lat="43.6612" lon="6.17203">
        <ele>613.4</ele>
        <time>2023-10-09T12:18:46Z</time>
      </trkpt>
      <trkpt lat="43.6612" lon="6.17205">
        <ele>613.4</ele>
        <time>2023-10-09T12:18:47Z</time>
      </trkpt>
      <trkpt lat="43.66118" lon="6.17207">
        <ele>613.4</ele>
        <time>2023-10-09T12:18:48Z</time>
      </trkpt>
      <trkpt lat="43.66118" lon="6.17208">
        <ele>613.4</ele>
        <time>2023-10-09T12:18:49Z</time>
      </trkpt>
      <trkpt lat="43.66117" lon="6.17208">
        <ele>613.3</ele>
        <time>2023-10-09T12:18:50Z</time>
      </trkpt>
      <trkpt lat="43.66116" lon="6.1721">
        <ele>613.3</ele>
        <time>2023-10-09T12:18:51Z</time>
      </trkpt>
      <trkpt lat="43.66116" lon="6.17211">
        <ele>613.3</ele>
        <time>2023-10-09T12:18:52Z</time>
      </trkpt>
      <trkpt lat="43.66116" lon="6.17212">
        <ele>613.3</ele>
        <time>2023-10-09T12:18:53Z</time>
      </trkpt>
      <trkpt lat="43.66114" lon="6.17214">
        <ele>613.2</ele>
        <time>2023-10-09T12:18:54Z</time>
      </trkpt>
      <trkpt lat="43.66114" lon="6.17215">
        <ele>613.2</ele>
        <time>2023-10-09T12:18:55Z</time>
      </trkpt>
      <trkpt lat="43.66113" lon="6.17216">
        <ele>613.1</ele>
        <time>2023-10-09T12:18:56Z</time>
      </trkpt>
      <trkpt lat="43.66112" lon="6.17217">
        <ele>613.1</ele>
        <time>2023-10-09T12:18:57Z</time>
      </trkpt>
      <trkpt lat="43.66111" lon="6.17218">
        <ele>613</ele>
        <time>2023-10-09T12:18:58Z</time>
      </trkpt>
      <trkpt lat="43.66111" lon="6.17219">
        <ele>613</ele>
        <time>2023-10-09T12:18:59Z</time>
      </trkpt>
      <trkpt lat="43.6611" lon="6.17222">
        <ele>613</ele>
        <time>2023-10-09T12:19:00Z</time>
      </trkpt>
      <trkpt lat="43.66109" lon="6.17223">
        <ele>613.1</ele>
        <time>2023-10-09T12:19:01Z</time>
      </trkpt>
      <trkpt lat="43.66109" lon="6.17224">
        <ele>613.2</ele>
        <time>2023-10-09T12:19:02Z</time>
      </trkpt>
      <trkpt lat="43.66108" lon="6.17225">
        <ele>613.3</ele>
        <time>2023-10-09T12:19:03Z</time>
      </trkpt>
      <trkpt lat="43.66108" lon="6.17226">
        <ele>613.4</ele>
        <time>2023-10-09T12:19:04Z</time>
      </trkpt>
      <trkpt lat="43.66108" lon="6.17227">
        <ele>613.4</ele>
        <time>2023-10-09T12:19:05Z</time>
      </trkpt>
      <trkpt lat="43.66107" lon="6.1723">
        <ele>613.6</ele>
        <time>2023-10-09T12:19:06Z</time>
      </trkpt>
      <trkpt lat="43.66106" lon="6.17231">
        <ele>613.7</ele>
        <time>2023-10-09T12:19:07Z</time>
      </trkpt>
      <trkpt lat="43.66106" lon="6.17232">
        <ele>613.8</ele>
        <time>2023-10-09T12:19:08Z</time>
      </trkpt>
      <trkpt lat="43.66105" lon="6.17234">
        <ele>613.9</ele>
        <time>2023-10-09T12:19:09Z</time>
      </trkpt>
      <trkpt lat="43.66105" lon="6.17235">
        <ele>613.9</ele>
        <time>2023-10-09T12:19:10Z</time>
      </trkpt>
      <trkpt lat="43.66105" lon="6.17237">
        <ele>614</ele>
        <time>2023-10-09T12:19:11Z</time>
      </trkpt>
      <trkpt lat="43.66103" lon="6.17239">
        <ele>614.1</ele>
        <time>2023-10-09T12:19:12Z</time>
      </trkpt>
      <trkpt lat="43.66103" lon="6.1724">
        <ele>614.2</ele>
        <time>2023-10-09T12:19:13Z</time>
      </trkpt>
      <trkpt lat="43.66102" lon="6.17241">
        <ele>614.2</ele>
        <time>2023-10-09T12:19:14Z</time>
      </trkpt>
      <trkpt lat="43.66102" lon="6.17242">
        <ele>614.3</ele>
        <time>2023-10-09T12:19:15Z</time>
      </trkpt>
      <trkpt lat="43.66101" lon="6.17243">
        <ele>614.3</ele>
        <time>2023-10-09T12:19:16Z</time>
      </trkpt>
      <trkpt lat="43.66101" lon="6.17244">
        <ele>614.4</ele>
        <time>2023-10-09T12:19:17Z</time>
      </trkpt>
      <trkpt lat="43.66101" lon="6.17246">
        <ele>614.5</ele>
        <time>2023-10-09T12:19:18Z</time>
      </trkpt>
      <trkpt lat="43.661" lon="6.17248">
        <ele>614.5</ele>
        <time>2023-10-09T12:19:19Z</time>
      </trkpt>
      <trkpt lat="43.66099" lon="6.17251">
        <ele>614.6</ele>
        <time>2023-10-09T12:19:20Z</time>
      </trkpt>
      <trkpt lat="43.66099" lon="6.17252">
        <ele>614.6</ele>
        <time>2023-10-09T12:19:21Z</time>
      </trkpt>
      <trkpt lat="43.66099" lon="6.17253">
        <ele>614.7</ele>
        <time>2023-10-09T12:19:22Z</time>
      </trkpt>
      <trkpt lat="43.66098" lon="6.17255">
        <ele>614.7</ele>
        <time>2023-10-09T12:19:23Z</time>
      </trkpt>
      <trkpt lat="43.66098" lon="6.17256">
        <ele>614.7</ele>
        <time>2023-10-09T12:19:24Z</time>
      </trkpt>
      <trkpt lat="43.66098" lon="6.17258">
        <ele>614.8</ele>
        <time>2023-10-09T12:19:25Z</time>
      </trkpt>
      <trkpt lat="43.66098" lon="6.17259">
        <ele>614.9</ele>
        <time>2023-10-09T12:19:26Z</time>
      </trkpt>
      <trkpt lat="43.66098" lon="6.17261">
        <ele>614.9</ele>
        <time>2023-10-09T12:19:27Z</time>
      </trkpt>
      <trkpt lat="43.66098" lon="6.17262">
        <ele>615</ele>
        <time>2023-10-09T12:19:28Z</time>
      </trkpt>
      <trkpt lat="43.66098" lon="6.17263">
        <ele>615</ele>
        <time>2023-10-09T12:19:29Z</time>
      </trkpt>
      <trkpt lat="43.66097" lon="6.17265">
        <ele>615</ele>
        <time>2023-10-09T12:19:30Z</time>
      </trkpt>
      <trkpt lat="43.66097" lon="6.17266">
        <ele>615.1</ele>
        <time>2023-10-09T12:19:31Z</time>
      </trkpt>
      <trkpt lat="43.66097" lon="6.17267">
        <ele>615.1</ele>
        <time>2023-10-09T12:19:32Z</time>
      </trkpt>
      <trkpt lat="43.66097" lon="6.17269">
        <ele>615.2</ele>
        <time>2023-10-09T12:19:33Z</time>
      </trkpt>
      <trkpt lat="43.66097" lon="6.1727">
        <ele>615.2</ele>
        <time>2023-10-09T12:19:34Z</time>
      </trkpt>
      <trkpt lat="43.66097" lon="6.17273">
        <ele>615.3</ele>
        <time>2023-10-09T12:19:35Z</time>
      </trkpt>
      <trkpt lat="43.66096" lon="6.17274">
        <ele>615.3</ele>
        <time>2023-10-09T12:19:36Z</time>
      </trkpt>
      <trkpt lat="43.66096" lon="6.17275">
        <ele>615.4</ele>
        <time>2023-10-09T12:19:37Z</time>
      </trkpt>
      <trkpt lat="43.66096" lon="6.17277">
        <ele>615.4</ele>
        <time>2023-10-09T12:19:38Z</time>
      </trkpt>
      <trkpt lat="43.66096" lon="6.17278">
        <ele>615.5</ele>
        <time>2023-10-09T12:19:39Z</time>
      </trkpt>
      <trkpt lat="43.66096" lon="6.1728">
        <ele>615.5</ele>
        <time>2023-10-09T12:19:40Z</time>
      </trkpt>
      <trkpt lat="43.66096" lon="6.17281">
        <ele>615.5</ele>
        <time>2023-10-09T12:19:41Z</time>
      </trkpt>
      <trkpt lat="43.66096" lon="6.17283">
        <ele>615.5</ele>
        <time>2023-10-09T12:19:42Z</time>
      </trkpt>
      <trkpt lat="43.66095" lon="6.17284">
        <ele>615.4</ele>
        <time>2023-10-09T12:19:43Z</time>
      </trkpt>
      <trkpt lat="43.66095" lon="6.17286">
        <ele>615.4</ele>
        <time>2023-10-09T12:19:44Z</time>
      </trkpt>
      <trkpt lat="43.66094" lon="6.17287">
        <ele>615.4</ele>
        <time>2023-10-09T12:19:45Z</time>
      </trkpt>
      <trkpt lat="43.66094" lon="6.17289">
        <ele>615.4</ele>
        <time>2023-10-09T12:19:46Z</time>
      </trkpt>
      <trkpt lat="43.66093" lon="6.1729">
        <ele>615.3</ele>
        <time>2023-10-09T12:19:47Z</time>
      </trkpt>
      <trkpt lat="43.66093" lon="6.17291">
        <ele>615.3</ele>
        <time>2023-10-09T12:19:48Z</time>
      </trkpt>
      <trkpt lat="43.66093" lon="6.17293">
        <ele>615.3</ele>
        <time>2023-10-09T12:19:49Z</time>
      </trkpt>
      <trkpt lat="43.66093" lon="6.17294">
        <ele>615.3</ele>
        <time>2023-10-09T12:19:50Z</time>
      </trkpt>
      <trkpt lat="43.66093" lon="6.17295">
        <ele>615.3</ele>
        <time>2023-10-09T12:19:51Z</time>
      </trkpt>
      <trkpt lat="43.66092" lon="6.17297">
        <ele>615.3</ele>
        <time>2023-10-09T12:19:52Z</time>
      </trkpt>
      <trkpt lat="43.66092" lon="6.17299">
        <ele>615.3</ele>
        <time>2023-10-09T12:19:53Z</time>
      </trkpt>
      <trkpt lat="43.66092" lon="6.173">
        <ele>615.3</ele>
        <time>2023-10-09T12:19:54Z</time>
      </trkpt>
      <trkpt lat="43.66092" lon="6.17301">
        <ele>615.3</ele>
        <time>2023-10-09T12:19:55Z</time>
      </trkpt>
      <trkpt lat="43.66092" lon="6.17302">
        <ele>615.3</ele>
        <time>2023-10-09T12:19:56Z</time>
      </trkpt>
      <trkpt lat="43.66091" lon="6.17303">
        <ele>615.3</ele>
        <time>2023-10-09T12:19:57Z</time>
      </trkpt>
      <trkpt lat="43.66092" lon="6.17304">
        <ele>615.3</ele>
        <time>2023-10-09T12:19:58Z</time>
      </trkpt>
      <trkpt lat="43.66092" lon="6.17306">
        <ele>615.3</ele>
        <time>2023-10-09T12:19:59Z</time>
      </trkpt>
      <trkpt lat="43.66092" lon="6.17307">
        <ele>615.4</ele>
        <time>2023-10-09T12:20:00Z</time>
      </trkpt>
      <trkpt lat="43.66092" lon="6.17309">
        <ele>615.4</ele>
        <time>2023-10-09T12:20:01Z</time>
      </trkpt>
      <trkpt lat="43.66091" lon="6.1731">
        <ele>615.4</ele>
        <time>2023-10-09T12:20:02Z</time>
      </trkpt>
      <trkpt lat="43.66091" lon="6.17312">
        <ele>615.5</ele>
        <time>2023-10-09T12:20:03Z</time>
      </trkpt>
      <trkpt lat="43.66091" lon="6.17313">
        <ele>615.5</ele>
        <time>2023-10-09T12:20:04Z</time>
      </trkpt>
      <trkpt lat="43.6609" lon="6.17315">
        <ele>615.6</ele>
        <time>2023-10-09T12:20:05Z</time>
      </trkpt>
      <trkpt lat="43.6609" lon="6.17316">
        <ele>615.6</ele>
        <time>2023-10-09T12:20:06Z</time>
      </trkpt>
      <trkpt lat="43.66089" lon="6.17318">
        <ele>615.7</ele>
        <time>2023-10-09T12:20:07Z</time>
      </trkpt>
      <trkpt lat="43.66089" lon="6.1732">
        <ele>615.7</ele>
        <time>2023-10-09T12:20:08Z</time>
      </trkpt>
      <trkpt lat="43.66088" lon="6.17321">
        <ele>615.7</ele>
        <time>2023-10-09T12:20:09Z</time>
      </trkpt>
      <trkpt lat="43.66088" lon="6.17323">
        <ele>615.8</ele>
        <time>2023-10-09T12:20:10Z</time>
      </trkpt>
      <trkpt lat="43.66088" lon="6.17325">
        <ele>615.9</ele>
        <time>2023-10-09T12:20:11Z</time>
      </trkpt>
      <trkpt lat="43.66088" lon="6.17327">
        <ele>615.9</ele>
        <time>2023-10-09T12:20:12Z</time>
      </trkpt>
      <trkpt lat="43.66087" lon="6.17329">
        <ele>616</ele>
        <time>2023-10-09T12:20:13Z</time>
      </trkpt>
      <trkpt lat="43.66086" lon="6.1733">
        <ele>616</ele>
        <time>2023-10-09T12:20:14Z</time>
      </trkpt>
      <trkpt lat="43.66086" lon="6.17333">
        <ele>616.1</ele>
        <time>2023-10-09T12:20:15Z</time>
      </trkpt>
      <trkpt lat="43.66086" lon="6.17334">
        <ele>616.1</ele>
        <time>2023-10-09T12:20:16Z</time>
      </trkpt>
      <trkpt lat="43.66086" lon="6.17335">
        <ele>616.1</ele>
        <time>2023-10-09T12:20:17Z</time>
      </trkpt>
      <trkpt lat="43.66085" lon="6.17338">
        <ele>616.1</ele>
        <time>2023-10-09T12:20:18Z</time>
      </trkpt>
      <trkpt lat="43.66085" lon="6.17339">
        <ele>616.1</ele>
        <time>2023-10-09T12:20:19Z</time>
      </trkpt>
      <trkpt lat="43.66085" lon="6.1734">
        <ele>616.1</ele>
        <time>2023-10-09T12:20:20Z</time>
      </trkpt>
      <trkpt lat="43.66084" lon="6.17343">
        <ele>616</ele>
        <time>2023-10-09T12:20:21Z</time>
      </trkpt>
      <trkpt lat="43.66084" lon="6.17344">
        <ele>616</ele>
        <time>2023-10-09T12:20:22Z</time>
      </trkpt>
      <trkpt lat="43.66084" lon="6.17345">
        <ele>616</ele>
        <time>2023-10-09T12:20:23Z</time>
      </trkpt>
      <trkpt lat="43.66084" lon="6.17347">
        <ele>616</ele>
        <time>2023-10-09T12:20:24Z</time>
      </trkpt>
      <trkpt lat="43.66084" lon="6.17348">
        <ele>616</ele>
        <time>2023-10-09T12:20:25Z</time>
      </trkpt>
      <trkpt lat="43.66083" lon="6.1735">
        <ele>616</ele>
        <time>2023-10-09T12:20:26Z</time>
      </trkpt>
      <trkpt lat="43.66083" lon="6.17351">
        <ele>616</ele>
        <time>2023-10-09T12:20:27Z</time>
      </trkpt>
      <trkpt lat="43.66082" lon="6.17353">
        <ele>616</ele>
        <time>2023-10-09T12:20:28Z</time>
      </trkpt>
      <trkpt lat="43.66082" lon="6.17354">
        <ele>616</ele>
        <time>2023-10-09T12:20:29Z</time>
      </trkpt>
      <trkpt lat="43.66081" lon="6.17355">
        <ele>616</ele>
        <time>2023-10-09T12:20:30Z</time>
      </trkpt>
      <trkpt lat="43.66081" lon="6.17357">
        <ele>616</ele>
        <time>2023-10-09T12:20:31Z</time>
      </trkpt>
      <trkpt lat="43.66081" lon="6.17358">
        <ele>616</ele>
        <time>2023-10-09T12:20:32Z</time>
      </trkpt>
      <trkpt lat="43.66081" lon="6.17359">
        <ele>616</ele>
        <time>2023-10-09T12:20:33Z</time>
      </trkpt>
      <trkpt lat="43.66081" lon="6.17361">
        <ele>616</ele>
        <time>2023-10-09T12:20:34Z</time>
      </trkpt>
      <trkpt lat="43.6608" lon="6.17362">
        <ele>616</ele>
        <time>2023-10-09T12:20:35Z</time>
      </trkpt>
      <trkpt lat="43.6608" lon="6.17363">
        <ele>616.1</ele>
        <time>2023-10-09T12:20:36Z</time>
      </trkpt>
      <trkpt lat="43.66079" lon="6.17364">
        <ele>616.1</ele>
        <time>2023-10-09T12:20:37Z</time>
      </trkpt>
      <trkpt lat="43.66078" lon="6.17366">
        <ele>616.1</ele>
        <time>2023-10-09T12:20:38Z</time>
      </trkpt>
      <trkpt lat="43.66078" lon="6.17367">
        <ele>616.2</ele>
        <time>2023-10-09T12:20:39Z</time>
      </trkpt>
      <trkpt lat="43.66077" lon="6.17368">
        <ele>616.2</ele>
        <time>2023-10-09T12:20:40Z</time>
      </trkpt>
      <trkpt lat="43.66077" lon="6.1737">
        <ele>616.2</ele>
        <time>2023-10-09T12:20:41Z</time>
      </trkpt>
      <trkpt lat="43.66076" lon="6.17373">
        <ele>616.3</ele>
        <time>2023-10-09T12:20:42Z</time>
      </trkpt>
      <trkpt lat="43.66076" lon="6.17374">
        <ele>616.3</ele>
        <time>2023-10-09T12:20:43Z</time>
      </trkpt>
      <trkpt lat="43.66075" lon="6.17375">
        <ele>616.4</ele>
        <time>2023-10-09T12:20:44Z</time>
      </trkpt>
      <trkpt lat="43.66075" lon="6.17377">
        <ele>616.4</ele>
        <time>2023-10-09T12:20:45Z</time>
      </trkpt>
      <trkpt lat="43.66075" lon="6.17378">
        <ele>616.4</ele>
        <time>2023-10-09T12:20:46Z</time>
      </trkpt>
      <trkpt lat="43.66075" lon="6.1738">
        <ele>616.5</ele>
        <time>2023-10-09T12:20:47Z</time>
      </trkpt>
      <trkpt lat="43.66075" lon="6.17382">
        <ele>616.5</ele>
        <time>2023-10-09T12:20:48Z</time>
      </trkpt>
      <trkpt lat="43.66074" lon="6.17384">
        <ele>616.5</ele>
        <time>2023-10-09T12:20:49Z</time>
      </trkpt>
      <trkpt lat="43.66074" lon="6.17385">
        <ele>616.6</ele>
        <time>2023-10-09T12:20:50Z</time>
      </trkpt>
      <trkpt lat="43.66074" lon="6.17388">
        <ele>616.6</ele>
        <time>2023-10-09T12:20:51Z</time>
      </trkpt>
      <trkpt lat="43.66073" lon="6.17389">
        <ele>616.6</ele>
        <time>2023-10-09T12:20:52Z</time>
      </trkpt>
      <trkpt lat="43.66073" lon="6.1739">
        <ele>616.6</ele>
        <time>2023-10-09T12:20:53Z</time>
      </trkpt>
      <trkpt lat="43.66073" lon="6.17391">
        <ele>616.6</ele>
        <time>2023-10-09T12:20:54Z</time>
      </trkpt>
      <trkpt lat="43.66073" lon="6.17393">
        <ele>616.6</ele>
        <time>2023-10-09T12:20:55Z</time>
      </trkpt>
      <trkpt lat="43.66073" lon="6.17394">
        <ele>616.6</ele>
        <time>2023-10-09T12:20:56Z</time>
      </trkpt>
      <trkpt lat="43.66073" lon="6.17396">
        <ele>616.6</ele>
        <time>2023-10-09T12:20:57Z</time>
      </trkpt>
      <trkpt lat="43.66072" lon="6.17397">
        <ele>616.6</ele>
        <time>2023-10-09T12:20:58Z</time>
      </trkpt>
      <trkpt lat="43.66072" lon="6.17399">
        <ele>616.6</ele>
        <time>2023-10-09T12:20:59Z</time>
      </trkpt>
      <trkpt lat="43.66072" lon="6.17402">
        <ele>616.6</ele>
        <time>2023-10-09T12:21:00Z</time>
      </trkpt>
      <trkpt lat="43.66072" lon="6.17403">
        <ele>616.6</ele>
        <time>2023-10-09T12:21:01Z</time>
      </trkpt>
      <trkpt lat="43.66072" lon="6.17404">
        <ele>616.6</ele>
        <time>2023-10-09T12:21:02Z</time>
      </trkpt>
      <trkpt lat="43.66072" lon="6.17407">
        <ele>616.6</ele>
        <time>2023-10-09T12:21:03Z</time>
      </trkpt>
      <trkpt lat="43.66072" lon="6.17408">
        <ele>616.6</ele>
        <time>2023-10-09T12:21:04Z</time>
      </trkpt>
      <trkpt lat="43.66072" lon="6.17409">
        <ele>616.6</ele>
        <time>2023-10-09T12:21:05Z</time>
      </trkpt>
      <trkpt lat="43.66072" lon="6.17411">
        <ele>616.6</ele>
        <time>2023-10-09T12:21:06Z</time>
      </trkpt>
      <trkpt lat="43.66072" lon="6.17412">
        <ele>616.6</ele>
        <time>2023-10-09T12:21:07Z</time>
      </trkpt>
      <trkpt lat="43.66072" lon="6.17414">
        <ele>616.6</ele>
        <time>2023-10-09T12:21:08Z</time>
      </trkpt>
      <trkpt lat="43.66072" lon="6.17415">
        <ele>616.6</ele>
        <time>2023-10-09T12:21:09Z</time>
      </trkpt>
      <trkpt lat="43.66072" lon="6.17417">
        <ele>616.6</ele>
        <time>2023-10-09T12:21:10Z</time>
      </trkpt>
      <trkpt lat="43.66072" lon="6.17418">
        <ele>616.6</ele>
        <time>2023-10-09T12:21:11Z</time>
      </trkpt>
      <trkpt lat="43.66072" lon="6.1742">
        <ele>616.6</ele>
        <time>2023-10-09T12:21:12Z</time>
      </trkpt>
      <trkpt lat="43.66072" lon="6.17421">
        <ele>616.7</ele>
        <time>2023-10-09T12:21:13Z</time>
      </trkpt>
      <trkpt lat="43.66072" lon="6.17421">
        <ele>616.7</ele>
        <time>2023-10-09T12:21:14Z</time>
      </trkpt>
      <trkpt lat="43.66073" lon="6.17422">
        <ele>616.7</ele>
        <time>2023-10-09T12:21:15Z</time>
      </trkpt>
      <trkpt lat="43.66073" lon="6.17422">
        <ele>616.7</ele>
        <time>2023-10-09T12:21:16Z</time>
      </trkpt>
      <trkpt lat="43.66074" lon="6.17422">
        <ele>616.7</ele>
        <time>2023-10-09T12:21:17Z</time>
      </trkpt>
      <trkpt lat="43.66074" lon="6.17422">
        <ele>616.7</ele>
        <time>2023-10-09T12:21:18Z</time>
      </trkpt>
      <trkpt lat="43.66075" lon="6.17423">
        <ele>616.8</ele>
        <time>2023-10-09T12:21:19Z</time>
      </trkpt>
      <trkpt lat="43.66075" lon="6.17423">
        <ele>616.8</ele>
        <time>2023-10-09T12:21:20Z</time>
      </trkpt>
      <trkpt lat="43.66075" lon="6.17423">
        <ele>616.8</ele>
        <time>2023-10-09T12:21:21Z</time>
      </trkpt>
      <trkpt lat="43.66075" lon="6.17423">
        <ele>616.8</ele>
        <time>2023-10-09T12:21:22Z</time>
      </trkpt>
      <trkpt lat="43.66075" lon="6.17423">
        <ele>616.8</ele>
        <time>2023-10-09T12:21:23Z</time>
      </trkpt>
      <trkpt lat="43.66075" lon="6.17422">
        <ele>616.8</ele>
        <time>2023-10-09T12:21:24Z</time>
      </trkpt>
      <trkpt lat="43.66075" lon="6.17422">
        <ele>616.8</ele>
        <time>2023-10-09T12:21:25Z</time>
      </trkpt>
      <trkpt lat="43.66075" lon="6.17422">
        <ele>616.8</ele>
        <time>2023-10-09T12:21:26Z</time>
      </trkpt>
      <trkpt lat="43.66075" lon="6.17421">
        <ele>616.7</ele>
        <time>2023-10-09T12:21:27Z</time>
      </trkpt>
      <trkpt lat="43.66075" lon="6.17421">
        <ele>616.7</ele>
        <time>2023-10-09T12:21:28Z</time>
      </trkpt>
      <trkpt lat="43.66075" lon="6.17421">
        <ele>616.7</ele>
        <time>2023-10-09T12:21:29Z</time>
      </trkpt>
      <trkpt lat="43.66075" lon="6.17421">
        <ele>616.7</ele>
        <time>2023-10-09T12:21:30Z</time>
      </trkpt>
      <trkpt lat="43.66075" lon="6.17421">
        <ele>616.7</ele>
        <time>2023-10-09T12:21:31Z</time>
      </trkpt>
      <trkpt lat="43.66075" lon="6.17421">
        <ele>616.7</ele>
        <time>2023-10-09T12:21:32Z</time>
      </trkpt>
      <trkpt lat="43.66075" lon="6.17421">
        <ele>616.7</ele>
        <time>2023-10-09T12:21:33Z</time>
      </trkpt>
      <trkpt lat="43.66075" lon="6.17421">
        <ele>616.7</ele>
        <time>2023-10-09T12:21:34Z</time>
      </trkpt>
      <trkpt lat="43.66075" lon="6.17421">
        <ele>616.7</ele>
        <time>2023-10-09T12:21:35Z</time>
      </trkpt>
      <trkpt lat="43.66075" lon="6.17421">
        <ele>616.7</ele>
        <time>2023-10-09T12:21:36Z</time>
      </trkpt>
      <trkpt lat="43.66075" lon="6.17421">
        <ele>616.7</ele>
        <time>2023-10-09T12:21:37Z</time>
      </trkpt>
      <trkpt lat="43.66075" lon="6.17421">
        <ele>616.7</ele>
        <time>2023-10-09T12:21:38Z</time>
      </trkpt>
      <trkpt lat="43.66075" lon="6.17421">
        <ele>616.7</ele>
        <time>2023-10-09T12:21:39Z</time>
      </trkpt>
      <trkpt lat="43.66075" lon="6.17421">
        <ele>616.7</ele>
        <time>2023-10-09T12:21:40Z</time>
      </trkpt>
      <trkpt lat="43.66075" lon="6.17421">
        <ele>616.7</ele>
        <time>2023-10-09T12:21:41Z</time>
      </trkpt>
      <trkpt lat="43.66075" lon="6.17421">
        <ele>616.7</ele>
        <time>2023-10-09T12:21:42Z</time>
      </trkpt>
      <trkpt lat="43.66075" lon="6.17421">
        <ele>616.7</ele>
        <time>2023-10-09T12:21:43Z</time>
      </trkpt>
      <trkpt lat="43.66075" lon="6.17421">
        <ele>616.7</ele>
        <time>2023-10-09T12:21:44Z</time>
      </trkpt>
      <trkpt lat="43.66075" lon="6.17421">
        <ele>616.7</ele>
        <time>2023-10-09T12:21:45Z</time>
      </trkpt>
      <trkpt lat="43.66075" lon="6.17421">
        <ele>616.7</ele>
        <time>2023-10-09T12:21:46Z</time>
      </trkpt>
      <trkpt lat="43.66075" lon="6.17421">
        <ele>616.7</ele>
        <time>2023-10-09T12:21:47Z</time>
      </trkpt>
      <trkpt lat="43.66075" lon="6.17421">
        <ele>616.7</ele>
        <time>2023-10-09T12:21:48Z</time>
      </trkpt>
      <trkpt lat="43.66075" lon="6.17421">
        <ele>616.7</ele>
        <time>2023-10-09T12:21:49Z</time>
      </trkpt>
      <trkpt lat="43.66075" lon="6.17421">
        <ele>616.7</ele>
        <time>2023-10-09T12:21:50Z</time>
      </trkpt>
      <trkpt lat="43.66075" lon="6.17421">
        <ele>616.7</ele>
        <time>2023-10-09T12:21:51Z</time>
      </trkpt>
      <trkpt lat="43.66075" lon="6.17421">
        <ele>616.7</ele>
        <time>2023-10-09T12:21:52Z</time>
      </trkpt>
      <trkpt lat="43.66075" lon="6.17421">
        <ele>616.7</ele>
        <time>2023-10-09T12:21:53Z</time>
      </trkpt>
      <trkpt lat="43.66075" lon="6.17421">
        <ele>616.7</ele>
        <time>2023-10-09T12:21:54Z</time>
      </trkpt>
      <trkpt lat="43.66075" lon="6.17421">
        <ele>616.7</ele>
        <time>2023-10-09T12:21:55Z</time>
      </trkpt>
      <trkpt lat="43.66075" lon="6.17421">
        <ele>616.7</ele>
        <time>2023-10-09T12:21:56Z</time>
      </trkpt>
      <trkpt lat="43.66075" lon="6.17421">
        <ele>616.7</ele>
        <time>2023-10-09T12:21:57Z</time>
      </trkpt>
      <trkpt lat="43.66075" lon="6.17421">
        <ele>616.7</ele>
        <time>2023-10-09T12:21:58Z</time>
      </trkpt>
      <trkpt lat="43.66075" lon="6.17421">
        <ele>616.7</ele>
        <time>2023-10-09T12:21:59Z</time>
      </trkpt>
      <trkpt lat="43.66075" lon="6.17421">
        <ele>616.7</ele>
        <time>2023-10-09T12:22:00Z</time>
      </trkpt>
      <trkpt lat="43.66075" lon="6.17421">
        <ele>616.7</ele>
        <time>2023-10-09T12:22:01Z</time>
      </trkpt>
      <trkpt lat="43.66075" lon="6.17421">
        <ele>616.7</ele>
        <time>2023-10-09T12:22:02Z</time>
      </trkpt>
      <trkpt lat="43.66075" lon="6.17421">
        <ele>616.7</ele>
        <time>2023-10-09T12:22:03Z</time>
      </trkpt>
      <trkpt lat="43.66075" lon="6.17421">
        <ele>616.7</ele>
        <time>2023-10-09T12:22:04Z</time>
      </trkpt>
      <trkpt lat="43.66075" lon="6.17421">
        <ele>616.7</ele>
        <time>2023-10-09T12:22:05Z</time>
      </trkpt>
      <trkpt lat="43.66075" lon="6.17421">
        <ele>616.7</ele>
        <time>2023-10-09T12:22:06Z</time>
      </trkpt>
      <trkpt lat="43.66075" lon="6.17421">
        <ele>616.7</ele>
        <time>2023-10-09T12:22:07Z</time>
      </trkpt>
      <trkpt lat="43.66075" lon="6.17421">
        <ele>616.7</ele>
        <time>2023-10-09T12:22:08Z</time>
      </trkpt>
      <trkpt lat="43.66075" lon="6.17421">
        <ele>616.7</ele>
        <time>2023-10-09T12:22:09Z</time>
      </trkpt>
      <trkpt lat="43.66075" lon="6.17421">
        <ele>616.7</ele>
        <time>2023-10-09T12:22:10Z</time>
      </trkpt>
      <trkpt lat="43.66075" lon="6.17421">
        <ele>616.7</ele>
        <time>2023-10-09T12:22:11Z</time>
      </trkpt>
      <trkpt lat="43.66075" lon="6.17421">
        <ele>616.7</ele>
        <time>2023-10-09T12:22:12Z</time>
      </trkpt>
      <trkpt lat="43.66075" lon="6.17421">
        <ele>616.7</ele>
        <time>2023-10-09T12:22:13Z</time>
      </trkpt>
      <trkpt lat="43.66075" lon="6.17421">
        <ele>616.7</ele>
        <time>2023-10-09T12:22:14Z</time>
      </trkpt>
      <trkpt lat="43.66075" lon="6.17421">
        <ele>616.7</ele>
        <time>2023-10-09T12:22:15Z</time>
      </trkpt>
      <trkpt lat="43.66075" lon="6.17421">
        <ele>616.7</ele>
        <time>2023-10-09T12:22:16Z</time>
      </trkpt>
      <trkpt lat="43.66075" lon="6.17421">
        <ele>616.7</ele>
        <time>2023-10-09T12:22:17Z</time>
      </trkpt>
      <trkpt lat="43.66075" lon="6.17421">
        <ele>616.7</ele>
        <time>2023-10-09T12:22:18Z</time>
      </trkpt>
      <trkpt lat="43.66075" lon="6.17421">
        <ele>616.7</ele>
        <time>2023-10-09T12:22:19Z</time>
      </trkpt>
      <trkpt lat="43.66075" lon="6.17421">
        <ele>616.7</ele>
        <time>2023-10-09T12:22:20Z</time>
      </trkpt>
      <trkpt lat="43.66075" lon="6.17421">
        <ele>616.7</ele>
        <time>2023-10-09T12:22:21Z</time>
      </trkpt>
      <trkpt lat="43.66075" lon="6.17421">
        <ele>616.7</ele>
        <time>2023-10-09T12:22:22Z</time>
      </trkpt>
      <trkpt lat="43.66075" lon="6.17421">
        <ele>616.7</ele>
        <time>2023-10-09T12:22:23Z</time>
      </trkpt>
      <trkpt lat="43.66075" lon="6.17421">
        <ele>616.7</ele>
        <time>2023-10-09T12:22:24Z</time>
      </trkpt>
      <trkpt lat="43.66075" lon="6.17421">
        <ele>616.7</ele>
        <time>2023-10-09T12:22:25Z</time>
      </trkpt>
      <trkpt lat="43.66075" lon="6.17421">
        <ele>616.7</ele>
        <time>2023-10-09T12:22:26Z</time>
      </trkpt>
      <trkpt lat="43.66075" lon="6.17421">
        <ele>616.7</ele>
        <time>2023-10-09T12:22:27Z</time>
      </trkpt>
      <trkpt lat="43.66075" lon="6.17421">
        <ele>616.7</ele>
        <time>2023-10-09T12:22:28Z</time>
      </trkpt>
      <trkpt lat="43.66075" lon="6.17421">
        <ele>616.7</ele>
        <time>2023-10-09T12:22:29Z</time>
      </trkpt>
      <trkpt lat="43.66075" lon="6.17421">
        <ele>616.7</ele>
        <time>2023-10-09T12:22:30Z</time>
      </trkpt>
      <trkpt lat="43.66075" lon="6.17421">
        <ele>616.7</ele>
        <time>2023-10-09T12:22:31Z</time>
      </trkpt>
      <trkpt lat="43.66075" lon="6.17421">
        <ele>616.7</ele>
        <time>2023-10-09T12:22:32Z</time>
      </trkpt>
      <trkpt lat="43.66075" lon="6.17421">
        <ele>616.7</ele>
        <time>2023-10-09T12:22:33Z</time>
      </trkpt>
      <trkpt lat="43.66075" lon="6.17421">
        <ele>616.7</ele>
        <time>2023-10-09T12:22:34Z</time>
      </trkpt>
      <trkpt lat="43.66075" lon="6.17421">
        <ele>616.7</ele>
        <time>2023-10-09T12:22:35Z</time>
      </trkpt>
      <trkpt lat="43.66075" lon="6.17421">
        <ele>616.7</ele>
        <time>2023-10-09T12:22:36Z</time>
      </trkpt>
      <trkpt lat="43.66075" lon="6.17421">
        <ele>616.7</ele>
        <time>2023-10-09T12:22:37Z</time>
      </trkpt>
      <trkpt lat="43.66075" lon="6.17421">
        <ele>616.7</ele>
        <time>2023-10-09T12:22:38Z</time>
      </trkpt>
      <trkpt lat="43.66075" lon="6.17421">
        <ele>616.7</ele>
        <time>2023-10-09T12:22:39Z</time>
      </trkpt>
      <trkpt lat="43.66075" lon="6.17421">
        <ele>616.7</ele>
        <time>2023-10-09T12:22:40Z</time>
      </trkpt>
      <trkpt lat="43.66075" lon="6.17421">
        <ele>616.7</ele>
        <time>2023-10-09T12:22:41Z</time>
      </trkpt>
      <trkpt lat="43.66075" lon="6.17421">
        <ele>616.7</ele>
        <time>2023-10-09T12:22:42Z</time>
      </trkpt>
      <trkpt lat="43.66075" lon="6.17421">
        <ele>616.7</ele>
        <time>2023-10-09T12:22:43Z</time>
      </trkpt>
      <trkpt lat="43.66075" lon="6.17421">
        <ele>616.7</ele>
        <time>2023-10-09T12:22:44Z</time>
      </trkpt>
      <trkpt lat="43.66075" lon="6.17421">
        <ele>616.7</ele>
        <time>2023-10-09T12:22:45Z</time>
      </trkpt>
      <trkpt lat="43.66075" lon="6.17421">
        <ele>616.7</ele>
        <time>2023-10-09T12:22:46Z</time>
      </trkpt>
      <trkpt lat="43.66075" lon="6.17421">
        <ele>616.7</ele>
        <time>2023-10-09T12:22:47Z</time>
      </trkpt>
      <trkpt lat="43.66075" lon="6.17421">
        <ele>616.7</ele>
        <time>2023-10-09T12:22:48Z</time>
      </trkpt>
      <trkpt lat="43.66075" lon="6.17421">
        <ele>616.7</ele>
        <time>2023-10-09T12:22:49Z</time>
      </trkpt>
      <trkpt lat="43.66075" lon="6.17421">
        <ele>616.7</ele>
        <time>2023-10-09T12:22:50Z</time>
      </trkpt>
      <trkpt lat="43.66075" lon="6.17421">
        <ele>616.7</ele>
        <time>2023-10-09T12:22:51Z</time>
      </trkpt>
      <trkpt lat="43.66075" lon="6.17421">
        <ele>616.7</ele>
        <time>2023-10-09T12:22:52Z</time>
      </trkpt>
      <trkpt lat="43.66075" lon="6.17421">
        <ele>616.7</ele>
        <time>2023-10-09T12:22:53Z</time>
      </trkpt>
      <trkpt lat="43.66075" lon="6.17421">
        <ele>616.7</ele>
        <time>2023-10-09T12:22:54Z</time>
      </trkpt>
      <trkpt lat="43.66075" lon="6.17421">
        <ele>616.7</ele>
        <time>2023-10-09T12:22:55Z</time>
      </trkpt>
      <trkpt lat="43.66075" lon="6.17421">
        <ele>616.7</ele>
        <time>2023-10-09T12:22:56Z</time>
      </trkpt>
      <trkpt lat="43.66075" lon="6.17421">
        <ele>616.7</ele>
        <time>2023-10-09T12:22:57Z</time>
      </trkpt>
      <trkpt lat="43.66075" lon="6.17421">
        <ele>616.7</ele>
        <time>2023-10-09T12:22:58Z</time>
      </trkpt>
      <trkpt lat="43.66075" lon="6.17421">
        <ele>616.7</ele>
        <time>2023-10-09T12:22:59Z</time>
      </trkpt>
      <trkpt lat="43.66075" lon="6.17421">
        <ele>616.7</ele>
        <time>2023-10-09T12:23:00Z</time>
      </trkpt>
      <trkpt lat="43.66075" lon="6.17421">
        <ele>616.7</ele>
        <time>2023-10-09T12:23:01Z</time>
      </trkpt>
      <trkpt lat="43.66075" lon="6.17421">
        <ele>616.7</ele>
        <time>2023-10-09T12:23:02Z</time>
      </trkpt>
      <trkpt lat="43.66075" lon="6.17421">
        <ele>616.7</ele>
        <time>2023-10-09T12:23:03Z</time>
      </trkpt>
      <trkpt lat="43.66075" lon="6.17421">
        <ele>616.7</ele>
        <time>2023-10-09T12:23:04Z</time>
      </trkpt>
      <trkpt lat="43.66075" lon="6.17421">
        <ele>616.7</ele>
        <time>2023-10-09T12:23:05Z</time>
      </trkpt>
      <trkpt lat="43.66075" lon="6.17421">
        <ele>616.7</ele>
        <time>2023-10-09T12:23:06Z</time>
      </trkpt>
      <trkpt lat="43.66075" lon="6.17421">
        <ele>616.7</ele>
        <time>2023-10-09T12:23:07Z</time>
      </trkpt>
      <trkpt lat="43.66075" lon="6.17421">
        <ele>616.7</ele>
        <time>2023-10-09T12:23:08Z</time>
      </trkpt>
      <trkpt lat="43.66075" lon="6.17421">
        <ele>616.7</ele>
        <time>2023-10-09T12:23:09Z</time>
      </trkpt>
      <trkpt lat="43.66075" lon="6.17421">
        <ele>616.7</ele>
        <time>2023-10-09T12:23:10Z</time>
      </trkpt>
      <trkpt lat="43.66075" lon="6.17421">
        <ele>616.7</ele>
        <time>2023-10-09T12:23:11Z</time>
      </trkpt>
      <trkpt lat="43.66075" lon="6.17421">
        <ele>616.7</ele>
        <time>2023-10-09T12:23:12Z</time>
      </trkpt>
      <trkpt lat="43.66075" lon="6.17421">
        <ele>616.7</ele>
        <time>2023-10-09T12:23:13Z</time>
      </trkpt>
      <trkpt lat="43.66075" lon="6.17421">
        <ele>616.7</ele>
        <time>2023-10-09T12:23:14Z</time>
      </trkpt>
      <trkpt lat="43.66075" lon="6.17421">
        <ele>616.7</ele>
        <time>2023-10-09T12:23:15Z</time>
      </trkpt>
      <trkpt lat="43.66075" lon="6.17421">
        <ele>616.7</ele>
        <time>2023-10-09T12:23:16Z</time>
      </trkpt>
      <trkpt lat="43.66075" lon="6.17421">
        <ele>616.7</ele>
        <time>2023-10-09T12:23:17Z</time>
      </trkpt>
      <trkpt lat="43.66075" lon="6.17421">
        <ele>616.7</ele>
        <time>2023-10-09T12:23:18Z</time>
      </trkpt>
      <trkpt lat="43.66075" lon="6.17421">
        <ele>616.7</ele>
        <time>2023-10-09T12:23:19Z</time>
      </trkpt>
      <trkpt lat="43.66075" lon="6.17421">
        <ele>616.7</ele>
        <time>2023-10-09T12:23:20Z</time>
      </trkpt>
      <trkpt lat="43.66075" lon="6.17421">
        <ele>616.7</ele>
        <time>2023-10-09T12:23:21Z</time>
      </trkpt>
      <trkpt lat="43.66075" lon="6.17421">
        <ele>616.7</ele>
        <time>2023-10-09T12:23:22Z</time>
      </trkpt>
      <trkpt lat="43.66075" lon="6.17421">
        <ele>616.7</ele>
        <time>2023-10-09T12:23:23Z</time>
      </trkpt>
      <trkpt lat="43.66075" lon="6.17421">
        <ele>616.7</ele>
        <time>2023-10-09T12:23:24Z</time>
      </trkpt>
      <trkpt lat="43.66075" lon="6.17421">
        <ele>616.7</ele>
        <time>2023-10-09T12:23:25Z</time>
      </trkpt>
      <trkpt lat="43.66075" lon="6.17421">
        <ele>616.7</ele>
        <time>2023-10-09T12:23:26Z</time>
      </trkpt>
      <trkpt lat="43.66075" lon="6.17421">
        <ele>616.7</ele>
        <time>2023-10-09T12:23:27Z</time>
      </trkpt>
      <trkpt lat="43.66075" lon="6.17421">
        <ele>616.7</ele>
        <time>2023-10-09T12:23:28Z</time>
      </trkpt>
      <trkpt lat="43.66075" lon="6.17421">
        <ele>616.7</ele>
        <time>2023-10-09T12:23:29Z</time>
      </trkpt>
      <trkpt lat="43.66075" lon="6.17421">
        <ele>616.7</ele>
        <time>2023-10-09T12:23:30Z</time>
      </trkpt>
      <trkpt lat="43.66075" lon="6.17421">
        <ele>616.7</ele>
        <time>2023-10-09T12:23:31Z</time>
      </trkpt>
      <trkpt lat="43.66075" lon="6.17421">
        <ele>616.7</ele>
        <time>2023-10-09T12:23:32Z</time>
      </trkpt>
      <trkpt lat="43.66075" lon="6.17421">
        <ele>616.7</ele>
        <time>2023-10-09T12:23:33Z</time>
      </trkpt>
      <trkpt lat="43.66075" lon="6.17421">
        <ele>616.7</ele>
        <time>2023-10-09T12:23:34Z</time>
      </trkpt>
      <trkpt lat="43.66075" lon="6.17421">
        <ele>616.7</ele>
        <time>2023-10-09T12:23:35Z</time>
      </trkpt>
      <trkpt lat="43.66075" lon="6.17421">
        <ele>616.7</ele>
        <time>2023-10-09T12:23:36Z</time>
      </trkpt>
      <trkpt lat="43.66075" lon="6.17421">
        <ele>616.7</ele>
        <time>2023-10-09T12:23:37Z</time>
      </trkpt>
      <trkpt lat="43.66075" lon="6.17421">
        <ele>616.7</ele>
        <time>2023-10-09T12:23:38Z</time>
      </trkpt>
      <trkpt lat="43.66075" lon="6.17421">
        <ele>616.7</ele>
        <time>2023-10-09T12:23:39Z</time>
      </trkpt>
      <trkpt lat="43.66075" lon="6.17421">
        <ele>616.7</ele>
        <time>2023-10-09T12:23:40Z</time>
      </trkpt>
      <trkpt lat="43.66075" lon="6.17421">
        <ele>616.7</ele>
        <time>2023-10-09T12:23:41Z</time>
      </trkpt>
      <trkpt lat="43.66075" lon="6.17421">
        <ele>616.7</ele>
        <time>2023-10-09T12:23:42Z</time>
      </trkpt>
      <trkpt lat="43.66075" lon="6.17421">
        <ele>616.7</ele>
        <time>2023-10-09T12:23:43Z</time>
      </trkpt>
      <trkpt lat="43.66075" lon="6.17421">
        <ele>616.7</ele>
        <time>2023-10-09T12:23:44Z</time>
      </trkpt>
      <trkpt lat="43.66075" lon="6.17421">
        <ele>616.7</ele>
        <time>2023-10-09T12:23:45Z</time>
      </trkpt>
      <trkpt lat="43.66075" lon="6.17421">
        <ele>616.7</ele>
        <time>2023-10-09T12:23:46Z</time>
      </trkpt>
      <trkpt lat="43.66075" lon="6.17421">
        <ele>616.7</ele>
        <time>2023-10-09T12:23:47Z</time>
      </trkpt>
      <trkpt lat="43.66075" lon="6.17421">
        <ele>616.7</ele>
        <time>2023-10-09T12:23:48Z</time>
      </trkpt>
      <trkpt lat="43.66075" lon="6.17421">
        <ele>616.7</ele>
        <time>2023-10-09T12:23:49Z</time>
      </trkpt>
      <trkpt lat="43.66075" lon="6.17421">
        <ele>616.7</ele>
        <time>2023-10-09T12:23:50Z</time>
      </trkpt>
      <trkpt lat="43.66075" lon="6.17421">
        <ele>616.7</ele>
        <time>2023-10-09T12:23:51Z</time>
      </trkpt>
      <trkpt lat="43.66075" lon="6.17421">
        <ele>616.7</ele>
        <time>2023-10-09T12:23:52Z</time>
      </trkpt>
      <trkpt lat="43.66075" lon="6.17421">
        <ele>616.7</ele>
        <time>2023-10-09T12:23:53Z</time>
      </trkpt>
      <trkpt lat="43.66075" lon="6.17421">
        <ele>616.7</ele>
        <time>2023-10-09T12:23:54Z</time>
      </trkpt>
      <trkpt lat="43.66075" lon="6.17421">
        <ele>616.7</ele>
        <time>2023-10-09T12:23:55Z</time>
      </trkpt>
      <trkpt lat="43.66075" lon="6.17421">
        <ele>616.7</ele>
        <time>2023-10-09T12:23:56Z</time>
      </trkpt>
      <trkpt lat="43.66075" lon="6.17421">
        <ele>616.7</ele>
        <time>2023-10-09T12:23:57Z</time>
      </trkpt>
      <trkpt lat="43.66075" lon="6.17421">
        <ele>616.7</ele>
        <time>2023-10-09T12:23:58Z</time>
      </trkpt>
      <trkpt lat="43.66075" lon="6.17421">
        <ele>616.7</ele>
        <time>2023-10-09T12:23:59Z</time>
      </trkpt>
      <trkpt lat="43.66075" lon="6.17421">
        <ele>616.7</ele>
        <time>2023-10-09T12:24:00Z</time>
      </trkpt>
      <trkpt lat="43.66075" lon="6.17421">
        <ele>616.7</ele>
        <time>2023-10-09T12:24:01Z</time>
      </trkpt>
      <trkpt lat="43.66075" lon="6.17421">
        <ele>616.7</ele>
        <time>2023-10-09T12:24:02Z</time>
      </trkpt>
      <trkpt lat="43.66075" lon="6.17421">
        <ele>616.7</ele>
        <time>2023-10-09T12:24:03Z</time>
      </trkpt>
      <trkpt lat="43.66075" lon="6.17421">
        <ele>616.7</ele>
        <time>2023-10-09T12:24:04Z</time>
      </trkpt>
      <trkpt lat="43.66075" lon="6.17421">
        <ele>616.7</ele>
        <time>2023-10-09T12:24:05Z</time>
      </trkpt>
      <trkpt lat="43.66075" lon="6.17421">
        <ele>616.7</ele>
        <time>2023-10-09T12:24:06Z</time>
      </trkpt>
      <trkpt lat="43.66075" lon="6.17421">
        <ele>616.7</ele>
        <time>2023-10-09T12:24:07Z</time>
      </trkpt>
      <trkpt lat="43.66075" lon="6.17421">
        <ele>616.7</ele>
        <time>2023-10-09T12:24:08Z</time>
      </trkpt>
      <trkpt lat="43.66075" lon="6.17421">
        <ele>616.7</ele>
        <time>2023-10-09T12:24:10Z</time>
      </trkpt>
      <trkpt lat="43.66075" lon="6.17421">
        <ele>616.7</ele>
        <time>2023-10-09T12:24:11Z</time>
      </trkpt>
      <trkpt lat="43.66075" lon="6.17421">
        <ele>616.7</ele>
        <time>2023-10-09T12:24:12Z</time>
      </trkpt>
      <trkpt lat="43.66075" lon="6.17421">
        <ele>616.7</ele>
        <time>2023-10-09T12:24:13Z</time>
      </trkpt>
      <trkpt lat="43.66075" lon="6.17421">
        <ele>616.7</ele>
        <time>2023-10-09T12:24:14Z</time>
      </trkpt>
      <trkpt lat="43.66075" lon="6.17421">
        <ele>616.7</ele>
        <time>2023-10-09T12:24:15Z</time>
      </trkpt>
      <trkpt lat="43.66075" lon="6.17421">
        <ele>616.7</ele>
        <time>2023-10-09T12:24:16Z</time>
      </trkpt>
      <trkpt lat="43.66075" lon="6.17421">
        <ele>616.7</ele>
        <time>2023-10-09T12:24:17Z</time>
      </trkpt>
      <trkpt lat="43.66075" lon="6.17421">
        <ele>616.7</ele>
        <time>2023-10-09T12:24:18Z</time>
      </trkpt>
      <trkpt lat="43.66075" lon="6.17421">
        <ele>616.7</ele>
        <time>2023-10-09T12:24:19Z</time>
      </trkpt>
      <trkpt lat="43.66075" lon="6.17421">
        <ele>616.7</ele>
        <time>2023-10-09T12:24:20Z</time>
      </trkpt>
      <trkpt lat="43.66075" lon="6.17421">
        <ele>616.7</ele>
        <time>2023-10-09T12:24:21Z</time>
      </trkpt>
      <trkpt lat="43.66075" lon="6.17421">
        <ele>616.7</ele>
        <time>2023-10-09T12:24:22Z</time>
      </trkpt>
      <trkpt lat="43.66075" lon="6.17421">
        <ele>616.7</ele>
        <time>2023-10-09T12:24:23Z</time>
      </trkpt>
      <trkpt lat="43.66075" lon="6.17421">
        <ele>616.7</ele>
        <time>2023-10-09T12:24:24Z</time>
      </trkpt>
      <trkpt lat="43.66075" lon="6.17421">
        <ele>616.7</ele>
        <time>2023-10-09T12:24:25Z</time>
      </trkpt>
      <trkpt lat="43.66075" lon="6.17421">
        <ele>616.7</ele>
        <time>2023-10-09T12:24:26Z</time>
      </trkpt>
      <trkpt lat="43.66075" lon="6.17421">
        <ele>616.7</ele>
        <time>2023-10-09T12:24:27Z</time>
      </trkpt>
      <trkpt lat="43.66075" lon="6.17421">
        <ele>616.7</ele>
        <time>2023-10-09T12:24:28Z</time>
      </trkpt>
      <trkpt lat="43.66075" lon="6.17421">
        <ele>616.7</ele>
        <time>2023-10-09T12:24:29Z</time>
      </trkpt>
      <trkpt lat="43.66075" lon="6.17421">
        <ele>616.7</ele>
        <time>2023-10-09T12:24:30Z</time>
      </trkpt>
      <trkpt lat="43.66075" lon="6.17421">
        <ele>616.7</ele>
        <time>2023-10-09T12:24:31Z</time>
      </trkpt>
      <trkpt lat="43.66075" lon="6.17421">
        <ele>616.7</ele>
        <time>2023-10-09T12:24:32Z</time>
      </trkpt>
      <trkpt lat="43.66075" lon="6.17421">
        <ele>616.7</ele>
        <time>2023-10-09T12:24:33Z</time>
      </trkpt>
      <trkpt lat="43.66075" lon="6.17421">
        <ele>616.7</ele>
        <time>2023-10-09T12:24:34Z</time>
      </trkpt>
      <trkpt lat="43.66075" lon="6.17421">
        <ele>616.7</ele>
        <time>2023-10-09T12:24:35Z</time>
      </trkpt>
      <trkpt lat="43.66075" lon="6.17421">
        <ele>616.7</ele>
        <time>2023-10-09T12:24:36Z</time>
      </trkpt>
      <trkpt lat="43.66075" lon="6.17421">
        <ele>616.7</ele>
        <time>2023-10-09T12:24:37Z</time>
      </trkpt>
      <trkpt lat="43.66075" lon="6.17421">
        <ele>616.7</ele>
        <time>2023-10-09T12:24:38Z</time>
      </trkpt>
      <trkpt lat="43.66075" lon="6.17421">
        <ele>616.7</ele>
        <time>2023-10-09T12:24:39Z</time>
      </trkpt>
      <trkpt lat="43.66075" lon="6.17421">
        <ele>616.7</ele>
        <time>2023-10-09T12:24:40Z</time>
      </trkpt>
      <trkpt lat="43.66075" lon="6.17421">
        <ele>616.7</ele>
        <time>2023-10-09T12:24:41Z</time>
      </trkpt>
      <trkpt lat="43.66075" lon="6.17421">
        <ele>616.7</ele>
        <time>2023-10-09T12:24:42Z</time>
      </trkpt>
      <trkpt lat="43.66075" lon="6.17421">
        <ele>616.7</ele>
        <time>2023-10-09T12:24:43Z</time>
      </trkpt>
      <trkpt lat="43.66075" lon="6.17421">
        <ele>616.7</ele>
        <time>2023-10-09T12:24:44Z</time>
      </trkpt>
      <trkpt lat="43.66075" lon="6.17421">
        <ele>616.7</ele>
        <time>2023-10-09T12:24:45Z</time>
      </trkpt>
      <trkpt lat="43.66075" lon="6.17421">
        <ele>616.7</ele>
        <time>2023-10-09T12:24:46Z</time>
      </trkpt>
      <trkpt lat="43.66075" lon="6.17421">
        <ele>616.7</ele>
        <time>2023-10-09T12:24:47Z</time>
      </trkpt>
      <trkpt lat="43.66075" lon="6.17421">
        <ele>616.7</ele>
        <time>2023-10-09T12:24:48Z</time>
      </trkpt>
      <trkpt lat="43.66075" lon="6.17421">
        <ele>616.7</ele>
        <time>2023-10-09T12:24:49Z</time>
      </trkpt>
      <trkpt lat="43.66075" lon="6.17421">
        <ele>616.7</ele>
        <time>2023-10-09T12:24:50Z</time>
      </trkpt>
      <trkpt lat="43.66075" lon="6.17421">
        <ele>616.7</ele>
        <time>2023-10-09T12:24:51Z</time>
      </trkpt>
      <trkpt lat="43.66075" lon="6.17421">
        <ele>616.7</ele>
        <time>2023-10-09T12:24:52Z</time>
      </trkpt>
      <trkpt lat="43.66075" lon="6.17421">
        <ele>616.7</ele>
        <time>2023-10-09T12:24:53Z</time>
      </trkpt>
      <trkpt lat="43.66075" lon="6.17421">
        <ele>616.7</ele>
        <time>2023-10-09T12:24:54Z</time>
      </trkpt>
      <trkpt lat="43.66075" lon="6.17421">
        <ele>616.7</ele>
        <time>2023-10-09T12:24:55Z</time>
      </trkpt>
      <trkpt lat="43.66075" lon="6.17421">
        <ele>616.7</ele>
        <time>2023-10-09T12:24:56Z</time>
      </trkpt>
      <trkpt lat="43.66075" lon="6.17421">
        <ele>616.7</ele>
        <time>2023-10-09T12:24:57Z</time>
      </trkpt>
      <trkpt lat="43.66075" lon="6.17421">
        <ele>616.7</ele>
        <time>2023-10-09T12:24:58Z</time>
      </trkpt>
      <trkpt lat="43.66075" lon="6.17421">
        <ele>616.7</ele>
        <time>2023-10-09T12:24:59Z</time>
      </trkpt>
      <trkpt lat="43.66075" lon="6.17421">
        <ele>616.7</ele>
        <time>2023-10-09T12:25:00Z</time>
      </trkpt>
      <trkpt lat="43.66075" lon="6.17421">
        <ele>616.7</ele>
        <time>2023-10-09T12:25:01Z</time>
      </trkpt>
      <trkpt lat="43.66075" lon="6.17421">
        <ele>616.7</ele>
        <time>2023-10-09T12:25:02Z</time>
      </trkpt>
      <trkpt lat="43.66075" lon="6.17421">
        <ele>616.7</ele>
        <time>2023-10-09T12:25:03Z</time>
      </trkpt>
      <trkpt lat="43.66075" lon="6.17421">
        <ele>616.7</ele>
        <time>2023-10-09T12:25:04Z</time>
      </trkpt>
      <trkpt lat="43.66075" lon="6.17421">
        <ele>616.7</ele>
        <time>2023-10-09T12:25:05Z</time>
      </trkpt>
      <trkpt lat="43.66075" lon="6.17421">
        <ele>616.7</ele>
        <time>2023-10-09T12:25:06Z</time>
      </trkpt>
      <trkpt lat="43.66075" lon="6.17421">
        <ele>616.7</ele>
        <time>2023-10-09T12:25:07Z</time>
      </trkpt>
      <trkpt lat="43.66075" lon="6.17421">
        <ele>616.7</ele>
        <time>2023-10-09T12:25:08Z</time>
      </trkpt>
      <trkpt lat="43.66075" lon="6.17421">
        <ele>616.7</ele>
        <time>2023-10-09T12:25:09Z</time>
      </trkpt>
      <trkpt lat="43.66076" lon="6.1742">
        <ele>616.8</ele>
        <time>2023-10-09T12:25:10Z</time>
      </trkpt>
      <trkpt lat="43.66076" lon="6.1742">
        <ele>616.8</ele>
        <time>2023-10-09T12:25:11Z</time>
      </trkpt>
      <trkpt lat="43.66077" lon="6.17418">
        <ele>616.8</ele>
        <time>2023-10-09T12:25:12Z</time>
      </trkpt>
      <trkpt lat="43.66078" lon="6.17418">
        <ele>616.8</ele>
        <time>2023-10-09T12:25:13Z</time>
      </trkpt>
      <trkpt lat="43.66078" lon="6.17417">
        <ele>616.8</ele>
        <time>2023-10-09T12:25:14Z</time>
      </trkpt>
      <trkpt lat="43.66079" lon="6.17416">
        <ele>616.8</ele>
        <time>2023-10-09T12:25:15Z</time>
      </trkpt>
      <trkpt lat="43.6608" lon="6.17415">
        <ele>616.9</ele>
        <time>2023-10-09T12:25:16Z</time>
      </trkpt>
      <trkpt lat="43.66081" lon="6.17414">
        <ele>616.9</ele>
        <time>2023-10-09T12:25:17Z</time>
      </trkpt>
      <trkpt lat="43.66082" lon="6.17411">
        <ele>617</ele>
        <time>2023-10-09T12:25:18Z</time>
      </trkpt>
      <trkpt lat="43.66082" lon="6.1741">
        <ele>617</ele>
        <time>2023-10-09T12:25:19Z</time>
      </trkpt>
      <trkpt lat="43.66083" lon="6.17409">
        <ele>617</ele>
        <time>2023-10-09T12:25:20Z</time>
      </trkpt>
      <trkpt lat="43.66084" lon="6.17408">
        <ele>617</ele>
        <time>2023-10-09T12:25:21Z</time>
      </trkpt>
      <trkpt lat="43.66084" lon="6.17407">
        <ele>617</ele>
        <time>2023-10-09T12:25:22Z</time>
      </trkpt>
      <trkpt lat="43.66085" lon="6.17406">
        <ele>617.1</ele>
        <time>2023-10-09T12:25:23Z</time>
      </trkpt>
      <trkpt lat="43.66086" lon="6.17405">
        <ele>617.1</ele>
        <time>2023-10-09T12:25:24Z</time>
      </trkpt>
      <trkpt lat="43.66087" lon="6.17405">
        <ele>617.1</ele>
        <time>2023-10-09T12:25:25Z</time>
      </trkpt>
      <trkpt lat="43.66088" lon="6.17404">
        <ele>617.2</ele>
        <time>2023-10-09T12:25:26Z</time>
      </trkpt>
      <trkpt lat="43.66089" lon="6.17403">
        <ele>617.2</ele>
        <time>2023-10-09T12:25:27Z</time>
      </trkpt>
      <trkpt lat="43.66089" lon="6.17403">
        <ele>617.2</ele>
        <time>2023-10-09T12:25:28Z</time>
      </trkpt>
      <trkpt lat="43.6609" lon="6.17402">
        <ele>617.2</ele>
        <time>2023-10-09T12:25:29Z</time>
      </trkpt>
      <trkpt lat="43.66091" lon="6.17401">
        <ele>617.3</ele>
        <time>2023-10-09T12:25:30Z</time>
      </trkpt>
      <trkpt lat="43.66093" lon="6.174">
        <ele>617.3</ele>
        <time>2023-10-09T12:25:31Z</time>
      </trkpt>
      <trkpt lat="43.66093" lon="6.17399">
        <ele>617.3</ele>
        <time>2023-10-09T12:25:32Z</time>
      </trkpt>
      <trkpt lat="43.66094" lon="6.17398">
        <ele>617.4</ele>
        <time>2023-10-09T12:25:33Z</time>
      </trkpt>
      <trkpt lat="43.66095" lon="6.17397">
        <ele>617.4</ele>
        <time>2023-10-09T12:25:34Z</time>
      </trkpt>
      <trkpt lat="43.66096" lon="6.17397">
        <ele>617.5</ele>
        <time>2023-10-09T12:25:35Z</time>
      </trkpt>
      <trkpt lat="43.66097" lon="6.17396">
        <ele>617.5</ele>
        <time>2023-10-09T12:25:36Z</time>
      </trkpt>
      <trkpt lat="43.66097" lon="6.17395">
        <ele>617.5</ele>
        <time>2023-10-09T12:25:37Z</time>
      </trkpt>
      <trkpt lat="43.66098" lon="6.17394">
        <ele>617.5</ele>
        <time>2023-10-09T12:25:38Z</time>
      </trkpt>
      <trkpt lat="43.66098" lon="6.17393">
        <ele>617.5</ele>
        <time>2023-10-09T12:25:39Z</time>
      </trkpt>
      <trkpt lat="43.66099" lon="6.17392">
        <ele>617.6</ele>
        <time>2023-10-09T12:25:40Z</time>
      </trkpt>
      <trkpt lat="43.661" lon="6.17392">
        <ele>617.6</ele>
        <time>2023-10-09T12:25:41Z</time>
      </trkpt>
      <trkpt lat="43.66101" lon="6.17391">
        <ele>617.6</ele>
        <time>2023-10-09T12:25:42Z</time>
      </trkpt>
      <trkpt lat="43.66101" lon="6.17391">
        <ele>617.6</ele>
        <time>2023-10-09T12:25:43Z</time>
      </trkpt>
      <trkpt lat="43.66102" lon="6.1739">
        <ele>617.7</ele>
        <time>2023-10-09T12:25:44Z</time>
      </trkpt>
      <trkpt lat="43.66103" lon="6.17389">
        <ele>617.7</ele>
        <time>2023-10-09T12:25:45Z</time>
      </trkpt>
      <trkpt lat="43.66104" lon="6.17389">
        <ele>617.7</ele>
        <time>2023-10-09T12:25:46Z</time>
      </trkpt>
      <trkpt lat="43.66105" lon="6.17388">
        <ele>617.7</ele>
        <time>2023-10-09T12:25:47Z</time>
      </trkpt>
      <trkpt lat="43.66106" lon="6.17387">
        <ele>617.7</ele>
        <time>2023-10-09T12:25:48Z</time>
      </trkpt>
      <trkpt lat="43.66107" lon="6.17386">
        <ele>617.7</ele>
        <time>2023-10-09T12:25:49Z</time>
      </trkpt>
      <trkpt lat="43.66107" lon="6.17385">
        <ele>617.7</ele>
        <time>2023-10-09T12:25:50Z</time>
      </trkpt>
      <trkpt lat="43.66108" lon="6.17384">
        <ele>617.7</ele>
        <time>2023-10-09T12:25:51Z</time>
      </trkpt>
      <trkpt lat="43.66109" lon="6.17384">
        <ele>617.7</ele>
        <time>2023-10-09T12:25:52Z</time>
      </trkpt>
      <trkpt lat="43.66109" lon="6.17383">
        <ele>617.7</ele>
        <time>2023-10-09T12:25:53Z</time>
      </trkpt>
      <trkpt lat="43.6611" lon="6.17382">
        <ele>617.7</ele>
        <time>2023-10-09T12:25:54Z</time>
      </trkpt>
      <trkpt lat="43.66111" lon="6.17382">
        <ele>617.7</ele>
        <time>2023-10-09T12:25:55Z</time>
      </trkpt>
      <trkpt lat="43.66112" lon="6.17381">
        <ele>617.7</ele>
        <time>2023-10-09T12:25:56Z</time>
      </trkpt>
      <trkpt lat="43.66113" lon="6.1738">
        <ele>617.7</ele>
        <time>2023-10-09T12:25:57Z</time>
      </trkpt>
      <trkpt lat="43.66113" lon="6.17379">
        <ele>617.7</ele>
        <time>2023-10-09T12:25:58Z</time>
      </trkpt>
      <trkpt lat="43.66114" lon="6.17378">
        <ele>617.7</ele>
        <time>2023-10-09T12:25:59Z</time>
      </trkpt>
      <trkpt lat="43.66114" lon="6.17377">
        <ele>617.7</ele>
        <time>2023-10-09T12:26:00Z</time>
      </trkpt>
      <trkpt lat="43.66115" lon="6.17375">
        <ele>617.6</ele>
        <time>2023-10-09T12:26:01Z</time>
      </trkpt>
      <trkpt lat="43.66116" lon="6.17373">
        <ele>617.6</ele>
        <time>2023-10-09T12:26:02Z</time>
      </trkpt>
      <trkpt lat="43.66116" lon="6.17372">
        <ele>617.6</ele>
        <time>2023-10-09T12:26:03Z</time>
      </trkpt>
      <trkpt lat="43.66117" lon="6.17371">
        <ele>617.6</ele>
        <time>2023-10-09T12:26:04Z</time>
      </trkpt>
      <trkpt lat="43.66118" lon="6.1737">
        <ele>617.6</ele>
        <time>2023-10-09T12:26:05Z</time>
      </trkpt>
      <trkpt lat="43.66119" lon="6.17368">
        <ele>617.5</ele>
        <time>2023-10-09T12:26:06Z</time>
      </trkpt>
      <trkpt lat="43.66119" lon="6.17367">
        <ele>617.5</ele>
        <time>2023-10-09T12:26:07Z</time>
      </trkpt>
      <trkpt lat="43.6612" lon="6.17365">
        <ele>617.5</ele>
        <time>2023-10-09T12:26:08Z</time>
      </trkpt>
      <trkpt lat="43.66122" lon="6.17363">
        <ele>617.5</ele>
        <time>2023-10-09T12:26:09Z</time>
      </trkpt>
      <trkpt lat="43.66122" lon="6.17362">
        <ele>617.4</ele>
        <time>2023-10-09T12:26:10Z</time>
      </trkpt>
      <trkpt lat="43.66123" lon="6.17361">
        <ele>617.4</ele>
        <time>2023-10-09T12:26:11Z</time>
      </trkpt>
      <trkpt lat="43.66124" lon="6.17359">
        <ele>617.5</ele>
        <time>2023-10-09T12:26:12Z</time>
      </trkpt>
      <trkpt lat="43.66125" lon="6.17358">
        <ele>617.5</ele>
        <time>2023-10-09T12:26:13Z</time>
      </trkpt>
      <trkpt lat="43.66126" lon="6.17358">
        <ele>617.5</ele>
        <time>2023-10-09T12:26:14Z</time>
      </trkpt>
      <trkpt lat="43.66128" lon="6.17356">
        <ele>617.6</ele>
        <time>2023-10-09T12:26:15Z</time>
      </trkpt>
      <trkpt lat="43.66128" lon="6.17355">
        <ele>617.6</ele>
        <time>2023-10-09T12:26:16Z</time>
      </trkpt>
      <trkpt lat="43.66129" lon="6.17355">
        <ele>617.6</ele>
        <time>2023-10-09T12:26:17Z</time>
      </trkpt>
      <trkpt lat="43.66129" lon="6.17354">
        <ele>617.6</ele>
        <time>2023-10-09T12:26:18Z</time>
      </trkpt>
      <trkpt lat="43.6613" lon="6.17353">
        <ele>617.7</ele>
        <time>2023-10-09T12:26:19Z</time>
      </trkpt>
      <trkpt lat="43.66131" lon="6.17352">
        <ele>617.7</ele>
        <time>2023-10-09T12:26:20Z</time>
      </trkpt>
      <trkpt lat="43.66132" lon="6.17351">
        <ele>617.8</ele>
        <time>2023-10-09T12:26:21Z</time>
      </trkpt>
      <trkpt lat="43.66133" lon="6.1735">
        <ele>617.8</ele>
        <time>2023-10-09T12:26:22Z</time>
      </trkpt>
      <trkpt lat="43.66134" lon="6.17349">
        <ele>617.8</ele>
        <time>2023-10-09T12:26:23Z</time>
      </trkpt>
      <trkpt lat="43.66136" lon="6.17348">
        <ele>617.9</ele>
        <time>2023-10-09T12:26:24Z</time>
      </trkpt>
      <trkpt lat="43.66136" lon="6.17347">
        <ele>617.9</ele>
        <time>2023-10-09T12:26:25Z</time>
      </trkpt>
      <trkpt lat="43.66137" lon="6.17346">
        <ele>617.9</ele>
        <time>2023-10-09T12:26:26Z</time>
      </trkpt>
      <trkpt lat="43.66138" lon="6.17345">
        <ele>618</ele>
        <time>2023-10-09T12:26:27Z</time>
      </trkpt>
      <trkpt lat="43.66139" lon="6.17344">
        <ele>618</ele>
        <time>2023-10-09T12:26:28Z</time>
      </trkpt>
      <trkpt lat="43.6614" lon="6.17343">
        <ele>618</ele>
        <time>2023-10-09T12:26:29Z</time>
      </trkpt>
      <trkpt lat="43.66141" lon="6.17341">
        <ele>618.1</ele>
        <time>2023-10-09T12:26:30Z</time>
      </trkpt>
      <trkpt lat="43.66142" lon="6.1734">
        <ele>618.1</ele>
        <time>2023-10-09T12:26:31Z</time>
      </trkpt>
      <trkpt lat="43.66142" lon="6.17339">
        <ele>618.1</ele>
        <time>2023-10-09T12:26:32Z</time>
      </trkpt>
      <trkpt lat="43.66143" lon="6.17338">
        <ele>618.1</ele>
        <time>2023-10-09T12:26:33Z</time>
      </trkpt>
      <trkpt lat="43.66144" lon="6.17337">
        <ele>618.2</ele>
        <time>2023-10-09T12:26:34Z</time>
      </trkpt>
      <trkpt lat="43.66144" lon="6.17336">
        <ele>618.2</ele>
        <time>2023-10-09T12:26:35Z</time>
      </trkpt>
      <trkpt lat="43.66145" lon="6.17335">
        <ele>618.2</ele>
        <time>2023-10-09T12:26:36Z</time>
      </trkpt>
      <trkpt lat="43.66146" lon="6.17335">
        <ele>618.3</ele>
        <time>2023-10-09T12:26:37Z</time>
      </trkpt>
      <trkpt lat="43.66147" lon="6.17334">
        <ele>618.3</ele>
        <time>2023-10-09T12:26:38Z</time>
      </trkpt>
      <trkpt lat="43.66148" lon="6.17334">
        <ele>618.3</ele>
        <time>2023-10-09T12:26:39Z</time>
      </trkpt>
      <trkpt lat="43.66149" lon="6.17333">
        <ele>618.4</ele>
        <time>2023-10-09T12:26:40Z</time>
      </trkpt>
      <trkpt lat="43.66149" lon="6.17331">
        <ele>618.3</ele>
        <time>2023-10-09T12:26:41Z</time>
      </trkpt>
      <trkpt lat="43.6615" lon="6.1733">
        <ele>618.3</ele>
        <time>2023-10-09T12:26:42Z</time>
      </trkpt>
      <trkpt lat="43.66152" lon="6.17328">
        <ele>618.3</ele>
        <time>2023-10-09T12:26:43Z</time>
      </trkpt>
      <trkpt lat="43.66152" lon="6.17327">
        <ele>618.2</ele>
        <time>2023-10-09T12:26:44Z</time>
      </trkpt>
      <trkpt lat="43.66153" lon="6.17326">
        <ele>618.2</ele>
        <time>2023-10-09T12:26:45Z</time>
      </trkpt>
      <trkpt lat="43.66153" lon="6.17325">
        <ele>618.2</ele>
        <time>2023-10-09T12:26:46Z</time>
      </trkpt>
      <trkpt lat="43.66154" lon="6.17324">
        <ele>618.2</ele>
        <time>2023-10-09T12:26:47Z</time>
      </trkpt>
      <trkpt lat="43.66155" lon="6.17323">
        <ele>618.2</ele>
        <time>2023-10-09T12:26:48Z</time>
      </trkpt>
      <trkpt lat="43.66157" lon="6.17322">
        <ele>618.2</ele>
        <time>2023-10-09T12:26:49Z</time>
      </trkpt>
      <trkpt lat="43.66158" lon="6.17322">
        <ele>618.3</ele>
        <time>2023-10-09T12:26:50Z</time>
      </trkpt>
      <trkpt lat="43.66159" lon="6.17321">
        <ele>618.3</ele>
        <time>2023-10-09T12:26:51Z</time>
      </trkpt>
      <trkpt lat="43.6616" lon="6.17321">
        <ele>618.3</ele>
        <time>2023-10-09T12:26:52Z</time>
      </trkpt>
      <trkpt lat="43.66161" lon="6.17319">
        <ele>618.3</ele>
        <time>2023-10-09T12:26:53Z</time>
      </trkpt>
      <trkpt lat="43.66161" lon="6.17318">
        <ele>618.2</ele>
        <time>2023-10-09T12:26:54Z</time>
      </trkpt>
      <trkpt lat="43.66162" lon="6.17316">
        <ele>618.2</ele>
        <time>2023-10-09T12:26:55Z</time>
      </trkpt>
      <trkpt lat="43.66163" lon="6.17315">
        <ele>618.2</ele>
        <time>2023-10-09T12:26:56Z</time>
      </trkpt>
      <trkpt lat="43.66163" lon="6.17314">
        <ele>618.2</ele>
        <time>2023-10-09T12:26:57Z</time>
      </trkpt>
      <trkpt lat="43.66164" lon="6.17311">
        <ele>618.1</ele>
        <time>2023-10-09T12:26:58Z</time>
      </trkpt>
      <trkpt lat="43.66165" lon="6.1731">
        <ele>618.1</ele>
        <time>2023-10-09T12:26:59Z</time>
      </trkpt>
      <trkpt lat="43.66165" lon="6.17309">
        <ele>618.1</ele>
        <time>2023-10-09T12:27:00Z</time>
      </trkpt>
      <trkpt lat="43.66165" lon="6.17308">
        <ele>618</ele>
        <time>2023-10-09T12:27:01Z</time>
      </trkpt>
      <trkpt lat="43.66166" lon="6.17306">
        <ele>618</ele>
        <time>2023-10-09T12:27:02Z</time>
      </trkpt>
      <trkpt lat="43.66167" lon="6.17305">
        <ele>618</ele>
        <time>2023-10-09T12:27:03Z</time>
      </trkpt>
      <trkpt lat="43.66168" lon="6.17304">
        <ele>618</ele>
        <time>2023-10-09T12:27:04Z</time>
      </trkpt>
      <trkpt lat="43.66169" lon="6.17303">
        <ele>618.1</ele>
        <time>2023-10-09T12:27:05Z</time>
      </trkpt>
      <trkpt lat="43.6617" lon="6.17303">
        <ele>618.1</ele>
        <time>2023-10-09T12:27:06Z</time>
      </trkpt>
      <trkpt lat="43.66171" lon="6.17302">
        <ele>618.2</ele>
        <time>2023-10-09T12:27:07Z</time>
      </trkpt>
      <trkpt lat="43.66172" lon="6.17302">
        <ele>618.2</ele>
        <time>2023-10-09T12:27:08Z</time>
      </trkpt>
      <trkpt lat="43.66173" lon="6.173">
        <ele>618.2</ele>
        <time>2023-10-09T12:27:09Z</time>
      </trkpt>
      <trkpt lat="43.66174" lon="6.173">
        <ele>618.3</ele>
        <time>2023-10-09T12:27:10Z</time>
      </trkpt>
      <trkpt lat="43.66175" lon="6.17299">
        <ele>618.3</ele>
        <time>2023-10-09T12:27:11Z</time>
      </trkpt>
      <trkpt lat="43.66176" lon="6.17298">
        <ele>618.3</ele>
        <time>2023-10-09T12:27:12Z</time>
      </trkpt>
      <trkpt lat="43.66178" lon="6.17297">
        <ele>618.4</ele>
        <time>2023-10-09T12:27:13Z</time>
      </trkpt>
      <trkpt lat="43.66179" lon="6.17296">
        <ele>618.4</ele>
        <time>2023-10-09T12:27:14Z</time>
      </trkpt>
      <trkpt lat="43.6618" lon="6.17295">
        <ele>618.4</ele>
        <time>2023-10-09T12:27:15Z</time>
      </trkpt>
      <trkpt lat="43.66181" lon="6.17294">
        <ele>618.4</ele>
        <time>2023-10-09T12:27:16Z</time>
      </trkpt>
      <trkpt lat="43.66182" lon="6.17293">
        <ele>618.4</ele>
        <time>2023-10-09T12:27:17Z</time>
      </trkpt>
      <trkpt lat="43.66184" lon="6.17292">
        <ele>618.5</ele>
        <time>2023-10-09T12:27:18Z</time>
      </trkpt>
      <trkpt lat="43.66186" lon="6.17291">
        <ele>618.5</ele>
        <time>2023-10-09T12:27:19Z</time>
      </trkpt>
      <trkpt lat="43.66187" lon="6.17291">
        <ele>618.6</ele>
        <time>2023-10-09T12:27:20Z</time>
      </trkpt>
      <trkpt lat="43.66188" lon="6.1729">
        <ele>618.5</ele>
        <time>2023-10-09T12:27:21Z</time>
      </trkpt>
      <trkpt lat="43.66189" lon="6.17289">
        <ele>618.5</ele>
        <time>2023-10-09T12:27:22Z</time>
      </trkpt>
      <trkpt lat="43.6619" lon="6.17289">
        <ele>618.6</ele>
        <time>2023-10-09T12:27:23Z</time>
      </trkpt>
      <trkpt lat="43.66191" lon="6.17288">
        <ele>618.6</ele>
        <time>2023-10-09T12:27:24Z</time>
      </trkpt>
      <trkpt lat="43.66192" lon="6.17287">
        <ele>618.5</ele>
        <time>2023-10-09T12:27:25Z</time>
      </trkpt>
      <trkpt lat="43.66193" lon="6.17286">
        <ele>618.5</ele>
        <time>2023-10-09T12:27:26Z</time>
      </trkpt>
      <trkpt lat="43.66194" lon="6.17285">
        <ele>618.5</ele>
        <time>2023-10-09T12:27:27Z</time>
      </trkpt>
      <trkpt lat="43.66194" lon="6.17284">
        <ele>618.4</ele>
        <time>2023-10-09T12:27:28Z</time>
      </trkpt>
      <trkpt lat="43.66195" lon="6.17283">
        <ele>618.4</ele>
        <time>2023-10-09T12:27:29Z</time>
      </trkpt>
      <trkpt lat="43.66196" lon="6.17281">
        <ele>618.3</ele>
        <time>2023-10-09T12:27:30Z</time>
      </trkpt>
      <trkpt lat="43.66197" lon="6.1728">
        <ele>618.3</ele>
        <time>2023-10-09T12:27:31Z</time>
      </trkpt>
      <trkpt lat="43.66197" lon="6.17279">
        <ele>618.3</ele>
        <time>2023-10-09T12:27:32Z</time>
      </trkpt>
      <trkpt lat="43.66198" lon="6.17278">
        <ele>618.3</ele>
        <time>2023-10-09T12:27:33Z</time>
      </trkpt>
      <trkpt lat="43.66199" lon="6.17278">
        <ele>618.3</ele>
        <time>2023-10-09T12:27:34Z</time>
      </trkpt>
      <trkpt lat="43.66199" lon="6.17277">
        <ele>618.3</ele>
        <time>2023-10-09T12:27:35Z</time>
      </trkpt>
      <trkpt lat="43.662" lon="6.17276">
        <ele>618.4</ele>
        <time>2023-10-09T12:27:36Z</time>
      </trkpt>
      <trkpt lat="43.662" lon="6.17276">
        <ele>618.4</ele>
        <time>2023-10-09T12:27:37Z</time>
      </trkpt>
      <trkpt lat="43.66201" lon="6.17275">
        <ele>618.4</ele>
        <time>2023-10-09T12:27:38Z</time>
      </trkpt>
      <trkpt lat="43.66202" lon="6.17274">
        <ele>618.5</ele>
        <time>2023-10-09T12:27:39Z</time>
      </trkpt>
      <trkpt lat="43.66203" lon="6.17274">
        <ele>618.6</ele>
        <time>2023-10-09T12:27:40Z</time>
      </trkpt>
      <trkpt lat="43.66204" lon="6.17274">
        <ele>618.6</ele>
        <time>2023-10-09T12:27:41Z</time>
      </trkpt>
      <trkpt lat="43.66205" lon="6.17273">
        <ele>618.7</ele>
        <time>2023-10-09T12:27:42Z</time>
      </trkpt>
      <trkpt lat="43.66206" lon="6.17272">
        <ele>618.7</ele>
        <time>2023-10-09T12:27:43Z</time>
      </trkpt>
      <trkpt lat="43.66207" lon="6.17271">
        <ele>618.8</ele>
        <time>2023-10-09T12:27:44Z</time>
      </trkpt>
      <trkpt lat="43.66208" lon="6.1727">
        <ele>618.8</ele>
        <time>2023-10-09T12:27:45Z</time>
      </trkpt>
      <trkpt lat="43.6621" lon="6.17269">
        <ele>618.9</ele>
        <time>2023-10-09T12:27:46Z</time>
      </trkpt>
      <trkpt lat="43.66211" lon="6.17268">
        <ele>619</ele>
        <time>2023-10-09T12:27:47Z</time>
      </trkpt>
      <trkpt lat="43.66212" lon="6.17266">
        <ele>619</ele>
        <time>2023-10-09T12:27:48Z</time>
      </trkpt>
      <trkpt lat="43.66212" lon="6.17266">
        <ele>619</ele>
        <time>2023-10-09T12:27:49Z</time>
      </trkpt>
      <trkpt lat="43.66213" lon="6.17265">
        <ele>619</ele>
        <time>2023-10-09T12:27:50Z</time>
      </trkpt>
      <trkpt lat="43.66215" lon="6.17264">
        <ele>619.1</ele>
        <time>2023-10-09T12:27:51Z</time>
      </trkpt>
      <trkpt lat="43.66215" lon="6.17264">
        <ele>619.1</ele>
        <time>2023-10-09T12:27:52Z</time>
      </trkpt>
      <trkpt lat="43.66216" lon="6.17263">
        <ele>619.1</ele>
        <time>2023-10-09T12:27:53Z</time>
      </trkpt>
      <trkpt lat="43.66217" lon="6.17262">
        <ele>619.2</ele>
        <time>2023-10-09T12:27:54Z</time>
      </trkpt>
      <trkpt lat="43.66218" lon="6.17261">
        <ele>619.2</ele>
        <time>2023-10-09T12:27:55Z</time>
      </trkpt>
      <trkpt lat="43.66219" lon="6.1726">
        <ele>619.2</ele>
        <time>2023-10-09T12:27:56Z</time>
      </trkpt>
      <trkpt lat="43.66221" lon="6.1726">
        <ele>619.3</ele>
        <time>2023-10-09T12:27:57Z</time>
      </trkpt>
      <trkpt lat="43.66221" lon="6.1726">
        <ele>619.3</ele>
        <time>2023-10-09T12:27:58Z</time>
      </trkpt>
      <trkpt lat="43.66222" lon="6.1726">
        <ele>619.3</ele>
        <time>2023-10-09T12:27:59Z</time>
      </trkpt>
      <trkpt lat="43.66223" lon="6.17259">
        <ele>619.4</ele>
        <time>2023-10-09T12:28:00Z</time>
      </trkpt>
      <trkpt lat="43.66224" lon="6.17259">
        <ele>619.4</ele>
        <time>2023-10-09T12:28:01Z</time>
      </trkpt>
      <trkpt lat="43.66226" lon="6.17258">
        <ele>619.5</ele>
        <time>2023-10-09T12:28:02Z</time>
      </trkpt>
      <trkpt lat="43.66227" lon="6.17258">
        <ele>619.6</ele>
        <time>2023-10-09T12:28:03Z</time>
      </trkpt>
      <trkpt lat="43.66227" lon="6.17257">
        <ele>619.6</ele>
        <time>2023-10-09T12:28:04Z</time>
      </trkpt>
      <trkpt lat="43.66228" lon="6.17256">
        <ele>619.6</ele>
        <time>2023-10-09T12:28:05Z</time>
      </trkpt>
      <trkpt lat="43.66229" lon="6.17255">
        <ele>619.6</ele>
        <time>2023-10-09T12:28:06Z</time>
      </trkpt>
      <trkpt lat="43.6623" lon="6.17254">
        <ele>619.7</ele>
        <time>2023-10-09T12:28:07Z</time>
      </trkpt>
      <trkpt lat="43.66231" lon="6.17253">
        <ele>619.7</ele>
        <time>2023-10-09T12:28:08Z</time>
      </trkpt>
      <trkpt lat="43.66231" lon="6.17252">
        <ele>619.7</ele>
        <time>2023-10-09T12:28:09Z</time>
      </trkpt>
      <trkpt lat="43.66232" lon="6.17251">
        <ele>619.7</ele>
        <time>2023-10-09T12:28:10Z</time>
      </trkpt>
      <trkpt lat="43.66233" lon="6.1725">
        <ele>619.8</ele>
        <time>2023-10-09T12:28:11Z</time>
      </trkpt>
      <trkpt lat="43.66235" lon="6.17249">
        <ele>619.9</ele>
        <time>2023-10-09T12:28:12Z</time>
      </trkpt>
      <trkpt lat="43.66236" lon="6.17248">
        <ele>619.9</ele>
        <time>2023-10-09T12:28:13Z</time>
      </trkpt>
      <trkpt lat="43.66237" lon="6.17248">
        <ele>620</ele>
        <time>2023-10-09T12:28:14Z</time>
      </trkpt>
      <trkpt lat="43.66238" lon="6.17247">
        <ele>620</ele>
        <time>2023-10-09T12:28:15Z</time>
      </trkpt>
      <trkpt lat="43.66239" lon="6.17246">
        <ele>620</ele>
        <time>2023-10-09T12:28:16Z</time>
      </trkpt>
      <trkpt lat="43.6624" lon="6.17245">
        <ele>620</ele>
        <time>2023-10-09T12:28:17Z</time>
      </trkpt>
      <trkpt lat="43.6624" lon="6.17244">
        <ele>619.9</ele>
        <time>2023-10-09T12:28:18Z</time>
      </trkpt>
      <trkpt lat="43.66242" lon="6.17243">
        <ele>620</ele>
        <time>2023-10-09T12:28:19Z</time>
      </trkpt>
      <trkpt lat="43.66243" lon="6.17243">
        <ele>620.1</ele>
        <time>2023-10-09T12:28:20Z</time>
      </trkpt>
      <trkpt lat="43.66243" lon="6.17243">
        <ele>620.1</ele>
        <time>2023-10-09T12:28:21Z</time>
      </trkpt>
      <trkpt lat="43.66244" lon="6.17242">
        <ele>620.1</ele>
        <time>2023-10-09T12:28:22Z</time>
      </trkpt>
      <trkpt lat="43.66245" lon="6.17241">
        <ele>620.1</ele>
        <time>2023-10-09T12:28:23Z</time>
      </trkpt>
      <trkpt lat="43.66246" lon="6.17241">
        <ele>620.1</ele>
        <time>2023-10-09T12:28:24Z</time>
      </trkpt>
      <trkpt lat="43.66247" lon="6.1724">
        <ele>620.1</ele>
        <time>2023-10-09T12:28:25Z</time>
      </trkpt>
      <trkpt lat="43.66248" lon="6.17239">
        <ele>620.1</ele>
        <time>2023-10-09T12:28:26Z</time>
      </trkpt>
      <trkpt lat="43.6625" lon="6.17238">
        <ele>620.1</ele>
        <time>2023-10-09T12:28:27Z</time>
      </trkpt>
      <trkpt lat="43.66252" lon="6.17237">
        <ele>620.1</ele>
        <time>2023-10-09T12:28:28Z</time>
      </trkpt>
      <trkpt lat="43.66252" lon="6.17237">
        <ele>620.1</ele>
        <time>2023-10-09T12:28:29Z</time>
      </trkpt>
      <trkpt lat="43.66253" lon="6.17236">
        <ele>620</ele>
        <time>2023-10-09T12:28:30Z</time>
      </trkpt>
      <trkpt lat="43.66255" lon="6.17235">
        <ele>620</ele>
        <time>2023-10-09T12:28:31Z</time>
      </trkpt>
      <trkpt lat="43.66256" lon="6.17234">
        <ele>620</ele>
        <time>2023-10-09T12:28:32Z</time>
      </trkpt>
      <trkpt lat="43.66256" lon="6.17233">
        <ele>619.9</ele>
        <time>2023-10-09T12:28:33Z</time>
      </trkpt>
      <trkpt lat="43.66258" lon="6.17232">
        <ele>619.9</ele>
        <time>2023-10-09T12:28:34Z</time>
      </trkpt>
      <trkpt lat="43.66259" lon="6.17231">
        <ele>619.9</ele>
        <time>2023-10-09T12:28:35Z</time>
      </trkpt>
      <trkpt lat="43.66261" lon="6.17231">
        <ele>619.9</ele>
        <time>2023-10-09T12:28:36Z</time>
      </trkpt>
      <trkpt lat="43.66262" lon="6.1723">
        <ele>619.9</ele>
        <time>2023-10-09T12:28:37Z</time>
      </trkpt>
      <trkpt lat="43.66262" lon="6.17229">
        <ele>619.8</ele>
        <time>2023-10-09T12:28:38Z</time>
      </trkpt>
      <trkpt lat="43.66263" lon="6.17228">
        <ele>619.8</ele>
        <time>2023-10-09T12:28:39Z</time>
      </trkpt>
      <trkpt lat="43.66264" lon="6.17227">
        <ele>619.8</ele>
        <time>2023-10-09T12:28:40Z</time>
      </trkpt>
      <trkpt lat="43.66265" lon="6.17227">
        <ele>619.8</ele>
        <time>2023-10-09T12:28:41Z</time>
      </trkpt>
      <trkpt lat="43.66267" lon="6.17225">
        <ele>619.8</ele>
        <time>2023-10-09T12:28:42Z</time>
      </trkpt>
      <trkpt lat="43.66268" lon="6.17225">
        <ele>619.8</ele>
        <time>2023-10-09T12:28:43Z</time>
      </trkpt>
      <trkpt lat="43.66269" lon="6.17224">
        <ele>619.8</ele>
        <time>2023-10-09T12:28:44Z</time>
      </trkpt>
      <trkpt lat="43.66271" lon="6.17223">
        <ele>619.8</ele>
        <time>2023-10-09T12:28:45Z</time>
      </trkpt>
      <trkpt lat="43.66271" lon="6.17222">
        <ele>619.7</ele>
        <time>2023-10-09T12:28:46Z</time>
      </trkpt>
      <trkpt lat="43.66272" lon="6.17221">
        <ele>619.7</ele>
        <time>2023-10-09T12:28:47Z</time>
      </trkpt>
      <trkpt lat="43.66273" lon="6.1722">
        <ele>619.7</ele>
        <time>2023-10-09T12:28:48Z</time>
      </trkpt>
      <trkpt lat="43.66274" lon="6.1722">
        <ele>619.8</ele>
        <time>2023-10-09T12:28:49Z</time>
      </trkpt>
      <trkpt lat="43.66275" lon="6.17219">
        <ele>619.8</ele>
        <time>2023-10-09T12:28:50Z</time>
      </trkpt>
      <trkpt lat="43.66276" lon="6.17218">
        <ele>619.8</ele>
        <time>2023-10-09T12:28:51Z</time>
      </trkpt>
      <trkpt lat="43.66277" lon="6.17217">
        <ele>619.8</ele>
        <time>2023-10-09T12:28:52Z</time>
      </trkpt>
      <trkpt lat="43.66277" lon="6.17216">
        <ele>619.7</ele>
        <time>2023-10-09T12:28:53Z</time>
      </trkpt>
      <trkpt lat="43.66278" lon="6.17216">
        <ele>619.8</ele>
        <time>2023-10-09T12:28:54Z</time>
      </trkpt>
      <trkpt lat="43.66279" lon="6.17215">
        <ele>619.8</ele>
        <time>2023-10-09T12:28:55Z</time>
      </trkpt>
      <trkpt lat="43.6628" lon="6.17214">
        <ele>619.9</ele>
        <time>2023-10-09T12:28:56Z</time>
      </trkpt>
      <trkpt lat="43.66282" lon="6.17213">
        <ele>620</ele>
        <time>2023-10-09T12:28:57Z</time>
      </trkpt>
      <trkpt lat="43.66283" lon="6.17213">
        <ele>620</ele>
        <time>2023-10-09T12:28:58Z</time>
      </trkpt>
      <trkpt lat="43.66284" lon="6.17212">
        <ele>620.1</ele>
        <time>2023-10-09T12:28:59Z</time>
      </trkpt>
      <trkpt lat="43.66285" lon="6.17212">
        <ele>620.2</ele>
        <time>2023-10-09T12:29:00Z</time>
      </trkpt>
      <trkpt lat="43.66286" lon="6.17211">
        <ele>620.2</ele>
        <time>2023-10-09T12:29:01Z</time>
      </trkpt>
      <trkpt lat="43.66287" lon="6.1721">
        <ele>620.2</ele>
        <time>2023-10-09T12:29:02Z</time>
      </trkpt>
      <trkpt lat="43.66288" lon="6.17209">
        <ele>620.3</ele>
        <time>2023-10-09T12:29:03Z</time>
      </trkpt>
      <trkpt lat="43.66289" lon="6.17208">
        <ele>620.3</ele>
        <time>2023-10-09T12:29:04Z</time>
      </trkpt>
      <trkpt lat="43.6629" lon="6.17208">
        <ele>620.4</ele>
        <time>2023-10-09T12:29:05Z</time>
      </trkpt>
      <trkpt lat="43.66292" lon="6.17206">
        <ele>620.4</ele>
        <time>2023-10-09T12:29:06Z</time>
      </trkpt>
      <trkpt lat="43.66292" lon="6.17205">
        <ele>620.4</ele>
        <time>2023-10-09T12:29:07Z</time>
      </trkpt>
      <trkpt lat="43.66293" lon="6.17204">
        <ele>620.4</ele>
        <time>2023-10-09T12:29:08Z</time>
      </trkpt>
      <trkpt lat="43.66294" lon="6.17203">
        <ele>620.5</ele>
        <time>2023-10-09T12:29:09Z</time>
      </trkpt>
      <trkpt lat="43.66295" lon="6.17203">
        <ele>620.5</ele>
        <time>2023-10-09T12:29:10Z</time>
      </trkpt>
      <trkpt lat="43.66296" lon="6.17202">
        <ele>620.6</ele>
        <time>2023-10-09T12:29:11Z</time>
      </trkpt>
      <trkpt lat="43.66297" lon="6.17201">
        <ele>620.6</ele>
        <time>2023-10-09T12:29:12Z</time>
      </trkpt>
      <trkpt lat="43.66298" lon="6.172">
        <ele>620.7</ele>
        <time>2023-10-09T12:29:13Z</time>
      </trkpt>
      <trkpt lat="43.663" lon="6.172">
        <ele>620.8</ele>
        <time>2023-10-09T12:29:14Z</time>
      </trkpt>
      <trkpt lat="43.66301" lon="6.17199">
        <ele>620.8</ele>
        <time>2023-10-09T12:29:15Z</time>
      </trkpt>
      <trkpt lat="43.66302" lon="6.17199">
        <ele>620.9</ele>
        <time>2023-10-09T12:29:16Z</time>
      </trkpt>
      <trkpt lat="43.66303" lon="6.17198">
        <ele>620.9</ele>
        <time>2023-10-09T12:29:17Z</time>
      </trkpt>
      <trkpt lat="43.66303" lon="6.17198">
        <ele>620.9</ele>
        <time>2023-10-09T12:29:18Z</time>
      </trkpt>
      <trkpt lat="43.66304" lon="6.17197">
        <ele>621</ele>
        <time>2023-10-09T12:29:19Z</time>
      </trkpt>
      <trkpt lat="43.66304" lon="6.17196">
        <ele>620.9</ele>
        <time>2023-10-09T12:29:20Z</time>
      </trkpt>
      <trkpt lat="43.66305" lon="6.17195">
        <ele>621</ele>
        <time>2023-10-09T12:29:21Z</time>
      </trkpt>
      <trkpt lat="43.66306" lon="6.17194">
        <ele>621</ele>
        <time>2023-10-09T12:29:22Z</time>
      </trkpt>
      <trkpt lat="43.66307" lon="6.17194">
        <ele>621.1</ele>
        <time>2023-10-09T12:29:23Z</time>
      </trkpt>
      <trkpt lat="43.66308" lon="6.17193">
        <ele>621.1</ele>
        <time>2023-10-09T12:29:24Z</time>
      </trkpt>
      <trkpt lat="43.66309" lon="6.17192">
        <ele>621.1</ele>
        <time>2023-10-09T12:29:25Z</time>
      </trkpt>
      <trkpt lat="43.6631" lon="6.17192">
        <ele>621.2</ele>
        <time>2023-10-09T12:29:26Z</time>
      </trkpt>
      <trkpt lat="43.66311" lon="6.17192">
        <ele>621.2</ele>
        <time>2023-10-09T12:29:27Z</time>
      </trkpt>
      <trkpt lat="43.66312" lon="6.17192">
        <ele>621.3</ele>
        <time>2023-10-09T12:29:28Z</time>
      </trkpt>
      <trkpt lat="43.66313" lon="6.17192">
        <ele>621.4</ele>
        <time>2023-10-09T12:29:29Z</time>
      </trkpt>
      <trkpt lat="43.66314" lon="6.17192">
        <ele>621.5</ele>
        <time>2023-10-09T12:29:30Z</time>
      </trkpt>
      <trkpt lat="43.66316" lon="6.17191">
        <ele>621.6</ele>
        <time>2023-10-09T12:29:31Z</time>
      </trkpt>
      <trkpt lat="43.66317" lon="6.1719">
        <ele>621.6</ele>
        <time>2023-10-09T12:29:32Z</time>
      </trkpt>
      <trkpt lat="43.66318" lon="6.17189">
        <ele>621.6</ele>
        <time>2023-10-09T12:29:33Z</time>
      </trkpt>
      <trkpt lat="43.66319" lon="6.17189">
        <ele>621.7</ele>
        <time>2023-10-09T12:29:34Z</time>
      </trkpt>
      <trkpt lat="43.6632" lon="6.17188">
        <ele>621.7</ele>
        <time>2023-10-09T12:29:35Z</time>
      </trkpt>
      <trkpt lat="43.66321" lon="6.17188">
        <ele>621.8</ele>
        <time>2023-10-09T12:29:36Z</time>
      </trkpt>
      <trkpt lat="43.66322" lon="6.17188">
        <ele>621.9</ele>
        <time>2023-10-09T12:29:37Z</time>
      </trkpt>
      <trkpt lat="43.66322" lon="6.17187">
        <ele>621.8</ele>
        <time>2023-10-09T12:29:38Z</time>
      </trkpt>
      <trkpt lat="43.66323" lon="6.17186">
        <ele>621.8</ele>
        <time>2023-10-09T12:29:39Z</time>
      </trkpt>
      <trkpt lat="43.66324" lon="6.17186">
        <ele>621.9</ele>
        <time>2023-10-09T12:29:40Z</time>
      </trkpt>
      <trkpt lat="43.66325" lon="6.17185">
        <ele>622</ele>
        <time>2023-10-09T12:29:41Z</time>
      </trkpt>
      <trkpt lat="43.66326" lon="6.17185">
        <ele>622</ele>
        <time>2023-10-09T12:29:42Z</time>
      </trkpt>
      <trkpt lat="43.66327" lon="6.17185">
        <ele>622.1</ele>
        <time>2023-10-09T12:29:43Z</time>
      </trkpt>
      <trkpt lat="43.66328" lon="6.17185">
        <ele>622.2</ele>
        <time>2023-10-09T12:29:44Z</time>
      </trkpt>
      <trkpt lat="43.66329" lon="6.17184">
        <ele>622.3</ele>
        <time>2023-10-09T12:29:45Z</time>
      </trkpt>
      <trkpt lat="43.6633" lon="6.17184">
        <ele>622.3</ele>
        <time>2023-10-09T12:29:46Z</time>
      </trkpt>
      <trkpt lat="43.66331" lon="6.17184">
        <ele>622.4</ele>
        <time>2023-10-09T12:29:47Z</time>
      </trkpt>
      <trkpt lat="43.66332" lon="6.17184">
        <ele>622.5</ele>
        <time>2023-10-09T12:29:48Z</time>
      </trkpt>
      <trkpt lat="43.66333" lon="6.17184">
        <ele>622.6</ele>
        <time>2023-10-09T12:29:49Z</time>
      </trkpt>
      <trkpt lat="43.66334" lon="6.17183">
        <ele>622.6</ele>
        <time>2023-10-09T12:29:50Z</time>
      </trkpt>
      <trkpt lat="43.66335" lon="6.17183">
        <ele>622.6</ele>
        <time>2023-10-09T12:29:51Z</time>
      </trkpt>
      <trkpt lat="43.66336" lon="6.17183">
        <ele>622.7</ele>
        <time>2023-10-09T12:29:52Z</time>
      </trkpt>
      <trkpt lat="43.66337" lon="6.17183">
        <ele>622.7</ele>
        <time>2023-10-09T12:29:53Z</time>
      </trkpt>
      <trkpt lat="43.66338" lon="6.17183">
        <ele>622.8</ele>
        <time>2023-10-09T12:29:54Z</time>
      </trkpt>
      <trkpt lat="43.66339" lon="6.17183">
        <ele>622.8</ele>
        <time>2023-10-09T12:29:55Z</time>
      </trkpt>
      <trkpt lat="43.6634" lon="6.17183">
        <ele>622.8</ele>
        <time>2023-10-09T12:29:56Z</time>
      </trkpt>
      <trkpt lat="43.66341" lon="6.17182">
        <ele>622.8</ele>
        <time>2023-10-09T12:29:57Z</time>
      </trkpt>
      <trkpt lat="43.66342" lon="6.17182">
        <ele>622.9</ele>
        <time>2023-10-09T12:29:58Z</time>
      </trkpt>
      <trkpt lat="43.66343" lon="6.17182">
        <ele>622.9</ele>
        <time>2023-10-09T12:29:59Z</time>
      </trkpt>
      <trkpt lat="43.66344" lon="6.17182">
        <ele>622.9</ele>
        <time>2023-10-09T12:30:00Z</time>
      </trkpt>
      <trkpt lat="43.66345" lon="6.17181">
        <ele>622.9</ele>
        <time>2023-10-09T12:30:01Z</time>
      </trkpt>
      <trkpt lat="43.66346" lon="6.17181">
        <ele>623</ele>
        <time>2023-10-09T12:30:02Z</time>
      </trkpt>
      <trkpt lat="43.66347" lon="6.17181">
        <ele>623</ele>
        <time>2023-10-09T12:30:03Z</time>
      </trkpt>
      <trkpt lat="43.66348" lon="6.17181">
        <ele>623</ele>
        <time>2023-10-09T12:30:04Z</time>
      </trkpt>
      <trkpt lat="43.6635" lon="6.17181">
        <ele>623.1</ele>
        <time>2023-10-09T12:30:05Z</time>
      </trkpt>
      <trkpt lat="43.6635" lon="6.1718">
        <ele>623.1</ele>
        <time>2023-10-09T12:30:06Z</time>
      </trkpt>
      <trkpt lat="43.66351" lon="6.1718">
        <ele>623.1</ele>
        <time>2023-10-09T12:30:07Z</time>
      </trkpt>
      <trkpt lat="43.66352" lon="6.1718">
        <ele>623.2</ele>
        <time>2023-10-09T12:30:08Z</time>
      </trkpt>
      <trkpt lat="43.66353" lon="6.1718">
        <ele>623.2</ele>
        <time>2023-10-09T12:30:09Z</time>
      </trkpt>
      <trkpt lat="43.66354" lon="6.1718">
        <ele>623.2</ele>
        <time>2023-10-09T12:30:10Z</time>
      </trkpt>
      <trkpt lat="43.66355" lon="6.1718">
        <ele>623.3</ele>
        <time>2023-10-09T12:30:11Z</time>
      </trkpt>
      <trkpt lat="43.66357" lon="6.1718">
        <ele>623.3</ele>
        <time>2023-10-09T12:30:12Z</time>
      </trkpt>
      <trkpt lat="43.66358" lon="6.1718">
        <ele>623.4</ele>
        <time>2023-10-09T12:30:13Z</time>
      </trkpt>
      <trkpt lat="43.66358" lon="6.1718">
        <ele>623.4</ele>
        <time>2023-10-09T12:30:14Z</time>
      </trkpt>
      <trkpt lat="43.6636" lon="6.17181">
        <ele>623.5</ele>
        <time>2023-10-09T12:30:15Z</time>
      </trkpt>
      <trkpt lat="43.66361" lon="6.17181">
        <ele>623.5</ele>
        <time>2023-10-09T12:30:16Z</time>
      </trkpt>
      <trkpt lat="43.66362" lon="6.17181">
        <ele>623.5</ele>
        <time>2023-10-09T12:30:17Z</time>
      </trkpt>
      <trkpt lat="43.66364" lon="6.17181">
        <ele>623.6</ele>
        <time>2023-10-09T12:30:18Z</time>
      </trkpt>
      <trkpt lat="43.66365" lon="6.17181">
        <ele>623.7</ele>
        <time>2023-10-09T12:30:19Z</time>
      </trkpt>
      <trkpt lat="43.66366" lon="6.17181">
        <ele>623.7</ele>
        <time>2023-10-09T12:30:20Z</time>
      </trkpt>
      <trkpt lat="43.66367" lon="6.17181">
        <ele>623.7</ele>
        <time>2023-10-09T12:30:21Z</time>
      </trkpt>
      <trkpt lat="43.66369" lon="6.17182">
        <ele>623.8</ele>
        <time>2023-10-09T12:30:22Z</time>
      </trkpt>
      <trkpt lat="43.66371" lon="6.17182">
        <ele>623.9</ele>
        <time>2023-10-09T12:30:23Z</time>
      </trkpt>
      <trkpt lat="43.66372" lon="6.17182">
        <ele>623.9</ele>
        <time>2023-10-09T12:30:24Z</time>
      </trkpt>
      <trkpt lat="43.66373" lon="6.17182">
        <ele>624</ele>
        <time>2023-10-09T12:30:25Z</time>
      </trkpt>
      <trkpt lat="43.66375" lon="6.17182">
        <ele>624.1</ele>
        <time>2023-10-09T12:30:26Z</time>
      </trkpt>
      <trkpt lat="43.66376" lon="6.17182">
        <ele>624.1</ele>
        <time>2023-10-09T12:30:27Z</time>
      </trkpt>
      <trkpt lat="43.66378" lon="6.17182">
        <ele>624.2</ele>
        <time>2023-10-09T12:30:28Z</time>
      </trkpt>
      <trkpt lat="43.66379" lon="6.17182">
        <ele>624.2</ele>
        <time>2023-10-09T12:30:29Z</time>
      </trkpt>
      <trkpt lat="43.6638" lon="6.17182">
        <ele>624.2</ele>
        <time>2023-10-09T12:30:30Z</time>
      </trkpt>
      <trkpt lat="43.66381" lon="6.17183">
        <ele>624.3</ele>
        <time>2023-10-09T12:30:31Z</time>
      </trkpt>
      <trkpt lat="43.66382" lon="6.17183">
        <ele>624.3</ele>
        <time>2023-10-09T12:30:32Z</time>
      </trkpt>
      <trkpt lat="43.66383" lon="6.17183">
        <ele>624.4</ele>
        <time>2023-10-09T12:30:33Z</time>
      </trkpt>
      <trkpt lat="43.66384" lon="6.17183">
        <ele>624.4</ele>
        <time>2023-10-09T12:30:34Z</time>
      </trkpt>
      <trkpt lat="43.66385" lon="6.17184">
        <ele>624.5</ele>
        <time>2023-10-09T12:30:35Z</time>
      </trkpt>
      <trkpt lat="43.66387" lon="6.17184">
        <ele>624.6</ele>
        <time>2023-10-09T12:30:36Z</time>
      </trkpt>
      <trkpt lat="43.66388" lon="6.17184">
        <ele>624.6</ele>
        <time>2023-10-09T12:30:37Z</time>
      </trkpt>
      <trkpt lat="43.66389" lon="6.17184">
        <ele>624.6</ele>
        <time>2023-10-09T12:30:38Z</time>
      </trkpt>
      <trkpt lat="43.66391" lon="6.17184">
        <ele>624.7</ele>
        <time>2023-10-09T12:30:39Z</time>
      </trkpt>
      <trkpt lat="43.66392" lon="6.17183">
        <ele>624.6</ele>
        <time>2023-10-09T12:30:40Z</time>
      </trkpt>
      <trkpt lat="43.66393" lon="6.17183">
        <ele>624.6</ele>
        <time>2023-10-09T12:30:41Z</time>
      </trkpt>
      <trkpt lat="43.66394" lon="6.17183">
        <ele>624.7</ele>
        <time>2023-10-09T12:30:42Z</time>
      </trkpt>
      <trkpt lat="43.66395" lon="6.17184">
        <ele>624.7</ele>
        <time>2023-10-09T12:30:43Z</time>
      </trkpt>
      <trkpt lat="43.66396" lon="6.17183">
        <ele>624.7</ele>
        <time>2023-10-09T12:30:44Z</time>
      </trkpt>
      <trkpt lat="43.66397" lon="6.17184">
        <ele>624.7</ele>
        <time>2023-10-09T12:30:45Z</time>
      </trkpt>
      <trkpt lat="43.66398" lon="6.17184">
        <ele>624.7</ele>
        <time>2023-10-09T12:30:46Z</time>
      </trkpt>
      <trkpt lat="43.66399" lon="6.17184">
        <ele>624.8</ele>
        <time>2023-10-09T12:30:47Z</time>
      </trkpt>
      <trkpt lat="43.664" lon="6.17184">
        <ele>624.8</ele>
        <time>2023-10-09T12:30:48Z</time>
      </trkpt>
      <trkpt lat="43.66401" lon="6.17184">
        <ele>624.8</ele>
        <time>2023-10-09T12:30:49Z</time>
      </trkpt>
      <trkpt lat="43.66402" lon="6.17184">
        <ele>624.8</ele>
        <time>2023-10-09T12:30:50Z</time>
      </trkpt>
      <trkpt lat="43.66404" lon="6.17184">
        <ele>624.8</ele>
        <time>2023-10-09T12:30:51Z</time>
      </trkpt>
      <trkpt lat="43.66405" lon="6.17184">
        <ele>624.8</ele>
        <time>2023-10-09T12:30:52Z</time>
      </trkpt>
      <trkpt lat="43.66406" lon="6.17184">
        <ele>624.9</ele>
        <time>2023-10-09T12:30:53Z</time>
      </trkpt>
      <trkpt lat="43.66408" lon="6.17184">
        <ele>624.9</ele>
        <time>2023-10-09T12:30:54Z</time>
      </trkpt>
      <trkpt lat="43.66409" lon="6.17184">
        <ele>624.9</ele>
        <time>2023-10-09T12:30:55Z</time>
      </trkpt>
      <trkpt lat="43.66409" lon="6.17184">
        <ele>624.9</ele>
        <time>2023-10-09T12:30:56Z</time>
      </trkpt>
      <trkpt lat="43.66411" lon="6.17184">
        <ele>624.9</ele>
        <time>2023-10-09T12:30:57Z</time>
      </trkpt>
      <trkpt lat="43.66412" lon="6.17184">
        <ele>624.9</ele>
        <time>2023-10-09T12:30:58Z</time>
      </trkpt>
      <trkpt lat="43.66413" lon="6.17184">
        <ele>625</ele>
        <time>2023-10-09T12:30:59Z</time>
      </trkpt>
      <trkpt lat="43.66415" lon="6.17184">
        <ele>625</ele>
        <time>2023-10-09T12:31:00Z</time>
      </trkpt>
      <trkpt lat="43.66416" lon="6.17184">
        <ele>625</ele>
        <time>2023-10-09T12:31:01Z</time>
      </trkpt>
      <trkpt lat="43.66417" lon="6.17184">
        <ele>625</ele>
        <time>2023-10-09T12:31:02Z</time>
      </trkpt>
      <trkpt lat="43.66419" lon="6.17184">
        <ele>625.1</ele>
        <time>2023-10-09T12:31:03Z</time>
      </trkpt>
      <trkpt lat="43.6642" lon="6.17184">
        <ele>625.1</ele>
        <time>2023-10-09T12:31:04Z</time>
      </trkpt>
      <trkpt lat="43.66421" lon="6.17184">
        <ele>625.2</ele>
        <time>2023-10-09T12:31:05Z</time>
      </trkpt>
      <trkpt lat="43.66422" lon="6.17184">
        <ele>625.2</ele>
        <time>2023-10-09T12:31:06Z</time>
      </trkpt>
      <trkpt lat="43.66424" lon="6.17184">
        <ele>625.3</ele>
        <time>2023-10-09T12:31:07Z</time>
      </trkpt>
      <trkpt lat="43.66425" lon="6.17185">
        <ele>625.3</ele>
        <time>2023-10-09T12:31:08Z</time>
      </trkpt>
      <trkpt lat="43.66426" lon="6.17185">
        <ele>625.3</ele>
        <time>2023-10-09T12:31:09Z</time>
      </trkpt>
      <trkpt lat="43.66427" lon="6.17186">
        <ele>625.4</ele>
        <time>2023-10-09T12:31:10Z</time>
      </trkpt>
      <trkpt lat="43.66429" lon="6.17187">
        <ele>625.4</ele>
        <time>2023-10-09T12:31:11Z</time>
      </trkpt>
      <trkpt lat="43.6643" lon="6.17187">
        <ele>625.5</ele>
        <time>2023-10-09T12:31:12Z</time>
      </trkpt>
      <trkpt lat="43.66431" lon="6.17187">
        <ele>625.5</ele>
        <time>2023-10-09T12:31:13Z</time>
      </trkpt>
      <trkpt lat="43.66432" lon="6.17188">
        <ele>625.6</ele>
        <time>2023-10-09T12:31:14Z</time>
      </trkpt>
      <trkpt lat="43.66433" lon="6.17188">
        <ele>625.6</ele>
        <time>2023-10-09T12:31:15Z</time>
      </trkpt>
      <trkpt lat="43.66435" lon="6.17188">
        <ele>625.7</ele>
        <time>2023-10-09T12:31:16Z</time>
      </trkpt>
      <trkpt lat="43.66436" lon="6.17188">
        <ele>625.7</ele>
        <time>2023-10-09T12:31:17Z</time>
      </trkpt>
      <trkpt lat="43.66437" lon="6.17189">
        <ele>625.7</ele>
        <time>2023-10-09T12:31:18Z</time>
      </trkpt>
      <trkpt lat="43.66439" lon="6.17189">
        <ele>625.8</ele>
        <time>2023-10-09T12:31:19Z</time>
      </trkpt>
      <trkpt lat="43.6644" lon="6.17189">
        <ele>625.8</ele>
        <time>2023-10-09T12:31:20Z</time>
      </trkpt>
      <trkpt lat="43.6644" lon="6.1719">
        <ele>625.8</ele>
        <time>2023-10-09T12:31:21Z</time>
      </trkpt>
      <trkpt lat="43.66442" lon="6.1719">
        <ele>625.9</ele>
        <time>2023-10-09T12:31:22Z</time>
      </trkpt>
      <trkpt lat="43.66443" lon="6.1719">
        <ele>625.9</ele>
        <time>2023-10-09T12:31:23Z</time>
      </trkpt>
      <trkpt lat="43.66444" lon="6.1719">
        <ele>626</ele>
        <time>2023-10-09T12:31:24Z</time>
      </trkpt>
      <trkpt lat="43.66445" lon="6.17191">
        <ele>626</ele>
        <time>2023-10-09T12:31:25Z</time>
      </trkpt>
      <trkpt lat="43.66446" lon="6.17191">
        <ele>626.1</ele>
        <time>2023-10-09T12:31:26Z</time>
      </trkpt>
      <trkpt lat="43.66447" lon="6.17191">
        <ele>626.1</ele>
        <time>2023-10-09T12:31:27Z</time>
      </trkpt>
      <trkpt lat="43.66448" lon="6.17192">
        <ele>626.1</ele>
        <time>2023-10-09T12:31:28Z</time>
      </trkpt>
      <trkpt lat="43.66449" lon="6.17192">
        <ele>626.2</ele>
        <time>2023-10-09T12:31:29Z</time>
      </trkpt>
      <trkpt lat="43.6645" lon="6.17192">
        <ele>626.2</ele>
        <time>2023-10-09T12:31:30Z</time>
      </trkpt>
      <trkpt lat="43.6645" lon="6.17192">
        <ele>626.2</ele>
        <time>2023-10-09T12:31:31Z</time>
      </trkpt>
      <trkpt lat="43.66451" lon="6.17192">
        <ele>626.2</ele>
        <time>2023-10-09T12:31:32Z</time>
      </trkpt>
      <trkpt lat="43.66452" lon="6.17193">
        <ele>626.3</ele>
        <time>2023-10-09T12:31:33Z</time>
      </trkpt>
      <trkpt lat="43.66453" lon="6.17193">
        <ele>626.3</ele>
        <time>2023-10-09T12:31:34Z</time>
      </trkpt>
      <trkpt lat="43.66454" lon="6.17193">
        <ele>626.3</ele>
        <time>2023-10-09T12:31:35Z</time>
      </trkpt>
      <trkpt lat="43.66455" lon="6.17194">
        <ele>626.4</ele>
        <time>2023-10-09T12:31:36Z</time>
      </trkpt>
      <trkpt lat="43.66456" lon="6.17194">
        <ele>626.4</ele>
        <time>2023-10-09T12:31:37Z</time>
      </trkpt>
      <trkpt lat="43.66458" lon="6.17195">
        <ele>626.5</ele>
        <time>2023-10-09T12:31:38Z</time>
      </trkpt>
      <trkpt lat="43.66459" lon="6.17195">
        <ele>626.5</ele>
        <time>2023-10-09T12:31:39Z</time>
      </trkpt>
      <trkpt lat="43.6646" lon="6.17195">
        <ele>626.6</ele>
        <time>2023-10-09T12:31:40Z</time>
      </trkpt>
      <trkpt lat="43.66462" lon="6.17194">
        <ele>626.6</ele>
        <time>2023-10-09T12:31:41Z</time>
      </trkpt>
      <trkpt lat="43.66463" lon="6.17194">
        <ele>626.7</ele>
        <time>2023-10-09T12:31:42Z</time>
      </trkpt>
      <trkpt lat="43.66463" lon="6.17194">
        <ele>626.7</ele>
        <time>2023-10-09T12:31:43Z</time>
      </trkpt>
      <trkpt lat="43.66465" lon="6.17194">
        <ele>626.7</ele>
        <time>2023-10-09T12:31:44Z</time>
      </trkpt>
      <trkpt lat="43.66466" lon="6.17194">
        <ele>626.8</ele>
        <time>2023-10-09T12:31:45Z</time>
      </trkpt>
      <trkpt lat="43.66467" lon="6.17194">
        <ele>626.8</ele>
        <time>2023-10-09T12:31:46Z</time>
      </trkpt>
      <trkpt lat="43.66468" lon="6.17195">
        <ele>626.9</ele>
        <time>2023-10-09T12:31:47Z</time>
      </trkpt>
      <trkpt lat="43.66469" lon="6.17195">
        <ele>626.9</ele>
        <time>2023-10-09T12:31:48Z</time>
      </trkpt>
      <trkpt lat="43.6647" lon="6.17196">
        <ele>627</ele>
        <time>2023-10-09T12:31:49Z</time>
      </trkpt>
      <trkpt lat="43.66471" lon="6.17196">
        <ele>627</ele>
        <time>2023-10-09T12:31:50Z</time>
      </trkpt>
      <trkpt lat="43.66472" lon="6.17196">
        <ele>627</ele>
        <time>2023-10-09T12:31:51Z</time>
      </trkpt>
      <trkpt lat="43.66473" lon="6.17196">
        <ele>627.1</ele>
        <time>2023-10-09T12:31:52Z</time>
      </trkpt>
      <trkpt lat="43.66474" lon="6.17196">
        <ele>627.1</ele>
        <time>2023-10-09T12:31:53Z</time>
      </trkpt>
      <trkpt lat="43.66475" lon="6.17195">
        <ele>627.1</ele>
        <time>2023-10-09T12:31:54Z</time>
      </trkpt>
      <trkpt lat="43.66476" lon="6.17195">
        <ele>627.2</ele>
        <time>2023-10-09T12:31:55Z</time>
      </trkpt>
      <trkpt lat="43.66478" lon="6.17195">
        <ele>627.2</ele>
        <time>2023-10-09T12:31:56Z</time>
      </trkpt>
      <trkpt lat="43.66479" lon="6.17196">
        <ele>627.3</ele>
        <time>2023-10-09T12:31:57Z</time>
      </trkpt>
      <trkpt lat="43.6648" lon="6.17196">
        <ele>627.3</ele>
        <time>2023-10-09T12:31:58Z</time>
      </trkpt>
      <trkpt lat="43.6648" lon="6.17195">
        <ele>627.3</ele>
        <time>2023-10-09T12:31:59Z</time>
      </trkpt>
      <trkpt lat="43.66481" lon="6.17195">
        <ele>627.3</ele>
        <time>2023-10-09T12:32:00Z</time>
      </trkpt>
      <trkpt lat="43.66482" lon="6.17195">
        <ele>627.4</ele>
        <time>2023-10-09T12:32:01Z</time>
      </trkpt>
      <trkpt lat="43.66483" lon="6.17194">
        <ele>627.4</ele>
        <time>2023-10-09T12:32:02Z</time>
      </trkpt>
      <trkpt lat="43.66484" lon="6.17194">
        <ele>627.4</ele>
        <time>2023-10-09T12:32:03Z</time>
      </trkpt>
      <trkpt lat="43.66485" lon="6.17195">
        <ele>627.5</ele>
        <time>2023-10-09T12:32:04Z</time>
      </trkpt>
      <trkpt lat="43.66486" lon="6.17195">
        <ele>627.5</ele>
        <time>2023-10-09T12:32:05Z</time>
      </trkpt>
      <trkpt lat="43.66487" lon="6.17195">
        <ele>627.6</ele>
        <time>2023-10-09T12:32:06Z</time>
      </trkpt>
      <trkpt lat="43.66488" lon="6.17195">
        <ele>627.6</ele>
        <time>2023-10-09T12:32:07Z</time>
      </trkpt>
      <trkpt lat="43.66489" lon="6.17194">
        <ele>627.6</ele>
        <time>2023-10-09T12:32:08Z</time>
      </trkpt>
      <trkpt lat="43.66489" lon="6.17194">
        <ele>627.6</ele>
        <time>2023-10-09T12:32:09Z</time>
      </trkpt>
      <trkpt lat="43.6649" lon="6.17193">
        <ele>627.6</ele>
        <time>2023-10-09T12:32:10Z</time>
      </trkpt>
      <trkpt lat="43.66492" lon="6.17192">
        <ele>627.7</ele>
        <time>2023-10-09T12:32:11Z</time>
      </trkpt>
      <trkpt lat="43.66493" lon="6.17192">
        <ele>627.7</ele>
        <time>2023-10-09T12:32:12Z</time>
      </trkpt>
      <trkpt lat="43.66494" lon="6.17192">
        <ele>627.8</ele>
        <time>2023-10-09T12:32:13Z</time>
      </trkpt>
      <trkpt lat="43.66496" lon="6.17191">
        <ele>627.9</ele>
        <time>2023-10-09T12:32:14Z</time>
      </trkpt>
      <trkpt lat="43.66497" lon="6.17191">
        <ele>627.9</ele>
        <time>2023-10-09T12:32:15Z</time>
      </trkpt>
      <trkpt lat="43.66498" lon="6.1719">
        <ele>627.9</ele>
        <time>2023-10-09T12:32:16Z</time>
      </trkpt>
      <trkpt lat="43.66499" lon="6.1719">
        <ele>628</ele>
        <time>2023-10-09T12:32:17Z</time>
      </trkpt>
      <trkpt lat="43.665" lon="6.1719">
        <ele>628</ele>
        <time>2023-10-09T12:32:18Z</time>
      </trkpt>
      <trkpt lat="43.66501" lon="6.17189">
        <ele>628.1</ele>
        <time>2023-10-09T12:32:19Z</time>
      </trkpt>
      <trkpt lat="43.66502" lon="6.17189">
        <ele>628.1</ele>
        <time>2023-10-09T12:32:20Z</time>
      </trkpt>
      <trkpt lat="43.66502" lon="6.17188">
        <ele>628.1</ele>
        <time>2023-10-09T12:32:21Z</time>
      </trkpt>
      <trkpt lat="43.66503" lon="6.17188">
        <ele>628.2</ele>
        <time>2023-10-09T12:32:22Z</time>
      </trkpt>
      <trkpt lat="43.66504" lon="6.17188">
        <ele>628.3</ele>
        <time>2023-10-09T12:32:23Z</time>
      </trkpt>
      <trkpt lat="43.66506" lon="6.17187">
        <ele>628.4</ele>
        <time>2023-10-09T12:32:24Z</time>
      </trkpt>
      <trkpt lat="43.66507" lon="6.17187">
        <ele>628.4</ele>
        <time>2023-10-09T12:32:25Z</time>
      </trkpt>
      <trkpt lat="43.66508" lon="6.17187">
        <ele>628.5</ele>
        <time>2023-10-09T12:32:26Z</time>
      </trkpt>
      <trkpt lat="43.66509" lon="6.17186">
        <ele>628.5</ele>
        <time>2023-10-09T12:32:27Z</time>
      </trkpt>
      <trkpt lat="43.6651" lon="6.17186">
        <ele>628.6</ele>
        <time>2023-10-09T12:32:28Z</time>
      </trkpt>
      <trkpt lat="43.66511" lon="6.17186">
        <ele>628.7</ele>
        <time>2023-10-09T12:32:29Z</time>
      </trkpt>
      <trkpt lat="43.66512" lon="6.17186">
        <ele>628.7</ele>
        <time>2023-10-09T12:32:30Z</time>
      </trkpt>
      <trkpt lat="43.66513" lon="6.17186">
        <ele>628.8</ele>
        <time>2023-10-09T12:32:31Z</time>
      </trkpt>
      <trkpt lat="43.66514" lon="6.17185">
        <ele>628.8</ele>
        <time>2023-10-09T12:32:32Z</time>
      </trkpt>
      <trkpt lat="43.66515" lon="6.17185">
        <ele>628.9</ele>
        <time>2023-10-09T12:32:33Z</time>
      </trkpt>
      <trkpt lat="43.66516" lon="6.17185">
        <ele>629</ele>
        <time>2023-10-09T12:32:34Z</time>
      </trkpt>
      <trkpt lat="43.66517" lon="6.17185">
        <ele>629</ele>
        <time>2023-10-09T12:32:35Z</time>
      </trkpt>
      <trkpt lat="43.66517" lon="6.17184">
        <ele>629</ele>
        <time>2023-10-09T12:32:36Z</time>
      </trkpt>
      <trkpt lat="43.66518" lon="6.17184">
        <ele>629.1</ele>
        <time>2023-10-09T12:32:37Z</time>
      </trkpt>
      <trkpt lat="43.66519" lon="6.17184">
        <ele>629.1</ele>
        <time>2023-10-09T12:32:38Z</time>
      </trkpt>
      <trkpt lat="43.6652" lon="6.17184">
        <ele>629.2</ele>
        <time>2023-10-09T12:32:39Z</time>
      </trkpt>
      <trkpt lat="43.66522" lon="6.17183">
        <ele>629.3</ele>
        <time>2023-10-09T12:32:40Z</time>
      </trkpt>
      <trkpt lat="43.66523" lon="6.17183">
        <ele>629.3</ele>
        <time>2023-10-09T12:32:41Z</time>
      </trkpt>
      <trkpt lat="43.66524" lon="6.17183">
        <ele>629.4</ele>
        <time>2023-10-09T12:32:42Z</time>
      </trkpt>
      <trkpt lat="43.66525" lon="6.17183">
        <ele>629.4</ele>
        <time>2023-10-09T12:32:43Z</time>
      </trkpt>
      <trkpt lat="43.66526" lon="6.17183">
        <ele>629.5</ele>
        <time>2023-10-09T12:32:44Z</time>
      </trkpt>
      <trkpt lat="43.66527" lon="6.17183">
        <ele>629.5</ele>
        <time>2023-10-09T12:32:45Z</time>
      </trkpt>
      <trkpt lat="43.66529" lon="6.17183">
        <ele>629.6</ele>
        <time>2023-10-09T12:32:46Z</time>
      </trkpt>
      <trkpt lat="43.6653" lon="6.17183">
        <ele>629.6</ele>
        <time>2023-10-09T12:32:47Z</time>
      </trkpt>
      <trkpt lat="43.66531" lon="6.17183">
        <ele>629.6</ele>
        <time>2023-10-09T12:32:48Z</time>
      </trkpt>
      <trkpt lat="43.66532" lon="6.17184">
        <ele>629.7</ele>
        <time>2023-10-09T12:32:49Z</time>
      </trkpt>
      <trkpt lat="43.66533" lon="6.17184">
        <ele>629.7</ele>
        <time>2023-10-09T12:32:50Z</time>
      </trkpt>
      <trkpt lat="43.66535" lon="6.17185">
        <ele>629.7</ele>
        <time>2023-10-09T12:32:51Z</time>
      </trkpt>
      <trkpt lat="43.66536" lon="6.17185">
        <ele>629.8</ele>
        <time>2023-10-09T12:32:52Z</time>
      </trkpt>
      <trkpt lat="43.66537" lon="6.17185">
        <ele>629.8</ele>
        <time>2023-10-09T12:32:53Z</time>
      </trkpt>
      <trkpt lat="43.66538" lon="6.17185">
        <ele>629.8</ele>
        <time>2023-10-09T12:32:54Z</time>
      </trkpt>
      <trkpt lat="43.6654" lon="6.17186">
        <ele>629.8</ele>
        <time>2023-10-09T12:32:55Z</time>
      </trkpt>
      <trkpt lat="43.66542" lon="6.17186">
        <ele>629.9</ele>
        <time>2023-10-09T12:32:56Z</time>
      </trkpt>
      <trkpt lat="43.66543" lon="6.17186">
        <ele>629.9</ele>
        <time>2023-10-09T12:32:57Z</time>
      </trkpt>
      <trkpt lat="43.66543" lon="6.17187">
        <ele>629.9</ele>
        <time>2023-10-09T12:32:58Z</time>
      </trkpt>
      <trkpt lat="43.66545" lon="6.17187">
        <ele>629.9</ele>
        <time>2023-10-09T12:32:59Z</time>
      </trkpt>
      <trkpt lat="43.66546" lon="6.17188">
        <ele>629.9</ele>
        <time>2023-10-09T12:33:00Z</time>
      </trkpt>
      <trkpt lat="43.66547" lon="6.17188">
        <ele>629.9</ele>
        <time>2023-10-09T12:33:01Z</time>
      </trkpt>
      <trkpt lat="43.66548" lon="6.17188">
        <ele>629.9</ele>
        <time>2023-10-09T12:33:02Z</time>
      </trkpt>
      <trkpt lat="43.66548" lon="6.1719">
        <ele>630</ele>
        <time>2023-10-09T12:33:03Z</time>
      </trkpt>
      <trkpt lat="43.66549" lon="6.17191">
        <ele>630</ele>
        <time>2023-10-09T12:33:04Z</time>
      </trkpt>
      <trkpt lat="43.6655" lon="6.17191">
        <ele>630</ele>
        <time>2023-10-09T12:33:05Z</time>
      </trkpt>
      <trkpt lat="43.66551" lon="6.17191">
        <ele>630</ele>
        <time>2023-10-09T12:33:06Z</time>
      </trkpt>
      <trkpt lat="43.66552" lon="6.17192">
        <ele>630</ele>
        <time>2023-10-09T12:33:07Z</time>
      </trkpt>
      <trkpt lat="43.66553" lon="6.17192">
        <ele>630</ele>
        <time>2023-10-09T12:33:08Z</time>
      </trkpt>
      <trkpt lat="43.66555" lon="6.17193">
        <ele>630</ele>
        <time>2023-10-09T12:33:09Z</time>
      </trkpt>
      <trkpt lat="43.66556" lon="6.17193">
        <ele>630</ele>
        <time>2023-10-09T12:33:10Z</time>
      </trkpt>
      <trkpt lat="43.66557" lon="6.17193">
        <ele>630</ele>
        <time>2023-10-09T12:33:11Z</time>
      </trkpt>
      <trkpt lat="43.66558" lon="6.17194">
        <ele>630</ele>
        <time>2023-10-09T12:33:12Z</time>
      </trkpt>
      <trkpt lat="43.66559" lon="6.17194">
        <ele>630</ele>
        <time>2023-10-09T12:33:13Z</time>
      </trkpt>
      <trkpt lat="43.6656" lon="6.17194">
        <ele>630</ele>
        <time>2023-10-09T12:33:14Z</time>
      </trkpt>
      <trkpt lat="43.66561" lon="6.17195">
        <ele>630</ele>
        <time>2023-10-09T12:33:15Z</time>
      </trkpt>
      <trkpt lat="43.66562" lon="6.17195">
        <ele>630</ele>
        <time>2023-10-09T12:33:16Z</time>
      </trkpt>
      <trkpt lat="43.66565" lon="6.17195">
        <ele>630</ele>
        <time>2023-10-09T12:33:17Z</time>
      </trkpt>
      <trkpt lat="43.66566" lon="6.17195">
        <ele>630</ele>
        <time>2023-10-09T12:33:18Z</time>
      </trkpt>
      <trkpt lat="43.66567" lon="6.17195">
        <ele>630</ele>
        <time>2023-10-09T12:33:19Z</time>
      </trkpt>
      <trkpt lat="43.66569" lon="6.17196">
        <ele>630</ele>
        <time>2023-10-09T12:33:20Z</time>
      </trkpt>
      <trkpt lat="43.6657" lon="6.17196">
        <ele>630</ele>
        <time>2023-10-09T12:33:21Z</time>
      </trkpt>
      <trkpt lat="43.6657" lon="6.17196">
        <ele>630</ele>
        <time>2023-10-09T12:33:22Z</time>
      </trkpt>
      <trkpt lat="43.66571" lon="6.17197">
        <ele>630</ele>
        <time>2023-10-09T12:33:23Z</time>
      </trkpt>
      <trkpt lat="43.66572" lon="6.17197">
        <ele>630</ele>
        <time>2023-10-09T12:33:24Z</time>
      </trkpt>
      <trkpt lat="43.66573" lon="6.17198">
        <ele>630</ele>
        <time>2023-10-09T12:33:25Z</time>
      </trkpt>
      <trkpt lat="43.66574" lon="6.17198">
        <ele>630</ele>
        <time>2023-10-09T12:33:26Z</time>
      </trkpt>
      <trkpt lat="43.66575" lon="6.17199">
        <ele>630</ele>
        <time>2023-10-09T12:33:27Z</time>
      </trkpt>
      <trkpt lat="43.66576" lon="6.17199">
        <ele>630</ele>
        <time>2023-10-09T12:33:28Z</time>
      </trkpt>
      <trkpt lat="43.66577" lon="6.172">
        <ele>630</ele>
        <time>2023-10-09T12:33:29Z</time>
      </trkpt>
      <trkpt lat="43.66578" lon="6.172">
        <ele>630</ele>
        <time>2023-10-09T12:33:30Z</time>
      </trkpt>
      <trkpt lat="43.6658" lon="6.17201">
        <ele>630</ele>
        <time>2023-10-09T12:33:31Z</time>
      </trkpt>
      <trkpt lat="43.66581" lon="6.17201">
        <ele>630</ele>
        <time>2023-10-09T12:33:32Z</time>
      </trkpt>
      <trkpt lat="43.66582" lon="6.17202">
        <ele>630</ele>
        <time>2023-10-09T12:33:33Z</time>
      </trkpt>
      <trkpt lat="43.66585" lon="6.17202">
        <ele>630</ele>
        <time>2023-10-09T12:33:34Z</time>
      </trkpt>
      <trkpt lat="43.66585" lon="6.17202">
        <ele>630</ele>
        <time>2023-10-09T12:33:35Z</time>
      </trkpt>
      <trkpt lat="43.66586" lon="6.17202">
        <ele>629.9</ele>
        <time>2023-10-09T12:33:36Z</time>
      </trkpt>
      <trkpt lat="43.66587" lon="6.17202">
        <ele>629.9</ele>
        <time>2023-10-09T12:33:37Z</time>
      </trkpt>
      <trkpt lat="43.66588" lon="6.17203">
        <ele>629.9</ele>
        <time>2023-10-09T12:33:38Z</time>
      </trkpt>
      <trkpt lat="43.66589" lon="6.17203">
        <ele>629.9</ele>
        <time>2023-10-09T12:33:39Z</time>
      </trkpt>
      <trkpt lat="43.66591" lon="6.17204">
        <ele>629.8</ele>
        <time>2023-10-09T12:33:40Z</time>
      </trkpt>
      <trkpt lat="43.66592" lon="6.17204">
        <ele>629.8</ele>
        <time>2023-10-09T12:33:41Z</time>
      </trkpt>
      <trkpt lat="43.66593" lon="6.17205">
        <ele>629.8</ele>
        <time>2023-10-09T12:33:42Z</time>
      </trkpt>
      <trkpt lat="43.66594" lon="6.17205">
        <ele>629.8</ele>
        <time>2023-10-09T12:33:43Z</time>
      </trkpt>
      <trkpt lat="43.66595" lon="6.17206">
        <ele>629.8</ele>
        <time>2023-10-09T12:33:44Z</time>
      </trkpt>
      <trkpt lat="43.66597" lon="6.17207">
        <ele>629.7</ele>
        <time>2023-10-09T12:33:46Z</time>
      </trkpt>
      <trkpt lat="43.66598" lon="6.17207">
        <ele>629.7</ele>
        <time>2023-10-09T12:33:47Z</time>
      </trkpt>
      <trkpt lat="43.66599" lon="6.17207">
        <ele>629.7</ele>
        <time>2023-10-09T12:33:48Z</time>
      </trkpt>
      <trkpt lat="43.666" lon="6.17208">
        <ele>629.7</ele>
        <time>2023-10-09T12:33:49Z</time>
      </trkpt>
      <trkpt lat="43.66601" lon="6.17209">
        <ele>629.7</ele>
        <time>2023-10-09T12:33:50Z</time>
      </trkpt>
      <trkpt lat="43.66602" lon="6.17209">
        <ele>629.7</ele>
        <time>2023-10-09T12:33:51Z</time>
      </trkpt>
      <trkpt lat="43.66603" lon="6.1721">
        <ele>629.7</ele>
        <time>2023-10-09T12:33:52Z</time>
      </trkpt>
      <trkpt lat="43.66604" lon="6.1721">
        <ele>629.7</ele>
        <time>2023-10-09T12:33:53Z</time>
      </trkpt>
      <trkpt lat="43.66605" lon="6.17211">
        <ele>629.7</ele>
        <time>2023-10-09T12:33:54Z</time>
      </trkpt>
      <trkpt lat="43.66606" lon="6.17211">
        <ele>629.7</ele>
        <time>2023-10-09T12:33:55Z</time>
      </trkpt>
      <trkpt lat="43.66608" lon="6.17212">
        <ele>629.7</ele>
        <time>2023-10-09T12:33:56Z</time>
      </trkpt>
      <trkpt lat="43.66609" lon="6.17212">
        <ele>629.7</ele>
        <time>2023-10-09T12:33:57Z</time>
      </trkpt>
      <trkpt lat="43.6661" lon="6.17213">
        <ele>629.7</ele>
        <time>2023-10-09T12:33:58Z</time>
      </trkpt>
      <trkpt lat="43.66612" lon="6.17213">
        <ele>629.7</ele>
        <time>2023-10-09T12:33:59Z</time>
      </trkpt>
      <trkpt lat="43.66612" lon="6.17213">
        <ele>629.7</ele>
        <time>2023-10-09T12:34:00Z</time>
      </trkpt>
      <trkpt lat="43.66613" lon="6.17214">
        <ele>629.7</ele>
        <time>2023-10-09T12:34:01Z</time>
      </trkpt>
      <trkpt lat="43.66615" lon="6.17214">
        <ele>629.7</ele>
        <time>2023-10-09T12:34:02Z</time>
      </trkpt>
      <trkpt lat="43.66616" lon="6.17214">
        <ele>629.7</ele>
        <time>2023-10-09T12:34:03Z</time>
      </trkpt>
      <trkpt lat="43.66617" lon="6.17214">
        <ele>629.7</ele>
        <time>2023-10-09T12:34:04Z</time>
      </trkpt>
      <trkpt lat="43.66618" lon="6.17214">
        <ele>629.7</ele>
        <time>2023-10-09T12:34:05Z</time>
      </trkpt>
      <trkpt lat="43.66619" lon="6.17214">
        <ele>629.7</ele>
        <time>2023-10-09T12:34:06Z</time>
      </trkpt>
      <trkpt lat="43.6662" lon="6.17214">
        <ele>629.7</ele>
        <time>2023-10-09T12:34:07Z</time>
      </trkpt>
      <trkpt lat="43.66622" lon="6.17214">
        <ele>629.7</ele>
        <time>2023-10-09T12:34:08Z</time>
      </trkpt>
      <trkpt lat="43.66623" lon="6.17214">
        <ele>629.7</ele>
        <time>2023-10-09T12:34:09Z</time>
      </trkpt>
      <trkpt lat="43.66624" lon="6.17214">
        <ele>629.7</ele>
        <time>2023-10-09T12:34:10Z</time>
      </trkpt>
      <trkpt lat="43.66625" lon="6.17215">
        <ele>629.7</ele>
        <time>2023-10-09T12:34:11Z</time>
      </trkpt>
      <trkpt lat="43.66626" lon="6.17215">
        <ele>629.7</ele>
        <time>2023-10-09T12:34:12Z</time>
      </trkpt>
      <trkpt lat="43.66627" lon="6.17215">
        <ele>629.7</ele>
        <time>2023-10-09T12:34:13Z</time>
      </trkpt>
      <trkpt lat="43.66628" lon="6.17216">
        <ele>629.8</ele>
        <time>2023-10-09T12:34:14Z</time>
      </trkpt>
      <trkpt lat="43.66629" lon="6.17216">
        <ele>629.8</ele>
        <time>2023-10-09T12:34:15Z</time>
      </trkpt>
      <trkpt lat="43.6663" lon="6.17216">
        <ele>629.8</ele>
        <time>2023-10-09T12:34:16Z</time>
      </trkpt>
      <trkpt lat="43.6663" lon="6.17217">
        <ele>629.8</ele>
        <time>2023-10-09T12:34:17Z</time>
      </trkpt>
      <trkpt lat="43.66631" lon="6.17217">
        <ele>629.8</ele>
        <time>2023-10-09T12:34:18Z</time>
      </trkpt>
      <trkpt lat="43.66631" lon="6.17217">
        <ele>629.8</ele>
        <time>2023-10-09T12:34:19Z</time>
      </trkpt>
      <trkpt lat="43.66632" lon="6.17218">
        <ele>629.8</ele>
        <time>2023-10-09T12:34:20Z</time>
      </trkpt>
      <trkpt lat="43.66633" lon="6.17218">
        <ele>629.8</ele>
        <time>2023-10-09T12:34:21Z</time>
      </trkpt>
      <trkpt lat="43.66634" lon="6.17218">
        <ele>629.8</ele>
        <time>2023-10-09T12:34:22Z</time>
      </trkpt>
      <trkpt lat="43.66635" lon="6.17218">
        <ele>629.8</ele>
        <time>2023-10-09T12:34:23Z</time>
      </trkpt>
      <trkpt lat="43.66637" lon="6.17218">
        <ele>629.8</ele>
        <time>2023-10-09T12:34:24Z</time>
      </trkpt>
      <trkpt lat="43.66638" lon="6.17218">
        <ele>629.8</ele>
        <time>2023-10-09T12:34:25Z</time>
      </trkpt>
      <trkpt lat="43.6664" lon="6.17219">
        <ele>629.9</ele>
        <time>2023-10-09T12:34:26Z</time>
      </trkpt>
      <trkpt lat="43.66641" lon="6.17219">
        <ele>629.9</ele>
        <time>2023-10-09T12:34:27Z</time>
      </trkpt>
      <trkpt lat="43.66642" lon="6.1722">
        <ele>629.9</ele>
        <time>2023-10-09T12:34:28Z</time>
      </trkpt>
      <trkpt lat="43.66644" lon="6.17221">
        <ele>630</ele>
        <time>2023-10-09T12:34:29Z</time>
      </trkpt>
      <trkpt lat="43.66645" lon="6.17221">
        <ele>630</ele>
        <time>2023-10-09T12:34:30Z</time>
      </trkpt>
      <trkpt lat="43.66646" lon="6.17222">
        <ele>630</ele>
        <time>2023-10-09T12:34:31Z</time>
      </trkpt>
      <trkpt lat="43.66647" lon="6.17222">
        <ele>630</ele>
        <time>2023-10-09T12:34:32Z</time>
      </trkpt>
      <trkpt lat="43.66648" lon="6.17223">
        <ele>630</ele>
        <time>2023-10-09T12:34:33Z</time>
      </trkpt>
      <trkpt lat="43.66649" lon="6.17224">
        <ele>630.1</ele>
        <time>2023-10-09T12:34:34Z</time>
      </trkpt>
      <trkpt lat="43.6665" lon="6.17224">
        <ele>630.1</ele>
        <time>2023-10-09T12:34:35Z</time>
      </trkpt>
      <trkpt lat="43.66651" lon="6.17225">
        <ele>630.1</ele>
        <time>2023-10-09T12:34:36Z</time>
      </trkpt>
      <trkpt lat="43.66652" lon="6.17226">
        <ele>630.1</ele>
        <time>2023-10-09T12:34:37Z</time>
      </trkpt>
      <trkpt lat="43.66653" lon="6.17226">
        <ele>630.1</ele>
        <time>2023-10-09T12:34:38Z</time>
      </trkpt>
      <trkpt lat="43.66654" lon="6.17227">
        <ele>630.2</ele>
        <time>2023-10-09T12:34:39Z</time>
      </trkpt>
      <trkpt lat="43.66656" lon="6.17227">
        <ele>630.2</ele>
        <time>2023-10-09T12:34:40Z</time>
      </trkpt>
      <trkpt lat="43.66658" lon="6.17228">
        <ele>630.2</ele>
        <time>2023-10-09T12:34:41Z</time>
      </trkpt>
      <trkpt lat="43.66658" lon="6.17229">
        <ele>630.2</ele>
        <time>2023-10-09T12:34:42Z</time>
      </trkpt>
      <trkpt lat="43.66659" lon="6.17229">
        <ele>630.2</ele>
        <time>2023-10-09T12:34:43Z</time>
      </trkpt>
      <trkpt lat="43.6666" lon="6.1723">
        <ele>630.3</ele>
        <time>2023-10-09T12:34:44Z</time>
      </trkpt>
      <trkpt lat="43.66661" lon="6.1723">
        <ele>630.3</ele>
        <time>2023-10-09T12:34:45Z</time>
      </trkpt>
      <trkpt lat="43.66662" lon="6.1723">
        <ele>630.3</ele>
        <time>2023-10-09T12:34:46Z</time>
      </trkpt>
      <trkpt lat="43.66664" lon="6.17231">
        <ele>630.3</ele>
        <time>2023-10-09T12:34:47Z</time>
      </trkpt>
      <trkpt lat="43.66665" lon="6.17231">
        <ele>630.3</ele>
        <time>2023-10-09T12:34:48Z</time>
      </trkpt>
      <trkpt lat="43.66665" lon="6.17231">
        <ele>630.3</ele>
        <time>2023-10-09T12:34:49Z</time>
      </trkpt>
      <trkpt lat="43.66666" lon="6.17231">
        <ele>630.3</ele>
        <time>2023-10-09T12:34:50Z</time>
      </trkpt>
      <trkpt lat="43.66667" lon="6.17232">
        <ele>630.4</ele>
        <time>2023-10-09T12:34:51Z</time>
      </trkpt>
      <trkpt lat="43.66669" lon="6.17232">
        <ele>630.5</ele>
        <time>2023-10-09T12:34:52Z</time>
      </trkpt>
      <trkpt lat="43.6667" lon="6.17233">
        <ele>630.5</ele>
        <time>2023-10-09T12:34:53Z</time>
      </trkpt>
      <trkpt lat="43.66672" lon="6.17233">
        <ele>630.6</ele>
        <time>2023-10-09T12:34:54Z</time>
      </trkpt>
      <trkpt lat="43.66673" lon="6.17234">
        <ele>630.7</ele>
        <time>2023-10-09T12:34:55Z</time>
      </trkpt>
      <trkpt lat="43.66674" lon="6.17234">
        <ele>630.7</ele>
        <time>2023-10-09T12:34:56Z</time>
      </trkpt>
      <trkpt lat="43.66676" lon="6.17235">
        <ele>630.8</ele>
        <time>2023-10-09T12:34:57Z</time>
      </trkpt>
      <trkpt lat="43.66677" lon="6.17235">
        <ele>630.9</ele>
        <time>2023-10-09T12:34:58Z</time>
      </trkpt>
      <trkpt lat="43.66678" lon="6.17235">
        <ele>630.9</ele>
        <time>2023-10-09T12:34:59Z</time>
      </trkpt>
      <trkpt lat="43.66679" lon="6.17236">
        <ele>630.9</ele>
        <time>2023-10-09T12:35:00Z</time>
      </trkpt>
      <trkpt lat="43.6668" lon="6.17236">
        <ele>631</ele>
        <time>2023-10-09T12:35:01Z</time>
      </trkpt>
      <trkpt lat="43.66681" lon="6.17237">
        <ele>631</ele>
        <time>2023-10-09T12:35:02Z</time>
      </trkpt>
      <trkpt lat="43.66682" lon="6.17238">
        <ele>631</ele>
        <time>2023-10-09T12:35:03Z</time>
      </trkpt>
      <trkpt lat="43.66683" lon="6.17239">
        <ele>631.1</ele>
        <time>2023-10-09T12:35:04Z</time>
      </trkpt>
      <trkpt lat="43.66684" lon="6.17239">
        <ele>631.1</ele>
        <time>2023-10-09T12:35:05Z</time>
      </trkpt>
      <trkpt lat="43.66686" lon="6.17241">
        <ele>631.1</ele>
        <time>2023-10-09T12:35:06Z</time>
      </trkpt>
      <trkpt lat="43.66686" lon="6.17242">
        <ele>631.1</ele>
        <time>2023-10-09T12:35:07Z</time>
      </trkpt>
      <trkpt lat="43.66687" lon="6.17243">
        <ele>631.1</ele>
        <time>2023-10-09T12:35:08Z</time>
      </trkpt>
      <trkpt lat="43.66688" lon="6.17244">
        <ele>631.1</ele>
        <time>2023-10-09T12:35:09Z</time>
      </trkpt>
      <trkpt lat="43.66689" lon="6.17245">
        <ele>631.1</ele>
        <time>2023-10-09T12:35:10Z</time>
      </trkpt>
      <trkpt lat="43.66689" lon="6.17246">
        <ele>631.1</ele>
        <time>2023-10-09T12:35:11Z</time>
      </trkpt>
      <trkpt lat="43.6669" lon="6.17247">
        <ele>631.1</ele>
        <time>2023-10-09T12:35:12Z</time>
      </trkpt>
      <trkpt lat="43.66691" lon="6.17248">
        <ele>631.1</ele>
        <time>2023-10-09T12:35:13Z</time>
      </trkpt>
      <trkpt lat="43.66691" lon="6.17249">
        <ele>631</ele>
        <time>2023-10-09T12:35:14Z</time>
      </trkpt>
      <trkpt lat="43.66692" lon="6.1725">
        <ele>631</ele>
        <time>2023-10-09T12:35:15Z</time>
      </trkpt>
      <trkpt lat="43.66693" lon="6.17251">
        <ele>631</ele>
        <time>2023-10-09T12:35:16Z</time>
      </trkpt>
      <trkpt lat="43.66694" lon="6.17252">
        <ele>631.1</ele>
        <time>2023-10-09T12:35:17Z</time>
      </trkpt>
      <trkpt lat="43.66695" lon="6.17253">
        <ele>631.1</ele>
        <time>2023-10-09T12:35:18Z</time>
      </trkpt>
      <trkpt lat="43.66696" lon="6.17254">
        <ele>631.2</ele>
        <time>2023-10-09T12:35:19Z</time>
      </trkpt>
      <trkpt lat="43.66697" lon="6.17255">
        <ele>631.3</ele>
        <time>2023-10-09T12:35:20Z</time>
      </trkpt>
      <trkpt lat="43.66698" lon="6.17256">
        <ele>631.4</ele>
        <time>2023-10-09T12:35:21Z</time>
      </trkpt>
      <trkpt lat="43.66699" lon="6.17256">
        <ele>631.5</ele>
        <time>2023-10-09T12:35:22Z</time>
      </trkpt>
      <trkpt lat="43.667" lon="6.17257">
        <ele>631.6</ele>
        <time>2023-10-09T12:35:23Z</time>
      </trkpt>
      <trkpt lat="43.66701" lon="6.17258">
        <ele>631.7</ele>
        <time>2023-10-09T12:35:24Z</time>
      </trkpt>
      <trkpt lat="43.66702" lon="6.17258">
        <ele>631.8</ele>
        <time>2023-10-09T12:35:25Z</time>
      </trkpt>
      <trkpt lat="43.66704" lon="6.1726">
        <ele>631.9</ele>
        <time>2023-10-09T12:35:26Z</time>
      </trkpt>
      <trkpt lat="43.66705" lon="6.1726">
        <ele>632</ele>
        <time>2023-10-09T12:35:27Z</time>
      </trkpt>
      <trkpt lat="43.66706" lon="6.17261">
        <ele>632.1</ele>
        <time>2023-10-09T12:35:28Z</time>
      </trkpt>
      <trkpt lat="43.66708" lon="6.17261">
        <ele>632.2</ele>
        <time>2023-10-09T12:35:29Z</time>
      </trkpt>
      <trkpt lat="43.66709" lon="6.17262">
        <ele>632.3</ele>
        <time>2023-10-09T12:35:30Z</time>
      </trkpt>
      <trkpt lat="43.66709" lon="6.17262">
        <ele>632.3</ele>
        <time>2023-10-09T12:35:31Z</time>
      </trkpt>
      <trkpt lat="43.6671" lon="6.17262">
        <ele>632.3</ele>
        <time>2023-10-09T12:35:32Z</time>
      </trkpt>
      <trkpt lat="43.66711" lon="6.17262">
        <ele>632.4</ele>
        <time>2023-10-09T12:35:33Z</time>
      </trkpt>
      <trkpt lat="43.66712" lon="6.17263">
        <ele>632.4</ele>
        <time>2023-10-09T12:35:34Z</time>
      </trkpt>
      <trkpt lat="43.66713" lon="6.17263">
        <ele>632.5</ele>
        <time>2023-10-09T12:35:35Z</time>
      </trkpt>
      <trkpt lat="43.66714" lon="6.17264">
        <ele>632.6</ele>
        <time>2023-10-09T12:35:36Z</time>
      </trkpt>
      <trkpt lat="43.66716" lon="6.17265">
        <ele>632.7</ele>
        <time>2023-10-09T12:35:37Z</time>
      </trkpt>
      <trkpt lat="43.66718" lon="6.17265">
        <ele>632.8</ele>
        <time>2023-10-09T12:35:38Z</time>
      </trkpt>
      <trkpt lat="43.66718" lon="6.17265">
        <ele>632.8</ele>
        <time>2023-10-09T12:35:39Z</time>
      </trkpt>
      <trkpt lat="43.66719" lon="6.17265">
        <ele>632.8</ele>
        <time>2023-10-09T12:35:40Z</time>
      </trkpt>
      <trkpt lat="43.6672" lon="6.17265">
        <ele>632.9</ele>
        <time>2023-10-09T12:35:41Z</time>
      </trkpt>
      <trkpt lat="43.66721" lon="6.17266">
        <ele>632.9</ele>
        <time>2023-10-09T12:35:42Z</time>
      </trkpt>
      <trkpt lat="43.66722" lon="6.17266">
        <ele>633</ele>
        <time>2023-10-09T12:35:43Z</time>
      </trkpt>
      <trkpt lat="43.66723" lon="6.17266">
        <ele>633</ele>
        <time>2023-10-09T12:35:44Z</time>
      </trkpt>
      <trkpt lat="43.66725" lon="6.17266">
        <ele>633.1</ele>
        <time>2023-10-09T12:35:45Z</time>
      </trkpt>
      <trkpt lat="43.66726" lon="6.17265">
        <ele>633.1</ele>
        <time>2023-10-09T12:35:46Z</time>
      </trkpt>
      <trkpt lat="43.66727" lon="6.17265">
        <ele>633.2</ele>
        <time>2023-10-09T12:35:47Z</time>
      </trkpt>
      <trkpt lat="43.66728" lon="6.17265">
        <ele>633.2</ele>
        <time>2023-10-09T12:35:48Z</time>
      </trkpt>
      <trkpt lat="43.66729" lon="6.17265">
        <ele>633.2</ele>
        <time>2023-10-09T12:35:49Z</time>
      </trkpt>
      <trkpt lat="43.6673" lon="6.17265">
        <ele>633.3</ele>
        <time>2023-10-09T12:35:50Z</time>
      </trkpt>
      <trkpt lat="43.66731" lon="6.17265">
        <ele>633.3</ele>
        <time>2023-10-09T12:35:51Z</time>
      </trkpt>
      <trkpt lat="43.66732" lon="6.17264">
        <ele>633.4</ele>
        <time>2023-10-09T12:35:52Z</time>
      </trkpt>
      <trkpt lat="43.66732" lon="6.17264">
        <ele>633.4</ele>
        <time>2023-10-09T12:35:53Z</time>
      </trkpt>
      <trkpt lat="43.66733" lon="6.17264">
        <ele>633.4</ele>
        <time>2023-10-09T12:35:54Z</time>
      </trkpt>
      <trkpt lat="43.66734" lon="6.17264">
        <ele>633.4</ele>
        <time>2023-10-09T12:35:55Z</time>
      </trkpt>
      <trkpt lat="43.66735" lon="6.17264">
        <ele>633.5</ele>
        <time>2023-10-09T12:35:56Z</time>
      </trkpt>
      <trkpt lat="43.66736" lon="6.17264">
        <ele>633.5</ele>
        <time>2023-10-09T12:35:57Z</time>
      </trkpt>
      <trkpt lat="43.66737" lon="6.17264">
        <ele>633.5</ele>
        <time>2023-10-09T12:35:58Z</time>
      </trkpt>
      <trkpt lat="43.66738" lon="6.17264">
        <ele>633.6</ele>
        <time>2023-10-09T12:35:59Z</time>
      </trkpt>
      <trkpt lat="43.66739" lon="6.17265">
        <ele>633.6</ele>
        <time>2023-10-09T12:36:00Z</time>
      </trkpt>
      <trkpt lat="43.6674" lon="6.17265">
        <ele>633.6</ele>
        <time>2023-10-09T12:36:01Z</time>
      </trkpt>
      <trkpt lat="43.66741" lon="6.17265">
        <ele>633.7</ele>
        <time>2023-10-09T12:36:02Z</time>
      </trkpt>
      <trkpt lat="43.66742" lon="6.17265">
        <ele>633.7</ele>
        <time>2023-10-09T12:36:03Z</time>
      </trkpt>
      <trkpt lat="43.66743" lon="6.17265">
        <ele>633.7</ele>
        <time>2023-10-09T12:36:04Z</time>
      </trkpt>
      <trkpt lat="43.66744" lon="6.17265">
        <ele>633.8</ele>
        <time>2023-10-09T12:36:05Z</time>
      </trkpt>
      <trkpt lat="43.66745" lon="6.17265">
        <ele>633.8</ele>
        <time>2023-10-09T12:36:06Z</time>
      </trkpt>
      <trkpt lat="43.66746" lon="6.17265">
        <ele>633.9</ele>
        <time>2023-10-09T12:36:07Z</time>
      </trkpt>
      <trkpt lat="43.66747" lon="6.17265">
        <ele>633.9</ele>
        <time>2023-10-09T12:36:08Z</time>
      </trkpt>
      <trkpt lat="43.66748" lon="6.17265">
        <ele>633.9</ele>
        <time>2023-10-09T12:36:09Z</time>
      </trkpt>
      <trkpt lat="43.66749" lon="6.17265">
        <ele>634</ele>
        <time>2023-10-09T12:36:10Z</time>
      </trkpt>
      <trkpt lat="43.6675" lon="6.17265">
        <ele>634</ele>
        <time>2023-10-09T12:36:11Z</time>
      </trkpt>
      <trkpt lat="43.66751" lon="6.17265">
        <ele>634</ele>
        <time>2023-10-09T12:36:12Z</time>
      </trkpt>
      <trkpt lat="43.66753" lon="6.17265">
        <ele>634.1</ele>
        <time>2023-10-09T12:36:13Z</time>
      </trkpt>
      <trkpt lat="43.66754" lon="6.17265">
        <ele>634.1</ele>
        <time>2023-10-09T12:36:14Z</time>
      </trkpt>
      <trkpt lat="43.66756" lon="6.17266">
        <ele>634.1</ele>
        <time>2023-10-09T12:36:16Z</time>
      </trkpt>
      <trkpt lat="43.66757" lon="6.17266">
        <ele>634.1</ele>
        <time>2023-10-09T12:36:17Z</time>
      </trkpt>
      <trkpt lat="43.66758" lon="6.17266">
        <ele>634.2</ele>
        <time>2023-10-09T12:36:18Z</time>
      </trkpt>
      <trkpt lat="43.66759" lon="6.17266">
        <ele>634.2</ele>
        <time>2023-10-09T12:36:19Z</time>
      </trkpt>
      <trkpt lat="43.66761" lon="6.17266">
        <ele>634.2</ele>
        <time>2023-10-09T12:36:20Z</time>
      </trkpt>
      <trkpt lat="43.66762" lon="6.17266">
        <ele>634.2</ele>
        <time>2023-10-09T12:36:21Z</time>
      </trkpt>
      <trkpt lat="43.66765" lon="6.17267">
        <ele>634.3</ele>
        <time>2023-10-09T12:36:22Z</time>
      </trkpt>
      <trkpt lat="43.66765" lon="6.17267">
        <ele>634.3</ele>
        <time>2023-10-09T12:36:23Z</time>
      </trkpt>
      <trkpt lat="43.66766" lon="6.17267">
        <ele>634.4</ele>
        <time>2023-10-09T12:36:24Z</time>
      </trkpt>
      <trkpt lat="43.66768" lon="6.17267">
        <ele>634.4</ele>
        <time>2023-10-09T12:36:25Z</time>
      </trkpt>
      <trkpt lat="43.66769" lon="6.17268">
        <ele>634.4</ele>
        <time>2023-10-09T12:36:26Z</time>
      </trkpt>
      <trkpt lat="43.66771" lon="6.17268">
        <ele>634.5</ele>
        <time>2023-10-09T12:36:27Z</time>
      </trkpt>
      <trkpt lat="43.66772" lon="6.17269">
        <ele>634.5</ele>
        <time>2023-10-09T12:36:28Z</time>
      </trkpt>
      <trkpt lat="43.66773" lon="6.1727">
        <ele>634.6</ele>
        <time>2023-10-09T12:36:29Z</time>
      </trkpt>
      <trkpt lat="43.66775" lon="6.1727">
        <ele>634.6</ele>
        <time>2023-10-09T12:36:30Z</time>
      </trkpt>
      <trkpt lat="43.66776" lon="6.17271">
        <ele>634.7</ele>
        <time>2023-10-09T12:36:31Z</time>
      </trkpt>
      <trkpt lat="43.66777" lon="6.17271">
        <ele>634.7</ele>
        <time>2023-10-09T12:36:32Z</time>
      </trkpt>
      <trkpt lat="43.66778" lon="6.17272">
        <ele>634.8</ele>
        <time>2023-10-09T12:36:33Z</time>
      </trkpt>
      <trkpt lat="43.6678" lon="6.17272">
        <ele>634.8</ele>
        <time>2023-10-09T12:36:34Z</time>
      </trkpt>
      <trkpt lat="43.66781" lon="6.17272">
        <ele>634.8</ele>
        <time>2023-10-09T12:36:35Z</time>
      </trkpt>
      <trkpt lat="43.66782" lon="6.17272">
        <ele>634.8</ele>
        <time>2023-10-09T12:36:36Z</time>
      </trkpt>
      <trkpt lat="43.66783" lon="6.17273">
        <ele>634.9</ele>
        <time>2023-10-09T12:36:37Z</time>
      </trkpt>
      <trkpt lat="43.66784" lon="6.17273">
        <ele>634.9</ele>
        <time>2023-10-09T12:36:38Z</time>
      </trkpt>
      <trkpt lat="43.66785" lon="6.17273">
        <ele>634.9</ele>
        <time>2023-10-09T12:36:39Z</time>
      </trkpt>
      <trkpt lat="43.66786" lon="6.17274">
        <ele>634.9</ele>
        <time>2023-10-09T12:36:40Z</time>
      </trkpt>
      <trkpt lat="43.66787" lon="6.17274">
        <ele>634.9</ele>
        <time>2023-10-09T12:36:41Z</time>
      </trkpt>
      <trkpt lat="43.66788" lon="6.17274">
        <ele>634.9</ele>
        <time>2023-10-09T12:36:42Z</time>
      </trkpt>
      <trkpt lat="43.66789" lon="6.17274">
        <ele>634.9</ele>
        <time>2023-10-09T12:36:43Z</time>
      </trkpt>
      <trkpt lat="43.66789" lon="6.17274">
        <ele>634.9</ele>
        <time>2023-10-09T12:36:44Z</time>
      </trkpt>
      <trkpt lat="43.6679" lon="6.17274">
        <ele>634.9</ele>
        <time>2023-10-09T12:36:45Z</time>
      </trkpt>
      <trkpt lat="43.66791" lon="6.17274">
        <ele>634.9</ele>
        <time>2023-10-09T12:36:46Z</time>
      </trkpt>
      <trkpt lat="43.66792" lon="6.17275">
        <ele>635</ele>
        <time>2023-10-09T12:36:47Z</time>
      </trkpt>
      <trkpt lat="43.66793" lon="6.17275">
        <ele>635</ele>
        <time>2023-10-09T12:36:48Z</time>
      </trkpt>
      <trkpt lat="43.66794" lon="6.17276">
        <ele>635</ele>
        <time>2023-10-09T12:36:49Z</time>
      </trkpt>
      <trkpt lat="43.66796" lon="6.17276">
        <ele>635</ele>
        <time>2023-10-09T12:36:50Z</time>
      </trkpt>
      <trkpt lat="43.66797" lon="6.17276">
        <ele>635</ele>
        <time>2023-10-09T12:36:51Z</time>
      </trkpt>
      <trkpt lat="43.66797" lon="6.17277">
        <ele>635</ele>
        <time>2023-10-09T12:36:52Z</time>
      </trkpt>
      <trkpt lat="43.66798" lon="6.17278">
        <ele>635</ele>
        <time>2023-10-09T12:36:53Z</time>
      </trkpt>
      <trkpt lat="43.66799" lon="6.17278">
        <ele>635</ele>
        <time>2023-10-09T12:36:54Z</time>
      </trkpt>
      <trkpt lat="43.66801" lon="6.17279">
        <ele>635</ele>
        <time>2023-10-09T12:36:55Z</time>
      </trkpt>
      <trkpt lat="43.66802" lon="6.17279">
        <ele>635</ele>
        <time>2023-10-09T12:36:56Z</time>
      </trkpt>
      <trkpt lat="43.66803" lon="6.17279">
        <ele>635</ele>
        <time>2023-10-09T12:36:57Z</time>
      </trkpt>
      <trkpt lat="43.66804" lon="6.1728">
        <ele>635.1</ele>
        <time>2023-10-09T12:36:58Z</time>
      </trkpt>
      <trkpt lat="43.66806" lon="6.1728">
        <ele>635.1</ele>
        <time>2023-10-09T12:36:59Z</time>
      </trkpt>
      <trkpt lat="43.66807" lon="6.1728">
        <ele>635.1</ele>
        <time>2023-10-09T12:37:00Z</time>
      </trkpt>
      <trkpt lat="43.66808" lon="6.17281">
        <ele>635.2</ele>
        <time>2023-10-09T12:37:01Z</time>
      </trkpt>
      <trkpt lat="43.66809" lon="6.17281">
        <ele>635.2</ele>
        <time>2023-10-09T12:37:02Z</time>
      </trkpt>
      <trkpt lat="43.6681" lon="6.17281">
        <ele>635.3</ele>
        <time>2023-10-09T12:37:03Z</time>
      </trkpt>
      <trkpt lat="43.66811" lon="6.17281">
        <ele>635.3</ele>
        <time>2023-10-09T12:37:04Z</time>
      </trkpt>
      <trkpt lat="43.66812" lon="6.17281">
        <ele>635.3</ele>
        <time>2023-10-09T12:37:05Z</time>
      </trkpt>
      <trkpt lat="43.66813" lon="6.17281">
        <ele>635.4</ele>
        <time>2023-10-09T12:37:06Z</time>
      </trkpt>
      <trkpt lat="43.66814" lon="6.17281">
        <ele>635.4</ele>
        <time>2023-10-09T12:37:07Z</time>
      </trkpt>
      <trkpt lat="43.66815" lon="6.17281">
        <ele>635.5</ele>
        <time>2023-10-09T12:37:08Z</time>
      </trkpt>
      <trkpt lat="43.66816" lon="6.17281">
        <ele>635.5</ele>
        <time>2023-10-09T12:37:09Z</time>
      </trkpt>
      <trkpt lat="43.66817" lon="6.17282">
        <ele>635.6</ele>
        <time>2023-10-09T12:37:10Z</time>
      </trkpt>
      <trkpt lat="43.66818" lon="6.17282">
        <ele>635.6</ele>
        <time>2023-10-09T12:37:11Z</time>
      </trkpt>
      <trkpt lat="43.66819" lon="6.17282">
        <ele>635.6</ele>
        <time>2023-10-09T12:37:12Z</time>
      </trkpt>
      <trkpt lat="43.66821" lon="6.17282">
        <ele>635.7</ele>
        <time>2023-10-09T12:37:13Z</time>
      </trkpt>
      <trkpt lat="43.66822" lon="6.17282">
        <ele>635.7</ele>
        <time>2023-10-09T12:37:14Z</time>
      </trkpt>
      <trkpt lat="43.66823" lon="6.17282">
        <ele>635.8</ele>
        <time>2023-10-09T12:37:15Z</time>
      </trkpt>
      <trkpt lat="43.66824" lon="6.17283">
        <ele>635.9</ele>
        <time>2023-10-09T12:37:16Z</time>
      </trkpt>
      <trkpt lat="43.66825" lon="6.17283">
        <ele>635.9</ele>
        <time>2023-10-09T12:37:17Z</time>
      </trkpt>
      <trkpt lat="43.66826" lon="6.17283">
        <ele>635.9</ele>
        <time>2023-10-09T12:37:18Z</time>
      </trkpt>
      <trkpt lat="43.66826" lon="6.17284">
        <ele>636</ele>
        <time>2023-10-09T12:37:19Z</time>
      </trkpt>
      <trkpt lat="43.66827" lon="6.17285">
        <ele>636</ele>
        <time>2023-10-09T12:37:20Z</time>
      </trkpt>
      <trkpt lat="43.66828" lon="6.17286">
        <ele>636.1</ele>
        <time>2023-10-09T12:37:21Z</time>
      </trkpt>
      <trkpt lat="43.66829" lon="6.17287">
        <ele>636.2</ele>
        <time>2023-10-09T12:37:22Z</time>
      </trkpt>
      <trkpt lat="43.6683" lon="6.17287">
        <ele>636.2</ele>
        <time>2023-10-09T12:37:23Z</time>
      </trkpt>
      <trkpt lat="43.66831" lon="6.17288">
        <ele>636.3</ele>
        <time>2023-10-09T12:37:24Z</time>
      </trkpt>
      <trkpt lat="43.66832" lon="6.17288">
        <ele>636.3</ele>
        <time>2023-10-09T12:37:25Z</time>
      </trkpt>
      <trkpt lat="43.66833" lon="6.17289">
        <ele>636.4</ele>
        <time>2023-10-09T12:37:26Z</time>
      </trkpt>
      <trkpt lat="43.66834" lon="6.1729">
        <ele>636.4</ele>
        <time>2023-10-09T12:37:27Z</time>
      </trkpt>
      <trkpt lat="43.66835" lon="6.1729">
        <ele>636.4</ele>
        <time>2023-10-09T12:37:28Z</time>
      </trkpt>
      <trkpt lat="43.66837" lon="6.17291">
        <ele>636.4</ele>
        <time>2023-10-09T12:37:29Z</time>
      </trkpt>
      <trkpt lat="43.66838" lon="6.17292">
        <ele>636.4</ele>
        <time>2023-10-09T12:37:30Z</time>
      </trkpt>
      <trkpt lat="43.66839" lon="6.17292">
        <ele>636.4</ele>
        <time>2023-10-09T12:37:31Z</time>
      </trkpt>
      <trkpt lat="43.6684" lon="6.17292">
        <ele>636.4</ele>
        <time>2023-10-09T12:37:32Z</time>
      </trkpt>
      <trkpt lat="43.66841" lon="6.17292">
        <ele>636.4</ele>
        <time>2023-10-09T12:37:33Z</time>
      </trkpt>
      <trkpt lat="43.66842" lon="6.17293">
        <ele>636.4</ele>
        <time>2023-10-09T12:37:34Z</time>
      </trkpt>
      <trkpt lat="43.66844" lon="6.17293">
        <ele>636.4</ele>
        <time>2023-10-09T12:37:35Z</time>
      </trkpt>
      <trkpt lat="43.66845" lon="6.17294">
        <ele>636.4</ele>
        <time>2023-10-09T12:37:36Z</time>
      </trkpt>
      <trkpt lat="43.66847" lon="6.17295">
        <ele>636.4</ele>
        <time>2023-10-09T12:37:37Z</time>
      </trkpt>
      <trkpt lat="43.66848" lon="6.17295">
        <ele>636.4</ele>
        <time>2023-10-09T12:37:38Z</time>
      </trkpt>
      <trkpt lat="43.66849" lon="6.17295">
        <ele>636.4</ele>
        <time>2023-10-09T12:37:39Z</time>
      </trkpt>
      <trkpt lat="43.66851" lon="6.17295">
        <ele>636.4</ele>
        <time>2023-10-09T12:37:40Z</time>
      </trkpt>
      <trkpt lat="43.66852" lon="6.17295">
        <ele>636.4</ele>
        <time>2023-10-09T12:37:41Z</time>
      </trkpt>
      <trkpt lat="43.66853" lon="6.17295">
        <ele>636.4</ele>
        <time>2023-10-09T12:37:42Z</time>
      </trkpt>
      <trkpt lat="43.66854" lon="6.17295">
        <ele>636.3</ele>
        <time>2023-10-09T12:37:43Z</time>
      </trkpt>
      <trkpt lat="43.66855" lon="6.17295">
        <ele>636.3</ele>
        <time>2023-10-09T12:37:44Z</time>
      </trkpt>
      <trkpt lat="43.66857" lon="6.17295">
        <ele>636.3</ele>
        <time>2023-10-09T12:37:45Z</time>
      </trkpt>
      <trkpt lat="43.66858" lon="6.17295">
        <ele>636.3</ele>
        <time>2023-10-09T12:37:46Z</time>
      </trkpt>
      <trkpt lat="43.66859" lon="6.17295">
        <ele>636.3</ele>
        <time>2023-10-09T12:37:47Z</time>
      </trkpt>
      <trkpt lat="43.6686" lon="6.17296">
        <ele>636.3</ele>
        <time>2023-10-09T12:37:48Z</time>
      </trkpt>
      <trkpt lat="43.66861" lon="6.17296">
        <ele>636.3</ele>
        <time>2023-10-09T12:37:49Z</time>
      </trkpt>
      <trkpt lat="43.66862" lon="6.17297">
        <ele>636.4</ele>
        <time>2023-10-09T12:37:50Z</time>
      </trkpt>
      <trkpt lat="43.66864" lon="6.17297">
        <ele>636.5</ele>
        <time>2023-10-09T12:37:51Z</time>
      </trkpt>
      <trkpt lat="43.66865" lon="6.17297">
        <ele>636.5</ele>
        <time>2023-10-09T12:37:52Z</time>
      </trkpt>
      <trkpt lat="43.66866" lon="6.17297">
        <ele>636.5</ele>
        <time>2023-10-09T12:37:53Z</time>
      </trkpt>
      <trkpt lat="43.66868" lon="6.17297">
        <ele>636.6</ele>
        <time>2023-10-09T12:37:54Z</time>
      </trkpt>
      <trkpt lat="43.66869" lon="6.17297">
        <ele>636.6</ele>
        <time>2023-10-09T12:37:55Z</time>
      </trkpt>
      <trkpt lat="43.66871" lon="6.17297">
        <ele>636.6</ele>
        <time>2023-10-09T12:37:56Z</time>
      </trkpt>
      <trkpt lat="43.66872" lon="6.17297">
        <ele>636.7</ele>
        <time>2023-10-09T12:37:57Z</time>
      </trkpt>
      <trkpt lat="43.66873" lon="6.17297">
        <ele>636.7</ele>
        <time>2023-10-09T12:37:58Z</time>
      </trkpt>
      <trkpt lat="43.66875" lon="6.17297">
        <ele>636.7</ele>
        <time>2023-10-09T12:37:59Z</time>
      </trkpt>
      <trkpt lat="43.66876" lon="6.17297">
        <ele>636.8</ele>
        <time>2023-10-09T12:38:00Z</time>
      </trkpt>
      <trkpt lat="43.66877" lon="6.17297">
        <ele>636.8</ele>
        <time>2023-10-09T12:38:01Z</time>
      </trkpt>
      <trkpt lat="43.66878" lon="6.17298">
        <ele>636.9</ele>
        <time>2023-10-09T12:38:02Z</time>
      </trkpt>
      <trkpt lat="43.66879" lon="6.17298">
        <ele>636.9</ele>
        <time>2023-10-09T12:38:03Z</time>
      </trkpt>
      <trkpt lat="43.6688" lon="6.17298">
        <ele>637</ele>
        <time>2023-10-09T12:38:04Z</time>
      </trkpt>
      <trkpt lat="43.66881" lon="6.17299">
        <ele>637.1</ele>
        <time>2023-10-09T12:38:05Z</time>
      </trkpt>
      <trkpt lat="43.66882" lon="6.17299">
        <ele>637.1</ele>
        <time>2023-10-09T12:38:06Z</time>
      </trkpt>
      <trkpt lat="43.66883" lon="6.17299">
        <ele>637.1</ele>
        <time>2023-10-09T12:38:07Z</time>
      </trkpt>
      <trkpt lat="43.66885" lon="6.17299">
        <ele>637.2</ele>
        <time>2023-10-09T12:38:08Z</time>
      </trkpt>
      <trkpt lat="43.66886" lon="6.17299">
        <ele>637.2</ele>
        <time>2023-10-09T12:38:09Z</time>
      </trkpt>
      <trkpt lat="43.66887" lon="6.173">
        <ele>637.3</ele>
        <time>2023-10-09T12:38:10Z</time>
      </trkpt>
      <trkpt lat="43.66888" lon="6.173">
        <ele>637.4</ele>
        <time>2023-10-09T12:38:11Z</time>
      </trkpt>
      <trkpt lat="43.66889" lon="6.17301">
        <ele>637.5</ele>
        <time>2023-10-09T12:38:12Z</time>
      </trkpt>
      <trkpt lat="43.6689" lon="6.17301">
        <ele>637.5</ele>
        <time>2023-10-09T12:38:13Z</time>
      </trkpt>
      <trkpt lat="43.66891" lon="6.17301">
        <ele>637.5</ele>
        <time>2023-10-09T12:38:14Z</time>
      </trkpt>
      <trkpt lat="43.66892" lon="6.17301">
        <ele>637.5</ele>
        <time>2023-10-09T12:38:15Z</time>
      </trkpt>
      <trkpt lat="43.66893" lon="6.17301">
        <ele>637.5</ele>
        <time>2023-10-09T12:38:16Z</time>
      </trkpt>
      <trkpt lat="43.66893" lon="6.17302">
        <ele>637.6</ele>
        <time>2023-10-09T12:38:17Z</time>
      </trkpt>
      <trkpt lat="43.66894" lon="6.17302">
        <ele>637.6</ele>
        <time>2023-10-09T12:38:18Z</time>
      </trkpt>
      <trkpt lat="43.66895" lon="6.17302">
        <ele>637.6</ele>
        <time>2023-10-09T12:38:19Z</time>
      </trkpt>
      <trkpt lat="43.66895" lon="6.17302">
        <ele>637.6</ele>
        <time>2023-10-09T12:38:20Z</time>
      </trkpt>
      <trkpt lat="43.66896" lon="6.17302">
        <ele>637.6</ele>
        <time>2023-10-09T12:38:21Z</time>
      </trkpt>
      <trkpt lat="43.66898" lon="6.17302">
        <ele>637.7</ele>
        <time>2023-10-09T12:38:22Z</time>
      </trkpt>
      <trkpt lat="43.669" lon="6.17301">
        <ele>637.6</ele>
        <time>2023-10-09T12:38:23Z</time>
      </trkpt>
      <trkpt lat="43.66901" lon="6.17301">
        <ele>637.6</ele>
        <time>2023-10-09T12:38:24Z</time>
      </trkpt>
      <trkpt lat="43.66901" lon="6.17301">
        <ele>637.6</ele>
        <time>2023-10-09T12:38:25Z</time>
      </trkpt>
      <trkpt lat="43.66902" lon="6.17301">
        <ele>637.6</ele>
        <time>2023-10-09T12:38:26Z</time>
      </trkpt>
      <trkpt lat="43.66903" lon="6.173">
        <ele>637.5</ele>
        <time>2023-10-09T12:38:27Z</time>
      </trkpt>
      <trkpt lat="43.66904" lon="6.173">
        <ele>637.5</ele>
        <time>2023-10-09T12:38:28Z</time>
      </trkpt>
      <trkpt lat="43.66905" lon="6.173">
        <ele>637.5</ele>
        <time>2023-10-09T12:38:29Z</time>
      </trkpt>
      <trkpt lat="43.66906" lon="6.173">
        <ele>637.5</ele>
        <time>2023-10-09T12:38:30Z</time>
      </trkpt>
      <trkpt lat="43.66907" lon="6.173">
        <ele>637.5</ele>
        <time>2023-10-09T12:38:31Z</time>
      </trkpt>
      <trkpt lat="43.66909" lon="6.173">
        <ele>637.5</ele>
        <time>2023-10-09T12:38:32Z</time>
      </trkpt>
      <trkpt lat="43.6691" lon="6.17301">
        <ele>637.6</ele>
        <time>2023-10-09T12:38:33Z</time>
      </trkpt>
      <trkpt lat="43.66911" lon="6.17301">
        <ele>637.6</ele>
        <time>2023-10-09T12:38:34Z</time>
      </trkpt>
      <trkpt lat="43.66912" lon="6.17302">
        <ele>637.7</ele>
        <time>2023-10-09T12:38:35Z</time>
      </trkpt>
      <trkpt lat="43.66913" lon="6.17302">
        <ele>637.7</ele>
        <time>2023-10-09T12:38:36Z</time>
      </trkpt>
      <trkpt lat="43.66914" lon="6.17302">
        <ele>637.7</ele>
        <time>2023-10-09T12:38:37Z</time>
      </trkpt>
      <trkpt lat="43.66915" lon="6.17303">
        <ele>637.8</ele>
        <time>2023-10-09T12:38:38Z</time>
      </trkpt>
      <trkpt lat="43.66916" lon="6.17303">
        <ele>637.8</ele>
        <time>2023-10-09T12:38:39Z</time>
      </trkpt>
      <trkpt lat="43.66917" lon="6.17303">
        <ele>637.8</ele>
        <time>2023-10-09T12:38:40Z</time>
      </trkpt>
      <trkpt lat="43.66919" lon="6.17303">
        <ele>637.9</ele>
        <time>2023-10-09T12:38:41Z</time>
      </trkpt>
      <trkpt lat="43.6692" lon="6.17303">
        <ele>637.9</ele>
        <time>2023-10-09T12:38:42Z</time>
      </trkpt>
      <trkpt lat="43.66921" lon="6.17304">
        <ele>638.1</ele>
        <time>2023-10-09T12:38:43Z</time>
      </trkpt>
      <trkpt lat="43.66923" lon="6.17304">
        <ele>638.1</ele>
        <time>2023-10-09T12:38:44Z</time>
      </trkpt>
      <trkpt lat="43.66924" lon="6.17305">
        <ele>638.2</ele>
        <time>2023-10-09T12:38:45Z</time>
      </trkpt>
      <trkpt lat="43.66925" lon="6.17305">
        <ele>638.3</ele>
        <time>2023-10-09T12:38:46Z</time>
      </trkpt>
      <trkpt lat="43.66926" lon="6.17305">
        <ele>638.3</ele>
        <time>2023-10-09T12:38:47Z</time>
      </trkpt>
      <trkpt lat="43.66927" lon="6.17305">
        <ele>638.3</ele>
        <time>2023-10-09T12:38:48Z</time>
      </trkpt>
      <trkpt lat="43.66928" lon="6.17306">
        <ele>638.4</ele>
        <time>2023-10-09T12:38:49Z</time>
      </trkpt>
      <trkpt lat="43.66929" lon="6.17306">
        <ele>638.5</ele>
        <time>2023-10-09T12:38:50Z</time>
      </trkpt>
      <trkpt lat="43.6693" lon="6.17306">
        <ele>638.5</ele>
        <time>2023-10-09T12:38:51Z</time>
      </trkpt>
      <trkpt lat="43.66931" lon="6.17307">
        <ele>638.6</ele>
        <time>2023-10-09T12:38:52Z</time>
      </trkpt>
      <trkpt lat="43.66934" lon="6.17307">
        <ele>638.7</ele>
        <time>2023-10-09T12:38:53Z</time>
      </trkpt>
      <trkpt lat="43.66934" lon="6.17308">
        <ele>638.7</ele>
        <time>2023-10-09T12:38:54Z</time>
      </trkpt>
      <trkpt lat="43.66935" lon="6.17308">
        <ele>638.7</ele>
        <time>2023-10-09T12:38:55Z</time>
      </trkpt>
      <trkpt lat="43.66936" lon="6.17308">
        <ele>638.8</ele>
        <time>2023-10-09T12:38:56Z</time>
      </trkpt>
      <trkpt lat="43.66937" lon="6.17309">
        <ele>638.9</ele>
        <time>2023-10-09T12:38:57Z</time>
      </trkpt>
      <trkpt lat="43.66938" lon="6.17309">
        <ele>638.9</ele>
        <time>2023-10-09T12:38:58Z</time>
      </trkpt>
      <trkpt lat="43.66939" lon="6.17309">
        <ele>638.9</ele>
        <time>2023-10-09T12:38:59Z</time>
      </trkpt>
      <trkpt lat="43.6694" lon="6.17309">
        <ele>639</ele>
        <time>2023-10-09T12:39:00Z</time>
      </trkpt>
      <trkpt lat="43.66941" lon="6.17309">
        <ele>639</ele>
        <time>2023-10-09T12:39:01Z</time>
      </trkpt>
      <trkpt lat="43.66942" lon="6.17309">
        <ele>639</ele>
        <time>2023-10-09T12:39:02Z</time>
      </trkpt>
      <trkpt lat="43.66943" lon="6.17309">
        <ele>639.1</ele>
        <time>2023-10-09T12:39:03Z</time>
      </trkpt>
      <trkpt lat="43.66944" lon="6.17309">
        <ele>639.1</ele>
        <time>2023-10-09T12:39:04Z</time>
      </trkpt>
      <trkpt lat="43.66945" lon="6.17309">
        <ele>639.1</ele>
        <time>2023-10-09T12:39:05Z</time>
      </trkpt>
      <trkpt lat="43.66946" lon="6.1731">
        <ele>639.2</ele>
        <time>2023-10-09T12:39:06Z</time>
      </trkpt>
      <trkpt lat="43.66947" lon="6.1731">
        <ele>639.3</ele>
        <time>2023-10-09T12:39:07Z</time>
      </trkpt>
      <trkpt lat="43.66948" lon="6.1731">
        <ele>639.3</ele>
        <time>2023-10-09T12:39:08Z</time>
      </trkpt>
      <trkpt lat="43.66949" lon="6.17311">
        <ele>639.4</ele>
        <time>2023-10-09T12:39:09Z</time>
      </trkpt>
      <trkpt lat="43.66949" lon="6.17311">
        <ele>639.4</ele>
        <time>2023-10-09T12:39:10Z</time>
      </trkpt>
      <trkpt lat="43.6695" lon="6.17312">
        <ele>639.4</ele>
        <time>2023-10-09T12:39:11Z</time>
      </trkpt>
      <trkpt lat="43.66951" lon="6.17312">
        <ele>639.5</ele>
        <time>2023-10-09T12:39:12Z</time>
      </trkpt>
      <trkpt lat="43.66952" lon="6.17313">
        <ele>639.5</ele>
        <time>2023-10-09T12:39:13Z</time>
      </trkpt>
      <trkpt lat="43.66953" lon="6.17313">
        <ele>639.6</ele>
        <time>2023-10-09T12:39:14Z</time>
      </trkpt>
      <trkpt lat="43.66954" lon="6.17314">
        <ele>639.6</ele>
        <time>2023-10-09T12:39:15Z</time>
      </trkpt>
      <trkpt lat="43.66955" lon="6.17315">
        <ele>639.7</ele>
        <time>2023-10-09T12:39:16Z</time>
      </trkpt>
      <trkpt lat="43.66956" lon="6.17316">
        <ele>639.8</ele>
        <time>2023-10-09T12:39:17Z</time>
      </trkpt>
      <trkpt lat="43.66957" lon="6.17317">
        <ele>639.9</ele>
        <time>2023-10-09T12:39:18Z</time>
      </trkpt>
      <trkpt lat="43.66958" lon="6.17317">
        <ele>639.9</ele>
        <time>2023-10-09T12:39:19Z</time>
      </trkpt>
      <trkpt lat="43.66958" lon="6.17318">
        <ele>639.9</ele>
        <time>2023-10-09T12:39:20Z</time>
      </trkpt>
      <trkpt lat="43.66959" lon="6.17318">
        <ele>640</ele>
        <time>2023-10-09T12:39:21Z</time>
      </trkpt>
      <trkpt lat="43.6696" lon="6.17319">
        <ele>640</ele>
        <time>2023-10-09T12:39:22Z</time>
      </trkpt>
      <trkpt lat="43.6696" lon="6.1732">
        <ele>640.1</ele>
        <time>2023-10-09T12:39:23Z</time>
      </trkpt>
      <trkpt lat="43.66961" lon="6.1732">
        <ele>640.1</ele>
        <time>2023-10-09T12:39:24Z</time>
      </trkpt>
      <trkpt lat="43.66962" lon="6.17321">
        <ele>640.2</ele>
        <time>2023-10-09T12:39:25Z</time>
      </trkpt>
      <trkpt lat="43.66963" lon="6.17322">
        <ele>640.3</ele>
        <time>2023-10-09T12:39:26Z</time>
      </trkpt>
      <trkpt lat="43.66963" lon="6.17323">
        <ele>640.3</ele>
        <time>2023-10-09T12:39:27Z</time>
      </trkpt>
      <trkpt lat="43.66964" lon="6.17323">
        <ele>640.3</ele>
        <time>2023-10-09T12:39:28Z</time>
      </trkpt>
      <trkpt lat="43.66965" lon="6.17324">
        <ele>640.4</ele>
        <time>2023-10-09T12:39:29Z</time>
      </trkpt>
      <trkpt lat="43.66966" lon="6.17325">
        <ele>640.5</ele>
        <time>2023-10-09T12:39:30Z</time>
      </trkpt>
      <trkpt lat="43.66967" lon="6.17326">
        <ele>640.5</ele>
        <time>2023-10-09T12:39:31Z</time>
      </trkpt>
      <trkpt lat="43.66967" lon="6.17326">
        <ele>640.5</ele>
        <time>2023-10-09T12:39:32Z</time>
      </trkpt>
      <trkpt lat="43.66969" lon="6.17327">
        <ele>640.7</ele>
        <time>2023-10-09T12:39:33Z</time>
      </trkpt>
      <trkpt lat="43.6697" lon="6.17328">
        <ele>640.7</ele>
        <time>2023-10-09T12:39:34Z</time>
      </trkpt>
      <trkpt lat="43.66971" lon="6.17329">
        <ele>640.8</ele>
        <time>2023-10-09T12:39:35Z</time>
      </trkpt>
      <trkpt lat="43.66972" lon="6.17329">
        <ele>640.8</ele>
        <time>2023-10-09T12:39:36Z</time>
      </trkpt>
      <trkpt lat="43.66973" lon="6.1733">
        <ele>640.9</ele>
        <time>2023-10-09T12:39:37Z</time>
      </trkpt>
      <trkpt lat="43.66974" lon="6.17331">
        <ele>641</ele>
        <time>2023-10-09T12:39:38Z</time>
      </trkpt>
      <trkpt lat="43.66976" lon="6.17332">
        <ele>641.1</ele>
        <time>2023-10-09T12:39:39Z</time>
      </trkpt>
      <trkpt lat="43.66977" lon="6.17333">
        <ele>641.2</ele>
        <time>2023-10-09T12:39:40Z</time>
      </trkpt>
      <trkpt lat="43.66979" lon="6.17334">
        <ele>641.3</ele>
        <time>2023-10-09T12:39:41Z</time>
      </trkpt>
      <trkpt lat="43.66979" lon="6.17335">
        <ele>641.3</ele>
        <time>2023-10-09T12:39:42Z</time>
      </trkpt>
      <trkpt lat="43.6698" lon="6.17335">
        <ele>641.3</ele>
        <time>2023-10-09T12:39:43Z</time>
      </trkpt>
      <trkpt lat="43.66982" lon="6.17337">
        <ele>641.5</ele>
        <time>2023-10-09T12:39:45Z</time>
      </trkpt>
      <trkpt lat="43.66983" lon="6.17338">
        <ele>641.6</ele>
        <time>2023-10-09T12:39:46Z</time>
      </trkpt>
      <trkpt lat="43.66984" lon="6.17339">
        <ele>641.6</ele>
        <time>2023-10-09T12:39:47Z</time>
      </trkpt>
      <trkpt lat="43.66985" lon="6.17339">
        <ele>641.7</ele>
        <time>2023-10-09T12:39:48Z</time>
      </trkpt>
      <trkpt lat="43.66986" lon="6.1734">
        <ele>641.7</ele>
        <time>2023-10-09T12:39:49Z</time>
      </trkpt>
      <trkpt lat="43.66987" lon="6.17341">
        <ele>641.8</ele>
        <time>2023-10-09T12:39:50Z</time>
      </trkpt>
      <trkpt lat="43.66988" lon="6.17342">
        <ele>641.9</ele>
        <time>2023-10-09T12:39:51Z</time>
      </trkpt>
      <trkpt lat="43.66988" lon="6.17342">
        <ele>641.9</ele>
        <time>2023-10-09T12:39:52Z</time>
      </trkpt>
      <trkpt lat="43.66989" lon="6.17343">
        <ele>642</ele>
        <time>2023-10-09T12:39:53Z</time>
      </trkpt>
      <trkpt lat="43.6699" lon="6.17344">
        <ele>642</ele>
        <time>2023-10-09T12:39:54Z</time>
      </trkpt>
      <trkpt lat="43.6699" lon="6.17345">
        <ele>642.1</ele>
        <time>2023-10-09T12:39:55Z</time>
      </trkpt>
      <trkpt lat="43.66991" lon="6.17346">
        <ele>642.1</ele>
        <time>2023-10-09T12:39:56Z</time>
      </trkpt>
      <trkpt lat="43.66992" lon="6.17346">
        <ele>642.2</ele>
        <time>2023-10-09T12:39:57Z</time>
      </trkpt>
      <trkpt lat="43.66993" lon="6.17347">
        <ele>642.2</ele>
        <time>2023-10-09T12:39:58Z</time>
      </trkpt>
      <trkpt lat="43.66994" lon="6.17348">
        <ele>642.3</ele>
        <time>2023-10-09T12:39:59Z</time>
      </trkpt>
      <trkpt lat="43.66995" lon="6.17349">
        <ele>642.4</ele>
        <time>2023-10-09T12:40:00Z</time>
      </trkpt>
      <trkpt lat="43.66996" lon="6.1735">
        <ele>642.5</ele>
        <time>2023-10-09T12:40:01Z</time>
      </trkpt>
      <trkpt lat="43.66998" lon="6.17351">
        <ele>642.6</ele>
        <time>2023-10-09T12:40:02Z</time>
      </trkpt>
      <trkpt lat="43.66998" lon="6.17352">
        <ele>642.6</ele>
        <time>2023-10-09T12:40:03Z</time>
      </trkpt>
      <trkpt lat="43.66999" lon="6.17353">
        <ele>642.7</ele>
        <time>2023-10-09T12:40:04Z</time>
      </trkpt>
      <trkpt lat="43.67" lon="6.17354">
        <ele>642.7</ele>
        <time>2023-10-09T12:40:05Z</time>
      </trkpt>
      <trkpt lat="43.67002" lon="6.17355">
        <ele>642.9</ele>
        <time>2023-10-09T12:40:06Z</time>
      </trkpt>
      <trkpt lat="43.67004" lon="6.17356">
        <ele>643</ele>
        <time>2023-10-09T12:40:07Z</time>
      </trkpt>
      <trkpt lat="43.67004" lon="6.17357">
        <ele>643</ele>
        <time>2023-10-09T12:40:08Z</time>
      </trkpt>
      <trkpt lat="43.67005" lon="6.17358">
        <ele>643.1</ele>
        <time>2023-10-09T12:40:09Z</time>
      </trkpt>
      <trkpt lat="43.67007" lon="6.17359">
        <ele>643.2</ele>
        <time>2023-10-09T12:40:10Z</time>
      </trkpt>
      <trkpt lat="43.67008" lon="6.17359">
        <ele>643.2</ele>
        <time>2023-10-09T12:40:11Z</time>
      </trkpt>
      <trkpt lat="43.67008" lon="6.1736">
        <ele>643.2</ele>
        <time>2023-10-09T12:40:12Z</time>
      </trkpt>
      <trkpt lat="43.6701" lon="6.1736">
        <ele>643.3</ele>
        <time>2023-10-09T12:40:13Z</time>
      </trkpt>
      <trkpt lat="43.67011" lon="6.1736">
        <ele>643.4</ele>
        <time>2023-10-09T12:40:14Z</time>
      </trkpt>
      <trkpt lat="43.67011" lon="6.17361">
        <ele>643.4</ele>
        <time>2023-10-09T12:40:15Z</time>
      </trkpt>
      <trkpt lat="43.67012" lon="6.17361">
        <ele>643.4</ele>
        <time>2023-10-09T12:40:16Z</time>
      </trkpt>
      <trkpt lat="43.67013" lon="6.17362">
        <ele>643.5</ele>
        <time>2023-10-09T12:40:17Z</time>
      </trkpt>
      <trkpt lat="43.67014" lon="6.17363">
        <ele>643.6</ele>
        <time>2023-10-09T12:40:18Z</time>
      </trkpt>
      <trkpt lat="43.67015" lon="6.17363">
        <ele>643.7</ele>
        <time>2023-10-09T12:40:19Z</time>
      </trkpt>
      <trkpt lat="43.67016" lon="6.17363">
        <ele>643.7</ele>
        <time>2023-10-09T12:40:20Z</time>
      </trkpt>
      <trkpt lat="43.67017" lon="6.17364">
        <ele>643.8</ele>
        <time>2023-10-09T12:40:21Z</time>
      </trkpt>
      <trkpt lat="43.67019" lon="6.17365">
        <ele>644</ele>
        <time>2023-10-09T12:40:22Z</time>
      </trkpt>
      <trkpt lat="43.6702" lon="6.17366">
        <ele>644.1</ele>
        <time>2023-10-09T12:40:23Z</time>
      </trkpt>
      <trkpt lat="43.67021" lon="6.17366">
        <ele>644.1</ele>
        <time>2023-10-09T12:40:24Z</time>
      </trkpt>
      <trkpt lat="43.67023" lon="6.17367">
        <ele>644.3</ele>
        <time>2023-10-09T12:40:25Z</time>
      </trkpt>
      <trkpt lat="43.67024" lon="6.17367">
        <ele>644.3</ele>
        <time>2023-10-09T12:40:26Z</time>
      </trkpt>
      <trkpt lat="43.67024" lon="6.17368">
        <ele>644.4</ele>
        <time>2023-10-09T12:40:27Z</time>
      </trkpt>
      <trkpt lat="43.67026" lon="6.17368">
        <ele>644.4</ele>
        <time>2023-10-09T12:40:28Z</time>
      </trkpt>
      <trkpt lat="43.67027" lon="6.17369">
        <ele>644.5</ele>
        <time>2023-10-09T12:40:29Z</time>
      </trkpt>
      <trkpt lat="43.67028" lon="6.17369">
        <ele>644.6</ele>
        <time>2023-10-09T12:40:30Z</time>
      </trkpt>
      <trkpt lat="43.67029" lon="6.17369">
        <ele>644.6</ele>
        <time>2023-10-09T12:40:31Z</time>
      </trkpt>
      <trkpt lat="43.67029" lon="6.1737">
        <ele>644.6</ele>
        <time>2023-10-09T12:40:32Z</time>
      </trkpt>
      <trkpt lat="43.6703" lon="6.17371">
        <ele>644.7</ele>
        <time>2023-10-09T12:40:33Z</time>
      </trkpt>
      <trkpt lat="43.67031" lon="6.17372">
        <ele>644.8</ele>
        <time>2023-10-09T12:40:34Z</time>
      </trkpt>
      <trkpt lat="43.67032" lon="6.17373">
        <ele>644.9</ele>
        <time>2023-10-09T12:40:35Z</time>
      </trkpt>
      <trkpt lat="43.67033" lon="6.17374">
        <ele>644.9</ele>
        <time>2023-10-09T12:40:36Z</time>
      </trkpt>
      <trkpt lat="43.67034" lon="6.17375">
        <ele>645</ele>
        <time>2023-10-09T12:40:37Z</time>
      </trkpt>
      <trkpt lat="43.67034" lon="6.17376">
        <ele>645.1</ele>
        <time>2023-10-09T12:40:38Z</time>
      </trkpt>
      <trkpt lat="43.67035" lon="6.17377">
        <ele>645.1</ele>
        <time>2023-10-09T12:40:39Z</time>
      </trkpt>
      <trkpt lat="43.67037" lon="6.17379">
        <ele>645.3</ele>
        <time>2023-10-09T12:40:40Z</time>
      </trkpt>
      <trkpt lat="43.67038" lon="6.17379">
        <ele>645.3</ele>
        <time>2023-10-09T12:40:41Z</time>
      </trkpt>
      <trkpt lat="43.67038" lon="6.1738">
        <ele>645.4</ele>
        <time>2023-10-09T12:40:42Z</time>
      </trkpt>
      <trkpt lat="43.67039" lon="6.17381">
        <ele>645.4</ele>
        <time>2023-10-09T12:40:43Z</time>
      </trkpt>
      <trkpt lat="43.6704" lon="6.17382">
        <ele>645.5</ele>
        <time>2023-10-09T12:40:44Z</time>
      </trkpt>
      <trkpt lat="43.67041" lon="6.17383">
        <ele>645.6</ele>
        <time>2023-10-09T12:40:45Z</time>
      </trkpt>
      <trkpt lat="43.67042" lon="6.17385">
        <ele>645.7</ele>
        <time>2023-10-09T12:40:46Z</time>
      </trkpt>
      <trkpt lat="43.67043" lon="6.17386">
        <ele>645.8</ele>
        <time>2023-10-09T12:40:47Z</time>
      </trkpt>
      <trkpt lat="43.67044" lon="6.17386">
        <ele>645.8</ele>
        <time>2023-10-09T12:40:48Z</time>
      </trkpt>
      <trkpt lat="43.67045" lon="6.17388">
        <ele>645.9</ele>
        <time>2023-10-09T12:40:49Z</time>
      </trkpt>
      <trkpt lat="43.67046" lon="6.17389">
        <ele>646</ele>
        <time>2023-10-09T12:40:50Z</time>
      </trkpt>
      <trkpt lat="43.67046" lon="6.1739">
        <ele>646</ele>
        <time>2023-10-09T12:40:51Z</time>
      </trkpt>
      <trkpt lat="43.67047" lon="6.17391">
        <ele>646.1</ele>
        <time>2023-10-09T12:40:52Z</time>
      </trkpt>
      <trkpt lat="43.67047" lon="6.17392">
        <ele>646.1</ele>
        <time>2023-10-09T12:40:53Z</time>
      </trkpt>
      <trkpt lat="43.67048" lon="6.17392">
        <ele>646.1</ele>
        <time>2023-10-09T12:40:54Z</time>
      </trkpt>
      <trkpt lat="43.67048" lon="6.17392">
        <ele>646.1</ele>
        <time>2023-10-09T12:40:55Z</time>
      </trkpt>
      <trkpt lat="43.67049" lon="6.17393">
        <ele>646.1</ele>
        <time>2023-10-09T12:40:56Z</time>
      </trkpt>
      <trkpt lat="43.67049" lon="6.17394">
        <ele>646.2</ele>
        <time>2023-10-09T12:40:57Z</time>
      </trkpt>
      <trkpt lat="43.6705" lon="6.17394">
        <ele>646.2</ele>
        <time>2023-10-09T12:40:58Z</time>
      </trkpt>
      <trkpt lat="43.67051" lon="6.17395">
        <ele>646.2</ele>
        <time>2023-10-09T12:40:59Z</time>
      </trkpt>
      <trkpt lat="43.67052" lon="6.17395">
        <ele>646.2</ele>
        <time>2023-10-09T12:41:00Z</time>
      </trkpt>
      <trkpt lat="43.67052" lon="6.17396">
        <ele>646.3</ele>
        <time>2023-10-09T12:41:01Z</time>
      </trkpt>
      <trkpt lat="43.67053" lon="6.17397">
        <ele>646.3</ele>
        <time>2023-10-09T12:41:02Z</time>
      </trkpt>
      <trkpt lat="43.67054" lon="6.17398">
        <ele>646.3</ele>
        <time>2023-10-09T12:41:03Z</time>
      </trkpt>
      <trkpt lat="43.67055" lon="6.17398">
        <ele>646.3</ele>
        <time>2023-10-09T12:41:04Z</time>
      </trkpt>
      <trkpt lat="43.67056" lon="6.17399">
        <ele>646.4</ele>
        <time>2023-10-09T12:41:05Z</time>
      </trkpt>
      <trkpt lat="43.67057" lon="6.17399">
        <ele>646.4</ele>
        <time>2023-10-09T12:41:06Z</time>
      </trkpt>
      <trkpt lat="43.67058" lon="6.174">
        <ele>646.4</ele>
        <time>2023-10-09T12:41:07Z</time>
      </trkpt>
      <trkpt lat="43.67059" lon="6.174">
        <ele>646.4</ele>
        <time>2023-10-09T12:41:08Z</time>
      </trkpt>
      <trkpt lat="43.6706" lon="6.17401">
        <ele>646.5</ele>
        <time>2023-10-09T12:41:09Z</time>
      </trkpt>
      <trkpt lat="43.67061" lon="6.17402">
        <ele>646.6</ele>
        <time>2023-10-09T12:41:10Z</time>
      </trkpt>
      <trkpt lat="43.67062" lon="6.17404">
        <ele>646.7</ele>
        <time>2023-10-09T12:41:11Z</time>
      </trkpt>
      <trkpt lat="43.67062" lon="6.17405">
        <ele>646.7</ele>
        <time>2023-10-09T12:41:12Z</time>
      </trkpt>
      <trkpt lat="43.67063" lon="6.17406">
        <ele>646.8</ele>
        <time>2023-10-09T12:41:13Z</time>
      </trkpt>
      <trkpt lat="43.67063" lon="6.17407">
        <ele>646.8</ele>
        <time>2023-10-09T12:41:14Z</time>
      </trkpt>
      <trkpt lat="43.67064" lon="6.17408">
        <ele>646.9</ele>
        <time>2023-10-09T12:41:15Z</time>
      </trkpt>
      <trkpt lat="43.67065" lon="6.17409">
        <ele>647</ele>
        <time>2023-10-09T12:41:16Z</time>
      </trkpt>
      <trkpt lat="43.67066" lon="6.1741">
        <ele>647</ele>
        <time>2023-10-09T12:41:17Z</time>
      </trkpt>
      <trkpt lat="43.67066" lon="6.17411">
        <ele>647.1</ele>
        <time>2023-10-09T12:41:18Z</time>
      </trkpt>
      <trkpt lat="43.67068" lon="6.17412">
        <ele>647.2</ele>
        <time>2023-10-09T12:41:19Z</time>
      </trkpt>
      <trkpt lat="43.67069" lon="6.17412">
        <ele>647.2</ele>
        <time>2023-10-09T12:41:20Z</time>
      </trkpt>
      <trkpt lat="43.6707" lon="6.17413">
        <ele>647.3</ele>
        <time>2023-10-09T12:41:21Z</time>
      </trkpt>
      <trkpt lat="43.67071" lon="6.17414">
        <ele>647.4</ele>
        <time>2023-10-09T12:41:22Z</time>
      </trkpt>
      <trkpt lat="43.67073" lon="6.17415">
        <ele>647.5</ele>
        <time>2023-10-09T12:41:23Z</time>
      </trkpt>
      <trkpt lat="43.67074" lon="6.17415">
        <ele>647.6</ele>
        <time>2023-10-09T12:41:24Z</time>
      </trkpt>
      <trkpt lat="43.67074" lon="6.17417">
        <ele>647.7</ele>
        <time>2023-10-09T12:41:25Z</time>
      </trkpt>
      <trkpt lat="43.67075" lon="6.17418">
        <ele>647.8</ele>
        <time>2023-10-09T12:41:26Z</time>
      </trkpt>
      <trkpt lat="43.67076" lon="6.1742">
        <ele>647.9</ele>
        <time>2023-10-09T12:41:27Z</time>
      </trkpt>
      <trkpt lat="43.67077" lon="6.17421">
        <ele>648</ele>
        <time>2023-10-09T12:41:28Z</time>
      </trkpt>
      <trkpt lat="43.67078" lon="6.17422">
        <ele>648.2</ele>
        <time>2023-10-09T12:41:29Z</time>
      </trkpt>
      <trkpt lat="43.67079" lon="6.17422">
        <ele>648.2</ele>
        <time>2023-10-09T12:41:30Z</time>
      </trkpt>
      <trkpt lat="43.6708" lon="6.17423">
        <ele>648.3</ele>
        <time>2023-10-09T12:41:31Z</time>
      </trkpt>
      <trkpt lat="43.67081" lon="6.17423">
        <ele>648.4</ele>
        <time>2023-10-09T12:41:32Z</time>
      </trkpt>
      <trkpt lat="43.67082" lon="6.17424">
        <ele>648.5</ele>
        <time>2023-10-09T12:41:33Z</time>
      </trkpt>
      <trkpt lat="43.67083" lon="6.17424">
        <ele>648.5</ele>
        <time>2023-10-09T12:41:34Z</time>
      </trkpt>
      <trkpt lat="43.67084" lon="6.17425">
        <ele>648.6</ele>
        <time>2023-10-09T12:41:35Z</time>
      </trkpt>
      <trkpt lat="43.67085" lon="6.17425">
        <ele>648.6</ele>
        <time>2023-10-09T12:41:36Z</time>
      </trkpt>
      <trkpt lat="43.67086" lon="6.17426">
        <ele>648.7</ele>
        <time>2023-10-09T12:41:37Z</time>
      </trkpt>
      <trkpt lat="43.67086" lon="6.17427">
        <ele>648.7</ele>
        <time>2023-10-09T12:41:38Z</time>
      </trkpt>
      <trkpt lat="43.67087" lon="6.17428">
        <ele>648.8</ele>
        <time>2023-10-09T12:41:39Z</time>
      </trkpt>
      <trkpt lat="43.67088" lon="6.17429">
        <ele>648.9</ele>
        <time>2023-10-09T12:41:40Z</time>
      </trkpt>
      <trkpt lat="43.67088" lon="6.1743">
        <ele>649</ele>
        <time>2023-10-09T12:41:41Z</time>
      </trkpt>
      <trkpt lat="43.67089" lon="6.17431">
        <ele>649</ele>
        <time>2023-10-09T12:41:42Z</time>
      </trkpt>
      <trkpt lat="43.67089" lon="6.17432">
        <ele>649.1</ele>
        <time>2023-10-09T12:41:43Z</time>
      </trkpt>
      <trkpt lat="43.6709" lon="6.17433">
        <ele>649.2</ele>
        <time>2023-10-09T12:41:44Z</time>
      </trkpt>
      <trkpt lat="43.67091" lon="6.17434">
        <ele>649.2</ele>
        <time>2023-10-09T12:41:45Z</time>
      </trkpt>
      <trkpt lat="43.67092" lon="6.17435">
        <ele>649.3</ele>
        <time>2023-10-09T12:41:46Z</time>
      </trkpt>
      <trkpt lat="43.67092" lon="6.17436">
        <ele>649.4</ele>
        <time>2023-10-09T12:41:47Z</time>
      </trkpt>
      <trkpt lat="43.67093" lon="6.17437">
        <ele>649.5</ele>
        <time>2023-10-09T12:41:48Z</time>
      </trkpt>
      <trkpt lat="43.67094" lon="6.17438">
        <ele>649.5</ele>
        <time>2023-10-09T12:41:49Z</time>
      </trkpt>
      <trkpt lat="43.67095" lon="6.17439">
        <ele>649.6</ele>
        <time>2023-10-09T12:41:50Z</time>
      </trkpt>
      <trkpt lat="43.67096" lon="6.1744">
        <ele>649.7</ele>
        <time>2023-10-09T12:41:51Z</time>
      </trkpt>
      <trkpt lat="43.67097" lon="6.17441">
        <ele>649.8</ele>
        <time>2023-10-09T12:41:52Z</time>
      </trkpt>
      <trkpt lat="43.67098" lon="6.17442">
        <ele>649.8</ele>
        <time>2023-10-09T12:41:53Z</time>
      </trkpt>
      <trkpt lat="43.67099" lon="6.17443">
        <ele>649.9</ele>
        <time>2023-10-09T12:41:54Z</time>
      </trkpt>
      <trkpt lat="43.67099" lon="6.17444">
        <ele>650</ele>
        <time>2023-10-09T12:41:55Z</time>
      </trkpt>
      <trkpt lat="43.671" lon="6.17445">
        <ele>650</ele>
        <time>2023-10-09T12:41:56Z</time>
      </trkpt>
      <trkpt lat="43.67101" lon="6.17446">
        <ele>650.1</ele>
        <time>2023-10-09T12:41:57Z</time>
      </trkpt>
      <trkpt lat="43.67101" lon="6.17447">
        <ele>650.2</ele>
        <time>2023-10-09T12:41:58Z</time>
      </trkpt>
      <trkpt lat="43.67102" lon="6.17447">
        <ele>650.2</ele>
        <time>2023-10-09T12:41:59Z</time>
      </trkpt>
      <trkpt lat="43.67103" lon="6.17448">
        <ele>650.2</ele>
        <time>2023-10-09T12:42:00Z</time>
      </trkpt>
      <trkpt lat="43.67105" lon="6.17449">
        <ele>650.3</ele>
        <time>2023-10-09T12:42:01Z</time>
      </trkpt>
      <trkpt lat="43.67106" lon="6.17449">
        <ele>650.3</ele>
        <time>2023-10-09T12:42:02Z</time>
      </trkpt>
      <trkpt lat="43.67106" lon="6.1745">
        <ele>650.4</ele>
        <time>2023-10-09T12:42:03Z</time>
      </trkpt>
      <trkpt lat="43.67108" lon="6.1745">
        <ele>650.4</ele>
        <time>2023-10-09T12:42:04Z</time>
      </trkpt>
      <trkpt lat="43.67109" lon="6.17451">
        <ele>650.5</ele>
        <time>2023-10-09T12:42:05Z</time>
      </trkpt>
      <trkpt lat="43.67109" lon="6.17452">
        <ele>650.5</ele>
        <time>2023-10-09T12:42:06Z</time>
      </trkpt>
      <trkpt lat="43.67109" lon="6.17454">
        <ele>650.7</ele>
        <time>2023-10-09T12:42:07Z</time>
      </trkpt>
      <trkpt lat="43.6711" lon="6.17455">
        <ele>650.7</ele>
        <time>2023-10-09T12:42:08Z</time>
      </trkpt>
      <trkpt lat="43.67111" lon="6.17457">
        <ele>650.9</ele>
        <time>2023-10-09T12:42:09Z</time>
      </trkpt>
      <trkpt lat="43.67111" lon="6.17458">
        <ele>651</ele>
        <time>2023-10-09T12:42:10Z</time>
      </trkpt>
      <trkpt lat="43.67112" lon="6.17459">
        <ele>651.1</ele>
        <time>2023-10-09T12:42:11Z</time>
      </trkpt>
      <trkpt lat="43.67112" lon="6.1746">
        <ele>651.2</ele>
        <time>2023-10-09T12:42:12Z</time>
      </trkpt>
      <trkpt lat="43.67113" lon="6.17461">
        <ele>651.3</ele>
        <time>2023-10-09T12:42:13Z</time>
      </trkpt>
      <trkpt lat="43.67114" lon="6.17462">
        <ele>651.4</ele>
        <time>2023-10-09T12:42:14Z</time>
      </trkpt>
      <trkpt lat="43.67115" lon="6.17463">
        <ele>651.5</ele>
        <time>2023-10-09T12:42:15Z</time>
      </trkpt>
      <trkpt lat="43.67117" lon="6.17464">
        <ele>651.6</ele>
        <time>2023-10-09T12:42:16Z</time>
      </trkpt>
      <trkpt lat="43.67117" lon="6.17465">
        <ele>651.7</ele>
        <time>2023-10-09T12:42:17Z</time>
      </trkpt>
      <trkpt lat="43.67118" lon="6.17465">
        <ele>651.7</ele>
        <time>2023-10-09T12:42:18Z</time>
      </trkpt>
      <trkpt lat="43.6712" lon="6.17466">
        <ele>651.9</ele>
        <time>2023-10-09T12:42:20Z</time>
      </trkpt>
      <trkpt lat="43.67121" lon="6.17467">
        <ele>652</ele>
        <time>2023-10-09T12:42:21Z</time>
      </trkpt>
      <trkpt lat="43.67122" lon="6.17469">
        <ele>652.2</ele>
        <time>2023-10-09T12:42:22Z</time>
      </trkpt>
      <trkpt lat="43.67123" lon="6.1747">
        <ele>652.3</ele>
        <time>2023-10-09T12:42:23Z</time>
      </trkpt>
      <trkpt lat="43.67124" lon="6.1747">
        <ele>652.3</ele>
        <time>2023-10-09T12:42:24Z</time>
      </trkpt>
      <trkpt lat="43.67124" lon="6.17471">
        <ele>652.4</ele>
        <time>2023-10-09T12:42:25Z</time>
      </trkpt>
      <trkpt lat="43.67125" lon="6.17471">
        <ele>652.4</ele>
        <time>2023-10-09T12:42:26Z</time>
      </trkpt>
      <trkpt lat="43.67126" lon="6.17472">
        <ele>652.5</ele>
        <time>2023-10-09T12:42:27Z</time>
      </trkpt>
      <trkpt lat="43.67127" lon="6.17472">
        <ele>652.6</ele>
        <time>2023-10-09T12:42:28Z</time>
      </trkpt>
      <trkpt lat="43.67128" lon="6.17473">
        <ele>652.6</ele>
        <time>2023-10-09T12:42:29Z</time>
      </trkpt>
      <trkpt lat="43.67129" lon="6.17473">
        <ele>652.7</ele>
        <time>2023-10-09T12:42:30Z</time>
      </trkpt>
      <trkpt lat="43.67129" lon="6.17474">
        <ele>652.7</ele>
        <time>2023-10-09T12:42:31Z</time>
      </trkpt>
      <trkpt lat="43.6713" lon="6.17474">
        <ele>652.8</ele>
        <time>2023-10-09T12:42:32Z</time>
      </trkpt>
      <trkpt lat="43.67132" lon="6.17476">
        <ele>652.9</ele>
        <time>2023-10-09T12:42:33Z</time>
      </trkpt>
      <trkpt lat="43.67133" lon="6.17476">
        <ele>653</ele>
        <time>2023-10-09T12:42:34Z</time>
      </trkpt>
      <trkpt lat="43.67133" lon="6.17476">
        <ele>653</ele>
        <time>2023-10-09T12:42:35Z</time>
      </trkpt>
      <trkpt lat="43.67135" lon="6.17477">
        <ele>653.1</ele>
        <time>2023-10-09T12:42:36Z</time>
      </trkpt>
      <trkpt lat="43.67136" lon="6.17477">
        <ele>653.1</ele>
        <time>2023-10-09T12:42:37Z</time>
      </trkpt>
      <trkpt lat="43.67138" lon="6.17478">
        <ele>653.2</ele>
        <time>2023-10-09T12:42:38Z</time>
      </trkpt>
      <trkpt lat="43.67139" lon="6.17479">
        <ele>653.2</ele>
        <time>2023-10-09T12:42:39Z</time>
      </trkpt>
      <trkpt lat="43.6714" lon="6.1748">
        <ele>653.3</ele>
        <time>2023-10-09T12:42:40Z</time>
      </trkpt>
      <trkpt lat="43.67141" lon="6.17481">
        <ele>653.3</ele>
        <time>2023-10-09T12:42:41Z</time>
      </trkpt>
      <trkpt lat="43.67142" lon="6.17482">
        <ele>653.4</ele>
        <time>2023-10-09T12:42:42Z</time>
      </trkpt>
      <trkpt lat="43.67143" lon="6.17483">
        <ele>653.4</ele>
        <time>2023-10-09T12:42:43Z</time>
      </trkpt>
      <trkpt lat="43.67143" lon="6.17484">
        <ele>653.4</ele>
        <time>2023-10-09T12:42:44Z</time>
      </trkpt>
      <trkpt lat="43.67144" lon="6.17485">
        <ele>653.5</ele>
        <time>2023-10-09T12:42:45Z</time>
      </trkpt>
      <trkpt lat="43.67145" lon="6.17486">
        <ele>653.5</ele>
        <time>2023-10-09T12:42:46Z</time>
      </trkpt>
      <trkpt lat="43.67146" lon="6.17487">
        <ele>653.5</ele>
        <time>2023-10-09T12:42:47Z</time>
      </trkpt>
      <trkpt lat="43.67147" lon="6.17488">
        <ele>653.6</ele>
        <time>2023-10-09T12:42:48Z</time>
      </trkpt>
      <trkpt lat="43.67147" lon="6.17489">
        <ele>653.6</ele>
        <time>2023-10-09T12:42:49Z</time>
      </trkpt>
      <trkpt lat="43.67147" lon="6.17491">
        <ele>653.7</ele>
        <time>2023-10-09T12:42:50Z</time>
      </trkpt>
      <trkpt lat="43.67148" lon="6.17492">
        <ele>653.7</ele>
        <time>2023-10-09T12:42:51Z</time>
      </trkpt>
      <trkpt lat="43.67148" lon="6.17493">
        <ele>653.7</ele>
        <time>2023-10-09T12:42:52Z</time>
      </trkpt>
      <trkpt lat="43.67149" lon="6.17494">
        <ele>653.8</ele>
        <time>2023-10-09T12:42:53Z</time>
      </trkpt>
      <trkpt lat="43.67149" lon="6.17496">
        <ele>653.9</ele>
        <time>2023-10-09T12:42:54Z</time>
      </trkpt>
      <trkpt lat="43.67149" lon="6.17497">
        <ele>653.9</ele>
        <time>2023-10-09T12:42:55Z</time>
      </trkpt>
      <trkpt lat="43.6715" lon="6.17498">
        <ele>653.9</ele>
        <time>2023-10-09T12:42:56Z</time>
      </trkpt>
      <trkpt lat="43.67151" lon="6.17499">
        <ele>654</ele>
        <time>2023-10-09T12:42:57Z</time>
      </trkpt>
      <trkpt lat="43.67151" lon="6.175">
        <ele>654</ele>
        <time>2023-10-09T12:42:58Z</time>
      </trkpt>
      <trkpt lat="43.67152" lon="6.17502">
        <ele>654.1</ele>
        <time>2023-10-09T12:42:59Z</time>
      </trkpt>
      <trkpt lat="43.67152" lon="6.17503">
        <ele>654.2</ele>
        <time>2023-10-09T12:43:00Z</time>
      </trkpt>
      <trkpt lat="43.67153" lon="6.17504">
        <ele>654.3</ele>
        <time>2023-10-09T12:43:01Z</time>
      </trkpt>
      <trkpt lat="43.67153" lon="6.17505">
        <ele>654.4</ele>
        <time>2023-10-09T12:43:02Z</time>
      </trkpt>
      <trkpt lat="43.67153" lon="6.17507">
        <ele>654.5</ele>
        <time>2023-10-09T12:43:03Z</time>
      </trkpt>
      <trkpt lat="43.67153" lon="6.17508">
        <ele>654.6</ele>
        <time>2023-10-09T12:43:04Z</time>
      </trkpt>
      <trkpt lat="43.67154" lon="6.17509">
        <ele>654.6</ele>
        <time>2023-10-09T12:43:05Z</time>
      </trkpt>
      <trkpt lat="43.67155" lon="6.1751">
        <ele>654.7</ele>
        <time>2023-10-09T12:43:06Z</time>
      </trkpt>
      <trkpt lat="43.67155" lon="6.17512">
        <ele>654.9</ele>
        <time>2023-10-09T12:43:07Z</time>
      </trkpt>
      <trkpt lat="43.67156" lon="6.17514">
        <ele>655</ele>
        <time>2023-10-09T12:43:08Z</time>
      </trkpt>
      <trkpt lat="43.67156" lon="6.17515">
        <ele>655.1</ele>
        <time>2023-10-09T12:43:09Z</time>
      </trkpt>
      <trkpt lat="43.67157" lon="6.17516">
        <ele>655.2</ele>
        <time>2023-10-09T12:43:10Z</time>
      </trkpt>
      <trkpt lat="43.67157" lon="6.17517">
        <ele>655.2</ele>
        <time>2023-10-09T12:43:11Z</time>
      </trkpt>
      <trkpt lat="43.67157" lon="6.17518">
        <ele>655.3</ele>
        <time>2023-10-09T12:43:12Z</time>
      </trkpt>
      <trkpt lat="43.67159" lon="6.1752">
        <ele>655.4</ele>
        <time>2023-10-09T12:43:13Z</time>
      </trkpt>
      <trkpt lat="43.6716" lon="6.17521">
        <ele>655.5</ele>
        <time>2023-10-09T12:43:14Z</time>
      </trkpt>
      <trkpt lat="43.6716" lon="6.17522">
        <ele>655.6</ele>
        <time>2023-10-09T12:43:15Z</time>
      </trkpt>
      <trkpt lat="43.67161" lon="6.17524">
        <ele>655.7</ele>
        <time>2023-10-09T12:43:16Z</time>
      </trkpt>
      <trkpt lat="43.67162" lon="6.17525">
        <ele>655.8</ele>
        <time>2023-10-09T12:43:17Z</time>
      </trkpt>
      <trkpt lat="43.67163" lon="6.17526">
        <ele>655.9</ele>
        <time>2023-10-09T12:43:18Z</time>
      </trkpt>
      <trkpt lat="43.67163" lon="6.17527">
        <ele>655.9</ele>
        <time>2023-10-09T12:43:19Z</time>
      </trkpt>
      <trkpt lat="43.67164" lon="6.17528">
        <ele>656</ele>
        <time>2023-10-09T12:43:20Z</time>
      </trkpt>
      <trkpt lat="43.67165" lon="6.17529">
        <ele>656</ele>
        <time>2023-10-09T12:43:21Z</time>
      </trkpt>
      <trkpt lat="43.67165" lon="6.1753">
        <ele>656.1</ele>
        <time>2023-10-09T12:43:22Z</time>
      </trkpt>
      <trkpt lat="43.67166" lon="6.17531">
        <ele>656.1</ele>
        <time>2023-10-09T12:43:23Z</time>
      </trkpt>
      <trkpt lat="43.67167" lon="6.17532">
        <ele>656.2</ele>
        <time>2023-10-09T12:43:24Z</time>
      </trkpt>
      <trkpt lat="43.67167" lon="6.17533">
        <ele>656.2</ele>
        <time>2023-10-09T12:43:25Z</time>
      </trkpt>
      <trkpt lat="43.67168" lon="6.17534">
        <ele>656.2</ele>
        <time>2023-10-09T12:43:26Z</time>
      </trkpt>
      <trkpt lat="43.67169" lon="6.17535">
        <ele>656.3</ele>
        <time>2023-10-09T12:43:27Z</time>
      </trkpt>
      <trkpt lat="43.67171" lon="6.17537">
        <ele>656.3</ele>
        <time>2023-10-09T12:43:28Z</time>
      </trkpt>
      <trkpt lat="43.67172" lon="6.17537">
        <ele>656.3</ele>
        <time>2023-10-09T12:43:29Z</time>
      </trkpt>
      <trkpt lat="43.67173" lon="6.17538">
        <ele>656.4</ele>
        <time>2023-10-09T12:43:30Z</time>
      </trkpt>
      <trkpt lat="43.67174" lon="6.1754">
        <ele>656.4</ele>
        <time>2023-10-09T12:43:31Z</time>
      </trkpt>
      <trkpt lat="43.67175" lon="6.17541">
        <ele>656.5</ele>
        <time>2023-10-09T12:43:32Z</time>
      </trkpt>
      <trkpt lat="43.67175" lon="6.17542">
        <ele>656.5</ele>
        <time>2023-10-09T12:43:33Z</time>
      </trkpt>
      <trkpt lat="43.67177" lon="6.17544">
        <ele>656.6</ele>
        <time>2023-10-09T12:43:34Z</time>
      </trkpt>
      <trkpt lat="43.67178" lon="6.17545">
        <ele>656.6</ele>
        <time>2023-10-09T12:43:35Z</time>
      </trkpt>
      <trkpt lat="43.67178" lon="6.17545">
        <ele>656.6</ele>
        <time>2023-10-09T12:43:36Z</time>
      </trkpt>
      <trkpt lat="43.67179" lon="6.17546">
        <ele>656.7</ele>
        <time>2023-10-09T12:43:37Z</time>
      </trkpt>
      <trkpt lat="43.6718" lon="6.17548">
        <ele>656.7</ele>
        <time>2023-10-09T12:43:38Z</time>
      </trkpt>
      <trkpt lat="43.67181" lon="6.17549">
        <ele>656.8</ele>
        <time>2023-10-09T12:43:39Z</time>
      </trkpt>
      <trkpt lat="43.67182" lon="6.17551">
        <ele>656.8</ele>
        <time>2023-10-09T12:43:40Z</time>
      </trkpt>
      <trkpt lat="43.67183" lon="6.17551">
        <ele>656.8</ele>
        <time>2023-10-09T12:43:41Z</time>
      </trkpt>
      <trkpt lat="43.67184" lon="6.17552">
        <ele>656.9</ele>
        <time>2023-10-09T12:43:42Z</time>
      </trkpt>
      <trkpt lat="43.67185" lon="6.17553">
        <ele>656.9</ele>
        <time>2023-10-09T12:43:43Z</time>
      </trkpt>
      <trkpt lat="43.67186" lon="6.17554">
        <ele>656.9</ele>
        <time>2023-10-09T12:43:44Z</time>
      </trkpt>
      <trkpt lat="43.67186" lon="6.17555">
        <ele>657</ele>
        <time>2023-10-09T12:43:45Z</time>
      </trkpt>
      <trkpt lat="43.67188" lon="6.17557">
        <ele>657.1</ele>
        <time>2023-10-09T12:43:46Z</time>
      </trkpt>
      <trkpt lat="43.67188" lon="6.17558">
        <ele>657.2</ele>
        <time>2023-10-09T12:43:47Z</time>
      </trkpt>
      <trkpt lat="43.67189" lon="6.17559">
        <ele>657.2</ele>
        <time>2023-10-09T12:43:48Z</time>
      </trkpt>
      <trkpt lat="43.67189" lon="6.1756">
        <ele>657.3</ele>
        <time>2023-10-09T12:43:49Z</time>
      </trkpt>
      <trkpt lat="43.6719" lon="6.17561">
        <ele>657.4</ele>
        <time>2023-10-09T12:43:50Z</time>
      </trkpt>
      <trkpt lat="43.67191" lon="6.17562">
        <ele>657.5</ele>
        <time>2023-10-09T12:43:51Z</time>
      </trkpt>
      <trkpt lat="43.67192" lon="6.17564">
        <ele>657.6</ele>
        <time>2023-10-09T12:43:52Z</time>
      </trkpt>
      <trkpt lat="43.67192" lon="6.17565">
        <ele>657.7</ele>
        <time>2023-10-09T12:43:53Z</time>
      </trkpt>
      <trkpt lat="43.67193" lon="6.17566">
        <ele>657.8</ele>
        <time>2023-10-09T12:43:54Z</time>
      </trkpt>
      <trkpt lat="43.67194" lon="6.17567">
        <ele>657.8</ele>
        <time>2023-10-09T12:43:55Z</time>
      </trkpt>
      <trkpt lat="43.67194" lon="6.17568">
        <ele>657.9</ele>
        <time>2023-10-09T12:43:56Z</time>
      </trkpt>
      <trkpt lat="43.67195" lon="6.17569">
        <ele>658</ele>
        <time>2023-10-09T12:43:57Z</time>
      </trkpt>
      <trkpt lat="43.67195" lon="6.1757">
        <ele>658</ele>
        <time>2023-10-09T12:43:58Z</time>
      </trkpt>
      <trkpt lat="43.67196" lon="6.17571">
        <ele>658.1</ele>
        <time>2023-10-09T12:43:59Z</time>
      </trkpt>
      <trkpt lat="43.67197" lon="6.17572">
        <ele>658.2</ele>
        <time>2023-10-09T12:44:00Z</time>
      </trkpt>
      <trkpt lat="43.67198" lon="6.17573">
        <ele>658.3</ele>
        <time>2023-10-09T12:44:01Z</time>
      </trkpt>
      <trkpt lat="43.672" lon="6.17575">
        <ele>658.5</ele>
        <time>2023-10-09T12:44:02Z</time>
      </trkpt>
      <trkpt lat="43.672" lon="6.17575">
        <ele>658.5</ele>
        <time>2023-10-09T12:44:03Z</time>
      </trkpt>
      <trkpt lat="43.67201" lon="6.17576">
        <ele>658.5</ele>
        <time>2023-10-09T12:44:04Z</time>
      </trkpt>
      <trkpt lat="43.67202" lon="6.17577">
        <ele>658.6</ele>
        <time>2023-10-09T12:44:05Z</time>
      </trkpt>
      <trkpt lat="43.67203" lon="6.17578">
        <ele>658.7</ele>
        <time>2023-10-09T12:44:06Z</time>
      </trkpt>
      <trkpt lat="43.67204" lon="6.17579">
        <ele>658.7</ele>
        <time>2023-10-09T12:44:07Z</time>
      </trkpt>
      <trkpt lat="43.67204" lon="6.17579">
        <ele>658.7</ele>
        <time>2023-10-09T12:44:08Z</time>
      </trkpt>
      <trkpt lat="43.67205" lon="6.1758">
        <ele>658.8</ele>
        <time>2023-10-09T12:44:09Z</time>
      </trkpt>
      <trkpt lat="43.67206" lon="6.17581">
        <ele>658.9</ele>
        <time>2023-10-09T12:44:10Z</time>
      </trkpt>
      <trkpt lat="43.67207" lon="6.17581">
        <ele>658.9</ele>
        <time>2023-10-09T12:44:11Z</time>
      </trkpt>
      <trkpt lat="43.67208" lon="6.17582">
        <ele>658.9</ele>
        <time>2023-10-09T12:44:12Z</time>
      </trkpt>
      <trkpt lat="43.67208" lon="6.17583">
        <ele>659</ele>
        <time>2023-10-09T12:44:13Z</time>
      </trkpt>
      <trkpt lat="43.67209" lon="6.17584">
        <ele>659</ele>
        <time>2023-10-09T12:44:14Z</time>
      </trkpt>
      <trkpt lat="43.6721" lon="6.17585">
        <ele>659.1</ele>
        <time>2023-10-09T12:44:15Z</time>
      </trkpt>
      <trkpt lat="43.67211" lon="6.17586">
        <ele>659.1</ele>
        <time>2023-10-09T12:44:16Z</time>
      </trkpt>
      <trkpt lat="43.67212" lon="6.17587">
        <ele>659.1</ele>
        <time>2023-10-09T12:44:17Z</time>
      </trkpt>
      <trkpt lat="43.67212" lon="6.17587">
        <ele>659.1</ele>
        <time>2023-10-09T12:44:18Z</time>
      </trkpt>
      <trkpt lat="43.67213" lon="6.17588">
        <ele>659.2</ele>
        <time>2023-10-09T12:44:19Z</time>
      </trkpt>
      <trkpt lat="43.67214" lon="6.17589">
        <ele>659.2</ele>
        <time>2023-10-09T12:44:20Z</time>
      </trkpt>
      <trkpt lat="43.67215" lon="6.1759">
        <ele>659.2</ele>
        <time>2023-10-09T12:44:21Z</time>
      </trkpt>
      <trkpt lat="43.67216" lon="6.17591">
        <ele>659.3</ele>
        <time>2023-10-09T12:44:22Z</time>
      </trkpt>
      <trkpt lat="43.67216" lon="6.17592">
        <ele>659.3</ele>
        <time>2023-10-09T12:44:23Z</time>
      </trkpt>
      <trkpt lat="43.67217" lon="6.17593">
        <ele>659.3</ele>
        <time>2023-10-09T12:44:24Z</time>
      </trkpt>
      <trkpt lat="43.67218" lon="6.17593">
        <ele>659.3</ele>
        <time>2023-10-09T12:44:25Z</time>
      </trkpt>
      <trkpt lat="43.67219" lon="6.17594">
        <ele>659.4</ele>
        <time>2023-10-09T12:44:26Z</time>
      </trkpt>
      <trkpt lat="43.6722" lon="6.17595">
        <ele>659.4</ele>
        <time>2023-10-09T12:44:27Z</time>
      </trkpt>
      <trkpt lat="43.67221" lon="6.17596">
        <ele>659.5</ele>
        <time>2023-10-09T12:44:28Z</time>
      </trkpt>
      <trkpt lat="43.67222" lon="6.17597">
        <ele>659.5</ele>
        <time>2023-10-09T12:44:29Z</time>
      </trkpt>
      <trkpt lat="43.67223" lon="6.17598">
        <ele>659.6</ele>
        <time>2023-10-09T12:44:30Z</time>
      </trkpt>
      <trkpt lat="43.67224" lon="6.17599">
        <ele>659.6</ele>
        <time>2023-10-09T12:44:31Z</time>
      </trkpt>
      <trkpt lat="43.67224" lon="6.17599">
        <ele>659.6</ele>
        <time>2023-10-09T12:44:32Z</time>
      </trkpt>
      <trkpt lat="43.67225" lon="6.176">
        <ele>659.7</ele>
        <time>2023-10-09T12:44:33Z</time>
      </trkpt>
      <trkpt lat="43.67226" lon="6.17601">
        <ele>659.8</ele>
        <time>2023-10-09T12:44:34Z</time>
      </trkpt>
      <trkpt lat="43.67227" lon="6.17602">
        <ele>659.8</ele>
        <time>2023-10-09T12:44:35Z</time>
      </trkpt>
      <trkpt lat="43.67228" lon="6.17602">
        <ele>659.9</ele>
        <time>2023-10-09T12:44:36Z</time>
      </trkpt>
      <trkpt lat="43.67229" lon="6.17603">
        <ele>660</ele>
        <time>2023-10-09T12:44:37Z</time>
      </trkpt>
      <trkpt lat="43.6723" lon="6.17603">
        <ele>660</ele>
        <time>2023-10-09T12:44:38Z</time>
      </trkpt>
      <trkpt lat="43.6723" lon="6.17604">
        <ele>660</ele>
        <time>2023-10-09T12:44:39Z</time>
      </trkpt>
      <trkpt lat="43.67231" lon="6.17605">
        <ele>660.1</ele>
        <time>2023-10-09T12:44:40Z</time>
      </trkpt>
      <trkpt lat="43.67232" lon="6.17606">
        <ele>660.2</ele>
        <time>2023-10-09T12:44:41Z</time>
      </trkpt>
      <trkpt lat="43.67234" lon="6.17607">
        <ele>660.3</ele>
        <time>2023-10-09T12:44:42Z</time>
      </trkpt>
      <trkpt lat="43.67234" lon="6.17608">
        <ele>660.3</ele>
        <time>2023-10-09T12:44:43Z</time>
      </trkpt>
      <trkpt lat="43.67235" lon="6.17608">
        <ele>660.3</ele>
        <time>2023-10-09T12:44:44Z</time>
      </trkpt>
      <trkpt lat="43.67236" lon="6.17609">
        <ele>660.4</ele>
        <time>2023-10-09T12:44:45Z</time>
      </trkpt>
      <trkpt lat="43.67237" lon="6.1761">
        <ele>660.5</ele>
        <time>2023-10-09T12:44:46Z</time>
      </trkpt>
      <trkpt lat="43.67238" lon="6.17611">
        <ele>660.6</ele>
        <time>2023-10-09T12:44:47Z</time>
      </trkpt>
      <trkpt lat="43.67239" lon="6.17611">
        <ele>660.6</ele>
        <time>2023-10-09T12:44:48Z</time>
      </trkpt>
      <trkpt lat="43.6724" lon="6.17612">
        <ele>660.7</ele>
        <time>2023-10-09T12:44:49Z</time>
      </trkpt>
      <trkpt lat="43.67241" lon="6.17613">
        <ele>660.8</ele>
        <time>2023-10-09T12:44:50Z</time>
      </trkpt>
      <trkpt lat="43.67241" lon="6.17614">
        <ele>660.8</ele>
        <time>2023-10-09T12:44:51Z</time>
      </trkpt>
      <trkpt lat="43.67242" lon="6.17615">
        <ele>660.9</ele>
        <time>2023-10-09T12:44:52Z</time>
      </trkpt>
      <trkpt lat="43.67243" lon="6.17616">
        <ele>661</ele>
        <time>2023-10-09T12:44:53Z</time>
      </trkpt>
      <trkpt lat="43.67244" lon="6.17617">
        <ele>661</ele>
        <time>2023-10-09T12:44:54Z</time>
      </trkpt>
      <trkpt lat="43.67245" lon="6.17617">
        <ele>661.1</ele>
        <time>2023-10-09T12:44:55Z</time>
      </trkpt>
      <trkpt lat="43.67246" lon="6.17617">
        <ele>661.1</ele>
        <time>2023-10-09T12:44:56Z</time>
      </trkpt>
      <trkpt lat="43.67247" lon="6.17618">
        <ele>661.2</ele>
        <time>2023-10-09T12:44:57Z</time>
      </trkpt>
      <trkpt lat="43.67248" lon="6.17618">
        <ele>661.2</ele>
        <time>2023-10-09T12:44:58Z</time>
      </trkpt>
      <trkpt lat="43.67248" lon="6.17619">
        <ele>661.2</ele>
        <time>2023-10-09T12:44:59Z</time>
      </trkpt>
      <trkpt lat="43.67249" lon="6.1762">
        <ele>661.3</ele>
        <time>2023-10-09T12:45:00Z</time>
      </trkpt>
      <trkpt lat="43.67249" lon="6.1762">
        <ele>661.3</ele>
        <time>2023-10-09T12:45:01Z</time>
      </trkpt>
      <trkpt lat="43.67249" lon="6.17621">
        <ele>661.3</ele>
        <time>2023-10-09T12:45:02Z</time>
      </trkpt>
      <trkpt lat="43.67249" lon="6.17622">
        <ele>661.4</ele>
        <time>2023-10-09T12:45:03Z</time>
      </trkpt>
      <trkpt lat="43.67249" lon="6.17622">
        <ele>661.4</ele>
        <time>2023-10-09T12:45:04Z</time>
      </trkpt>
      <trkpt lat="43.67249" lon="6.17622">
        <ele>661.4</ele>
        <time>2023-10-09T12:45:05Z</time>
      </trkpt>
      <trkpt lat="43.6725" lon="6.17623">
        <ele>661.4</ele>
        <time>2023-10-09T12:45:06Z</time>
      </trkpt>
      <trkpt lat="43.6725" lon="6.17623">
        <ele>661.4</ele>
        <time>2023-10-09T12:45:07Z</time>
      </trkpt>
      <trkpt lat="43.6725" lon="6.17623">
        <ele>661.4</ele>
        <time>2023-10-09T12:45:08Z</time>
      </trkpt>
      <trkpt lat="43.6725" lon="6.17623">
        <ele>661.4</ele>
        <time>2023-10-09T12:45:09Z</time>
      </trkpt>
      <trkpt lat="43.6725" lon="6.17623">
        <ele>661.4</ele>
        <time>2023-10-09T12:45:10Z</time>
      </trkpt>
      <trkpt lat="43.6725" lon="6.17623">
        <ele>661.4</ele>
        <time>2023-10-09T12:45:11Z</time>
      </trkpt>
      <trkpt lat="43.6725" lon="6.17623">
        <ele>661.4</ele>
        <time>2023-10-09T12:45:12Z</time>
      </trkpt>
      <trkpt lat="43.6725" lon="6.17623">
        <ele>661.4</ele>
        <time>2023-10-09T12:45:13Z</time>
      </trkpt>
      <trkpt lat="43.6725" lon="6.17623">
        <ele>661.4</ele>
        <time>2023-10-09T12:45:14Z</time>
      </trkpt>
      <trkpt lat="43.6725" lon="6.17623">
        <ele>661.4</ele>
        <time>2023-10-09T12:45:15Z</time>
      </trkpt>
      <trkpt lat="43.6725" lon="6.17623">
        <ele>661.4</ele>
        <time>2023-10-09T12:45:16Z</time>
      </trkpt>
      <trkpt lat="43.6725" lon="6.17623">
        <ele>661.4</ele>
        <time>2023-10-09T12:45:17Z</time>
      </trkpt>
      <trkpt lat="43.6725" lon="6.17623">
        <ele>661.4</ele>
        <time>2023-10-09T12:45:18Z</time>
      </trkpt>
      <trkpt lat="43.6725" lon="6.17623">
        <ele>661.4</ele>
        <time>2023-10-09T12:45:19Z</time>
      </trkpt>
      <trkpt lat="43.6725" lon="6.17623">
        <ele>661.4</ele>
        <time>2023-10-09T12:45:20Z</time>
      </trkpt>
      <trkpt lat="43.6725" lon="6.17623">
        <ele>661.4</ele>
        <time>2023-10-09T12:45:21Z</time>
      </trkpt>
      <trkpt lat="43.6725" lon="6.17623">
        <ele>661.4</ele>
        <time>2023-10-09T12:45:22Z</time>
      </trkpt>
      <trkpt lat="43.6725" lon="6.17623">
        <ele>661.4</ele>
        <time>2023-10-09T12:45:23Z</time>
      </trkpt>
      <trkpt lat="43.6725" lon="6.17623">
        <ele>661.4</ele>
        <time>2023-10-09T12:45:24Z</time>
      </trkpt>
      <trkpt lat="43.6725" lon="6.17623">
        <ele>661.4</ele>
        <time>2023-10-09T12:45:25Z</time>
      </trkpt>
      <trkpt lat="43.6725" lon="6.17623">
        <ele>661.4</ele>
        <time>2023-10-09T12:45:26Z</time>
      </trkpt>
      <trkpt lat="43.6725" lon="6.17623">
        <ele>661.4</ele>
        <time>2023-10-09T12:45:27Z</time>
      </trkpt>
      <trkpt lat="43.6725" lon="6.17623">
        <ele>661.4</ele>
        <time>2023-10-09T12:45:28Z</time>
      </trkpt>
      <trkpt lat="43.6725" lon="6.17623">
        <ele>661.4</ele>
        <time>2023-10-09T12:45:29Z</time>
      </trkpt>
      <trkpt lat="43.6725" lon="6.17623">
        <ele>661.4</ele>
        <time>2023-10-09T12:45:30Z</time>
      </trkpt>
      <trkpt lat="43.6725" lon="6.17623">
        <ele>661.4</ele>
        <time>2023-10-09T12:45:31Z</time>
      </trkpt>
      <trkpt lat="43.6725" lon="6.17623">
        <ele>661.4</ele>
        <time>2023-10-09T12:45:32Z</time>
      </trkpt>
      <trkpt lat="43.6725" lon="6.17623">
        <ele>661.4</ele>
        <time>2023-10-09T12:45:33Z</time>
      </trkpt>
      <trkpt lat="43.6725" lon="6.17623">
        <ele>661.4</ele>
        <time>2023-10-09T12:45:34Z</time>
      </trkpt>
      <trkpt lat="43.6725" lon="6.17623">
        <ele>661.4</ele>
        <time>2023-10-09T12:45:35Z</time>
      </trkpt>
      <trkpt lat="43.6725" lon="6.17623">
        <ele>661.4</ele>
        <time>2023-10-09T12:45:36Z</time>
      </trkpt>
      <trkpt lat="43.6725" lon="6.17623">
        <ele>661.4</ele>
        <time>2023-10-09T12:45:37Z</time>
      </trkpt>
      <trkpt lat="43.6725" lon="6.17623">
        <ele>661.4</ele>
        <time>2023-10-09T12:45:38Z</time>
      </trkpt>
      <trkpt lat="43.6725" lon="6.17623">
        <ele>661.4</ele>
        <time>2023-10-09T12:45:39Z</time>
      </trkpt>
      <trkpt lat="43.6725" lon="6.17623">
        <ele>661.4</ele>
        <time>2023-10-09T12:45:40Z</time>
      </trkpt>
      <trkpt lat="43.6725" lon="6.17623">
        <ele>661.4</ele>
        <time>2023-10-09T12:45:41Z</time>
      </trkpt>
      <trkpt lat="43.6725" lon="6.17623">
        <ele>661.4</ele>
        <time>2023-10-09T12:45:42Z</time>
      </trkpt>
      <trkpt lat="43.6725" lon="6.17623">
        <ele>661.4</ele>
        <time>2023-10-09T12:45:43Z</time>
      </trkpt>
      <trkpt lat="43.6725" lon="6.17623">
        <ele>661.4</ele>
        <time>2023-10-09T12:45:44Z</time>
      </trkpt>
      <trkpt lat="43.6725" lon="6.17623">
        <ele>661.4</ele>
        <time>2023-10-09T12:45:45Z</time>
      </trkpt>
      <trkpt lat="43.6725" lon="6.17623">
        <ele>661.4</ele>
        <time>2023-10-09T12:45:46Z</time>
      </trkpt>
      <trkpt lat="43.6725" lon="6.17623">
        <ele>661.4</ele>
        <time>2023-10-09T12:45:47Z</time>
      </trkpt>
      <trkpt lat="43.6725" lon="6.17623">
        <ele>661.4</ele>
        <time>2023-10-09T12:45:48Z</time>
      </trkpt>
      <trkpt lat="43.6725" lon="6.17623">
        <ele>661.4</ele>
        <time>2023-10-09T12:45:50Z</time>
      </trkpt>
      <trkpt lat="43.6725" lon="6.17623">
        <ele>661.4</ele>
        <time>2023-10-09T12:45:51Z</time>
      </trkpt>
      <trkpt lat="43.6725" lon="6.17623">
        <ele>661.4</ele>
        <time>2023-10-09T12:45:52Z</time>
      </trkpt>
      <trkpt lat="43.6725" lon="6.17623">
        <ele>661.4</ele>
        <time>2023-10-09T12:45:53Z</time>
      </trkpt>
      <trkpt lat="43.6725" lon="6.17623">
        <ele>661.4</ele>
        <time>2023-10-09T12:45:54Z</time>
      </trkpt>
      <trkpt lat="43.6725" lon="6.17623">
        <ele>661.4</ele>
        <time>2023-10-09T12:45:55Z</time>
      </trkpt>
      <trkpt lat="43.6725" lon="6.17623">
        <ele>661.4</ele>
        <time>2023-10-09T12:45:56Z</time>
      </trkpt>
      <trkpt lat="43.6725" lon="6.17623">
        <ele>661.4</ele>
        <time>2023-10-09T12:45:57Z</time>
      </trkpt>
      <trkpt lat="43.6725" lon="6.17623">
        <ele>661.4</ele>
        <time>2023-10-09T12:45:58Z</time>
      </trkpt>
      <trkpt lat="43.6725" lon="6.17623">
        <ele>661.4</ele>
        <time>2023-10-09T12:45:59Z</time>
      </trkpt>
      <trkpt lat="43.6725" lon="6.17623">
        <ele>661.4</ele>
        <time>2023-10-09T12:46:00Z</time>
      </trkpt>
      <trkpt lat="43.6725" lon="6.17623">
        <ele>661.4</ele>
        <time>2023-10-09T12:46:01Z</time>
      </trkpt>
      <trkpt lat="43.6725" lon="6.17623">
        <ele>661.4</ele>
        <time>2023-10-09T12:46:02Z</time>
      </trkpt>
      <trkpt lat="43.6725" lon="6.17623">
        <ele>661.4</ele>
        <time>2023-10-09T12:46:03Z</time>
      </trkpt>
      <trkpt lat="43.6725" lon="6.17623">
        <ele>661.4</ele>
        <time>2023-10-09T12:46:04Z</time>
      </trkpt>
      <trkpt lat="43.6725" lon="6.17623">
        <ele>661.4</ele>
        <time>2023-10-09T12:46:05Z</time>
      </trkpt>
      <trkpt lat="43.6725" lon="6.17623">
        <ele>661.4</ele>
        <time>2023-10-09T12:46:06Z</time>
      </trkpt>
      <trkpt lat="43.6725" lon="6.17623">
        <ele>661.4</ele>
        <time>2023-10-09T12:46:07Z</time>
      </trkpt>
      <trkpt lat="43.6725" lon="6.17623">
        <ele>661.4</ele>
        <time>2023-10-09T12:46:08Z</time>
      </trkpt>
      <trkpt lat="43.6725" lon="6.17623">
        <ele>661.4</ele>
        <time>2023-10-09T12:46:09Z</time>
      </trkpt>
      <trkpt lat="43.6725" lon="6.17623">
        <ele>661.4</ele>
        <time>2023-10-09T12:46:10Z</time>
      </trkpt>
      <trkpt lat="43.6725" lon="6.17623">
        <ele>661.4</ele>
        <time>2023-10-09T12:46:11Z</time>
      </trkpt>
      <trkpt lat="43.6725" lon="6.17623">
        <ele>661.4</ele>
        <time>2023-10-09T12:46:12Z</time>
      </trkpt>
      <trkpt lat="43.6725" lon="6.17623">
        <ele>661.4</ele>
        <time>2023-10-09T12:46:13Z</time>
      </trkpt>
      <trkpt lat="43.6725" lon="6.17623">
        <ele>661.4</ele>
        <time>2023-10-09T12:46:14Z</time>
      </trkpt>
      <trkpt lat="43.6725" lon="6.17623">
        <ele>661.4</ele>
        <time>2023-10-09T12:46:15Z</time>
      </trkpt>
      <trkpt lat="43.6725" lon="6.17623">
        <ele>661.4</ele>
        <time>2023-10-09T12:46:16Z</time>
      </trkpt>
      <trkpt lat="43.6725" lon="6.17623">
        <ele>661.4</ele>
        <time>2023-10-09T12:46:17Z</time>
      </trkpt>
      <trkpt lat="43.6725" lon="6.17623">
        <ele>661.4</ele>
        <time>2023-10-09T12:46:18Z</time>
      </trkpt>
      <trkpt lat="43.6725" lon="6.17623">
        <ele>661.4</ele>
        <time>2023-10-09T12:46:19Z</time>
      </trkpt>
      <trkpt lat="43.6725" lon="6.17623">
        <ele>661.4</ele>
        <time>2023-10-09T12:46:20Z</time>
      </trkpt>
      <trkpt lat="43.6725" lon="6.17623">
        <ele>661.4</ele>
        <time>2023-10-09T12:46:21Z</time>
      </trkpt>
      <trkpt lat="43.6725" lon="6.17623">
        <ele>661.4</ele>
        <time>2023-10-09T12:46:22Z</time>
      </trkpt>
      <trkpt lat="43.6725" lon="6.17623">
        <ele>661.4</ele>
        <time>2023-10-09T12:46:23Z</time>
      </trkpt>
      <trkpt lat="43.6725" lon="6.17623">
        <ele>661.4</ele>
        <time>2023-10-09T12:46:24Z</time>
      </trkpt>
      <trkpt lat="43.6725" lon="6.17623">
        <ele>661.4</ele>
        <time>2023-10-09T12:46:25Z</time>
      </trkpt>
      <trkpt lat="43.6725" lon="6.17623">
        <ele>661.4</ele>
        <time>2023-10-09T12:46:26Z</time>
      </trkpt>
      <trkpt lat="43.6725" lon="6.17623">
        <ele>661.4</ele>
        <time>2023-10-09T12:46:27Z</time>
      </trkpt>
      <trkpt lat="43.6725" lon="6.17623">
        <ele>661.4</ele>
        <time>2023-10-09T12:46:28Z</time>
      </trkpt>
      <trkpt lat="43.6725" lon="6.17623">
        <ele>661.4</ele>
        <time>2023-10-09T12:46:29Z</time>
      </trkpt>
      <trkpt lat="43.6725" lon="6.17623">
        <ele>661.4</ele>
        <time>2023-10-09T12:46:30Z</time>
      </trkpt>
      <trkpt lat="43.6725" lon="6.17623">
        <ele>661.4</ele>
        <time>2023-10-09T12:46:31Z</time>
      </trkpt>
      <trkpt lat="43.6725" lon="6.17623">
        <ele>661.4</ele>
        <time>2023-10-09T12:46:32Z</time>
      </trkpt>
      <trkpt lat="43.6725" lon="6.17623">
        <ele>661.4</ele>
        <time>2023-10-09T12:46:33Z</time>
      </trkpt>
      <trkpt lat="43.6725" lon="6.17623">
        <ele>661.4</ele>
        <time>2023-10-09T12:46:34Z</time>
      </trkpt>
      <trkpt lat="43.6725" lon="6.17623">
        <ele>661.4</ele>
        <time>2023-10-09T12:46:35Z</time>
      </trkpt>
      <trkpt lat="43.6725" lon="6.17623">
        <ele>661.4</ele>
        <time>2023-10-09T12:46:36Z</time>
      </trkpt>
      <trkpt lat="43.6725" lon="6.17623">
        <ele>661.4</ele>
        <time>2023-10-09T12:46:37Z</time>
      </trkpt>
      <trkpt lat="43.6725" lon="6.17623">
        <ele>661.4</ele>
        <time>2023-10-09T12:46:38Z</time>
      </trkpt>
      <trkpt lat="43.6725" lon="6.17623">
        <ele>661.4</ele>
        <time>2023-10-09T12:46:39Z</time>
      </trkpt>
      <trkpt lat="43.6725" lon="6.17623">
        <ele>661.4</ele>
        <time>2023-10-09T12:46:40Z</time>
      </trkpt>
      <trkpt lat="43.6725" lon="6.17623">
        <ele>661.4</ele>
        <time>2023-10-09T12:46:41Z</time>
      </trkpt>
      <trkpt lat="43.6725" lon="6.17623">
        <ele>661.4</ele>
        <time>2023-10-09T12:46:42Z</time>
      </trkpt>
      <trkpt lat="43.6725" lon="6.17623">
        <ele>661.4</ele>
        <time>2023-10-09T12:46:43Z</time>
      </trkpt>
      <trkpt lat="43.6725" lon="6.17623">
        <ele>661.4</ele>
        <time>2023-10-09T12:46:44Z</time>
      </trkpt>
      <trkpt lat="43.6725" lon="6.17623">
        <ele>661.4</ele>
        <time>2023-10-09T12:46:45Z</time>
      </trkpt>
      <trkpt lat="43.6725" lon="6.17623">
        <ele>661.4</ele>
        <time>2023-10-09T12:46:46Z</time>
      </trkpt>
      <trkpt lat="43.6725" lon="6.17623">
        <ele>661.4</ele>
        <time>2023-10-09T12:46:47Z</time>
      </trkpt>
      <trkpt lat="43.6725" lon="6.17623">
        <ele>661.4</ele>
        <time>2023-10-09T12:46:48Z</time>
      </trkpt>
      <trkpt lat="43.6725" lon="6.17623">
        <ele>661.4</ele>
        <time>2023-10-09T12:46:49Z</time>
      </trkpt>
      <trkpt lat="43.6725" lon="6.17623">
        <ele>661.4</ele>
        <time>2023-10-09T12:46:50Z</time>
      </trkpt>
      <trkpt lat="43.6725" lon="6.17623">
        <ele>661.4</ele>
        <time>2023-10-09T12:46:51Z</time>
      </trkpt>
      <trkpt lat="43.6725" lon="6.17623">
        <ele>661.4</ele>
        <time>2023-10-09T12:46:52Z</time>
      </trkpt>
      <trkpt lat="43.6725" lon="6.17623">
        <ele>661.4</ele>
        <time>2023-10-09T12:46:53Z</time>
      </trkpt>
      <trkpt lat="43.6725" lon="6.17623">
        <ele>661.4</ele>
        <time>2023-10-09T12:46:54Z</time>
      </trkpt>
      <trkpt lat="43.6725" lon="6.17623">
        <ele>661.4</ele>
        <time>2023-10-09T12:46:55Z</time>
      </trkpt>
      <trkpt lat="43.6725" lon="6.17623">
        <ele>661.4</ele>
        <time>2023-10-09T12:46:56Z</time>
      </trkpt>
      <trkpt lat="43.6725" lon="6.17623">
        <ele>661.4</ele>
        <time>2023-10-09T12:46:57Z</time>
      </trkpt>
      <trkpt lat="43.6725" lon="6.17623">
        <ele>661.4</ele>
        <time>2023-10-09T12:46:58Z</time>
      </trkpt>
      <trkpt lat="43.6725" lon="6.17623">
        <ele>661.4</ele>
        <time>2023-10-09T12:46:59Z</time>
      </trkpt>
      <trkpt lat="43.6725" lon="6.17623">
        <ele>661.4</ele>
        <time>2023-10-09T12:47:00Z</time>
      </trkpt>
      <trkpt lat="43.6725" lon="6.17623">
        <ele>661.4</ele>
        <time>2023-10-09T12:47:01Z</time>
      </trkpt>
      <trkpt lat="43.6725" lon="6.17623">
        <ele>661.4</ele>
        <time>2023-10-09T12:47:02Z</time>
      </trkpt>
      <trkpt lat="43.6725" lon="6.17623">
        <ele>661.4</ele>
        <time>2023-10-09T12:47:03Z</time>
      </trkpt>
      <trkpt lat="43.6725" lon="6.17623">
        <ele>661.4</ele>
        <time>2023-10-09T12:47:04Z</time>
      </trkpt>
      <trkpt lat="43.6725" lon="6.17623">
        <ele>661.4</ele>
        <time>2023-10-09T12:47:05Z</time>
      </trkpt>
      <trkpt lat="43.6725" lon="6.17623">
        <ele>661.4</ele>
        <time>2023-10-09T12:47:06Z</time>
      </trkpt>
      <trkpt lat="43.6725" lon="6.17623">
        <ele>661.4</ele>
        <time>2023-10-09T12:47:07Z</time>
      </trkpt>
      <trkpt lat="43.6725" lon="6.17623">
        <ele>661.4</ele>
        <time>2023-10-09T12:47:08Z</time>
      </trkpt>
      <trkpt lat="43.6725" lon="6.17623">
        <ele>661.4</ele>
        <time>2023-10-09T12:47:09Z</time>
      </trkpt>
      <trkpt lat="43.6725" lon="6.17623">
        <ele>661.4</ele>
        <time>2023-10-09T12:47:10Z</time>
      </trkpt>
      <trkpt lat="43.6725" lon="6.17623">
        <ele>661.4</ele>
        <time>2023-10-09T12:47:11Z</time>
      </trkpt>
      <trkpt lat="43.6725" lon="6.17623">
        <ele>661.4</ele>
        <time>2023-10-09T12:47:12Z</time>
      </trkpt>
      <trkpt lat="43.6725" lon="6.17623">
        <ele>661.4</ele>
        <time>2023-10-09T12:47:13Z</time>
      </trkpt>
      <trkpt lat="43.6725" lon="6.17623">
        <ele>661.4</ele>
        <time>2023-10-09T12:47:14Z</time>
      </trkpt>
      <trkpt lat="43.6725" lon="6.17623">
        <ele>661.4</ele>
        <time>2023-10-09T12:47:15Z</time>
      </trkpt>
      <trkpt lat="43.6725" lon="6.17623">
        <ele>661.4</ele>
        <time>2023-10-09T12:47:16Z</time>
      </trkpt>
      <trkpt lat="43.6725" lon="6.17623">
        <ele>661.4</ele>
        <time>2023-10-09T12:47:17Z</time>
      </trkpt>
      <trkpt lat="43.6725" lon="6.17623">
        <ele>661.4</ele>
        <time>2023-10-09T12:47:18Z</time>
      </trkpt>
      <trkpt lat="43.6725" lon="6.17623">
        <ele>661.4</ele>
        <time>2023-10-09T12:47:19Z</time>
      </trkpt>
      <trkpt lat="43.6725" lon="6.17623">
        <ele>661.4</ele>
        <time>2023-10-09T12:47:20Z</time>
      </trkpt>
      <trkpt lat="43.6725" lon="6.17623">
        <ele>661.4</ele>
        <time>2023-10-09T12:47:21Z</time>
      </trkpt>
      <trkpt lat="43.6725" lon="6.17623">
        <ele>661.4</ele>
        <time>2023-10-09T12:47:22Z</time>
      </trkpt>
      <trkpt lat="43.6725" lon="6.17623">
        <ele>661.4</ele>
        <time>2023-10-09T12:47:23Z</time>
      </trkpt>
      <trkpt lat="43.6725" lon="6.17623">
        <ele>661.4</ele>
        <time>2023-10-09T12:47:24Z</time>
      </trkpt>
      <trkpt lat="43.6725" lon="6.17623">
        <ele>661.4</ele>
        <time>2023-10-09T12:47:25Z</time>
      </trkpt>
      <trkpt lat="43.6725" lon="6.17623">
        <ele>661.4</ele>
        <time>2023-10-09T12:47:26Z</time>
      </trkpt>
      <trkpt lat="43.6725" lon="6.17623">
        <ele>661.4</ele>
        <time>2023-10-09T12:47:27Z</time>
      </trkpt>
      <trkpt lat="43.6725" lon="6.17623">
        <ele>661.4</ele>
        <time>2023-10-09T12:47:28Z</time>
      </trkpt>
      <trkpt lat="43.6725" lon="6.17623">
        <ele>661.4</ele>
        <time>2023-10-09T12:47:29Z</time>
      </trkpt>
      <trkpt lat="43.6725" lon="6.17623">
        <ele>661.4</ele>
        <time>2023-10-09T12:47:30Z</time>
      </trkpt>
      <trkpt lat="43.6725" lon="6.17623">
        <ele>661.4</ele>
        <time>2023-10-09T12:47:31Z</time>
      </trkpt>
      <trkpt lat="43.6725" lon="6.17623">
        <ele>661.4</ele>
        <time>2023-10-09T12:47:32Z</time>
      </trkpt>
      <trkpt lat="43.6725" lon="6.17623">
        <ele>661.4</ele>
        <time>2023-10-09T12:47:33Z</time>
      </trkpt>
      <trkpt lat="43.6725" lon="6.17623">
        <ele>661.4</ele>
        <time>2023-10-09T12:47:34Z</time>
      </trkpt>
      <trkpt lat="43.6725" lon="6.17623">
        <ele>661.4</ele>
        <time>2023-10-09T12:47:35Z</time>
      </trkpt>
      <trkpt lat="43.6725" lon="6.17623">
        <ele>661.4</ele>
        <time>2023-10-09T12:47:36Z</time>
      </trkpt>
      <trkpt lat="43.6725" lon="6.17623">
        <ele>661.4</ele>
        <time>2023-10-09T12:47:37Z</time>
      </trkpt>
      <trkpt lat="43.6725" lon="6.17623">
        <ele>661.4</ele>
        <time>2023-10-09T12:47:38Z</time>
      </trkpt>
      <trkpt lat="43.6725" lon="6.17623">
        <ele>661.4</ele>
        <time>2023-10-09T12:47:39Z</time>
      </trkpt>
      <trkpt lat="43.6725" lon="6.17623">
        <ele>661.4</ele>
        <time>2023-10-09T12:47:40Z</time>
      </trkpt>
      <trkpt lat="43.6725" lon="6.17623">
        <ele>661.4</ele>
        <time>2023-10-09T12:47:41Z</time>
      </trkpt>
      <trkpt lat="43.6725" lon="6.17623">
        <ele>661.4</ele>
        <time>2023-10-09T12:47:42Z</time>
      </trkpt>
      <trkpt lat="43.6725" lon="6.17623">
        <ele>661.4</ele>
        <time>2023-10-09T12:47:43Z</time>
      </trkpt>
      <trkpt lat="43.6725" lon="6.17623">
        <ele>661.4</ele>
        <time>2023-10-09T12:47:44Z</time>
      </trkpt>
      <trkpt lat="43.6725" lon="6.17623">
        <ele>661.4</ele>
        <time>2023-10-09T12:47:45Z</time>
      </trkpt>
      <trkpt lat="43.6725" lon="6.17623">
        <ele>661.4</ele>
        <time>2023-10-09T12:47:46Z</time>
      </trkpt>
      <trkpt lat="43.6725" lon="6.17623">
        <ele>661.4</ele>
        <time>2023-10-09T12:47:47Z</time>
      </trkpt>
      <trkpt lat="43.6725" lon="6.17623">
        <ele>661.4</ele>
        <time>2023-10-09T12:47:48Z</time>
      </trkpt>
      <trkpt lat="43.6725" lon="6.17623">
        <ele>661.4</ele>
        <time>2023-10-09T12:47:49Z</time>
      </trkpt>
      <trkpt lat="43.6725" lon="6.17623">
        <ele>661.4</ele>
        <time>2023-10-09T12:47:50Z</time>
      </trkpt>
      <trkpt lat="43.6725" lon="6.17623">
        <ele>661.4</ele>
        <time>2023-10-09T12:47:51Z</time>
      </trkpt>
      <trkpt lat="43.6725" lon="6.17623">
        <ele>661.4</ele>
        <time>2023-10-09T12:47:52Z</time>
      </trkpt>
      <trkpt lat="43.6725" lon="6.17623">
        <ele>661.4</ele>
        <time>2023-10-09T12:47:53Z</time>
      </trkpt>
      <trkpt lat="43.6725" lon="6.17623">
        <ele>661.4</ele>
        <time>2023-10-09T12:47:54Z</time>
      </trkpt>
      <trkpt lat="43.6725" lon="6.17623">
        <ele>661.4</ele>
        <time>2023-10-09T12:47:55Z</time>
      </trkpt>
      <trkpt lat="43.6725" lon="6.17623">
        <ele>661.4</ele>
        <time>2023-10-09T12:47:56Z</time>
      </trkpt>
      <trkpt lat="43.6725" lon="6.17623">
        <ele>661.4</ele>
        <time>2023-10-09T12:47:57Z</time>
      </trkpt>
      <trkpt lat="43.6725" lon="6.17623">
        <ele>661.4</ele>
        <time>2023-10-09T12:47:58Z</time>
      </trkpt>
      <trkpt lat="43.6725" lon="6.17623">
        <ele>661.4</ele>
        <time>2023-10-09T12:47:59Z</time>
      </trkpt>
      <trkpt lat="43.6725" lon="6.17623">
        <ele>661.4</ele>
        <time>2023-10-09T12:48:00Z</time>
      </trkpt>
      <trkpt lat="43.6725" lon="6.17623">
        <ele>661.4</ele>
        <time>2023-10-09T12:48:01Z</time>
      </trkpt>
      <trkpt lat="43.6725" lon="6.17623">
        <ele>661.4</ele>
        <time>2023-10-09T12:48:02Z</time>
      </trkpt>
      <trkpt lat="43.6725" lon="6.17623">
        <ele>661.4</ele>
        <time>2023-10-09T12:48:03Z</time>
      </trkpt>
      <trkpt lat="43.6725" lon="6.17623">
        <ele>661.4</ele>
        <time>2023-10-09T12:48:04Z</time>
      </trkpt>
      <trkpt lat="43.6725" lon="6.17623">
        <ele>661.4</ele>
        <time>2023-10-09T12:48:05Z</time>
      </trkpt>
      <trkpt lat="43.6725" lon="6.17623">
        <ele>661.4</ele>
        <time>2023-10-09T12:48:06Z</time>
      </trkpt>
      <trkpt lat="43.6725" lon="6.17623">
        <ele>661.4</ele>
        <time>2023-10-09T12:48:07Z</time>
      </trkpt>
      <trkpt lat="43.6725" lon="6.17623">
        <ele>661.4</ele>
        <time>2023-10-09T12:48:08Z</time>
      </trkpt>
      <trkpt lat="43.6725" lon="6.17623">
        <ele>661.4</ele>
        <time>2023-10-09T12:48:09Z</time>
      </trkpt>
      <trkpt lat="43.6725" lon="6.17623">
        <ele>661.4</ele>
        <time>2023-10-09T12:48:10Z</time>
      </trkpt>
      <trkpt lat="43.6725" lon="6.17623">
        <ele>661.4</ele>
        <time>2023-10-09T12:48:11Z</time>
      </trkpt>
      <trkpt lat="43.6725" lon="6.17623">
        <ele>661.4</ele>
        <time>2023-10-09T12:48:12Z</time>
      </trkpt>
      <trkpt lat="43.6725" lon="6.17623">
        <ele>661.4</ele>
        <time>2023-10-09T12:48:13Z</time>
      </trkpt>
      <trkpt lat="43.6725" lon="6.17623">
        <ele>661.4</ele>
        <time>2023-10-09T12:48:14Z</time>
      </trkpt>
      <trkpt lat="43.6725" lon="6.17623">
        <ele>661.4</ele>
        <time>2023-10-09T12:48:15Z</time>
      </trkpt>
      <trkpt lat="43.6725" lon="6.17623">
        <ele>661.4</ele>
        <time>2023-10-09T12:48:16Z</time>
      </trkpt>
      <trkpt lat="43.6725" lon="6.17623">
        <ele>661.4</ele>
        <time>2023-10-09T12:48:17Z</time>
      </trkpt>
      <trkpt lat="43.6725" lon="6.17623">
        <ele>661.4</ele>
        <time>2023-10-09T12:48:18Z</time>
      </trkpt>
      <trkpt lat="43.6725" lon="6.17623">
        <ele>661.4</ele>
        <time>2023-10-09T12:48:19Z</time>
      </trkpt>
      <trkpt lat="43.6725" lon="6.17623">
        <ele>661.4</ele>
        <time>2023-10-09T12:48:20Z</time>
      </trkpt>
      <trkpt lat="43.6725" lon="6.17623">
        <ele>661.4</ele>
        <time>2023-10-09T12:48:21Z</time>
      </trkpt>
      <trkpt lat="43.6725" lon="6.17623">
        <ele>661.4</ele>
        <time>2023-10-09T12:48:22Z</time>
      </trkpt>
      <trkpt lat="43.6725" lon="6.17623">
        <ele>661.4</ele>
        <time>2023-10-09T12:48:23Z</time>
      </trkpt>
      <trkpt lat="43.6725" lon="6.17623">
        <ele>661.4</ele>
        <time>2023-10-09T12:48:24Z</time>
      </trkpt>
      <trkpt lat="43.6725" lon="6.17623">
        <ele>661.4</ele>
        <time>2023-10-09T12:48:25Z</time>
      </trkpt>
      <trkpt lat="43.6725" lon="6.17623">
        <ele>661.4</ele>
        <time>2023-10-09T12:48:26Z</time>
      </trkpt>
      <trkpt lat="43.6725" lon="6.17623">
        <ele>661.4</ele>
        <time>2023-10-09T12:48:27Z</time>
      </trkpt>
      <trkpt lat="43.6725" lon="6.17623">
        <ele>661.4</ele>
        <time>2023-10-09T12:48:28Z</time>
      </trkpt>
      <trkpt lat="43.6725" lon="6.17623">
        <ele>661.4</ele>
        <time>2023-10-09T12:48:29Z</time>
      </trkpt>
      <trkpt lat="43.6725" lon="6.17623">
        <ele>661.4</ele>
        <time>2023-10-09T12:48:30Z</time>
      </trkpt>
      <trkpt lat="43.6725" lon="6.17623">
        <ele>661.4</ele>
        <time>2023-10-09T12:48:31Z</time>
      </trkpt>
      <trkpt lat="43.6725" lon="6.17623">
        <ele>661.4</ele>
        <time>2023-10-09T12:48:32Z</time>
      </trkpt>
      <trkpt lat="43.6725" lon="6.17623">
        <ele>661.4</ele>
        <time>2023-10-09T12:48:33Z</time>
      </trkpt>
      <trkpt lat="43.6725" lon="6.17623">
        <ele>661.4</ele>
        <time>2023-10-09T12:48:34Z</time>
      </trkpt>
      <trkpt lat="43.6725" lon="6.17623">
        <ele>661.4</ele>
        <time>2023-10-09T12:48:35Z</time>
      </trkpt>
      <trkpt lat="43.6725" lon="6.17623">
        <ele>661.4</ele>
        <time>2023-10-09T12:48:36Z</time>
      </trkpt>
      <trkpt lat="43.6725" lon="6.17623">
        <ele>661.4</ele>
        <time>2023-10-09T12:48:37Z</time>
      </trkpt>
      <trkpt lat="43.6725" lon="6.17623">
        <ele>661.4</ele>
        <time>2023-10-09T12:48:38Z</time>
      </trkpt>
      <trkpt lat="43.6725" lon="6.17623">
        <ele>661.4</ele>
        <time>2023-10-09T12:48:39Z</time>
      </trkpt>
      <trkpt lat="43.6725" lon="6.17623">
        <ele>661.4</ele>
        <time>2023-10-09T12:48:40Z</time>
      </trkpt>
      <trkpt lat="43.6725" lon="6.17623">
        <ele>661.4</ele>
        <time>2023-10-09T12:48:41Z</time>
      </trkpt>
      <trkpt lat="43.6725" lon="6.17623">
        <ele>661.4</ele>
        <time>2023-10-09T12:48:42Z</time>
      </trkpt>
      <trkpt lat="43.6725" lon="6.17623">
        <ele>661.4</ele>
        <time>2023-10-09T12:48:43Z</time>
      </trkpt>
      <trkpt lat="43.6725" lon="6.17623">
        <ele>661.4</ele>
        <time>2023-10-09T12:48:44Z</time>
      </trkpt>
      <trkpt lat="43.6725" lon="6.17623">
        <ele>661.4</ele>
        <time>2023-10-09T12:48:45Z</time>
      </trkpt>
      <trkpt lat="43.6725" lon="6.17623">
        <ele>661.4</ele>
        <time>2023-10-09T12:48:46Z</time>
      </trkpt>
      <trkpt lat="43.6725" lon="6.17623">
        <ele>661.4</ele>
        <time>2023-10-09T12:48:47Z</time>
      </trkpt>
      <trkpt lat="43.6725" lon="6.17623">
        <ele>661.4</ele>
        <time>2023-10-09T12:48:48Z</time>
      </trkpt>
      <trkpt lat="43.6725" lon="6.17623">
        <ele>661.4</ele>
        <time>2023-10-09T12:48:49Z</time>
      </trkpt>
      <trkpt lat="43.6725" lon="6.17623">
        <ele>661.4</ele>
        <time>2023-10-09T12:48:50Z</time>
      </trkpt>
      <trkpt lat="43.6725" lon="6.17623">
        <ele>661.4</ele>
        <time>2023-10-09T12:48:51Z</time>
      </trkpt>
      <trkpt lat="43.6725" lon="6.17623">
        <ele>661.4</ele>
        <time>2023-10-09T12:48:52Z</time>
      </trkpt>
      <trkpt lat="43.6725" lon="6.17623">
        <ele>661.4</ele>
        <time>2023-10-09T12:48:53Z</time>
      </trkpt>
      <trkpt lat="43.6725" lon="6.17623">
        <ele>661.4</ele>
        <time>2023-10-09T12:48:54Z</time>
      </trkpt>
      <trkpt lat="43.6725" lon="6.17623">
        <ele>661.4</ele>
        <time>2023-10-09T12:48:55Z</time>
      </trkpt>
      <trkpt lat="43.6725" lon="6.17623">
        <ele>661.4</ele>
        <time>2023-10-09T12:48:56Z</time>
      </trkpt>
      <trkpt lat="43.6725" lon="6.17623">
        <ele>661.4</ele>
        <time>2023-10-09T12:48:57Z</time>
      </trkpt>
      <trkpt lat="43.6725" lon="6.17623">
        <ele>661.4</ele>
        <time>2023-10-09T12:48:58Z</time>
      </trkpt>
      <trkpt lat="43.6725" lon="6.17623">
        <ele>661.4</ele>
        <time>2023-10-09T12:48:59Z</time>
      </trkpt>
      <trkpt lat="43.6725" lon="6.17623">
        <ele>661.4</ele>
        <time>2023-10-09T12:49:00Z</time>
      </trkpt>
      <trkpt lat="43.6725" lon="6.17623">
        <ele>661.4</ele>
        <time>2023-10-09T12:49:01Z</time>
      </trkpt>
      <trkpt lat="43.6725" lon="6.17623">
        <ele>661.4</ele>
        <time>2023-10-09T12:49:02Z</time>
      </trkpt>
      <trkpt lat="43.6725" lon="6.17623">
        <ele>661.4</ele>
        <time>2023-10-09T12:49:03Z</time>
      </trkpt>
      <trkpt lat="43.6725" lon="6.17623">
        <ele>661.4</ele>
        <time>2023-10-09T12:49:04Z</time>
      </trkpt>
      <trkpt lat="43.6725" lon="6.17623">
        <ele>661.4</ele>
        <time>2023-10-09T12:49:05Z</time>
      </trkpt>
      <trkpt lat="43.6725" lon="6.17623">
        <ele>661.4</ele>
        <time>2023-10-09T12:49:06Z</time>
      </trkpt>
      <trkpt lat="43.6725" lon="6.17623">
        <ele>661.4</ele>
        <time>2023-10-09T12:49:07Z</time>
      </trkpt>
      <trkpt lat="43.6725" lon="6.17623">
        <ele>661.4</ele>
        <time>2023-10-09T12:49:08Z</time>
      </trkpt>
      <trkpt lat="43.6725" lon="6.17623">
        <ele>661.4</ele>
        <time>2023-10-09T12:49:09Z</time>
      </trkpt>
      <trkpt lat="43.6725" lon="6.17623">
        <ele>661.4</ele>
        <time>2023-10-09T12:49:10Z</time>
      </trkpt>
      <trkpt lat="43.6725" lon="6.17623">
        <ele>661.4</ele>
        <time>2023-10-09T12:49:11Z</time>
      </trkpt>
      <trkpt lat="43.6725" lon="6.17623">
        <ele>661.4</ele>
        <time>2023-10-09T12:49:12Z</time>
      </trkpt>
      <trkpt lat="43.6725" lon="6.17623">
        <ele>661.4</ele>
        <time>2023-10-09T12:49:13Z</time>
      </trkpt>
      <trkpt lat="43.6725" lon="6.17623">
        <ele>661.4</ele>
        <time>2023-10-09T12:49:14Z</time>
      </trkpt>
      <trkpt lat="43.6725" lon="6.17623">
        <ele>661.4</ele>
        <time>2023-10-09T12:49:15Z</time>
      </trkpt>
      <trkpt lat="43.6725" lon="6.17623">
        <ele>661.4</ele>
        <time>2023-10-09T12:49:16Z</time>
      </trkpt>
      <trkpt lat="43.6725" lon="6.17623">
        <ele>661.4</ele>
        <time>2023-10-09T12:49:17Z</time>
      </trkpt>
      <trkpt lat="43.6725" lon="6.17623">
        <ele>661.4</ele>
        <time>2023-10-09T12:49:18Z</time>
      </trkpt>
      <trkpt lat="43.6725" lon="6.17623">
        <ele>661.4</ele>
        <time>2023-10-09T12:49:19Z</time>
      </trkpt>
      <trkpt lat="43.6725" lon="6.17623">
        <ele>661.4</ele>
        <time>2023-10-09T12:49:20Z</time>
      </trkpt>
      <trkpt lat="43.6725" lon="6.17623">
        <ele>661.4</ele>
        <time>2023-10-09T12:49:21Z</time>
      </trkpt>
      <trkpt lat="43.6725" lon="6.17623">
        <ele>661.4</ele>
        <time>2023-10-09T12:49:22Z</time>
      </trkpt>
      <trkpt lat="43.6725" lon="6.17623">
        <ele>661.4</ele>
        <time>2023-10-09T12:49:23Z</time>
      </trkpt>
      <trkpt lat="43.6725" lon="6.17623">
        <ele>661.4</ele>
        <time>2023-10-09T12:49:24Z</time>
      </trkpt>
      <trkpt lat="43.6725" lon="6.17623">
        <ele>661.4</ele>
        <time>2023-10-09T12:49:25Z</time>
      </trkpt>
      <trkpt lat="43.6725" lon="6.17623">
        <ele>661.4</ele>
        <time>2023-10-09T12:49:26Z</time>
      </trkpt>
      <trkpt lat="43.6725" lon="6.17623">
        <ele>661.4</ele>
        <time>2023-10-09T12:49:27Z</time>
      </trkpt>
      <trkpt lat="43.6725" lon="6.17623">
        <ele>661.4</ele>
        <time>2023-10-09T12:49:28Z</time>
      </trkpt>
      <trkpt lat="43.6725" lon="6.17623">
        <ele>661.4</ele>
        <time>2023-10-09T12:49:29Z</time>
      </trkpt>
      <trkpt lat="43.6725" lon="6.17623">
        <ele>661.4</ele>
        <time>2023-10-09T12:49:30Z</time>
      </trkpt>
      <trkpt lat="43.6725" lon="6.17623">
        <ele>661.4</ele>
        <time>2023-10-09T12:49:31Z</time>
      </trkpt>
      <trkpt lat="43.6725" lon="6.17623">
        <ele>661.4</ele>
        <time>2023-10-09T12:49:32Z</time>
      </trkpt>
      <trkpt lat="43.6725" lon="6.17623">
        <ele>661.4</ele>
        <time>2023-10-09T12:49:33Z</time>
      </trkpt>
      <trkpt lat="43.6725" lon="6.17623">
        <ele>661.4</ele>
        <time>2023-10-09T12:49:34Z</time>
      </trkpt>
      <trkpt lat="43.6725" lon="6.17623">
        <ele>661.4</ele>
        <time>2023-10-09T12:49:35Z</time>
      </trkpt>
      <trkpt lat="43.6725" lon="6.17623">
        <ele>661.4</ele>
        <time>2023-10-09T12:49:36Z</time>
      </trkpt>
      <trkpt lat="43.6725" lon="6.17623">
        <ele>661.4</ele>
        <time>2023-10-09T12:49:37Z</time>
      </trkpt>
      <trkpt lat="43.6725" lon="6.17623">
        <ele>661.4</ele>
        <time>2023-10-09T12:49:38Z</time>
      </trkpt>
      <trkpt lat="43.6725" lon="6.17623">
        <ele>661.4</ele>
        <time>2023-10-09T12:49:39Z</time>
      </trkpt>
      <trkpt lat="43.6725" lon="6.17623">
        <ele>661.4</ele>
        <time>2023-10-09T12:49:40Z</time>
      </trkpt>
      <trkpt lat="43.6725" lon="6.17623">
        <ele>661.4</ele>
        <time>2023-10-09T12:49:41Z</time>
      </trkpt>
      <trkpt lat="43.6725" lon="6.17623">
        <ele>661.4</ele>
        <time>2023-10-09T12:49:42Z</time>
      </trkpt>
      <trkpt lat="43.6725" lon="6.17623">
        <ele>661.4</ele>
        <time>2023-10-09T12:49:43Z</time>
      </trkpt>
      <trkpt lat="43.6725" lon="6.17623">
        <ele>661.4</ele>
        <time>2023-10-09T12:49:44Z</time>
      </trkpt>
      <trkpt lat="43.6725" lon="6.17623">
        <ele>661.4</ele>
        <time>2023-10-09T12:49:45Z</time>
      </trkpt>
      <trkpt lat="43.6725" lon="6.17623">
        <ele>661.4</ele>
        <time>2023-10-09T12:49:46Z</time>
      </trkpt>
      <trkpt lat="43.6725" lon="6.17623">
        <ele>661.4</ele>
        <time>2023-10-09T12:49:47Z</time>
      </trkpt>
      <trkpt lat="43.6725" lon="6.17623">
        <ele>661.4</ele>
        <time>2023-10-09T12:49:48Z</time>
      </trkpt>
      <trkpt lat="43.6725" lon="6.17623">
        <ele>661.4</ele>
        <time>2023-10-09T12:49:49Z</time>
      </trkpt>
      <trkpt lat="43.6725" lon="6.17623">
        <ele>661.4</ele>
        <time>2023-10-09T12:49:50Z</time>
      </trkpt>
      <trkpt lat="43.6725" lon="6.17623">
        <ele>661.4</ele>
        <time>2023-10-09T12:49:51Z</time>
      </trkpt>
      <trkpt lat="43.6725" lon="6.17623">
        <ele>661.4</ele>
        <time>2023-10-09T12:49:52Z</time>
      </trkpt>
      <trkpt lat="43.6725" lon="6.17623">
        <ele>661.4</ele>
        <time>2023-10-09T12:49:53Z</time>
      </trkpt>
      <trkpt lat="43.6725" lon="6.17623">
        <ele>661.4</ele>
        <time>2023-10-09T12:49:54Z</time>
      </trkpt>
      <trkpt lat="43.6725" lon="6.17623">
        <ele>661.4</ele>
        <time>2023-10-09T12:49:55Z</time>
      </trkpt>
      <trkpt lat="43.6725" lon="6.17623">
        <ele>661.4</ele>
        <time>2023-10-09T12:49:56Z</time>
      </trkpt>
      <trkpt lat="43.6725" lon="6.17623">
        <ele>661.4</ele>
        <time>2023-10-09T12:49:57Z</time>
      </trkpt>
      <trkpt lat="43.6725" lon="6.17623">
        <ele>661.4</ele>
        <time>2023-10-09T12:49:58Z</time>
      </trkpt>
      <trkpt lat="43.6725" lon="6.17623">
        <ele>661.4</ele>
        <time>2023-10-09T12:49:59Z</time>
      </trkpt>
      <trkpt lat="43.6725" lon="6.17623">
        <ele>661.4</ele>
        <time>2023-10-09T12:50:00Z</time>
      </trkpt>
      <trkpt lat="43.6725" lon="6.17623">
        <ele>661.4</ele>
        <time>2023-10-09T12:50:01Z</time>
      </trkpt>
      <trkpt lat="43.6725" lon="6.17623">
        <ele>661.4</ele>
        <time>2023-10-09T12:50:02Z</time>
      </trkpt>
      <trkpt lat="43.6725" lon="6.17623">
        <ele>661.4</ele>
        <time>2023-10-09T12:50:03Z</time>
      </trkpt>
      <trkpt lat="43.6725" lon="6.17623">
        <ele>661.4</ele>
        <time>2023-10-09T12:50:04Z</time>
      </trkpt>
      <trkpt lat="43.6725" lon="6.17623">
        <ele>661.4</ele>
        <time>2023-10-09T12:50:05Z</time>
      </trkpt>
      <trkpt lat="43.6725" lon="6.17623">
        <ele>661.4</ele>
        <time>2023-10-09T12:50:06Z</time>
      </trkpt>
      <trkpt lat="43.6725" lon="6.17623">
        <ele>661.4</ele>
        <time>2023-10-09T12:50:07Z</time>
      </trkpt>
      <trkpt lat="43.6725" lon="6.17623">
        <ele>661.4</ele>
        <time>2023-10-09T12:50:08Z</time>
      </trkpt>
      <trkpt lat="43.6725" lon="6.17623">
        <ele>661.4</ele>
        <time>2023-10-09T12:50:09Z</time>
      </trkpt>
      <trkpt lat="43.6725" lon="6.17623">
        <ele>661.4</ele>
        <time>2023-10-09T12:50:10Z</time>
      </trkpt>
      <trkpt lat="43.6725" lon="6.17623">
        <ele>661.4</ele>
        <time>2023-10-09T12:50:11Z</time>
      </trkpt>
      <trkpt lat="43.6725" lon="6.17623">
        <ele>661.4</ele>
        <time>2023-10-09T12:50:12Z</time>
      </trkpt>
      <trkpt lat="43.6725" lon="6.17623">
        <ele>661.4</ele>
        <time>2023-10-09T12:50:13Z</time>
      </trkpt>
      <trkpt lat="43.6725" lon="6.17623">
        <ele>661.4</ele>
        <time>2023-10-09T12:50:14Z</time>
      </trkpt>
      <trkpt lat="43.6725" lon="6.17623">
        <ele>661.4</ele>
        <time>2023-10-09T12:50:15Z</time>
      </trkpt>
      <trkpt lat="43.6725" lon="6.17623">
        <ele>661.4</ele>
        <time>2023-10-09T12:50:16Z</time>
      </trkpt>
      <trkpt lat="43.6725" lon="6.17623">
        <ele>661.4</ele>
        <time>2023-10-09T12:50:17Z</time>
      </trkpt>
      <trkpt lat="43.6725" lon="6.17623">
        <ele>661.4</ele>
        <time>2023-10-09T12:50:18Z</time>
      </trkpt>
      <trkpt lat="43.6725" lon="6.17623">
        <ele>661.4</ele>
        <time>2023-10-09T12:50:19Z</time>
      </trkpt>
      <trkpt lat="43.6725" lon="6.17623">
        <ele>661.4</ele>
        <time>2023-10-09T12:50:20Z</time>
      </trkpt>
      <trkpt lat="43.6725" lon="6.17623">
        <ele>661.4</ele>
        <time>2023-10-09T12:50:21Z</time>
      </trkpt>
      <trkpt lat="43.6725" lon="6.17623">
        <ele>661.4</ele>
        <time>2023-10-09T12:50:22Z</time>
      </trkpt>
      <trkpt lat="43.6725" lon="6.17623">
        <ele>661.4</ele>
        <time>2023-10-09T12:50:23Z</time>
      </trkpt>
      <trkpt lat="43.6725" lon="6.17623">
        <ele>661.4</ele>
        <time>2023-10-09T12:50:24Z</time>
      </trkpt>
      <trkpt lat="43.6725" lon="6.17623">
        <ele>661.4</ele>
        <time>2023-10-09T12:50:25Z</time>
      </trkpt>
      <trkpt lat="43.6725" lon="6.17623">
        <ele>661.4</ele>
        <time>2023-10-09T12:50:26Z</time>
      </trkpt>
      <trkpt lat="43.6725" lon="6.17623">
        <ele>661.4</ele>
        <time>2023-10-09T12:50:27Z</time>
      </trkpt>
      <trkpt lat="43.6725" lon="6.17623">
        <ele>661.4</ele>
        <time>2023-10-09T12:50:28Z</time>
      </trkpt>
      <trkpt lat="43.6725" lon="6.17623">
        <ele>661.4</ele>
        <time>2023-10-09T12:50:29Z</time>
      </trkpt>
      <trkpt lat="43.6725" lon="6.17623">
        <ele>661.4</ele>
        <time>2023-10-09T12:50:30Z</time>
      </trkpt>
      <trkpt lat="43.6725" lon="6.17623">
        <ele>661.4</ele>
        <time>2023-10-09T12:50:31Z</time>
      </trkpt>
      <trkpt lat="43.6725" lon="6.17623">
        <ele>661.4</ele>
        <time>2023-10-09T12:50:32Z</time>
      </trkpt>
      <trkpt lat="43.6725" lon="6.17623">
        <ele>661.4</ele>
        <time>2023-10-09T12:50:33Z</time>
      </trkpt>
      <trkpt lat="43.6725" lon="6.17623">
        <ele>661.4</ele>
        <time>2023-10-09T12:50:34Z</time>
      </trkpt>
      <trkpt lat="43.6725" lon="6.17623">
        <ele>661.4</ele>
        <time>2023-10-09T12:50:35Z</time>
      </trkpt>
      <trkpt lat="43.6725" lon="6.17623">
        <ele>661.4</ele>
        <time>2023-10-09T12:50:36Z</time>
      </trkpt>
      <trkpt lat="43.6725" lon="6.17623">
        <ele>661.4</ele>
        <time>2023-10-09T12:50:37Z</time>
      </trkpt>
      <trkpt lat="43.6725" lon="6.17623">
        <ele>661.4</ele>
        <time>2023-10-09T12:50:38Z</time>
      </trkpt>
      <trkpt lat="43.6725" lon="6.17623">
        <ele>661.4</ele>
        <time>2023-10-09T12:50:39Z</time>
      </trkpt>
      <trkpt lat="43.6725" lon="6.17623">
        <ele>661.4</ele>
        <time>2023-10-09T12:50:40Z</time>
      </trkpt>
      <trkpt lat="43.6725" lon="6.17623">
        <ele>661.4</ele>
        <time>2023-10-09T12:50:41Z</time>
      </trkpt>
      <trkpt lat="43.6725" lon="6.17623">
        <ele>661.4</ele>
        <time>2023-10-09T12:50:42Z</time>
      </trkpt>
      <trkpt lat="43.6725" lon="6.17623">
        <ele>661.4</ele>
        <time>2023-10-09T12:50:43Z</time>
      </trkpt>
      <trkpt lat="43.6725" lon="6.17623">
        <ele>661.4</ele>
        <time>2023-10-09T12:50:44Z</time>
      </trkpt>
      <trkpt lat="43.6725" lon="6.17623">
        <ele>661.4</ele>
        <time>2023-10-09T12:50:45Z</time>
      </trkpt>
      <trkpt lat="43.6725" lon="6.17623">
        <ele>661.4</ele>
        <time>2023-10-09T12:50:46Z</time>
      </trkpt>
      <trkpt lat="43.6725" lon="6.17623">
        <ele>661.4</ele>
        <time>2023-10-09T12:50:47Z</time>
      </trkpt>
      <trkpt lat="43.6725" lon="6.17623">
        <ele>661.4</ele>
        <time>2023-10-09T12:50:48Z</time>
      </trkpt>
      <trkpt lat="43.6725" lon="6.17623">
        <ele>661.4</ele>
        <time>2023-10-09T12:50:49Z</time>
      </trkpt>
      <trkpt lat="43.6725" lon="6.17623">
        <ele>661.4</ele>
        <time>2023-10-09T12:50:50Z</time>
      </trkpt>
      <trkpt lat="43.6725" lon="6.17623">
        <ele>661.4</ele>
        <time>2023-10-09T12:50:51Z</time>
      </trkpt>
      <trkpt lat="43.6725" lon="6.17623">
        <ele>661.4</ele>
        <time>2023-10-09T12:50:52Z</time>
      </trkpt>
      <trkpt lat="43.6725" lon="6.17623">
        <ele>661.4</ele>
        <time>2023-10-09T12:50:53Z</time>
      </trkpt>
      <trkpt lat="43.6725" lon="6.17623">
        <ele>661.4</ele>
        <time>2023-10-09T12:50:54Z</time>
      </trkpt>
      <trkpt lat="43.6725" lon="6.17623">
        <ele>661.4</ele>
        <time>2023-10-09T12:50:55Z</time>
      </trkpt>
      <trkpt lat="43.6725" lon="6.17623">
        <ele>661.4</ele>
        <time>2023-10-09T12:50:56Z</time>
      </trkpt>
      <trkpt lat="43.6725" lon="6.17623">
        <ele>661.4</ele>
        <time>2023-10-09T12:50:57Z</time>
      </trkpt>
      <trkpt lat="43.67248" lon="6.17625">
        <ele>661.5</ele>
        <time>2023-10-09T12:51:17Z</time>
      </trkpt>
      <trkpt lat="43.67248" lon="6.17625">
        <ele>661.5</ele>
        <time>2023-10-09T12:51:18Z</time>
      </trkpt>
      <trkpt lat="43.6725" lon="6.17625">
        <ele>661.5</ele>
        <time>2023-10-09T12:51:19Z</time>
      </trkpt>
      <trkpt lat="43.67254" lon="6.17624">
        <ele>661.5</ele>
        <time>2023-10-09T12:51:21Z</time>
      </trkpt>
      <trkpt lat="43.67258" lon="6.17623">
        <ele>661.4</ele>
        <time>2023-10-09T12:51:22Z</time>
      </trkpt>
      <trkpt lat="43.67259" lon="6.17623">
        <ele>661.4</ele>
        <time>2023-10-09T12:51:23Z</time>
      </trkpt>
      <trkpt lat="43.67262" lon="6.17623">
        <ele>661.4</ele>
        <time>2023-10-09T12:51:24Z</time>
      </trkpt>
      <trkpt lat="43.67263" lon="6.17622">
        <ele>661.4</ele>
        <time>2023-10-09T12:51:25Z</time>
      </trkpt>
      <trkpt lat="43.67265" lon="6.17622">
        <ele>661.4</ele>
        <time>2023-10-09T12:51:26Z</time>
      </trkpt>
      <trkpt lat="43.67266" lon="6.17621">
        <ele>661.4</ele>
        <time>2023-10-09T12:51:27Z</time>
      </trkpt>
      <trkpt lat="43.67269" lon="6.1762">
        <ele>661.3</ele>
        <time>2023-10-09T12:51:28Z</time>
      </trkpt>
      <trkpt lat="43.6727" lon="6.1762">
        <ele>661.3</ele>
        <time>2023-10-09T12:51:29Z</time>
      </trkpt>
      <trkpt lat="43.67273" lon="6.1762">
        <ele>661.3</ele>
        <time>2023-10-09T12:51:30Z</time>
      </trkpt>
      <trkpt lat="43.67274" lon="6.1762">
        <ele>661.3</ele>
        <time>2023-10-09T12:51:31Z</time>
      </trkpt>
      <trkpt lat="43.67275" lon="6.17621">
        <ele>661.4</ele>
        <time>2023-10-09T12:51:32Z</time>
      </trkpt>
      <trkpt lat="43.67276" lon="6.17621">
        <ele>661.4</ele>
        <time>2023-10-09T12:51:33Z</time>
      </trkpt>
      <trkpt lat="43.67277" lon="6.17622">
        <ele>661.4</ele>
        <time>2023-10-09T12:51:34Z</time>
      </trkpt>
      <trkpt lat="43.67278" lon="6.17622">
        <ele>661.4</ele>
        <time>2023-10-09T12:51:35Z</time>
      </trkpt>
      <trkpt lat="43.67279" lon="6.17622">
        <ele>661.3</ele>
        <time>2023-10-09T12:51:36Z</time>
      </trkpt>
      <trkpt lat="43.67279" lon="6.17622">
        <ele>661.3</ele>
        <time>2023-10-09T12:51:37Z</time>
      </trkpt>
      <trkpt lat="43.6728" lon="6.17623">
        <ele>661.3</ele>
        <time>2023-10-09T12:51:38Z</time>
      </trkpt>
      <trkpt lat="43.67281" lon="6.17623">
        <ele>661.3</ele>
        <time>2023-10-09T12:51:39Z</time>
      </trkpt>
      <trkpt lat="43.67282" lon="6.17624">
        <ele>661.3</ele>
        <time>2023-10-09T12:51:40Z</time>
      </trkpt>
      <trkpt lat="43.67282" lon="6.17624">
        <ele>661.3</ele>
        <time>2023-10-09T12:51:41Z</time>
      </trkpt>
      <trkpt lat="43.67283" lon="6.17626">
        <ele>661.3</ele>
        <time>2023-10-09T12:51:42Z</time>
      </trkpt>
      <trkpt lat="43.67283" lon="6.17627">
        <ele>661.4</ele>
        <time>2023-10-09T12:51:43Z</time>
      </trkpt>
      <trkpt lat="43.67284" lon="6.17628">
        <ele>661.4</ele>
        <time>2023-10-09T12:51:44Z</time>
      </trkpt>
      <trkpt lat="43.67284" lon="6.17629">
        <ele>661.4</ele>
        <time>2023-10-09T12:51:45Z</time>
      </trkpt>
      <trkpt lat="43.67285" lon="6.1763">
        <ele>661.4</ele>
        <time>2023-10-09T12:51:46Z</time>
      </trkpt>
      <trkpt lat="43.67285" lon="6.17631">
        <ele>661.5</ele>
        <time>2023-10-09T12:51:47Z</time>
      </trkpt>
      <trkpt lat="43.67286" lon="6.17632">
        <ele>661.5</ele>
        <time>2023-10-09T12:51:48Z</time>
      </trkpt>
      <trkpt lat="43.67286" lon="6.17633">
        <ele>661.5</ele>
        <time>2023-10-09T12:51:49Z</time>
      </trkpt>
      <trkpt lat="43.67287" lon="6.17634">
        <ele>661.5</ele>
        <time>2023-10-09T12:51:50Z</time>
      </trkpt>
      <trkpt lat="43.67288" lon="6.17636">
        <ele>661.5</ele>
        <time>2023-10-09T12:51:51Z</time>
      </trkpt>
      <trkpt lat="43.67288" lon="6.17637">
        <ele>661.6</ele>
        <time>2023-10-09T12:51:52Z</time>
      </trkpt>
      <trkpt lat="43.67289" lon="6.17638">
        <ele>661.6</ele>
        <time>2023-10-09T12:51:53Z</time>
      </trkpt>
      <trkpt lat="43.67289" lon="6.17639">
        <ele>661.6</ele>
        <time>2023-10-09T12:51:54Z</time>
      </trkpt>
      <trkpt lat="43.6729" lon="6.17641">
        <ele>661.6</ele>
        <time>2023-10-09T12:51:55Z</time>
      </trkpt>
      <trkpt lat="43.6729" lon="6.17642">
        <ele>661.7</ele>
        <time>2023-10-09T12:51:56Z</time>
      </trkpt>
      <trkpt lat="43.67291" lon="6.17643">
        <ele>661.7</ele>
        <time>2023-10-09T12:51:57Z</time>
      </trkpt>
      <trkpt lat="43.67291" lon="6.17645">
        <ele>661.8</ele>
        <time>2023-10-09T12:51:58Z</time>
      </trkpt>
      <trkpt lat="43.67292" lon="6.17646">
        <ele>661.7</ele>
        <time>2023-10-09T12:51:59Z</time>
      </trkpt>
      <trkpt lat="43.67293" lon="6.17649">
        <ele>661.8</ele>
        <time>2023-10-09T12:52:00Z</time>
      </trkpt>
      <trkpt lat="43.67293" lon="6.1765">
        <ele>661.8</ele>
        <time>2023-10-09T12:52:01Z</time>
      </trkpt>
      <trkpt lat="43.67293" lon="6.17651">
        <ele>661.8</ele>
        <time>2023-10-09T12:52:02Z</time>
      </trkpt>
      <trkpt lat="43.67295" lon="6.17652">
        <ele>661.7</ele>
        <time>2023-10-09T12:52:03Z</time>
      </trkpt>
      <trkpt lat="43.67296" lon="6.17653">
        <ele>661.7</ele>
        <time>2023-10-09T12:52:04Z</time>
      </trkpt>
      <trkpt lat="43.67296" lon="6.17654">
        <ele>661.7</ele>
        <time>2023-10-09T12:52:05Z</time>
      </trkpt>
      <trkpt lat="43.67297" lon="6.17657">
        <ele>661.7</ele>
        <time>2023-10-09T12:52:06Z</time>
      </trkpt>
      <trkpt lat="43.67297" lon="6.17658">
        <ele>661.7</ele>
        <time>2023-10-09T12:52:07Z</time>
      </trkpt>
      <trkpt lat="43.67298" lon="6.17659">
        <ele>661.7</ele>
        <time>2023-10-09T12:52:08Z</time>
      </trkpt>
      <trkpt lat="43.67298" lon="6.1766">
        <ele>661.7</ele>
        <time>2023-10-09T12:52:09Z</time>
      </trkpt>
      <trkpt lat="43.67299" lon="6.17661">
        <ele>661.6</ele>
        <time>2023-10-09T12:52:10Z</time>
      </trkpt>
      <trkpt lat="43.67299" lon="6.17662">
        <ele>661.6</ele>
        <time>2023-10-09T12:52:11Z</time>
      </trkpt>
      <trkpt lat="43.67299" lon="6.17664">
        <ele>661.7</ele>
        <time>2023-10-09T12:52:12Z</time>
      </trkpt>
      <trkpt lat="43.673" lon="6.17665">
        <ele>661.6</ele>
        <time>2023-10-09T12:52:13Z</time>
      </trkpt>
      <trkpt lat="43.673" lon="6.17666">
        <ele>661.6</ele>
        <time>2023-10-09T12:52:14Z</time>
      </trkpt>
      <trkpt lat="43.673" lon="6.17668">
        <ele>661.6</ele>
        <time>2023-10-09T12:52:15Z</time>
      </trkpt>
      <trkpt lat="43.673" lon="6.17669">
        <ele>661.7</ele>
        <time>2023-10-09T12:52:16Z</time>
      </trkpt>
      <trkpt lat="43.673" lon="6.1767">
        <ele>661.7</ele>
        <time>2023-10-09T12:52:17Z</time>
      </trkpt>
      <trkpt lat="43.673" lon="6.17671">
        <ele>661.7</ele>
        <time>2023-10-09T12:52:18Z</time>
      </trkpt>
      <trkpt lat="43.673" lon="6.17673">
        <ele>661.8</ele>
        <time>2023-10-09T12:52:19Z</time>
      </trkpt>
      <trkpt lat="43.673" lon="6.17674">
        <ele>661.8</ele>
        <time>2023-10-09T12:52:20Z</time>
      </trkpt>
      <trkpt lat="43.67301" lon="6.17676">
        <ele>661.8</ele>
        <time>2023-10-09T12:52:21Z</time>
      </trkpt>
      <trkpt lat="43.67301" lon="6.17678">
        <ele>661.8</ele>
        <time>2023-10-09T12:52:22Z</time>
      </trkpt>
      <trkpt lat="43.673" lon="6.17679">
        <ele>662</ele>
        <time>2023-10-09T12:52:23Z</time>
      </trkpt>
      <trkpt lat="43.673" lon="6.17681">
        <ele>662</ele>
        <time>2023-10-09T12:52:24Z</time>
      </trkpt>
      <trkpt lat="43.673" lon="6.17682">
        <ele>662</ele>
        <time>2023-10-09T12:52:25Z</time>
      </trkpt>
      <trkpt lat="43.673" lon="6.17684">
        <ele>662.1</ele>
        <time>2023-10-09T12:52:26Z</time>
      </trkpt>
      <trkpt lat="43.67299" lon="6.17685">
        <ele>662.2</ele>
        <time>2023-10-09T12:52:27Z</time>
      </trkpt>
      <trkpt lat="43.67299" lon="6.17686">
        <ele>662.2</ele>
        <time>2023-10-09T12:52:28Z</time>
      </trkpt>
      <trkpt lat="43.67299" lon="6.17687">
        <ele>662.3</ele>
        <time>2023-10-09T12:52:29Z</time>
      </trkpt>
      <trkpt lat="43.67298" lon="6.17688">
        <ele>662.4</ele>
        <time>2023-10-09T12:52:30Z</time>
      </trkpt>
      <trkpt lat="43.67299" lon="6.17688">
        <ele>662.3</ele>
        <time>2023-10-09T12:52:31Z</time>
      </trkpt>
      <trkpt lat="43.67299" lon="6.17689">
        <ele>662.3</ele>
        <time>2023-10-09T12:52:32Z</time>
      </trkpt>
      <trkpt lat="43.67299" lon="6.17689">
        <ele>662.3</ele>
        <time>2023-10-09T12:52:33Z</time>
      </trkpt>
      <trkpt lat="43.67298" lon="6.17689">
        <ele>662.4</ele>
        <time>2023-10-09T12:52:34Z</time>
      </trkpt>
      <trkpt lat="43.67298" lon="6.17689">
        <ele>662.4</ele>
        <time>2023-10-09T12:52:35Z</time>
      </trkpt>
      <trkpt lat="43.67298" lon="6.17689">
        <ele>662.4</ele>
        <time>2023-10-09T12:52:36Z</time>
      </trkpt>
      <trkpt lat="43.67298" lon="6.17688">
        <ele>662.4</ele>
        <time>2023-10-09T12:52:37Z</time>
      </trkpt>
      <trkpt lat="43.67298" lon="6.17688">
        <ele>662.4</ele>
        <time>2023-10-09T12:52:38Z</time>
      </trkpt>
      <trkpt lat="43.67298" lon="6.17688">
        <ele>662.4</ele>
        <time>2023-10-09T12:52:39Z</time>
      </trkpt>
      <trkpt lat="43.67298" lon="6.17688">
        <ele>662.4</ele>
        <time>2023-10-09T12:52:40Z</time>
      </trkpt>
      <trkpt lat="43.67298" lon="6.17688">
        <ele>662.4</ele>
        <time>2023-10-09T12:52:41Z</time>
      </trkpt>
      <trkpt lat="43.67298" lon="6.17688">
        <ele>662.4</ele>
        <time>2023-10-09T12:52:42Z</time>
      </trkpt>
      <trkpt lat="43.67298" lon="6.17688">
        <ele>662.4</ele>
        <time>2023-10-09T12:52:43Z</time>
      </trkpt>
      <trkpt lat="43.67298" lon="6.17688">
        <ele>662.4</ele>
        <time>2023-10-09T12:52:44Z</time>
      </trkpt>
      <trkpt lat="43.67298" lon="6.17688">
        <ele>662.4</ele>
        <time>2023-10-09T12:52:45Z</time>
      </trkpt>
      <trkpt lat="43.67298" lon="6.17688">
        <ele>662.4</ele>
        <time>2023-10-09T12:52:46Z</time>
      </trkpt>
      <trkpt lat="43.67298" lon="6.17688">
        <ele>662.4</ele>
        <time>2023-10-09T12:52:47Z</time>
      </trkpt>
      <trkpt lat="43.67298" lon="6.17688">
        <ele>662.4</ele>
        <time>2023-10-09T12:52:48Z</time>
      </trkpt>
      <trkpt lat="43.67298" lon="6.17688">
        <ele>662.4</ele>
        <time>2023-10-09T12:52:49Z</time>
      </trkpt>
      <trkpt lat="43.67298" lon="6.17688">
        <ele>662.4</ele>
        <time>2023-10-09T12:52:50Z</time>
      </trkpt>
      <trkpt lat="43.67298" lon="6.17688">
        <ele>662.4</ele>
        <time>2023-10-09T12:52:51Z</time>
      </trkpt>
      <trkpt lat="43.67298" lon="6.17688">
        <ele>662.4</ele>
        <time>2023-10-09T12:52:52Z</time>
      </trkpt>
      <trkpt lat="43.67298" lon="6.17688">
        <ele>662.4</ele>
        <time>2023-10-09T12:52:53Z</time>
      </trkpt>
      <trkpt lat="43.67298" lon="6.17688">
        <ele>662.4</ele>
        <time>2023-10-09T12:52:54Z</time>
      </trkpt>
      <trkpt lat="43.67298" lon="6.17688">
        <ele>662.4</ele>
        <time>2023-10-09T12:52:55Z</time>
      </trkpt>
      <trkpt lat="43.67298" lon="6.17688">
        <ele>662.4</ele>
        <time>2023-10-09T12:52:56Z</time>
      </trkpt>
      <trkpt lat="43.67298" lon="6.17688">
        <ele>662.4</ele>
        <time>2023-10-09T12:52:57Z</time>
      </trkpt>
      <trkpt lat="43.67298" lon="6.17688">
        <ele>662.4</ele>
        <time>2023-10-09T12:52:58Z</time>
      </trkpt>
      <trkpt lat="43.67298" lon="6.17688">
        <ele>662.4</ele>
        <time>2023-10-09T12:52:59Z</time>
      </trkpt>
      <trkpt lat="43.67298" lon="6.17688">
        <ele>662.4</ele>
        <time>2023-10-09T12:53:00Z</time>
      </trkpt>
      <trkpt lat="43.67298" lon="6.17688">
        <ele>662.4</ele>
        <time>2023-10-09T12:53:01Z</time>
      </trkpt>
      <trkpt lat="43.67298" lon="6.17688">
        <ele>662.4</ele>
        <time>2023-10-09T12:53:02Z</time>
      </trkpt>
      <trkpt lat="43.67298" lon="6.17688">
        <ele>662.4</ele>
        <time>2023-10-09T12:53:03Z</time>
      </trkpt>
      <trkpt lat="43.67298" lon="6.17688">
        <ele>662.4</ele>
        <time>2023-10-09T12:53:04Z</time>
      </trkpt>
      <trkpt lat="43.67298" lon="6.17688">
        <ele>662.4</ele>
        <time>2023-10-09T12:53:05Z</time>
      </trkpt>
      <trkpt lat="43.67298" lon="6.17688">
        <ele>662.4</ele>
        <time>2023-10-09T12:53:06Z</time>
      </trkpt>
      <trkpt lat="43.67298" lon="6.17688">
        <ele>662.4</ele>
        <time>2023-10-09T12:53:07Z</time>
      </trkpt>
      <trkpt lat="43.67298" lon="6.17688">
        <ele>662.4</ele>
        <time>2023-10-09T12:53:08Z</time>
      </trkpt>
      <trkpt lat="43.67298" lon="6.17688">
        <ele>662.4</ele>
        <time>2023-10-09T12:53:09Z</time>
      </trkpt>
      <trkpt lat="43.67298" lon="6.17688">
        <ele>662.4</ele>
        <time>2023-10-09T12:53:10Z</time>
      </trkpt>
      <trkpt lat="43.67298" lon="6.17688">
        <ele>662.4</ele>
        <time>2023-10-09T12:53:11Z</time>
      </trkpt>
      <trkpt lat="43.67298" lon="6.17688">
        <ele>662.4</ele>
        <time>2023-10-09T12:53:12Z</time>
      </trkpt>
      <trkpt lat="43.67298" lon="6.17688">
        <ele>662.4</ele>
        <time>2023-10-09T12:53:13Z</time>
      </trkpt>
      <trkpt lat="43.67298" lon="6.17688">
        <ele>662.4</ele>
        <time>2023-10-09T12:53:14Z</time>
      </trkpt>
      <trkpt lat="43.67298" lon="6.17688">
        <ele>662.4</ele>
        <time>2023-10-09T12:53:15Z</time>
      </trkpt>
      <trkpt lat="43.67298" lon="6.17688">
        <ele>662.4</ele>
        <time>2023-10-09T12:53:16Z</time>
      </trkpt>
      <trkpt lat="43.67298" lon="6.17688">
        <ele>662.4</ele>
        <time>2023-10-09T12:53:17Z</time>
      </trkpt>
      <trkpt lat="43.67298" lon="6.17688">
        <ele>662.4</ele>
        <time>2023-10-09T12:53:18Z</time>
      </trkpt>
      <trkpt lat="43.67298" lon="6.17688">
        <ele>662.4</ele>
        <time>2023-10-09T12:53:19Z</time>
      </trkpt>
      <trkpt lat="43.67298" lon="6.17688">
        <ele>662.4</ele>
        <time>2023-10-09T12:53:20Z</time>
      </trkpt>
      <trkpt lat="43.67298" lon="6.17688">
        <ele>662.4</ele>
        <time>2023-10-09T12:53:21Z</time>
      </trkpt>
      <trkpt lat="43.67298" lon="6.17688">
        <ele>662.4</ele>
        <time>2023-10-09T12:53:22Z</time>
      </trkpt>
      <trkpt lat="43.67298" lon="6.17688">
        <ele>662.4</ele>
        <time>2023-10-09T12:53:23Z</time>
      </trkpt>
      <trkpt lat="43.67298" lon="6.17688">
        <ele>662.4</ele>
        <time>2023-10-09T12:53:24Z</time>
      </trkpt>
      <trkpt lat="43.67298" lon="6.17688">
        <ele>662.4</ele>
        <time>2023-10-09T12:53:25Z</time>
      </trkpt>
      <trkpt lat="43.67298" lon="6.17688">
        <ele>662.4</ele>
        <time>2023-10-09T12:53:26Z</time>
      </trkpt>
      <trkpt lat="43.67298" lon="6.17688">
        <ele>662.4</ele>
        <time>2023-10-09T12:53:27Z</time>
      </trkpt>
      <trkpt lat="43.67298" lon="6.17688">
        <ele>662.4</ele>
        <time>2023-10-09T12:53:29Z</time>
      </trkpt>
      <trkpt lat="43.67298" lon="6.17688">
        <ele>662.4</ele>
        <time>2023-10-09T12:53:30Z</time>
      </trkpt>
      <trkpt lat="43.67298" lon="6.17688">
        <ele>662.4</ele>
        <time>2023-10-09T12:53:31Z</time>
      </trkpt>
      <trkpt lat="43.67298" lon="6.17688">
        <ele>662.4</ele>
        <time>2023-10-09T12:53:32Z</time>
      </trkpt>
      <trkpt lat="43.67298" lon="6.17688">
        <ele>662.4</ele>
        <time>2023-10-09T12:53:33Z</time>
      </trkpt>
      <trkpt lat="43.67298" lon="6.17688">
        <ele>662.4</ele>
        <time>2023-10-09T12:53:34Z</time>
      </trkpt>
      <trkpt lat="43.67298" lon="6.17688">
        <ele>662.4</ele>
        <time>2023-10-09T12:53:35Z</time>
      </trkpt>
      <trkpt lat="43.67298" lon="6.17688">
        <ele>662.4</ele>
        <time>2023-10-09T12:53:36Z</time>
      </trkpt>
      <trkpt lat="43.67298" lon="6.17688">
        <ele>662.4</ele>
        <time>2023-10-09T12:53:37Z</time>
      </trkpt>
      <trkpt lat="43.67298" lon="6.17688">
        <ele>662.4</ele>
        <time>2023-10-09T12:53:38Z</time>
      </trkpt>
      <trkpt lat="43.67298" lon="6.17688">
        <ele>662.4</ele>
        <time>2023-10-09T12:53:39Z</time>
      </trkpt>
      <trkpt lat="43.67298" lon="6.17688">
        <ele>662.4</ele>
        <time>2023-10-09T12:53:40Z</time>
      </trkpt>
      <trkpt lat="43.67298" lon="6.17688">
        <ele>662.4</ele>
        <time>2023-10-09T12:53:41Z</time>
      </trkpt>
      <trkpt lat="43.67298" lon="6.17688">
        <ele>662.4</ele>
        <time>2023-10-09T12:53:42Z</time>
      </trkpt>
      <trkpt lat="43.67298" lon="6.17688">
        <ele>662.4</ele>
        <time>2023-10-09T12:53:43Z</time>
      </trkpt>
      <trkpt lat="43.67298" lon="6.17688">
        <ele>662.4</ele>
        <time>2023-10-09T12:53:44Z</time>
      </trkpt>
      <trkpt lat="43.67298" lon="6.17688">
        <ele>662.4</ele>
        <time>2023-10-09T12:53:45Z</time>
      </trkpt>
      <trkpt lat="43.67299" lon="6.17688">
        <ele>662.3</ele>
        <time>2023-10-09T12:53:46Z</time>
      </trkpt>
      <trkpt lat="43.67299" lon="6.17689">
        <ele>662.3</ele>
        <time>2023-10-09T12:53:47Z</time>
      </trkpt>
      <trkpt lat="43.673" lon="6.17689">
        <ele>662.2</ele>
        <time>2023-10-09T12:53:48Z</time>
      </trkpt>
      <trkpt lat="43.67299" lon="6.1769">
        <ele>662.3</ele>
        <time>2023-10-09T12:53:49Z</time>
      </trkpt>
      <trkpt lat="43.67299" lon="6.1769">
        <ele>662.3</ele>
        <time>2023-10-09T12:53:50Z</time>
      </trkpt>
      <trkpt lat="43.67299" lon="6.1769">
        <ele>662.3</ele>
        <time>2023-10-09T12:53:51Z</time>
      </trkpt>
      <trkpt lat="43.67299" lon="6.1769">
        <ele>662.3</ele>
        <time>2023-10-09T12:53:52Z</time>
      </trkpt>
      <trkpt lat="43.67299" lon="6.17692">
        <ele>662.4</ele>
        <time>2023-10-09T12:53:53Z</time>
      </trkpt>
      <trkpt lat="43.67298" lon="6.17694">
        <ele>662.5</ele>
        <time>2023-10-09T12:53:54Z</time>
      </trkpt>
      <trkpt lat="43.67297" lon="6.17695">
        <ele>662.6</ele>
        <time>2023-10-09T12:53:55Z</time>
      </trkpt>
      <trkpt lat="43.67297" lon="6.17696">
        <ele>662.7</ele>
        <time>2023-10-09T12:53:56Z</time>
      </trkpt>
      <trkpt lat="43.67296" lon="6.17698">
        <ele>662.9</ele>
        <time>2023-10-09T12:53:57Z</time>
      </trkpt>
      <trkpt lat="43.67296" lon="6.17699">
        <ele>662.9</ele>
        <time>2023-10-09T12:53:58Z</time>
      </trkpt>
      <trkpt lat="43.67295" lon="6.17701">
        <ele>663.1</ele>
        <time>2023-10-09T12:53:59Z</time>
      </trkpt>
      <trkpt lat="43.67295" lon="6.17702">
        <ele>663.1</ele>
        <time>2023-10-09T12:54:00Z</time>
      </trkpt>
      <trkpt lat="43.67294" lon="6.17704">
        <ele>663.2</ele>
        <time>2023-10-09T12:54:01Z</time>
      </trkpt>
      <trkpt lat="43.67294" lon="6.17705">
        <ele>663.3</ele>
        <time>2023-10-09T12:54:02Z</time>
      </trkpt>
      <trkpt lat="43.67294" lon="6.17707">
        <ele>663.4</ele>
        <time>2023-10-09T12:54:03Z</time>
      </trkpt>
      <trkpt lat="43.67293" lon="6.1771">
        <ele>663.5</ele>
        <time>2023-10-09T12:54:05Z</time>
      </trkpt>
      <trkpt lat="43.67292" lon="6.17713">
        <ele>663.7</ele>
        <time>2023-10-09T12:54:06Z</time>
      </trkpt>
      <trkpt lat="43.67292" lon="6.17714">
        <ele>663.7</ele>
        <time>2023-10-09T12:54:07Z</time>
      </trkpt>
      <trkpt lat="43.67292" lon="6.17715">
        <ele>663.7</ele>
        <time>2023-10-09T12:54:08Z</time>
      </trkpt>
      <trkpt lat="43.67292" lon="6.17716">
        <ele>663.8</ele>
        <time>2023-10-09T12:54:09Z</time>
      </trkpt>
      <trkpt lat="43.67291" lon="6.17718">
        <ele>663.9</ele>
        <time>2023-10-09T12:54:10Z</time>
      </trkpt>
      <trkpt lat="43.6729" lon="6.17719">
        <ele>663.9</ele>
        <time>2023-10-09T12:54:11Z</time>
      </trkpt>
      <trkpt lat="43.6729" lon="6.1772">
        <ele>663.9</ele>
        <time>2023-10-09T12:54:12Z</time>
      </trkpt>
      <trkpt lat="43.6729" lon="6.17721">
        <ele>664</ele>
        <time>2023-10-09T12:54:13Z</time>
      </trkpt>
      <trkpt lat="43.67289" lon="6.17723">
        <ele>664</ele>
        <time>2023-10-09T12:54:14Z</time>
      </trkpt>
      <trkpt lat="43.67289" lon="6.17724">
        <ele>664</ele>
        <time>2023-10-09T12:54:15Z</time>
      </trkpt>
      <trkpt lat="43.67288" lon="6.17725">
        <ele>664</ele>
        <time>2023-10-09T12:54:16Z</time>
      </trkpt>
      <trkpt lat="43.67288" lon="6.17726">
        <ele>664</ele>
        <time>2023-10-09T12:54:17Z</time>
      </trkpt>
      <trkpt lat="43.67287" lon="6.17727">
        <ele>664</ele>
        <time>2023-10-09T12:54:18Z</time>
      </trkpt>
      <trkpt lat="43.67287" lon="6.17729">
        <ele>664</ele>
        <time>2023-10-09T12:54:19Z</time>
      </trkpt>
      <trkpt lat="43.67287" lon="6.17731">
        <ele>664</ele>
        <time>2023-10-09T12:54:20Z</time>
      </trkpt>
      <trkpt lat="43.67286" lon="6.17732">
        <ele>664</ele>
        <time>2023-10-09T12:54:21Z</time>
      </trkpt>
      <trkpt lat="43.67286" lon="6.17734">
        <ele>664</ele>
        <time>2023-10-09T12:54:22Z</time>
      </trkpt>
      <trkpt lat="43.67285" lon="6.17736">
        <ele>663.9</ele>
        <time>2023-10-09T12:54:23Z</time>
      </trkpt>
      <trkpt lat="43.67284" lon="6.17738">
        <ele>663.8</ele>
        <time>2023-10-09T12:54:24Z</time>
      </trkpt>
      <trkpt lat="43.67283" lon="6.1774">
        <ele>663.7</ele>
        <time>2023-10-09T12:54:25Z</time>
      </trkpt>
      <trkpt lat="43.67283" lon="6.17741">
        <ele>663.7</ele>
        <time>2023-10-09T12:54:26Z</time>
      </trkpt>
      <trkpt lat="43.67282" lon="6.17742">
        <ele>663.6</ele>
        <time>2023-10-09T12:54:27Z</time>
      </trkpt>
      <trkpt lat="43.67282" lon="6.17743">
        <ele>663.6</ele>
        <time>2023-10-09T12:54:28Z</time>
      </trkpt>
      <trkpt lat="43.67281" lon="6.17745">
        <ele>663.5</ele>
        <time>2023-10-09T12:54:29Z</time>
      </trkpt>
      <trkpt lat="43.67281" lon="6.17746">
        <ele>663.4</ele>
        <time>2023-10-09T12:54:30Z</time>
      </trkpt>
      <trkpt lat="43.6728" lon="6.17747">
        <ele>663.3</ele>
        <time>2023-10-09T12:54:31Z</time>
      </trkpt>
      <trkpt lat="43.6728" lon="6.17748">
        <ele>663.3</ele>
        <time>2023-10-09T12:54:32Z</time>
      </trkpt>
      <trkpt lat="43.67279" lon="6.17749">
        <ele>663.2</ele>
        <time>2023-10-09T12:54:33Z</time>
      </trkpt>
      <trkpt lat="43.67279" lon="6.17751">
        <ele>663.2</ele>
        <time>2023-10-09T12:54:34Z</time>
      </trkpt>
      <trkpt lat="43.67278" lon="6.17752">
        <ele>663.2</ele>
        <time>2023-10-09T12:54:35Z</time>
      </trkpt>
      <trkpt lat="43.67277" lon="6.17753">
        <ele>663.3</ele>
        <time>2023-10-09T12:54:36Z</time>
      </trkpt>
      <trkpt lat="43.67277" lon="6.17755">
        <ele>663.4</ele>
        <time>2023-10-09T12:54:37Z</time>
      </trkpt>
      <trkpt lat="43.67276" lon="6.17756">
        <ele>663.6</ele>
        <time>2023-10-09T12:54:38Z</time>
      </trkpt>
      <trkpt lat="43.67276" lon="6.17757">
        <ele>663.7</ele>
        <time>2023-10-09T12:54:39Z</time>
      </trkpt>
      <trkpt lat="43.67275" lon="6.17759">
        <ele>663.9</ele>
        <time>2023-10-09T12:54:40Z</time>
      </trkpt>
      <trkpt lat="43.67274" lon="6.1776">
        <ele>664.1</ele>
        <time>2023-10-09T12:54:41Z</time>
      </trkpt>
      <trkpt lat="43.67273" lon="6.17761">
        <ele>664.2</ele>
        <time>2023-10-09T12:54:42Z</time>
      </trkpt>
      <trkpt lat="43.67272" lon="6.17762">
        <ele>664.4</ele>
        <time>2023-10-09T12:54:43Z</time>
      </trkpt>
      <trkpt lat="43.67272" lon="6.17763">
        <ele>664.5</ele>
        <time>2023-10-09T12:54:44Z</time>
      </trkpt>
      <trkpt lat="43.67271" lon="6.17765">
        <ele>664.7</ele>
        <time>2023-10-09T12:54:45Z</time>
      </trkpt>
      <trkpt lat="43.67271" lon="6.17766">
        <ele>664.7</ele>
        <time>2023-10-09T12:54:46Z</time>
      </trkpt>
      <trkpt lat="43.6727" lon="6.17767">
        <ele>664.9</ele>
        <time>2023-10-09T12:54:47Z</time>
      </trkpt>
      <trkpt lat="43.67269" lon="6.17768">
        <ele>665</ele>
        <time>2023-10-09T12:54:48Z</time>
      </trkpt>
      <trkpt lat="43.67269" lon="6.17769">
        <ele>665.1</ele>
        <time>2023-10-09T12:54:49Z</time>
      </trkpt>
      <trkpt lat="43.67269" lon="6.17771">
        <ele>665.2</ele>
        <time>2023-10-09T12:54:50Z</time>
      </trkpt>
      <trkpt lat="43.67268" lon="6.17772">
        <ele>665.4</ele>
        <time>2023-10-09T12:54:51Z</time>
      </trkpt>
      <trkpt lat="43.67268" lon="6.17773">
        <ele>665.4</ele>
        <time>2023-10-09T12:54:52Z</time>
      </trkpt>
      <trkpt lat="43.67268" lon="6.17774">
        <ele>665.5</ele>
        <time>2023-10-09T12:54:53Z</time>
      </trkpt>
      <trkpt lat="43.67267" lon="6.17776">
        <ele>665.7</ele>
        <time>2023-10-09T12:54:54Z</time>
      </trkpt>
      <trkpt lat="43.67267" lon="6.17777">
        <ele>665.7</ele>
        <time>2023-10-09T12:54:55Z</time>
      </trkpt>
      <trkpt lat="43.67266" lon="6.17779">
        <ele>665.9</ele>
        <time>2023-10-09T12:54:56Z</time>
      </trkpt>
      <trkpt lat="43.67266" lon="6.17781">
        <ele>666</ele>
        <time>2023-10-09T12:54:58Z</time>
      </trkpt>
      <trkpt lat="43.67265" lon="6.17782">
        <ele>666.1</ele>
        <time>2023-10-09T12:54:59Z</time>
      </trkpt>
      <trkpt lat="43.67264" lon="6.17784">
        <ele>666.2</ele>
        <time>2023-10-09T12:55:00Z</time>
      </trkpt>
      <trkpt lat="43.67264" lon="6.17785">
        <ele>666.3</ele>
        <time>2023-10-09T12:55:01Z</time>
      </trkpt>
      <trkpt lat="43.67264" lon="6.17787">
        <ele>666.3</ele>
        <time>2023-10-09T12:55:02Z</time>
      </trkpt>
      <trkpt lat="43.67263" lon="6.17788">
        <ele>666.4</ele>
        <time>2023-10-09T12:55:03Z</time>
      </trkpt>
      <trkpt lat="43.67263" lon="6.17789">
        <ele>666.4</ele>
        <time>2023-10-09T12:55:04Z</time>
      </trkpt>
      <trkpt lat="43.67262" lon="6.1779">
        <ele>666.5</ele>
        <time>2023-10-09T12:55:05Z</time>
      </trkpt>
      <trkpt lat="43.67262" lon="6.17792">
        <ele>666.5</ele>
        <time>2023-10-09T12:55:06Z</time>
      </trkpt>
      <trkpt lat="43.67262" lon="6.17793">
        <ele>666.5</ele>
        <time>2023-10-09T12:55:07Z</time>
      </trkpt>
      <trkpt lat="43.67261" lon="6.17794">
        <ele>666.5</ele>
        <time>2023-10-09T12:55:08Z</time>
      </trkpt>
      <trkpt lat="43.67261" lon="6.17796">
        <ele>666.6</ele>
        <time>2023-10-09T12:55:09Z</time>
      </trkpt>
      <trkpt lat="43.6726" lon="6.17797">
        <ele>666.6</ele>
        <time>2023-10-09T12:55:10Z</time>
      </trkpt>
      <trkpt lat="43.6726" lon="6.17798">
        <ele>666.6</ele>
        <time>2023-10-09T12:55:11Z</time>
      </trkpt>
      <trkpt lat="43.6726" lon="6.17799">
        <ele>666.6</ele>
        <time>2023-10-09T12:55:12Z</time>
      </trkpt>
      <trkpt lat="43.6726" lon="6.17801">
        <ele>666.6</ele>
        <time>2023-10-09T12:55:13Z</time>
      </trkpt>
      <trkpt lat="43.67259" lon="6.17802">
        <ele>666.6</ele>
        <time>2023-10-09T12:55:14Z</time>
      </trkpt>
      <trkpt lat="43.67259" lon="6.17804">
        <ele>666.6</ele>
        <time>2023-10-09T12:55:15Z</time>
      </trkpt>
      <trkpt lat="43.67259" lon="6.17805">
        <ele>666.6</ele>
        <time>2023-10-09T12:55:16Z</time>
      </trkpt>
      <trkpt lat="43.67259" lon="6.17806">
        <ele>666.7</ele>
        <time>2023-10-09T12:55:17Z</time>
      </trkpt>
      <trkpt lat="43.67258" lon="6.17807">
        <ele>666.6</ele>
        <time>2023-10-09T12:55:18Z</time>
      </trkpt>
      <trkpt lat="43.67258" lon="6.17809">
        <ele>666.6</ele>
        <time>2023-10-09T12:55:19Z</time>
      </trkpt>
      <trkpt lat="43.67257" lon="6.1781">
        <ele>666.6</ele>
        <time>2023-10-09T12:55:20Z</time>
      </trkpt>
      <trkpt lat="43.67257" lon="6.17812">
        <ele>666.6</ele>
        <time>2023-10-09T12:55:21Z</time>
      </trkpt>
      <trkpt lat="43.67256" lon="6.17813">
        <ele>666.5</ele>
        <time>2023-10-09T12:55:22Z</time>
      </trkpt>
      <trkpt lat="43.67256" lon="6.17815">
        <ele>666.6</ele>
        <time>2023-10-09T12:55:23Z</time>
      </trkpt>
      <trkpt lat="43.67256" lon="6.17816">
        <ele>666.6</ele>
        <time>2023-10-09T12:55:24Z</time>
      </trkpt>
      <trkpt lat="43.67255" lon="6.17817">
        <ele>666.5</ele>
        <time>2023-10-09T12:55:25Z</time>
      </trkpt>
      <trkpt lat="43.67255" lon="6.17819">
        <ele>666.5</ele>
        <time>2023-10-09T12:55:26Z</time>
      </trkpt>
      <trkpt lat="43.67254" lon="6.1782">
        <ele>666.4</ele>
        <time>2023-10-09T12:55:27Z</time>
      </trkpt>
      <trkpt lat="43.67254" lon="6.17821">
        <ele>666.4</ele>
        <time>2023-10-09T12:55:28Z</time>
      </trkpt>
      <trkpt lat="43.67253" lon="6.17823">
        <ele>666.4</ele>
        <time>2023-10-09T12:55:29Z</time>
      </trkpt>
      <trkpt lat="43.67253" lon="6.17824">
        <ele>666.4</ele>
        <time>2023-10-09T12:55:30Z</time>
      </trkpt>
      <trkpt lat="43.67253" lon="6.17825">
        <ele>666.4</ele>
        <time>2023-10-09T12:55:31Z</time>
      </trkpt>
      <trkpt lat="43.67253" lon="6.17826">
        <ele>666.4</ele>
        <time>2023-10-09T12:55:32Z</time>
      </trkpt>
      <trkpt lat="43.67252" lon="6.17828">
        <ele>666.3</ele>
        <time>2023-10-09T12:55:33Z</time>
      </trkpt>
      <trkpt lat="43.67252" lon="6.17829">
        <ele>666.3</ele>
        <time>2023-10-09T12:55:34Z</time>
      </trkpt>
      <trkpt lat="43.67251" lon="6.17831">
        <ele>666.1</ele>
        <time>2023-10-09T12:55:35Z</time>
      </trkpt>
      <trkpt lat="43.67251" lon="6.17832">
        <ele>666.1</ele>
        <time>2023-10-09T12:55:36Z</time>
      </trkpt>
      <trkpt lat="43.67251" lon="6.17833">
        <ele>666.1</ele>
        <time>2023-10-09T12:55:37Z</time>
      </trkpt>
      <trkpt lat="43.67251" lon="6.17834">
        <ele>666.2</ele>
        <time>2023-10-09T12:55:38Z</time>
      </trkpt>
      <trkpt lat="43.6725" lon="6.17836">
        <ele>666.1</ele>
        <time>2023-10-09T12:55:39Z</time>
      </trkpt>
      <trkpt lat="43.67249" lon="6.17837">
        <ele>666.3</ele>
        <time>2023-10-09T12:55:40Z</time>
      </trkpt>
      <trkpt lat="43.67249" lon="6.17838">
        <ele>666.3</ele>
        <time>2023-10-09T12:55:41Z</time>
      </trkpt>
      <trkpt lat="43.67248" lon="6.1784">
        <ele>666.6</ele>
        <time>2023-10-09T12:55:42Z</time>
      </trkpt>
      <trkpt lat="43.67248" lon="6.17841">
        <ele>666.6</ele>
        <time>2023-10-09T12:55:43Z</time>
      </trkpt>
      <trkpt lat="43.67247" lon="6.17843">
        <ele>666.9</ele>
        <time>2023-10-09T12:55:44Z</time>
      </trkpt>
      <trkpt lat="43.67247" lon="6.17845">
        <ele>666.9</ele>
        <time>2023-10-09T12:55:45Z</time>
      </trkpt>
      <trkpt lat="43.67247" lon="6.17846">
        <ele>666.9</ele>
        <time>2023-10-09T12:55:46Z</time>
      </trkpt>
      <trkpt lat="43.67247" lon="6.17847">
        <ele>667</ele>
        <time>2023-10-09T12:55:47Z</time>
      </trkpt>
      <trkpt lat="43.67248" lon="6.17849">
        <ele>666.9</ele>
        <time>2023-10-09T12:55:48Z</time>
      </trkpt>
      <trkpt lat="43.67247" lon="6.17851">
        <ele>667.1</ele>
        <time>2023-10-09T12:55:49Z</time>
      </trkpt>
      <trkpt lat="43.67247" lon="6.17852">
        <ele>667.1</ele>
        <time>2023-10-09T12:55:50Z</time>
      </trkpt>
      <trkpt lat="43.67247" lon="6.17854">
        <ele>667.2</ele>
        <time>2023-10-09T12:55:51Z</time>
      </trkpt>
      <trkpt lat="43.67247" lon="6.17855">
        <ele>667.2</ele>
        <time>2023-10-09T12:55:52Z</time>
      </trkpt>
      <trkpt lat="43.67247" lon="6.17856">
        <ele>667.3</ele>
        <time>2023-10-09T12:55:53Z</time>
      </trkpt>
      <trkpt lat="43.67246" lon="6.17858">
        <ele>667.5</ele>
        <time>2023-10-09T12:55:54Z</time>
      </trkpt>
      <trkpt lat="43.67246" lon="6.1786">
        <ele>667.5</ele>
        <time>2023-10-09T12:55:55Z</time>
      </trkpt>
      <trkpt lat="43.67245" lon="6.17861">
        <ele>667.7</ele>
        <time>2023-10-09T12:55:56Z</time>
      </trkpt>
      <trkpt lat="43.67245" lon="6.17863">
        <ele>667.9</ele>
        <time>2023-10-09T12:55:57Z</time>
      </trkpt>
      <trkpt lat="43.67245" lon="6.17864">
        <ele>668</ele>
        <time>2023-10-09T12:55:58Z</time>
      </trkpt>
      <trkpt lat="43.67245" lon="6.17865">
        <ele>668.1</ele>
        <time>2023-10-09T12:55:59Z</time>
      </trkpt>
      <trkpt lat="43.67244" lon="6.17867">
        <ele>668.4</ele>
        <time>2023-10-09T12:56:00Z</time>
      </trkpt>
      <trkpt lat="43.67244" lon="6.17868">
        <ele>668.4</ele>
        <time>2023-10-09T12:56:01Z</time>
      </trkpt>
      <trkpt lat="43.67244" lon="6.17869">
        <ele>668.5</ele>
        <time>2023-10-09T12:56:02Z</time>
      </trkpt>
      <trkpt lat="43.67244" lon="6.1787">
        <ele>668.6</ele>
        <time>2023-10-09T12:56:03Z</time>
      </trkpt>
      <trkpt lat="43.67243" lon="6.17871">
        <ele>668.8</ele>
        <time>2023-10-09T12:56:04Z</time>
      </trkpt>
      <trkpt lat="43.67243" lon="6.17872">
        <ele>668.9</ele>
        <time>2023-10-09T12:56:05Z</time>
      </trkpt>
      <trkpt lat="43.67243" lon="6.17874">
        <ele>669</ele>
        <time>2023-10-09T12:56:06Z</time>
      </trkpt>
      <trkpt lat="43.67242" lon="6.17876">
        <ele>669.3</ele>
        <time>2023-10-09T12:56:07Z</time>
      </trkpt>
      <trkpt lat="43.67242" lon="6.17877">
        <ele>669.4</ele>
        <time>2023-10-09T12:56:08Z</time>
      </trkpt>
      <trkpt lat="43.67242" lon="6.17878">
        <ele>669.5</ele>
        <time>2023-10-09T12:56:09Z</time>
      </trkpt>
      <trkpt lat="43.67242" lon="6.1788">
        <ele>669.6</ele>
        <time>2023-10-09T12:56:10Z</time>
      </trkpt>
      <trkpt lat="43.67242" lon="6.17881">
        <ele>669.7</ele>
        <time>2023-10-09T12:56:11Z</time>
      </trkpt>
      <trkpt lat="43.67242" lon="6.17883">
        <ele>669.8</ele>
        <time>2023-10-09T12:56:12Z</time>
      </trkpt>
      <trkpt lat="43.67241" lon="6.17885">
        <ele>670</ele>
        <time>2023-10-09T12:56:13Z</time>
      </trkpt>
      <trkpt lat="43.67241" lon="6.17886">
        <ele>670.1</ele>
        <time>2023-10-09T12:56:14Z</time>
      </trkpt>
      <trkpt lat="43.67241" lon="6.17888">
        <ele>670.3</ele>
        <time>2023-10-09T12:56:15Z</time>
      </trkpt>
      <trkpt lat="43.67241" lon="6.17889">
        <ele>670.3</ele>
        <time>2023-10-09T12:56:16Z</time>
      </trkpt>
      <trkpt lat="43.67241" lon="6.17891">
        <ele>670.4</ele>
        <time>2023-10-09T12:56:17Z</time>
      </trkpt>
      <trkpt lat="43.67241" lon="6.17893">
        <ele>670.5</ele>
        <time>2023-10-09T12:56:18Z</time>
      </trkpt>
      <trkpt lat="43.67241" lon="6.17894">
        <ele>670.5</ele>
        <time>2023-10-09T12:56:19Z</time>
      </trkpt>
      <trkpt lat="43.67241" lon="6.17896">
        <ele>670.6</ele>
        <time>2023-10-09T12:56:20Z</time>
      </trkpt>
      <trkpt lat="43.67241" lon="6.17897">
        <ele>670.6</ele>
        <time>2023-10-09T12:56:21Z</time>
      </trkpt>
      <trkpt lat="43.67241" lon="6.17899">
        <ele>670.7</ele>
        <time>2023-10-09T12:56:22Z</time>
      </trkpt>
      <trkpt lat="43.67241" lon="6.179">
        <ele>670.7</ele>
        <time>2023-10-09T12:56:23Z</time>
      </trkpt>
      <trkpt lat="43.67241" lon="6.17901">
        <ele>670.8</ele>
        <time>2023-10-09T12:56:24Z</time>
      </trkpt>
      <trkpt lat="43.67241" lon="6.17903">
        <ele>670.8</ele>
        <time>2023-10-09T12:56:25Z</time>
      </trkpt>
      <trkpt lat="43.67241" lon="6.17904">
        <ele>670.9</ele>
        <time>2023-10-09T12:56:26Z</time>
      </trkpt>
      <trkpt lat="43.6724" lon="6.17905">
        <ele>670.9</ele>
        <time>2023-10-09T12:56:27Z</time>
      </trkpt>
      <trkpt lat="43.6724" lon="6.17907">
        <ele>671</ele>
        <time>2023-10-09T12:56:28Z</time>
      </trkpt>
      <trkpt lat="43.6724" lon="6.17909">
        <ele>671</ele>
        <time>2023-10-09T12:56:29Z</time>
      </trkpt>
      <trkpt lat="43.6724" lon="6.1791">
        <ele>671.1</ele>
        <time>2023-10-09T12:56:30Z</time>
      </trkpt>
      <trkpt lat="43.6724" lon="6.17911">
        <ele>671.1</ele>
        <time>2023-10-09T12:56:31Z</time>
      </trkpt>
      <trkpt lat="43.6724" lon="6.17912">
        <ele>671.1</ele>
        <time>2023-10-09T12:56:32Z</time>
      </trkpt>
      <trkpt lat="43.67239" lon="6.17913">
        <ele>671.1</ele>
        <time>2023-10-09T12:56:33Z</time>
      </trkpt>
      <trkpt lat="43.67239" lon="6.17914">
        <ele>671.1</ele>
        <time>2023-10-09T12:56:34Z</time>
      </trkpt>
      <trkpt lat="43.67238" lon="6.17916">
        <ele>671.1</ele>
        <time>2023-10-09T12:56:35Z</time>
      </trkpt>
      <trkpt lat="43.67238" lon="6.17917">
        <ele>671.1</ele>
        <time>2023-10-09T12:56:36Z</time>
      </trkpt>
      <trkpt lat="43.67237" lon="6.17918">
        <ele>671.1</ele>
        <time>2023-10-09T12:56:37Z</time>
      </trkpt>
      <trkpt lat="43.67237" lon="6.17918">
        <ele>671.1</ele>
        <time>2023-10-09T12:56:38Z</time>
      </trkpt>
      <trkpt lat="43.67236" lon="6.17919">
        <ele>671</ele>
        <time>2023-10-09T12:56:39Z</time>
      </trkpt>
      <trkpt lat="43.67235" lon="6.1792">
        <ele>671</ele>
        <time>2023-10-09T12:56:40Z</time>
      </trkpt>
      <trkpt lat="43.67234" lon="6.17922">
        <ele>670.9</ele>
        <time>2023-10-09T12:56:41Z</time>
      </trkpt>
      <trkpt lat="43.67233" lon="6.17924">
        <ele>670.8</ele>
        <time>2023-10-09T12:56:42Z</time>
      </trkpt>
      <trkpt lat="43.67232" lon="6.17925">
        <ele>670.7</ele>
        <time>2023-10-09T12:56:43Z</time>
      </trkpt>
      <trkpt lat="43.67232" lon="6.17926">
        <ele>670.7</ele>
        <time>2023-10-09T12:56:44Z</time>
      </trkpt>
      <trkpt lat="43.6723" lon="6.17928">
        <ele>670.5</ele>
        <time>2023-10-09T12:56:45Z</time>
      </trkpt>
      <trkpt lat="43.6723" lon="6.17929">
        <ele>670.5</ele>
        <time>2023-10-09T12:56:46Z</time>
      </trkpt>
      <trkpt lat="43.67229" lon="6.17929">
        <ele>670.4</ele>
        <time>2023-10-09T12:56:47Z</time>
      </trkpt>
      <trkpt lat="43.67228" lon="6.17931">
        <ele>670.2</ele>
        <time>2023-10-09T12:56:48Z</time>
      </trkpt>
      <trkpt lat="43.67228" lon="6.17931">
        <ele>670.2</ele>
        <time>2023-10-09T12:56:49Z</time>
      </trkpt>
      <trkpt lat="43.67227" lon="6.17932">
        <ele>670.1</ele>
        <time>2023-10-09T12:56:50Z</time>
      </trkpt>
      <trkpt lat="43.67226" lon="6.17934">
        <ele>669.9</ele>
        <time>2023-10-09T12:56:51Z</time>
      </trkpt>
      <trkpt lat="43.67226" lon="6.17935">
        <ele>669.9</ele>
        <time>2023-10-09T12:56:52Z</time>
      </trkpt>
      <trkpt lat="43.67225" lon="6.17937">
        <ele>669.7</ele>
        <time>2023-10-09T12:56:53Z</time>
      </trkpt>
      <trkpt lat="43.67224" lon="6.17938">
        <ele>669.5</ele>
        <time>2023-10-09T12:56:54Z</time>
      </trkpt>
      <trkpt lat="43.67224" lon="6.17939">
        <ele>669.5</ele>
        <time>2023-10-09T12:56:55Z</time>
      </trkpt>
      <trkpt lat="43.67224" lon="6.1794">
        <ele>669.4</ele>
        <time>2023-10-09T12:56:56Z</time>
      </trkpt>
      <trkpt lat="43.67223" lon="6.17941">
        <ele>669.3</ele>
        <time>2023-10-09T12:56:57Z</time>
      </trkpt>
      <trkpt lat="43.67223" lon="6.17942">
        <ele>669.2</ele>
        <time>2023-10-09T12:56:58Z</time>
      </trkpt>
      <trkpt lat="43.67223" lon="6.17944">
        <ele>669.2</ele>
        <time>2023-10-09T12:56:59Z</time>
      </trkpt>
      <trkpt lat="43.67223" lon="6.17946">
        <ele>669.2</ele>
        <time>2023-10-09T12:57:00Z</time>
      </trkpt>
      <trkpt lat="43.67223" lon="6.17947">
        <ele>669.2</ele>
        <time>2023-10-09T12:57:01Z</time>
      </trkpt>
      <trkpt lat="43.67223" lon="6.17948">
        <ele>669.3</ele>
        <time>2023-10-09T12:57:02Z</time>
      </trkpt>
      <trkpt lat="43.67223" lon="6.17949">
        <ele>669.3</ele>
        <time>2023-10-09T12:57:03Z</time>
      </trkpt>
      <trkpt lat="43.67222" lon="6.17951">
        <ele>669.3</ele>
        <time>2023-10-09T12:57:04Z</time>
      </trkpt>
      <trkpt lat="43.67222" lon="6.17952">
        <ele>669.3</ele>
        <time>2023-10-09T12:57:05Z</time>
      </trkpt>
      <trkpt lat="43.67222" lon="6.17953">
        <ele>669.4</ele>
        <time>2023-10-09T12:57:06Z</time>
      </trkpt>
      <trkpt lat="43.67221" lon="6.17954">
        <ele>669.7</ele>
        <time>2023-10-09T12:57:07Z</time>
      </trkpt>
      <trkpt lat="43.67222" lon="6.17956">
        <ele>669.5</ele>
        <time>2023-10-09T12:57:08Z</time>
      </trkpt>
      <trkpt lat="43.67221" lon="6.17957">
        <ele>669.8</ele>
        <time>2023-10-09T12:57:09Z</time>
      </trkpt>
      <trkpt lat="43.67221" lon="6.17959">
        <ele>669.8</ele>
        <time>2023-10-09T12:57:10Z</time>
      </trkpt>
      <trkpt lat="43.67221" lon="6.1796">
        <ele>669.9</ele>
        <time>2023-10-09T12:57:11Z</time>
      </trkpt>
      <trkpt lat="43.67221" lon="6.17962">
        <ele>669.9</ele>
        <time>2023-10-09T12:57:12Z</time>
      </trkpt>
      <trkpt lat="43.67221" lon="6.17963">
        <ele>670</ele>
        <time>2023-10-09T12:57:13Z</time>
      </trkpt>
      <trkpt lat="43.67221" lon="6.17965">
        <ele>670</ele>
        <time>2023-10-09T12:57:14Z</time>
      </trkpt>
      <trkpt lat="43.67222" lon="6.17966">
        <ele>669.8</ele>
        <time>2023-10-09T12:57:15Z</time>
      </trkpt>
      <trkpt lat="43.67222" lon="6.17968">
        <ele>669.9</ele>
        <time>2023-10-09T12:57:16Z</time>
      </trkpt>
      <trkpt lat="43.67222" lon="6.1797">
        <ele>670</ele>
        <time>2023-10-09T12:57:17Z</time>
      </trkpt>
      <trkpt lat="43.67222" lon="6.17971">
        <ele>670</ele>
        <time>2023-10-09T12:57:18Z</time>
      </trkpt>
      <trkpt lat="43.67222" lon="6.17972">
        <ele>670</ele>
        <time>2023-10-09T12:57:19Z</time>
      </trkpt>
      <trkpt lat="43.67222" lon="6.17974">
        <ele>670.1</ele>
        <time>2023-10-09T12:57:20Z</time>
      </trkpt>
      <trkpt lat="43.67221" lon="6.17975">
        <ele>670.4</ele>
        <time>2023-10-09T12:57:21Z</time>
      </trkpt>
      <trkpt lat="43.67221" lon="6.17977">
        <ele>670.5</ele>
        <time>2023-10-09T12:57:22Z</time>
      </trkpt>
      <trkpt lat="43.67221" lon="6.17978">
        <ele>670.5</ele>
        <time>2023-10-09T12:57:23Z</time>
      </trkpt>
      <trkpt lat="43.6722" lon="6.17979">
        <ele>670.8</ele>
        <time>2023-10-09T12:57:24Z</time>
      </trkpt>
      <trkpt lat="43.6722" lon="6.1798">
        <ele>670.8</ele>
        <time>2023-10-09T12:57:25Z</time>
      </trkpt>
      <trkpt lat="43.6722" lon="6.17982">
        <ele>670.9</ele>
        <time>2023-10-09T12:57:26Z</time>
      </trkpt>
      <trkpt lat="43.67219" lon="6.17984">
        <ele>671.2</ele>
        <time>2023-10-09T12:57:27Z</time>
      </trkpt>
      <trkpt lat="43.67219" lon="6.17985">
        <ele>671.3</ele>
        <time>2023-10-09T12:57:28Z</time>
      </trkpt>
      <trkpt lat="43.67219" lon="6.17987">
        <ele>671.3</ele>
        <time>2023-10-09T12:57:29Z</time>
      </trkpt>
      <trkpt lat="43.67219" lon="6.17988">
        <ele>671.4</ele>
        <time>2023-10-09T12:57:30Z</time>
      </trkpt>
      <trkpt lat="43.67219" lon="6.17989">
        <ele>671.4</ele>
        <time>2023-10-09T12:57:31Z</time>
      </trkpt>
      <trkpt lat="43.67219" lon="6.17991">
        <ele>671.5</ele>
        <time>2023-10-09T12:57:32Z</time>
      </trkpt>
      <trkpt lat="43.67219" lon="6.17993">
        <ele>671.6</ele>
        <time>2023-10-09T12:57:33Z</time>
      </trkpt>
      <trkpt lat="43.67218" lon="6.17994">
        <ele>671.8</ele>
        <time>2023-10-09T12:57:34Z</time>
      </trkpt>
      <trkpt lat="43.67218" lon="6.17996">
        <ele>671.9</ele>
        <time>2023-10-09T12:57:35Z</time>
      </trkpt>
      <trkpt lat="43.67218" lon="6.17997">
        <ele>672</ele>
        <time>2023-10-09T12:57:36Z</time>
      </trkpt>
      <trkpt lat="43.67219" lon="6.17998">
        <ele>671.7</ele>
        <time>2023-10-09T12:57:37Z</time>
      </trkpt>
      <trkpt lat="43.67219" lon="6.18">
        <ele>671.8</ele>
        <time>2023-10-09T12:57:38Z</time>
      </trkpt>
      <trkpt lat="43.67219" lon="6.18001">
        <ele>671.9</ele>
        <time>2023-10-09T12:57:39Z</time>
      </trkpt>
      <trkpt lat="43.67219" lon="6.18002">
        <ele>671.9</ele>
        <time>2023-10-09T12:57:40Z</time>
      </trkpt>
      <trkpt lat="43.67219" lon="6.18003">
        <ele>671.9</ele>
        <time>2023-10-09T12:57:41Z</time>
      </trkpt>
      <trkpt lat="43.67219" lon="6.18004">
        <ele>672</ele>
        <time>2023-10-09T12:57:42Z</time>
      </trkpt>
      <trkpt lat="43.67218" lon="6.18006">
        <ele>672.3</ele>
        <time>2023-10-09T12:57:43Z</time>
      </trkpt>
      <trkpt lat="43.67218" lon="6.18008">
        <ele>672.4</ele>
        <time>2023-10-09T12:57:44Z</time>
      </trkpt>
      <trkpt lat="43.67218" lon="6.18009">
        <ele>672.4</ele>
        <time>2023-10-09T12:57:45Z</time>
      </trkpt>
      <trkpt lat="43.67218" lon="6.1801">
        <ele>672.5</ele>
        <time>2023-10-09T12:57:46Z</time>
      </trkpt>
      <trkpt lat="43.67218" lon="6.18011">
        <ele>672.5</ele>
        <time>2023-10-09T12:57:47Z</time>
      </trkpt>
      <trkpt lat="43.67218" lon="6.18012">
        <ele>672.6</ele>
        <time>2023-10-09T12:57:48Z</time>
      </trkpt>
      <trkpt lat="43.67218" lon="6.18013">
        <ele>672.6</ele>
        <time>2023-10-09T12:57:49Z</time>
      </trkpt>
      <trkpt lat="43.67219" lon="6.18015">
        <ele>672.4</ele>
        <time>2023-10-09T12:57:50Z</time>
      </trkpt>
      <trkpt lat="43.67219" lon="6.18016">
        <ele>672.5</ele>
        <time>2023-10-09T12:57:51Z</time>
      </trkpt>
      <trkpt lat="43.67219" lon="6.18017">
        <ele>672.5</ele>
        <time>2023-10-09T12:57:52Z</time>
      </trkpt>
      <trkpt lat="43.67219" lon="6.18019">
        <ele>672.6</ele>
        <time>2023-10-09T12:57:53Z</time>
      </trkpt>
      <trkpt lat="43.67219" lon="6.1802">
        <ele>672.6</ele>
        <time>2023-10-09T12:57:54Z</time>
      </trkpt>
      <trkpt lat="43.67219" lon="6.18022">
        <ele>672.7</ele>
        <time>2023-10-09T12:57:55Z</time>
      </trkpt>
      <trkpt lat="43.67219" lon="6.18023">
        <ele>672.7</ele>
        <time>2023-10-09T12:57:56Z</time>
      </trkpt>
      <trkpt lat="43.67219" lon="6.18026">
        <ele>672.9</ele>
        <time>2023-10-09T12:57:57Z</time>
      </trkpt>
      <trkpt lat="43.67219" lon="6.18028">
        <ele>672.9</ele>
        <time>2023-10-09T12:57:58Z</time>
      </trkpt>
      <trkpt lat="43.67218" lon="6.18029">
        <ele>673.3</ele>
        <time>2023-10-09T12:57:59Z</time>
      </trkpt>
      <trkpt lat="43.67218" lon="6.18031">
        <ele>673.3</ele>
        <time>2023-10-09T12:58:00Z</time>
      </trkpt>
      <trkpt lat="43.67218" lon="6.18032">
        <ele>673.4</ele>
        <time>2023-10-09T12:58:01Z</time>
      </trkpt>
      <trkpt lat="43.67218" lon="6.18034">
        <ele>673.4</ele>
        <time>2023-10-09T12:58:02Z</time>
      </trkpt>
      <trkpt lat="43.67219" lon="6.18035">
        <ele>673.2</ele>
        <time>2023-10-09T12:58:03Z</time>
      </trkpt>
      <trkpt lat="43.67219" lon="6.18037">
        <ele>673.3</ele>
        <time>2023-10-09T12:58:04Z</time>
      </trkpt>
      <trkpt lat="43.67219" lon="6.18038">
        <ele>673.3</ele>
        <time>2023-10-09T12:58:05Z</time>
      </trkpt>
      <trkpt lat="43.6722" lon="6.1804">
        <ele>673.1</ele>
        <time>2023-10-09T12:58:06Z</time>
      </trkpt>
      <trkpt lat="43.6722" lon="6.18042">
        <ele>673.2</ele>
        <time>2023-10-09T12:58:07Z</time>
      </trkpt>
      <trkpt lat="43.6722" lon="6.18044">
        <ele>673.2</ele>
        <time>2023-10-09T12:58:08Z</time>
      </trkpt>
      <trkpt lat="43.6722" lon="6.18046">
        <ele>673.3</ele>
        <time>2023-10-09T12:58:09Z</time>
      </trkpt>
      <trkpt lat="43.6722" lon="6.18048">
        <ele>673.4</ele>
        <time>2023-10-09T12:58:10Z</time>
      </trkpt>
      <trkpt lat="43.6722" lon="6.18049">
        <ele>673.4</ele>
        <time>2023-10-09T12:58:11Z</time>
      </trkpt>
      <trkpt lat="43.67221" lon="6.1805">
        <ele>673.2</ele>
        <time>2023-10-09T12:58:12Z</time>
      </trkpt>
      <trkpt lat="43.67221" lon="6.18052">
        <ele>673.2</ele>
        <time>2023-10-09T12:58:13Z</time>
      </trkpt>
      <trkpt lat="43.67222" lon="6.18053">
        <ele>673</ele>
        <time>2023-10-09T12:58:14Z</time>
      </trkpt>
      <trkpt lat="43.67223" lon="6.18054">
        <ele>673.1</ele>
        <time>2023-10-09T12:58:15Z</time>
      </trkpt>
      <trkpt lat="43.67223" lon="6.18055">
        <ele>673.1</ele>
        <time>2023-10-09T12:58:16Z</time>
      </trkpt>
      <trkpt lat="43.67224" lon="6.18057">
        <ele>673.5</ele>
        <time>2023-10-09T12:58:17Z</time>
      </trkpt>
      <trkpt lat="43.67224" lon="6.18058">
        <ele>673.5</ele>
        <time>2023-10-09T12:58:18Z</time>
      </trkpt>
      <trkpt lat="43.67224" lon="6.1806">
        <ele>673.7</ele>
        <time>2023-10-09T12:58:19Z</time>
      </trkpt>
      <trkpt lat="43.67225" lon="6.18061">
        <ele>673.9</ele>
        <time>2023-10-09T12:58:20Z</time>
      </trkpt>
      <trkpt lat="43.67225" lon="6.18062">
        <ele>674</ele>
        <time>2023-10-09T12:58:21Z</time>
      </trkpt>
      <trkpt lat="43.67226" lon="6.18064">
        <ele>674.3</ele>
        <time>2023-10-09T12:58:22Z</time>
      </trkpt>
      <trkpt lat="43.67226" lon="6.18065">
        <ele>674.3</ele>
        <time>2023-10-09T12:58:23Z</time>
      </trkpt>
      <trkpt lat="43.67226" lon="6.18067">
        <ele>674.4</ele>
        <time>2023-10-09T12:58:24Z</time>
      </trkpt>
      <trkpt lat="43.67226" lon="6.18068">
        <ele>674.5</ele>
        <time>2023-10-09T12:58:25Z</time>
      </trkpt>
      <trkpt lat="43.67225" lon="6.1807">
        <ele>674.4</ele>
        <time>2023-10-09T12:58:26Z</time>
      </trkpt>
      <trkpt lat="43.67225" lon="6.18071">
        <ele>674.5</ele>
        <time>2023-10-09T12:58:27Z</time>
      </trkpt>
      <trkpt lat="43.67225" lon="6.18073">
        <ele>674.6</ele>
        <time>2023-10-09T12:58:28Z</time>
      </trkpt>
      <trkpt lat="43.67225" lon="6.18075">
        <ele>674.7</ele>
        <time>2023-10-09T12:58:29Z</time>
      </trkpt>
      <trkpt lat="43.67225" lon="6.18076">
        <ele>674.8</ele>
        <time>2023-10-09T12:58:30Z</time>
      </trkpt>
      <trkpt lat="43.67225" lon="6.18078">
        <ele>674.9</ele>
        <time>2023-10-09T12:58:31Z</time>
      </trkpt>
      <trkpt lat="43.67225" lon="6.18079">
        <ele>675</ele>
        <time>2023-10-09T12:58:32Z</time>
      </trkpt>
      <trkpt lat="43.67225" lon="6.1808">
        <ele>675</ele>
        <time>2023-10-09T12:58:33Z</time>
      </trkpt>
      <trkpt lat="43.67225" lon="6.18081">
        <ele>675.1</ele>
        <time>2023-10-09T12:58:34Z</time>
      </trkpt>
      <trkpt lat="43.67225" lon="6.18082">
        <ele>675.1</ele>
        <time>2023-10-09T12:58:35Z</time>
      </trkpt>
      <trkpt lat="43.67225" lon="6.18084">
        <ele>675.2</ele>
        <time>2023-10-09T12:58:36Z</time>
      </trkpt>
      <trkpt lat="43.67225" lon="6.18086">
        <ele>675.3</ele>
        <time>2023-10-09T12:58:37Z</time>
      </trkpt>
      <trkpt lat="43.67225" lon="6.18087">
        <ele>675.3</ele>
        <time>2023-10-09T12:58:38Z</time>
      </trkpt>
      <trkpt lat="43.67226" lon="6.18089">
        <ele>675.4</ele>
        <time>2023-10-09T12:58:39Z</time>
      </trkpt>
      <trkpt lat="43.67226" lon="6.1809">
        <ele>675.4</ele>
        <time>2023-10-09T12:58:40Z</time>
      </trkpt>
      <trkpt lat="43.67226" lon="6.18093">
        <ele>675.5</ele>
        <time>2023-10-09T12:58:41Z</time>
      </trkpt>
      <trkpt lat="43.67227" lon="6.18094">
        <ele>675.6</ele>
        <time>2023-10-09T12:58:42Z</time>
      </trkpt>
      <trkpt lat="43.67227" lon="6.18095">
        <ele>675.6</ele>
        <time>2023-10-09T12:58:43Z</time>
      </trkpt>
      <trkpt lat="43.67227" lon="6.18098">
        <ele>675.7</ele>
        <time>2023-10-09T12:58:44Z</time>
      </trkpt>
      <trkpt lat="43.67227" lon="6.18099">
        <ele>675.7</ele>
        <time>2023-10-09T12:58:45Z</time>
      </trkpt>
      <trkpt lat="43.67227" lon="6.181">
        <ele>675.7</ele>
        <time>2023-10-09T12:58:46Z</time>
      </trkpt>
      <trkpt lat="43.67228" lon="6.18103">
        <ele>675.8</ele>
        <time>2023-10-09T12:58:47Z</time>
      </trkpt>
      <trkpt lat="43.67229" lon="6.18104">
        <ele>675.9</ele>
        <time>2023-10-09T12:58:48Z</time>
      </trkpt>
      <trkpt lat="43.67229" lon="6.18105">
        <ele>675.9</ele>
        <time>2023-10-09T12:58:49Z</time>
      </trkpt>
      <trkpt lat="43.67229" lon="6.18107">
        <ele>675.9</ele>
        <time>2023-10-09T12:58:50Z</time>
      </trkpt>
      <trkpt lat="43.6723" lon="6.18109">
        <ele>676</ele>
        <time>2023-10-09T12:58:51Z</time>
      </trkpt>
      <trkpt lat="43.6723" lon="6.1811">
        <ele>676</ele>
        <time>2023-10-09T12:58:52Z</time>
      </trkpt>
      <trkpt lat="43.6723" lon="6.18111">
        <ele>676</ele>
        <time>2023-10-09T12:58:53Z</time>
      </trkpt>
      <trkpt lat="43.67231" lon="6.18112">
        <ele>676.1</ele>
        <time>2023-10-09T12:58:54Z</time>
      </trkpt>
      <trkpt lat="43.67231" lon="6.18114">
        <ele>676.2</ele>
        <time>2023-10-09T12:58:55Z</time>
      </trkpt>
      <trkpt lat="43.67232" lon="6.18117">
        <ele>676.4</ele>
        <time>2023-10-09T12:58:56Z</time>
      </trkpt>
      <trkpt lat="43.67232" lon="6.18118">
        <ele>676.5</ele>
        <time>2023-10-09T12:58:57Z</time>
      </trkpt>
      <trkpt lat="43.67232" lon="6.18119">
        <ele>676.6</ele>
        <time>2023-10-09T12:58:58Z</time>
      </trkpt>
      <trkpt lat="43.67232" lon="6.1812">
        <ele>676.6</ele>
        <time>2023-10-09T12:58:59Z</time>
      </trkpt>
      <trkpt lat="43.67232" lon="6.18122">
        <ele>676.8</ele>
        <time>2023-10-09T12:59:00Z</time>
      </trkpt>
      <trkpt lat="43.67233" lon="6.18124">
        <ele>676.9</ele>
        <time>2023-10-09T12:59:02Z</time>
      </trkpt>
      <trkpt lat="43.67233" lon="6.18125">
        <ele>676.9</ele>
        <time>2023-10-09T12:59:03Z</time>
      </trkpt>
      <trkpt lat="43.67234" lon="6.18126">
        <ele>676.9</ele>
        <time>2023-10-09T12:59:04Z</time>
      </trkpt>
      <trkpt lat="43.67235" lon="6.18127">
        <ele>676.9</ele>
        <time>2023-10-09T12:59:05Z</time>
      </trkpt>
      <trkpt lat="43.67235" lon="6.18128">
        <ele>677</ele>
        <time>2023-10-09T12:59:06Z</time>
      </trkpt>
      <trkpt lat="43.67236" lon="6.1813">
        <ele>677</ele>
        <time>2023-10-09T12:59:07Z</time>
      </trkpt>
      <trkpt lat="43.67236" lon="6.18131">
        <ele>677.1</ele>
        <time>2023-10-09T12:59:08Z</time>
      </trkpt>
      <trkpt lat="43.67236" lon="6.18134">
        <ele>677.2</ele>
        <time>2023-10-09T12:59:09Z</time>
      </trkpt>
      <trkpt lat="43.67236" lon="6.18135">
        <ele>677.3</ele>
        <time>2023-10-09T12:59:10Z</time>
      </trkpt>
      <trkpt lat="43.67236" lon="6.18136">
        <ele>677.4</ele>
        <time>2023-10-09T12:59:11Z</time>
      </trkpt>
      <trkpt lat="43.67236" lon="6.18138">
        <ele>677.5</ele>
        <time>2023-10-09T12:59:12Z</time>
      </trkpt>
      <trkpt lat="43.67236" lon="6.1814">
        <ele>677.6</ele>
        <time>2023-10-09T12:59:13Z</time>
      </trkpt>
      <trkpt lat="43.67236" lon="6.18141">
        <ele>677.7</ele>
        <time>2023-10-09T12:59:14Z</time>
      </trkpt>
      <trkpt lat="43.67237" lon="6.18142">
        <ele>677.6</ele>
        <time>2023-10-09T12:59:15Z</time>
      </trkpt>
      <trkpt lat="43.67238" lon="6.18143">
        <ele>677.5</ele>
        <time>2023-10-09T12:59:16Z</time>
      </trkpt>
      <trkpt lat="43.67239" lon="6.18145">
        <ele>677.5</ele>
        <time>2023-10-09T12:59:17Z</time>
      </trkpt>
      <trkpt lat="43.6724" lon="6.18146">
        <ele>677.4</ele>
        <time>2023-10-09T12:59:18Z</time>
      </trkpt>
      <trkpt lat="43.6724" lon="6.18147">
        <ele>677.4</ele>
        <time>2023-10-09T12:59:19Z</time>
      </trkpt>
      <trkpt lat="43.67241" lon="6.18148">
        <ele>677.3</ele>
        <time>2023-10-09T12:59:20Z</time>
      </trkpt>
      <trkpt lat="43.67242" lon="6.1815">
        <ele>677.2</ele>
        <time>2023-10-09T12:59:21Z</time>
      </trkpt>
      <trkpt lat="43.67243" lon="6.1815">
        <ele>677</ele>
        <time>2023-10-09T12:59:22Z</time>
      </trkpt>
      <trkpt lat="43.67244" lon="6.18152">
        <ele>676.8</ele>
        <time>2023-10-09T12:59:23Z</time>
      </trkpt>
      <trkpt lat="43.67244" lon="6.18155">
        <ele>676.8</ele>
        <time>2023-10-09T12:59:24Z</time>
      </trkpt>
      <trkpt lat="43.67244" lon="6.18156">
        <ele>676.8</ele>
        <time>2023-10-09T12:59:25Z</time>
      </trkpt>
      <trkpt lat="43.67244" lon="6.18157">
        <ele>676.8</ele>
        <time>2023-10-09T12:59:26Z</time>
      </trkpt>
      <trkpt lat="43.67245" lon="6.1816">
        <ele>676.6</ele>
        <time>2023-10-09T12:59:27Z</time>
      </trkpt>
      <trkpt lat="43.67245" lon="6.18161">
        <ele>676.6</ele>
        <time>2023-10-09T12:59:28Z</time>
      </trkpt>
      <trkpt lat="43.67246" lon="6.18162">
        <ele>676.3</ele>
        <time>2023-10-09T12:59:29Z</time>
      </trkpt>
      <trkpt lat="43.67246" lon="6.18163">
        <ele>676.3</ele>
        <time>2023-10-09T12:59:30Z</time>
      </trkpt>
      <trkpt lat="43.67247" lon="6.18164">
        <ele>676</ele>
        <time>2023-10-09T12:59:31Z</time>
      </trkpt>
      <trkpt lat="43.67247" lon="6.18165">
        <ele>676</ele>
        <time>2023-10-09T12:59:32Z</time>
      </trkpt>
      <trkpt lat="43.67248" lon="6.18167">
        <ele>675.7</ele>
        <time>2023-10-09T12:59:33Z</time>
      </trkpt>
      <trkpt lat="43.67248" lon="6.18168">
        <ele>675.9</ele>
        <time>2023-10-09T12:59:34Z</time>
      </trkpt>
      <trkpt lat="43.67249" lon="6.18169">
        <ele>675.7</ele>
        <time>2023-10-09T12:59:35Z</time>
      </trkpt>
      <trkpt lat="43.67249" lon="6.18172">
        <ele>676.3</ele>
        <time>2023-10-09T12:59:36Z</time>
      </trkpt>
      <trkpt lat="43.6725" lon="6.18173">
        <ele>676.1</ele>
        <time>2023-10-09T12:59:37Z</time>
      </trkpt>
      <trkpt lat="43.6725" lon="6.18174">
        <ele>676.3</ele>
        <time>2023-10-09T12:59:38Z</time>
      </trkpt>
      <trkpt lat="43.67251" lon="6.18175">
        <ele>676.7</ele>
        <time>2023-10-09T12:59:39Z</time>
      </trkpt>
      <trkpt lat="43.67252" lon="6.18176">
        <ele>677</ele>
        <time>2023-10-09T12:59:40Z</time>
      </trkpt>
      <trkpt lat="43.67252" lon="6.18177">
        <ele>677.2</ele>
        <time>2023-10-09T12:59:41Z</time>
      </trkpt>
      <trkpt lat="43.67252" lon="6.18179">
        <ele>677.5</ele>
        <time>2023-10-09T12:59:42Z</time>
      </trkpt>
      <trkpt lat="43.67253" lon="6.1818">
        <ele>677.8</ele>
        <time>2023-10-09T12:59:43Z</time>
      </trkpt>
      <trkpt lat="43.67253" lon="6.18182">
        <ele>678.1</ele>
        <time>2023-10-09T12:59:44Z</time>
      </trkpt>
      <trkpt lat="43.67254" lon="6.18183">
        <ele>678.4</ele>
        <time>2023-10-09T12:59:45Z</time>
      </trkpt>
      <trkpt lat="43.67255" lon="6.18184">
        <ele>678.6</ele>
        <time>2023-10-09T12:59:46Z</time>
      </trkpt>
      <trkpt lat="43.67255" lon="6.18185">
        <ele>678.7</ele>
        <time>2023-10-09T12:59:47Z</time>
      </trkpt>
      <trkpt lat="43.67256" lon="6.18186">
        <ele>678.9</ele>
        <time>2023-10-09T12:59:48Z</time>
      </trkpt>
      <trkpt lat="43.67257" lon="6.18187">
        <ele>679.1</ele>
        <time>2023-10-09T12:59:49Z</time>
      </trkpt>
      <trkpt lat="43.67257" lon="6.18188">
        <ele>679.2</ele>
        <time>2023-10-09T12:59:50Z</time>
      </trkpt>
      <trkpt lat="43.67258" lon="6.18189">
        <ele>679.4</ele>
        <time>2023-10-09T12:59:51Z</time>
      </trkpt>
      <trkpt lat="43.67258" lon="6.18191">
        <ele>679.6</ele>
        <time>2023-10-09T12:59:52Z</time>
      </trkpt>
      <trkpt lat="43.67258" lon="6.18193">
        <ele>679.8</ele>
        <time>2023-10-09T12:59:53Z</time>
      </trkpt>
      <trkpt lat="43.67258" lon="6.18194">
        <ele>680</ele>
        <time>2023-10-09T12:59:54Z</time>
      </trkpt>
      <trkpt lat="43.67259" lon="6.18196">
        <ele>680.2</ele>
        <time>2023-10-09T12:59:55Z</time>
      </trkpt>
      <trkpt lat="43.67259" lon="6.18197">
        <ele>680.3</ele>
        <time>2023-10-09T12:59:56Z</time>
      </trkpt>
      <trkpt lat="43.6726" lon="6.18198">
        <ele>680.3</ele>
        <time>2023-10-09T12:59:57Z</time>
      </trkpt>
      <trkpt lat="43.6726" lon="6.18198">
        <ele>680.3</ele>
        <time>2023-10-09T12:59:58Z</time>
      </trkpt>
      <trkpt lat="43.67261" lon="6.18199">
        <ele>680.4</ele>
        <time>2023-10-09T12:59:59Z</time>
      </trkpt>
      <trkpt lat="43.67261" lon="6.182">
        <ele>680.4</ele>
        <time>2023-10-09T13:00:00Z</time>
      </trkpt>
      <trkpt lat="43.67261" lon="6.18201">
        <ele>680.5</ele>
        <time>2023-10-09T13:00:01Z</time>
      </trkpt>
      <trkpt lat="43.67261" lon="6.18202">
        <ele>680.6</ele>
        <time>2023-10-09T13:00:02Z</time>
      </trkpt>
      <trkpt lat="43.67261" lon="6.18203">
        <ele>680.7</ele>
        <time>2023-10-09T13:00:03Z</time>
      </trkpt>
      <trkpt lat="43.67261" lon="6.18205">
        <ele>680.8</ele>
        <time>2023-10-09T13:00:04Z</time>
      </trkpt>
      <trkpt lat="43.67261" lon="6.18206">
        <ele>680.9</ele>
        <time>2023-10-09T13:00:05Z</time>
      </trkpt>
      <trkpt lat="43.67261" lon="6.18207">
        <ele>681</ele>
        <time>2023-10-09T13:00:06Z</time>
      </trkpt>
      <trkpt lat="43.67261" lon="6.18208">
        <ele>681.1</ele>
        <time>2023-10-09T13:00:07Z</time>
      </trkpt>
      <trkpt lat="43.67262" lon="6.18209">
        <ele>681</ele>
        <time>2023-10-09T13:00:08Z</time>
      </trkpt>
      <trkpt lat="43.67262" lon="6.1821">
        <ele>681.1</ele>
        <time>2023-10-09T13:00:09Z</time>
      </trkpt>
      <trkpt lat="43.67262" lon="6.18211">
        <ele>681.2</ele>
        <time>2023-10-09T13:00:10Z</time>
      </trkpt>
      <trkpt lat="43.67263" lon="6.18212">
        <ele>681.1</ele>
        <time>2023-10-09T13:00:11Z</time>
      </trkpt>
      <trkpt lat="43.67264" lon="6.18213">
        <ele>681</ele>
        <time>2023-10-09T13:00:12Z</time>
      </trkpt>
      <trkpt lat="43.67265" lon="6.18213">
        <ele>680.8</ele>
        <time>2023-10-09T13:00:13Z</time>
      </trkpt>
      <trkpt lat="43.67265" lon="6.18214">
        <ele>680.9</ele>
        <time>2023-10-09T13:00:14Z</time>
      </trkpt>
      <trkpt lat="43.67265" lon="6.18215">
        <ele>680.9</ele>
        <time>2023-10-09T13:00:15Z</time>
      </trkpt>
      <trkpt lat="43.67266" lon="6.18216">
        <ele>680.8</ele>
        <time>2023-10-09T13:00:16Z</time>
      </trkpt>
      <trkpt lat="43.67266" lon="6.18217">
        <ele>680.8</ele>
        <time>2023-10-09T13:00:17Z</time>
      </trkpt>
      <trkpt lat="43.67267" lon="6.18218">
        <ele>680.6</ele>
        <time>2023-10-09T13:00:18Z</time>
      </trkpt>
      <trkpt lat="43.67267" lon="6.18219">
        <ele>680.6</ele>
        <time>2023-10-09T13:00:19Z</time>
      </trkpt>
      <trkpt lat="43.67268" lon="6.1822">
        <ele>680.4</ele>
        <time>2023-10-09T13:00:20Z</time>
      </trkpt>
      <trkpt lat="43.67269" lon="6.18221">
        <ele>680.2</ele>
        <time>2023-10-09T13:00:21Z</time>
      </trkpt>
      <trkpt lat="43.6727" lon="6.18222">
        <ele>680</ele>
        <time>2023-10-09T13:00:22Z</time>
      </trkpt>
      <trkpt lat="43.67271" lon="6.18224">
        <ele>679.9</ele>
        <time>2023-10-09T13:00:23Z</time>
      </trkpt>
      <trkpt lat="43.67272" lon="6.18226">
        <ele>679.9</ele>
        <time>2023-10-09T13:00:24Z</time>
      </trkpt>
      <trkpt lat="43.67273" lon="6.18228">
        <ele>679.9</ele>
        <time>2023-10-09T13:00:25Z</time>
      </trkpt>
      <trkpt lat="43.67274" lon="6.18229">
        <ele>679.7</ele>
        <time>2023-10-09T13:00:26Z</time>
      </trkpt>
      <trkpt lat="43.67274" lon="6.1823">
        <ele>679.8</ele>
        <time>2023-10-09T13:00:27Z</time>
      </trkpt>
      <trkpt lat="43.67274" lon="6.18231">
        <ele>679.9</ele>
        <time>2023-10-09T13:00:28Z</time>
      </trkpt>
      <trkpt lat="43.67275" lon="6.18233">
        <ele>679.9</ele>
        <time>2023-10-09T13:00:29Z</time>
      </trkpt>
      <trkpt lat="43.67275" lon="6.18234">
        <ele>680</ele>
        <time>2023-10-09T13:00:30Z</time>
      </trkpt>
      <trkpt lat="43.67275" lon="6.18236">
        <ele>680.2</ele>
        <time>2023-10-09T13:00:31Z</time>
      </trkpt>
      <trkpt lat="43.67275" lon="6.18237">
        <ele>680.3</ele>
        <time>2023-10-09T13:00:32Z</time>
      </trkpt>
      <trkpt lat="43.67275" lon="6.18238">
        <ele>680.5</ele>
        <time>2023-10-09T13:00:33Z</time>
      </trkpt>
      <trkpt lat="43.67276" lon="6.18239">
        <ele>680.3</ele>
        <time>2023-10-09T13:00:34Z</time>
      </trkpt>
      <trkpt lat="43.67276" lon="6.18241">
        <ele>680.5</ele>
        <time>2023-10-09T13:00:35Z</time>
      </trkpt>
      <trkpt lat="43.67277" lon="6.18242">
        <ele>680.4</ele>
        <time>2023-10-09T13:00:36Z</time>
      </trkpt>
      <trkpt lat="43.67277" lon="6.18243">
        <ele>680.5</ele>
        <time>2023-10-09T13:00:37Z</time>
      </trkpt>
      <trkpt lat="43.67278" lon="6.18244">
        <ele>680.4</ele>
        <time>2023-10-09T13:00:38Z</time>
      </trkpt>
      <trkpt lat="43.67279" lon="6.18244">
        <ele>680.4</ele>
        <time>2023-10-09T13:00:39Z</time>
      </trkpt>
      <trkpt lat="43.67279" lon="6.18246">
        <ele>680.6</ele>
        <time>2023-10-09T13:00:40Z</time>
      </trkpt>
      <trkpt lat="43.6728" lon="6.18247">
        <ele>680.8</ele>
        <time>2023-10-09T13:00:41Z</time>
      </trkpt>
      <trkpt lat="43.6728" lon="6.18248">
        <ele>680.9</ele>
        <time>2023-10-09T13:00:42Z</time>
      </trkpt>
      <trkpt lat="43.67281" lon="6.18249">
        <ele>681</ele>
        <time>2023-10-09T13:00:43Z</time>
      </trkpt>
      <trkpt lat="43.67282" lon="6.1825">
        <ele>681.2</ele>
        <time>2023-10-09T13:00:44Z</time>
      </trkpt>
      <trkpt lat="43.67282" lon="6.18251">
        <ele>681.2</ele>
        <time>2023-10-09T13:00:45Z</time>
      </trkpt>
      <trkpt lat="43.67283" lon="6.18252">
        <ele>681.3</ele>
        <time>2023-10-09T13:00:46Z</time>
      </trkpt>
      <trkpt lat="43.67283" lon="6.18253">
        <ele>681.3</ele>
        <time>2023-10-09T13:00:47Z</time>
      </trkpt>
      <trkpt lat="43.67284" lon="6.18254">
        <ele>681.4</ele>
        <time>2023-10-09T13:00:48Z</time>
      </trkpt>
      <trkpt lat="43.67284" lon="6.18256">
        <ele>681.5</ele>
        <time>2023-10-09T13:00:49Z</time>
      </trkpt>
      <trkpt lat="43.67285" lon="6.18257">
        <ele>681.6</ele>
        <time>2023-10-09T13:00:50Z</time>
      </trkpt>
      <trkpt lat="43.67285" lon="6.18259">
        <ele>681.7</ele>
        <time>2023-10-09T13:00:51Z</time>
      </trkpt>
      <trkpt lat="43.67285" lon="6.1826">
        <ele>681.7</ele>
        <time>2023-10-09T13:00:52Z</time>
      </trkpt>
      <trkpt lat="43.67285" lon="6.18262">
        <ele>681.8</ele>
        <time>2023-10-09T13:00:53Z</time>
      </trkpt>
      <trkpt lat="43.67286" lon="6.18264">
        <ele>681.9</ele>
        <time>2023-10-09T13:00:54Z</time>
      </trkpt>
      <trkpt lat="43.67286" lon="6.18265">
        <ele>681.9</ele>
        <time>2023-10-09T13:00:55Z</time>
      </trkpt>
      <trkpt lat="43.67286" lon="6.18267">
        <ele>682</ele>
        <time>2023-10-09T13:00:56Z</time>
      </trkpt>
      <trkpt lat="43.67286" lon="6.18268">
        <ele>682</ele>
        <time>2023-10-09T13:00:57Z</time>
      </trkpt>
      <trkpt lat="43.67286" lon="6.1827">
        <ele>682.1</ele>
        <time>2023-10-09T13:00:58Z</time>
      </trkpt>
      <trkpt lat="43.67286" lon="6.18271">
        <ele>682.1</ele>
        <time>2023-10-09T13:00:59Z</time>
      </trkpt>
      <trkpt lat="43.67286" lon="6.18272">
        <ele>682.2</ele>
        <time>2023-10-09T13:01:00Z</time>
      </trkpt>
      <trkpt lat="43.67286" lon="6.18274">
        <ele>682.3</ele>
        <time>2023-10-09T13:01:01Z</time>
      </trkpt>
      <trkpt lat="43.67286" lon="6.18275">
        <ele>682.3</ele>
        <time>2023-10-09T13:01:02Z</time>
      </trkpt>
      <trkpt lat="43.67286" lon="6.18277">
        <ele>682.4</ele>
        <time>2023-10-09T13:01:03Z</time>
      </trkpt>
      <trkpt lat="43.67286" lon="6.18278">
        <ele>682.4</ele>
        <time>2023-10-09T13:01:04Z</time>
      </trkpt>
      <trkpt lat="43.67286" lon="6.18279">
        <ele>682.6</ele>
        <time>2023-10-09T13:01:05Z</time>
      </trkpt>
      <trkpt lat="43.67286" lon="6.1828">
        <ele>682.7</ele>
        <time>2023-10-09T13:01:06Z</time>
      </trkpt>
      <trkpt lat="43.67287" lon="6.18282">
        <ele>682.8</ele>
        <time>2023-10-09T13:01:07Z</time>
      </trkpt>
      <trkpt lat="43.67287" lon="6.18283">
        <ele>683</ele>
        <time>2023-10-09T13:01:08Z</time>
      </trkpt>
      <trkpt lat="43.67287" lon="6.18285">
        <ele>683.2</ele>
        <time>2023-10-09T13:01:09Z</time>
      </trkpt>
      <trkpt lat="43.67288" lon="6.18286">
        <ele>683.2</ele>
        <time>2023-10-09T13:01:10Z</time>
      </trkpt>
      <trkpt lat="43.67288" lon="6.18288">
        <ele>683.4</ele>
        <time>2023-10-09T13:01:11Z</time>
      </trkpt>
      <trkpt lat="43.67289" lon="6.18289">
        <ele>683.4</ele>
        <time>2023-10-09T13:01:12Z</time>
      </trkpt>
      <trkpt lat="43.67289" lon="6.18291">
        <ele>683.6</ele>
        <time>2023-10-09T13:01:13Z</time>
      </trkpt>
      <trkpt lat="43.6729" lon="6.18293">
        <ele>683.7</ele>
        <time>2023-10-09T13:01:14Z</time>
      </trkpt>
      <trkpt lat="43.67291" lon="6.18294">
        <ele>683.6</ele>
        <time>2023-10-09T13:01:15Z</time>
      </trkpt>
      <trkpt lat="43.67291" lon="6.18295">
        <ele>683.7</ele>
        <time>2023-10-09T13:01:16Z</time>
      </trkpt>
      <trkpt lat="43.67293" lon="6.18297">
        <ele>683.5</ele>
        <time>2023-10-09T13:01:17Z</time>
      </trkpt>
      <trkpt lat="43.67293" lon="6.18298">
        <ele>683.5</ele>
        <time>2023-10-09T13:01:18Z</time>
      </trkpt>
      <trkpt lat="43.67293" lon="6.18299">
        <ele>683.6</ele>
        <time>2023-10-09T13:01:19Z</time>
      </trkpt>
      <trkpt lat="43.67294" lon="6.183">
        <ele>683.5</ele>
        <time>2023-10-09T13:01:20Z</time>
      </trkpt>
      <trkpt lat="43.67295" lon="6.18301">
        <ele>683.3</ele>
        <time>2023-10-09T13:01:21Z</time>
      </trkpt>
      <trkpt lat="43.67296" lon="6.18302">
        <ele>683.2</ele>
        <time>2023-10-09T13:01:22Z</time>
      </trkpt>
      <trkpt lat="43.67298" lon="6.18304">
        <ele>682.8</ele>
        <time>2023-10-09T13:01:23Z</time>
      </trkpt>
      <trkpt lat="43.67298" lon="6.18305">
        <ele>682.9</ele>
        <time>2023-10-09T13:01:24Z</time>
      </trkpt>
      <trkpt lat="43.67299" lon="6.18306">
        <ele>682.7</ele>
        <time>2023-10-09T13:01:25Z</time>
      </trkpt>
      <trkpt lat="43.673" lon="6.18307">
        <ele>682.7</ele>
        <time>2023-10-09T13:01:26Z</time>
      </trkpt>
      <trkpt lat="43.67301" lon="6.18308">
        <ele>682.7</ele>
        <time>2023-10-09T13:01:27Z</time>
      </trkpt>
      <trkpt lat="43.67302" lon="6.18309">
        <ele>682.6</ele>
        <time>2023-10-09T13:01:28Z</time>
      </trkpt>
      <trkpt lat="43.67303" lon="6.1831">
        <ele>682.6</ele>
        <time>2023-10-09T13:01:29Z</time>
      </trkpt>
      <trkpt lat="43.67304" lon="6.18311">
        <ele>682.6</ele>
        <time>2023-10-09T13:01:30Z</time>
      </trkpt>
      <trkpt lat="43.67304" lon="6.18312">
        <ele>682.8</ele>
        <time>2023-10-09T13:01:31Z</time>
      </trkpt>
      <trkpt lat="43.67305" lon="6.18313">
        <ele>682.7</ele>
        <time>2023-10-09T13:01:32Z</time>
      </trkpt>
      <trkpt lat="43.67306" lon="6.18314">
        <ele>682.9</ele>
        <time>2023-10-09T13:01:33Z</time>
      </trkpt>
      <trkpt lat="43.67306" lon="6.18315">
        <ele>683.1</ele>
        <time>2023-10-09T13:01:34Z</time>
      </trkpt>
      <trkpt lat="43.67307" lon="6.18316">
        <ele>683.4</ele>
        <time>2023-10-09T13:01:35Z</time>
      </trkpt>
      <trkpt lat="43.67308" lon="6.18317">
        <ele>683.7</ele>
        <time>2023-10-09T13:01:36Z</time>
      </trkpt>
      <trkpt lat="43.67309" lon="6.18317">
        <ele>683.8</ele>
        <time>2023-10-09T13:01:37Z</time>
      </trkpt>
      <trkpt lat="43.67309" lon="6.18318">
        <ele>683.9</ele>
        <time>2023-10-09T13:01:38Z</time>
      </trkpt>
      <trkpt lat="43.6731" lon="6.18319">
        <ele>684.2</ele>
        <time>2023-10-09T13:01:39Z</time>
      </trkpt>
      <trkpt lat="43.67311" lon="6.1832">
        <ele>684.4</ele>
        <time>2023-10-09T13:01:40Z</time>
      </trkpt>
      <trkpt lat="43.67311" lon="6.18321">
        <ele>684.5</ele>
        <time>2023-10-09T13:01:41Z</time>
      </trkpt>
      <trkpt lat="43.67312" lon="6.18322">
        <ele>684.7</ele>
        <time>2023-10-09T13:01:42Z</time>
      </trkpt>
      <trkpt lat="43.67313" lon="6.18323">
        <ele>684.9</ele>
        <time>2023-10-09T13:01:43Z</time>
      </trkpt>
      <trkpt lat="43.67313" lon="6.18324">
        <ele>685</ele>
        <time>2023-10-09T13:01:44Z</time>
      </trkpt>
      <trkpt lat="43.67314" lon="6.18325">
        <ele>685.1</ele>
        <time>2023-10-09T13:01:45Z</time>
      </trkpt>
      <trkpt lat="43.67314" lon="6.18327">
        <ele>685.3</ele>
        <time>2023-10-09T13:01:46Z</time>
      </trkpt>
      <trkpt lat="43.67314" lon="6.18328">
        <ele>685.5</ele>
        <time>2023-10-09T13:01:47Z</time>
      </trkpt>
      <trkpt lat="43.67315" lon="6.18329">
        <ele>685.5</ele>
        <time>2023-10-09T13:01:48Z</time>
      </trkpt>
      <trkpt lat="43.67315" lon="6.1833">
        <ele>685.6</ele>
        <time>2023-10-09T13:01:49Z</time>
      </trkpt>
      <trkpt lat="43.67315" lon="6.18331">
        <ele>685.7</ele>
        <time>2023-10-09T13:01:50Z</time>
      </trkpt>
      <trkpt lat="43.67316" lon="6.18332">
        <ele>685.7</ele>
        <time>2023-10-09T13:01:51Z</time>
      </trkpt>
      <trkpt lat="43.67316" lon="6.18334">
        <ele>685.9</ele>
        <time>2023-10-09T13:01:52Z</time>
      </trkpt>
      <trkpt lat="43.67317" lon="6.18335">
        <ele>685.8</ele>
        <time>2023-10-09T13:01:53Z</time>
      </trkpt>
      <trkpt lat="43.67317" lon="6.18336">
        <ele>685.9</ele>
        <time>2023-10-09T13:01:54Z</time>
      </trkpt>
      <trkpt lat="43.67318" lon="6.18337">
        <ele>685.8</ele>
        <time>2023-10-09T13:01:55Z</time>
      </trkpt>
      <trkpt lat="43.67318" lon="6.18338">
        <ele>685.9</ele>
        <time>2023-10-09T13:01:56Z</time>
      </trkpt>
      <trkpt lat="43.67318" lon="6.18339">
        <ele>685.9</ele>
        <time>2023-10-09T13:01:57Z</time>
      </trkpt>
      <trkpt lat="43.67319" lon="6.18341">
        <ele>685.8</ele>
        <time>2023-10-09T13:01:58Z</time>
      </trkpt>
      <trkpt lat="43.67319" lon="6.18342">
        <ele>685.9</ele>
        <time>2023-10-09T13:01:59Z</time>
      </trkpt>
      <trkpt lat="43.67319" lon="6.18343">
        <ele>685.9</ele>
        <time>2023-10-09T13:02:00Z</time>
      </trkpt>
      <trkpt lat="43.67319" lon="6.18344">
        <ele>686</ele>
        <time>2023-10-09T13:02:01Z</time>
      </trkpt>
      <trkpt lat="43.67319" lon="6.18346">
        <ele>686</ele>
        <time>2023-10-09T13:02:02Z</time>
      </trkpt>
      <trkpt lat="43.6732" lon="6.18347">
        <ele>685.9</ele>
        <time>2023-10-09T13:02:03Z</time>
      </trkpt>
      <trkpt lat="43.6732" lon="6.18348">
        <ele>685.9</ele>
        <time>2023-10-09T13:02:04Z</time>
      </trkpt>
      <trkpt lat="43.6732" lon="6.18349">
        <ele>686</ele>
        <time>2023-10-09T13:02:05Z</time>
      </trkpt>
      <trkpt lat="43.6732" lon="6.1835">
        <ele>686</ele>
        <time>2023-10-09T13:02:06Z</time>
      </trkpt>
      <trkpt lat="43.6732" lon="6.18351">
        <ele>686</ele>
        <time>2023-10-09T13:02:07Z</time>
      </trkpt>
      <trkpt lat="43.67321" lon="6.18353">
        <ele>685.9</ele>
        <time>2023-10-09T13:02:08Z</time>
      </trkpt>
      <trkpt lat="43.67321" lon="6.18354">
        <ele>685.9</ele>
        <time>2023-10-09T13:02:09Z</time>
      </trkpt>
      <trkpt lat="43.67321" lon="6.18354">
        <ele>685.9</ele>
        <time>2023-10-09T13:02:10Z</time>
      </trkpt>
      <trkpt lat="43.67321" lon="6.18354">
        <ele>685.9</ele>
        <time>2023-10-09T13:02:11Z</time>
      </trkpt>
      <trkpt lat="43.67321" lon="6.18354">
        <ele>685.9</ele>
        <time>2023-10-09T13:02:12Z</time>
      </trkpt>
      <trkpt lat="43.67321" lon="6.18354">
        <ele>685.9</ele>
        <time>2023-10-09T13:02:13Z</time>
      </trkpt>
      <trkpt lat="43.67321" lon="6.18354">
        <ele>685.9</ele>
        <time>2023-10-09T13:02:14Z</time>
      </trkpt>
      <trkpt lat="43.67321" lon="6.18354">
        <ele>685.9</ele>
        <time>2023-10-09T13:02:15Z</time>
      </trkpt>
      <trkpt lat="43.67321" lon="6.18354">
        <ele>685.9</ele>
        <time>2023-10-09T13:02:16Z</time>
      </trkpt>
      <trkpt lat="43.67321" lon="6.18354">
        <ele>685.9</ele>
        <time>2023-10-09T13:02:17Z</time>
      </trkpt>
      <trkpt lat="43.67321" lon="6.18354">
        <ele>685.9</ele>
        <time>2023-10-09T13:02:18Z</time>
      </trkpt>
      <trkpt lat="43.67321" lon="6.18354">
        <ele>685.9</ele>
        <time>2023-10-09T13:02:19Z</time>
      </trkpt>
      <trkpt lat="43.67321" lon="6.18354">
        <ele>685.9</ele>
        <time>2023-10-09T13:02:20Z</time>
      </trkpt>
      <trkpt lat="43.67321" lon="6.18354">
        <ele>685.9</ele>
        <time>2023-10-09T13:02:21Z</time>
      </trkpt>
      <trkpt lat="43.67321" lon="6.18354">
        <ele>685.9</ele>
        <time>2023-10-09T13:02:22Z</time>
      </trkpt>
      <trkpt lat="43.67321" lon="6.18355">
        <ele>685.9</ele>
        <time>2023-10-09T13:02:23Z</time>
      </trkpt>
      <trkpt lat="43.67321" lon="6.18355">
        <ele>685.9</ele>
        <time>2023-10-09T13:02:24Z</time>
      </trkpt>
      <trkpt lat="43.67321" lon="6.18355">
        <ele>685.9</ele>
        <time>2023-10-09T13:02:25Z</time>
      </trkpt>
      <trkpt lat="43.6732" lon="6.18355">
        <ele>686.2</ele>
        <time>2023-10-09T13:02:26Z</time>
      </trkpt>
      <trkpt lat="43.6732" lon="6.18355">
        <ele>686.2</ele>
        <time>2023-10-09T13:02:27Z</time>
      </trkpt>
      <trkpt lat="43.6732" lon="6.18355">
        <ele>686.2</ele>
        <time>2023-10-09T13:02:28Z</time>
      </trkpt>
      <trkpt lat="43.6732" lon="6.18355">
        <ele>686.2</ele>
        <time>2023-10-09T13:02:29Z</time>
      </trkpt>
      <trkpt lat="43.6732" lon="6.18355">
        <ele>686.2</ele>
        <time>2023-10-09T13:02:30Z</time>
      </trkpt>
      <trkpt lat="43.6732" lon="6.18355">
        <ele>686.2</ele>
        <time>2023-10-09T13:02:31Z</time>
      </trkpt>
      <trkpt lat="43.6732" lon="6.18355">
        <ele>686.2</ele>
        <time>2023-10-09T13:02:32Z</time>
      </trkpt>
      <trkpt lat="43.6732" lon="6.18355">
        <ele>686.2</ele>
        <time>2023-10-09T13:02:33Z</time>
      </trkpt>
      <trkpt lat="43.6732" lon="6.18355">
        <ele>686.2</ele>
        <time>2023-10-09T13:02:34Z</time>
      </trkpt>
      <trkpt lat="43.6732" lon="6.18355">
        <ele>686.2</ele>
        <time>2023-10-09T13:02:35Z</time>
      </trkpt>
      <trkpt lat="43.6732" lon="6.18355">
        <ele>686.2</ele>
        <time>2023-10-09T13:02:36Z</time>
      </trkpt>
      <trkpt lat="43.6732" lon="6.18355">
        <ele>686.2</ele>
        <time>2023-10-09T13:02:37Z</time>
      </trkpt>
      <trkpt lat="43.6732" lon="6.18355">
        <ele>686.2</ele>
        <time>2023-10-09T13:02:38Z</time>
      </trkpt>
      <trkpt lat="43.6732" lon="6.18355">
        <ele>686.2</ele>
        <time>2023-10-09T13:02:39Z</time>
      </trkpt>
      <trkpt lat="43.6732" lon="6.18355">
        <ele>686.2</ele>
        <time>2023-10-09T13:02:40Z</time>
      </trkpt>
      <trkpt lat="43.6732" lon="6.18355">
        <ele>686.2</ele>
        <time>2023-10-09T13:02:41Z</time>
      </trkpt>
      <trkpt lat="43.6732" lon="6.18355">
        <ele>686.2</ele>
        <time>2023-10-09T13:02:42Z</time>
      </trkpt>
      <trkpt lat="43.6732" lon="6.18355">
        <ele>686.2</ele>
        <time>2023-10-09T13:02:43Z</time>
      </trkpt>
      <trkpt lat="43.6732" lon="6.18355">
        <ele>686.2</ele>
        <time>2023-10-09T13:02:44Z</time>
      </trkpt>
      <trkpt lat="43.6732" lon="6.18356">
        <ele>686.2</ele>
        <time>2023-10-09T13:02:45Z</time>
      </trkpt>
      <trkpt lat="43.6732" lon="6.18356">
        <ele>686.2</ele>
        <time>2023-10-09T13:02:46Z</time>
      </trkpt>
      <trkpt lat="43.6732" lon="6.18356">
        <ele>686.2</ele>
        <time>2023-10-09T13:02:47Z</time>
      </trkpt>
      <trkpt lat="43.6732" lon="6.18356">
        <ele>686.2</ele>
        <time>2023-10-09T13:02:48Z</time>
      </trkpt>
      <trkpt lat="43.6732" lon="6.18356">
        <ele>686.2</ele>
        <time>2023-10-09T13:02:49Z</time>
      </trkpt>
      <trkpt lat="43.6732" lon="6.18356">
        <ele>686.2</ele>
        <time>2023-10-09T13:02:50Z</time>
      </trkpt>
      <trkpt lat="43.6732" lon="6.18356">
        <ele>686.2</ele>
        <time>2023-10-09T13:02:51Z</time>
      </trkpt>
      <trkpt lat="43.6732" lon="6.18356">
        <ele>686.2</ele>
        <time>2023-10-09T13:02:52Z</time>
      </trkpt>
      <trkpt lat="43.6732" lon="6.18356">
        <ele>686.2</ele>
        <time>2023-10-09T13:02:53Z</time>
      </trkpt>
      <trkpt lat="43.6732" lon="6.18356">
        <ele>686.2</ele>
        <time>2023-10-09T13:02:54Z</time>
      </trkpt>
      <trkpt lat="43.6732" lon="6.18356">
        <ele>686.2</ele>
        <time>2023-10-09T13:02:55Z</time>
      </trkpt>
      <trkpt lat="43.6732" lon="6.18356">
        <ele>686.2</ele>
        <time>2023-10-09T13:02:56Z</time>
      </trkpt>
      <trkpt lat="43.6732" lon="6.18356">
        <ele>686.2</ele>
        <time>2023-10-09T13:02:57Z</time>
      </trkpt>
      <trkpt lat="43.6732" lon="6.18356">
        <ele>686.2</ele>
        <time>2023-10-09T13:02:58Z</time>
      </trkpt>
      <trkpt lat="43.6732" lon="6.18356">
        <ele>686.2</ele>
        <time>2023-10-09T13:02:59Z</time>
      </trkpt>
      <trkpt lat="43.6732" lon="6.18356">
        <ele>686.2</ele>
        <time>2023-10-09T13:03:00Z</time>
      </trkpt>
      <trkpt lat="43.6732" lon="6.18356">
        <ele>686.2</ele>
        <time>2023-10-09T13:03:01Z</time>
      </trkpt>
      <trkpt lat="43.6732" lon="6.18356">
        <ele>686.2</ele>
        <time>2023-10-09T13:03:02Z</time>
      </trkpt>
      <trkpt lat="43.6732" lon="6.18356">
        <ele>686.2</ele>
        <time>2023-10-09T13:03:03Z</time>
      </trkpt>
      <trkpt lat="43.6732" lon="6.18356">
        <ele>686.2</ele>
        <time>2023-10-09T13:03:04Z</time>
      </trkpt>
      <trkpt lat="43.6732" lon="6.18356">
        <ele>686.2</ele>
        <time>2023-10-09T13:03:05Z</time>
      </trkpt>
      <trkpt lat="43.6732" lon="6.18356">
        <ele>686.2</ele>
        <time>2023-10-09T13:03:06Z</time>
      </trkpt>
      <trkpt lat="43.6732" lon="6.18357">
        <ele>686.2</ele>
        <time>2023-10-09T13:03:07Z</time>
      </trkpt>
      <trkpt lat="43.6732" lon="6.18357">
        <ele>686.2</ele>
        <time>2023-10-09T13:03:08Z</time>
      </trkpt>
      <trkpt lat="43.6732" lon="6.18357">
        <ele>686.2</ele>
        <time>2023-10-09T13:03:09Z</time>
      </trkpt>
      <trkpt lat="43.6732" lon="6.18357">
        <ele>686.2</ele>
        <time>2023-10-09T13:03:10Z</time>
      </trkpt>
      <trkpt lat="43.6732" lon="6.18357">
        <ele>686.2</ele>
        <time>2023-10-09T13:03:11Z</time>
      </trkpt>
      <trkpt lat="43.6732" lon="6.18357">
        <ele>686.2</ele>
        <time>2023-10-09T13:03:12Z</time>
      </trkpt>
      <trkpt lat="43.6732" lon="6.18357">
        <ele>686.2</ele>
        <time>2023-10-09T13:03:13Z</time>
      </trkpt>
      <trkpt lat="43.6732" lon="6.18357">
        <ele>686.2</ele>
        <time>2023-10-09T13:03:14Z</time>
      </trkpt>
      <trkpt lat="43.6732" lon="6.18357">
        <ele>686.2</ele>
        <time>2023-10-09T13:03:15Z</time>
      </trkpt>
      <trkpt lat="43.6732" lon="6.18357">
        <ele>686.2</ele>
        <time>2023-10-09T13:03:16Z</time>
      </trkpt>
      <trkpt lat="43.6732" lon="6.18357">
        <ele>686.2</ele>
        <time>2023-10-09T13:03:17Z</time>
      </trkpt>
      <trkpt lat="43.6732" lon="6.18357">
        <ele>686.2</ele>
        <time>2023-10-09T13:03:18Z</time>
      </trkpt>
      <trkpt lat="43.6732" lon="6.18357">
        <ele>686.2</ele>
        <time>2023-10-09T13:03:19Z</time>
      </trkpt>
      <trkpt lat="43.6732" lon="6.18357">
        <ele>686.2</ele>
        <time>2023-10-09T13:03:20Z</time>
      </trkpt>
      <trkpt lat="43.6732" lon="6.18357">
        <ele>686.2</ele>
        <time>2023-10-09T13:03:21Z</time>
      </trkpt>
      <trkpt lat="43.6732" lon="6.18357">
        <ele>686.2</ele>
        <time>2023-10-09T13:03:22Z</time>
      </trkpt>
      <trkpt lat="43.6732" lon="6.18357">
        <ele>686.2</ele>
        <time>2023-10-09T13:03:23Z</time>
      </trkpt>
      <trkpt lat="43.6732" lon="6.18357">
        <ele>686.2</ele>
        <time>2023-10-09T13:03:24Z</time>
      </trkpt>
      <trkpt lat="43.6732" lon="6.18357">
        <ele>686.2</ele>
        <time>2023-10-09T13:03:25Z</time>
      </trkpt>
      <trkpt lat="43.6732" lon="6.18357">
        <ele>686.2</ele>
        <time>2023-10-09T13:03:26Z</time>
      </trkpt>
      <trkpt lat="43.6732" lon="6.18357">
        <ele>686.2</ele>
        <time>2023-10-09T13:03:27Z</time>
      </trkpt>
      <trkpt lat="43.6732" lon="6.18357">
        <ele>686.2</ele>
        <time>2023-10-09T13:03:28Z</time>
      </trkpt>
      <trkpt lat="43.6732" lon="6.18358">
        <ele>686.3</ele>
        <time>2023-10-09T13:03:29Z</time>
      </trkpt>
      <trkpt lat="43.6732" lon="6.18358">
        <ele>686.3</ele>
        <time>2023-10-09T13:03:30Z</time>
      </trkpt>
      <trkpt lat="43.6732" lon="6.18358">
        <ele>686.3</ele>
        <time>2023-10-09T13:03:31Z</time>
      </trkpt>
      <trkpt lat="43.6732" lon="6.18358">
        <ele>686.3</ele>
        <time>2023-10-09T13:03:32Z</time>
      </trkpt>
      <trkpt lat="43.6732" lon="6.18358">
        <ele>686.3</ele>
        <time>2023-10-09T13:03:33Z</time>
      </trkpt>
      <trkpt lat="43.6732" lon="6.18358">
        <ele>686.3</ele>
        <time>2023-10-09T13:03:34Z</time>
      </trkpt>
      <trkpt lat="43.6732" lon="6.18358">
        <ele>686.3</ele>
        <time>2023-10-09T13:03:35Z</time>
      </trkpt>
      <trkpt lat="43.6732" lon="6.18358">
        <ele>686.3</ele>
        <time>2023-10-09T13:03:36Z</time>
      </trkpt>
      <trkpt lat="43.6732" lon="6.18358">
        <ele>686.3</ele>
        <time>2023-10-09T13:03:37Z</time>
      </trkpt>
      <trkpt lat="43.6732" lon="6.18358">
        <ele>686.3</ele>
        <time>2023-10-09T13:03:38Z</time>
      </trkpt>
      <trkpt lat="43.6732" lon="6.18358">
        <ele>686.3</ele>
        <time>2023-10-09T13:03:39Z</time>
      </trkpt>
      <trkpt lat="43.6732" lon="6.18358">
        <ele>686.3</ele>
        <time>2023-10-09T13:03:40Z</time>
      </trkpt>
      <trkpt lat="43.6732" lon="6.18358">
        <ele>686.3</ele>
        <time>2023-10-09T13:03:41Z</time>
      </trkpt>
      <trkpt lat="43.6732" lon="6.18358">
        <ele>686.3</ele>
        <time>2023-10-09T13:03:42Z</time>
      </trkpt>
      <trkpt lat="43.6732" lon="6.18358">
        <ele>686.3</ele>
        <time>2023-10-09T13:03:43Z</time>
      </trkpt>
      <trkpt lat="43.6732" lon="6.18358">
        <ele>686.3</ele>
        <time>2023-10-09T13:03:44Z</time>
      </trkpt>
      <trkpt lat="43.6732" lon="6.18358">
        <ele>686.3</ele>
        <time>2023-10-09T13:03:45Z</time>
      </trkpt>
      <trkpt lat="43.6732" lon="6.18358">
        <ele>686.3</ele>
        <time>2023-10-09T13:03:46Z</time>
      </trkpt>
      <trkpt lat="43.6732" lon="6.18358">
        <ele>686.3</ele>
        <time>2023-10-09T13:03:47Z</time>
      </trkpt>
      <trkpt lat="43.6732" lon="6.18358">
        <ele>686.3</ele>
        <time>2023-10-09T13:03:48Z</time>
      </trkpt>
      <trkpt lat="43.6732" lon="6.18358">
        <ele>686.3</ele>
        <time>2023-10-09T13:03:49Z</time>
      </trkpt>
      <trkpt lat="43.6732" lon="6.18358">
        <ele>686.3</ele>
        <time>2023-10-09T13:03:50Z</time>
      </trkpt>
      <trkpt lat="43.6732" lon="6.18359">
        <ele>686.3</ele>
        <time>2023-10-09T13:03:51Z</time>
      </trkpt>
      <trkpt lat="43.6732" lon="6.18359">
        <ele>686.3</ele>
        <time>2023-10-09T13:03:52Z</time>
      </trkpt>
      <trkpt lat="43.6732" lon="6.18359">
        <ele>686.3</ele>
        <time>2023-10-09T13:03:53Z</time>
      </trkpt>
      <trkpt lat="43.6732" lon="6.18359">
        <ele>686.3</ele>
        <time>2023-10-09T13:03:54Z</time>
      </trkpt>
      <trkpt lat="43.6732" lon="6.18359">
        <ele>686.3</ele>
        <time>2023-10-09T13:03:55Z</time>
      </trkpt>
      <trkpt lat="43.6732" lon="6.18359">
        <ele>686.3</ele>
        <time>2023-10-09T13:03:56Z</time>
      </trkpt>
      <trkpt lat="43.6732" lon="6.18359">
        <ele>686.3</ele>
        <time>2023-10-09T13:03:57Z</time>
      </trkpt>
      <trkpt lat="43.6732" lon="6.18359">
        <ele>686.3</ele>
        <time>2023-10-09T13:03:58Z</time>
      </trkpt>
      <trkpt lat="43.6732" lon="6.18359">
        <ele>686.3</ele>
        <time>2023-10-09T13:03:59Z</time>
      </trkpt>
      <trkpt lat="43.6732" lon="6.18359">
        <ele>686.3</ele>
        <time>2023-10-09T13:04:00Z</time>
      </trkpt>
      <trkpt lat="43.6732" lon="6.18359">
        <ele>686.3</ele>
        <time>2023-10-09T13:04:01Z</time>
      </trkpt>
      <trkpt lat="43.67319" lon="6.18359">
        <ele>686.5</ele>
        <time>2023-10-09T13:04:02Z</time>
      </trkpt>
      <trkpt lat="43.67319" lon="6.18359">
        <ele>686.5</ele>
        <time>2023-10-09T13:04:03Z</time>
      </trkpt>
      <trkpt lat="43.67319" lon="6.18359">
        <ele>686.5</ele>
        <time>2023-10-09T13:04:04Z</time>
      </trkpt>
      <trkpt lat="43.6732" lon="6.18361">
        <ele>686.4</ele>
        <time>2023-10-09T13:04:05Z</time>
      </trkpt>
      <trkpt lat="43.6732" lon="6.18362">
        <ele>686.5</ele>
        <time>2023-10-09T13:04:06Z</time>
      </trkpt>
      <trkpt lat="43.6732" lon="6.18362">
        <ele>686.5</ele>
        <time>2023-10-09T13:04:07Z</time>
      </trkpt>
      <trkpt lat="43.67321" lon="6.18363">
        <ele>686.4</ele>
        <time>2023-10-09T13:04:08Z</time>
      </trkpt>
      <trkpt lat="43.67321" lon="6.18363">
        <ele>686.4</ele>
        <time>2023-10-09T13:04:09Z</time>
      </trkpt>
      <trkpt lat="43.6732" lon="6.18363">
        <ele>686.6</ele>
        <time>2023-10-09T13:04:10Z</time>
      </trkpt>
      <trkpt lat="43.67321" lon="6.18364">
        <ele>686.5</ele>
        <time>2023-10-09T13:04:11Z</time>
      </trkpt>
      <trkpt lat="43.67321" lon="6.18364">
        <ele>686.5</ele>
        <time>2023-10-09T13:04:12Z</time>
      </trkpt>
      <trkpt lat="43.67321" lon="6.18365">
        <ele>686.7</ele>
        <time>2023-10-09T13:04:13Z</time>
      </trkpt>
      <trkpt lat="43.6732" lon="6.18366">
        <ele>687.1</ele>
        <time>2023-10-09T13:04:14Z</time>
      </trkpt>
      <trkpt lat="43.6732" lon="6.18366">
        <ele>687.1</ele>
        <time>2023-10-09T13:04:15Z</time>
      </trkpt>
      <trkpt lat="43.6732" lon="6.18367">
        <ele>687.2</ele>
        <time>2023-10-09T13:04:16Z</time>
      </trkpt>
      <trkpt lat="43.6732" lon="6.18368">
        <ele>687.4</ele>
        <time>2023-10-09T13:04:17Z</time>
      </trkpt>
      <trkpt lat="43.6732" lon="6.18369">
        <ele>687.5</ele>
        <time>2023-10-09T13:04:18Z</time>
      </trkpt>
      <trkpt lat="43.6732" lon="6.18371">
        <ele>687.8</ele>
        <time>2023-10-09T13:04:19Z</time>
      </trkpt>
      <trkpt lat="43.6732" lon="6.18371">
        <ele>687.8</ele>
        <time>2023-10-09T13:04:20Z</time>
      </trkpt>
      <trkpt lat="43.6732" lon="6.18372">
        <ele>687.9</ele>
        <time>2023-10-09T13:04:21Z</time>
      </trkpt>
      <trkpt lat="43.6732" lon="6.18373">
        <ele>688.1</ele>
        <time>2023-10-09T13:04:22Z</time>
      </trkpt>
      <trkpt lat="43.6732" lon="6.18374">
        <ele>688.2</ele>
        <time>2023-10-09T13:04:23Z</time>
      </trkpt>
      <trkpt lat="43.6732" lon="6.18374">
        <ele>688.2</ele>
        <time>2023-10-09T13:04:24Z</time>
      </trkpt>
      <trkpt lat="43.6732" lon="6.18375">
        <ele>688.4</ele>
        <time>2023-10-09T13:04:25Z</time>
      </trkpt>
      <trkpt lat="43.67321" lon="6.18376">
        <ele>688.3</ele>
        <time>2023-10-09T13:04:26Z</time>
      </trkpt>
      <trkpt lat="43.67321" lon="6.18377">
        <ele>688.5</ele>
        <time>2023-10-09T13:04:27Z</time>
      </trkpt>
      <trkpt lat="43.67321" lon="6.18378">
        <ele>688.6</ele>
        <time>2023-10-09T13:04:28Z</time>
      </trkpt>
      <trkpt lat="43.67322" lon="6.18378">
        <ele>688.4</ele>
        <time>2023-10-09T13:04:29Z</time>
      </trkpt>
      <trkpt lat="43.67322" lon="6.18379">
        <ele>688.6</ele>
        <time>2023-10-09T13:04:30Z</time>
      </trkpt>
      <trkpt lat="43.67322" lon="6.1838">
        <ele>688.7</ele>
        <time>2023-10-09T13:04:31Z</time>
      </trkpt>
      <trkpt lat="43.67322" lon="6.1838">
        <ele>688.7</ele>
        <time>2023-10-09T13:04:32Z</time>
      </trkpt>
      <trkpt lat="43.67323" lon="6.18381">
        <ele>688.7</ele>
        <time>2023-10-09T13:04:33Z</time>
      </trkpt>
      <trkpt lat="43.67323" lon="6.18382">
        <ele>688.8</ele>
        <time>2023-10-09T13:04:34Z</time>
      </trkpt>
      <trkpt lat="43.67324" lon="6.18383">
        <ele>688.8</ele>
        <time>2023-10-09T13:04:35Z</time>
      </trkpt>
      <trkpt lat="43.67324" lon="6.18384">
        <ele>688.9</ele>
        <time>2023-10-09T13:04:36Z</time>
      </trkpt>
      <trkpt lat="43.67324" lon="6.18384">
        <ele>688.9</ele>
        <time>2023-10-09T13:04:37Z</time>
      </trkpt>
      <trkpt lat="43.67325" lon="6.18385">
        <ele>688.9</ele>
        <time>2023-10-09T13:04:38Z</time>
      </trkpt>
      <trkpt lat="43.67325" lon="6.18386">
        <ele>689</ele>
        <time>2023-10-09T13:04:39Z</time>
      </trkpt>
      <trkpt lat="43.67325" lon="6.18387">
        <ele>689.2</ele>
        <time>2023-10-09T13:04:40Z</time>
      </trkpt>
      <trkpt lat="43.67325" lon="6.18388">
        <ele>689.4</ele>
        <time>2023-10-09T13:04:41Z</time>
      </trkpt>
      <trkpt lat="43.67326" lon="6.18389">
        <ele>689.3</ele>
        <time>2023-10-09T13:04:42Z</time>
      </trkpt>
      <trkpt lat="43.67326" lon="6.18391">
        <ele>689.3</ele>
        <time>2023-10-09T13:04:43Z</time>
      </trkpt>
      <trkpt lat="43.67326" lon="6.18392">
        <ele>689.3</ele>
        <time>2023-10-09T13:04:44Z</time>
      </trkpt>
      <trkpt lat="43.67327" lon="6.18393">
        <ele>689.1</ele>
        <time>2023-10-09T13:04:45Z</time>
      </trkpt>
      <trkpt lat="43.67327" lon="6.18395">
        <ele>689.1</ele>
        <time>2023-10-09T13:04:46Z</time>
      </trkpt>
      <trkpt lat="43.67327" lon="6.18396">
        <ele>689.1</ele>
        <time>2023-10-09T13:04:47Z</time>
      </trkpt>
      <trkpt lat="43.67327" lon="6.18397">
        <ele>689</ele>
        <time>2023-10-09T13:04:48Z</time>
      </trkpt>
      <trkpt lat="43.67327" lon="6.18399">
        <ele>689</ele>
        <time>2023-10-09T13:04:49Z</time>
      </trkpt>
      <trkpt lat="43.67327" lon="6.184">
        <ele>689</ele>
        <time>2023-10-09T13:04:50Z</time>
      </trkpt>
      <trkpt lat="43.67327" lon="6.18402">
        <ele>689</ele>
        <time>2023-10-09T13:04:51Z</time>
      </trkpt>
      <trkpt lat="43.67327" lon="6.18403">
        <ele>689</ele>
        <time>2023-10-09T13:04:52Z</time>
      </trkpt>
      <trkpt lat="43.67326" lon="6.18404">
        <ele>689.2</ele>
        <time>2023-10-09T13:04:53Z</time>
      </trkpt>
      <trkpt lat="43.67326" lon="6.18405">
        <ele>689.2</ele>
        <time>2023-10-09T13:04:54Z</time>
      </trkpt>
      <trkpt lat="43.67326" lon="6.18407">
        <ele>689.2</ele>
        <time>2023-10-09T13:04:55Z</time>
      </trkpt>
      <trkpt lat="43.67326" lon="6.18408">
        <ele>689.2</ele>
        <time>2023-10-09T13:04:56Z</time>
      </trkpt>
      <trkpt lat="43.67325" lon="6.18409">
        <ele>689.4</ele>
        <time>2023-10-09T13:04:57Z</time>
      </trkpt>
      <trkpt lat="43.67325" lon="6.1841">
        <ele>689.4</ele>
        <time>2023-10-09T13:04:58Z</time>
      </trkpt>
      <trkpt lat="43.67324" lon="6.18411">
        <ele>689.7</ele>
        <time>2023-10-09T13:04:59Z</time>
      </trkpt>
      <trkpt lat="43.67324" lon="6.18413">
        <ele>689.7</ele>
        <time>2023-10-09T13:05:00Z</time>
      </trkpt>
      <trkpt lat="43.67323" lon="6.18415">
        <ele>690</ele>
        <time>2023-10-09T13:05:01Z</time>
      </trkpt>
      <trkpt lat="43.67323" lon="6.18416">
        <ele>690</ele>
        <time>2023-10-09T13:05:02Z</time>
      </trkpt>
      <trkpt lat="43.67323" lon="6.18419">
        <ele>690</ele>
        <time>2023-10-09T13:05:04Z</time>
      </trkpt>
      <trkpt lat="43.67322" lon="6.1842">
        <ele>690.3</ele>
        <time>2023-10-09T13:05:05Z</time>
      </trkpt>
      <trkpt lat="43.67322" lon="6.18421">
        <ele>690.3</ele>
        <time>2023-10-09T13:05:06Z</time>
      </trkpt>
      <trkpt lat="43.67322" lon="6.18422">
        <ele>690.3</ele>
        <time>2023-10-09T13:05:07Z</time>
      </trkpt>
      <trkpt lat="43.67322" lon="6.18423">
        <ele>690.3</ele>
        <time>2023-10-09T13:05:08Z</time>
      </trkpt>
      <trkpt lat="43.67321" lon="6.18424">
        <ele>690.6</ele>
        <time>2023-10-09T13:05:09Z</time>
      </trkpt>
      <trkpt lat="43.6732" lon="6.18425">
        <ele>690.8</ele>
        <time>2023-10-09T13:05:10Z</time>
      </trkpt>
      <trkpt lat="43.6732" lon="6.18425">
        <ele>690.8</ele>
        <time>2023-10-09T13:05:11Z</time>
      </trkpt>
      <trkpt lat="43.67319" lon="6.18426">
        <ele>691.1</ele>
        <time>2023-10-09T13:05:12Z</time>
      </trkpt>
      <trkpt lat="43.67319" lon="6.18427">
        <ele>691.1</ele>
        <time>2023-10-09T13:05:13Z</time>
      </trkpt>
      <trkpt lat="43.67318" lon="6.18428">
        <ele>691.4</ele>
        <time>2023-10-09T13:05:14Z</time>
      </trkpt>
      <trkpt lat="43.67318" lon="6.18429">
        <ele>691.4</ele>
        <time>2023-10-09T13:05:15Z</time>
      </trkpt>
      <trkpt lat="43.67317" lon="6.1843">
        <ele>691.7</ele>
        <time>2023-10-09T13:05:16Z</time>
      </trkpt>
      <trkpt lat="43.67317" lon="6.18431">
        <ele>691.7</ele>
        <time>2023-10-09T13:05:17Z</time>
      </trkpt>
      <trkpt lat="43.67316" lon="6.18432">
        <ele>692</ele>
        <time>2023-10-09T13:05:18Z</time>
      </trkpt>
      <trkpt lat="43.67315" lon="6.18433">
        <ele>692.3</ele>
        <time>2023-10-09T13:05:19Z</time>
      </trkpt>
      <trkpt lat="43.67314" lon="6.18434">
        <ele>692.6</ele>
        <time>2023-10-09T13:05:20Z</time>
      </trkpt>
      <trkpt lat="43.67314" lon="6.18435">
        <ele>692.6</ele>
        <time>2023-10-09T13:05:21Z</time>
      </trkpt>
      <trkpt lat="43.67313" lon="6.18436">
        <ele>692.9</ele>
        <time>2023-10-09T13:05:22Z</time>
      </trkpt>
      <trkpt lat="43.67313" lon="6.18437">
        <ele>692.9</ele>
        <time>2023-10-09T13:05:23Z</time>
      </trkpt>
      <trkpt lat="43.67312" lon="6.18438">
        <ele>693.1</ele>
        <time>2023-10-09T13:05:24Z</time>
      </trkpt>
      <trkpt lat="43.67312" lon="6.18439">
        <ele>693.1</ele>
        <time>2023-10-09T13:05:25Z</time>
      </trkpt>
      <trkpt lat="43.67312" lon="6.1844">
        <ele>693.1</ele>
        <time>2023-10-09T13:05:26Z</time>
      </trkpt>
      <trkpt lat="43.67312" lon="6.18441">
        <ele>693.1</ele>
        <time>2023-10-09T13:05:27Z</time>
      </trkpt>
      <trkpt lat="43.67311" lon="6.18442">
        <ele>693.4</ele>
        <time>2023-10-09T13:05:28Z</time>
      </trkpt>
      <trkpt lat="43.67311" lon="6.18444">
        <ele>693.4</ele>
        <time>2023-10-09T13:05:29Z</time>
      </trkpt>
      <trkpt lat="43.67311" lon="6.18445">
        <ele>693.4</ele>
        <time>2023-10-09T13:05:30Z</time>
      </trkpt>
      <trkpt lat="43.67311" lon="6.18446">
        <ele>693.5</ele>
        <time>2023-10-09T13:05:31Z</time>
      </trkpt>
      <trkpt lat="43.6731" lon="6.18447">
        <ele>693.7</ele>
        <time>2023-10-09T13:05:32Z</time>
      </trkpt>
      <trkpt lat="43.6731" lon="6.18448">
        <ele>693.8</ele>
        <time>2023-10-09T13:05:33Z</time>
      </trkpt>
      <trkpt lat="43.67309" lon="6.18449">
        <ele>694</ele>
        <time>2023-10-09T13:05:34Z</time>
      </trkpt>
      <trkpt lat="43.67309" lon="6.1845">
        <ele>694.1</ele>
        <time>2023-10-09T13:05:35Z</time>
      </trkpt>
      <trkpt lat="43.67309" lon="6.18451">
        <ele>694.1</ele>
        <time>2023-10-09T13:05:36Z</time>
      </trkpt>
      <trkpt lat="43.67309" lon="6.18452">
        <ele>694.1</ele>
        <time>2023-10-09T13:05:37Z</time>
      </trkpt>
      <trkpt lat="43.67308" lon="6.18453">
        <ele>694.4</ele>
        <time>2023-10-09T13:05:38Z</time>
      </trkpt>
      <trkpt lat="43.67309" lon="6.18454">
        <ele>694.1</ele>
        <time>2023-10-09T13:05:39Z</time>
      </trkpt>
      <trkpt lat="43.67308" lon="6.18455">
        <ele>694.4</ele>
        <time>2023-10-09T13:05:40Z</time>
      </trkpt>
      <trkpt lat="43.67308" lon="6.18457">
        <ele>694.4</ele>
        <time>2023-10-09T13:05:41Z</time>
      </trkpt>
      <trkpt lat="43.67308" lon="6.18458">
        <ele>694.4</ele>
        <time>2023-10-09T13:05:42Z</time>
      </trkpt>
      <trkpt lat="43.67308" lon="6.18459">
        <ele>694.4</ele>
        <time>2023-10-09T13:05:43Z</time>
      </trkpt>
      <trkpt lat="43.67308" lon="6.1846">
        <ele>694.4</ele>
        <time>2023-10-09T13:05:44Z</time>
      </trkpt>
      <trkpt lat="43.67307" lon="6.18461">
        <ele>694.6</ele>
        <time>2023-10-09T13:05:45Z</time>
      </trkpt>
      <trkpt lat="43.67307" lon="6.18462">
        <ele>694.6</ele>
        <time>2023-10-09T13:05:46Z</time>
      </trkpt>
      <trkpt lat="43.67307" lon="6.18463">
        <ele>694.7</ele>
        <time>2023-10-09T13:05:47Z</time>
      </trkpt>
      <trkpt lat="43.67307" lon="6.18464">
        <ele>694.7</ele>
        <time>2023-10-09T13:05:48Z</time>
      </trkpt>
      <trkpt lat="43.67307" lon="6.18465">
        <ele>694.7</ele>
        <time>2023-10-09T13:05:49Z</time>
      </trkpt>
      <trkpt lat="43.67306" lon="6.18467">
        <ele>694.9</ele>
        <time>2023-10-09T13:05:50Z</time>
      </trkpt>
      <trkpt lat="43.67306" lon="6.18468">
        <ele>694.9</ele>
        <time>2023-10-09T13:05:51Z</time>
      </trkpt>
      <trkpt lat="43.67306" lon="6.18469">
        <ele>694.9</ele>
        <time>2023-10-09T13:05:52Z</time>
      </trkpt>
      <trkpt lat="43.67306" lon="6.18471">
        <ele>694.9</ele>
        <time>2023-10-09T13:05:53Z</time>
      </trkpt>
      <trkpt lat="43.67305" lon="6.18472">
        <ele>695.2</ele>
        <time>2023-10-09T13:05:54Z</time>
      </trkpt>
      <trkpt lat="43.67305" lon="6.18473">
        <ele>695.2</ele>
        <time>2023-10-09T13:05:55Z</time>
      </trkpt>
      <trkpt lat="43.67305" lon="6.18475">
        <ele>695.3</ele>
        <time>2023-10-09T13:05:56Z</time>
      </trkpt>
      <trkpt lat="43.67304" lon="6.18476">
        <ele>695.7</ele>
        <time>2023-10-09T13:05:57Z</time>
      </trkpt>
      <trkpt lat="43.67304" lon="6.18477">
        <ele>695.7</ele>
        <time>2023-10-09T13:05:58Z</time>
      </trkpt>
      <trkpt lat="43.67304" lon="6.18478">
        <ele>695.8</ele>
        <time>2023-10-09T13:05:59Z</time>
      </trkpt>
      <trkpt lat="43.67304" lon="6.18479">
        <ele>695.8</ele>
        <time>2023-10-09T13:06:00Z</time>
      </trkpt>
      <trkpt lat="43.67304" lon="6.18481">
        <ele>695.9</ele>
        <time>2023-10-09T13:06:01Z</time>
      </trkpt>
      <trkpt lat="43.67303" lon="6.18482">
        <ele>696.3</ele>
        <time>2023-10-09T13:06:02Z</time>
      </trkpt>
      <trkpt lat="43.67302" lon="6.18483">
        <ele>696.7</ele>
        <time>2023-10-09T13:06:03Z</time>
      </trkpt>
      <trkpt lat="43.67302" lon="6.18484">
        <ele>696.7</ele>
        <time>2023-10-09T13:06:04Z</time>
      </trkpt>
      <trkpt lat="43.67302" lon="6.18486">
        <ele>696.8</ele>
        <time>2023-10-09T13:06:05Z</time>
      </trkpt>
      <trkpt lat="43.67302" lon="6.18487">
        <ele>696.8</ele>
        <time>2023-10-09T13:06:06Z</time>
      </trkpt>
      <trkpt lat="43.67301" lon="6.18488">
        <ele>697.2</ele>
        <time>2023-10-09T13:06:07Z</time>
      </trkpt>
      <trkpt lat="43.67301" lon="6.18489">
        <ele>697.2</ele>
        <time>2023-10-09T13:06:08Z</time>
      </trkpt>
      <trkpt lat="43.67301" lon="6.1849">
        <ele>697.3</ele>
        <time>2023-10-09T13:06:09Z</time>
      </trkpt>
      <trkpt lat="43.673" lon="6.18491">
        <ele>697.7</ele>
        <time>2023-10-09T13:06:10Z</time>
      </trkpt>
      <trkpt lat="43.673" lon="6.18492">
        <ele>697.7</ele>
        <time>2023-10-09T13:06:11Z</time>
      </trkpt>
      <trkpt lat="43.673" lon="6.18493">
        <ele>697.7</ele>
        <time>2023-10-09T13:06:12Z</time>
      </trkpt>
      <trkpt lat="43.673" lon="6.18494">
        <ele>697.8</ele>
        <time>2023-10-09T13:06:13Z</time>
      </trkpt>
      <trkpt lat="43.67299" lon="6.18495">
        <ele>698.2</ele>
        <time>2023-10-09T13:06:14Z</time>
      </trkpt>
      <trkpt lat="43.67299" lon="6.18496">
        <ele>698.2</ele>
        <time>2023-10-09T13:06:15Z</time>
      </trkpt>
      <trkpt lat="43.67298" lon="6.18497">
        <ele>698.6</ele>
        <time>2023-10-09T13:06:16Z</time>
      </trkpt>
      <trkpt lat="43.67298" lon="6.18499">
        <ele>698.7</ele>
        <time>2023-10-09T13:06:17Z</time>
      </trkpt>
      <trkpt lat="43.67298" lon="6.185">
        <ele>698.7</ele>
        <time>2023-10-09T13:06:18Z</time>
      </trkpt>
      <trkpt lat="43.67298" lon="6.18501">
        <ele>698.7</ele>
        <time>2023-10-09T13:06:19Z</time>
      </trkpt>
      <trkpt lat="43.67298" lon="6.18502">
        <ele>698.6</ele>
        <time>2023-10-09T13:06:20Z</time>
      </trkpt>
      <trkpt lat="43.67298" lon="6.18504">
        <ele>698.5</ele>
        <time>2023-10-09T13:06:21Z</time>
      </trkpt>
      <trkpt lat="43.67297" lon="6.18505">
        <ele>698.8</ele>
        <time>2023-10-09T13:06:22Z</time>
      </trkpt>
      <trkpt lat="43.67297" lon="6.18506">
        <ele>698.7</ele>
        <time>2023-10-09T13:06:23Z</time>
      </trkpt>
      <trkpt lat="43.67297" lon="6.18507">
        <ele>698.7</ele>
        <time>2023-10-09T13:06:24Z</time>
      </trkpt>
      <trkpt lat="43.67297" lon="6.18508">
        <ele>698.6</ele>
        <time>2023-10-09T13:06:25Z</time>
      </trkpt>
      <trkpt lat="43.67296" lon="6.18509">
        <ele>698.9</ele>
        <time>2023-10-09T13:06:26Z</time>
      </trkpt>
      <trkpt lat="43.67296" lon="6.1851">
        <ele>698.8</ele>
        <time>2023-10-09T13:06:27Z</time>
      </trkpt>
      <trkpt lat="43.67296" lon="6.18511">
        <ele>698.8</ele>
        <time>2023-10-09T13:06:28Z</time>
      </trkpt>
      <trkpt lat="43.67295" lon="6.18513">
        <ele>699</ele>
        <time>2023-10-09T13:06:29Z</time>
      </trkpt>
      <trkpt lat="43.67295" lon="6.18514">
        <ele>699</ele>
        <time>2023-10-09T13:06:30Z</time>
      </trkpt>
      <trkpt lat="43.67294" lon="6.18514">
        <ele>699.4</ele>
        <time>2023-10-09T13:06:31Z</time>
      </trkpt>
      <trkpt lat="43.67294" lon="6.18515">
        <ele>699.3</ele>
        <time>2023-10-09T13:06:32Z</time>
      </trkpt>
      <trkpt lat="43.67293" lon="6.18516">
        <ele>699.6</ele>
        <time>2023-10-09T13:06:33Z</time>
      </trkpt>
      <trkpt lat="43.67292" lon="6.18517">
        <ele>700</ele>
        <time>2023-10-09T13:06:34Z</time>
      </trkpt>
      <trkpt lat="43.67292" lon="6.18519">
        <ele>699.8</ele>
        <time>2023-10-09T13:06:35Z</time>
      </trkpt>
      <trkpt lat="43.67291" lon="6.18519">
        <ele>700.2</ele>
        <time>2023-10-09T13:06:36Z</time>
      </trkpt>
      <trkpt lat="43.67291" lon="6.1852">
        <ele>700.2</ele>
        <time>2023-10-09T13:06:37Z</time>
      </trkpt>
      <trkpt lat="43.67291" lon="6.18522">
        <ele>700.1</ele>
        <time>2023-10-09T13:06:38Z</time>
      </trkpt>
      <trkpt lat="43.6729" lon="6.18523">
        <ele>700.4</ele>
        <time>2023-10-09T13:06:39Z</time>
      </trkpt>
      <trkpt lat="43.6729" lon="6.18524">
        <ele>700.4</ele>
        <time>2023-10-09T13:06:40Z</time>
      </trkpt>
      <trkpt lat="43.67289" lon="6.18525">
        <ele>700.7</ele>
        <time>2023-10-09T13:06:41Z</time>
      </trkpt>
      <trkpt lat="43.67289" lon="6.18526">
        <ele>700.6</ele>
        <time>2023-10-09T13:06:42Z</time>
      </trkpt>
      <trkpt lat="43.67288" lon="6.18527">
        <ele>701</ele>
        <time>2023-10-09T13:06:43Z</time>
      </trkpt>
      <trkpt lat="43.67288" lon="6.18528">
        <ele>700.9</ele>
        <time>2023-10-09T13:06:44Z</time>
      </trkpt>
      <trkpt lat="43.67288" lon="6.18529">
        <ele>700.8</ele>
        <time>2023-10-09T13:06:45Z</time>
      </trkpt>
      <trkpt lat="43.67287" lon="6.1853">
        <ele>701.1</ele>
        <time>2023-10-09T13:06:46Z</time>
      </trkpt>
      <trkpt lat="43.67286" lon="6.18531">
        <ele>701.3</ele>
        <time>2023-10-09T13:06:47Z</time>
      </trkpt>
      <trkpt lat="43.67286" lon="6.18532">
        <ele>701.2</ele>
        <time>2023-10-09T13:06:48Z</time>
      </trkpt>
      <trkpt lat="43.67286" lon="6.18533">
        <ele>701.1</ele>
        <time>2023-10-09T13:06:49Z</time>
      </trkpt>
      <trkpt lat="43.67285" lon="6.18534">
        <ele>701.4</ele>
        <time>2023-10-09T13:06:50Z</time>
      </trkpt>
      <trkpt lat="43.67285" lon="6.18535">
        <ele>701.2</ele>
        <time>2023-10-09T13:06:51Z</time>
      </trkpt>
      <trkpt lat="43.67284" lon="6.18536">
        <ele>701.5</ele>
        <time>2023-10-09T13:06:52Z</time>
      </trkpt>
      <trkpt lat="43.67284" lon="6.18537">
        <ele>701.4</ele>
        <time>2023-10-09T13:06:53Z</time>
      </trkpt>
      <trkpt lat="43.67283" lon="6.18537">
        <ele>701.7</ele>
        <time>2023-10-09T13:06:54Z</time>
      </trkpt>
      <trkpt lat="43.67283" lon="6.18538">
        <ele>701.6</ele>
        <time>2023-10-09T13:06:55Z</time>
      </trkpt>
      <trkpt lat="43.67283" lon="6.18538">
        <ele>701.6</ele>
        <time>2023-10-09T13:06:56Z</time>
      </trkpt>
      <trkpt lat="43.67282" lon="6.18539">
        <ele>701.8</ele>
        <time>2023-10-09T13:06:57Z</time>
      </trkpt>
      <trkpt lat="43.67282" lon="6.1854">
        <ele>701.7</ele>
        <time>2023-10-09T13:06:58Z</time>
      </trkpt>
      <trkpt lat="43.67281" lon="6.1854">
        <ele>702.1</ele>
        <time>2023-10-09T13:06:59Z</time>
      </trkpt>
      <trkpt lat="43.67281" lon="6.18541">
        <ele>701.9</ele>
        <time>2023-10-09T13:07:00Z</time>
      </trkpt>
      <trkpt lat="43.6728" lon="6.18542">
        <ele>702.2</ele>
        <time>2023-10-09T13:07:01Z</time>
      </trkpt>
      <trkpt lat="43.6728" lon="6.18543">
        <ele>702</ele>
        <time>2023-10-09T13:07:02Z</time>
      </trkpt>
      <trkpt lat="43.67279" lon="6.18544">
        <ele>702.2</ele>
        <time>2023-10-09T13:07:03Z</time>
      </trkpt>
      <trkpt lat="43.67278" lon="6.18544">
        <ele>702.6</ele>
        <time>2023-10-09T13:07:04Z</time>
      </trkpt>
      <trkpt lat="43.67278" lon="6.18545">
        <ele>702.4</ele>
        <time>2023-10-09T13:07:05Z</time>
      </trkpt>
      <trkpt lat="43.67278" lon="6.18545">
        <ele>702.4</ele>
        <time>2023-10-09T13:07:06Z</time>
      </trkpt>
      <trkpt lat="43.67277" lon="6.18546">
        <ele>702.7</ele>
        <time>2023-10-09T13:07:07Z</time>
      </trkpt>
      <trkpt lat="43.67276" lon="6.18547">
        <ele>703</ele>
        <time>2023-10-09T13:07:08Z</time>
      </trkpt>
      <trkpt lat="43.67276" lon="6.18548">
        <ele>702.9</ele>
        <time>2023-10-09T13:07:09Z</time>
      </trkpt>
      <trkpt lat="43.67275" lon="6.18549">
        <ele>703.2</ele>
        <time>2023-10-09T13:07:10Z</time>
      </trkpt>
      <trkpt lat="43.67275" lon="6.18549">
        <ele>703.2</ele>
        <time>2023-10-09T13:07:11Z</time>
      </trkpt>
      <trkpt lat="43.67274" lon="6.1855">
        <ele>703.5</ele>
        <time>2023-10-09T13:07:12Z</time>
      </trkpt>
      <trkpt lat="43.67273" lon="6.18551">
        <ele>703.9</ele>
        <time>2023-10-09T13:07:13Z</time>
      </trkpt>
      <trkpt lat="43.67273" lon="6.18552">
        <ele>703.7</ele>
        <time>2023-10-09T13:07:14Z</time>
      </trkpt>
      <trkpt lat="43.67272" lon="6.18553">
        <ele>704.1</ele>
        <time>2023-10-09T13:07:15Z</time>
      </trkpt>
      <trkpt lat="43.67271" lon="6.18554">
        <ele>704.4</ele>
        <time>2023-10-09T13:07:16Z</time>
      </trkpt>
      <trkpt lat="43.6727" lon="6.18554">
        <ele>704.8</ele>
        <time>2023-10-09T13:07:17Z</time>
      </trkpt>
      <trkpt lat="43.67269" lon="6.18555">
        <ele>705.2</ele>
        <time>2023-10-09T13:07:18Z</time>
      </trkpt>
      <trkpt lat="43.67268" lon="6.18555">
        <ele>705.6</ele>
        <time>2023-10-09T13:07:19Z</time>
      </trkpt>
      <trkpt lat="43.67268" lon="6.18557">
        <ele>705.4</ele>
        <time>2023-10-09T13:07:20Z</time>
      </trkpt>
      <trkpt lat="43.67267" lon="6.18558">
        <ele>705.7</ele>
        <time>2023-10-09T13:07:21Z</time>
      </trkpt>
      <trkpt lat="43.67267" lon="6.18559">
        <ele>705.6</ele>
        <time>2023-10-09T13:07:22Z</time>
      </trkpt>
      <trkpt lat="43.67266" lon="6.1856">
        <ele>705.9</ele>
        <time>2023-10-09T13:07:23Z</time>
      </trkpt>
      <trkpt lat="43.67266" lon="6.18561">
        <ele>705.8</ele>
        <time>2023-10-09T13:07:24Z</time>
      </trkpt>
      <trkpt lat="43.67265" lon="6.18562">
        <ele>706.2</ele>
        <time>2023-10-09T13:07:25Z</time>
      </trkpt>
      <trkpt lat="43.67265" lon="6.18563">
        <ele>706</ele>
        <time>2023-10-09T13:07:26Z</time>
      </trkpt>
      <trkpt lat="43.67265" lon="6.18565">
        <ele>705.8</ele>
        <time>2023-10-09T13:07:27Z</time>
      </trkpt>
      <trkpt lat="43.67264" lon="6.18566">
        <ele>706.1</ele>
        <time>2023-10-09T13:07:28Z</time>
      </trkpt>
      <trkpt lat="43.67264" lon="6.18567">
        <ele>706</ele>
        <time>2023-10-09T13:07:29Z</time>
      </trkpt>
      <trkpt lat="43.67264" lon="6.18567">
        <ele>706</ele>
        <time>2023-10-09T13:07:30Z</time>
      </trkpt>
      <trkpt lat="43.67264" lon="6.18569">
        <ele>705.8</ele>
        <time>2023-10-09T13:07:31Z</time>
      </trkpt>
      <trkpt lat="43.67263" lon="6.18569">
        <ele>706.2</ele>
        <time>2023-10-09T13:07:32Z</time>
      </trkpt>
      <trkpt lat="43.67263" lon="6.1857">
        <ele>706.1</ele>
        <time>2023-10-09T13:07:33Z</time>
      </trkpt>
      <trkpt lat="43.67262" lon="6.18571">
        <ele>706.5</ele>
        <time>2023-10-09T13:07:34Z</time>
      </trkpt>
      <trkpt lat="43.67261" lon="6.18572">
        <ele>706.8</ele>
        <time>2023-10-09T13:07:35Z</time>
      </trkpt>
      <trkpt lat="43.6726" lon="6.18573">
        <ele>707.2</ele>
        <time>2023-10-09T13:07:36Z</time>
      </trkpt>
      <trkpt lat="43.67259" lon="6.18574">
        <ele>707.6</ele>
        <time>2023-10-09T13:07:37Z</time>
      </trkpt>
      <trkpt lat="43.67259" lon="6.18575">
        <ele>707.5</ele>
        <time>2023-10-09T13:07:38Z</time>
      </trkpt>
      <trkpt lat="43.67258" lon="6.18576">
        <ele>707.8</ele>
        <time>2023-10-09T13:07:39Z</time>
      </trkpt>
      <trkpt lat="43.67258" lon="6.18576">
        <ele>707.8</ele>
        <time>2023-10-09T13:07:40Z</time>
      </trkpt>
      <trkpt lat="43.67258" lon="6.18577">
        <ele>707.7</ele>
        <time>2023-10-09T13:07:41Z</time>
      </trkpt>
      <trkpt lat="43.67257" lon="6.18578">
        <ele>708.1</ele>
        <time>2023-10-09T13:07:42Z</time>
      </trkpt>
      <trkpt lat="43.67257" lon="6.18579">
        <ele>708</ele>
        <time>2023-10-09T13:07:43Z</time>
      </trkpt>
      <trkpt lat="43.67257" lon="6.18581">
        <ele>707.7</ele>
        <time>2023-10-09T13:07:44Z</time>
      </trkpt>
      <trkpt lat="43.67257" lon="6.18582">
        <ele>707.6</ele>
        <time>2023-10-09T13:07:45Z</time>
      </trkpt>
      <trkpt lat="43.67257" lon="6.18583">
        <ele>707.5</ele>
        <time>2023-10-09T13:07:46Z</time>
      </trkpt>
      <trkpt lat="43.67258" lon="6.18584">
        <ele>706.9</ele>
        <time>2023-10-09T13:07:47Z</time>
      </trkpt>
      <trkpt lat="43.67258" lon="6.18585">
        <ele>706.9</ele>
        <time>2023-10-09T13:07:48Z</time>
      </trkpt>
      <trkpt lat="43.67257" lon="6.18586">
        <ele>707.4</ele>
        <time>2023-10-09T13:07:49Z</time>
      </trkpt>
      <trkpt lat="43.67257" lon="6.18587">
        <ele>707.3</ele>
        <time>2023-10-09T13:07:50Z</time>
      </trkpt>
      <trkpt lat="43.67256" lon="6.18588">
        <ele>707.8</ele>
        <time>2023-10-09T13:07:51Z</time>
      </trkpt>
      <trkpt lat="43.67256" lon="6.1859">
        <ele>707.7</ele>
        <time>2023-10-09T13:07:52Z</time>
      </trkpt>
      <trkpt lat="43.67255" lon="6.1859">
        <ele>708.2</ele>
        <time>2023-10-09T13:07:53Z</time>
      </trkpt>
      <trkpt lat="43.67255" lon="6.18591">
        <ele>708.2</ele>
        <time>2023-10-09T13:07:54Z</time>
      </trkpt>
      <trkpt lat="43.67255" lon="6.18593">
        <ele>708.1</ele>
        <time>2023-10-09T13:07:55Z</time>
      </trkpt>
      <trkpt lat="43.67255" lon="6.18594">
        <ele>708</ele>
        <time>2023-10-09T13:07:56Z</time>
      </trkpt>
      <trkpt lat="43.67255" lon="6.18595">
        <ele>708</ele>
        <time>2023-10-09T13:07:57Z</time>
      </trkpt>
      <trkpt lat="43.67255" lon="6.18596">
        <ele>707.9</ele>
        <time>2023-10-09T13:07:58Z</time>
      </trkpt>
      <trkpt lat="43.67255" lon="6.18597">
        <ele>707.9</ele>
        <time>2023-10-09T13:07:59Z</time>
      </trkpt>
      <trkpt lat="43.67255" lon="6.18599">
        <ele>707.8</ele>
        <time>2023-10-09T13:08:00Z</time>
      </trkpt>
      <trkpt lat="43.67254" lon="6.186">
        <ele>708.3</ele>
        <time>2023-10-09T13:08:01Z</time>
      </trkpt>
      <trkpt lat="43.67254" lon="6.18601">
        <ele>708.3</ele>
        <time>2023-10-09T13:08:02Z</time>
      </trkpt>
      <trkpt lat="43.67253" lon="6.18602">
        <ele>708.7</ele>
        <time>2023-10-09T13:08:03Z</time>
      </trkpt>
      <trkpt lat="43.67253" lon="6.18603">
        <ele>708.7</ele>
        <time>2023-10-09T13:08:04Z</time>
      </trkpt>
      <trkpt lat="43.67253" lon="6.18604">
        <ele>708.7</ele>
        <time>2023-10-09T13:08:05Z</time>
      </trkpt>
      <trkpt lat="43.67252" lon="6.18605">
        <ele>709.2</ele>
        <time>2023-10-09T13:08:06Z</time>
      </trkpt>
      <trkpt lat="43.67252" lon="6.18607">
        <ele>709.1</ele>
        <time>2023-10-09T13:08:07Z</time>
      </trkpt>
      <trkpt lat="43.67252" lon="6.18608">
        <ele>709</ele>
        <time>2023-10-09T13:08:08Z</time>
      </trkpt>
      <trkpt lat="43.67252" lon="6.1861">
        <ele>709</ele>
        <time>2023-10-09T13:08:09Z</time>
      </trkpt>
      <trkpt lat="43.67252" lon="6.18611">
        <ele>708.9</ele>
        <time>2023-10-09T13:08:10Z</time>
      </trkpt>
      <trkpt lat="43.67253" lon="6.18613">
        <ele>708.5</ele>
        <time>2023-10-09T13:08:11Z</time>
      </trkpt>
      <trkpt lat="43.67252" lon="6.18614">
        <ele>709</ele>
        <time>2023-10-09T13:08:12Z</time>
      </trkpt>
      <trkpt lat="43.67252" lon="6.18615">
        <ele>709.1</ele>
        <time>2023-10-09T13:08:13Z</time>
      </trkpt>
      <trkpt lat="43.67252" lon="6.18617">
        <ele>709.2</ele>
        <time>2023-10-09T13:08:14Z</time>
      </trkpt>
      <trkpt lat="43.67252" lon="6.18618">
        <ele>709.2</ele>
        <time>2023-10-09T13:08:15Z</time>
      </trkpt>
      <trkpt lat="43.67251" lon="6.18619">
        <ele>709.8</ele>
        <time>2023-10-09T13:08:16Z</time>
      </trkpt>
      <trkpt lat="43.67251" lon="6.1862">
        <ele>709.8</ele>
        <time>2023-10-09T13:08:17Z</time>
      </trkpt>
      <trkpt lat="43.67251" lon="6.18621">
        <ele>709.8</ele>
        <time>2023-10-09T13:08:18Z</time>
      </trkpt>
      <trkpt lat="43.67251" lon="6.18623">
        <ele>709.9</ele>
        <time>2023-10-09T13:08:19Z</time>
      </trkpt>
      <trkpt lat="43.67251" lon="6.18624">
        <ele>710</ele>
        <time>2023-10-09T13:08:20Z</time>
      </trkpt>
      <trkpt lat="43.67251" lon="6.18625">
        <ele>710</ele>
        <time>2023-10-09T13:08:21Z</time>
      </trkpt>
      <trkpt lat="43.67251" lon="6.18626">
        <ele>710</ele>
        <time>2023-10-09T13:08:22Z</time>
      </trkpt>
      <trkpt lat="43.6725" lon="6.18627">
        <ele>710.6</ele>
        <time>2023-10-09T13:08:23Z</time>
      </trkpt>
      <trkpt lat="43.6725" lon="6.18628">
        <ele>710.6</ele>
        <time>2023-10-09T13:08:24Z</time>
      </trkpt>
      <trkpt lat="43.67251" lon="6.1863">
        <ele>710.2</ele>
        <time>2023-10-09T13:08:25Z</time>
      </trkpt>
      <trkpt lat="43.67251" lon="6.18631">
        <ele>710.2</ele>
        <time>2023-10-09T13:08:26Z</time>
      </trkpt>
      <trkpt lat="43.6725" lon="6.18632">
        <ele>710.8</ele>
        <time>2023-10-09T13:08:27Z</time>
      </trkpt>
      <trkpt lat="43.6725" lon="6.18634">
        <ele>710.8</ele>
        <time>2023-10-09T13:08:28Z</time>
      </trkpt>
      <trkpt lat="43.6725" lon="6.18635">
        <ele>710.9</ele>
        <time>2023-10-09T13:08:29Z</time>
      </trkpt>
      <trkpt lat="43.6725" lon="6.18636">
        <ele>710.9</ele>
        <time>2023-10-09T13:08:30Z</time>
      </trkpt>
      <trkpt lat="43.6725" lon="6.18637">
        <ele>710.9</ele>
        <time>2023-10-09T13:08:31Z</time>
      </trkpt>
      <trkpt lat="43.67249" lon="6.18638">
        <ele>711.4</ele>
        <time>2023-10-09T13:08:32Z</time>
      </trkpt>
      <trkpt lat="43.67249" lon="6.1864">
        <ele>711.5</ele>
        <time>2023-10-09T13:08:33Z</time>
      </trkpt>
      <trkpt lat="43.67249" lon="6.18641">
        <ele>711.5</ele>
        <time>2023-10-09T13:08:34Z</time>
      </trkpt>
      <trkpt lat="43.67248" lon="6.18642">
        <ele>712</ele>
        <time>2023-10-09T13:08:35Z</time>
      </trkpt>
      <trkpt lat="43.67248" lon="6.18643">
        <ele>712.1</ele>
        <time>2023-10-09T13:08:36Z</time>
      </trkpt>
      <trkpt lat="43.67248" lon="6.18644">
        <ele>712.1</ele>
        <time>2023-10-09T13:08:37Z</time>
      </trkpt>
      <trkpt lat="43.67248" lon="6.18645">
        <ele>712.1</ele>
        <time>2023-10-09T13:08:38Z</time>
      </trkpt>
      <trkpt lat="43.67248" lon="6.18646">
        <ele>712.1</ele>
        <time>2023-10-09T13:08:39Z</time>
      </trkpt>
      <trkpt lat="43.67248" lon="6.18647">
        <ele>712.2</ele>
        <time>2023-10-09T13:08:40Z</time>
      </trkpt>
      <trkpt lat="43.67248" lon="6.18648">
        <ele>712.2</ele>
        <time>2023-10-09T13:08:41Z</time>
      </trkpt>
      <trkpt lat="43.67247" lon="6.18649">
        <ele>712.7</ele>
        <time>2023-10-09T13:08:42Z</time>
      </trkpt>
      <trkpt lat="43.67247" lon="6.18651">
        <ele>712.7</ele>
        <time>2023-10-09T13:08:43Z</time>
      </trkpt>
      <trkpt lat="43.67247" lon="6.18652">
        <ele>712.7</ele>
        <time>2023-10-09T13:08:44Z</time>
      </trkpt>
      <trkpt lat="43.67247" lon="6.18653">
        <ele>712.7</ele>
        <time>2023-10-09T13:08:45Z</time>
      </trkpt>
      <trkpt lat="43.67247" lon="6.18654">
        <ele>712.8</ele>
        <time>2023-10-09T13:08:46Z</time>
      </trkpt>
      <trkpt lat="43.67247" lon="6.18656">
        <ele>712.8</ele>
        <time>2023-10-09T13:08:47Z</time>
      </trkpt>
      <trkpt lat="43.67247" lon="6.18657">
        <ele>712.8</ele>
        <time>2023-10-09T13:08:48Z</time>
      </trkpt>
      <trkpt lat="43.67247" lon="6.18659">
        <ele>712.9</ele>
        <time>2023-10-09T13:08:49Z</time>
      </trkpt>
      <trkpt lat="43.67247" lon="6.1866">
        <ele>712.9</ele>
        <time>2023-10-09T13:08:50Z</time>
      </trkpt>
      <trkpt lat="43.67247" lon="6.18662">
        <ele>713</ele>
        <time>2023-10-09T13:08:51Z</time>
      </trkpt>
      <trkpt lat="43.67247" lon="6.18663">
        <ele>713</ele>
        <time>2023-10-09T13:08:52Z</time>
      </trkpt>
      <trkpt lat="43.67247" lon="6.18664">
        <ele>713</ele>
        <time>2023-10-09T13:08:53Z</time>
      </trkpt>
      <trkpt lat="43.67247" lon="6.18665">
        <ele>713</ele>
        <time>2023-10-09T13:08:54Z</time>
      </trkpt>
      <trkpt lat="43.67247" lon="6.18666">
        <ele>713.1</ele>
        <time>2023-10-09T13:08:55Z</time>
      </trkpt>
      <trkpt lat="43.67247" lon="6.18667">
        <ele>713</ele>
        <time>2023-10-09T13:08:56Z</time>
      </trkpt>
      <trkpt lat="43.67247" lon="6.18668">
        <ele>712.9</ele>
        <time>2023-10-09T13:08:57Z</time>
      </trkpt>
      <trkpt lat="43.67247" lon="6.1867">
        <ele>712.7</ele>
        <time>2023-10-09T13:08:58Z</time>
      </trkpt>
      <trkpt lat="43.67247" lon="6.18671">
        <ele>712.6</ele>
        <time>2023-10-09T13:08:59Z</time>
      </trkpt>
      <trkpt lat="43.67247" lon="6.18673">
        <ele>712.4</ele>
        <time>2023-10-09T13:09:00Z</time>
      </trkpt>
      <trkpt lat="43.67247" lon="6.18674">
        <ele>712.3</ele>
        <time>2023-10-09T13:09:01Z</time>
      </trkpt>
      <trkpt lat="43.67247" lon="6.18675">
        <ele>712.1</ele>
        <time>2023-10-09T13:09:02Z</time>
      </trkpt>
      <trkpt lat="43.67246" lon="6.18676">
        <ele>712.4</ele>
        <time>2023-10-09T13:09:03Z</time>
      </trkpt>
      <trkpt lat="43.67246" lon="6.18677">
        <ele>712.3</ele>
        <time>2023-10-09T13:09:04Z</time>
      </trkpt>
      <trkpt lat="43.67246" lon="6.18679">
        <ele>712</ele>
        <time>2023-10-09T13:09:05Z</time>
      </trkpt>
      <trkpt lat="43.67245" lon="6.1868">
        <ele>712.3</ele>
        <time>2023-10-09T13:09:06Z</time>
      </trkpt>
      <trkpt lat="43.67245" lon="6.18681">
        <ele>712.2</ele>
        <time>2023-10-09T13:09:07Z</time>
      </trkpt>
      <trkpt lat="43.67244" lon="6.18682">
        <ele>712.4</ele>
        <time>2023-10-09T13:09:08Z</time>
      </trkpt>
      <trkpt lat="43.67244" lon="6.18683">
        <ele>712.3</ele>
        <time>2023-10-09T13:09:09Z</time>
      </trkpt>
      <trkpt lat="43.67244" lon="6.18684">
        <ele>712.2</ele>
        <time>2023-10-09T13:09:10Z</time>
      </trkpt>
      <trkpt lat="43.67243" lon="6.18685">
        <ele>712.4</ele>
        <time>2023-10-09T13:09:11Z</time>
      </trkpt>
      <trkpt lat="43.67243" lon="6.18686">
        <ele>712.3</ele>
        <time>2023-10-09T13:09:12Z</time>
      </trkpt>
      <trkpt lat="43.67242" lon="6.18687">
        <ele>712.5</ele>
        <time>2023-10-09T13:09:13Z</time>
      </trkpt>
      <trkpt lat="43.67241" lon="6.18688">
        <ele>712.7</ele>
        <time>2023-10-09T13:09:14Z</time>
      </trkpt>
      <trkpt lat="43.67241" lon="6.18689">
        <ele>712.6</ele>
        <time>2023-10-09T13:09:15Z</time>
      </trkpt>
      <trkpt lat="43.6724" lon="6.1869">
        <ele>712.8</ele>
        <time>2023-10-09T13:09:16Z</time>
      </trkpt>
      <trkpt lat="43.67239" lon="6.1869">
        <ele>713.1</ele>
        <time>2023-10-09T13:09:17Z</time>
      </trkpt>
      <trkpt lat="43.67238" lon="6.18691">
        <ele>713.3</ele>
        <time>2023-10-09T13:09:18Z</time>
      </trkpt>
      <trkpt lat="43.67238" lon="6.18692">
        <ele>713.2</ele>
        <time>2023-10-09T13:09:19Z</time>
      </trkpt>
      <trkpt lat="43.67237" lon="6.18692">
        <ele>713.5</ele>
        <time>2023-10-09T13:09:20Z</time>
      </trkpt>
      <trkpt lat="43.67236" lon="6.18693">
        <ele>713.7</ele>
        <time>2023-10-09T13:09:21Z</time>
      </trkpt>
      <trkpt lat="43.67236" lon="6.18694">
        <ele>713.6</ele>
        <time>2023-10-09T13:09:22Z</time>
      </trkpt>
      <trkpt lat="43.67235" lon="6.18694">
        <ele>713.9</ele>
        <time>2023-10-09T13:09:23Z</time>
      </trkpt>
      <trkpt lat="43.67235" lon="6.18695">
        <ele>713.8</ele>
        <time>2023-10-09T13:09:24Z</time>
      </trkpt>
      <trkpt lat="43.67234" lon="6.18696">
        <ele>713.9</ele>
        <time>2023-10-09T13:09:25Z</time>
      </trkpt>
      <trkpt lat="43.67233" lon="6.18696">
        <ele>714.2</ele>
        <time>2023-10-09T13:09:26Z</time>
      </trkpt>
      <trkpt lat="43.67232" lon="6.18697">
        <ele>714.4</ele>
        <time>2023-10-09T13:09:27Z</time>
      </trkpt>
      <trkpt lat="43.67232" lon="6.18697">
        <ele>714.4</ele>
        <time>2023-10-09T13:09:28Z</time>
      </trkpt>
      <trkpt lat="43.67231" lon="6.18698">
        <ele>714.5</ele>
        <time>2023-10-09T13:09:29Z</time>
      </trkpt>
      <trkpt lat="43.6723" lon="6.18698">
        <ele>714.8</ele>
        <time>2023-10-09T13:09:30Z</time>
      </trkpt>
      <trkpt lat="43.67229" lon="6.18699">
        <ele>715</ele>
        <time>2023-10-09T13:09:31Z</time>
      </trkpt>
      <trkpt lat="43.67229" lon="6.18699">
        <ele>715</ele>
        <time>2023-10-09T13:09:32Z</time>
      </trkpt>
      <trkpt lat="43.67228" lon="6.187">
        <ele>715.1</ele>
        <time>2023-10-09T13:09:33Z</time>
      </trkpt>
      <trkpt lat="43.67227" lon="6.18701">
        <ele>715.3</ele>
        <time>2023-10-09T13:09:34Z</time>
      </trkpt>
      <trkpt lat="43.67226" lon="6.18701">
        <ele>715.6</ele>
        <time>2023-10-09T13:09:35Z</time>
      </trkpt>
      <trkpt lat="43.67225" lon="6.18702">
        <ele>715.7</ele>
        <time>2023-10-09T13:09:36Z</time>
      </trkpt>
      <trkpt lat="43.67225" lon="6.18702">
        <ele>715.7</ele>
        <time>2023-10-09T13:09:37Z</time>
      </trkpt>
      <trkpt lat="43.67224" lon="6.18703">
        <ele>715.9</ele>
        <time>2023-10-09T13:09:38Z</time>
      </trkpt>
      <trkpt lat="43.67224" lon="6.18704">
        <ele>715.7</ele>
        <time>2023-10-09T13:09:39Z</time>
      </trkpt>
      <trkpt lat="43.67223" lon="6.18704">
        <ele>716</ele>
        <time>2023-10-09T13:09:40Z</time>
      </trkpt>
      <trkpt lat="43.67222" lon="6.18705">
        <ele>716.2</ele>
        <time>2023-10-09T13:09:41Z</time>
      </trkpt>
      <trkpt lat="43.67222" lon="6.18706">
        <ele>716</ele>
        <time>2023-10-09T13:09:42Z</time>
      </trkpt>
      <trkpt lat="43.67221" lon="6.18707">
        <ele>716.2</ele>
        <time>2023-10-09T13:09:43Z</time>
      </trkpt>
      <trkpt lat="43.6722" lon="6.18707">
        <ele>716.5</ele>
        <time>2023-10-09T13:09:44Z</time>
      </trkpt>
      <trkpt lat="43.67219" lon="6.18707">
        <ele>716.8</ele>
        <time>2023-10-09T13:09:45Z</time>
      </trkpt>
      <trkpt lat="43.67219" lon="6.18708">
        <ele>716.7</ele>
        <time>2023-10-09T13:09:46Z</time>
      </trkpt>
      <trkpt lat="43.67218" lon="6.18709">
        <ele>716.8</ele>
        <time>2023-10-09T13:09:47Z</time>
      </trkpt>
      <trkpt lat="43.67217" lon="6.18709">
        <ele>717.2</ele>
        <time>2023-10-09T13:09:48Z</time>
      </trkpt>
      <trkpt lat="43.67217" lon="6.1871">
        <ele>717</ele>
        <time>2023-10-09T13:09:49Z</time>
      </trkpt>
      <trkpt lat="43.67216" lon="6.18711">
        <ele>717.1</ele>
        <time>2023-10-09T13:09:50Z</time>
      </trkpt>
      <trkpt lat="43.67215" lon="6.18712">
        <ele>717.3</ele>
        <time>2023-10-09T13:09:51Z</time>
      </trkpt>
      <trkpt lat="43.67214" lon="6.18713">
        <ele>717.4</ele>
        <time>2023-10-09T13:09:52Z</time>
      </trkpt>
      <trkpt lat="43.67214" lon="6.18713">
        <ele>717.4</ele>
        <time>2023-10-09T13:09:53Z</time>
      </trkpt>
      <trkpt lat="43.67213" lon="6.18714">
        <ele>717.6</ele>
        <time>2023-10-09T13:09:54Z</time>
      </trkpt>
      <trkpt lat="43.67212" lon="6.18714">
        <ele>717.9</ele>
        <time>2023-10-09T13:09:55Z</time>
      </trkpt>
      <trkpt lat="43.67212" lon="6.18714">
        <ele>717.9</ele>
        <time>2023-10-09T13:09:56Z</time>
      </trkpt>
      <trkpt lat="43.67211" lon="6.18715">
        <ele>718</ele>
        <time>2023-10-09T13:09:57Z</time>
      </trkpt>
      <trkpt lat="43.67211" lon="6.18716">
        <ele>717.8</ele>
        <time>2023-10-09T13:09:58Z</time>
      </trkpt>
      <trkpt lat="43.6721" lon="6.18717">
        <ele>718</ele>
        <time>2023-10-09T13:09:59Z</time>
      </trkpt>
      <trkpt lat="43.6721" lon="6.18717">
        <ele>718</ele>
        <time>2023-10-09T13:10:00Z</time>
      </trkpt>
      <trkpt lat="43.67209" lon="6.18718">
        <ele>718.1</ele>
        <time>2023-10-09T13:10:01Z</time>
      </trkpt>
      <trkpt lat="43.67208" lon="6.18719">
        <ele>718.2</ele>
        <time>2023-10-09T13:10:02Z</time>
      </trkpt>
      <trkpt lat="43.67208" lon="6.18719">
        <ele>718.2</ele>
        <time>2023-10-09T13:10:03Z</time>
      </trkpt>
      <trkpt lat="43.67207" lon="6.1872">
        <ele>718.4</ele>
        <time>2023-10-09T13:10:04Z</time>
      </trkpt>
      <trkpt lat="43.67206" lon="6.18721">
        <ele>718.5</ele>
        <time>2023-10-09T13:10:05Z</time>
      </trkpt>
      <trkpt lat="43.67205" lon="6.18721">
        <ele>718.8</ele>
        <time>2023-10-09T13:10:06Z</time>
      </trkpt>
      <trkpt lat="43.67205" lon="6.18722">
        <ele>718.6</ele>
        <time>2023-10-09T13:10:07Z</time>
      </trkpt>
      <trkpt lat="43.67204" lon="6.18723">
        <ele>718.8</ele>
        <time>2023-10-09T13:10:08Z</time>
      </trkpt>
      <trkpt lat="43.67203" lon="6.18724">
        <ele>719</ele>
        <time>2023-10-09T13:10:09Z</time>
      </trkpt>
      <trkpt lat="43.67202" lon="6.18724">
        <ele>719.3</ele>
        <time>2023-10-09T13:10:10Z</time>
      </trkpt>
      <trkpt lat="43.67202" lon="6.18725">
        <ele>719.1</ele>
        <time>2023-10-09T13:10:11Z</time>
      </trkpt>
      <trkpt lat="43.67201" lon="6.18725">
        <ele>719.5</ele>
        <time>2023-10-09T13:10:12Z</time>
      </trkpt>
      <trkpt lat="43.672" lon="6.18726">
        <ele>719.6</ele>
        <time>2023-10-09T13:10:13Z</time>
      </trkpt>
      <trkpt lat="43.672" lon="6.18727">
        <ele>719.5</ele>
        <time>2023-10-09T13:10:14Z</time>
      </trkpt>
      <trkpt lat="43.67199" lon="6.18728">
        <ele>719.7</ele>
        <time>2023-10-09T13:10:15Z</time>
      </trkpt>
      <trkpt lat="43.67199" lon="6.18728">
        <ele>719.7</ele>
        <time>2023-10-09T13:10:16Z</time>
      </trkpt>
      <trkpt lat="43.67198" lon="6.18729">
        <ele>719.8</ele>
        <time>2023-10-09T13:10:17Z</time>
      </trkpt>
      <trkpt lat="43.67198" lon="6.1873">
        <ele>719.7</ele>
        <time>2023-10-09T13:10:18Z</time>
      </trkpt>
      <trkpt lat="43.67197" lon="6.18731">
        <ele>719.9</ele>
        <time>2023-10-09T13:10:19Z</time>
      </trkpt>
      <trkpt lat="43.67196" lon="6.18731">
        <ele>720.2</ele>
        <time>2023-10-09T13:10:20Z</time>
      </trkpt>
      <trkpt lat="43.67196" lon="6.18732">
        <ele>720.1</ele>
        <time>2023-10-09T13:10:21Z</time>
      </trkpt>
      <trkpt lat="43.67195" lon="6.18733">
        <ele>720.3</ele>
        <time>2023-10-09T13:10:22Z</time>
      </trkpt>
      <trkpt lat="43.67195" lon="6.18733">
        <ele>720.3</ele>
        <time>2023-10-09T13:10:23Z</time>
      </trkpt>
      <trkpt lat="43.67194" lon="6.18734">
        <ele>720.4</ele>
        <time>2023-10-09T13:10:24Z</time>
      </trkpt>
      <trkpt lat="43.67194" lon="6.18734">
        <ele>720.4</ele>
        <time>2023-10-09T13:10:25Z</time>
      </trkpt>
      <trkpt lat="43.67194" lon="6.18735">
        <ele>720.3</ele>
        <time>2023-10-09T13:10:26Z</time>
      </trkpt>
      <trkpt lat="43.67193" lon="6.18735">
        <ele>720.6</ele>
        <time>2023-10-09T13:10:27Z</time>
      </trkpt>
      <trkpt lat="43.67193" lon="6.18736">
        <ele>720.5</ele>
        <time>2023-10-09T13:10:28Z</time>
      </trkpt>
      <trkpt lat="43.67192" lon="6.18736">
        <ele>720.8</ele>
        <time>2023-10-09T13:10:29Z</time>
      </trkpt>
      <trkpt lat="43.67191" lon="6.18737">
        <ele>720.9</ele>
        <time>2023-10-09T13:10:30Z</time>
      </trkpt>
      <trkpt lat="43.67191" lon="6.18738">
        <ele>720.8</ele>
        <time>2023-10-09T13:10:31Z</time>
      </trkpt>
      <trkpt lat="43.6719" lon="6.18738">
        <ele>721.1</ele>
        <time>2023-10-09T13:10:32Z</time>
      </trkpt>
      <trkpt lat="43.67189" lon="6.18739">
        <ele>721.2</ele>
        <time>2023-10-09T13:10:33Z</time>
      </trkpt>
      <trkpt lat="43.67189" lon="6.1874">
        <ele>721</ele>
        <time>2023-10-09T13:10:34Z</time>
      </trkpt>
      <trkpt lat="43.67188" lon="6.18741">
        <ele>721.1</ele>
        <time>2023-10-09T13:10:35Z</time>
      </trkpt>
      <trkpt lat="43.67187" lon="6.18741">
        <ele>721.4</ele>
        <time>2023-10-09T13:10:36Z</time>
      </trkpt>
      <trkpt lat="43.67186" lon="6.18742">
        <ele>721.5</ele>
        <time>2023-10-09T13:10:37Z</time>
      </trkpt>
      <trkpt lat="43.67186" lon="6.18742">
        <ele>721.5</ele>
        <time>2023-10-09T13:10:38Z</time>
      </trkpt>
      <trkpt lat="43.67185" lon="6.18743">
        <ele>721.6</ele>
        <time>2023-10-09T13:10:39Z</time>
      </trkpt>
      <trkpt lat="43.67184" lon="6.18744">
        <ele>721.7</ele>
        <time>2023-10-09T13:10:40Z</time>
      </trkpt>
      <trkpt lat="43.67183" lon="6.18745">
        <ele>721.8</ele>
        <time>2023-10-09T13:10:41Z</time>
      </trkpt>
      <trkpt lat="43.67182" lon="6.18745">
        <ele>722.1</ele>
        <time>2023-10-09T13:10:42Z</time>
      </trkpt>
      <trkpt lat="43.67181" lon="6.18746">
        <ele>722.2</ele>
        <time>2023-10-09T13:10:43Z</time>
      </trkpt>
      <trkpt lat="43.6718" lon="6.18747">
        <ele>722.2</ele>
        <time>2023-10-09T13:10:44Z</time>
      </trkpt>
      <trkpt lat="43.6718" lon="6.18747">
        <ele>722.2</ele>
        <time>2023-10-09T13:10:45Z</time>
      </trkpt>
      <trkpt lat="43.67179" lon="6.18748">
        <ele>722.3</ele>
        <time>2023-10-09T13:10:46Z</time>
      </trkpt>
      <trkpt lat="43.67179" lon="6.18748">
        <ele>722.3</ele>
        <time>2023-10-09T13:10:47Z</time>
      </trkpt>
      <trkpt lat="43.67178" lon="6.18749">
        <ele>722.4</ele>
        <time>2023-10-09T13:10:48Z</time>
      </trkpt>
      <trkpt lat="43.67177" lon="6.1875">
        <ele>722.4</ele>
        <time>2023-10-09T13:10:49Z</time>
      </trkpt>
      <trkpt lat="43.67176" lon="6.18751">
        <ele>722.5</ele>
        <time>2023-10-09T13:10:50Z</time>
      </trkpt>
      <trkpt lat="43.67176" lon="6.18752">
        <ele>722.4</ele>
        <time>2023-10-09T13:10:51Z</time>
      </trkpt>
      <trkpt lat="43.67175" lon="6.18752">
        <ele>722.7</ele>
        <time>2023-10-09T13:10:52Z</time>
      </trkpt>
      <trkpt lat="43.67174" lon="6.18753">
        <ele>722.9</ele>
        <time>2023-10-09T13:10:53Z</time>
      </trkpt>
      <trkpt lat="43.67173" lon="6.18754">
        <ele>723</ele>
        <time>2023-10-09T13:10:54Z</time>
      </trkpt>
      <trkpt lat="43.67172" lon="6.18755">
        <ele>723.2</ele>
        <time>2023-10-09T13:10:55Z</time>
      </trkpt>
      <trkpt lat="43.67171" lon="6.18755">
        <ele>723.5</ele>
        <time>2023-10-09T13:10:56Z</time>
      </trkpt>
      <trkpt lat="43.67171" lon="6.18756">
        <ele>723.4</ele>
        <time>2023-10-09T13:10:57Z</time>
      </trkpt>
      <trkpt lat="43.6717" lon="6.18757">
        <ele>723.6</ele>
        <time>2023-10-09T13:10:58Z</time>
      </trkpt>
      <trkpt lat="43.67169" lon="6.18757">
        <ele>723.8</ele>
        <time>2023-10-09T13:10:59Z</time>
      </trkpt>
      <trkpt lat="43.67169" lon="6.18758">
        <ele>723.8</ele>
        <time>2023-10-09T13:11:00Z</time>
      </trkpt>
      <trkpt lat="43.67168" lon="6.18758">
        <ele>724</ele>
        <time>2023-10-09T13:11:01Z</time>
      </trkpt>
      <trkpt lat="43.67168" lon="6.18758">
        <ele>724</ele>
        <time>2023-10-09T13:11:02Z</time>
      </trkpt>
      <trkpt lat="43.67167" lon="6.18759">
        <ele>724.3</ele>
        <time>2023-10-09T13:11:03Z</time>
      </trkpt>
      <trkpt lat="43.67166" lon="6.18759">
        <ele>724.6</ele>
        <time>2023-10-09T13:11:04Z</time>
      </trkpt>
      <trkpt lat="43.67166" lon="6.18759">
        <ele>724.6</ele>
        <time>2023-10-09T13:11:05Z</time>
      </trkpt>
      <trkpt lat="43.67165" lon="6.18759">
        <ele>725</ele>
        <time>2023-10-09T13:11:06Z</time>
      </trkpt>
      <trkpt lat="43.67164" lon="6.1876">
        <ele>725.3</ele>
        <time>2023-10-09T13:11:07Z</time>
      </trkpt>
      <trkpt lat="43.67163" lon="6.1876">
        <ele>725.7</ele>
        <time>2023-10-09T13:11:08Z</time>
      </trkpt>
      <trkpt lat="43.67162" lon="6.18761">
        <ele>726.1</ele>
        <time>2023-10-09T13:11:09Z</time>
      </trkpt>
      <trkpt lat="43.67162" lon="6.18761">
        <ele>726.1</ele>
        <time>2023-10-09T13:11:10Z</time>
      </trkpt>
      <trkpt lat="43.67161" lon="6.18762">
        <ele>726.4</ele>
        <time>2023-10-09T13:11:11Z</time>
      </trkpt>
      <trkpt lat="43.67161" lon="6.18763">
        <ele>726.3</ele>
        <time>2023-10-09T13:11:12Z</time>
      </trkpt>
      <trkpt lat="43.67161" lon="6.18763">
        <ele>726.3</ele>
        <time>2023-10-09T13:11:13Z</time>
      </trkpt>
      <trkpt lat="43.6716" lon="6.18765">
        <ele>726.6</ele>
        <time>2023-10-09T13:11:14Z</time>
      </trkpt>
      <trkpt lat="43.6716" lon="6.18766">
        <ele>726.5</ele>
        <time>2023-10-09T13:11:15Z</time>
      </trkpt>
      <trkpt lat="43.67159" lon="6.18767">
        <ele>726.8</ele>
        <time>2023-10-09T13:11:16Z</time>
      </trkpt>
      <trkpt lat="43.67159" lon="6.18768">
        <ele>726.7</ele>
        <time>2023-10-09T13:11:17Z</time>
      </trkpt>
      <trkpt lat="43.67158" lon="6.18768">
        <ele>727.1</ele>
        <time>2023-10-09T13:11:18Z</time>
      </trkpt>
      <trkpt lat="43.67158" lon="6.1877">
        <ele>727</ele>
        <time>2023-10-09T13:11:19Z</time>
      </trkpt>
      <trkpt lat="43.67157" lon="6.18771">
        <ele>727.3</ele>
        <time>2023-10-09T13:11:20Z</time>
      </trkpt>
      <trkpt lat="43.67157" lon="6.18772">
        <ele>727.2</ele>
        <time>2023-10-09T13:11:21Z</time>
      </trkpt>
      <trkpt lat="43.67157" lon="6.18773">
        <ele>727.2</ele>
        <time>2023-10-09T13:11:22Z</time>
      </trkpt>
      <trkpt lat="43.67156" lon="6.18774">
        <ele>727.5</ele>
        <time>2023-10-09T13:11:23Z</time>
      </trkpt>
      <trkpt lat="43.67156" lon="6.18775">
        <ele>727.4</ele>
        <time>2023-10-09T13:11:24Z</time>
      </trkpt>
      <trkpt lat="43.67156" lon="6.18776">
        <ele>727.4</ele>
        <time>2023-10-09T13:11:25Z</time>
      </trkpt>
      <trkpt lat="43.67155" lon="6.18777">
        <ele>727.7</ele>
        <time>2023-10-09T13:11:26Z</time>
      </trkpt>
      <trkpt lat="43.67155" lon="6.18778">
        <ele>727.6</ele>
        <time>2023-10-09T13:11:27Z</time>
      </trkpt>
      <trkpt lat="43.67154" lon="6.1878">
        <ele>727.7</ele>
        <time>2023-10-09T13:11:28Z</time>
      </trkpt>
      <trkpt lat="43.67154" lon="6.18781">
        <ele>727.6</ele>
        <time>2023-10-09T13:11:29Z</time>
      </trkpt>
      <trkpt lat="43.67153" lon="6.18782">
        <ele>727.9</ele>
        <time>2023-10-09T13:11:30Z</time>
      </trkpt>
      <trkpt lat="43.67153" lon="6.18783">
        <ele>727.8</ele>
        <time>2023-10-09T13:11:31Z</time>
      </trkpt>
      <trkpt lat="43.67153" lon="6.18783">
        <ele>727.8</ele>
        <time>2023-10-09T13:11:32Z</time>
      </trkpt>
      <trkpt lat="43.67152" lon="6.18784">
        <ele>728</ele>
        <time>2023-10-09T13:11:33Z</time>
      </trkpt>
      <trkpt lat="43.67152" lon="6.18785">
        <ele>727.9</ele>
        <time>2023-10-09T13:11:34Z</time>
      </trkpt>
      <trkpt lat="43.67151" lon="6.18786">
        <ele>728.1</ele>
        <time>2023-10-09T13:11:35Z</time>
      </trkpt>
      <trkpt lat="43.67151" lon="6.18787">
        <ele>728</ele>
        <time>2023-10-09T13:11:36Z</time>
      </trkpt>
      <trkpt lat="43.6715" lon="6.18789">
        <ele>728.1</ele>
        <time>2023-10-09T13:11:38Z</time>
      </trkpt>
      <trkpt lat="43.67149" lon="6.1879">
        <ele>728.4</ele>
        <time>2023-10-09T13:11:39Z</time>
      </trkpt>
      <trkpt lat="43.67149" lon="6.18791">
        <ele>728.3</ele>
        <time>2023-10-09T13:11:40Z</time>
      </trkpt>
      <trkpt lat="43.67148" lon="6.18792">
        <ele>728.5</ele>
        <time>2023-10-09T13:11:41Z</time>
      </trkpt>
      <trkpt lat="43.67148" lon="6.18793">
        <ele>728.4</ele>
        <time>2023-10-09T13:11:42Z</time>
      </trkpt>
      <trkpt lat="43.67148" lon="6.18794">
        <ele>728.2</ele>
        <time>2023-10-09T13:11:43Z</time>
      </trkpt>
      <trkpt lat="43.67147" lon="6.18795">
        <ele>728.5</ele>
        <time>2023-10-09T13:11:44Z</time>
      </trkpt>
      <trkpt lat="43.67147" lon="6.18796">
        <ele>728.4</ele>
        <time>2023-10-09T13:11:45Z</time>
      </trkpt>
      <trkpt lat="43.67146" lon="6.18798">
        <ele>728.5</ele>
        <time>2023-10-09T13:11:46Z</time>
      </trkpt>
      <trkpt lat="43.67146" lon="6.18799">
        <ele>728.3</ele>
        <time>2023-10-09T13:11:47Z</time>
      </trkpt>
      <trkpt lat="43.67145" lon="6.18799">
        <ele>728.7</ele>
        <time>2023-10-09T13:11:48Z</time>
      </trkpt>
      <trkpt lat="43.67145" lon="6.188">
        <ele>728.6</ele>
        <time>2023-10-09T13:11:49Z</time>
      </trkpt>
      <trkpt lat="43.67144" lon="6.18801">
        <ele>728.8</ele>
        <time>2023-10-09T13:11:50Z</time>
      </trkpt>
      <trkpt lat="43.67144" lon="6.18802">
        <ele>728.6</ele>
        <time>2023-10-09T13:11:51Z</time>
      </trkpt>
      <trkpt lat="43.67143" lon="6.18803">
        <ele>728.9</ele>
        <time>2023-10-09T13:11:52Z</time>
      </trkpt>
      <trkpt lat="43.67143" lon="6.18804">
        <ele>728.7</ele>
        <time>2023-10-09T13:11:53Z</time>
      </trkpt>
      <trkpt lat="43.67142" lon="6.18805">
        <ele>729</ele>
        <time>2023-10-09T13:11:54Z</time>
      </trkpt>
      <trkpt lat="43.67142" lon="6.18807">
        <ele>728.7</ele>
        <time>2023-10-09T13:11:55Z</time>
      </trkpt>
      <trkpt lat="43.67141" lon="6.18808">
        <ele>728.9</ele>
        <time>2023-10-09T13:11:56Z</time>
      </trkpt>
      <trkpt lat="43.6714" lon="6.18809">
        <ele>729.1</ele>
        <time>2023-10-09T13:11:57Z</time>
      </trkpt>
      <trkpt lat="43.6714" lon="6.1881">
        <ele>729</ele>
        <time>2023-10-09T13:11:58Z</time>
      </trkpt>
      <trkpt lat="43.67139" lon="6.18811">
        <ele>729.2</ele>
        <time>2023-10-09T13:11:59Z</time>
      </trkpt>
      <trkpt lat="43.67139" lon="6.18811">
        <ele>729.2</ele>
        <time>2023-10-09T13:12:00Z</time>
      </trkpt>
      <trkpt lat="43.67138" lon="6.18812">
        <ele>729.4</ele>
        <time>2023-10-09T13:12:01Z</time>
      </trkpt>
      <trkpt lat="43.67137" lon="6.18813">
        <ele>729.6</ele>
        <time>2023-10-09T13:12:02Z</time>
      </trkpt>
      <trkpt lat="43.67137" lon="6.18814">
        <ele>729.5</ele>
        <time>2023-10-09T13:12:03Z</time>
      </trkpt>
      <trkpt lat="43.67137" lon="6.18814">
        <ele>729.5</ele>
        <time>2023-10-09T13:12:04Z</time>
      </trkpt>
      <trkpt lat="43.67136" lon="6.18815">
        <ele>729.7</ele>
        <time>2023-10-09T13:12:05Z</time>
      </trkpt>
      <trkpt lat="43.67136" lon="6.18816">
        <ele>729.6</ele>
        <time>2023-10-09T13:12:06Z</time>
      </trkpt>
      <trkpt lat="43.67136" lon="6.18817">
        <ele>729.4</ele>
        <time>2023-10-09T13:12:07Z</time>
      </trkpt>
      <trkpt lat="43.67135" lon="6.18818">
        <ele>729.6</ele>
        <time>2023-10-09T13:12:08Z</time>
      </trkpt>
      <trkpt lat="43.67135" lon="6.18819">
        <ele>729.5</ele>
        <time>2023-10-09T13:12:09Z</time>
      </trkpt>
      <trkpt lat="43.67134" lon="6.18819">
        <ele>729.8</ele>
        <time>2023-10-09T13:12:10Z</time>
      </trkpt>
      <trkpt lat="43.67134" lon="6.1882">
        <ele>729.7</ele>
        <time>2023-10-09T13:12:11Z</time>
      </trkpt>
      <trkpt lat="43.67133" lon="6.18821">
        <ele>729.9</ele>
        <time>2023-10-09T13:12:12Z</time>
      </trkpt>
      <trkpt lat="43.67133" lon="6.18822">
        <ele>729.7</ele>
        <time>2023-10-09T13:12:13Z</time>
      </trkpt>
      <trkpt lat="43.67132" lon="6.18822">
        <ele>730.1</ele>
        <time>2023-10-09T13:12:14Z</time>
      </trkpt>
      <trkpt lat="43.67131" lon="6.18823">
        <ele>730.3</ele>
        <time>2023-10-09T13:12:15Z</time>
      </trkpt>
      <trkpt lat="43.6713" lon="6.18824">
        <ele>730.4</ele>
        <time>2023-10-09T13:12:16Z</time>
      </trkpt>
      <trkpt lat="43.67129" lon="6.18824">
        <ele>730.8</ele>
        <time>2023-10-09T13:12:17Z</time>
      </trkpt>
      <trkpt lat="43.67129" lon="6.18824">
        <ele>730.8</ele>
        <time>2023-10-09T13:12:18Z</time>
      </trkpt>
      <trkpt lat="43.67128" lon="6.18825">
        <ele>731</ele>
        <time>2023-10-09T13:12:19Z</time>
      </trkpt>
      <trkpt lat="43.67127" lon="6.18825">
        <ele>731.3</ele>
        <time>2023-10-09T13:12:20Z</time>
      </trkpt>
      <trkpt lat="43.67127" lon="6.18826">
        <ele>731.1</ele>
        <time>2023-10-09T13:12:21Z</time>
      </trkpt>
      <trkpt lat="43.67126" lon="6.18826">
        <ele>731.5</ele>
        <time>2023-10-09T13:12:22Z</time>
      </trkpt>
      <trkpt lat="43.67125" lon="6.18827">
        <ele>731.6</ele>
        <time>2023-10-09T13:12:23Z</time>
      </trkpt>
      <trkpt lat="43.67125" lon="6.18827">
        <ele>731.6</ele>
        <time>2023-10-09T13:12:24Z</time>
      </trkpt>
      <trkpt lat="43.67124" lon="6.18828">
        <ele>731.8</ele>
        <time>2023-10-09T13:12:25Z</time>
      </trkpt>
      <trkpt lat="43.67123" lon="6.18829">
        <ele>732</ele>
        <time>2023-10-09T13:12:26Z</time>
      </trkpt>
      <trkpt lat="43.67123" lon="6.18829">
        <ele>732</ele>
        <time>2023-10-09T13:12:27Z</time>
      </trkpt>
      <trkpt lat="43.67122" lon="6.1883">
        <ele>732.1</ele>
        <time>2023-10-09T13:12:28Z</time>
      </trkpt>
      <trkpt lat="43.67122" lon="6.18831">
        <ele>731.9</ele>
        <time>2023-10-09T13:12:29Z</time>
      </trkpt>
      <trkpt lat="43.67121" lon="6.18831">
        <ele>732.2</ele>
        <time>2023-10-09T13:12:30Z</time>
      </trkpt>
      <trkpt lat="43.67121" lon="6.18832">
        <ele>732</ele>
        <time>2023-10-09T13:12:31Z</time>
      </trkpt>
      <trkpt lat="43.6712" lon="6.18833">
        <ele>732.2</ele>
        <time>2023-10-09T13:12:32Z</time>
      </trkpt>
      <trkpt lat="43.6712" lon="6.18833">
        <ele>732.2</ele>
        <time>2023-10-09T13:12:33Z</time>
      </trkpt>
      <trkpt lat="43.6712" lon="6.18834">
        <ele>732</ele>
        <time>2023-10-09T13:12:34Z</time>
      </trkpt>
      <trkpt lat="43.6712" lon="6.18835">
        <ele>731.7</ele>
        <time>2023-10-09T13:12:35Z</time>
      </trkpt>
      <trkpt lat="43.67119" lon="6.18836">
        <ele>731.8</ele>
        <time>2023-10-09T13:12:36Z</time>
      </trkpt>
      <trkpt lat="43.67119" lon="6.18837">
        <ele>731.6</ele>
        <time>2023-10-09T13:12:37Z</time>
      </trkpt>
      <trkpt lat="43.67119" lon="6.18838">
        <ele>731.4</ele>
        <time>2023-10-09T13:12:38Z</time>
      </trkpt>
      <trkpt lat="43.67118" lon="6.18839">
        <ele>731.5</ele>
        <time>2023-10-09T13:12:39Z</time>
      </trkpt>
      <trkpt lat="43.67118" lon="6.18839">
        <ele>731.5</ele>
        <time>2023-10-09T13:12:40Z</time>
      </trkpt>
      <trkpt lat="43.67117" lon="6.1884">
        <ele>731.6</ele>
        <time>2023-10-09T13:12:41Z</time>
      </trkpt>
      <trkpt lat="43.67116" lon="6.1884">
        <ele>731.9</ele>
        <time>2023-10-09T13:12:42Z</time>
      </trkpt>
      <trkpt lat="43.67115" lon="6.1884">
        <ele>732.3</ele>
        <time>2023-10-09T13:12:43Z</time>
      </trkpt>
      <trkpt lat="43.67114" lon="6.1884">
        <ele>732.6</ele>
        <time>2023-10-09T13:12:44Z</time>
      </trkpt>
      <trkpt lat="43.67114" lon="6.1884">
        <ele>732.6</ele>
        <time>2023-10-09T13:12:45Z</time>
      </trkpt>
      <trkpt lat="43.67113" lon="6.1884">
        <ele>732.9</ele>
        <time>2023-10-09T13:12:46Z</time>
      </trkpt>
      <trkpt lat="43.67113" lon="6.1884">
        <ele>732.9</ele>
        <time>2023-10-09T13:12:47Z</time>
      </trkpt>
      <trkpt lat="43.67112" lon="6.18841">
        <ele>733</ele>
        <time>2023-10-09T13:12:48Z</time>
      </trkpt>
      <trkpt lat="43.67112" lon="6.18841">
        <ele>733</ele>
        <time>2023-10-09T13:12:49Z</time>
      </trkpt>
      <trkpt lat="43.67111" lon="6.18841">
        <ele>733.4</ele>
        <time>2023-10-09T13:12:50Z</time>
      </trkpt>
      <trkpt lat="43.67111" lon="6.18841">
        <ele>733.4</ele>
        <time>2023-10-09T13:12:51Z</time>
      </trkpt>
      <trkpt lat="43.67111" lon="6.18841">
        <ele>733.4</ele>
        <time>2023-10-09T13:12:52Z</time>
      </trkpt>
      <trkpt lat="43.67111" lon="6.18841">
        <ele>733.4</ele>
        <time>2023-10-09T13:12:53Z</time>
      </trkpt>
      <trkpt lat="43.67111" lon="6.18841">
        <ele>733.4</ele>
        <time>2023-10-09T13:12:54Z</time>
      </trkpt>
      <trkpt lat="43.67111" lon="6.18841">
        <ele>733.4</ele>
        <time>2023-10-09T13:12:55Z</time>
      </trkpt>
      <trkpt lat="43.67111" lon="6.18841">
        <ele>733.4</ele>
        <time>2023-10-09T13:12:56Z</time>
      </trkpt>
      <trkpt lat="43.67111" lon="6.18841">
        <ele>733.4</ele>
        <time>2023-10-09T13:12:57Z</time>
      </trkpt>
      <trkpt lat="43.67111" lon="6.18842">
        <ele>733.2</ele>
        <time>2023-10-09T13:12:58Z</time>
      </trkpt>
      <trkpt lat="43.6711" lon="6.18842">
        <ele>733.5</ele>
        <time>2023-10-09T13:12:59Z</time>
      </trkpt>
      <trkpt lat="43.6711" lon="6.18843">
        <ele>733.2</ele>
        <time>2023-10-09T13:13:00Z</time>
      </trkpt>
      <trkpt lat="43.67109" lon="6.18843">
        <ele>733.5</ele>
        <time>2023-10-09T13:13:01Z</time>
      </trkpt>
      <trkpt lat="43.67108" lon="6.18844">
        <ele>733.6</ele>
        <time>2023-10-09T13:13:02Z</time>
      </trkpt>
      <trkpt lat="43.67107" lon="6.18845">
        <ele>733.7</ele>
        <time>2023-10-09T13:13:03Z</time>
      </trkpt>
      <trkpt lat="43.67107" lon="6.18846">
        <ele>733.5</ele>
        <time>2023-10-09T13:13:04Z</time>
      </trkpt>
      <trkpt lat="43.67106" lon="6.18846">
        <ele>733.8</ele>
        <time>2023-10-09T13:13:05Z</time>
      </trkpt>
      <trkpt lat="43.67105" lon="6.18847">
        <ele>733.8</ele>
        <time>2023-10-09T13:13:06Z</time>
      </trkpt>
      <trkpt lat="43.67104" lon="6.18847">
        <ele>734.1</ele>
        <time>2023-10-09T13:13:07Z</time>
      </trkpt>
      <trkpt lat="43.67104" lon="6.18847">
        <ele>734.1</ele>
        <time>2023-10-09T13:13:08Z</time>
      </trkpt>
      <trkpt lat="43.67103" lon="6.18847">
        <ele>734.4</ele>
        <time>2023-10-09T13:13:09Z</time>
      </trkpt>
      <trkpt lat="43.67102" lon="6.18847">
        <ele>734.7</ele>
        <time>2023-10-09T13:13:10Z</time>
      </trkpt>
      <trkpt lat="43.67101" lon="6.18848">
        <ele>734.7</ele>
        <time>2023-10-09T13:13:11Z</time>
      </trkpt>
      <trkpt lat="43.67101" lon="6.18848">
        <ele>734.7</ele>
        <time>2023-10-09T13:13:12Z</time>
      </trkpt>
      <trkpt lat="43.671" lon="6.18848">
        <ele>735</ele>
        <time>2023-10-09T13:13:13Z</time>
      </trkpt>
      <trkpt lat="43.67099" lon="6.18849">
        <ele>735</ele>
        <time>2023-10-09T13:13:14Z</time>
      </trkpt>
      <trkpt lat="43.67098" lon="6.1885">
        <ele>735.1</ele>
        <time>2023-10-09T13:13:15Z</time>
      </trkpt>
      <trkpt lat="43.67097" lon="6.1885">
        <ele>735.4</ele>
        <time>2023-10-09T13:13:16Z</time>
      </trkpt>
      <trkpt lat="43.67096" lon="6.1885">
        <ele>735.6</ele>
        <time>2023-10-09T13:13:17Z</time>
      </trkpt>
      <trkpt lat="43.67096" lon="6.18851">
        <ele>735.4</ele>
        <time>2023-10-09T13:13:18Z</time>
      </trkpt>
      <trkpt lat="43.67095" lon="6.18851">
        <ele>735.7</ele>
        <time>2023-10-09T13:13:19Z</time>
      </trkpt>
      <trkpt lat="43.67094" lon="6.18852">
        <ele>735.7</ele>
        <time>2023-10-09T13:13:20Z</time>
      </trkpt>
      <trkpt lat="43.67093" lon="6.18852">
        <ele>736</ele>
        <time>2023-10-09T13:13:21Z</time>
      </trkpt>
      <trkpt lat="43.67093" lon="6.18852">
        <ele>736</ele>
        <time>2023-10-09T13:13:22Z</time>
      </trkpt>
      <trkpt lat="43.67092" lon="6.18852">
        <ele>736.2</ele>
        <time>2023-10-09T13:13:23Z</time>
      </trkpt>
      <trkpt lat="43.67091" lon="6.18853">
        <ele>736.2</ele>
        <time>2023-10-09T13:13:24Z</time>
      </trkpt>
      <trkpt lat="43.67091" lon="6.18853">
        <ele>736.2</ele>
        <time>2023-10-09T13:13:25Z</time>
      </trkpt>
      <trkpt lat="43.6709" lon="6.18854">
        <ele>736.2</ele>
        <time>2023-10-09T13:13:26Z</time>
      </trkpt>
      <trkpt lat="43.67089" lon="6.18854">
        <ele>736.5</ele>
        <time>2023-10-09T13:13:27Z</time>
      </trkpt>
      <trkpt lat="43.67088" lon="6.18855">
        <ele>736.5</ele>
        <time>2023-10-09T13:13:28Z</time>
      </trkpt>
      <trkpt lat="43.67087" lon="6.18855">
        <ele>736.8</ele>
        <time>2023-10-09T13:13:29Z</time>
      </trkpt>
      <trkpt lat="43.67086" lon="6.18855">
        <ele>737</ele>
        <time>2023-10-09T13:13:30Z</time>
      </trkpt>
      <trkpt lat="43.67086" lon="6.18856">
        <ele>736.8</ele>
        <time>2023-10-09T13:13:31Z</time>
      </trkpt>
      <trkpt lat="43.67085" lon="6.18856">
        <ele>737</ele>
        <time>2023-10-09T13:13:32Z</time>
      </trkpt>
      <trkpt lat="43.67085" lon="6.18857">
        <ele>736.7</ele>
        <time>2023-10-09T13:13:33Z</time>
      </trkpt>
      <trkpt lat="43.67084" lon="6.18857">
        <ele>737</ele>
        <time>2023-10-09T13:13:34Z</time>
      </trkpt>
      <trkpt lat="43.67083" lon="6.18858">
        <ele>737</ele>
        <time>2023-10-09T13:13:35Z</time>
      </trkpt>
      <trkpt lat="43.67083" lon="6.18858">
        <ele>737</ele>
        <time>2023-10-09T13:13:36Z</time>
      </trkpt>
      <trkpt lat="43.67082" lon="6.18859">
        <ele>737.1</ele>
        <time>2023-10-09T13:13:37Z</time>
      </trkpt>
      <trkpt lat="43.67081" lon="6.18859">
        <ele>737.5</ele>
        <time>2023-10-09T13:13:38Z</time>
      </trkpt>
      <trkpt lat="43.6708" lon="6.1886">
        <ele>737.6</ele>
        <time>2023-10-09T13:13:39Z</time>
      </trkpt>
      <trkpt lat="43.67079" lon="6.1886">
        <ele>738</ele>
        <time>2023-10-09T13:13:40Z</time>
      </trkpt>
      <trkpt lat="43.67078" lon="6.1886">
        <ele>738.4</ele>
        <time>2023-10-09T13:13:41Z</time>
      </trkpt>
      <trkpt lat="43.67077" lon="6.18861">
        <ele>738.5</ele>
        <time>2023-10-09T13:13:42Z</time>
      </trkpt>
      <trkpt lat="43.67076" lon="6.18861">
        <ele>738.9</ele>
        <time>2023-10-09T13:13:43Z</time>
      </trkpt>
      <trkpt lat="43.67075" lon="6.18862">
        <ele>739.1</ele>
        <time>2023-10-09T13:13:44Z</time>
      </trkpt>
      <trkpt lat="43.67075" lon="6.18862">
        <ele>739.1</ele>
        <time>2023-10-09T13:13:45Z</time>
      </trkpt>
      <trkpt lat="43.67074" lon="6.18863">
        <ele>739.2</ele>
        <time>2023-10-09T13:13:46Z</time>
      </trkpt>
      <trkpt lat="43.67074" lon="6.18864">
        <ele>738.9</ele>
        <time>2023-10-09T13:13:47Z</time>
      </trkpt>
      <trkpt lat="43.67073" lon="6.18864">
        <ele>739.3</ele>
        <time>2023-10-09T13:13:48Z</time>
      </trkpt>
      <trkpt lat="43.67072" lon="6.18865">
        <ele>739.4</ele>
        <time>2023-10-09T13:13:49Z</time>
      </trkpt>
      <trkpt lat="43.67072" lon="6.18866">
        <ele>739.2</ele>
        <time>2023-10-09T13:13:50Z</time>
      </trkpt>
      <trkpt lat="43.67072" lon="6.18866">
        <ele>739.2</ele>
        <time>2023-10-09T13:13:51Z</time>
      </trkpt>
      <trkpt lat="43.67071" lon="6.18867">
        <ele>739.3</ele>
        <time>2023-10-09T13:13:52Z</time>
      </trkpt>
      <trkpt lat="43.6707" lon="6.18867">
        <ele>739.7</ele>
        <time>2023-10-09T13:13:53Z</time>
      </trkpt>
      <trkpt lat="43.67069" lon="6.18868">
        <ele>739.8</ele>
        <time>2023-10-09T13:13:54Z</time>
      </trkpt>
      <trkpt lat="43.67068" lon="6.18868">
        <ele>740.2</ele>
        <time>2023-10-09T13:13:55Z</time>
      </trkpt>
      <trkpt lat="43.67067" lon="6.18869">
        <ele>740.4</ele>
        <time>2023-10-09T13:13:56Z</time>
      </trkpt>
      <trkpt lat="43.67066" lon="6.18869">
        <ele>740.8</ele>
        <time>2023-10-09T13:13:57Z</time>
      </trkpt>
      <trkpt lat="43.67065" lon="6.18869">
        <ele>741.2</ele>
        <time>2023-10-09T13:13:58Z</time>
      </trkpt>
      <trkpt lat="43.67065" lon="6.1887">
        <ele>740.9</ele>
        <time>2023-10-09T13:13:59Z</time>
      </trkpt>
      <trkpt lat="43.67064" lon="6.18871">
        <ele>741.1</ele>
        <time>2023-10-09T13:14:00Z</time>
      </trkpt>
      <trkpt lat="43.67063" lon="6.18871">
        <ele>741.5</ele>
        <time>2023-10-09T13:14:01Z</time>
      </trkpt>
      <trkpt lat="43.67063" lon="6.18872">
        <ele>741.2</ele>
        <time>2023-10-09T13:14:02Z</time>
      </trkpt>
      <trkpt lat="43.67062" lon="6.18873">
        <ele>741.4</ele>
        <time>2023-10-09T13:14:03Z</time>
      </trkpt>
      <trkpt lat="43.67061" lon="6.18874">
        <ele>741.5</ele>
        <time>2023-10-09T13:14:04Z</time>
      </trkpt>
      <trkpt lat="43.67061" lon="6.18875">
        <ele>741.2</ele>
        <time>2023-10-09T13:14:05Z</time>
      </trkpt>
      <trkpt lat="43.6706" lon="6.18876">
        <ele>741.4</ele>
        <time>2023-10-09T13:14:06Z</time>
      </trkpt>
      <trkpt lat="43.6706" lon="6.18877">
        <ele>741.1</ele>
        <time>2023-10-09T13:14:07Z</time>
      </trkpt>
      <trkpt lat="43.67059" lon="6.18878">
        <ele>741.3</ele>
        <time>2023-10-09T13:14:08Z</time>
      </trkpt>
      <trkpt lat="43.67058" lon="6.18879">
        <ele>741.5</ele>
        <time>2023-10-09T13:14:09Z</time>
      </trkpt>
      <trkpt lat="43.67058" lon="6.1888">
        <ele>741.2</ele>
        <time>2023-10-09T13:14:10Z</time>
      </trkpt>
      <trkpt lat="43.67057" lon="6.18881">
        <ele>741.4</ele>
        <time>2023-10-09T13:14:11Z</time>
      </trkpt>
      <trkpt lat="43.67056" lon="6.18882">
        <ele>741.5</ele>
        <time>2023-10-09T13:14:12Z</time>
      </trkpt>
      <trkpt lat="43.67056" lon="6.18882">
        <ele>741.5</ele>
        <time>2023-10-09T13:14:13Z</time>
      </trkpt>
      <trkpt lat="43.67055" lon="6.18883">
        <ele>741.7</ele>
        <time>2023-10-09T13:14:14Z</time>
      </trkpt>
      <trkpt lat="43.67054" lon="6.18883">
        <ele>742</ele>
        <time>2023-10-09T13:14:15Z</time>
      </trkpt>
      <trkpt lat="43.67053" lon="6.18884">
        <ele>742.1</ele>
        <time>2023-10-09T13:14:16Z</time>
      </trkpt>
      <trkpt lat="43.67052" lon="6.18885">
        <ele>742.2</ele>
        <time>2023-10-09T13:14:17Z</time>
      </trkpt>
      <trkpt lat="43.67051" lon="6.18886">
        <ele>742.3</ele>
        <time>2023-10-09T13:14:18Z</time>
      </trkpt>
      <trkpt lat="43.6705" lon="6.18887">
        <ele>742.4</ele>
        <time>2023-10-09T13:14:19Z</time>
      </trkpt>
      <trkpt lat="43.67049" lon="6.18888">
        <ele>742.6</ele>
        <time>2023-10-09T13:14:20Z</time>
      </trkpt>
      <trkpt lat="43.67049" lon="6.18889">
        <ele>742.3</ele>
        <time>2023-10-09T13:14:21Z</time>
      </trkpt>
      <trkpt lat="43.67048" lon="6.1889">
        <ele>742.4</ele>
        <time>2023-10-09T13:14:22Z</time>
      </trkpt>
      <trkpt lat="43.67048" lon="6.18891">
        <ele>742.1</ele>
        <time>2023-10-09T13:14:23Z</time>
      </trkpt>
      <trkpt lat="43.67047" lon="6.18892">
        <ele>742.2</ele>
        <time>2023-10-09T13:14:24Z</time>
      </trkpt>
      <trkpt lat="43.67046" lon="6.18892">
        <ele>742.6</ele>
        <time>2023-10-09T13:14:25Z</time>
      </trkpt>
      <trkpt lat="43.67045" lon="6.18893">
        <ele>742.7</ele>
        <time>2023-10-09T13:14:26Z</time>
      </trkpt>
      <trkpt lat="43.67044" lon="6.18894">
        <ele>742.8</ele>
        <time>2023-10-09T13:14:27Z</time>
      </trkpt>
      <trkpt lat="43.67043" lon="6.18895">
        <ele>742.9</ele>
        <time>2023-10-09T13:14:28Z</time>
      </trkpt>
      <trkpt lat="43.67043" lon="6.18896">
        <ele>742.6</ele>
        <time>2023-10-09T13:14:29Z</time>
      </trkpt>
      <trkpt lat="43.67042" lon="6.18897">
        <ele>742.7</ele>
        <time>2023-10-09T13:14:30Z</time>
      </trkpt>
      <trkpt lat="43.67041" lon="6.18898">
        <ele>742.8</ele>
        <time>2023-10-09T13:14:31Z</time>
      </trkpt>
      <trkpt lat="43.67041" lon="6.18899">
        <ele>742.5</ele>
        <time>2023-10-09T13:14:32Z</time>
      </trkpt>
      <trkpt lat="43.6704" lon="6.189">
        <ele>742.6</ele>
        <time>2023-10-09T13:14:33Z</time>
      </trkpt>
      <trkpt lat="43.67039" lon="6.18901">
        <ele>742.7</ele>
        <time>2023-10-09T13:14:34Z</time>
      </trkpt>
      <trkpt lat="43.67038" lon="6.18902">
        <ele>742.8</ele>
        <time>2023-10-09T13:14:35Z</time>
      </trkpt>
      <trkpt lat="43.67038" lon="6.18903">
        <ele>742.6</ele>
        <time>2023-10-09T13:14:36Z</time>
      </trkpt>
      <trkpt lat="43.67037" lon="6.18904">
        <ele>742.7</ele>
        <time>2023-10-09T13:14:37Z</time>
      </trkpt>
      <trkpt lat="43.67036" lon="6.18905">
        <ele>742.8</ele>
        <time>2023-10-09T13:14:38Z</time>
      </trkpt>
      <trkpt lat="43.67036" lon="6.18906">
        <ele>742.5</ele>
        <time>2023-10-09T13:14:39Z</time>
      </trkpt>
      <trkpt lat="43.67035" lon="6.18907">
        <ele>742.7</ele>
        <time>2023-10-09T13:14:40Z</time>
      </trkpt>
      <trkpt lat="43.67034" lon="6.18908">
        <ele>742.8</ele>
        <time>2023-10-09T13:14:41Z</time>
      </trkpt>
      <trkpt lat="43.67033" lon="6.18909">
        <ele>742.9</ele>
        <time>2023-10-09T13:14:42Z</time>
      </trkpt>
      <trkpt lat="43.67032" lon="6.1891">
        <ele>743</ele>
        <time>2023-10-09T13:14:43Z</time>
      </trkpt>
      <trkpt lat="43.67031" lon="6.1891">
        <ele>743.4</ele>
        <time>2023-10-09T13:14:44Z</time>
      </trkpt>
      <trkpt lat="43.6703" lon="6.18911">
        <ele>743.6</ele>
        <time>2023-10-09T13:14:45Z</time>
      </trkpt>
      <trkpt lat="43.67029" lon="6.18911">
        <ele>744</ele>
        <time>2023-10-09T13:14:46Z</time>
      </trkpt>
      <trkpt lat="43.67028" lon="6.18912">
        <ele>744.1</ele>
        <time>2023-10-09T13:14:47Z</time>
      </trkpt>
      <trkpt lat="43.67026" lon="6.18913">
        <ele>744.3</ele>
        <time>2023-10-09T13:14:48Z</time>
      </trkpt>
      <trkpt lat="43.67026" lon="6.18913">
        <ele>744.3</ele>
        <time>2023-10-09T13:14:49Z</time>
      </trkpt>
      <trkpt lat="43.67025" lon="6.18914">
        <ele>744.3</ele>
        <time>2023-10-09T13:14:50Z</time>
      </trkpt>
      <trkpt lat="43.67024" lon="6.18915">
        <ele>744.2</ele>
        <time>2023-10-09T13:14:51Z</time>
      </trkpt>
      <trkpt lat="43.67023" lon="6.18915">
        <ele>744.5</ele>
        <time>2023-10-09T13:14:52Z</time>
      </trkpt>
      <trkpt lat="43.67022" lon="6.18915">
        <ele>744.7</ele>
        <time>2023-10-09T13:14:53Z</time>
      </trkpt>
      <trkpt lat="43.67021" lon="6.18916">
        <ele>744.6</ele>
        <time>2023-10-09T13:14:54Z</time>
      </trkpt>
      <trkpt lat="43.6702" lon="6.18916">
        <ele>744.9</ele>
        <time>2023-10-09T13:14:55Z</time>
      </trkpt>
      <trkpt lat="43.67019" lon="6.18917">
        <ele>744.8</ele>
        <time>2023-10-09T13:14:56Z</time>
      </trkpt>
      <trkpt lat="43.67018" lon="6.18917">
        <ele>745</ele>
        <time>2023-10-09T13:14:57Z</time>
      </trkpt>
      <trkpt lat="43.67017" lon="6.18918">
        <ele>744.9</ele>
        <time>2023-10-09T13:14:58Z</time>
      </trkpt>
      <trkpt lat="43.67017" lon="6.18918">
        <ele>744.9</ele>
        <time>2023-10-09T13:14:59Z</time>
      </trkpt>
      <trkpt lat="43.67016" lon="6.18919">
        <ele>744.8</ele>
        <time>2023-10-09T13:15:00Z</time>
      </trkpt>
      <trkpt lat="43.67015" lon="6.18919">
        <ele>745</ele>
        <time>2023-10-09T13:15:01Z</time>
      </trkpt>
      <trkpt lat="43.67014" lon="6.1892">
        <ele>744.9</ele>
        <time>2023-10-09T13:15:02Z</time>
      </trkpt>
      <trkpt lat="43.67014" lon="6.1892">
        <ele>744.9</ele>
        <time>2023-10-09T13:15:03Z</time>
      </trkpt>
      <trkpt lat="43.67013" lon="6.18921">
        <ele>744.8</ele>
        <time>2023-10-09T13:15:04Z</time>
      </trkpt>
      <trkpt lat="43.67013" lon="6.18921">
        <ele>744.8</ele>
        <time>2023-10-09T13:15:05Z</time>
      </trkpt>
      <trkpt lat="43.67013" lon="6.18921">
        <ele>744.8</ele>
        <time>2023-10-09T13:15:06Z</time>
      </trkpt>
      <trkpt lat="43.67013" lon="6.18921">
        <ele>744.8</ele>
        <time>2023-10-09T13:15:07Z</time>
      </trkpt>
      <trkpt lat="43.67013" lon="6.18921">
        <ele>744.8</ele>
        <time>2023-10-09T13:15:08Z</time>
      </trkpt>
      <trkpt lat="43.67013" lon="6.1892">
        <ele>745.1</ele>
        <time>2023-10-09T13:15:09Z</time>
      </trkpt>
      <trkpt lat="43.67013" lon="6.1892">
        <ele>745.1</ele>
        <time>2023-10-09T13:15:10Z</time>
      </trkpt>
      <trkpt lat="43.67013" lon="6.1892">
        <ele>745.1</ele>
        <time>2023-10-09T13:15:11Z</time>
      </trkpt>
      <trkpt lat="43.67014" lon="6.1892">
        <ele>744.9</ele>
        <time>2023-10-09T13:15:12Z</time>
      </trkpt>
      <trkpt lat="43.67014" lon="6.1892">
        <ele>744.9</ele>
        <time>2023-10-09T13:15:14Z</time>
      </trkpt>
      <trkpt lat="43.67014" lon="6.1892">
        <ele>744.9</ele>
        <time>2023-10-09T13:15:15Z</time>
      </trkpt>
      <trkpt lat="43.67014" lon="6.1892">
        <ele>744.9</ele>
        <time>2023-10-09T13:15:16Z</time>
      </trkpt>
      <trkpt lat="43.67014" lon="6.1892">
        <ele>744.9</ele>
        <time>2023-10-09T13:15:17Z</time>
      </trkpt>
      <trkpt lat="43.67014" lon="6.1892">
        <ele>744.9</ele>
        <time>2023-10-09T13:15:18Z</time>
      </trkpt>
      <trkpt lat="43.67014" lon="6.1892">
        <ele>744.9</ele>
        <time>2023-10-09T13:15:19Z</time>
      </trkpt>
      <trkpt lat="43.67014" lon="6.1892">
        <ele>744.9</ele>
        <time>2023-10-09T13:15:20Z</time>
      </trkpt>
      <trkpt lat="43.67014" lon="6.1892">
        <ele>744.9</ele>
        <time>2023-10-09T13:15:21Z</time>
      </trkpt>
      <trkpt lat="43.67014" lon="6.1892">
        <ele>744.9</ele>
        <time>2023-10-09T13:15:22Z</time>
      </trkpt>
      <trkpt lat="43.67014" lon="6.1892">
        <ele>744.9</ele>
        <time>2023-10-09T13:15:23Z</time>
      </trkpt>
      <trkpt lat="43.67014" lon="6.1892">
        <ele>744.9</ele>
        <time>2023-10-09T13:15:24Z</time>
      </trkpt>
      <trkpt lat="43.67014" lon="6.1892">
        <ele>744.9</ele>
        <time>2023-10-09T13:15:25Z</time>
      </trkpt>
      <trkpt lat="43.67014" lon="6.1892">
        <ele>744.9</ele>
        <time>2023-10-09T13:15:26Z</time>
      </trkpt>
      <trkpt lat="43.67014" lon="6.1892">
        <ele>744.9</ele>
        <time>2023-10-09T13:15:27Z</time>
      </trkpt>
      <trkpt lat="43.67014" lon="6.1892">
        <ele>744.9</ele>
        <time>2023-10-09T13:15:28Z</time>
      </trkpt>
      <trkpt lat="43.67014" lon="6.1892">
        <ele>744.9</ele>
        <time>2023-10-09T13:15:29Z</time>
      </trkpt>
      <trkpt lat="43.67014" lon="6.1892">
        <ele>744.9</ele>
        <time>2023-10-09T13:15:30Z</time>
      </trkpt>
      <trkpt lat="43.67014" lon="6.1892">
        <ele>744.9</ele>
        <time>2023-10-09T13:15:31Z</time>
      </trkpt>
      <trkpt lat="43.67014" lon="6.1892">
        <ele>744.9</ele>
        <time>2023-10-09T13:15:32Z</time>
      </trkpt>
      <trkpt lat="43.67014" lon="6.1892">
        <ele>744.9</ele>
        <time>2023-10-09T13:15:33Z</time>
      </trkpt>
      <trkpt lat="43.67014" lon="6.1892">
        <ele>744.9</ele>
        <time>2023-10-09T13:15:34Z</time>
      </trkpt>
      <trkpt lat="43.67014" lon="6.1892">
        <ele>744.9</ele>
        <time>2023-10-09T13:15:35Z</time>
      </trkpt>
      <trkpt lat="43.67014" lon="6.1892">
        <ele>744.9</ele>
        <time>2023-10-09T13:15:36Z</time>
      </trkpt>
      <trkpt lat="43.67014" lon="6.1892">
        <ele>744.9</ele>
        <time>2023-10-09T13:15:37Z</time>
      </trkpt>
      <trkpt lat="43.67014" lon="6.1892">
        <ele>744.9</ele>
        <time>2023-10-09T13:15:38Z</time>
      </trkpt>
      <trkpt lat="43.67014" lon="6.1892">
        <ele>744.9</ele>
        <time>2023-10-09T13:15:39Z</time>
      </trkpt>
      <trkpt lat="43.67014" lon="6.1892">
        <ele>744.9</ele>
        <time>2023-10-09T13:15:40Z</time>
      </trkpt>
      <trkpt lat="43.67014" lon="6.1892">
        <ele>744.9</ele>
        <time>2023-10-09T13:15:41Z</time>
      </trkpt>
      <trkpt lat="43.67014" lon="6.1892">
        <ele>744.9</ele>
        <time>2023-10-09T13:15:42Z</time>
      </trkpt>
      <trkpt lat="43.67014" lon="6.1892">
        <ele>744.9</ele>
        <time>2023-10-09T13:15:43Z</time>
      </trkpt>
      <trkpt lat="43.67014" lon="6.1892">
        <ele>744.9</ele>
        <time>2023-10-09T13:15:44Z</time>
      </trkpt>
      <trkpt lat="43.67014" lon="6.1892">
        <ele>744.9</ele>
        <time>2023-10-09T13:15:45Z</time>
      </trkpt>
      <trkpt lat="43.67014" lon="6.1892">
        <ele>744.9</ele>
        <time>2023-10-09T13:15:46Z</time>
      </trkpt>
      <trkpt lat="43.67014" lon="6.1892">
        <ele>744.9</ele>
        <time>2023-10-09T13:15:47Z</time>
      </trkpt>
      <trkpt lat="43.67014" lon="6.1892">
        <ele>744.9</ele>
        <time>2023-10-09T13:15:48Z</time>
      </trkpt>
      <trkpt lat="43.67014" lon="6.1892">
        <ele>744.9</ele>
        <time>2023-10-09T13:15:49Z</time>
      </trkpt>
      <trkpt lat="43.67014" lon="6.1892">
        <ele>744.9</ele>
        <time>2023-10-09T13:15:50Z</time>
      </trkpt>
      <trkpt lat="43.67014" lon="6.1892">
        <ele>744.9</ele>
        <time>2023-10-09T13:15:51Z</time>
      </trkpt>
      <trkpt lat="43.67014" lon="6.1892">
        <ele>744.9</ele>
        <time>2023-10-09T13:15:52Z</time>
      </trkpt>
      <trkpt lat="43.67014" lon="6.1892">
        <ele>744.9</ele>
        <time>2023-10-09T13:15:53Z</time>
      </trkpt>
      <trkpt lat="43.67014" lon="6.1892">
        <ele>744.9</ele>
        <time>2023-10-09T13:15:54Z</time>
      </trkpt>
      <trkpt lat="43.67014" lon="6.1892">
        <ele>744.9</ele>
        <time>2023-10-09T13:15:55Z</time>
      </trkpt>
      <trkpt lat="43.67014" lon="6.1892">
        <ele>744.9</ele>
        <time>2023-10-09T13:15:56Z</time>
      </trkpt>
      <trkpt lat="43.67014" lon="6.1892">
        <ele>744.9</ele>
        <time>2023-10-09T13:15:57Z</time>
      </trkpt>
      <trkpt lat="43.67014" lon="6.1892">
        <ele>744.9</ele>
        <time>2023-10-09T13:15:58Z</time>
      </trkpt>
      <trkpt lat="43.67014" lon="6.1892">
        <ele>744.9</ele>
        <time>2023-10-09T13:15:59Z</time>
      </trkpt>
      <trkpt lat="43.67014" lon="6.1892">
        <ele>744.9</ele>
        <time>2023-10-09T13:16:00Z</time>
      </trkpt>
      <trkpt lat="43.67014" lon="6.1892">
        <ele>744.9</ele>
        <time>2023-10-09T13:16:01Z</time>
      </trkpt>
      <trkpt lat="43.67014" lon="6.1892">
        <ele>744.9</ele>
        <time>2023-10-09T13:16:02Z</time>
      </trkpt>
      <trkpt lat="43.67014" lon="6.1892">
        <ele>744.9</ele>
        <time>2023-10-09T13:16:03Z</time>
      </trkpt>
      <trkpt lat="43.67014" lon="6.1892">
        <ele>744.9</ele>
        <time>2023-10-09T13:16:04Z</time>
      </trkpt>
      <trkpt lat="43.67014" lon="6.1892">
        <ele>744.9</ele>
        <time>2023-10-09T13:16:05Z</time>
      </trkpt>
      <trkpt lat="43.67014" lon="6.1892">
        <ele>744.9</ele>
        <time>2023-10-09T13:16:06Z</time>
      </trkpt>
      <trkpt lat="43.67014" lon="6.1892">
        <ele>744.9</ele>
        <time>2023-10-09T13:16:07Z</time>
      </trkpt>
      <trkpt lat="43.67014" lon="6.1892">
        <ele>744.9</ele>
        <time>2023-10-09T13:16:08Z</time>
      </trkpt>
      <trkpt lat="43.67014" lon="6.1892">
        <ele>744.9</ele>
        <time>2023-10-09T13:16:09Z</time>
      </trkpt>
      <trkpt lat="43.67014" lon="6.1892">
        <ele>744.9</ele>
        <time>2023-10-09T13:16:10Z</time>
      </trkpt>
      <trkpt lat="43.67014" lon="6.1892">
        <ele>744.9</ele>
        <time>2023-10-09T13:16:11Z</time>
      </trkpt>
      <trkpt lat="43.67014" lon="6.1892">
        <ele>744.9</ele>
        <time>2023-10-09T13:16:12Z</time>
      </trkpt>
      <trkpt lat="43.67014" lon="6.1892">
        <ele>744.9</ele>
        <time>2023-10-09T13:16:13Z</time>
      </trkpt>
      <trkpt lat="43.67014" lon="6.1892">
        <ele>744.9</ele>
        <time>2023-10-09T13:16:14Z</time>
      </trkpt>
      <trkpt lat="43.67014" lon="6.1892">
        <ele>744.9</ele>
        <time>2023-10-09T13:16:15Z</time>
      </trkpt>
      <trkpt lat="43.67014" lon="6.1892">
        <ele>744.9</ele>
        <time>2023-10-09T13:16:16Z</time>
      </trkpt>
      <trkpt lat="43.67014" lon="6.1892">
        <ele>744.9</ele>
        <time>2023-10-09T13:16:17Z</time>
      </trkpt>
      <trkpt lat="43.67014" lon="6.1892">
        <ele>744.9</ele>
        <time>2023-10-09T13:16:18Z</time>
      </trkpt>
      <trkpt lat="43.67014" lon="6.1892">
        <ele>744.9</ele>
        <time>2023-10-09T13:16:19Z</time>
      </trkpt>
      <trkpt lat="43.67014" lon="6.1892">
        <ele>744.9</ele>
        <time>2023-10-09T13:16:20Z</time>
      </trkpt>
      <trkpt lat="43.67014" lon="6.1892">
        <ele>744.9</ele>
        <time>2023-10-09T13:16:21Z</time>
      </trkpt>
      <trkpt lat="43.67014" lon="6.1892">
        <ele>744.9</ele>
        <time>2023-10-09T13:16:22Z</time>
      </trkpt>
      <trkpt lat="43.67014" lon="6.1892">
        <ele>744.9</ele>
        <time>2023-10-09T13:16:23Z</time>
      </trkpt>
      <trkpt lat="43.67014" lon="6.1892">
        <ele>744.9</ele>
        <time>2023-10-09T13:16:24Z</time>
      </trkpt>
      <trkpt lat="43.67014" lon="6.1892">
        <ele>744.9</ele>
        <time>2023-10-09T13:16:25Z</time>
      </trkpt>
      <trkpt lat="43.67014" lon="6.1892">
        <ele>744.9</ele>
        <time>2023-10-09T13:16:26Z</time>
      </trkpt>
      <trkpt lat="43.67014" lon="6.1892">
        <ele>744.9</ele>
        <time>2023-10-09T13:16:27Z</time>
      </trkpt>
      <trkpt lat="43.67014" lon="6.1892">
        <ele>744.9</ele>
        <time>2023-10-09T13:16:28Z</time>
      </trkpt>
      <trkpt lat="43.67014" lon="6.1892">
        <ele>744.9</ele>
        <time>2023-10-09T13:16:29Z</time>
      </trkpt>
      <trkpt lat="43.67014" lon="6.1892">
        <ele>744.9</ele>
        <time>2023-10-09T13:16:30Z</time>
      </trkpt>
      <trkpt lat="43.67014" lon="6.1892">
        <ele>744.9</ele>
        <time>2023-10-09T13:16:31Z</time>
      </trkpt>
      <trkpt lat="43.67014" lon="6.1892">
        <ele>744.9</ele>
        <time>2023-10-09T13:16:32Z</time>
      </trkpt>
      <trkpt lat="43.67014" lon="6.1892">
        <ele>744.9</ele>
        <time>2023-10-09T13:16:33Z</time>
      </trkpt>
      <trkpt lat="43.67014" lon="6.1892">
        <ele>744.9</ele>
        <time>2023-10-09T13:16:34Z</time>
      </trkpt>
      <trkpt lat="43.67014" lon="6.1892">
        <ele>744.9</ele>
        <time>2023-10-09T13:16:35Z</time>
      </trkpt>
      <trkpt lat="43.67014" lon="6.1892">
        <ele>744.9</ele>
        <time>2023-10-09T13:16:36Z</time>
      </trkpt>
      <trkpt lat="43.67014" lon="6.1892">
        <ele>744.9</ele>
        <time>2023-10-09T13:16:37Z</time>
      </trkpt>
      <trkpt lat="43.67014" lon="6.1892">
        <ele>744.9</ele>
        <time>2023-10-09T13:16:38Z</time>
      </trkpt>
      <trkpt lat="43.67014" lon="6.1892">
        <ele>744.9</ele>
        <time>2023-10-09T13:16:39Z</time>
      </trkpt>
      <trkpt lat="43.67014" lon="6.1892">
        <ele>744.9</ele>
        <time>2023-10-09T13:16:40Z</time>
      </trkpt>
      <trkpt lat="43.67014" lon="6.1892">
        <ele>744.9</ele>
        <time>2023-10-09T13:16:41Z</time>
      </trkpt>
      <trkpt lat="43.67014" lon="6.1892">
        <ele>744.9</ele>
        <time>2023-10-09T13:16:42Z</time>
      </trkpt>
      <trkpt lat="43.67014" lon="6.1892">
        <ele>744.9</ele>
        <time>2023-10-09T13:16:43Z</time>
      </trkpt>
      <trkpt lat="43.67014" lon="6.1892">
        <ele>744.9</ele>
        <time>2023-10-09T13:16:44Z</time>
      </trkpt>
      <trkpt lat="43.67014" lon="6.1892">
        <ele>744.9</ele>
        <time>2023-10-09T13:16:45Z</time>
      </trkpt>
      <trkpt lat="43.67014" lon="6.1892">
        <ele>744.9</ele>
        <time>2023-10-09T13:16:46Z</time>
      </trkpt>
      <trkpt lat="43.67014" lon="6.1892">
        <ele>744.9</ele>
        <time>2023-10-09T13:16:47Z</time>
      </trkpt>
      <trkpt lat="43.67014" lon="6.1892">
        <ele>744.9</ele>
        <time>2023-10-09T13:16:48Z</time>
      </trkpt>
      <trkpt lat="43.67014" lon="6.1892">
        <ele>744.9</ele>
        <time>2023-10-09T13:16:49Z</time>
      </trkpt>
      <trkpt lat="43.67014" lon="6.1892">
        <ele>744.9</ele>
        <time>2023-10-09T13:16:50Z</time>
      </trkpt>
      <trkpt lat="43.67014" lon="6.1892">
        <ele>744.9</ele>
        <time>2023-10-09T13:16:51Z</time>
      </trkpt>
      <trkpt lat="43.67014" lon="6.1892">
        <ele>744.9</ele>
        <time>2023-10-09T13:16:52Z</time>
      </trkpt>
      <trkpt lat="43.67014" lon="6.1892">
        <ele>744.9</ele>
        <time>2023-10-09T13:16:53Z</time>
      </trkpt>
      <trkpt lat="43.67014" lon="6.1892">
        <ele>744.9</ele>
        <time>2023-10-09T13:16:54Z</time>
      </trkpt>
      <trkpt lat="43.67014" lon="6.1892">
        <ele>744.9</ele>
        <time>2023-10-09T13:16:55Z</time>
      </trkpt>
      <trkpt lat="43.67014" lon="6.1892">
        <ele>744.9</ele>
        <time>2023-10-09T13:16:56Z</time>
      </trkpt>
      <trkpt lat="43.67014" lon="6.1892">
        <ele>744.9</ele>
        <time>2023-10-09T13:16:57Z</time>
      </trkpt>
      <trkpt lat="43.67014" lon="6.1892">
        <ele>744.9</ele>
        <time>2023-10-09T13:16:58Z</time>
      </trkpt>
      <trkpt lat="43.67014" lon="6.1892">
        <ele>744.9</ele>
        <time>2023-10-09T13:16:59Z</time>
      </trkpt>
      <trkpt lat="43.67014" lon="6.1892">
        <ele>744.9</ele>
        <time>2023-10-09T13:17:00Z</time>
      </trkpt>
      <trkpt lat="43.67014" lon="6.1892">
        <ele>744.9</ele>
        <time>2023-10-09T13:17:01Z</time>
      </trkpt>
      <trkpt lat="43.67014" lon="6.1892">
        <ele>744.9</ele>
        <time>2023-10-09T13:17:02Z</time>
      </trkpt>
      <trkpt lat="43.67014" lon="6.1892">
        <ele>744.9</ele>
        <time>2023-10-09T13:17:03Z</time>
      </trkpt>
      <trkpt lat="43.67014" lon="6.1892">
        <ele>744.9</ele>
        <time>2023-10-09T13:17:04Z</time>
      </trkpt>
      <trkpt lat="43.67014" lon="6.1892">
        <ele>744.9</ele>
        <time>2023-10-09T13:17:05Z</time>
      </trkpt>
      <trkpt lat="43.67014" lon="6.1892">
        <ele>744.9</ele>
        <time>2023-10-09T13:17:06Z</time>
      </trkpt>
      <trkpt lat="43.67014" lon="6.1892">
        <ele>744.9</ele>
        <time>2023-10-09T13:17:07Z</time>
      </trkpt>
      <trkpt lat="43.67014" lon="6.1892">
        <ele>744.9</ele>
        <time>2023-10-09T13:17:08Z</time>
      </trkpt>
      <trkpt lat="43.67014" lon="6.1892">
        <ele>744.9</ele>
        <time>2023-10-09T13:17:09Z</time>
      </trkpt>
      <trkpt lat="43.67014" lon="6.1892">
        <ele>744.9</ele>
        <time>2023-10-09T13:17:10Z</time>
      </trkpt>
      <trkpt lat="43.67014" lon="6.1892">
        <ele>744.9</ele>
        <time>2023-10-09T13:17:11Z</time>
      </trkpt>
      <trkpt lat="43.67014" lon="6.1892">
        <ele>744.9</ele>
        <time>2023-10-09T13:17:12Z</time>
      </trkpt>
      <trkpt lat="43.67014" lon="6.1892">
        <ele>744.9</ele>
        <time>2023-10-09T13:17:13Z</time>
      </trkpt>
      <trkpt lat="43.67014" lon="6.1892">
        <ele>744.9</ele>
        <time>2023-10-09T13:17:14Z</time>
      </trkpt>
      <trkpt lat="43.67014" lon="6.1892">
        <ele>744.9</ele>
        <time>2023-10-09T13:17:15Z</time>
      </trkpt>
      <trkpt lat="43.67014" lon="6.1892">
        <ele>744.9</ele>
        <time>2023-10-09T13:17:16Z</time>
      </trkpt>
      <trkpt lat="43.67014" lon="6.1892">
        <ele>744.9</ele>
        <time>2023-10-09T13:17:17Z</time>
      </trkpt>
      <trkpt lat="43.67014" lon="6.1892">
        <ele>744.9</ele>
        <time>2023-10-09T13:17:18Z</time>
      </trkpt>
      <trkpt lat="43.67014" lon="6.1892">
        <ele>744.9</ele>
        <time>2023-10-09T13:17:19Z</time>
      </trkpt>
      <trkpt lat="43.67014" lon="6.1892">
        <ele>744.9</ele>
        <time>2023-10-09T13:17:20Z</time>
      </trkpt>
      <trkpt lat="43.67014" lon="6.1892">
        <ele>744.9</ele>
        <time>2023-10-09T13:17:21Z</time>
      </trkpt>
      <trkpt lat="43.67014" lon="6.1892">
        <ele>744.9</ele>
        <time>2023-10-09T13:17:22Z</time>
      </trkpt>
      <trkpt lat="43.67014" lon="6.1892">
        <ele>744.9</ele>
        <time>2023-10-09T13:17:23Z</time>
      </trkpt>
      <trkpt lat="43.67014" lon="6.1892">
        <ele>744.9</ele>
        <time>2023-10-09T13:17:24Z</time>
      </trkpt>
      <trkpt lat="43.67014" lon="6.1892">
        <ele>744.9</ele>
        <time>2023-10-09T13:17:25Z</time>
      </trkpt>
      <trkpt lat="43.67014" lon="6.1892">
        <ele>744.9</ele>
        <time>2023-10-09T13:17:26Z</time>
      </trkpt>
      <trkpt lat="43.67014" lon="6.1892">
        <ele>744.9</ele>
        <time>2023-10-09T13:17:27Z</time>
      </trkpt>
      <trkpt lat="43.67014" lon="6.1892">
        <ele>744.9</ele>
        <time>2023-10-09T13:17:28Z</time>
      </trkpt>
      <trkpt lat="43.67014" lon="6.1892">
        <ele>744.9</ele>
        <time>2023-10-09T13:17:29Z</time>
      </trkpt>
      <trkpt lat="43.67014" lon="6.1892">
        <ele>744.9</ele>
        <time>2023-10-09T13:17:30Z</time>
      </trkpt>
      <trkpt lat="43.67014" lon="6.1892">
        <ele>744.9</ele>
        <time>2023-10-09T13:17:31Z</time>
      </trkpt>
      <trkpt lat="43.67014" lon="6.1892">
        <ele>744.9</ele>
        <time>2023-10-09T13:17:32Z</time>
      </trkpt>
      <trkpt lat="43.67014" lon="6.1892">
        <ele>744.9</ele>
        <time>2023-10-09T13:17:33Z</time>
      </trkpt>
      <trkpt lat="43.67014" lon="6.1892">
        <ele>744.9</ele>
        <time>2023-10-09T13:17:34Z</time>
      </trkpt>
      <trkpt lat="43.67014" lon="6.1892">
        <ele>744.9</ele>
        <time>2023-10-09T13:17:35Z</time>
      </trkpt>
      <trkpt lat="43.67014" lon="6.1892">
        <ele>744.9</ele>
        <time>2023-10-09T13:17:36Z</time>
      </trkpt>
      <trkpt lat="43.67014" lon="6.1892">
        <ele>744.9</ele>
        <time>2023-10-09T13:17:37Z</time>
      </trkpt>
      <trkpt lat="43.67014" lon="6.1892">
        <ele>744.9</ele>
        <time>2023-10-09T13:17:38Z</time>
      </trkpt>
      <trkpt lat="43.67014" lon="6.1892">
        <ele>744.9</ele>
        <time>2023-10-09T13:17:39Z</time>
      </trkpt>
      <trkpt lat="43.67014" lon="6.1892">
        <ele>744.9</ele>
        <time>2023-10-09T13:17:40Z</time>
      </trkpt>
      <trkpt lat="43.67014" lon="6.1892">
        <ele>744.9</ele>
        <time>2023-10-09T13:17:41Z</time>
      </trkpt>
      <trkpt lat="43.67014" lon="6.1892">
        <ele>744.9</ele>
        <time>2023-10-09T13:17:42Z</time>
      </trkpt>
      <trkpt lat="43.67014" lon="6.1892">
        <ele>744.9</ele>
        <time>2023-10-09T13:17:43Z</time>
      </trkpt>
      <trkpt lat="43.67014" lon="6.1892">
        <ele>744.9</ele>
        <time>2023-10-09T13:17:44Z</time>
      </trkpt>
      <trkpt lat="43.67014" lon="6.1892">
        <ele>744.9</ele>
        <time>2023-10-09T13:17:45Z</time>
      </trkpt>
      <trkpt lat="43.67014" lon="6.1892">
        <ele>744.9</ele>
        <time>2023-10-09T13:17:46Z</time>
      </trkpt>
      <trkpt lat="43.67014" lon="6.1892">
        <ele>744.9</ele>
        <time>2023-10-09T13:17:47Z</time>
      </trkpt>
      <trkpt lat="43.67014" lon="6.1892">
        <ele>744.9</ele>
        <time>2023-10-09T13:17:48Z</time>
      </trkpt>
      <trkpt lat="43.67014" lon="6.1892">
        <ele>744.9</ele>
        <time>2023-10-09T13:17:49Z</time>
      </trkpt>
      <trkpt lat="43.67014" lon="6.1892">
        <ele>744.9</ele>
        <time>2023-10-09T13:17:50Z</time>
      </trkpt>
      <trkpt lat="43.67014" lon="6.1892">
        <ele>744.9</ele>
        <time>2023-10-09T13:17:51Z</time>
      </trkpt>
      <trkpt lat="43.67014" lon="6.1892">
        <ele>744.9</ele>
        <time>2023-10-09T13:17:52Z</time>
      </trkpt>
      <trkpt lat="43.67014" lon="6.1892">
        <ele>744.9</ele>
        <time>2023-10-09T13:17:53Z</time>
      </trkpt>
      <trkpt lat="43.67014" lon="6.1892">
        <ele>744.9</ele>
        <time>2023-10-09T13:17:54Z</time>
      </trkpt>
      <trkpt lat="43.67014" lon="6.1892">
        <ele>744.9</ele>
        <time>2023-10-09T13:17:55Z</time>
      </trkpt>
      <trkpt lat="43.67014" lon="6.1892">
        <ele>744.9</ele>
        <time>2023-10-09T13:17:56Z</time>
      </trkpt>
      <trkpt lat="43.67014" lon="6.1892">
        <ele>744.9</ele>
        <time>2023-10-09T13:17:57Z</time>
      </trkpt>
      <trkpt lat="43.67014" lon="6.1892">
        <ele>744.9</ele>
        <time>2023-10-09T13:17:58Z</time>
      </trkpt>
      <trkpt lat="43.67014" lon="6.1892">
        <ele>744.9</ele>
        <time>2023-10-09T13:17:59Z</time>
      </trkpt>
      <trkpt lat="43.67014" lon="6.1892">
        <ele>744.9</ele>
        <time>2023-10-09T13:18:00Z</time>
      </trkpt>
      <trkpt lat="43.67014" lon="6.1892">
        <ele>744.9</ele>
        <time>2023-10-09T13:18:01Z</time>
      </trkpt>
      <trkpt lat="43.67014" lon="6.1892">
        <ele>744.9</ele>
        <time>2023-10-09T13:18:02Z</time>
      </trkpt>
      <trkpt lat="43.67014" lon="6.1892">
        <ele>744.9</ele>
        <time>2023-10-09T13:18:03Z</time>
      </trkpt>
      <trkpt lat="43.67014" lon="6.1892">
        <ele>744.9</ele>
        <time>2023-10-09T13:18:04Z</time>
      </trkpt>
      <trkpt lat="43.67014" lon="6.1892">
        <ele>744.9</ele>
        <time>2023-10-09T13:18:05Z</time>
      </trkpt>
      <trkpt lat="43.67014" lon="6.1892">
        <ele>744.9</ele>
        <time>2023-10-09T13:18:06Z</time>
      </trkpt>
      <trkpt lat="43.67014" lon="6.1892">
        <ele>744.9</ele>
        <time>2023-10-09T13:18:07Z</time>
      </trkpt>
      <trkpt lat="43.67014" lon="6.1892">
        <ele>744.9</ele>
        <time>2023-10-09T13:18:08Z</time>
      </trkpt>
      <trkpt lat="43.67014" lon="6.1892">
        <ele>744.9</ele>
        <time>2023-10-09T13:18:09Z</time>
      </trkpt>
      <trkpt lat="43.67014" lon="6.1892">
        <ele>744.9</ele>
        <time>2023-10-09T13:18:10Z</time>
      </trkpt>
      <trkpt lat="43.67014" lon="6.1892">
        <ele>744.9</ele>
        <time>2023-10-09T13:18:11Z</time>
      </trkpt>
      <trkpt lat="43.67014" lon="6.1892">
        <ele>744.9</ele>
        <time>2023-10-09T13:18:12Z</time>
      </trkpt>
      <trkpt lat="43.67014" lon="6.1892">
        <ele>744.9</ele>
        <time>2023-10-09T13:18:13Z</time>
      </trkpt>
      <trkpt lat="43.67014" lon="6.1892">
        <ele>744.9</ele>
        <time>2023-10-09T13:18:14Z</time>
      </trkpt>
      <trkpt lat="43.67014" lon="6.1892">
        <ele>744.9</ele>
        <time>2023-10-09T13:18:15Z</time>
      </trkpt>
      <trkpt lat="43.67014" lon="6.1892">
        <ele>744.9</ele>
        <time>2023-10-09T13:18:16Z</time>
      </trkpt>
      <trkpt lat="43.67014" lon="6.1892">
        <ele>744.9</ele>
        <time>2023-10-09T13:18:17Z</time>
      </trkpt>
      <trkpt lat="43.67014" lon="6.1892">
        <ele>744.9</ele>
        <time>2023-10-09T13:18:18Z</time>
      </trkpt>
      <trkpt lat="43.67014" lon="6.1892">
        <ele>744.9</ele>
        <time>2023-10-09T13:18:19Z</time>
      </trkpt>
      <trkpt lat="43.67014" lon="6.1892">
        <ele>744.9</ele>
        <time>2023-10-09T13:18:20Z</time>
      </trkpt>
      <trkpt lat="43.67014" lon="6.1892">
        <ele>744.9</ele>
        <time>2023-10-09T13:18:21Z</time>
      </trkpt>
      <trkpt lat="43.67014" lon="6.1892">
        <ele>744.9</ele>
        <time>2023-10-09T13:18:22Z</time>
      </trkpt>
      <trkpt lat="43.67014" lon="6.1892">
        <ele>744.9</ele>
        <time>2023-10-09T13:18:23Z</time>
      </trkpt>
      <trkpt lat="43.67014" lon="6.1892">
        <ele>744.9</ele>
        <time>2023-10-09T13:18:24Z</time>
      </trkpt>
      <trkpt lat="43.67014" lon="6.1892">
        <ele>744.9</ele>
        <time>2023-10-09T13:18:25Z</time>
      </trkpt>
      <trkpt lat="43.67014" lon="6.1892">
        <ele>744.9</ele>
        <time>2023-10-09T13:18:26Z</time>
      </trkpt>
      <trkpt lat="43.67014" lon="6.1892">
        <ele>744.9</ele>
        <time>2023-10-09T13:18:27Z</time>
      </trkpt>
      <trkpt lat="43.67014" lon="6.1892">
        <ele>744.9</ele>
        <time>2023-10-09T13:18:28Z</time>
      </trkpt>
      <trkpt lat="43.67014" lon="6.1892">
        <ele>744.9</ele>
        <time>2023-10-09T13:18:29Z</time>
      </trkpt>
      <trkpt lat="43.67014" lon="6.1892">
        <ele>744.9</ele>
        <time>2023-10-09T13:18:30Z</time>
      </trkpt>
      <trkpt lat="43.67014" lon="6.1892">
        <ele>744.9</ele>
        <time>2023-10-09T13:18:31Z</time>
      </trkpt>
      <trkpt lat="43.67014" lon="6.1892">
        <ele>744.9</ele>
        <time>2023-10-09T13:18:32Z</time>
      </trkpt>
      <trkpt lat="43.67014" lon="6.1892">
        <ele>744.9</ele>
        <time>2023-10-09T13:18:33Z</time>
      </trkpt>
      <trkpt lat="43.67014" lon="6.1892">
        <ele>744.9</ele>
        <time>2023-10-09T13:18:34Z</time>
      </trkpt>
      <trkpt lat="43.67014" lon="6.1892">
        <ele>744.9</ele>
        <time>2023-10-09T13:18:35Z</time>
      </trkpt>
      <trkpt lat="43.67014" lon="6.1892">
        <ele>744.9</ele>
        <time>2023-10-09T13:18:36Z</time>
      </trkpt>
      <trkpt lat="43.67014" lon="6.1892">
        <ele>744.9</ele>
        <time>2023-10-09T13:18:37Z</time>
      </trkpt>
      <trkpt lat="43.67014" lon="6.1892">
        <ele>744.9</ele>
        <time>2023-10-09T13:18:38Z</time>
      </trkpt>
      <trkpt lat="43.67014" lon="6.1892">
        <ele>744.9</ele>
        <time>2023-10-09T13:18:39Z</time>
      </trkpt>
      <trkpt lat="43.67014" lon="6.1892">
        <ele>744.9</ele>
        <time>2023-10-09T13:18:40Z</time>
      </trkpt>
      <trkpt lat="43.67014" lon="6.1892">
        <ele>744.9</ele>
        <time>2023-10-09T13:18:41Z</time>
      </trkpt>
      <trkpt lat="43.67014" lon="6.1892">
        <ele>744.9</ele>
        <time>2023-10-09T13:18:42Z</time>
      </trkpt>
      <trkpt lat="43.67014" lon="6.1892">
        <ele>744.9</ele>
        <time>2023-10-09T13:18:43Z</time>
      </trkpt>
      <trkpt lat="43.67014" lon="6.1892">
        <ele>744.9</ele>
        <time>2023-10-09T13:18:44Z</time>
      </trkpt>
      <trkpt lat="43.67014" lon="6.1892">
        <ele>744.9</ele>
        <time>2023-10-09T13:18:45Z</time>
      </trkpt>
      <trkpt lat="43.67014" lon="6.1892">
        <ele>744.9</ele>
        <time>2023-10-09T13:18:46Z</time>
      </trkpt>
      <trkpt lat="43.67014" lon="6.1892">
        <ele>744.9</ele>
        <time>2023-10-09T13:18:47Z</time>
      </trkpt>
      <trkpt lat="43.67014" lon="6.1892">
        <ele>744.9</ele>
        <time>2023-10-09T13:18:48Z</time>
      </trkpt>
      <trkpt lat="43.67014" lon="6.1892">
        <ele>744.9</ele>
        <time>2023-10-09T13:18:49Z</time>
      </trkpt>
      <trkpt lat="43.67014" lon="6.1892">
        <ele>744.9</ele>
        <time>2023-10-09T13:18:50Z</time>
      </trkpt>
      <trkpt lat="43.67014" lon="6.1892">
        <ele>744.9</ele>
        <time>2023-10-09T13:18:51Z</time>
      </trkpt>
      <trkpt lat="43.67013" lon="6.18923">
        <ele>744.2</ele>
        <time>2023-10-09T13:18:52Z</time>
      </trkpt>
      <trkpt lat="43.67012" lon="6.18925">
        <ele>743.7</ele>
        <time>2023-10-09T13:18:53Z</time>
      </trkpt>
      <trkpt lat="43.67012" lon="6.18925">
        <ele>743.7</ele>
        <time>2023-10-09T13:18:54Z</time>
      </trkpt>
      <trkpt lat="43.67011" lon="6.18926">
        <ele>743.7</ele>
        <time>2023-10-09T13:18:55Z</time>
      </trkpt>
      <trkpt lat="43.6701" lon="6.18926">
        <ele>743.9</ele>
        <time>2023-10-09T13:18:56Z</time>
      </trkpt>
      <trkpt lat="43.6701" lon="6.18927">
        <ele>743.6</ele>
        <time>2023-10-09T13:18:57Z</time>
      </trkpt>
      <trkpt lat="43.67009" lon="6.18928">
        <ele>743.5</ele>
        <time>2023-10-09T13:18:58Z</time>
      </trkpt>
      <trkpt lat="43.67009" lon="6.18929">
        <ele>743.2</ele>
        <time>2023-10-09T13:18:59Z</time>
      </trkpt>
      <trkpt lat="43.67008" lon="6.18929">
        <ele>743.5</ele>
        <time>2023-10-09T13:19:00Z</time>
      </trkpt>
      <trkpt lat="43.67007" lon="6.1893">
        <ele>743.4</ele>
        <time>2023-10-09T13:19:01Z</time>
      </trkpt>
      <trkpt lat="43.67006" lon="6.18931">
        <ele>743.4</ele>
        <time>2023-10-09T13:19:02Z</time>
      </trkpt>
      <trkpt lat="43.67006" lon="6.18931">
        <ele>743.4</ele>
        <time>2023-10-09T13:19:03Z</time>
      </trkpt>
      <trkpt lat="43.67005" lon="6.18932">
        <ele>743.3</ele>
        <time>2023-10-09T13:19:04Z</time>
      </trkpt>
      <trkpt lat="43.67005" lon="6.18932">
        <ele>743.3</ele>
        <time>2023-10-09T13:19:05Z</time>
      </trkpt>
      <trkpt lat="43.67004" lon="6.18933">
        <ele>743.3</ele>
        <time>2023-10-09T13:19:06Z</time>
      </trkpt>
      <trkpt lat="43.67003" lon="6.18933">
        <ele>743.5</ele>
        <time>2023-10-09T13:19:07Z</time>
      </trkpt>
      <trkpt lat="43.67003" lon="6.18933">
        <ele>743.5</ele>
        <time>2023-10-09T13:19:08Z</time>
      </trkpt>
      <trkpt lat="43.67003" lon="6.18933">
        <ele>743.5</ele>
        <time>2023-10-09T13:19:09Z</time>
      </trkpt>
      <trkpt lat="43.67002" lon="6.18934">
        <ele>743.5</ele>
        <time>2023-10-09T13:19:10Z</time>
      </trkpt>
      <trkpt lat="43.67001" lon="6.18934">
        <ele>743.7</ele>
        <time>2023-10-09T13:19:11Z</time>
      </trkpt>
      <trkpt lat="43.67001" lon="6.18934">
        <ele>743.7</ele>
        <time>2023-10-09T13:19:12Z</time>
      </trkpt>
      <trkpt lat="43.67" lon="6.18935">
        <ele>743.7</ele>
        <time>2023-10-09T13:19:13Z</time>
      </trkpt>
      <trkpt lat="43.66999" lon="6.18936">
        <ele>743.8</ele>
        <time>2023-10-09T13:19:14Z</time>
      </trkpt>
      <trkpt lat="43.66999" lon="6.18937">
        <ele>743.5</ele>
        <time>2023-10-09T13:19:15Z</time>
      </trkpt>
      <trkpt lat="43.66998" lon="6.18937">
        <ele>743.8</ele>
        <time>2023-10-09T13:19:16Z</time>
      </trkpt>
      <trkpt lat="43.66997" lon="6.18938">
        <ele>743.9</ele>
        <time>2023-10-09T13:19:17Z</time>
      </trkpt>
      <trkpt lat="43.66996" lon="6.1894">
        <ele>743.7</ele>
        <time>2023-10-09T13:19:18Z</time>
      </trkpt>
      <trkpt lat="43.66995" lon="6.1894">
        <ele>744</ele>
        <time>2023-10-09T13:19:19Z</time>
      </trkpt>
      <trkpt lat="43.66994" lon="6.18941">
        <ele>744.1</ele>
        <time>2023-10-09T13:19:20Z</time>
      </trkpt>
      <trkpt lat="43.66993" lon="6.18942">
        <ele>744.2</ele>
        <time>2023-10-09T13:19:21Z</time>
      </trkpt>
      <trkpt lat="43.66992" lon="6.18942">
        <ele>744.5</ele>
        <time>2023-10-09T13:19:22Z</time>
      </trkpt>
      <trkpt lat="43.66991" lon="6.18943">
        <ele>744.6</ele>
        <time>2023-10-09T13:19:23Z</time>
      </trkpt>
      <trkpt lat="43.6699" lon="6.18944">
        <ele>744.7</ele>
        <time>2023-10-09T13:19:24Z</time>
      </trkpt>
      <trkpt lat="43.6699" lon="6.18945">
        <ele>744.5</ele>
        <time>2023-10-09T13:19:25Z</time>
      </trkpt>
      <trkpt lat="43.66989" lon="6.18946">
        <ele>744.6</ele>
        <time>2023-10-09T13:19:26Z</time>
      </trkpt>
      <trkpt lat="43.66988" lon="6.18946">
        <ele>745</ele>
        <time>2023-10-09T13:19:27Z</time>
      </trkpt>
      <trkpt lat="43.66987" lon="6.18947">
        <ele>745.2</ele>
        <time>2023-10-09T13:19:28Z</time>
      </trkpt>
      <trkpt lat="43.66986" lon="6.18948">
        <ele>745.3</ele>
        <time>2023-10-09T13:19:29Z</time>
      </trkpt>
      <trkpt lat="43.66986" lon="6.1895">
        <ele>744.9</ele>
        <time>2023-10-09T13:19:30Z</time>
      </trkpt>
      <trkpt lat="43.66985" lon="6.18951">
        <ele>745.1</ele>
        <time>2023-10-09T13:19:31Z</time>
      </trkpt>
      <trkpt lat="43.66985" lon="6.18951">
        <ele>745.1</ele>
        <time>2023-10-09T13:19:32Z</time>
      </trkpt>
      <trkpt lat="43.66984" lon="6.18952">
        <ele>745.3</ele>
        <time>2023-10-09T13:19:33Z</time>
      </trkpt>
      <trkpt lat="43.66983" lon="6.18953">
        <ele>745.5</ele>
        <time>2023-10-09T13:19:34Z</time>
      </trkpt>
      <trkpt lat="43.66983" lon="6.18954">
        <ele>745.3</ele>
        <time>2023-10-09T13:19:35Z</time>
      </trkpt>
      <trkpt lat="43.66982" lon="6.18955">
        <ele>745.4</ele>
        <time>2023-10-09T13:19:36Z</time>
      </trkpt>
      <trkpt lat="43.66982" lon="6.18956">
        <ele>745.3</ele>
        <time>2023-10-09T13:19:37Z</time>
      </trkpt>
      <trkpt lat="43.66981" lon="6.18957">
        <ele>745.4</ele>
        <time>2023-10-09T13:19:38Z</time>
      </trkpt>
      <trkpt lat="43.66981" lon="6.18958">
        <ele>745.2</ele>
        <time>2023-10-09T13:19:39Z</time>
      </trkpt>
      <trkpt lat="43.66981" lon="6.18959">
        <ele>745.1</ele>
        <time>2023-10-09T13:19:40Z</time>
      </trkpt>
      <trkpt lat="43.66981" lon="6.1896">
        <ele>744.9</ele>
        <time>2023-10-09T13:19:41Z</time>
      </trkpt>
      <trkpt lat="43.6698" lon="6.18961">
        <ele>745.1</ele>
        <time>2023-10-09T13:19:42Z</time>
      </trkpt>
      <trkpt lat="43.6698" lon="6.18962">
        <ele>744.9</ele>
        <time>2023-10-09T13:19:43Z</time>
      </trkpt>
      <trkpt lat="43.6698" lon="6.18963">
        <ele>744.7</ele>
        <time>2023-10-09T13:19:44Z</time>
      </trkpt>
      <trkpt lat="43.66979" lon="6.18964">
        <ele>744.9</ele>
        <time>2023-10-09T13:19:45Z</time>
      </trkpt>
      <trkpt lat="43.66978" lon="6.18964">
        <ele>745.3</ele>
        <time>2023-10-09T13:19:46Z</time>
      </trkpt>
      <trkpt lat="43.66978" lon="6.18966">
        <ele>744.9</ele>
        <time>2023-10-09T13:19:47Z</time>
      </trkpt>
      <trkpt lat="43.66977" lon="6.18967">
        <ele>745.1</ele>
        <time>2023-10-09T13:19:48Z</time>
      </trkpt>
      <trkpt lat="43.66977" lon="6.18967">
        <ele>745.1</ele>
        <time>2023-10-09T13:19:49Z</time>
      </trkpt>
      <trkpt lat="43.66976" lon="6.18968">
        <ele>745.3</ele>
        <time>2023-10-09T13:19:50Z</time>
      </trkpt>
      <trkpt lat="43.66976" lon="6.1897">
        <ele>744.9</ele>
        <time>2023-10-09T13:19:51Z</time>
      </trkpt>
      <trkpt lat="43.66975" lon="6.18971">
        <ele>745.1</ele>
        <time>2023-10-09T13:19:52Z</time>
      </trkpt>
      <trkpt lat="43.66975" lon="6.18972">
        <ele>744.9</ele>
        <time>2023-10-09T13:19:53Z</time>
      </trkpt>
      <trkpt lat="43.66974" lon="6.18973">
        <ele>745.2</ele>
        <time>2023-10-09T13:19:54Z</time>
      </trkpt>
      <trkpt lat="43.66973" lon="6.18974">
        <ele>745.4</ele>
        <time>2023-10-09T13:19:55Z</time>
      </trkpt>
      <trkpt lat="43.66973" lon="6.18975">
        <ele>745.2</ele>
        <time>2023-10-09T13:19:56Z</time>
      </trkpt>
      <trkpt lat="43.66972" lon="6.18975">
        <ele>745.6</ele>
        <time>2023-10-09T13:19:57Z</time>
      </trkpt>
      <trkpt lat="43.66971" lon="6.18976">
        <ele>745.8</ele>
        <time>2023-10-09T13:19:58Z</time>
      </trkpt>
      <trkpt lat="43.66971" lon="6.18977">
        <ele>745.6</ele>
        <time>2023-10-09T13:19:59Z</time>
      </trkpt>
      <trkpt lat="43.66971" lon="6.18978">
        <ele>745.4</ele>
        <time>2023-10-09T13:20:00Z</time>
      </trkpt>
      <trkpt lat="43.6697" lon="6.18979">
        <ele>745.7</ele>
        <time>2023-10-09T13:20:01Z</time>
      </trkpt>
      <trkpt lat="43.6697" lon="6.18979">
        <ele>745.7</ele>
        <time>2023-10-09T13:20:02Z</time>
      </trkpt>
      <trkpt lat="43.66969" lon="6.1898">
        <ele>745.9</ele>
        <time>2023-10-09T13:20:03Z</time>
      </trkpt>
      <trkpt lat="43.66969" lon="6.18981">
        <ele>745.7</ele>
        <time>2023-10-09T13:20:04Z</time>
      </trkpt>
      <trkpt lat="43.66968" lon="6.18982">
        <ele>745.9</ele>
        <time>2023-10-09T13:20:05Z</time>
      </trkpt>
      <trkpt lat="43.66967" lon="6.18983">
        <ele>746.1</ele>
        <time>2023-10-09T13:20:06Z</time>
      </trkpt>
      <trkpt lat="43.66967" lon="6.18984">
        <ele>745.9</ele>
        <time>2023-10-09T13:20:07Z</time>
      </trkpt>
      <trkpt lat="43.66966" lon="6.18985">
        <ele>746.2</ele>
        <time>2023-10-09T13:20:08Z</time>
      </trkpt>
      <trkpt lat="43.66965" lon="6.18986">
        <ele>746.4</ele>
        <time>2023-10-09T13:20:09Z</time>
      </trkpt>
      <trkpt lat="43.66965" lon="6.18987">
        <ele>746.2</ele>
        <time>2023-10-09T13:20:10Z</time>
      </trkpt>
      <trkpt lat="43.66964" lon="6.18988">
        <ele>746.4</ele>
        <time>2023-10-09T13:20:11Z</time>
      </trkpt>
      <trkpt lat="43.66964" lon="6.18989">
        <ele>746.2</ele>
        <time>2023-10-09T13:20:12Z</time>
      </trkpt>
      <trkpt lat="43.66963" lon="6.1899">
        <ele>746.5</ele>
        <time>2023-10-09T13:20:13Z</time>
      </trkpt>
      <trkpt lat="43.66963" lon="6.18991">
        <ele>746.3</ele>
        <time>2023-10-09T13:20:14Z</time>
      </trkpt>
      <trkpt lat="43.66962" lon="6.18992">
        <ele>746.5</ele>
        <time>2023-10-09T13:20:15Z</time>
      </trkpt>
      <trkpt lat="43.66962" lon="6.18993">
        <ele>746.3</ele>
        <time>2023-10-09T13:20:16Z</time>
      </trkpt>
      <trkpt lat="43.66961" lon="6.18994">
        <ele>746.5</ele>
        <time>2023-10-09T13:20:17Z</time>
      </trkpt>
      <trkpt lat="43.6696" lon="6.18995">
        <ele>746.7</ele>
        <time>2023-10-09T13:20:18Z</time>
      </trkpt>
      <trkpt lat="43.6696" lon="6.18996">
        <ele>746.6</ele>
        <time>2023-10-09T13:20:19Z</time>
      </trkpt>
      <trkpt lat="43.66959" lon="6.18998">
        <ele>746.6</ele>
        <time>2023-10-09T13:20:20Z</time>
      </trkpt>
      <trkpt lat="43.66958" lon="6.18999">
        <ele>746.8</ele>
        <time>2023-10-09T13:20:21Z</time>
      </trkpt>
      <trkpt lat="43.66957" lon="6.19">
        <ele>747</ele>
        <time>2023-10-09T13:20:22Z</time>
      </trkpt>
      <trkpt lat="43.66957" lon="6.19001">
        <ele>746.9</ele>
        <time>2023-10-09T13:20:23Z</time>
      </trkpt>
      <trkpt lat="43.66956" lon="6.19003">
        <ele>747</ele>
        <time>2023-10-09T13:20:24Z</time>
      </trkpt>
      <trkpt lat="43.66955" lon="6.19004">
        <ele>747.2</ele>
        <time>2023-10-09T13:20:25Z</time>
      </trkpt>
      <trkpt lat="43.66955" lon="6.19005">
        <ele>747.1</ele>
        <time>2023-10-09T13:20:26Z</time>
      </trkpt>
      <trkpt lat="43.66955" lon="6.19006">
        <ele>747</ele>
        <time>2023-10-09T13:20:27Z</time>
      </trkpt>
      <trkpt lat="43.66954" lon="6.19007">
        <ele>747.2</ele>
        <time>2023-10-09T13:20:28Z</time>
      </trkpt>
      <trkpt lat="43.66954" lon="6.19008">
        <ele>747.1</ele>
        <time>2023-10-09T13:20:29Z</time>
      </trkpt>
      <trkpt lat="43.66953" lon="6.19009">
        <ele>747.3</ele>
        <time>2023-10-09T13:20:30Z</time>
      </trkpt>
      <trkpt lat="43.66953" lon="6.1901">
        <ele>747.2</ele>
        <time>2023-10-09T13:20:31Z</time>
      </trkpt>
      <trkpt lat="43.66952" lon="6.19011">
        <ele>747.4</ele>
        <time>2023-10-09T13:20:32Z</time>
      </trkpt>
      <trkpt lat="43.66952" lon="6.19012">
        <ele>747.3</ele>
        <time>2023-10-09T13:20:33Z</time>
      </trkpt>
      <trkpt lat="43.66951" lon="6.19013">
        <ele>747.5</ele>
        <time>2023-10-09T13:20:34Z</time>
      </trkpt>
      <trkpt lat="43.66951" lon="6.19014">
        <ele>747.4</ele>
        <time>2023-10-09T13:20:35Z</time>
      </trkpt>
      <trkpt lat="43.6695" lon="6.19015">
        <ele>747.6</ele>
        <time>2023-10-09T13:20:36Z</time>
      </trkpt>
      <trkpt lat="43.66949" lon="6.19017">
        <ele>747.7</ele>
        <time>2023-10-09T13:20:37Z</time>
      </trkpt>
      <trkpt lat="43.66948" lon="6.19018">
        <ele>748</ele>
        <time>2023-10-09T13:20:38Z</time>
      </trkpt>
      <trkpt lat="43.66948" lon="6.19019">
        <ele>747.9</ele>
        <time>2023-10-09T13:20:39Z</time>
      </trkpt>
      <trkpt lat="43.66948" lon="6.1902">
        <ele>747.7</ele>
        <time>2023-10-09T13:20:40Z</time>
      </trkpt>
      <trkpt lat="43.66948" lon="6.19022">
        <ele>747.4</ele>
        <time>2023-10-09T13:20:41Z</time>
      </trkpt>
      <trkpt lat="43.66947" lon="6.19023">
        <ele>747.7</ele>
        <time>2023-10-09T13:20:42Z</time>
      </trkpt>
      <trkpt lat="43.66947" lon="6.19024">
        <ele>747.5</ele>
        <time>2023-10-09T13:20:43Z</time>
      </trkpt>
      <trkpt lat="43.66947" lon="6.19025">
        <ele>747.4</ele>
        <time>2023-10-09T13:20:44Z</time>
      </trkpt>
      <trkpt lat="43.66947" lon="6.19026">
        <ele>747.2</ele>
        <time>2023-10-09T13:20:45Z</time>
      </trkpt>
      <trkpt lat="43.66947" lon="6.19028">
        <ele>747</ele>
        <time>2023-10-09T13:20:46Z</time>
      </trkpt>
      <trkpt lat="43.66946" lon="6.19029">
        <ele>747.3</ele>
        <time>2023-10-09T13:20:47Z</time>
      </trkpt>
      <trkpt lat="43.66946" lon="6.1903">
        <ele>747.2</ele>
        <time>2023-10-09T13:20:48Z</time>
      </trkpt>
      <trkpt lat="43.66945" lon="6.19031">
        <ele>747.5</ele>
        <time>2023-10-09T13:20:49Z</time>
      </trkpt>
      <trkpt lat="43.66945" lon="6.19032">
        <ele>747.5</ele>
        <time>2023-10-09T13:20:50Z</time>
      </trkpt>
      <trkpt lat="43.66944" lon="6.19033">
        <ele>747.8</ele>
        <time>2023-10-09T13:20:51Z</time>
      </trkpt>
      <trkpt lat="43.66944" lon="6.19035">
        <ele>747.7</ele>
        <time>2023-10-09T13:20:52Z</time>
      </trkpt>
      <trkpt lat="43.66944" lon="6.19036">
        <ele>747.6</ele>
        <time>2023-10-09T13:20:53Z</time>
      </trkpt>
      <trkpt lat="43.66943" lon="6.19037">
        <ele>747.9</ele>
        <time>2023-10-09T13:20:54Z</time>
      </trkpt>
      <trkpt lat="43.66942" lon="6.19038">
        <ele>748.2</ele>
        <time>2023-10-09T13:20:55Z</time>
      </trkpt>
      <trkpt lat="43.66942" lon="6.19039">
        <ele>748.2</ele>
        <time>2023-10-09T13:20:56Z</time>
      </trkpt>
      <trkpt lat="43.66942" lon="6.19041">
        <ele>748</ele>
        <time>2023-10-09T13:20:57Z</time>
      </trkpt>
      <trkpt lat="43.66941" lon="6.19042">
        <ele>748.3</ele>
        <time>2023-10-09T13:20:58Z</time>
      </trkpt>
      <trkpt lat="43.66941" lon="6.19043">
        <ele>748.3</ele>
        <time>2023-10-09T13:20:59Z</time>
      </trkpt>
      <trkpt lat="43.66941" lon="6.19044">
        <ele>748.2</ele>
        <time>2023-10-09T13:21:00Z</time>
      </trkpt>
      <trkpt lat="43.66941" lon="6.19045">
        <ele>748.1</ele>
        <time>2023-10-09T13:21:01Z</time>
      </trkpt>
      <trkpt lat="43.6694" lon="6.19046">
        <ele>748.4</ele>
        <time>2023-10-09T13:21:02Z</time>
      </trkpt>
      <trkpt lat="43.6694" lon="6.19046">
        <ele>748.4</ele>
        <time>2023-10-09T13:21:03Z</time>
      </trkpt>
      <trkpt lat="43.66939" lon="6.19047">
        <ele>748.8</ele>
        <time>2023-10-09T13:21:04Z</time>
      </trkpt>
      <trkpt lat="43.66939" lon="6.19049">
        <ele>748.6</ele>
        <time>2023-10-09T13:21:05Z</time>
      </trkpt>
      <trkpt lat="43.66939" lon="6.19051">
        <ele>748.5</ele>
        <time>2023-10-09T13:21:06Z</time>
      </trkpt>
      <trkpt lat="43.66938" lon="6.19052">
        <ele>748.8</ele>
        <time>2023-10-09T13:21:07Z</time>
      </trkpt>
      <trkpt lat="43.66938" lon="6.19053">
        <ele>748.7</ele>
        <time>2023-10-09T13:21:08Z</time>
      </trkpt>
      <trkpt lat="43.66937" lon="6.19054">
        <ele>749.1</ele>
        <time>2023-10-09T13:21:09Z</time>
      </trkpt>
      <trkpt lat="43.66937" lon="6.19055">
        <ele>749</ele>
        <time>2023-10-09T13:21:10Z</time>
      </trkpt>
      <trkpt lat="43.66936" lon="6.19056">
        <ele>749.3</ele>
        <time>2023-10-09T13:21:11Z</time>
      </trkpt>
      <trkpt lat="43.66936" lon="6.19058">
        <ele>749.1</ele>
        <time>2023-10-09T13:21:12Z</time>
      </trkpt>
      <trkpt lat="43.66935" lon="6.19059">
        <ele>749.3</ele>
        <time>2023-10-09T13:21:13Z</time>
      </trkpt>
      <trkpt lat="43.66935" lon="6.1906">
        <ele>749.2</ele>
        <time>2023-10-09T13:21:14Z</time>
      </trkpt>
      <trkpt lat="43.66934" lon="6.19062">
        <ele>749.4</ele>
        <time>2023-10-09T13:21:15Z</time>
      </trkpt>
      <trkpt lat="43.66934" lon="6.19063">
        <ele>749.2</ele>
        <time>2023-10-09T13:21:16Z</time>
      </trkpt>
      <trkpt lat="43.66934" lon="6.19064">
        <ele>749.1</ele>
        <time>2023-10-09T13:21:17Z</time>
      </trkpt>
      <trkpt lat="43.66933" lon="6.19065">
        <ele>749.4</ele>
        <time>2023-10-09T13:21:18Z</time>
      </trkpt>
      <trkpt lat="43.66933" lon="6.19066">
        <ele>749.2</ele>
        <time>2023-10-09T13:21:19Z</time>
      </trkpt>
      <trkpt lat="43.66932" lon="6.19068">
        <ele>749.4</ele>
        <time>2023-10-09T13:21:20Z</time>
      </trkpt>
      <trkpt lat="43.66932" lon="6.19069">
        <ele>749.3</ele>
        <time>2023-10-09T13:21:21Z</time>
      </trkpt>
      <trkpt lat="43.66932" lon="6.1907">
        <ele>749.1</ele>
        <time>2023-10-09T13:21:22Z</time>
      </trkpt>
      <trkpt lat="43.66931" lon="6.19071">
        <ele>749.4</ele>
        <time>2023-10-09T13:21:23Z</time>
      </trkpt>
      <trkpt lat="43.6693" lon="6.19072">
        <ele>749.6</ele>
        <time>2023-10-09T13:21:24Z</time>
      </trkpt>
      <trkpt lat="43.6693" lon="6.19073">
        <ele>749.5</ele>
        <time>2023-10-09T13:21:25Z</time>
      </trkpt>
      <trkpt lat="43.66929" lon="6.19074">
        <ele>749.8</ele>
        <time>2023-10-09T13:21:26Z</time>
      </trkpt>
      <trkpt lat="43.66929" lon="6.19076">
        <ele>749.5</ele>
        <time>2023-10-09T13:21:27Z</time>
      </trkpt>
      <trkpt lat="43.66928" lon="6.19077">
        <ele>749.7</ele>
        <time>2023-10-09T13:21:28Z</time>
      </trkpt>
      <trkpt lat="43.66927" lon="6.19078">
        <ele>750</ele>
        <time>2023-10-09T13:21:29Z</time>
      </trkpt>
      <trkpt lat="43.66926" lon="6.19079">
        <ele>750.2</ele>
        <time>2023-10-09T13:21:30Z</time>
      </trkpt>
      <trkpt lat="43.66926" lon="6.1908">
        <ele>750.1</ele>
        <time>2023-10-09T13:21:31Z</time>
      </trkpt>
      <trkpt lat="43.66925" lon="6.19081">
        <ele>750.3</ele>
        <time>2023-10-09T13:21:32Z</time>
      </trkpt>
      <trkpt lat="43.66925" lon="6.19082">
        <ele>750.2</ele>
        <time>2023-10-09T13:21:33Z</time>
      </trkpt>
      <trkpt lat="43.66924" lon="6.19084">
        <ele>750.3</ele>
        <time>2023-10-09T13:21:34Z</time>
      </trkpt>
      <trkpt lat="43.66923" lon="6.19085">
        <ele>750.5</ele>
        <time>2023-10-09T13:21:35Z</time>
      </trkpt>
      <trkpt lat="43.66923" lon="6.19086">
        <ele>750.4</ele>
        <time>2023-10-09T13:21:36Z</time>
      </trkpt>
      <trkpt lat="43.66922" lon="6.19088">
        <ele>750.5</ele>
        <time>2023-10-09T13:21:37Z</time>
      </trkpt>
      <trkpt lat="43.66922" lon="6.19089">
        <ele>750.4</ele>
        <time>2023-10-09T13:21:38Z</time>
      </trkpt>
      <trkpt lat="43.66921" lon="6.1909">
        <ele>750.6</ele>
        <time>2023-10-09T13:21:39Z</time>
      </trkpt>
      <trkpt lat="43.66921" lon="6.19092">
        <ele>750.4</ele>
        <time>2023-10-09T13:21:40Z</time>
      </trkpt>
      <trkpt lat="43.66921" lon="6.19093">
        <ele>750.3</ele>
        <time>2023-10-09T13:21:41Z</time>
      </trkpt>
      <trkpt lat="43.6692" lon="6.19094">
        <ele>750.6</ele>
        <time>2023-10-09T13:21:42Z</time>
      </trkpt>
      <trkpt lat="43.6692" lon="6.19095">
        <ele>750.4</ele>
        <time>2023-10-09T13:21:43Z</time>
      </trkpt>
      <trkpt lat="43.66919" lon="6.19097">
        <ele>750.6</ele>
        <time>2023-10-09T13:21:44Z</time>
      </trkpt>
      <trkpt lat="43.66919" lon="6.19098">
        <ele>750.5</ele>
        <time>2023-10-09T13:21:45Z</time>
      </trkpt>
      <trkpt lat="43.66918" lon="6.19099">
        <ele>750.8</ele>
        <time>2023-10-09T13:21:46Z</time>
      </trkpt>
      <trkpt lat="43.66918" lon="6.191">
        <ele>750.7</ele>
        <time>2023-10-09T13:21:47Z</time>
      </trkpt>
      <trkpt lat="43.66917" lon="6.19101">
        <ele>751</ele>
        <time>2023-10-09T13:21:48Z</time>
      </trkpt>
      <trkpt lat="43.66916" lon="6.19102">
        <ele>751.2</ele>
        <time>2023-10-09T13:21:49Z</time>
      </trkpt>
      <trkpt lat="43.66916" lon="6.19103">
        <ele>751.1</ele>
        <time>2023-10-09T13:21:50Z</time>
      </trkpt>
      <trkpt lat="43.66915" lon="6.19105">
        <ele>751.3</ele>
        <time>2023-10-09T13:21:51Z</time>
      </trkpt>
      <trkpt lat="43.66914" lon="6.19106">
        <ele>751.6</ele>
        <time>2023-10-09T13:21:52Z</time>
      </trkpt>
      <trkpt lat="43.66914" lon="6.19107">
        <ele>751.5</ele>
        <time>2023-10-09T13:21:53Z</time>
      </trkpt>
      <trkpt lat="43.66913" lon="6.19108">
        <ele>751.8</ele>
        <time>2023-10-09T13:21:54Z</time>
      </trkpt>
      <trkpt lat="43.66913" lon="6.19109">
        <ele>751.7</ele>
        <time>2023-10-09T13:21:55Z</time>
      </trkpt>
      <trkpt lat="43.66912" lon="6.1911">
        <ele>752</ele>
        <time>2023-10-09T13:21:56Z</time>
      </trkpt>
      <trkpt lat="43.66911" lon="6.19111">
        <ele>752.3</ele>
        <time>2023-10-09T13:21:57Z</time>
      </trkpt>
      <trkpt lat="43.66911" lon="6.19112">
        <ele>752.1</ele>
        <time>2023-10-09T13:21:58Z</time>
      </trkpt>
      <trkpt lat="43.66911" lon="6.19112">
        <ele>752.1</ele>
        <time>2023-10-09T13:21:59Z</time>
      </trkpt>
      <trkpt lat="43.66911" lon="6.19113">
        <ele>751.8</ele>
        <time>2023-10-09T13:22:00Z</time>
      </trkpt>
      <trkpt lat="43.6691" lon="6.19114">
        <ele>752</ele>
        <time>2023-10-09T13:22:01Z</time>
      </trkpt>
      <trkpt lat="43.66909" lon="6.19115">
        <ele>752.2</ele>
        <time>2023-10-09T13:22:02Z</time>
      </trkpt>
      <trkpt lat="43.66909" lon="6.19116">
        <ele>752</ele>
        <time>2023-10-09T13:22:03Z</time>
      </trkpt>
      <trkpt lat="43.66908" lon="6.19117">
        <ele>752.2</ele>
        <time>2023-10-09T13:22:04Z</time>
      </trkpt>
      <trkpt lat="43.66907" lon="6.19119">
        <ele>752.1</ele>
        <time>2023-10-09T13:22:05Z</time>
      </trkpt>
      <trkpt lat="43.66907" lon="6.1912">
        <ele>751.9</ele>
        <time>2023-10-09T13:22:06Z</time>
      </trkpt>
      <trkpt lat="43.66906" lon="6.19121">
        <ele>752.1</ele>
        <time>2023-10-09T13:22:07Z</time>
      </trkpt>
      <trkpt lat="43.66905" lon="6.19122">
        <ele>752.3</ele>
        <time>2023-10-09T13:22:08Z</time>
      </trkpt>
      <trkpt lat="43.66905" lon="6.19123">
        <ele>752.1</ele>
        <time>2023-10-09T13:22:09Z</time>
      </trkpt>
      <trkpt lat="43.66904" lon="6.19124">
        <ele>752.2</ele>
        <time>2023-10-09T13:22:10Z</time>
      </trkpt>
      <trkpt lat="43.66904" lon="6.19125">
        <ele>752</ele>
        <time>2023-10-09T13:22:11Z</time>
      </trkpt>
      <trkpt lat="43.66903" lon="6.19126">
        <ele>752.2</ele>
        <time>2023-10-09T13:22:12Z</time>
      </trkpt>
      <trkpt lat="43.66903" lon="6.19127">
        <ele>752</ele>
        <time>2023-10-09T13:22:13Z</time>
      </trkpt>
      <trkpt lat="43.66902" lon="6.19128">
        <ele>752.2</ele>
        <time>2023-10-09T13:22:14Z</time>
      </trkpt>
      <trkpt lat="43.66901" lon="6.19129">
        <ele>752.3</ele>
        <time>2023-10-09T13:22:15Z</time>
      </trkpt>
      <trkpt lat="43.669" lon="6.19129">
        <ele>752.7</ele>
        <time>2023-10-09T13:22:16Z</time>
      </trkpt>
      <trkpt lat="43.669" lon="6.1913">
        <ele>752.5</ele>
        <time>2023-10-09T13:22:17Z</time>
      </trkpt>
      <trkpt lat="43.66899" lon="6.19131">
        <ele>752.7</ele>
        <time>2023-10-09T13:22:18Z</time>
      </trkpt>
      <trkpt lat="43.66898" lon="6.19132">
        <ele>752.9</ele>
        <time>2023-10-09T13:22:19Z</time>
      </trkpt>
      <trkpt lat="43.66897" lon="6.19133">
        <ele>753.1</ele>
        <time>2023-10-09T13:22:20Z</time>
      </trkpt>
      <trkpt lat="43.66897" lon="6.19134">
        <ele>752.8</ele>
        <time>2023-10-09T13:22:21Z</time>
      </trkpt>
      <trkpt lat="43.66897" lon="6.19135">
        <ele>752.6</ele>
        <time>2023-10-09T13:22:22Z</time>
      </trkpt>
      <trkpt lat="43.66896" lon="6.19137">
        <ele>752.6</ele>
        <time>2023-10-09T13:22:23Z</time>
      </trkpt>
      <trkpt lat="43.66895" lon="6.19138">
        <ele>752.8</ele>
        <time>2023-10-09T13:22:24Z</time>
      </trkpt>
      <trkpt lat="43.66894" lon="6.19139">
        <ele>753</ele>
        <time>2023-10-09T13:22:25Z</time>
      </trkpt>
      <trkpt lat="43.66893" lon="6.1914">
        <ele>753.3</ele>
        <time>2023-10-09T13:22:26Z</time>
      </trkpt>
      <trkpt lat="43.66893" lon="6.19141">
        <ele>753.2</ele>
        <time>2023-10-09T13:22:27Z</time>
      </trkpt>
      <trkpt lat="43.66892" lon="6.19143">
        <ele>753.4</ele>
        <time>2023-10-09T13:22:28Z</time>
      </trkpt>
      <trkpt lat="43.66892" lon="6.19144">
        <ele>753.4</ele>
        <time>2023-10-09T13:22:29Z</time>
      </trkpt>
      <trkpt lat="43.66891" lon="6.19144">
        <ele>753.8</ele>
        <time>2023-10-09T13:22:30Z</time>
      </trkpt>
      <trkpt lat="43.66891" lon="6.19146">
        <ele>753.6</ele>
        <time>2023-10-09T13:22:31Z</time>
      </trkpt>
      <trkpt lat="43.6689" lon="6.19147">
        <ele>754</ele>
        <time>2023-10-09T13:22:32Z</time>
      </trkpt>
      <trkpt lat="43.6689" lon="6.19148">
        <ele>753.9</ele>
        <time>2023-10-09T13:22:33Z</time>
      </trkpt>
      <trkpt lat="43.66889" lon="6.19148">
        <ele>754.3</ele>
        <time>2023-10-09T13:22:34Z</time>
      </trkpt>
      <trkpt lat="43.66888" lon="6.1915">
        <ele>754.6</ele>
        <time>2023-10-09T13:22:35Z</time>
      </trkpt>
      <trkpt lat="43.66888" lon="6.19151">
        <ele>754.5</ele>
        <time>2023-10-09T13:22:36Z</time>
      </trkpt>
      <trkpt lat="43.66888" lon="6.19152">
        <ele>754.4</ele>
        <time>2023-10-09T13:22:37Z</time>
      </trkpt>
      <trkpt lat="43.66887" lon="6.19153">
        <ele>754.8</ele>
        <time>2023-10-09T13:22:38Z</time>
      </trkpt>
      <trkpt lat="43.66887" lon="6.19154">
        <ele>754.7</ele>
        <time>2023-10-09T13:22:39Z</time>
      </trkpt>
      <trkpt lat="43.66887" lon="6.19155">
        <ele>754.7</ele>
        <time>2023-10-09T13:22:40Z</time>
      </trkpt>
      <trkpt lat="43.66887" lon="6.19157">
        <ele>754.5</ele>
        <time>2023-10-09T13:22:41Z</time>
      </trkpt>
      <trkpt lat="43.66886" lon="6.19158">
        <ele>754.9</ele>
        <time>2023-10-09T13:22:42Z</time>
      </trkpt>
      <trkpt lat="43.66886" lon="6.19159">
        <ele>754.8</ele>
        <time>2023-10-09T13:22:43Z</time>
      </trkpt>
      <trkpt lat="43.66886" lon="6.1916">
        <ele>754.7</ele>
        <time>2023-10-09T13:22:44Z</time>
      </trkpt>
      <trkpt lat="43.66885" lon="6.19161">
        <ele>755.1</ele>
        <time>2023-10-09T13:22:45Z</time>
      </trkpt>
      <trkpt lat="43.66885" lon="6.19162">
        <ele>755</ele>
        <time>2023-10-09T13:22:46Z</time>
      </trkpt>
      <trkpt lat="43.66884" lon="6.19163">
        <ele>755.4</ele>
        <time>2023-10-09T13:22:47Z</time>
      </trkpt>
      <trkpt lat="43.66884" lon="6.19165">
        <ele>755.2</ele>
        <time>2023-10-09T13:22:48Z</time>
      </trkpt>
      <trkpt lat="43.66884" lon="6.19167">
        <ele>755.1</ele>
        <time>2023-10-09T13:22:49Z</time>
      </trkpt>
      <trkpt lat="43.66883" lon="6.19168">
        <ele>755.4</ele>
        <time>2023-10-09T13:22:50Z</time>
      </trkpt>
      <trkpt lat="43.66883" lon="6.19169">
        <ele>755.3</ele>
        <time>2023-10-09T13:22:51Z</time>
      </trkpt>
      <trkpt lat="43.66882" lon="6.19171">
        <ele>755.5</ele>
        <time>2023-10-09T13:22:52Z</time>
      </trkpt>
      <trkpt lat="43.66882" lon="6.19172">
        <ele>755.4</ele>
        <time>2023-10-09T13:22:53Z</time>
      </trkpt>
      <trkpt lat="43.66882" lon="6.19173">
        <ele>755.3</ele>
        <time>2023-10-09T13:22:54Z</time>
      </trkpt>
      <trkpt lat="43.66882" lon="6.19175">
        <ele>755.1</ele>
        <time>2023-10-09T13:22:55Z</time>
      </trkpt>
      <trkpt lat="43.66882" lon="6.19176">
        <ele>755</ele>
        <time>2023-10-09T13:22:56Z</time>
      </trkpt>
      <trkpt lat="43.66882" lon="6.19178">
        <ele>754.8</ele>
        <time>2023-10-09T13:22:57Z</time>
      </trkpt>
      <trkpt lat="43.66881" lon="6.19179">
        <ele>755.1</ele>
        <time>2023-10-09T13:22:58Z</time>
      </trkpt>
      <trkpt lat="43.66881" lon="6.19181">
        <ele>754.9</ele>
        <time>2023-10-09T13:22:59Z</time>
      </trkpt>
      <trkpt lat="43.6688" lon="6.19182">
        <ele>755.2</ele>
        <time>2023-10-09T13:23:00Z</time>
      </trkpt>
      <trkpt lat="43.6688" lon="6.19183">
        <ele>755.1</ele>
        <time>2023-10-09T13:23:01Z</time>
      </trkpt>
      <trkpt lat="43.66879" lon="6.19185">
        <ele>755.3</ele>
        <time>2023-10-09T13:23:02Z</time>
      </trkpt>
      <trkpt lat="43.66879" lon="6.19186">
        <ele>755.2</ele>
        <time>2023-10-09T13:23:03Z</time>
      </trkpt>
      <trkpt lat="43.66878" lon="6.19187">
        <ele>755.5</ele>
        <time>2023-10-09T13:23:04Z</time>
      </trkpt>
      <trkpt lat="43.66878" lon="6.19189">
        <ele>755.3</ele>
        <time>2023-10-09T13:23:05Z</time>
      </trkpt>
      <trkpt lat="43.66878" lon="6.1919">
        <ele>755.2</ele>
        <time>2023-10-09T13:23:06Z</time>
      </trkpt>
      <trkpt lat="43.66877" lon="6.19193">
        <ele>755.3</ele>
        <time>2023-10-09T13:23:07Z</time>
      </trkpt>
      <trkpt lat="43.66876" lon="6.19194">
        <ele>755.6</ele>
        <time>2023-10-09T13:23:08Z</time>
      </trkpt>
      <trkpt lat="43.66876" lon="6.19195">
        <ele>755.5</ele>
        <time>2023-10-09T13:23:09Z</time>
      </trkpt>
      <trkpt lat="43.66875" lon="6.19196">
        <ele>755.7</ele>
        <time>2023-10-09T13:23:10Z</time>
      </trkpt>
      <trkpt lat="43.66875" lon="6.19198">
        <ele>755.4</ele>
        <time>2023-10-09T13:23:11Z</time>
      </trkpt>
      <trkpt lat="43.66875" lon="6.19199">
        <ele>755.3</ele>
        <time>2023-10-09T13:23:12Z</time>
      </trkpt>
      <trkpt lat="43.66874" lon="6.192">
        <ele>755.5</ele>
        <time>2023-10-09T13:23:13Z</time>
      </trkpt>
      <trkpt lat="43.66874" lon="6.19201">
        <ele>755.4</ele>
        <time>2023-10-09T13:23:14Z</time>
      </trkpt>
      <trkpt lat="43.66873" lon="6.19202">
        <ele>755.7</ele>
        <time>2023-10-09T13:23:15Z</time>
      </trkpt>
      <trkpt lat="43.66873" lon="6.19203">
        <ele>755.5</ele>
        <time>2023-10-09T13:23:16Z</time>
      </trkpt>
      <trkpt lat="43.66872" lon="6.19204">
        <ele>755.8</ele>
        <time>2023-10-09T13:23:17Z</time>
      </trkpt>
      <trkpt lat="43.66872" lon="6.19206">
        <ele>755.5</ele>
        <time>2023-10-09T13:23:18Z</time>
      </trkpt>
      <trkpt lat="43.66871" lon="6.19207">
        <ele>755.8</ele>
        <time>2023-10-09T13:23:19Z</time>
      </trkpt>
      <trkpt lat="43.6687" lon="6.19208">
        <ele>756.1</ele>
        <time>2023-10-09T13:23:20Z</time>
      </trkpt>
      <trkpt lat="43.6687" lon="6.19209">
        <ele>755.9</ele>
        <time>2023-10-09T13:23:21Z</time>
      </trkpt>
      <trkpt lat="43.66869" lon="6.1921">
        <ele>756.2</ele>
        <time>2023-10-09T13:23:22Z</time>
      </trkpt>
      <trkpt lat="43.66869" lon="6.19211">
        <ele>756</ele>
        <time>2023-10-09T13:23:23Z</time>
      </trkpt>
      <trkpt lat="43.66868" lon="6.19212">
        <ele>756.3</ele>
        <time>2023-10-09T13:23:24Z</time>
      </trkpt>
      <trkpt lat="43.66866" lon="6.19213">
        <ele>757.1</ele>
        <time>2023-10-09T13:23:25Z</time>
      </trkpt>
      <trkpt lat="43.66866" lon="6.19214">
        <ele>756.9</ele>
        <time>2023-10-09T13:23:26Z</time>
      </trkpt>
      <trkpt lat="43.66865" lon="6.19214">
        <ele>757.4</ele>
        <time>2023-10-09T13:23:27Z</time>
      </trkpt>
      <trkpt lat="43.66865" lon="6.19215">
        <ele>757.3</ele>
        <time>2023-10-09T13:23:28Z</time>
      </trkpt>
      <trkpt lat="43.66864" lon="6.19216">
        <ele>757.6</ele>
        <time>2023-10-09T13:23:29Z</time>
      </trkpt>
      <trkpt lat="43.66864" lon="6.19217">
        <ele>757.4</ele>
        <time>2023-10-09T13:23:30Z</time>
      </trkpt>
      <trkpt lat="43.66863" lon="6.19219">
        <ele>757.6</ele>
        <time>2023-10-09T13:23:31Z</time>
      </trkpt>
      <trkpt lat="43.66863" lon="6.1922">
        <ele>757.4</ele>
        <time>2023-10-09T13:23:32Z</time>
      </trkpt>
      <trkpt lat="43.66862" lon="6.19221">
        <ele>757.8</ele>
        <time>2023-10-09T13:23:33Z</time>
      </trkpt>
      <trkpt lat="43.66861" lon="6.19222">
        <ele>758.1</ele>
        <time>2023-10-09T13:23:34Z</time>
      </trkpt>
      <trkpt lat="43.66861" lon="6.19224">
        <ele>757.7</ele>
        <time>2023-10-09T13:23:35Z</time>
      </trkpt>
      <trkpt lat="43.6686" lon="6.19225">
        <ele>757.9</ele>
        <time>2023-10-09T13:23:36Z</time>
      </trkpt>
      <trkpt lat="43.66859" lon="6.19226">
        <ele>758</ele>
        <time>2023-10-09T13:23:37Z</time>
      </trkpt>
      <trkpt lat="43.66858" lon="6.19227">
        <ele>758.2</ele>
        <time>2023-10-09T13:23:38Z</time>
      </trkpt>
      <trkpt lat="43.66858" lon="6.19228">
        <ele>758</ele>
        <time>2023-10-09T13:23:39Z</time>
      </trkpt>
      <trkpt lat="43.66857" lon="6.19229">
        <ele>758.1</ele>
        <time>2023-10-09T13:23:40Z</time>
      </trkpt>
      <trkpt lat="43.66857" lon="6.19231">
        <ele>757.8</ele>
        <time>2023-10-09T13:23:41Z</time>
      </trkpt>
      <trkpt lat="43.66856" lon="6.19232">
        <ele>758</ele>
        <time>2023-10-09T13:23:42Z</time>
      </trkpt>
      <trkpt lat="43.66855" lon="6.19233">
        <ele>758.1</ele>
        <time>2023-10-09T13:23:43Z</time>
      </trkpt>
      <trkpt lat="43.66855" lon="6.19234">
        <ele>758</ele>
        <time>2023-10-09T13:23:44Z</time>
      </trkpt>
      <trkpt lat="43.66854" lon="6.19235">
        <ele>758.1</ele>
        <time>2023-10-09T13:23:45Z</time>
      </trkpt>
      <trkpt lat="43.66854" lon="6.19236">
        <ele>758</ele>
        <time>2023-10-09T13:23:46Z</time>
      </trkpt>
      <trkpt lat="43.66853" lon="6.19238">
        <ele>758</ele>
        <time>2023-10-09T13:23:47Z</time>
      </trkpt>
      <trkpt lat="43.66853" lon="6.19239">
        <ele>757.8</ele>
        <time>2023-10-09T13:23:48Z</time>
      </trkpt>
      <trkpt lat="43.66852" lon="6.1924">
        <ele>758</ele>
        <time>2023-10-09T13:23:49Z</time>
      </trkpt>
      <trkpt lat="43.66852" lon="6.19241">
        <ele>757.8</ele>
        <time>2023-10-09T13:23:50Z</time>
      </trkpt>
      <trkpt lat="43.66851" lon="6.19242">
        <ele>758</ele>
        <time>2023-10-09T13:23:51Z</time>
      </trkpt>
      <trkpt lat="43.66851" lon="6.19243">
        <ele>757.8</ele>
        <time>2023-10-09T13:23:52Z</time>
      </trkpt>
      <trkpt lat="43.6685" lon="6.19245">
        <ele>757.8</ele>
        <time>2023-10-09T13:23:53Z</time>
      </trkpt>
      <trkpt lat="43.6685" lon="6.19246">
        <ele>757.7</ele>
        <time>2023-10-09T13:23:54Z</time>
      </trkpt>
      <trkpt lat="43.66849" lon="6.19247">
        <ele>757.9</ele>
        <time>2023-10-09T13:23:55Z</time>
      </trkpt>
      <trkpt lat="43.66849" lon="6.19248">
        <ele>757.7</ele>
        <time>2023-10-09T13:23:56Z</time>
      </trkpt>
      <trkpt lat="43.66848" lon="6.19249">
        <ele>757.9</ele>
        <time>2023-10-09T13:23:57Z</time>
      </trkpt>
      <trkpt lat="43.66847" lon="6.1925">
        <ele>758.1</ele>
        <time>2023-10-09T13:23:58Z</time>
      </trkpt>
      <trkpt lat="43.66847" lon="6.19251">
        <ele>757.9</ele>
        <time>2023-10-09T13:23:59Z</time>
      </trkpt>
      <trkpt lat="43.66846" lon="6.19253">
        <ele>757.9</ele>
        <time>2023-10-09T13:24:00Z</time>
      </trkpt>
      <trkpt lat="43.66846" lon="6.19254">
        <ele>757.7</ele>
        <time>2023-10-09T13:24:01Z</time>
      </trkpt>
      <trkpt lat="43.66845" lon="6.19255">
        <ele>757.9</ele>
        <time>2023-10-09T13:24:02Z</time>
      </trkpt>
      <trkpt lat="43.66844" lon="6.19256">
        <ele>758</ele>
        <time>2023-10-09T13:24:03Z</time>
      </trkpt>
      <trkpt lat="43.66844" lon="6.19257">
        <ele>757.9</ele>
        <time>2023-10-09T13:24:04Z</time>
      </trkpt>
      <trkpt lat="43.66843" lon="6.19258">
        <ele>758.1</ele>
        <time>2023-10-09T13:24:05Z</time>
      </trkpt>
      <trkpt lat="43.66841" lon="6.19259">
        <ele>758.7</ele>
        <time>2023-10-09T13:24:06Z</time>
      </trkpt>
      <trkpt lat="43.66841" lon="6.1926">
        <ele>758.5</ele>
        <time>2023-10-09T13:24:07Z</time>
      </trkpt>
      <trkpt lat="43.6684" lon="6.19261">
        <ele>758.7</ele>
        <time>2023-10-09T13:24:08Z</time>
      </trkpt>
      <trkpt lat="43.66839" lon="6.19261">
        <ele>759.1</ele>
        <time>2023-10-09T13:24:09Z</time>
      </trkpt>
      <trkpt lat="43.66839" lon="6.19262">
        <ele>759</ele>
        <time>2023-10-09T13:24:10Z</time>
      </trkpt>
      <trkpt lat="43.66838" lon="6.19263">
        <ele>759.2</ele>
        <time>2023-10-09T13:24:11Z</time>
      </trkpt>
      <trkpt lat="43.66837" lon="6.19264">
        <ele>759.5</ele>
        <time>2023-10-09T13:24:12Z</time>
      </trkpt>
      <trkpt lat="43.66837" lon="6.19265">
        <ele>759.3</ele>
        <time>2023-10-09T13:24:13Z</time>
      </trkpt>
      <trkpt lat="43.66836" lon="6.19267">
        <ele>759.4</ele>
        <time>2023-10-09T13:24:14Z</time>
      </trkpt>
      <trkpt lat="43.66835" lon="6.19268">
        <ele>759.7</ele>
        <time>2023-10-09T13:24:15Z</time>
      </trkpt>
      <trkpt lat="43.66834" lon="6.19269">
        <ele>760</ele>
        <time>2023-10-09T13:24:16Z</time>
      </trkpt>
      <trkpt lat="43.66834" lon="6.1927">
        <ele>759.8</ele>
        <time>2023-10-09T13:24:17Z</time>
      </trkpt>
      <trkpt lat="43.66833" lon="6.19271">
        <ele>760</ele>
        <time>2023-10-09T13:24:18Z</time>
      </trkpt>
      <trkpt lat="43.66832" lon="6.19272">
        <ele>760.1</ele>
        <time>2023-10-09T13:24:19Z</time>
      </trkpt>
      <trkpt lat="43.66832" lon="6.19274">
        <ele>759.8</ele>
        <time>2023-10-09T13:24:20Z</time>
      </trkpt>
      <trkpt lat="43.66831" lon="6.19275">
        <ele>759.9</ele>
        <time>2023-10-09T13:24:21Z</time>
      </trkpt>
      <trkpt lat="43.6683" lon="6.19276">
        <ele>760.1</ele>
        <time>2023-10-09T13:24:22Z</time>
      </trkpt>
      <trkpt lat="43.6683" lon="6.19277">
        <ele>759.9</ele>
        <time>2023-10-09T13:24:23Z</time>
      </trkpt>
      <trkpt lat="43.66829" lon="6.19278">
        <ele>760.1</ele>
        <time>2023-10-09T13:24:24Z</time>
      </trkpt>
      <trkpt lat="43.66829" lon="6.19279">
        <ele>759.9</ele>
        <time>2023-10-09T13:24:25Z</time>
      </trkpt>
      <trkpt lat="43.66828" lon="6.1928">
        <ele>760</ele>
        <time>2023-10-09T13:24:26Z</time>
      </trkpt>
      <trkpt lat="43.66827" lon="6.19281">
        <ele>760.2</ele>
        <time>2023-10-09T13:24:27Z</time>
      </trkpt>
      <trkpt lat="43.66827" lon="6.19282">
        <ele>760</ele>
        <time>2023-10-09T13:24:28Z</time>
      </trkpt>
      <trkpt lat="43.66826" lon="6.19284">
        <ele>760</ele>
        <time>2023-10-09T13:24:29Z</time>
      </trkpt>
      <trkpt lat="43.66825" lon="6.19285">
        <ele>760.1</ele>
        <time>2023-10-09T13:24:30Z</time>
      </trkpt>
      <trkpt lat="43.66824" lon="6.19286">
        <ele>760.3</ele>
        <time>2023-10-09T13:24:31Z</time>
      </trkpt>
      <trkpt lat="43.66824" lon="6.19287">
        <ele>760.1</ele>
        <time>2023-10-09T13:24:32Z</time>
      </trkpt>
      <trkpt lat="43.66824" lon="6.19288">
        <ele>760</ele>
        <time>2023-10-09T13:24:33Z</time>
      </trkpt>
      <trkpt lat="43.66823" lon="6.19289">
        <ele>760.1</ele>
        <time>2023-10-09T13:24:34Z</time>
      </trkpt>
      <trkpt lat="43.66822" lon="6.1929">
        <ele>760.3</ele>
        <time>2023-10-09T13:24:35Z</time>
      </trkpt>
      <trkpt lat="43.66821" lon="6.19292">
        <ele>760.3</ele>
        <time>2023-10-09T13:24:36Z</time>
      </trkpt>
      <trkpt lat="43.66821" lon="6.19293">
        <ele>760.2</ele>
        <time>2023-10-09T13:24:37Z</time>
      </trkpt>
      <trkpt lat="43.6682" lon="6.19294">
        <ele>760.3</ele>
        <time>2023-10-09T13:24:38Z</time>
      </trkpt>
      <trkpt lat="43.6682" lon="6.19294">
        <ele>760.3</ele>
        <time>2023-10-09T13:24:39Z</time>
      </trkpt>
      <trkpt lat="43.66819" lon="6.19296">
        <ele>760.3</ele>
        <time>2023-10-09T13:24:40Z</time>
      </trkpt>
      <trkpt lat="43.66819" lon="6.19297">
        <ele>760.2</ele>
        <time>2023-10-09T13:24:41Z</time>
      </trkpt>
      <trkpt lat="43.66818" lon="6.19299">
        <ele>760.2</ele>
        <time>2023-10-09T13:24:42Z</time>
      </trkpt>
      <trkpt lat="43.66818" lon="6.193">
        <ele>760.1</ele>
        <time>2023-10-09T13:24:43Z</time>
      </trkpt>
      <trkpt lat="43.66818" lon="6.19301">
        <ele>760</ele>
        <time>2023-10-09T13:24:44Z</time>
      </trkpt>
      <trkpt lat="43.66817" lon="6.19303">
        <ele>760</ele>
        <time>2023-10-09T13:24:45Z</time>
      </trkpt>
      <trkpt lat="43.66816" lon="6.19304">
        <ele>760.2</ele>
        <time>2023-10-09T13:24:46Z</time>
      </trkpt>
      <trkpt lat="43.66815" lon="6.19306">
        <ele>760.2</ele>
        <time>2023-10-09T13:24:47Z</time>
      </trkpt>
      <trkpt lat="43.66815" lon="6.19307">
        <ele>760.1</ele>
        <time>2023-10-09T13:24:48Z</time>
      </trkpt>
      <trkpt lat="43.66814" lon="6.19308">
        <ele>760.2</ele>
        <time>2023-10-09T13:24:49Z</time>
      </trkpt>
      <trkpt lat="43.66814" lon="6.19309">
        <ele>760</ele>
        <time>2023-10-09T13:24:50Z</time>
      </trkpt>
      <trkpt lat="43.66813" lon="6.1931">
        <ele>760.2</ele>
        <time>2023-10-09T13:24:51Z</time>
      </trkpt>
      <trkpt lat="43.66812" lon="6.19311">
        <ele>760.3</ele>
        <time>2023-10-09T13:24:52Z</time>
      </trkpt>
      <trkpt lat="43.66811" lon="6.19312">
        <ele>760.5</ele>
        <time>2023-10-09T13:24:53Z</time>
      </trkpt>
      <trkpt lat="43.66811" lon="6.19313">
        <ele>760.3</ele>
        <time>2023-10-09T13:24:54Z</time>
      </trkpt>
      <trkpt lat="43.6681" lon="6.19314">
        <ele>760.5</ele>
        <time>2023-10-09T13:24:55Z</time>
      </trkpt>
      <trkpt lat="43.6681" lon="6.19315">
        <ele>760.3</ele>
        <time>2023-10-09T13:24:56Z</time>
      </trkpt>
      <trkpt lat="43.66808" lon="6.19317">
        <ele>760.6</ele>
        <time>2023-10-09T13:24:57Z</time>
      </trkpt>
      <trkpt lat="43.66808" lon="6.19318">
        <ele>760.5</ele>
        <time>2023-10-09T13:24:58Z</time>
      </trkpt>
      <trkpt lat="43.66807" lon="6.19319">
        <ele>760.6</ele>
        <time>2023-10-09T13:24:59Z</time>
      </trkpt>
      <trkpt lat="43.66806" lon="6.1932">
        <ele>760.8</ele>
        <time>2023-10-09T13:25:00Z</time>
      </trkpt>
      <trkpt lat="43.66806" lon="6.19322">
        <ele>760.5</ele>
        <time>2023-10-09T13:25:01Z</time>
      </trkpt>
      <trkpt lat="43.66805" lon="6.19323">
        <ele>760.5</ele>
        <time>2023-10-09T13:25:02Z</time>
      </trkpt>
      <trkpt lat="43.66805" lon="6.19325">
        <ele>760.3</ele>
        <time>2023-10-09T13:25:03Z</time>
      </trkpt>
      <trkpt lat="43.66804" lon="6.19326">
        <ele>760.2</ele>
        <time>2023-10-09T13:25:04Z</time>
      </trkpt>
      <trkpt lat="43.66803" lon="6.19327">
        <ele>760.2</ele>
        <time>2023-10-09T13:25:05Z</time>
      </trkpt>
      <trkpt lat="43.66803" lon="6.19328">
        <ele>760.1</ele>
        <time>2023-10-09T13:25:06Z</time>
      </trkpt>
      <trkpt lat="43.66802" lon="6.19329">
        <ele>760.1</ele>
        <time>2023-10-09T13:25:07Z</time>
      </trkpt>
      <trkpt lat="43.66802" lon="6.1933">
        <ele>759.9</ele>
        <time>2023-10-09T13:25:08Z</time>
      </trkpt>
      <trkpt lat="43.66801" lon="6.19332">
        <ele>759.8</ele>
        <time>2023-10-09T13:25:09Z</time>
      </trkpt>
      <trkpt lat="43.66801" lon="6.19333">
        <ele>759.7</ele>
        <time>2023-10-09T13:25:10Z</time>
      </trkpt>
      <trkpt lat="43.668" lon="6.19335">
        <ele>759.6</ele>
        <time>2023-10-09T13:25:11Z</time>
      </trkpt>
      <trkpt lat="43.66798" lon="6.19337">
        <ele>759.6</ele>
        <time>2023-10-09T13:25:12Z</time>
      </trkpt>
      <trkpt lat="43.66798" lon="6.19338">
        <ele>759.5</ele>
        <time>2023-10-09T13:25:13Z</time>
      </trkpt>
      <trkpt lat="43.66797" lon="6.19338">
        <ele>759.6</ele>
        <time>2023-10-09T13:25:14Z</time>
      </trkpt>
      <trkpt lat="43.66797" lon="6.1934">
        <ele>759.3</ele>
        <time>2023-10-09T13:25:15Z</time>
      </trkpt>
      <trkpt lat="43.66796" lon="6.19341">
        <ele>759.4</ele>
        <time>2023-10-09T13:25:16Z</time>
      </trkpt>
      <trkpt lat="43.66796" lon="6.19342">
        <ele>759.2</ele>
        <time>2023-10-09T13:25:17Z</time>
      </trkpt>
      <trkpt lat="43.66796" lon="6.19344">
        <ele>759</ele>
        <time>2023-10-09T13:25:18Z</time>
      </trkpt>
      <trkpt lat="43.66795" lon="6.19345">
        <ele>759</ele>
        <time>2023-10-09T13:25:19Z</time>
      </trkpt>
      <trkpt lat="43.66794" lon="6.19346">
        <ele>759</ele>
        <time>2023-10-09T13:25:20Z</time>
      </trkpt>
      <trkpt lat="43.66793" lon="6.19348">
        <ele>758.9</ele>
        <time>2023-10-09T13:25:21Z</time>
      </trkpt>
      <trkpt lat="43.66793" lon="6.19349">
        <ele>758.8</ele>
        <time>2023-10-09T13:25:22Z</time>
      </trkpt>
      <trkpt lat="43.66793" lon="6.1935">
        <ele>758.7</ele>
        <time>2023-10-09T13:25:23Z</time>
      </trkpt>
      <trkpt lat="43.66792" lon="6.19351">
        <ele>758.7</ele>
        <time>2023-10-09T13:25:24Z</time>
      </trkpt>
      <trkpt lat="43.66791" lon="6.19353">
        <ele>758.6</ele>
        <time>2023-10-09T13:25:25Z</time>
      </trkpt>
      <trkpt lat="43.66791" lon="6.19354">
        <ele>758.5</ele>
        <time>2023-10-09T13:25:26Z</time>
      </trkpt>
      <trkpt lat="43.6679" lon="6.19355">
        <ele>758.6</ele>
        <time>2023-10-09T13:25:27Z</time>
      </trkpt>
      <trkpt lat="43.6679" lon="6.19356">
        <ele>758.4</ele>
        <time>2023-10-09T13:25:28Z</time>
      </trkpt>
      <trkpt lat="43.66789" lon="6.19357">
        <ele>758.5</ele>
        <time>2023-10-09T13:25:29Z</time>
      </trkpt>
      <trkpt lat="43.66789" lon="6.19358">
        <ele>758.4</ele>
        <time>2023-10-09T13:25:30Z</time>
      </trkpt>
      <trkpt lat="43.66789" lon="6.1936">
        <ele>758.1</ele>
        <time>2023-10-09T13:25:31Z</time>
      </trkpt>
      <trkpt lat="43.66788" lon="6.19361">
        <ele>758.2</ele>
        <time>2023-10-09T13:25:32Z</time>
      </trkpt>
      <trkpt lat="43.66788" lon="6.19363">
        <ele>757.9</ele>
        <time>2023-10-09T13:25:33Z</time>
      </trkpt>
      <trkpt lat="43.66787" lon="6.19364">
        <ele>757.9</ele>
        <time>2023-10-09T13:25:34Z</time>
      </trkpt>
      <trkpt lat="43.66786" lon="6.19365">
        <ele>758</ele>
        <time>2023-10-09T13:25:35Z</time>
      </trkpt>
      <trkpt lat="43.66786" lon="6.19366">
        <ele>757.8</ele>
        <time>2023-10-09T13:25:36Z</time>
      </trkpt>
      <trkpt lat="43.66785" lon="6.19367">
        <ele>757.9</ele>
        <time>2023-10-09T13:25:37Z</time>
      </trkpt>
      <trkpt lat="43.66785" lon="6.19368">
        <ele>757.7</ele>
        <time>2023-10-09T13:25:38Z</time>
      </trkpt>
      <trkpt lat="43.66784" lon="6.19369">
        <ele>757.7</ele>
        <time>2023-10-09T13:25:39Z</time>
      </trkpt>
      <trkpt lat="43.66783" lon="6.19371">
        <ele>757.6</ele>
        <time>2023-10-09T13:25:40Z</time>
      </trkpt>
      <trkpt lat="43.66783" lon="6.19372">
        <ele>757.5</ele>
        <time>2023-10-09T13:25:41Z</time>
      </trkpt>
      <trkpt lat="43.66782" lon="6.19373">
        <ele>757.5</ele>
        <time>2023-10-09T13:25:42Z</time>
      </trkpt>
      <trkpt lat="43.66782" lon="6.19374">
        <ele>757.4</ele>
        <time>2023-10-09T13:25:43Z</time>
      </trkpt>
      <trkpt lat="43.66781" lon="6.19375">
        <ele>757.4</ele>
        <time>2023-10-09T13:25:44Z</time>
      </trkpt>
      <trkpt lat="43.66781" lon="6.19376">
        <ele>757.3</ele>
        <time>2023-10-09T13:25:45Z</time>
      </trkpt>
      <trkpt lat="43.6678" lon="6.19378">
        <ele>757.2</ele>
        <time>2023-10-09T13:25:46Z</time>
      </trkpt>
      <trkpt lat="43.66779" lon="6.19379">
        <ele>757.2</ele>
        <time>2023-10-09T13:25:47Z</time>
      </trkpt>
      <trkpt lat="43.66779" lon="6.1938">
        <ele>757.1</ele>
        <time>2023-10-09T13:25:48Z</time>
      </trkpt>
      <trkpt lat="43.66778" lon="6.19381">
        <ele>757.1</ele>
        <time>2023-10-09T13:25:49Z</time>
      </trkpt>
      <trkpt lat="43.66778" lon="6.19382">
        <ele>757</ele>
        <time>2023-10-09T13:25:50Z</time>
      </trkpt>
      <trkpt lat="43.66777" lon="6.19383">
        <ele>756.8</ele>
        <time>2023-10-09T13:25:51Z</time>
      </trkpt>
      <trkpt lat="43.66777" lon="6.19384">
        <ele>756.7</ele>
        <time>2023-10-09T13:25:52Z</time>
      </trkpt>
      <trkpt lat="43.66776" lon="6.19386">
        <ele>756.4</ele>
        <time>2023-10-09T13:25:53Z</time>
      </trkpt>
      <trkpt lat="43.66776" lon="6.19387">
        <ele>756.3</ele>
        <time>2023-10-09T13:25:54Z</time>
      </trkpt>
      <trkpt lat="43.66775" lon="6.19388">
        <ele>756.1</ele>
        <time>2023-10-09T13:25:55Z</time>
      </trkpt>
      <trkpt lat="43.66774" lon="6.19389">
        <ele>756</ele>
        <time>2023-10-09T13:25:56Z</time>
      </trkpt>
      <trkpt lat="43.66774" lon="6.1939">
        <ele>755.9</ele>
        <time>2023-10-09T13:25:57Z</time>
      </trkpt>
      <trkpt lat="43.66774" lon="6.19391">
        <ele>755.9</ele>
        <time>2023-10-09T13:25:58Z</time>
      </trkpt>
      <trkpt lat="43.66773" lon="6.19392">
        <ele>755.8</ele>
        <time>2023-10-09T13:25:59Z</time>
      </trkpt>
      <trkpt lat="43.66772" lon="6.19393">
        <ele>755.8</ele>
        <time>2023-10-09T13:26:00Z</time>
      </trkpt>
      <trkpt lat="43.66771" lon="6.19394">
        <ele>755.7</ele>
        <time>2023-10-09T13:26:01Z</time>
      </trkpt>
      <trkpt lat="43.66771" lon="6.19395">
        <ele>755.7</ele>
        <time>2023-10-09T13:26:02Z</time>
      </trkpt>
      <trkpt lat="43.6677" lon="6.19396">
        <ele>755.6</ele>
        <time>2023-10-09T13:26:03Z</time>
      </trkpt>
      <trkpt lat="43.6677" lon="6.19397">
        <ele>755.6</ele>
        <time>2023-10-09T13:26:04Z</time>
      </trkpt>
      <trkpt lat="43.66769" lon="6.19399">
        <ele>755.5</ele>
        <time>2023-10-09T13:26:05Z</time>
      </trkpt>
      <trkpt lat="43.66768" lon="6.194">
        <ele>755.5</ele>
        <time>2023-10-09T13:26:06Z</time>
      </trkpt>
      <trkpt lat="43.66768" lon="6.194">
        <ele>755.5</ele>
        <time>2023-10-09T13:26:07Z</time>
      </trkpt>
      <trkpt lat="43.66768" lon="6.19402">
        <ele>755.4</ele>
        <time>2023-10-09T13:26:08Z</time>
      </trkpt>
      <trkpt lat="43.66767" lon="6.19402">
        <ele>755.4</ele>
        <time>2023-10-09T13:26:09Z</time>
      </trkpt>
      <trkpt lat="43.66766" lon="6.19404">
        <ele>755.4</ele>
        <time>2023-10-09T13:26:10Z</time>
      </trkpt>
      <trkpt lat="43.66765" lon="6.19404">
        <ele>755.4</ele>
        <time>2023-10-09T13:26:11Z</time>
      </trkpt>
      <trkpt lat="43.66765" lon="6.19405">
        <ele>755.4</ele>
        <time>2023-10-09T13:26:12Z</time>
      </trkpt>
      <trkpt lat="43.66764" lon="6.19406">
        <ele>755.4</ele>
        <time>2023-10-09T13:26:13Z</time>
      </trkpt>
      <trkpt lat="43.66763" lon="6.19406">
        <ele>755.4</ele>
        <time>2023-10-09T13:26:14Z</time>
      </trkpt>
      <trkpt lat="43.66762" lon="6.19407">
        <ele>755.4</ele>
        <time>2023-10-09T13:26:15Z</time>
      </trkpt>
      <trkpt lat="43.66761" lon="6.19408">
        <ele>755.5</ele>
        <time>2023-10-09T13:26:16Z</time>
      </trkpt>
      <trkpt lat="43.66761" lon="6.19409">
        <ele>755.4</ele>
        <time>2023-10-09T13:26:17Z</time>
      </trkpt>
      <trkpt lat="43.6676" lon="6.1941">
        <ele>755.5</ele>
        <time>2023-10-09T13:26:18Z</time>
      </trkpt>
      <trkpt lat="43.6676" lon="6.1941">
        <ele>755.5</ele>
        <time>2023-10-09T13:26:19Z</time>
      </trkpt>
      <trkpt lat="43.6676" lon="6.19411">
        <ele>755.4</ele>
        <time>2023-10-09T13:26:20Z</time>
      </trkpt>
      <trkpt lat="43.66759" lon="6.19411">
        <ele>755.5</ele>
        <time>2023-10-09T13:26:21Z</time>
      </trkpt>
      <trkpt lat="43.66759" lon="6.19411">
        <ele>755.5</ele>
        <time>2023-10-09T13:26:22Z</time>
      </trkpt>
      <trkpt lat="43.66759" lon="6.19412">
        <ele>755.5</ele>
        <time>2023-10-09T13:26:23Z</time>
      </trkpt>
      <trkpt lat="43.66759" lon="6.19412">
        <ele>755.5</ele>
        <time>2023-10-09T13:26:24Z</time>
      </trkpt>
      <trkpt lat="43.66759" lon="6.19412">
        <ele>755.5</ele>
        <time>2023-10-09T13:26:25Z</time>
      </trkpt>
      <trkpt lat="43.66759" lon="6.19412">
        <ele>755.5</ele>
        <time>2023-10-09T13:26:26Z</time>
      </trkpt>
      <trkpt lat="43.66759" lon="6.19412">
        <ele>755.5</ele>
        <time>2023-10-09T13:26:27Z</time>
      </trkpt>
      <trkpt lat="43.66759" lon="6.19412">
        <ele>755.5</ele>
        <time>2023-10-09T13:26:28Z</time>
      </trkpt>
      <trkpt lat="43.66759" lon="6.19412">
        <ele>755.5</ele>
        <time>2023-10-09T13:26:29Z</time>
      </trkpt>
      <trkpt lat="43.66758" lon="6.19412">
        <ele>755.5</ele>
        <time>2023-10-09T13:26:30Z</time>
      </trkpt>
      <trkpt lat="43.66758" lon="6.19412">
        <ele>755.5</ele>
        <time>2023-10-09T13:26:31Z</time>
      </trkpt>
      <trkpt lat="43.66758" lon="6.19413">
        <ele>755.5</ele>
        <time>2023-10-09T13:26:32Z</time>
      </trkpt>
      <trkpt lat="43.66758" lon="6.19413">
        <ele>755.5</ele>
        <time>2023-10-09T13:26:33Z</time>
      </trkpt>
      <trkpt lat="43.66758" lon="6.19413">
        <ele>755.5</ele>
        <time>2023-10-09T13:26:34Z</time>
      </trkpt>
      <trkpt lat="43.66758" lon="6.19413">
        <ele>755.5</ele>
        <time>2023-10-09T13:26:35Z</time>
      </trkpt>
      <trkpt lat="43.66758" lon="6.19413">
        <ele>755.5</ele>
        <time>2023-10-09T13:26:36Z</time>
      </trkpt>
      <trkpt lat="43.66758" lon="6.19413">
        <ele>755.5</ele>
        <time>2023-10-09T13:26:37Z</time>
      </trkpt>
      <trkpt lat="43.66758" lon="6.19413">
        <ele>755.5</ele>
        <time>2023-10-09T13:26:38Z</time>
      </trkpt>
      <trkpt lat="43.66758" lon="6.19413">
        <ele>755.5</ele>
        <time>2023-10-09T13:26:39Z</time>
      </trkpt>
      <trkpt lat="43.66757" lon="6.19414">
        <ele>755.5</ele>
        <time>2023-10-09T13:26:40Z</time>
      </trkpt>
      <trkpt lat="43.66757" lon="6.19414">
        <ele>755.5</ele>
        <time>2023-10-09T13:26:41Z</time>
      </trkpt>
      <trkpt lat="43.66757" lon="6.19414">
        <ele>755.5</ele>
        <time>2023-10-09T13:26:42Z</time>
      </trkpt>
      <trkpt lat="43.66757" lon="6.19414">
        <ele>755.5</ele>
        <time>2023-10-09T13:26:43Z</time>
      </trkpt>
      <trkpt lat="43.66757" lon="6.19414">
        <ele>755.5</ele>
        <time>2023-10-09T13:26:44Z</time>
      </trkpt>
      <trkpt lat="43.66757" lon="6.19414">
        <ele>755.5</ele>
        <time>2023-10-09T13:26:45Z</time>
      </trkpt>
      <trkpt lat="43.66757" lon="6.19414">
        <ele>755.5</ele>
        <time>2023-10-09T13:26:46Z</time>
      </trkpt>
      <trkpt lat="43.66757" lon="6.19414">
        <ele>755.5</ele>
        <time>2023-10-09T13:26:47Z</time>
      </trkpt>
      <trkpt lat="43.66757" lon="6.19415">
        <ele>755.5</ele>
        <time>2023-10-09T13:26:48Z</time>
      </trkpt>
      <trkpt lat="43.66756" lon="6.19416">
        <ele>755.6</ele>
        <time>2023-10-09T13:26:49Z</time>
      </trkpt>
      <trkpt lat="43.66755" lon="6.19417">
        <ele>755.6</ele>
        <time>2023-10-09T13:26:50Z</time>
      </trkpt>
      <trkpt lat="43.66754" lon="6.19418">
        <ele>755.7</ele>
        <time>2023-10-09T13:26:51Z</time>
      </trkpt>
      <trkpt lat="43.66754" lon="6.19419">
        <ele>755.8</ele>
        <time>2023-10-09T13:26:52Z</time>
      </trkpt>
      <trkpt lat="43.66753" lon="6.1942">
        <ele>755.9</ele>
        <time>2023-10-09T13:26:53Z</time>
      </trkpt>
      <trkpt lat="43.66752" lon="6.19421">
        <ele>756</ele>
        <time>2023-10-09T13:26:54Z</time>
      </trkpt>
      <trkpt lat="43.66752" lon="6.19422">
        <ele>756</ele>
        <time>2023-10-09T13:26:55Z</time>
      </trkpt>
      <trkpt lat="43.66752" lon="6.19423">
        <ele>756.1</ele>
        <time>2023-10-09T13:26:56Z</time>
      </trkpt>
      <trkpt lat="43.66751" lon="6.19425">
        <ele>756.2</ele>
        <time>2023-10-09T13:26:57Z</time>
      </trkpt>
      <trkpt lat="43.66751" lon="6.19426">
        <ele>756.2</ele>
        <time>2023-10-09T13:26:58Z</time>
      </trkpt>
      <trkpt lat="43.66751" lon="6.19428">
        <ele>756.3</ele>
        <time>2023-10-09T13:26:59Z</time>
      </trkpt>
      <trkpt lat="43.66751" lon="6.19429">
        <ele>756.3</ele>
        <time>2023-10-09T13:27:00Z</time>
      </trkpt>
      <trkpt lat="43.66751" lon="6.1943">
        <ele>756.4</ele>
        <time>2023-10-09T13:27:01Z</time>
      </trkpt>
      <trkpt lat="43.66751" lon="6.19432">
        <ele>756.4</ele>
        <time>2023-10-09T13:27:02Z</time>
      </trkpt>
      <trkpt lat="43.66751" lon="6.19433">
        <ele>756.5</ele>
        <time>2023-10-09T13:27:03Z</time>
      </trkpt>
      <trkpt lat="43.6675" lon="6.19434">
        <ele>756.6</ele>
        <time>2023-10-09T13:27:04Z</time>
      </trkpt>
      <trkpt lat="43.6675" lon="6.19435">
        <ele>756.7</ele>
        <time>2023-10-09T13:27:05Z</time>
      </trkpt>
      <trkpt lat="43.6675" lon="6.19437">
        <ele>756.7</ele>
        <time>2023-10-09T13:27:06Z</time>
      </trkpt>
      <trkpt lat="43.6675" lon="6.19438">
        <ele>756.8</ele>
        <time>2023-10-09T13:27:07Z</time>
      </trkpt>
      <trkpt lat="43.6675" lon="6.1944">
        <ele>756.8</ele>
        <time>2023-10-09T13:27:08Z</time>
      </trkpt>
      <trkpt lat="43.6675" lon="6.19441">
        <ele>756.9</ele>
        <time>2023-10-09T13:27:09Z</time>
      </trkpt>
      <trkpt lat="43.66749" lon="6.19442">
        <ele>756.9</ele>
        <time>2023-10-09T13:27:10Z</time>
      </trkpt>
      <trkpt lat="43.66749" lon="6.19444">
        <ele>756.9</ele>
        <time>2023-10-09T13:27:11Z</time>
      </trkpt>
      <trkpt lat="43.6675" lon="6.19445">
        <ele>757</ele>
        <time>2023-10-09T13:27:12Z</time>
      </trkpt>
      <trkpt lat="43.6675" lon="6.19447">
        <ele>757</ele>
        <time>2023-10-09T13:27:13Z</time>
      </trkpt>
      <trkpt lat="43.6675" lon="6.19448">
        <ele>757</ele>
        <time>2023-10-09T13:27:14Z</time>
      </trkpt>
      <trkpt lat="43.6675" lon="6.19449">
        <ele>757</ele>
        <time>2023-10-09T13:27:15Z</time>
      </trkpt>
      <trkpt lat="43.6675" lon="6.19451">
        <ele>757</ele>
        <time>2023-10-09T13:27:16Z</time>
      </trkpt>
      <trkpt lat="43.6675" lon="6.19452">
        <ele>757</ele>
        <time>2023-10-09T13:27:17Z</time>
      </trkpt>
      <trkpt lat="43.66751" lon="6.19453">
        <ele>756.8</ele>
        <time>2023-10-09T13:27:18Z</time>
      </trkpt>
      <trkpt lat="43.66752" lon="6.19454">
        <ele>756.7</ele>
        <time>2023-10-09T13:27:19Z</time>
      </trkpt>
      <trkpt lat="43.66752" lon="6.19456">
        <ele>756.7</ele>
        <time>2023-10-09T13:27:20Z</time>
      </trkpt>
      <trkpt lat="43.66752" lon="6.19458">
        <ele>756.7</ele>
        <time>2023-10-09T13:27:21Z</time>
      </trkpt>
      <trkpt lat="43.66752" lon="6.19459">
        <ele>756.7</ele>
        <time>2023-10-09T13:27:22Z</time>
      </trkpt>
      <trkpt lat="43.66752" lon="6.19461">
        <ele>756.7</ele>
        <time>2023-10-09T13:27:23Z</time>
      </trkpt>
      <trkpt lat="43.66752" lon="6.19463">
        <ele>756.7</ele>
        <time>2023-10-09T13:27:24Z</time>
      </trkpt>
      <trkpt lat="43.66752" lon="6.19464">
        <ele>756.7</ele>
        <time>2023-10-09T13:27:25Z</time>
      </trkpt>
      <trkpt lat="43.66752" lon="6.19466">
        <ele>756.7</ele>
        <time>2023-10-09T13:27:26Z</time>
      </trkpt>
      <trkpt lat="43.66751" lon="6.19467">
        <ele>756.8</ele>
        <time>2023-10-09T13:27:27Z</time>
      </trkpt>
      <trkpt lat="43.66751" lon="6.19468">
        <ele>756.8</ele>
        <time>2023-10-09T13:27:28Z</time>
      </trkpt>
      <trkpt lat="43.66752" lon="6.1947">
        <ele>756.6</ele>
        <time>2023-10-09T13:27:29Z</time>
      </trkpt>
      <trkpt lat="43.66752" lon="6.19471">
        <ele>756.6</ele>
        <time>2023-10-09T13:27:30Z</time>
      </trkpt>
      <trkpt lat="43.66752" lon="6.19473">
        <ele>756.7</ele>
        <time>2023-10-09T13:27:31Z</time>
      </trkpt>
      <trkpt lat="43.66752" lon="6.19474">
        <ele>756.8</ele>
        <time>2023-10-09T13:27:32Z</time>
      </trkpt>
      <trkpt lat="43.66752" lon="6.19476">
        <ele>757.1</ele>
        <time>2023-10-09T13:27:33Z</time>
      </trkpt>
      <trkpt lat="43.66753" lon="6.19477">
        <ele>757</ele>
        <time>2023-10-09T13:27:34Z</time>
      </trkpt>
      <trkpt lat="43.66753" lon="6.19478">
        <ele>757.1</ele>
        <time>2023-10-09T13:27:35Z</time>
      </trkpt>
      <trkpt lat="43.66753" lon="6.1948">
        <ele>757.3</ele>
        <time>2023-10-09T13:27:36Z</time>
      </trkpt>
      <trkpt lat="43.66753" lon="6.19481">
        <ele>757.4</ele>
        <time>2023-10-09T13:27:37Z</time>
      </trkpt>
      <trkpt lat="43.66754" lon="6.19482">
        <ele>757.4</ele>
        <time>2023-10-09T13:27:38Z</time>
      </trkpt>
      <trkpt lat="43.66754" lon="6.19483">
        <ele>757.5</ele>
        <time>2023-10-09T13:27:39Z</time>
      </trkpt>
      <trkpt lat="43.66754" lon="6.19485">
        <ele>757.7</ele>
        <time>2023-10-09T13:27:40Z</time>
      </trkpt>
      <trkpt lat="43.66755" lon="6.19486">
        <ele>757.7</ele>
        <time>2023-10-09T13:27:41Z</time>
      </trkpt>
      <trkpt lat="43.66755" lon="6.19488">
        <ele>757.9</ele>
        <time>2023-10-09T13:27:42Z</time>
      </trkpt>
      <trkpt lat="43.66755" lon="6.19489">
        <ele>758</ele>
        <time>2023-10-09T13:27:43Z</time>
      </trkpt>
      <trkpt lat="43.66756" lon="6.1949">
        <ele>758</ele>
        <time>2023-10-09T13:27:44Z</time>
      </trkpt>
      <trkpt lat="43.66756" lon="6.19492">
        <ele>758.2</ele>
        <time>2023-10-09T13:27:45Z</time>
      </trkpt>
      <trkpt lat="43.66756" lon="6.19493">
        <ele>758.3</ele>
        <time>2023-10-09T13:27:46Z</time>
      </trkpt>
      <trkpt lat="43.66757" lon="6.19494">
        <ele>758.3</ele>
        <time>2023-10-09T13:27:47Z</time>
      </trkpt>
      <trkpt lat="43.66757" lon="6.19495">
        <ele>758.4</ele>
        <time>2023-10-09T13:27:48Z</time>
      </trkpt>
      <trkpt lat="43.66757" lon="6.19497">
        <ele>758.6</ele>
        <time>2023-10-09T13:27:49Z</time>
      </trkpt>
      <trkpt lat="43.66758" lon="6.19498">
        <ele>758.6</ele>
        <time>2023-10-09T13:27:50Z</time>
      </trkpt>
      <trkpt lat="43.66758" lon="6.19499">
        <ele>758.7</ele>
        <time>2023-10-09T13:27:51Z</time>
      </trkpt>
      <trkpt lat="43.66759" lon="6.195">
        <ele>758.7</ele>
        <time>2023-10-09T13:27:52Z</time>
      </trkpt>
      <trkpt lat="43.66759" lon="6.19501">
        <ele>758.9</ele>
        <time>2023-10-09T13:27:53Z</time>
      </trkpt>
      <trkpt lat="43.66759" lon="6.19503">
        <ele>759.2</ele>
        <time>2023-10-09T13:27:54Z</time>
      </trkpt>
      <trkpt lat="43.6676" lon="6.19504">
        <ele>759.2</ele>
        <time>2023-10-09T13:27:55Z</time>
      </trkpt>
      <trkpt lat="43.6676" lon="6.19505">
        <ele>759.4</ele>
        <time>2023-10-09T13:27:56Z</time>
      </trkpt>
      <trkpt lat="43.6676" lon="6.19506">
        <ele>759.6</ele>
        <time>2023-10-09T13:27:57Z</time>
      </trkpt>
      <trkpt lat="43.6676" lon="6.19507">
        <ele>759.7</ele>
        <time>2023-10-09T13:27:58Z</time>
      </trkpt>
      <trkpt lat="43.66761" lon="6.19509">
        <ele>759.9</ele>
        <time>2023-10-09T13:27:59Z</time>
      </trkpt>
      <trkpt lat="43.66762" lon="6.1951">
        <ele>759.9</ele>
        <time>2023-10-09T13:28:00Z</time>
      </trkpt>
      <trkpt lat="43.66762" lon="6.19511">
        <ele>760.1</ele>
        <time>2023-10-09T13:28:01Z</time>
      </trkpt>
      <trkpt lat="43.66763" lon="6.19512">
        <ele>760.1</ele>
        <time>2023-10-09T13:28:02Z</time>
      </trkpt>
      <trkpt lat="43.66763" lon="6.19513">
        <ele>760.2</ele>
        <time>2023-10-09T13:28:03Z</time>
      </trkpt>
      <trkpt lat="43.66764" lon="6.19514">
        <ele>760.2</ele>
        <time>2023-10-09T13:28:04Z</time>
      </trkpt>
      <trkpt lat="43.66764" lon="6.19515">
        <ele>760.4</ele>
        <time>2023-10-09T13:28:05Z</time>
      </trkpt>
      <trkpt lat="43.66765" lon="6.19516">
        <ele>760.4</ele>
        <time>2023-10-09T13:28:06Z</time>
      </trkpt>
      <trkpt lat="43.66765" lon="6.19517">
        <ele>760.6</ele>
        <time>2023-10-09T13:28:07Z</time>
      </trkpt>
      <trkpt lat="43.66766" lon="6.19518">
        <ele>760.6</ele>
        <time>2023-10-09T13:28:08Z</time>
      </trkpt>
      <trkpt lat="43.66767" lon="6.19519">
        <ele>760.6</ele>
        <time>2023-10-09T13:28:09Z</time>
      </trkpt>
      <trkpt lat="43.66767" lon="6.19521">
        <ele>760.9</ele>
        <time>2023-10-09T13:28:10Z</time>
      </trkpt>
      <trkpt lat="43.66767" lon="6.19522">
        <ele>761</ele>
        <time>2023-10-09T13:28:11Z</time>
      </trkpt>
      <trkpt lat="43.66768" lon="6.19523">
        <ele>761</ele>
        <time>2023-10-09T13:28:12Z</time>
      </trkpt>
      <trkpt lat="43.66769" lon="6.19524">
        <ele>761</ele>
        <time>2023-10-09T13:28:13Z</time>
      </trkpt>
      <trkpt lat="43.66769" lon="6.19525">
        <ele>761.1</ele>
        <time>2023-10-09T13:28:14Z</time>
      </trkpt>
      <trkpt lat="43.6677" lon="6.19526">
        <ele>761.1</ele>
        <time>2023-10-09T13:28:15Z</time>
      </trkpt>
      <trkpt lat="43.66771" lon="6.19526">
        <ele>760.9</ele>
        <time>2023-10-09T13:28:16Z</time>
      </trkpt>
      <trkpt lat="43.66771" lon="6.19527">
        <ele>761.1</ele>
        <time>2023-10-09T13:28:17Z</time>
      </trkpt>
      <trkpt lat="43.66772" lon="6.19529">
        <ele>761.3</ele>
        <time>2023-10-09T13:28:18Z</time>
      </trkpt>
      <trkpt lat="43.66772" lon="6.1953">
        <ele>761.4</ele>
        <time>2023-10-09T13:28:19Z</time>
      </trkpt>
      <trkpt lat="43.66773" lon="6.19531">
        <ele>761.4</ele>
        <time>2023-10-09T13:28:20Z</time>
      </trkpt>
      <trkpt lat="43.66773" lon="6.19532">
        <ele>761.6</ele>
        <time>2023-10-09T13:28:21Z</time>
      </trkpt>
      <trkpt lat="43.66773" lon="6.19534">
        <ele>761.9</ele>
        <time>2023-10-09T13:28:22Z</time>
      </trkpt>
      <trkpt lat="43.66774" lon="6.19535">
        <ele>761.9</ele>
        <time>2023-10-09T13:28:23Z</time>
      </trkpt>
      <trkpt lat="43.66774" lon="6.19536">
        <ele>762.1</ele>
        <time>2023-10-09T13:28:24Z</time>
      </trkpt>
      <trkpt lat="43.66775" lon="6.19537">
        <ele>762.1</ele>
        <time>2023-10-09T13:28:25Z</time>
      </trkpt>
      <trkpt lat="43.66776" lon="6.19538">
        <ele>762.1</ele>
        <time>2023-10-09T13:28:26Z</time>
      </trkpt>
      <trkpt lat="43.66777" lon="6.19539">
        <ele>762.1</ele>
        <time>2023-10-09T13:28:27Z</time>
      </trkpt>
      <trkpt lat="43.66778" lon="6.1954">
        <ele>762.2</ele>
        <time>2023-10-09T13:28:28Z</time>
      </trkpt>
      <trkpt lat="43.66779" lon="6.19541">
        <ele>762.4</ele>
        <time>2023-10-09T13:28:29Z</time>
      </trkpt>
      <trkpt lat="43.6678" lon="6.19542">
        <ele>762.6</ele>
        <time>2023-10-09T13:28:30Z</time>
      </trkpt>
      <trkpt lat="43.66781" lon="6.19543">
        <ele>762.7</ele>
        <time>2023-10-09T13:28:31Z</time>
      </trkpt>
      <trkpt lat="43.66782" lon="6.19544">
        <ele>762.9</ele>
        <time>2023-10-09T13:28:32Z</time>
      </trkpt>
      <trkpt lat="43.66782" lon="6.19545">
        <ele>763.1</ele>
        <time>2023-10-09T13:28:33Z</time>
      </trkpt>
      <trkpt lat="43.66782" lon="6.19546">
        <ele>763.2</ele>
        <time>2023-10-09T13:28:34Z</time>
      </trkpt>
      <trkpt lat="43.66783" lon="6.19547">
        <ele>763.4</ele>
        <time>2023-10-09T13:28:35Z</time>
      </trkpt>
      <trkpt lat="43.66784" lon="6.19548">
        <ele>763.5</ele>
        <time>2023-10-09T13:28:36Z</time>
      </trkpt>
      <trkpt lat="43.66784" lon="6.19549">
        <ele>763.7</ele>
        <time>2023-10-09T13:28:37Z</time>
      </trkpt>
      <trkpt lat="43.66785" lon="6.1955">
        <ele>763.8</ele>
        <time>2023-10-09T13:28:38Z</time>
      </trkpt>
      <trkpt lat="43.66785" lon="6.19551">
        <ele>764</ele>
        <time>2023-10-09T13:28:39Z</time>
      </trkpt>
      <trkpt lat="43.66785" lon="6.19552">
        <ele>764.2</ele>
        <time>2023-10-09T13:28:40Z</time>
      </trkpt>
      <trkpt lat="43.66785" lon="6.19553">
        <ele>764.3</ele>
        <time>2023-10-09T13:28:41Z</time>
      </trkpt>
      <trkpt lat="43.66786" lon="6.19554">
        <ele>764.5</ele>
        <time>2023-10-09T13:28:42Z</time>
      </trkpt>
      <trkpt lat="43.66786" lon="6.19555">
        <ele>764.6</ele>
        <time>2023-10-09T13:28:43Z</time>
      </trkpt>
      <trkpt lat="43.66786" lon="6.19557">
        <ele>764.9</ele>
        <time>2023-10-09T13:28:44Z</time>
      </trkpt>
      <trkpt lat="43.66787" lon="6.19558">
        <ele>765</ele>
        <time>2023-10-09T13:28:45Z</time>
      </trkpt>
      <trkpt lat="43.66787" lon="6.19559">
        <ele>765.1</ele>
        <time>2023-10-09T13:28:46Z</time>
      </trkpt>
      <trkpt lat="43.66788" lon="6.1956">
        <ele>765.2</ele>
        <time>2023-10-09T13:28:47Z</time>
      </trkpt>
      <trkpt lat="43.66789" lon="6.19561">
        <ele>765.2</ele>
        <time>2023-10-09T13:28:48Z</time>
      </trkpt>
      <trkpt lat="43.66789" lon="6.19562">
        <ele>765.3</ele>
        <time>2023-10-09T13:28:49Z</time>
      </trkpt>
      <trkpt lat="43.6679" lon="6.19563">
        <ele>765.4</ele>
        <time>2023-10-09T13:28:50Z</time>
      </trkpt>
      <trkpt lat="43.6679" lon="6.19565">
        <ele>765.6</ele>
        <time>2023-10-09T13:28:51Z</time>
      </trkpt>
      <trkpt lat="43.66791" lon="6.19566">
        <ele>765.7</ele>
        <time>2023-10-09T13:28:52Z</time>
      </trkpt>
      <trkpt lat="43.66791" lon="6.19567">
        <ele>765.8</ele>
        <time>2023-10-09T13:28:53Z</time>
      </trkpt>
      <trkpt lat="43.66792" lon="6.19568">
        <ele>765.8</ele>
        <time>2023-10-09T13:28:54Z</time>
      </trkpt>
      <trkpt lat="43.66792" lon="6.19569">
        <ele>765.9</ele>
        <time>2023-10-09T13:28:55Z</time>
      </trkpt>
      <trkpt lat="43.66792" lon="6.1957">
        <ele>766</ele>
        <time>2023-10-09T13:28:56Z</time>
      </trkpt>
      <trkpt lat="43.66792" lon="6.19572">
        <ele>766.2</ele>
        <time>2023-10-09T13:28:57Z</time>
      </trkpt>
      <trkpt lat="43.66793" lon="6.19573">
        <ele>766.3</ele>
        <time>2023-10-09T13:28:58Z</time>
      </trkpt>
      <trkpt lat="43.66793" lon="6.19574">
        <ele>766.4</ele>
        <time>2023-10-09T13:28:59Z</time>
      </trkpt>
      <trkpt lat="43.66793" lon="6.19575">
        <ele>766.5</ele>
        <time>2023-10-09T13:29:00Z</time>
      </trkpt>
      <trkpt lat="43.66793" lon="6.19577">
        <ele>766.7</ele>
        <time>2023-10-09T13:29:01Z</time>
      </trkpt>
      <trkpt lat="43.66793" lon="6.19578">
        <ele>766.8</ele>
        <time>2023-10-09T13:29:02Z</time>
      </trkpt>
      <trkpt lat="43.66793" lon="6.19579">
        <ele>766.9</ele>
        <time>2023-10-09T13:29:03Z</time>
      </trkpt>
      <trkpt lat="43.66793" lon="6.19581">
        <ele>767.1</ele>
        <time>2023-10-09T13:29:04Z</time>
      </trkpt>
      <trkpt lat="43.66794" lon="6.19582">
        <ele>767.1</ele>
        <time>2023-10-09T13:29:05Z</time>
      </trkpt>
      <trkpt lat="43.66793" lon="6.19583">
        <ele>767.3</ele>
        <time>2023-10-09T13:29:06Z</time>
      </trkpt>
      <trkpt lat="43.66793" lon="6.19584">
        <ele>767.4</ele>
        <time>2023-10-09T13:29:07Z</time>
      </trkpt>
      <trkpt lat="43.66793" lon="6.19585">
        <ele>767.5</ele>
        <time>2023-10-09T13:29:08Z</time>
      </trkpt>
      <trkpt lat="43.66793" lon="6.19586">
        <ele>767.6</ele>
        <time>2023-10-09T13:29:09Z</time>
      </trkpt>
      <trkpt lat="43.66793" lon="6.19587">
        <ele>767.8</ele>
        <time>2023-10-09T13:29:10Z</time>
      </trkpt>
      <trkpt lat="43.66793" lon="6.19588">
        <ele>767.9</ele>
        <time>2023-10-09T13:29:11Z</time>
      </trkpt>
      <trkpt lat="43.66793" lon="6.19589">
        <ele>768</ele>
        <time>2023-10-09T13:29:12Z</time>
      </trkpt>
      <trkpt lat="43.66793" lon="6.1959">
        <ele>768.1</ele>
        <time>2023-10-09T13:29:13Z</time>
      </trkpt>
      <trkpt lat="43.66793" lon="6.19591">
        <ele>768.2</ele>
        <time>2023-10-09T13:29:14Z</time>
      </trkpt>
      <trkpt lat="43.66793" lon="6.19592">
        <ele>768.3</ele>
        <time>2023-10-09T13:29:15Z</time>
      </trkpt>
      <trkpt lat="43.66793" lon="6.19593">
        <ele>768.4</ele>
        <time>2023-10-09T13:29:16Z</time>
      </trkpt>
      <trkpt lat="43.66793" lon="6.19594">
        <ele>768.5</ele>
        <time>2023-10-09T13:29:17Z</time>
      </trkpt>
      <trkpt lat="43.66792" lon="6.19595">
        <ele>768.7</ele>
        <time>2023-10-09T13:29:18Z</time>
      </trkpt>
      <trkpt lat="43.66792" lon="6.19596">
        <ele>768.8</ele>
        <time>2023-10-09T13:29:19Z</time>
      </trkpt>
      <trkpt lat="43.66792" lon="6.19597">
        <ele>768.9</ele>
        <time>2023-10-09T13:29:20Z</time>
      </trkpt>
      <trkpt lat="43.66793" lon="6.19598">
        <ele>768.9</ele>
        <time>2023-10-09T13:29:21Z</time>
      </trkpt>
      <trkpt lat="43.66793" lon="6.19599">
        <ele>769</ele>
        <time>2023-10-09T13:29:22Z</time>
      </trkpt>
      <trkpt lat="43.66793" lon="6.196">
        <ele>769.2</ele>
        <time>2023-10-09T13:29:23Z</time>
      </trkpt>
      <trkpt lat="43.66793" lon="6.19602">
        <ele>769.4</ele>
        <time>2023-10-09T13:29:24Z</time>
      </trkpt>
      <trkpt lat="43.66793" lon="6.19603">
        <ele>769.5</ele>
        <time>2023-10-09T13:29:25Z</time>
      </trkpt>
      <trkpt lat="43.66793" lon="6.19604">
        <ele>769.6</ele>
        <time>2023-10-09T13:29:26Z</time>
      </trkpt>
      <trkpt lat="43.66794" lon="6.19605">
        <ele>769.6</ele>
        <time>2023-10-09T13:29:27Z</time>
      </trkpt>
      <trkpt lat="43.66794" lon="6.19607">
        <ele>769.8</ele>
        <time>2023-10-09T13:29:28Z</time>
      </trkpt>
      <trkpt lat="43.66794" lon="6.19608">
        <ele>769.9</ele>
        <time>2023-10-09T13:29:29Z</time>
      </trkpt>
      <trkpt lat="43.66795" lon="6.19609">
        <ele>769.9</ele>
        <time>2023-10-09T13:29:30Z</time>
      </trkpt>
      <trkpt lat="43.66795" lon="6.1961">
        <ele>770</ele>
        <time>2023-10-09T13:29:31Z</time>
      </trkpt>
      <trkpt lat="43.66795" lon="6.19612">
        <ele>770.2</ele>
        <time>2023-10-09T13:29:32Z</time>
      </trkpt>
      <trkpt lat="43.66795" lon="6.19613">
        <ele>770.3</ele>
        <time>2023-10-09T13:29:33Z</time>
      </trkpt>
      <trkpt lat="43.66795" lon="6.19614">
        <ele>770.5</ele>
        <time>2023-10-09T13:29:34Z</time>
      </trkpt>
      <trkpt lat="43.66796" lon="6.19615">
        <ele>770.5</ele>
        <time>2023-10-09T13:29:35Z</time>
      </trkpt>
      <trkpt lat="43.66796" lon="6.19616">
        <ele>770.6</ele>
        <time>2023-10-09T13:29:36Z</time>
      </trkpt>
      <trkpt lat="43.66796" lon="6.19617">
        <ele>770.7</ele>
        <time>2023-10-09T13:29:37Z</time>
      </trkpt>
      <trkpt lat="43.66796" lon="6.19619">
        <ele>770.9</ele>
        <time>2023-10-09T13:29:38Z</time>
      </trkpt>
      <trkpt lat="43.66797" lon="6.1962">
        <ele>770.9</ele>
        <time>2023-10-09T13:29:39Z</time>
      </trkpt>
      <trkpt lat="43.66797" lon="6.19621">
        <ele>771</ele>
        <time>2023-10-09T13:29:40Z</time>
      </trkpt>
      <trkpt lat="43.66797" lon="6.19623">
        <ele>771.2</ele>
        <time>2023-10-09T13:29:41Z</time>
      </trkpt>
      <trkpt lat="43.66798" lon="6.19624">
        <ele>771.2</ele>
        <time>2023-10-09T13:29:42Z</time>
      </trkpt>
      <trkpt lat="43.66798" lon="6.19625">
        <ele>771.3</ele>
        <time>2023-10-09T13:29:43Z</time>
      </trkpt>
      <trkpt lat="43.66798" lon="6.19626">
        <ele>771.4</ele>
        <time>2023-10-09T13:29:44Z</time>
      </trkpt>
      <trkpt lat="43.66798" lon="6.19628">
        <ele>771.6</ele>
        <time>2023-10-09T13:29:45Z</time>
      </trkpt>
      <trkpt lat="43.66798" lon="6.19629">
        <ele>771.7</ele>
        <time>2023-10-09T13:29:46Z</time>
      </trkpt>
      <trkpt lat="43.66798" lon="6.1963">
        <ele>771.9</ele>
        <time>2023-10-09T13:29:47Z</time>
      </trkpt>
      <trkpt lat="43.66798" lon="6.19631">
        <ele>772</ele>
        <time>2023-10-09T13:29:48Z</time>
      </trkpt>
      <trkpt lat="43.66798" lon="6.19632">
        <ele>772.1</ele>
        <time>2023-10-09T13:29:49Z</time>
      </trkpt>
      <trkpt lat="43.66798" lon="6.19633">
        <ele>772.2</ele>
        <time>2023-10-09T13:29:50Z</time>
      </trkpt>
      <trkpt lat="43.66799" lon="6.19635">
        <ele>772.3</ele>
        <time>2023-10-09T13:29:51Z</time>
      </trkpt>
      <trkpt lat="43.66799" lon="6.19636">
        <ele>772.4</ele>
        <time>2023-10-09T13:29:52Z</time>
      </trkpt>
      <trkpt lat="43.66799" lon="6.19637">
        <ele>772.5</ele>
        <time>2023-10-09T13:29:53Z</time>
      </trkpt>
      <trkpt lat="43.66799" lon="6.19638">
        <ele>772.6</ele>
        <time>2023-10-09T13:29:54Z</time>
      </trkpt>
      <trkpt lat="43.668" lon="6.19639">
        <ele>772.6</ele>
        <time>2023-10-09T13:29:55Z</time>
      </trkpt>
      <trkpt lat="43.668" lon="6.1964">
        <ele>772.7</ele>
        <time>2023-10-09T13:29:56Z</time>
      </trkpt>
      <trkpt lat="43.668" lon="6.19641">
        <ele>772.8</ele>
        <time>2023-10-09T13:29:57Z</time>
      </trkpt>
      <trkpt lat="43.668" lon="6.19642">
        <ele>773</ele>
        <time>2023-10-09T13:29:58Z</time>
      </trkpt>
      <trkpt lat="43.668" lon="6.19643">
        <ele>773.1</ele>
        <time>2023-10-09T13:29:59Z</time>
      </trkpt>
      <trkpt lat="43.668" lon="6.19645">
        <ele>773.3</ele>
        <time>2023-10-09T13:30:00Z</time>
      </trkpt>
      <trkpt lat="43.668" lon="6.19646">
        <ele>773.4</ele>
        <time>2023-10-09T13:30:01Z</time>
      </trkpt>
      <trkpt lat="43.668" lon="6.19647">
        <ele>773.5</ele>
        <time>2023-10-09T13:30:02Z</time>
      </trkpt>
      <trkpt lat="43.668" lon="6.19648">
        <ele>773.6</ele>
        <time>2023-10-09T13:30:03Z</time>
      </trkpt>
      <trkpt lat="43.668" lon="6.19649">
        <ele>773.8</ele>
        <time>2023-10-09T13:30:04Z</time>
      </trkpt>
      <trkpt lat="43.668" lon="6.1965">
        <ele>773.9</ele>
        <time>2023-10-09T13:30:05Z</time>
      </trkpt>
      <trkpt lat="43.668" lon="6.19651">
        <ele>774</ele>
        <time>2023-10-09T13:30:06Z</time>
      </trkpt>
      <trkpt lat="43.668" lon="6.19653">
        <ele>774.2</ele>
        <time>2023-10-09T13:30:07Z</time>
      </trkpt>
      <trkpt lat="43.66801" lon="6.19654">
        <ele>774.2</ele>
        <time>2023-10-09T13:30:08Z</time>
      </trkpt>
      <trkpt lat="43.66801" lon="6.19655">
        <ele>774.3</ele>
        <time>2023-10-09T13:30:09Z</time>
      </trkpt>
      <trkpt lat="43.66801" lon="6.19656">
        <ele>774.4</ele>
        <time>2023-10-09T13:30:10Z</time>
      </trkpt>
      <trkpt lat="43.66801" lon="6.19657">
        <ele>774.6</ele>
        <time>2023-10-09T13:30:11Z</time>
      </trkpt>
      <trkpt lat="43.66802" lon="6.19659">
        <ele>774.6</ele>
        <time>2023-10-09T13:30:12Z</time>
      </trkpt>
      <trkpt lat="43.66802" lon="6.1966">
        <ele>774.8</ele>
        <time>2023-10-09T13:30:13Z</time>
      </trkpt>
      <trkpt lat="43.66802" lon="6.19661">
        <ele>774.9</ele>
        <time>2023-10-09T13:30:14Z</time>
      </trkpt>
      <trkpt lat="43.66802" lon="6.19662">
        <ele>775</ele>
        <time>2023-10-09T13:30:15Z</time>
      </trkpt>
      <trkpt lat="43.66803" lon="6.19663">
        <ele>775</ele>
        <time>2023-10-09T13:30:16Z</time>
      </trkpt>
      <trkpt lat="43.66803" lon="6.19664">
        <ele>775.1</ele>
        <time>2023-10-09T13:30:17Z</time>
      </trkpt>
      <trkpt lat="43.66803" lon="6.19665">
        <ele>775.2</ele>
        <time>2023-10-09T13:30:18Z</time>
      </trkpt>
      <trkpt lat="43.66803" lon="6.19666">
        <ele>775.3</ele>
        <time>2023-10-09T13:30:19Z</time>
      </trkpt>
      <trkpt lat="43.66804" lon="6.19667">
        <ele>775.3</ele>
        <time>2023-10-09T13:30:20Z</time>
      </trkpt>
      <trkpt lat="43.66804" lon="6.19668">
        <ele>775.4</ele>
        <time>2023-10-09T13:30:21Z</time>
      </trkpt>
      <trkpt lat="43.66804" lon="6.1967">
        <ele>775.7</ele>
        <time>2023-10-09T13:30:22Z</time>
      </trkpt>
      <trkpt lat="43.66804" lon="6.19671">
        <ele>775.8</ele>
        <time>2023-10-09T13:30:23Z</time>
      </trkpt>
      <trkpt lat="43.66805" lon="6.19672">
        <ele>775.8</ele>
        <time>2023-10-09T13:30:24Z</time>
      </trkpt>
      <trkpt lat="43.66805" lon="6.19673">
        <ele>776</ele>
        <time>2023-10-09T13:30:25Z</time>
      </trkpt>
      <trkpt lat="43.66806" lon="6.19674">
        <ele>776</ele>
        <time>2023-10-09T13:30:26Z</time>
      </trkpt>
      <trkpt lat="43.66806" lon="6.19675">
        <ele>776.2</ele>
        <time>2023-10-09T13:30:27Z</time>
      </trkpt>
      <trkpt lat="43.66806" lon="6.19676">
        <ele>776.3</ele>
        <time>2023-10-09T13:30:28Z</time>
      </trkpt>
      <trkpt lat="43.66807" lon="6.19677">
        <ele>776.4</ele>
        <time>2023-10-09T13:30:29Z</time>
      </trkpt>
      <trkpt lat="43.66807" lon="6.19678">
        <ele>776.6</ele>
        <time>2023-10-09T13:30:30Z</time>
      </trkpt>
      <trkpt lat="43.66808" lon="6.19679">
        <ele>776.6</ele>
        <time>2023-10-09T13:30:31Z</time>
      </trkpt>
      <trkpt lat="43.66808" lon="6.1968">
        <ele>776.8</ele>
        <time>2023-10-09T13:30:32Z</time>
      </trkpt>
      <trkpt lat="43.66808" lon="6.19681">
        <ele>776.9</ele>
        <time>2023-10-09T13:30:33Z</time>
      </trkpt>
      <trkpt lat="43.66809" lon="6.19682">
        <ele>777</ele>
        <time>2023-10-09T13:30:34Z</time>
      </trkpt>
      <trkpt lat="43.66809" lon="6.19683">
        <ele>777.2</ele>
        <time>2023-10-09T13:30:35Z</time>
      </trkpt>
      <trkpt lat="43.66809" lon="6.19684">
        <ele>777.3</ele>
        <time>2023-10-09T13:30:36Z</time>
      </trkpt>
      <trkpt lat="43.66809" lon="6.19685">
        <ele>777.4</ele>
        <time>2023-10-09T13:30:37Z</time>
      </trkpt>
      <trkpt lat="43.6681" lon="6.19686">
        <ele>777.5</ele>
        <time>2023-10-09T13:30:38Z</time>
      </trkpt>
      <trkpt lat="43.6681" lon="6.19687">
        <ele>777.7</ele>
        <time>2023-10-09T13:30:39Z</time>
      </trkpt>
      <trkpt lat="43.66811" lon="6.19688">
        <ele>777.7</ele>
        <time>2023-10-09T13:30:40Z</time>
      </trkpt>
      <trkpt lat="43.66811" lon="6.19689">
        <ele>777.9</ele>
        <time>2023-10-09T13:30:41Z</time>
      </trkpt>
      <trkpt lat="43.66811" lon="6.1969">
        <ele>778</ele>
        <time>2023-10-09T13:30:42Z</time>
      </trkpt>
      <trkpt lat="43.66811" lon="6.19691">
        <ele>778.1</ele>
        <time>2023-10-09T13:30:43Z</time>
      </trkpt>
      <trkpt lat="43.66812" lon="6.19692">
        <ele>778.2</ele>
        <time>2023-10-09T13:30:44Z</time>
      </trkpt>
      <trkpt lat="43.66812" lon="6.19693">
        <ele>778.3</ele>
        <time>2023-10-09T13:30:45Z</time>
      </trkpt>
      <trkpt lat="43.66812" lon="6.19694">
        <ele>778.5</ele>
        <time>2023-10-09T13:30:46Z</time>
      </trkpt>
      <trkpt lat="43.66812" lon="6.19694">
        <ele>778.5</ele>
        <time>2023-10-09T13:30:47Z</time>
      </trkpt>
      <trkpt lat="43.66812" lon="6.19695">
        <ele>778.6</ele>
        <time>2023-10-09T13:30:48Z</time>
      </trkpt>
      <trkpt lat="43.66813" lon="6.19696">
        <ele>778.6</ele>
        <time>2023-10-09T13:30:49Z</time>
      </trkpt>
      <trkpt lat="43.66813" lon="6.19697">
        <ele>778.7</ele>
        <time>2023-10-09T13:30:50Z</time>
      </trkpt>
      <trkpt lat="43.66813" lon="6.19699">
        <ele>779</ele>
        <time>2023-10-09T13:30:51Z</time>
      </trkpt>
      <trkpt lat="43.66814" lon="6.197">
        <ele>779</ele>
        <time>2023-10-09T13:30:52Z</time>
      </trkpt>
      <trkpt lat="43.66814" lon="6.19701">
        <ele>779.1</ele>
        <time>2023-10-09T13:30:53Z</time>
      </trkpt>
      <trkpt lat="43.66814" lon="6.19702">
        <ele>779.2</ele>
        <time>2023-10-09T13:30:54Z</time>
      </trkpt>
      <trkpt lat="43.66814" lon="6.19703">
        <ele>779.3</ele>
        <time>2023-10-09T13:30:55Z</time>
      </trkpt>
      <trkpt lat="43.66814" lon="6.19705">
        <ele>779.5</ele>
        <time>2023-10-09T13:30:56Z</time>
      </trkpt>
      <trkpt lat="43.66815" lon="6.19706">
        <ele>779.6</ele>
        <time>2023-10-09T13:30:57Z</time>
      </trkpt>
      <trkpt lat="43.66815" lon="6.19708">
        <ele>779.8</ele>
        <time>2023-10-09T13:30:58Z</time>
      </trkpt>
      <trkpt lat="43.66816" lon="6.19709">
        <ele>779.8</ele>
        <time>2023-10-09T13:30:59Z</time>
      </trkpt>
      <trkpt lat="43.66816" lon="6.1971">
        <ele>779.9</ele>
        <time>2023-10-09T13:31:00Z</time>
      </trkpt>
      <trkpt lat="43.66817" lon="6.19711">
        <ele>780</ele>
        <time>2023-10-09T13:31:01Z</time>
      </trkpt>
      <trkpt lat="43.66817" lon="6.19712">
        <ele>780.1</ele>
        <time>2023-10-09T13:31:02Z</time>
      </trkpt>
      <trkpt lat="43.66817" lon="6.19713">
        <ele>780.2</ele>
        <time>2023-10-09T13:31:03Z</time>
      </trkpt>
      <trkpt lat="43.66818" lon="6.19714">
        <ele>780.2</ele>
        <time>2023-10-09T13:31:04Z</time>
      </trkpt>
      <trkpt lat="43.66818" lon="6.19716">
        <ele>780.4</ele>
        <time>2023-10-09T13:31:05Z</time>
      </trkpt>
      <trkpt lat="43.66819" lon="6.19717">
        <ele>780.5</ele>
        <time>2023-10-09T13:31:06Z</time>
      </trkpt>
      <trkpt lat="43.66819" lon="6.19718">
        <ele>780.6</ele>
        <time>2023-10-09T13:31:07Z</time>
      </trkpt>
      <trkpt lat="43.66819" lon="6.19718">
        <ele>780.6</ele>
        <time>2023-10-09T13:31:08Z</time>
      </trkpt>
      <trkpt lat="43.6682" lon="6.1972">
        <ele>780.7</ele>
        <time>2023-10-09T13:31:09Z</time>
      </trkpt>
      <trkpt lat="43.6682" lon="6.19721">
        <ele>780.8</ele>
        <time>2023-10-09T13:31:10Z</time>
      </trkpt>
      <trkpt lat="43.6682" lon="6.19722">
        <ele>780.9</ele>
        <time>2023-10-09T13:31:11Z</time>
      </trkpt>
      <trkpt lat="43.6682" lon="6.19724">
        <ele>781.1</ele>
        <time>2023-10-09T13:31:12Z</time>
      </trkpt>
      <trkpt lat="43.6682" lon="6.19725">
        <ele>781.2</ele>
        <time>2023-10-09T13:31:13Z</time>
      </trkpt>
      <trkpt lat="43.66821" lon="6.19726">
        <ele>781.2</ele>
        <time>2023-10-09T13:31:14Z</time>
      </trkpt>
      <trkpt lat="43.66821" lon="6.19727">
        <ele>781.2</ele>
        <time>2023-10-09T13:31:15Z</time>
      </trkpt>
      <trkpt lat="43.66822" lon="6.19728">
        <ele>781.2</ele>
        <time>2023-10-09T13:31:16Z</time>
      </trkpt>
      <trkpt lat="43.66822" lon="6.19729">
        <ele>781.3</ele>
        <time>2023-10-09T13:31:17Z</time>
      </trkpt>
      <trkpt lat="43.66823" lon="6.1973">
        <ele>781.3</ele>
        <time>2023-10-09T13:31:18Z</time>
      </trkpt>
      <trkpt lat="43.66823" lon="6.19731">
        <ele>781.4</ele>
        <time>2023-10-09T13:31:19Z</time>
      </trkpt>
      <trkpt lat="43.66823" lon="6.19732">
        <ele>781.4</ele>
        <time>2023-10-09T13:31:20Z</time>
      </trkpt>
      <trkpt lat="43.66824" lon="6.19733">
        <ele>781.4</ele>
        <time>2023-10-09T13:31:21Z</time>
      </trkpt>
      <trkpt lat="43.66824" lon="6.19734">
        <ele>781.5</ele>
        <time>2023-10-09T13:31:22Z</time>
      </trkpt>
      <trkpt lat="43.66824" lon="6.19735">
        <ele>781.6</ele>
        <time>2023-10-09T13:31:23Z</time>
      </trkpt>
      <trkpt lat="43.66824" lon="6.19737">
        <ele>781.7</ele>
        <time>2023-10-09T13:31:24Z</time>
      </trkpt>
      <trkpt lat="43.66825" lon="6.19738">
        <ele>781.7</ele>
        <time>2023-10-09T13:31:25Z</time>
      </trkpt>
      <trkpt lat="43.66825" lon="6.19739">
        <ele>781.8</ele>
        <time>2023-10-09T13:31:26Z</time>
      </trkpt>
      <trkpt lat="43.66826" lon="6.1974">
        <ele>781.8</ele>
        <time>2023-10-09T13:31:27Z</time>
      </trkpt>
      <trkpt lat="43.66826" lon="6.19741">
        <ele>781.9</ele>
        <time>2023-10-09T13:31:28Z</time>
      </trkpt>
      <trkpt lat="43.66826" lon="6.19743">
        <ele>782</ele>
        <time>2023-10-09T13:31:29Z</time>
      </trkpt>
      <trkpt lat="43.66826" lon="6.19744">
        <ele>782.1</ele>
        <time>2023-10-09T13:31:30Z</time>
      </trkpt>
      <trkpt lat="43.66826" lon="6.19746">
        <ele>782.2</ele>
        <time>2023-10-09T13:31:31Z</time>
      </trkpt>
      <trkpt lat="43.66826" lon="6.19747">
        <ele>782.3</ele>
        <time>2023-10-09T13:31:32Z</time>
      </trkpt>
      <trkpt lat="43.66826" lon="6.19748">
        <ele>782.4</ele>
        <time>2023-10-09T13:31:33Z</time>
      </trkpt>
      <trkpt lat="43.66827" lon="6.1975">
        <ele>782.5</ele>
        <time>2023-10-09T13:31:34Z</time>
      </trkpt>
      <trkpt lat="43.66827" lon="6.19751">
        <ele>782.5</ele>
        <time>2023-10-09T13:31:35Z</time>
      </trkpt>
      <trkpt lat="43.66827" lon="6.19752">
        <ele>782.6</ele>
        <time>2023-10-09T13:31:36Z</time>
      </trkpt>
      <trkpt lat="43.66827" lon="6.19753">
        <ele>782.7</ele>
        <time>2023-10-09T13:31:37Z</time>
      </trkpt>
      <trkpt lat="43.66827" lon="6.19755">
        <ele>782.9</ele>
        <time>2023-10-09T13:31:38Z</time>
      </trkpt>
      <trkpt lat="43.66827" lon="6.19756">
        <ele>782.9</ele>
        <time>2023-10-09T13:31:39Z</time>
      </trkpt>
      <trkpt lat="43.66827" lon="6.19758">
        <ele>783.1</ele>
        <time>2023-10-09T13:31:40Z</time>
      </trkpt>
      <trkpt lat="43.66828" lon="6.19759">
        <ele>783.1</ele>
        <time>2023-10-09T13:31:41Z</time>
      </trkpt>
      <trkpt lat="43.66828" lon="6.1976">
        <ele>783.2</ele>
        <time>2023-10-09T13:31:42Z</time>
      </trkpt>
      <trkpt lat="43.66828" lon="6.19762">
        <ele>783.3</ele>
        <time>2023-10-09T13:31:43Z</time>
      </trkpt>
      <trkpt lat="43.66829" lon="6.19763">
        <ele>783.3</ele>
        <time>2023-10-09T13:31:44Z</time>
      </trkpt>
      <trkpt lat="43.66829" lon="6.19764">
        <ele>783.4</ele>
        <time>2023-10-09T13:31:45Z</time>
      </trkpt>
      <trkpt lat="43.6683" lon="6.19765">
        <ele>783.4</ele>
        <time>2023-10-09T13:31:46Z</time>
      </trkpt>
      <trkpt lat="43.6683" lon="6.19767">
        <ele>783.5</ele>
        <time>2023-10-09T13:31:47Z</time>
      </trkpt>
      <trkpt lat="43.66831" lon="6.19768">
        <ele>783.5</ele>
        <time>2023-10-09T13:31:48Z</time>
      </trkpt>
      <trkpt lat="43.66831" lon="6.19769">
        <ele>783.6</ele>
        <time>2023-10-09T13:31:49Z</time>
      </trkpt>
      <trkpt lat="43.66831" lon="6.1977">
        <ele>783.7</ele>
        <time>2023-10-09T13:31:50Z</time>
      </trkpt>
      <trkpt lat="43.66832" lon="6.19772">
        <ele>783.7</ele>
        <time>2023-10-09T13:31:51Z</time>
      </trkpt>
      <trkpt lat="43.66832" lon="6.19773">
        <ele>783.8</ele>
        <time>2023-10-09T13:31:52Z</time>
      </trkpt>
      <trkpt lat="43.66833" lon="6.19774">
        <ele>783.8</ele>
        <time>2023-10-09T13:31:53Z</time>
      </trkpt>
      <trkpt lat="43.66833" lon="6.19775">
        <ele>783.8</ele>
        <time>2023-10-09T13:31:54Z</time>
      </trkpt>
      <trkpt lat="43.66833" lon="6.19777">
        <ele>784</ele>
        <time>2023-10-09T13:31:55Z</time>
      </trkpt>
      <trkpt lat="43.66833" lon="6.19779">
        <ele>784.1</ele>
        <time>2023-10-09T13:31:56Z</time>
      </trkpt>
      <trkpt lat="43.66833" lon="6.1978">
        <ele>784.2</ele>
        <time>2023-10-09T13:31:57Z</time>
      </trkpt>
      <trkpt lat="43.66833" lon="6.19781">
        <ele>784.3</ele>
        <time>2023-10-09T13:31:58Z</time>
      </trkpt>
      <trkpt lat="43.66833" lon="6.19782">
        <ele>784.3</ele>
        <time>2023-10-09T13:31:59Z</time>
      </trkpt>
      <trkpt lat="43.66833" lon="6.19783">
        <ele>784.4</ele>
        <time>2023-10-09T13:32:00Z</time>
      </trkpt>
      <trkpt lat="43.66833" lon="6.19784">
        <ele>784.5</ele>
        <time>2023-10-09T13:32:01Z</time>
      </trkpt>
      <trkpt lat="43.66834" lon="6.19785">
        <ele>784.4</ele>
        <time>2023-10-09T13:32:02Z</time>
      </trkpt>
      <trkpt lat="43.66834" lon="6.19786">
        <ele>784.5</ele>
        <time>2023-10-09T13:32:03Z</time>
      </trkpt>
      <trkpt lat="43.66834" lon="6.19788">
        <ele>784.7</ele>
        <time>2023-10-09T13:32:04Z</time>
      </trkpt>
      <trkpt lat="43.66834" lon="6.19789">
        <ele>784.7</ele>
        <time>2023-10-09T13:32:05Z</time>
      </trkpt>
      <trkpt lat="43.66834" lon="6.1979">
        <ele>784.8</ele>
        <time>2023-10-09T13:32:06Z</time>
      </trkpt>
      <trkpt lat="43.66835" lon="6.19792">
        <ele>784.8</ele>
        <time>2023-10-09T13:32:07Z</time>
      </trkpt>
      <trkpt lat="43.66835" lon="6.19793">
        <ele>784.9</ele>
        <time>2023-10-09T13:32:08Z</time>
      </trkpt>
      <trkpt lat="43.66835" lon="6.19794">
        <ele>785</ele>
        <time>2023-10-09T13:32:09Z</time>
      </trkpt>
      <trkpt lat="43.66836" lon="6.19795">
        <ele>785</ele>
        <time>2023-10-09T13:32:10Z</time>
      </trkpt>
      <trkpt lat="43.66836" lon="6.19797">
        <ele>785.1</ele>
        <time>2023-10-09T13:32:11Z</time>
      </trkpt>
      <trkpt lat="43.66837" lon="6.19798">
        <ele>785.1</ele>
        <time>2023-10-09T13:32:12Z</time>
      </trkpt>
      <trkpt lat="43.66837" lon="6.19799">
        <ele>785.1</ele>
        <time>2023-10-09T13:32:13Z</time>
      </trkpt>
      <trkpt lat="43.66837" lon="6.198">
        <ele>785.2</ele>
        <time>2023-10-09T13:32:14Z</time>
      </trkpt>
      <trkpt lat="43.66837" lon="6.19801">
        <ele>785.3</ele>
        <time>2023-10-09T13:32:15Z</time>
      </trkpt>
      <trkpt lat="43.66837" lon="6.19803">
        <ele>785.4</ele>
        <time>2023-10-09T13:32:16Z</time>
      </trkpt>
      <trkpt lat="43.66837" lon="6.19804">
        <ele>785.5</ele>
        <time>2023-10-09T13:32:17Z</time>
      </trkpt>
      <trkpt lat="43.66838" lon="6.19805">
        <ele>785.5</ele>
        <time>2023-10-09T13:32:18Z</time>
      </trkpt>
      <trkpt lat="43.66838" lon="6.19807">
        <ele>785.7</ele>
        <time>2023-10-09T13:32:19Z</time>
      </trkpt>
      <trkpt lat="43.66838" lon="6.19808">
        <ele>785.9</ele>
        <time>2023-10-09T13:32:20Z</time>
      </trkpt>
      <trkpt lat="43.66839" lon="6.1981">
        <ele>786.1</ele>
        <time>2023-10-09T13:32:21Z</time>
      </trkpt>
      <trkpt lat="43.66839" lon="6.19811">
        <ele>786.2</ele>
        <time>2023-10-09T13:32:22Z</time>
      </trkpt>
      <trkpt lat="43.6684" lon="6.19812">
        <ele>786.3</ele>
        <time>2023-10-09T13:32:23Z</time>
      </trkpt>
      <trkpt lat="43.66841" lon="6.19813">
        <ele>786.3</ele>
        <time>2023-10-09T13:32:24Z</time>
      </trkpt>
      <trkpt lat="43.66841" lon="6.19815">
        <ele>786.6</ele>
        <time>2023-10-09T13:32:25Z</time>
      </trkpt>
      <trkpt lat="43.66841" lon="6.19816">
        <ele>786.8</ele>
        <time>2023-10-09T13:32:26Z</time>
      </trkpt>
      <trkpt lat="43.66842" lon="6.19817">
        <ele>786.8</ele>
        <time>2023-10-09T13:32:27Z</time>
      </trkpt>
      <trkpt lat="43.66842" lon="6.19819">
        <ele>787.2</ele>
        <time>2023-10-09T13:32:28Z</time>
      </trkpt>
      <trkpt lat="43.66843" lon="6.1982">
        <ele>787.2</ele>
        <time>2023-10-09T13:32:29Z</time>
      </trkpt>
      <trkpt lat="43.66843" lon="6.19821">
        <ele>787.4</ele>
        <time>2023-10-09T13:32:30Z</time>
      </trkpt>
      <trkpt lat="43.66844" lon="6.19822">
        <ele>787.4</ele>
        <time>2023-10-09T13:32:31Z</time>
      </trkpt>
      <trkpt lat="43.66844" lon="6.19823">
        <ele>787.6</ele>
        <time>2023-10-09T13:32:32Z</time>
      </trkpt>
      <trkpt lat="43.66845" lon="6.19824">
        <ele>787.7</ele>
        <time>2023-10-09T13:32:33Z</time>
      </trkpt>
      <trkpt lat="43.66845" lon="6.19826">
        <ele>788</ele>
        <time>2023-10-09T13:32:34Z</time>
      </trkpt>
      <trkpt lat="43.66846" lon="6.19827">
        <ele>788.1</ele>
        <time>2023-10-09T13:32:35Z</time>
      </trkpt>
      <trkpt lat="43.66846" lon="6.19828">
        <ele>788.2</ele>
        <time>2023-10-09T13:32:36Z</time>
      </trkpt>
      <trkpt lat="43.66846" lon="6.19829">
        <ele>788.4</ele>
        <time>2023-10-09T13:32:37Z</time>
      </trkpt>
      <trkpt lat="43.66846" lon="6.1983">
        <ele>788.6</ele>
        <time>2023-10-09T13:32:38Z</time>
      </trkpt>
      <trkpt lat="43.66846" lon="6.19832">
        <ele>788.9</ele>
        <time>2023-10-09T13:32:39Z</time>
      </trkpt>
      <trkpt lat="43.66847" lon="6.19833">
        <ele>789</ele>
        <time>2023-10-09T13:32:40Z</time>
      </trkpt>
      <trkpt lat="43.66847" lon="6.19834">
        <ele>789.1</ele>
        <time>2023-10-09T13:32:41Z</time>
      </trkpt>
      <trkpt lat="43.66847" lon="6.19835">
        <ele>789.2</ele>
        <time>2023-10-09T13:32:42Z</time>
      </trkpt>
      <trkpt lat="43.66847" lon="6.19836">
        <ele>789.4</ele>
        <time>2023-10-09T13:32:43Z</time>
      </trkpt>
      <trkpt lat="43.66847" lon="6.19838">
        <ele>789.6</ele>
        <time>2023-10-09T13:32:44Z</time>
      </trkpt>
      <trkpt lat="43.66848" lon="6.19839">
        <ele>789.7</ele>
        <time>2023-10-09T13:32:45Z</time>
      </trkpt>
      <trkpt lat="43.66848" lon="6.1984">
        <ele>789.8</ele>
        <time>2023-10-09T13:32:46Z</time>
      </trkpt>
      <trkpt lat="43.66848" lon="6.19841">
        <ele>789.9</ele>
        <time>2023-10-09T13:32:47Z</time>
      </trkpt>
      <trkpt lat="43.66849" lon="6.19842">
        <ele>790</ele>
        <time>2023-10-09T13:32:48Z</time>
      </trkpt>
      <trkpt lat="43.66849" lon="6.19843">
        <ele>790.1</ele>
        <time>2023-10-09T13:32:49Z</time>
      </trkpt>
      <trkpt lat="43.66849" lon="6.19844">
        <ele>790.2</ele>
        <time>2023-10-09T13:32:50Z</time>
      </trkpt>
      <trkpt lat="43.66849" lon="6.19845">
        <ele>790.4</ele>
        <time>2023-10-09T13:32:51Z</time>
      </trkpt>
      <trkpt lat="43.66849" lon="6.19846">
        <ele>790.5</ele>
        <time>2023-10-09T13:32:52Z</time>
      </trkpt>
      <trkpt lat="43.6685" lon="6.19847">
        <ele>790.6</ele>
        <time>2023-10-09T13:32:53Z</time>
      </trkpt>
      <trkpt lat="43.6685" lon="6.19848">
        <ele>790.7</ele>
        <time>2023-10-09T13:32:54Z</time>
      </trkpt>
      <trkpt lat="43.66851" lon="6.19849">
        <ele>790.8</ele>
        <time>2023-10-09T13:32:55Z</time>
      </trkpt>
      <trkpt lat="43.66851" lon="6.1985">
        <ele>790.9</ele>
        <time>2023-10-09T13:32:56Z</time>
      </trkpt>
      <trkpt lat="43.66851" lon="6.19851">
        <ele>791</ele>
        <time>2023-10-09T13:32:57Z</time>
      </trkpt>
      <trkpt lat="43.66851" lon="6.19853">
        <ele>791.3</ele>
        <time>2023-10-09T13:32:58Z</time>
      </trkpt>
      <trkpt lat="43.66851" lon="6.19854">
        <ele>791.4</ele>
        <time>2023-10-09T13:32:59Z</time>
      </trkpt>
      <trkpt lat="43.66851" lon="6.19855">
        <ele>791.6</ele>
        <time>2023-10-09T13:33:00Z</time>
      </trkpt>
      <trkpt lat="43.66852" lon="6.19856">
        <ele>791.7</ele>
        <time>2023-10-09T13:33:01Z</time>
      </trkpt>
      <trkpt lat="43.66852" lon="6.19856">
        <ele>791.7</ele>
        <time>2023-10-09T13:33:02Z</time>
      </trkpt>
      <trkpt lat="43.66852" lon="6.19857">
        <ele>791.8</ele>
        <time>2023-10-09T13:33:03Z</time>
      </trkpt>
      <trkpt lat="43.66853" lon="6.19858">
        <ele>791.9</ele>
        <time>2023-10-09T13:33:04Z</time>
      </trkpt>
      <trkpt lat="43.66853" lon="6.19859">
        <ele>792</ele>
        <time>2023-10-09T13:33:05Z</time>
      </trkpt>
      <trkpt lat="43.66854" lon="6.19859">
        <ele>792</ele>
        <time>2023-10-09T13:33:06Z</time>
      </trkpt>
      <trkpt lat="43.66854" lon="6.1986">
        <ele>792.1</ele>
        <time>2023-10-09T13:33:07Z</time>
      </trkpt>
      <trkpt lat="43.66854" lon="6.19861">
        <ele>792.2</ele>
        <time>2023-10-09T13:33:08Z</time>
      </trkpt>
      <trkpt lat="43.66854" lon="6.19862">
        <ele>792.4</ele>
        <time>2023-10-09T13:33:09Z</time>
      </trkpt>
      <trkpt lat="43.66854" lon="6.19863">
        <ele>792.6</ele>
        <time>2023-10-09T13:33:10Z</time>
      </trkpt>
      <trkpt lat="43.66854" lon="6.19864">
        <ele>792.7</ele>
        <time>2023-10-09T13:33:11Z</time>
      </trkpt>
      <trkpt lat="43.66855" lon="6.19865">
        <ele>792.9</ele>
        <time>2023-10-09T13:33:12Z</time>
      </trkpt>
      <trkpt lat="43.66855" lon="6.19866">
        <ele>793</ele>
        <time>2023-10-09T13:33:13Z</time>
      </trkpt>
      <trkpt lat="43.66855" lon="6.19866">
        <ele>793</ele>
        <time>2023-10-09T13:33:14Z</time>
      </trkpt>
      <trkpt lat="43.66855" lon="6.19867">
        <ele>793.2</ele>
        <time>2023-10-09T13:33:15Z</time>
      </trkpt>
      <trkpt lat="43.66855" lon="6.19868">
        <ele>793.4</ele>
        <time>2023-10-09T13:33:16Z</time>
      </trkpt>
      <trkpt lat="43.66855" lon="6.19869">
        <ele>793.5</ele>
        <time>2023-10-09T13:33:17Z</time>
      </trkpt>
      <trkpt lat="43.66856" lon="6.1987">
        <ele>793.7</ele>
        <time>2023-10-09T13:33:18Z</time>
      </trkpt>
      <trkpt lat="43.66856" lon="6.19871">
        <ele>793.8</ele>
        <time>2023-10-09T13:33:19Z</time>
      </trkpt>
      <trkpt lat="43.66856" lon="6.19872">
        <ele>794</ele>
        <time>2023-10-09T13:33:20Z</time>
      </trkpt>
      <trkpt lat="43.66856" lon="6.19873">
        <ele>794.2</ele>
        <time>2023-10-09T13:33:21Z</time>
      </trkpt>
      <trkpt lat="43.66856" lon="6.19874">
        <ele>794.3</ele>
        <time>2023-10-09T13:33:22Z</time>
      </trkpt>
      <trkpt lat="43.66855" lon="6.19875">
        <ele>794.5</ele>
        <time>2023-10-09T13:33:23Z</time>
      </trkpt>
      <trkpt lat="43.66856" lon="6.19876">
        <ele>794.7</ele>
        <time>2023-10-09T13:33:24Z</time>
      </trkpt>
      <trkpt lat="43.66855" lon="6.19877">
        <ele>794.8</ele>
        <time>2023-10-09T13:33:25Z</time>
      </trkpt>
      <trkpt lat="43.66856" lon="6.19878">
        <ele>795</ele>
        <time>2023-10-09T13:33:26Z</time>
      </trkpt>
      <trkpt lat="43.66856" lon="6.19879">
        <ele>795.2</ele>
        <time>2023-10-09T13:33:27Z</time>
      </trkpt>
      <trkpt lat="43.66856" lon="6.19881">
        <ele>795.5</ele>
        <time>2023-10-09T13:33:28Z</time>
      </trkpt>
      <trkpt lat="43.66856" lon="6.19882">
        <ele>795.7</ele>
        <time>2023-10-09T13:33:29Z</time>
      </trkpt>
      <trkpt lat="43.66856" lon="6.19883">
        <ele>795.8</ele>
        <time>2023-10-09T13:33:30Z</time>
      </trkpt>
      <trkpt lat="43.66855" lon="6.19884">
        <ele>796</ele>
        <time>2023-10-09T13:33:31Z</time>
      </trkpt>
      <trkpt lat="43.66855" lon="6.19885">
        <ele>796.1</ele>
        <time>2023-10-09T13:33:32Z</time>
      </trkpt>
      <trkpt lat="43.66855" lon="6.19886">
        <ele>796.3</ele>
        <time>2023-10-09T13:33:33Z</time>
      </trkpt>
      <trkpt lat="43.66855" lon="6.19887">
        <ele>796.5</ele>
        <time>2023-10-09T13:33:34Z</time>
      </trkpt>
      <trkpt lat="43.66855" lon="6.19888">
        <ele>796.6</ele>
        <time>2023-10-09T13:33:35Z</time>
      </trkpt>
      <trkpt lat="43.66855" lon="6.19889">
        <ele>796.8</ele>
        <time>2023-10-09T13:33:36Z</time>
      </trkpt>
      <trkpt lat="43.66855" lon="6.19891">
        <ele>796.9</ele>
        <time>2023-10-09T13:33:37Z</time>
      </trkpt>
      <trkpt lat="43.66855" lon="6.19891">
        <ele>796.9</ele>
        <time>2023-10-09T13:33:38Z</time>
      </trkpt>
      <trkpt lat="43.66855" lon="6.19892">
        <ele>797</ele>
        <time>2023-10-09T13:33:39Z</time>
      </trkpt>
      <trkpt lat="43.66855" lon="6.19893">
        <ele>797</ele>
        <time>2023-10-09T13:33:40Z</time>
      </trkpt>
      <trkpt lat="43.66855" lon="6.19893">
        <ele>797</ele>
        <time>2023-10-09T13:33:41Z</time>
      </trkpt>
      <trkpt lat="43.66854" lon="6.19894">
        <ele>797</ele>
        <time>2023-10-09T13:33:42Z</time>
      </trkpt>
      <trkpt lat="43.66854" lon="6.19895">
        <ele>797.1</ele>
        <time>2023-10-09T13:33:43Z</time>
      </trkpt>
      <trkpt lat="43.66854" lon="6.19895">
        <ele>797.1</ele>
        <time>2023-10-09T13:33:44Z</time>
      </trkpt>
      <trkpt lat="43.66854" lon="6.19896">
        <ele>797.1</ele>
        <time>2023-10-09T13:33:45Z</time>
      </trkpt>
      <trkpt lat="43.66854" lon="6.19897">
        <ele>797.2</ele>
        <time>2023-10-09T13:33:46Z</time>
      </trkpt>
      <trkpt lat="43.66853" lon="6.19898">
        <ele>797.2</ele>
        <time>2023-10-09T13:33:47Z</time>
      </trkpt>
      <trkpt lat="43.66853" lon="6.19899">
        <ele>797.2</ele>
        <time>2023-10-09T13:33:48Z</time>
      </trkpt>
      <trkpt lat="43.66853" lon="6.199">
        <ele>797.3</ele>
        <time>2023-10-09T13:33:49Z</time>
      </trkpt>
      <trkpt lat="43.66852" lon="6.19901">
        <ele>797.3</ele>
        <time>2023-10-09T13:33:50Z</time>
      </trkpt>
      <trkpt lat="43.66852" lon="6.19902">
        <ele>797.3</ele>
        <time>2023-10-09T13:33:51Z</time>
      </trkpt>
      <trkpt lat="43.66852" lon="6.19903">
        <ele>797.4</ele>
        <time>2023-10-09T13:33:52Z</time>
      </trkpt>
      <trkpt lat="43.66852" lon="6.19904">
        <ele>797.4</ele>
        <time>2023-10-09T13:33:53Z</time>
      </trkpt>
      <trkpt lat="43.66851" lon="6.19904">
        <ele>797.3</ele>
        <time>2023-10-09T13:33:54Z</time>
      </trkpt>
      <trkpt lat="43.66851" lon="6.19905">
        <ele>797.4</ele>
        <time>2023-10-09T13:33:55Z</time>
      </trkpt>
      <trkpt lat="43.66851" lon="6.19906">
        <ele>797.4</ele>
        <time>2023-10-09T13:33:56Z</time>
      </trkpt>
      <trkpt lat="43.6685" lon="6.19907">
        <ele>797.4</ele>
        <time>2023-10-09T13:33:57Z</time>
      </trkpt>
      <trkpt lat="43.6685" lon="6.19907">
        <ele>797.4</ele>
        <time>2023-10-09T13:33:58Z</time>
      </trkpt>
      <trkpt lat="43.6685" lon="6.19908">
        <ele>797.4</ele>
        <time>2023-10-09T13:33:59Z</time>
      </trkpt>
      <trkpt lat="43.6685" lon="6.19908">
        <ele>797.4</ele>
        <time>2023-10-09T13:34:00Z</time>
      </trkpt>
      <trkpt lat="43.66849" lon="6.19908">
        <ele>797.3</ele>
        <time>2023-10-09T13:34:01Z</time>
      </trkpt>
      <trkpt lat="43.66849" lon="6.19908">
        <ele>797.3</ele>
        <time>2023-10-09T13:34:02Z</time>
      </trkpt>
      <trkpt lat="43.66849" lon="6.19908">
        <ele>797.3</ele>
        <time>2023-10-09T13:34:03Z</time>
      </trkpt>
      <trkpt lat="43.6685" lon="6.19909">
        <ele>797.5</ele>
        <time>2023-10-09T13:34:04Z</time>
      </trkpt>
      <trkpt lat="43.6685" lon="6.19909">
        <ele>797.5</ele>
        <time>2023-10-09T13:34:05Z</time>
      </trkpt>
      <trkpt lat="43.6685" lon="6.19909">
        <ele>797.5</ele>
        <time>2023-10-09T13:34:06Z</time>
      </trkpt>
      <trkpt lat="43.6685" lon="6.19909">
        <ele>797.5</ele>
        <time>2023-10-09T13:34:07Z</time>
      </trkpt>
      <trkpt lat="43.6685" lon="6.19909">
        <ele>797.5</ele>
        <time>2023-10-09T13:34:08Z</time>
      </trkpt>
      <trkpt lat="43.6685" lon="6.19909">
        <ele>797.5</ele>
        <time>2023-10-09T13:34:09Z</time>
      </trkpt>
      <trkpt lat="43.6685" lon="6.19909">
        <ele>797.5</ele>
        <time>2023-10-09T13:34:10Z</time>
      </trkpt>
      <trkpt lat="43.6685" lon="6.19909">
        <ele>797.5</ele>
        <time>2023-10-09T13:34:11Z</time>
      </trkpt>
      <trkpt lat="43.6685" lon="6.19909">
        <ele>797.5</ele>
        <time>2023-10-09T13:34:12Z</time>
      </trkpt>
      <trkpt lat="43.6685" lon="6.19909">
        <ele>797.5</ele>
        <time>2023-10-09T13:34:13Z</time>
      </trkpt>
      <trkpt lat="43.6685" lon="6.19909">
        <ele>797.5</ele>
        <time>2023-10-09T13:34:14Z</time>
      </trkpt>
      <trkpt lat="43.6685" lon="6.19909">
        <ele>797.5</ele>
        <time>2023-10-09T13:34:15Z</time>
      </trkpt>
      <trkpt lat="43.6685" lon="6.19909">
        <ele>797.5</ele>
        <time>2023-10-09T13:34:16Z</time>
      </trkpt>
      <trkpt lat="43.6685" lon="6.19909">
        <ele>797.5</ele>
        <time>2023-10-09T13:34:17Z</time>
      </trkpt>
      <trkpt lat="43.6685" lon="6.19909">
        <ele>797.5</ele>
        <time>2023-10-09T13:34:18Z</time>
      </trkpt>
      <trkpt lat="43.6685" lon="6.19909">
        <ele>797.5</ele>
        <time>2023-10-09T13:34:19Z</time>
      </trkpt>
      <trkpt lat="43.6685" lon="6.19909">
        <ele>797.5</ele>
        <time>2023-10-09T13:34:20Z</time>
      </trkpt>
      <trkpt lat="43.6685" lon="6.19909">
        <ele>797.5</ele>
        <time>2023-10-09T13:34:21Z</time>
      </trkpt>
      <trkpt lat="43.6685" lon="6.19909">
        <ele>797.5</ele>
        <time>2023-10-09T13:34:22Z</time>
      </trkpt>
      <trkpt lat="43.6685" lon="6.19909">
        <ele>797.5</ele>
        <time>2023-10-09T13:34:23Z</time>
      </trkpt>
      <trkpt lat="43.6685" lon="6.19909">
        <ele>797.5</ele>
        <time>2023-10-09T13:34:24Z</time>
      </trkpt>
      <trkpt lat="43.6685" lon="6.19909">
        <ele>797.5</ele>
        <time>2023-10-09T13:34:25Z</time>
      </trkpt>
      <trkpt lat="43.6685" lon="6.19909">
        <ele>797.5</ele>
        <time>2023-10-09T13:34:26Z</time>
      </trkpt>
      <trkpt lat="43.6685" lon="6.19909">
        <ele>797.5</ele>
        <time>2023-10-09T13:34:27Z</time>
      </trkpt>
      <trkpt lat="43.6685" lon="6.19909">
        <ele>797.5</ele>
        <time>2023-10-09T13:34:28Z</time>
      </trkpt>
      <trkpt lat="43.6685" lon="6.19909">
        <ele>797.5</ele>
        <time>2023-10-09T13:34:29Z</time>
      </trkpt>
      <trkpt lat="43.6685" lon="6.19909">
        <ele>797.5</ele>
        <time>2023-10-09T13:34:30Z</time>
      </trkpt>
      <trkpt lat="43.6685" lon="6.19909">
        <ele>797.5</ele>
        <time>2023-10-09T13:34:31Z</time>
      </trkpt>
      <trkpt lat="43.6685" lon="6.19909">
        <ele>797.5</ele>
        <time>2023-10-09T13:34:32Z</time>
      </trkpt>
      <trkpt lat="43.6685" lon="6.19909">
        <ele>797.5</ele>
        <time>2023-10-09T13:34:33Z</time>
      </trkpt>
      <trkpt lat="43.6685" lon="6.19909">
        <ele>797.5</ele>
        <time>2023-10-09T13:34:34Z</time>
      </trkpt>
      <trkpt lat="43.6685" lon="6.19909">
        <ele>797.5</ele>
        <time>2023-10-09T13:34:35Z</time>
      </trkpt>
      <trkpt lat="43.6685" lon="6.19909">
        <ele>797.5</ele>
        <time>2023-10-09T13:34:36Z</time>
      </trkpt>
      <trkpt lat="43.6685" lon="6.19909">
        <ele>797.5</ele>
        <time>2023-10-09T13:34:37Z</time>
      </trkpt>
      <trkpt lat="43.6685" lon="6.19909">
        <ele>797.5</ele>
        <time>2023-10-09T13:34:38Z</time>
      </trkpt>
      <trkpt lat="43.6685" lon="6.19909">
        <ele>797.5</ele>
        <time>2023-10-09T13:34:39Z</time>
      </trkpt>
      <trkpt lat="43.6685" lon="6.19909">
        <ele>797.5</ele>
        <time>2023-10-09T13:34:40Z</time>
      </trkpt>
      <trkpt lat="43.6685" lon="6.19909">
        <ele>797.5</ele>
        <time>2023-10-09T13:34:41Z</time>
      </trkpt>
      <trkpt lat="43.6685" lon="6.19909">
        <ele>797.5</ele>
        <time>2023-10-09T13:34:42Z</time>
      </trkpt>
      <trkpt lat="43.6685" lon="6.19909">
        <ele>797.5</ele>
        <time>2023-10-09T13:34:43Z</time>
      </trkpt>
      <trkpt lat="43.6685" lon="6.19909">
        <ele>797.5</ele>
        <time>2023-10-09T13:34:44Z</time>
      </trkpt>
      <trkpt lat="43.6685" lon="6.19909">
        <ele>797.5</ele>
        <time>2023-10-09T13:34:45Z</time>
      </trkpt>
      <trkpt lat="43.6685" lon="6.19909">
        <ele>797.5</ele>
        <time>2023-10-09T13:34:46Z</time>
      </trkpt>
      <trkpt lat="43.6685" lon="6.19909">
        <ele>797.5</ele>
        <time>2023-10-09T13:34:47Z</time>
      </trkpt>
      <trkpt lat="43.6685" lon="6.19909">
        <ele>797.5</ele>
        <time>2023-10-09T13:34:48Z</time>
      </trkpt>
      <trkpt lat="43.6685" lon="6.19909">
        <ele>797.5</ele>
        <time>2023-10-09T13:34:49Z</time>
      </trkpt>
      <trkpt lat="43.6685" lon="6.19909">
        <ele>797.5</ele>
        <time>2023-10-09T13:34:50Z</time>
      </trkpt>
      <trkpt lat="43.6685" lon="6.19909">
        <ele>797.5</ele>
        <time>2023-10-09T13:34:51Z</time>
      </trkpt>
      <trkpt lat="43.6685" lon="6.19909">
        <ele>797.5</ele>
        <time>2023-10-09T13:34:52Z</time>
      </trkpt>
      <trkpt lat="43.6685" lon="6.19909">
        <ele>797.5</ele>
        <time>2023-10-09T13:34:53Z</time>
      </trkpt>
      <trkpt lat="43.6685" lon="6.19909">
        <ele>797.5</ele>
        <time>2023-10-09T13:34:54Z</time>
      </trkpt>
      <trkpt lat="43.6685" lon="6.19909">
        <ele>797.5</ele>
        <time>2023-10-09T13:34:55Z</time>
      </trkpt>
      <trkpt lat="43.6685" lon="6.19909">
        <ele>797.5</ele>
        <time>2023-10-09T13:34:56Z</time>
      </trkpt>
      <trkpt lat="43.6685" lon="6.19909">
        <ele>797.5</ele>
        <time>2023-10-09T13:34:57Z</time>
      </trkpt>
      <trkpt lat="43.6685" lon="6.19909">
        <ele>797.5</ele>
        <time>2023-10-09T13:34:58Z</time>
      </trkpt>
      <trkpt lat="43.6685" lon="6.19909">
        <ele>797.5</ele>
        <time>2023-10-09T13:34:59Z</time>
      </trkpt>
      <trkpt lat="43.6685" lon="6.19909">
        <ele>797.5</ele>
        <time>2023-10-09T13:35:00Z</time>
      </trkpt>
      <trkpt lat="43.6685" lon="6.19909">
        <ele>797.5</ele>
        <time>2023-10-09T13:35:01Z</time>
      </trkpt>
      <trkpt lat="43.6685" lon="6.19909">
        <ele>797.5</ele>
        <time>2023-10-09T13:35:02Z</time>
      </trkpt>
      <trkpt lat="43.6685" lon="6.19909">
        <ele>797.5</ele>
        <time>2023-10-09T13:35:03Z</time>
      </trkpt>
      <trkpt lat="43.6685" lon="6.19909">
        <ele>797.5</ele>
        <time>2023-10-09T13:35:04Z</time>
      </trkpt>
      <trkpt lat="43.6685" lon="6.19909">
        <ele>797.5</ele>
        <time>2023-10-09T13:35:05Z</time>
      </trkpt>
      <trkpt lat="43.6685" lon="6.19909">
        <ele>797.5</ele>
        <time>2023-10-09T13:35:06Z</time>
      </trkpt>
      <trkpt lat="43.6685" lon="6.19909">
        <ele>797.5</ele>
        <time>2023-10-09T13:35:07Z</time>
      </trkpt>
      <trkpt lat="43.6685" lon="6.19909">
        <ele>797.5</ele>
        <time>2023-10-09T13:35:08Z</time>
      </trkpt>
      <trkpt lat="43.6685" lon="6.19909">
        <ele>797.5</ele>
        <time>2023-10-09T13:35:09Z</time>
      </trkpt>
      <trkpt lat="43.6685" lon="6.19909">
        <ele>797.5</ele>
        <time>2023-10-09T13:35:10Z</time>
      </trkpt>
      <trkpt lat="43.6685" lon="6.19909">
        <ele>797.5</ele>
        <time>2023-10-09T13:35:11Z</time>
      </trkpt>
      <trkpt lat="43.6685" lon="6.19909">
        <ele>797.5</ele>
        <time>2023-10-09T13:35:12Z</time>
      </trkpt>
      <trkpt lat="43.6685" lon="6.19909">
        <ele>797.5</ele>
        <time>2023-10-09T13:35:13Z</time>
      </trkpt>
      <trkpt lat="43.6685" lon="6.19909">
        <ele>797.5</ele>
        <time>2023-10-09T13:35:14Z</time>
      </trkpt>
      <trkpt lat="43.6685" lon="6.19909">
        <ele>797.5</ele>
        <time>2023-10-09T13:35:15Z</time>
      </trkpt>
      <trkpt lat="43.6685" lon="6.19909">
        <ele>797.5</ele>
        <time>2023-10-09T13:35:16Z</time>
      </trkpt>
      <trkpt lat="43.6685" lon="6.19909">
        <ele>797.5</ele>
        <time>2023-10-09T13:35:17Z</time>
      </trkpt>
      <trkpt lat="43.6685" lon="6.19909">
        <ele>797.5</ele>
        <time>2023-10-09T13:35:18Z</time>
      </trkpt>
      <trkpt lat="43.6685" lon="6.19909">
        <ele>797.5</ele>
        <time>2023-10-09T13:35:19Z</time>
      </trkpt>
      <trkpt lat="43.6685" lon="6.19909">
        <ele>797.5</ele>
        <time>2023-10-09T13:35:20Z</time>
      </trkpt>
      <trkpt lat="43.6685" lon="6.19909">
        <ele>797.5</ele>
        <time>2023-10-09T13:35:21Z</time>
      </trkpt>
      <trkpt lat="43.6685" lon="6.19909">
        <ele>797.5</ele>
        <time>2023-10-09T13:35:22Z</time>
      </trkpt>
      <trkpt lat="43.6685" lon="6.19909">
        <ele>797.5</ele>
        <time>2023-10-09T13:35:23Z</time>
      </trkpt>
      <trkpt lat="43.6685" lon="6.19909">
        <ele>797.5</ele>
        <time>2023-10-09T13:35:24Z</time>
      </trkpt>
      <trkpt lat="43.6685" lon="6.19909">
        <ele>797.5</ele>
        <time>2023-10-09T13:35:25Z</time>
      </trkpt>
      <trkpt lat="43.6685" lon="6.19909">
        <ele>797.5</ele>
        <time>2023-10-09T13:35:26Z</time>
      </trkpt>
      <trkpt lat="43.6685" lon="6.19909">
        <ele>797.5</ele>
        <time>2023-10-09T13:35:27Z</time>
      </trkpt>
      <trkpt lat="43.6685" lon="6.19909">
        <ele>797.5</ele>
        <time>2023-10-09T13:35:28Z</time>
      </trkpt>
      <trkpt lat="43.6685" lon="6.19909">
        <ele>797.5</ele>
        <time>2023-10-09T13:35:29Z</time>
      </trkpt>
      <trkpt lat="43.6685" lon="6.19909">
        <ele>797.5</ele>
        <time>2023-10-09T13:35:30Z</time>
      </trkpt>
      <trkpt lat="43.6685" lon="6.19909">
        <ele>797.5</ele>
        <time>2023-10-09T13:35:31Z</time>
      </trkpt>
      <trkpt lat="43.6685" lon="6.19909">
        <ele>797.5</ele>
        <time>2023-10-09T13:35:32Z</time>
      </trkpt>
      <trkpt lat="43.6685" lon="6.19909">
        <ele>797.5</ele>
        <time>2023-10-09T13:35:33Z</time>
      </trkpt>
      <trkpt lat="43.6685" lon="6.19909">
        <ele>797.5</ele>
        <time>2023-10-09T13:35:34Z</time>
      </trkpt>
      <trkpt lat="43.6685" lon="6.19909">
        <ele>797.5</ele>
        <time>2023-10-09T13:35:35Z</time>
      </trkpt>
      <trkpt lat="43.6685" lon="6.19909">
        <ele>797.5</ele>
        <time>2023-10-09T13:35:36Z</time>
      </trkpt>
      <trkpt lat="43.6685" lon="6.19909">
        <ele>797.5</ele>
        <time>2023-10-09T13:35:37Z</time>
      </trkpt>
      <trkpt lat="43.6685" lon="6.19909">
        <ele>797.5</ele>
        <time>2023-10-09T13:35:38Z</time>
      </trkpt>
      <trkpt lat="43.6685" lon="6.19909">
        <ele>797.5</ele>
        <time>2023-10-09T13:35:39Z</time>
      </trkpt>
      <trkpt lat="43.6685" lon="6.19909">
        <ele>797.5</ele>
        <time>2023-10-09T13:35:40Z</time>
      </trkpt>
      <trkpt lat="43.6685" lon="6.19909">
        <ele>797.5</ele>
        <time>2023-10-09T13:35:41Z</time>
      </trkpt>
      <trkpt lat="43.6685" lon="6.19909">
        <ele>797.5</ele>
        <time>2023-10-09T13:35:42Z</time>
      </trkpt>
      <trkpt lat="43.6685" lon="6.19909">
        <ele>797.5</ele>
        <time>2023-10-09T13:35:43Z</time>
      </trkpt>
      <trkpt lat="43.6685" lon="6.19909">
        <ele>797.5</ele>
        <time>2023-10-09T13:35:44Z</time>
      </trkpt>
      <trkpt lat="43.6685" lon="6.19909">
        <ele>797.5</ele>
        <time>2023-10-09T13:35:45Z</time>
      </trkpt>
      <trkpt lat="43.6685" lon="6.19909">
        <ele>797.5</ele>
        <time>2023-10-09T13:35:46Z</time>
      </trkpt>
      <trkpt lat="43.6685" lon="6.19909">
        <ele>797.5</ele>
        <time>2023-10-09T13:35:47Z</time>
      </trkpt>
      <trkpt lat="43.6685" lon="6.19909">
        <ele>797.5</ele>
        <time>2023-10-09T13:35:48Z</time>
      </trkpt>
      <trkpt lat="43.6685" lon="6.19909">
        <ele>797.5</ele>
        <time>2023-10-09T13:35:49Z</time>
      </trkpt>
      <trkpt lat="43.6685" lon="6.19909">
        <ele>797.5</ele>
        <time>2023-10-09T13:35:50Z</time>
      </trkpt>
      <trkpt lat="43.6685" lon="6.19909">
        <ele>797.5</ele>
        <time>2023-10-09T13:35:51Z</time>
      </trkpt>
      <trkpt lat="43.6685" lon="6.19909">
        <ele>797.5</ele>
        <time>2023-10-09T13:35:52Z</time>
      </trkpt>
      <trkpt lat="43.6685" lon="6.19909">
        <ele>797.5</ele>
        <time>2023-10-09T13:35:53Z</time>
      </trkpt>
      <trkpt lat="43.6685" lon="6.19909">
        <ele>797.5</ele>
        <time>2023-10-09T13:35:54Z</time>
      </trkpt>
      <trkpt lat="43.6685" lon="6.19909">
        <ele>797.5</ele>
        <time>2023-10-09T13:35:55Z</time>
      </trkpt>
      <trkpt lat="43.6685" lon="6.19909">
        <ele>797.5</ele>
        <time>2023-10-09T13:35:56Z</time>
      </trkpt>
      <trkpt lat="43.6685" lon="6.19909">
        <ele>797.5</ele>
        <time>2023-10-09T13:35:57Z</time>
      </trkpt>
      <trkpt lat="43.6685" lon="6.19909">
        <ele>797.5</ele>
        <time>2023-10-09T13:35:58Z</time>
      </trkpt>
      <trkpt lat="43.6685" lon="6.19909">
        <ele>797.5</ele>
        <time>2023-10-09T13:35:59Z</time>
      </trkpt>
      <trkpt lat="43.6685" lon="6.19909">
        <ele>797.5</ele>
        <time>2023-10-09T13:36:00Z</time>
      </trkpt>
      <trkpt lat="43.6685" lon="6.19909">
        <ele>797.5</ele>
        <time>2023-10-09T13:36:01Z</time>
      </trkpt>
      <trkpt lat="43.6685" lon="6.19909">
        <ele>797.5</ele>
        <time>2023-10-09T13:36:02Z</time>
      </trkpt>
      <trkpt lat="43.6685" lon="6.19909">
        <ele>797.5</ele>
        <time>2023-10-09T13:36:03Z</time>
      </trkpt>
      <trkpt lat="43.6685" lon="6.19909">
        <ele>797.5</ele>
        <time>2023-10-09T13:36:04Z</time>
      </trkpt>
      <trkpt lat="43.6685" lon="6.19909">
        <ele>797.5</ele>
        <time>2023-10-09T13:36:05Z</time>
      </trkpt>
      <trkpt lat="43.6685" lon="6.19909">
        <ele>797.5</ele>
        <time>2023-10-09T13:36:06Z</time>
      </trkpt>
      <trkpt lat="43.6685" lon="6.19909">
        <ele>797.5</ele>
        <time>2023-10-09T13:36:07Z</time>
      </trkpt>
      <trkpt lat="43.6685" lon="6.19909">
        <ele>797.5</ele>
        <time>2023-10-09T13:36:08Z</time>
      </trkpt>
      <trkpt lat="43.6685" lon="6.19909">
        <ele>797.5</ele>
        <time>2023-10-09T13:36:09Z</time>
      </trkpt>
      <trkpt lat="43.6685" lon="6.19909">
        <ele>797.5</ele>
        <time>2023-10-09T13:36:10Z</time>
      </trkpt>
      <trkpt lat="43.6685" lon="6.19909">
        <ele>797.5</ele>
        <time>2023-10-09T13:36:11Z</time>
      </trkpt>
      <trkpt lat="43.6685" lon="6.19909">
        <ele>797.5</ele>
        <time>2023-10-09T13:36:12Z</time>
      </trkpt>
      <trkpt lat="43.6685" lon="6.19909">
        <ele>797.5</ele>
        <time>2023-10-09T13:36:13Z</time>
      </trkpt>
      <trkpt lat="43.6685" lon="6.19909">
        <ele>797.5</ele>
        <time>2023-10-09T13:36:14Z</time>
      </trkpt>
      <trkpt lat="43.6685" lon="6.19909">
        <ele>797.5</ele>
        <time>2023-10-09T13:36:15Z</time>
      </trkpt>
      <trkpt lat="43.6685" lon="6.19909">
        <ele>797.5</ele>
        <time>2023-10-09T13:36:16Z</time>
      </trkpt>
      <trkpt lat="43.6685" lon="6.19909">
        <ele>797.5</ele>
        <time>2023-10-09T13:36:17Z</time>
      </trkpt>
      <trkpt lat="43.6685" lon="6.19909">
        <ele>797.5</ele>
        <time>2023-10-09T13:36:18Z</time>
      </trkpt>
      <trkpt lat="43.6685" lon="6.19909">
        <ele>797.5</ele>
        <time>2023-10-09T13:36:19Z</time>
      </trkpt>
      <trkpt lat="43.6685" lon="6.19909">
        <ele>797.5</ele>
        <time>2023-10-09T13:36:20Z</time>
      </trkpt>
      <trkpt lat="43.6685" lon="6.19909">
        <ele>797.5</ele>
        <time>2023-10-09T13:36:21Z</time>
      </trkpt>
      <trkpt lat="43.6685" lon="6.19909">
        <ele>797.5</ele>
        <time>2023-10-09T13:36:22Z</time>
      </trkpt>
      <trkpt lat="43.6685" lon="6.19909">
        <ele>797.5</ele>
        <time>2023-10-09T13:36:23Z</time>
      </trkpt>
      <trkpt lat="43.6685" lon="6.19909">
        <ele>797.5</ele>
        <time>2023-10-09T13:36:24Z</time>
      </trkpt>
      <trkpt lat="43.6685" lon="6.19909">
        <ele>797.5</ele>
        <time>2023-10-09T13:36:25Z</time>
      </trkpt>
      <trkpt lat="43.6685" lon="6.19909">
        <ele>797.5</ele>
        <time>2023-10-09T13:36:26Z</time>
      </trkpt>
      <trkpt lat="43.6685" lon="6.19909">
        <ele>797.5</ele>
        <time>2023-10-09T13:36:27Z</time>
      </trkpt>
      <trkpt lat="43.6685" lon="6.19907">
        <ele>797.4</ele>
        <time>2023-10-09T13:36:28Z</time>
      </trkpt>
      <trkpt lat="43.66851" lon="6.19907">
        <ele>797.5</ele>
        <time>2023-10-09T13:36:29Z</time>
      </trkpt>
      <trkpt lat="43.66851" lon="6.19908">
        <ele>797.5</ele>
        <time>2023-10-09T13:36:30Z</time>
      </trkpt>
      <trkpt lat="43.66852" lon="6.19909">
        <ele>797.6</ele>
        <time>2023-10-09T13:36:31Z</time>
      </trkpt>
      <trkpt lat="43.66853" lon="6.19909">
        <ele>797.7</ele>
        <time>2023-10-09T13:36:32Z</time>
      </trkpt>
      <trkpt lat="43.66853" lon="6.1991">
        <ele>797.8</ele>
        <time>2023-10-09T13:36:33Z</time>
      </trkpt>
      <trkpt lat="43.66854" lon="6.19911">
        <ele>797.9</ele>
        <time>2023-10-09T13:36:34Z</time>
      </trkpt>
      <trkpt lat="43.66854" lon="6.19912">
        <ele>798</ele>
        <time>2023-10-09T13:36:35Z</time>
      </trkpt>
      <trkpt lat="43.66854" lon="6.19912">
        <ele>798</ele>
        <time>2023-10-09T13:36:36Z</time>
      </trkpt>
      <trkpt lat="43.66854" lon="6.19913">
        <ele>798</ele>
        <time>2023-10-09T13:36:37Z</time>
      </trkpt>
      <trkpt lat="43.66855" lon="6.19913">
        <ele>798.1</ele>
        <time>2023-10-09T13:36:38Z</time>
      </trkpt>
      <trkpt lat="43.66855" lon="6.19913">
        <ele>798.1</ele>
        <time>2023-10-09T13:36:39Z</time>
      </trkpt>
      <trkpt lat="43.66855" lon="6.19913">
        <ele>798.1</ele>
        <time>2023-10-09T13:36:40Z</time>
      </trkpt>
      <trkpt lat="43.66855" lon="6.19912">
        <ele>798.1</ele>
        <time>2023-10-09T13:36:41Z</time>
      </trkpt>
      <trkpt lat="43.66854" lon="6.19912">
        <ele>798</ele>
        <time>2023-10-09T13:36:42Z</time>
      </trkpt>
      <trkpt lat="43.66854" lon="6.19912">
        <ele>798</ele>
        <time>2023-10-09T13:36:43Z</time>
      </trkpt>
      <trkpt lat="43.66854" lon="6.19912">
        <ele>798</ele>
        <time>2023-10-09T13:36:44Z</time>
      </trkpt>
      <trkpt lat="43.66854" lon="6.19912">
        <ele>798</ele>
        <time>2023-10-09T13:36:45Z</time>
      </trkpt>
      <trkpt lat="43.66854" lon="6.19912">
        <ele>798</ele>
        <time>2023-10-09T13:36:46Z</time>
      </trkpt>
      <trkpt lat="43.66854" lon="6.19912">
        <ele>798</ele>
        <time>2023-10-09T13:36:47Z</time>
      </trkpt>
      <trkpt lat="43.66854" lon="6.19912">
        <ele>798</ele>
        <time>2023-10-09T13:36:48Z</time>
      </trkpt>
      <trkpt lat="43.66854" lon="6.19912">
        <ele>798</ele>
        <time>2023-10-09T13:36:49Z</time>
      </trkpt>
      <trkpt lat="43.66854" lon="6.19912">
        <ele>798</ele>
        <time>2023-10-09T13:36:50Z</time>
      </trkpt>
      <trkpt lat="43.66854" lon="6.19912">
        <ele>798</ele>
        <time>2023-10-09T13:36:51Z</time>
      </trkpt>
      <trkpt lat="43.66854" lon="6.19912">
        <ele>798</ele>
        <time>2023-10-09T13:36:52Z</time>
      </trkpt>
      <trkpt lat="43.66854" lon="6.19912">
        <ele>798</ele>
        <time>2023-10-09T13:36:53Z</time>
      </trkpt>
      <trkpt lat="43.66854" lon="6.19912">
        <ele>798</ele>
        <time>2023-10-09T13:36:54Z</time>
      </trkpt>
      <trkpt lat="43.66854" lon="6.19912">
        <ele>798</ele>
        <time>2023-10-09T13:36:55Z</time>
      </trkpt>
      <trkpt lat="43.66854" lon="6.19912">
        <ele>798</ele>
        <time>2023-10-09T13:36:56Z</time>
      </trkpt>
      <trkpt lat="43.66854" lon="6.19912">
        <ele>798</ele>
        <time>2023-10-09T13:36:57Z</time>
      </trkpt>
      <trkpt lat="43.66854" lon="6.19912">
        <ele>798</ele>
        <time>2023-10-09T13:36:58Z</time>
      </trkpt>
      <trkpt lat="43.66854" lon="6.19912">
        <ele>798</ele>
        <time>2023-10-09T13:36:59Z</time>
      </trkpt>
      <trkpt lat="43.66854" lon="6.19912">
        <ele>798</ele>
        <time>2023-10-09T13:37:00Z</time>
      </trkpt>
      <trkpt lat="43.66854" lon="6.19912">
        <ele>798</ele>
        <time>2023-10-09T13:37:01Z</time>
      </trkpt>
      <trkpt lat="43.66854" lon="6.19912">
        <ele>798</ele>
        <time>2023-10-09T13:37:02Z</time>
      </trkpt>
      <trkpt lat="43.66854" lon="6.19912">
        <ele>798</ele>
        <time>2023-10-09T13:37:03Z</time>
      </trkpt>
      <trkpt lat="43.66854" lon="6.19912">
        <ele>798</ele>
        <time>2023-10-09T13:37:04Z</time>
      </trkpt>
      <trkpt lat="43.66853" lon="6.19911">
        <ele>797.8</ele>
        <time>2023-10-09T13:37:05Z</time>
      </trkpt>
      <trkpt lat="43.66852" lon="6.19911">
        <ele>797.7</ele>
        <time>2023-10-09T13:37:06Z</time>
      </trkpt>
      <trkpt lat="43.66851" lon="6.19911">
        <ele>797.6</ele>
        <time>2023-10-09T13:37:07Z</time>
      </trkpt>
      <trkpt lat="43.6685" lon="6.1991">
        <ele>797.5</ele>
        <time>2023-10-09T13:37:08Z</time>
      </trkpt>
      <trkpt lat="43.6685" lon="6.1991">
        <ele>797.5</ele>
        <time>2023-10-09T13:37:09Z</time>
      </trkpt>
      <trkpt lat="43.66849" lon="6.1991">
        <ele>797.4</ele>
        <time>2023-10-09T13:37:10Z</time>
      </trkpt>
      <trkpt lat="43.66848" lon="6.1991">
        <ele>797.3</ele>
        <time>2023-10-09T13:37:11Z</time>
      </trkpt>
      <trkpt lat="43.66848" lon="6.1991">
        <ele>797.3</ele>
        <time>2023-10-09T13:37:12Z</time>
      </trkpt>
      <trkpt lat="43.66847" lon="6.1991">
        <ele>797.2</ele>
        <time>2023-10-09T13:37:13Z</time>
      </trkpt>
      <trkpt lat="43.66847" lon="6.1991">
        <ele>797.2</ele>
        <time>2023-10-09T13:37:14Z</time>
      </trkpt>
      <trkpt lat="43.66847" lon="6.1991">
        <ele>797.2</ele>
        <time>2023-10-09T13:37:15Z</time>
      </trkpt>
      <trkpt lat="43.66847" lon="6.1991">
        <ele>797.2</ele>
        <time>2023-10-09T13:37:16Z</time>
      </trkpt>
      <trkpt lat="43.66847" lon="6.1991">
        <ele>797.2</ele>
        <time>2023-10-09T13:37:17Z</time>
      </trkpt>
      <trkpt lat="43.66847" lon="6.1991">
        <ele>797.2</ele>
        <time>2023-10-09T13:37:18Z</time>
      </trkpt>
      <trkpt lat="43.66847" lon="6.1991">
        <ele>797.2</ele>
        <time>2023-10-09T13:37:19Z</time>
      </trkpt>
      <trkpt lat="43.66847" lon="6.1991">
        <ele>797.2</ele>
        <time>2023-10-09T13:37:20Z</time>
      </trkpt>
      <trkpt lat="43.66847" lon="6.1991">
        <ele>797.2</ele>
        <time>2023-10-09T13:37:21Z</time>
      </trkpt>
      <trkpt lat="43.66847" lon="6.1991">
        <ele>797.2</ele>
        <time>2023-10-09T13:37:22Z</time>
      </trkpt>
      <trkpt lat="43.66847" lon="6.1991">
        <ele>797.2</ele>
        <time>2023-10-09T13:37:23Z</time>
      </trkpt>
      <trkpt lat="43.66847" lon="6.1991">
        <ele>797.2</ele>
        <time>2023-10-09T13:37:24Z</time>
      </trkpt>
      <trkpt lat="43.66847" lon="6.1991">
        <ele>797.2</ele>
        <time>2023-10-09T13:37:25Z</time>
      </trkpt>
      <trkpt lat="43.66847" lon="6.1991">
        <ele>797.2</ele>
        <time>2023-10-09T13:37:26Z</time>
      </trkpt>
      <trkpt lat="43.66847" lon="6.1991">
        <ele>797.2</ele>
        <time>2023-10-09T13:37:27Z</time>
      </trkpt>
      <trkpt lat="43.66847" lon="6.1991">
        <ele>797.2</ele>
        <time>2023-10-09T13:37:28Z</time>
      </trkpt>
      <trkpt lat="43.66847" lon="6.1991">
        <ele>797.2</ele>
        <time>2023-10-09T13:37:29Z</time>
      </trkpt>
      <trkpt lat="43.66847" lon="6.1991">
        <ele>797.2</ele>
        <time>2023-10-09T13:37:30Z</time>
      </trkpt>
      <trkpt lat="43.66847" lon="6.1991">
        <ele>797.2</ele>
        <time>2023-10-09T13:37:31Z</time>
      </trkpt>
      <trkpt lat="43.66847" lon="6.1991">
        <ele>797.2</ele>
        <time>2023-10-09T13:37:32Z</time>
      </trkpt>
      <trkpt lat="43.66847" lon="6.1991">
        <ele>797.2</ele>
        <time>2023-10-09T13:37:33Z</time>
      </trkpt>
      <trkpt lat="43.66847" lon="6.1991">
        <ele>797.2</ele>
        <time>2023-10-09T13:37:34Z</time>
      </trkpt>
      <trkpt lat="43.66847" lon="6.1991">
        <ele>797.2</ele>
        <time>2023-10-09T13:37:35Z</time>
      </trkpt>
      <trkpt lat="43.66847" lon="6.1991">
        <ele>797.2</ele>
        <time>2023-10-09T13:37:36Z</time>
      </trkpt>
      <trkpt lat="43.66847" lon="6.1991">
        <ele>797.2</ele>
        <time>2023-10-09T13:37:37Z</time>
      </trkpt>
      <trkpt lat="43.66847" lon="6.1991">
        <ele>797.2</ele>
        <time>2023-10-09T13:37:38Z</time>
      </trkpt>
      <trkpt lat="43.66847" lon="6.1991">
        <ele>797.2</ele>
        <time>2023-10-09T13:37:39Z</time>
      </trkpt>
      <trkpt lat="43.66847" lon="6.1991">
        <ele>797.2</ele>
        <time>2023-10-09T13:37:40Z</time>
      </trkpt>
      <trkpt lat="43.66847" lon="6.1991">
        <ele>797.2</ele>
        <time>2023-10-09T13:37:41Z</time>
      </trkpt>
      <trkpt lat="43.66847" lon="6.1991">
        <ele>797.2</ele>
        <time>2023-10-09T13:37:42Z</time>
      </trkpt>
      <trkpt lat="43.66847" lon="6.1991">
        <ele>797.2</ele>
        <time>2023-10-09T13:37:43Z</time>
      </trkpt>
      <trkpt lat="43.66847" lon="6.1991">
        <ele>797.2</ele>
        <time>2023-10-09T13:37:44Z</time>
      </trkpt>
      <trkpt lat="43.66847" lon="6.1991">
        <ele>797.2</ele>
        <time>2023-10-09T13:37:45Z</time>
      </trkpt>
      <trkpt lat="43.66847" lon="6.1991">
        <ele>797.2</ele>
        <time>2023-10-09T13:37:46Z</time>
      </trkpt>
      <trkpt lat="43.66847" lon="6.1991">
        <ele>797.2</ele>
        <time>2023-10-09T13:37:47Z</time>
      </trkpt>
      <trkpt lat="43.66847" lon="6.1991">
        <ele>797.2</ele>
        <time>2023-10-09T13:37:48Z</time>
      </trkpt>
      <trkpt lat="43.66847" lon="6.1991">
        <ele>797.2</ele>
        <time>2023-10-09T13:37:49Z</time>
      </trkpt>
      <trkpt lat="43.66847" lon="6.1991">
        <ele>797.2</ele>
        <time>2023-10-09T13:37:50Z</time>
      </trkpt>
      <trkpt lat="43.66847" lon="6.1991">
        <ele>797.2</ele>
        <time>2023-10-09T13:37:51Z</time>
      </trkpt>
      <trkpt lat="43.66847" lon="6.1991">
        <ele>797.2</ele>
        <time>2023-10-09T13:37:52Z</time>
      </trkpt>
      <trkpt lat="43.66847" lon="6.1991">
        <ele>797.2</ele>
        <time>2023-10-09T13:37:53Z</time>
      </trkpt>
      <trkpt lat="43.66847" lon="6.1991">
        <ele>797.2</ele>
        <time>2023-10-09T13:37:54Z</time>
      </trkpt>
      <trkpt lat="43.66847" lon="6.1991">
        <ele>797.2</ele>
        <time>2023-10-09T13:37:55Z</time>
      </trkpt>
      <trkpt lat="43.66847" lon="6.1991">
        <ele>797.2</ele>
        <time>2023-10-09T13:37:56Z</time>
      </trkpt>
      <trkpt lat="43.66847" lon="6.1991">
        <ele>797.2</ele>
        <time>2023-10-09T13:37:57Z</time>
      </trkpt>
      <trkpt lat="43.66847" lon="6.1991">
        <ele>797.2</ele>
        <time>2023-10-09T13:37:58Z</time>
      </trkpt>
      <trkpt lat="43.66847" lon="6.1991">
        <ele>797.2</ele>
        <time>2023-10-09T13:37:59Z</time>
      </trkpt>
      <trkpt lat="43.66847" lon="6.1991">
        <ele>797.2</ele>
        <time>2023-10-09T13:38:00Z</time>
      </trkpt>
      <trkpt lat="43.66847" lon="6.1991">
        <ele>797.2</ele>
        <time>2023-10-09T13:38:01Z</time>
      </trkpt>
      <trkpt lat="43.66847" lon="6.1991">
        <ele>797.2</ele>
        <time>2023-10-09T13:38:02Z</time>
      </trkpt>
      <trkpt lat="43.66847" lon="6.1991">
        <ele>797.2</ele>
        <time>2023-10-09T13:38:03Z</time>
      </trkpt>
      <trkpt lat="43.66847" lon="6.1991">
        <ele>797.2</ele>
        <time>2023-10-09T13:38:04Z</time>
      </trkpt>
      <trkpt lat="43.66847" lon="6.1991">
        <ele>797.2</ele>
        <time>2023-10-09T13:38:05Z</time>
      </trkpt>
      <trkpt lat="43.66847" lon="6.1991">
        <ele>797.2</ele>
        <time>2023-10-09T13:38:06Z</time>
      </trkpt>
      <trkpt lat="43.66847" lon="6.1991">
        <ele>797.2</ele>
        <time>2023-10-09T13:38:07Z</time>
      </trkpt>
      <trkpt lat="43.66847" lon="6.1991">
        <ele>797.2</ele>
        <time>2023-10-09T13:38:08Z</time>
      </trkpt>
      <trkpt lat="43.66847" lon="6.1991">
        <ele>797.2</ele>
        <time>2023-10-09T13:38:09Z</time>
      </trkpt>
      <trkpt lat="43.66847" lon="6.1991">
        <ele>797.2</ele>
        <time>2023-10-09T13:38:10Z</time>
      </trkpt>
      <trkpt lat="43.66847" lon="6.1991">
        <ele>797.2</ele>
        <time>2023-10-09T13:38:11Z</time>
      </trkpt>
      <trkpt lat="43.66847" lon="6.1991">
        <ele>797.2</ele>
        <time>2023-10-09T13:38:12Z</time>
      </trkpt>
      <trkpt lat="43.66847" lon="6.1991">
        <ele>797.2</ele>
        <time>2023-10-09T13:38:13Z</time>
      </trkpt>
      <trkpt lat="43.66847" lon="6.1991">
        <ele>797.2</ele>
        <time>2023-10-09T13:38:14Z</time>
      </trkpt>
      <trkpt lat="43.66847" lon="6.1991">
        <ele>797.2</ele>
        <time>2023-10-09T13:38:15Z</time>
      </trkpt>
      <trkpt lat="43.66847" lon="6.1991">
        <ele>797.2</ele>
        <time>2023-10-09T13:38:16Z</time>
      </trkpt>
      <trkpt lat="43.66847" lon="6.1991">
        <ele>797.2</ele>
        <time>2023-10-09T13:38:17Z</time>
      </trkpt>
      <trkpt lat="43.66847" lon="6.1991">
        <ele>797.2</ele>
        <time>2023-10-09T13:38:18Z</time>
      </trkpt>
      <trkpt lat="43.66847" lon="6.1991">
        <ele>797.2</ele>
        <time>2023-10-09T13:38:19Z</time>
      </trkpt>
      <trkpt lat="43.66847" lon="6.1991">
        <ele>797.2</ele>
        <time>2023-10-09T13:38:20Z</time>
      </trkpt>
      <trkpt lat="43.66847" lon="6.1991">
        <ele>797.2</ele>
        <time>2023-10-09T13:38:21Z</time>
      </trkpt>
      <trkpt lat="43.66847" lon="6.1991">
        <ele>797.2</ele>
        <time>2023-10-09T13:38:22Z</time>
      </trkpt>
      <trkpt lat="43.66847" lon="6.1991">
        <ele>797.2</ele>
        <time>2023-10-09T13:38:23Z</time>
      </trkpt>
      <trkpt lat="43.66847" lon="6.1991">
        <ele>797.2</ele>
        <time>2023-10-09T13:38:24Z</time>
      </trkpt>
      <trkpt lat="43.66847" lon="6.1991">
        <ele>797.2</ele>
        <time>2023-10-09T13:38:25Z</time>
      </trkpt>
      <trkpt lat="43.66847" lon="6.1991">
        <ele>797.2</ele>
        <time>2023-10-09T13:38:26Z</time>
      </trkpt>
      <trkpt lat="43.66847" lon="6.1991">
        <ele>797.2</ele>
        <time>2023-10-09T13:38:27Z</time>
      </trkpt>
      <trkpt lat="43.66847" lon="6.1991">
        <ele>797.2</ele>
        <time>2023-10-09T13:38:28Z</time>
      </trkpt>
      <trkpt lat="43.66847" lon="6.1991">
        <ele>797.2</ele>
        <time>2023-10-09T13:38:29Z</time>
      </trkpt>
      <trkpt lat="43.66847" lon="6.1991">
        <ele>797.2</ele>
        <time>2023-10-09T13:38:30Z</time>
      </trkpt>
      <trkpt lat="43.66847" lon="6.1991">
        <ele>797.2</ele>
        <time>2023-10-09T13:38:31Z</time>
      </trkpt>
      <trkpt lat="43.66847" lon="6.1991">
        <ele>797.2</ele>
        <time>2023-10-09T13:38:32Z</time>
      </trkpt>
      <trkpt lat="43.66847" lon="6.1991">
        <ele>797.2</ele>
        <time>2023-10-09T13:38:33Z</time>
      </trkpt>
      <trkpt lat="43.66847" lon="6.1991">
        <ele>797.2</ele>
        <time>2023-10-09T13:38:34Z</time>
      </trkpt>
      <trkpt lat="43.66847" lon="6.1991">
        <ele>797.2</ele>
        <time>2023-10-09T13:38:35Z</time>
      </trkpt>
      <trkpt lat="43.66847" lon="6.1991">
        <ele>797.2</ele>
        <time>2023-10-09T13:38:36Z</time>
      </trkpt>
      <trkpt lat="43.66847" lon="6.1991">
        <ele>797.2</ele>
        <time>2023-10-09T13:38:37Z</time>
      </trkpt>
      <trkpt lat="43.66847" lon="6.1991">
        <ele>797.2</ele>
        <time>2023-10-09T13:38:38Z</time>
      </trkpt>
      <trkpt lat="43.66847" lon="6.1991">
        <ele>797.2</ele>
        <time>2023-10-09T13:38:39Z</time>
      </trkpt>
      <trkpt lat="43.66847" lon="6.1991">
        <ele>797.2</ele>
        <time>2023-10-09T13:38:40Z</time>
      </trkpt>
      <trkpt lat="43.66847" lon="6.1991">
        <ele>797.2</ele>
        <time>2023-10-09T13:38:41Z</time>
      </trkpt>
      <trkpt lat="43.66847" lon="6.1991">
        <ele>797.2</ele>
        <time>2023-10-09T13:38:42Z</time>
      </trkpt>
      <trkpt lat="43.66847" lon="6.1991">
        <ele>797.2</ele>
        <time>2023-10-09T13:38:43Z</time>
      </trkpt>
      <trkpt lat="43.66847" lon="6.1991">
        <ele>797.2</ele>
        <time>2023-10-09T13:38:44Z</time>
      </trkpt>
      <trkpt lat="43.66847" lon="6.1991">
        <ele>797.2</ele>
        <time>2023-10-09T13:38:45Z</time>
      </trkpt>
      <trkpt lat="43.66847" lon="6.1991">
        <ele>797.2</ele>
        <time>2023-10-09T13:38:46Z</time>
      </trkpt>
      <trkpt lat="43.66847" lon="6.1991">
        <ele>797.2</ele>
        <time>2023-10-09T13:38:47Z</time>
      </trkpt>
      <trkpt lat="43.66847" lon="6.1991">
        <ele>797.2</ele>
        <time>2023-10-09T13:38:48Z</time>
      </trkpt>
      <trkpt lat="43.66847" lon="6.1991">
        <ele>797.2</ele>
        <time>2023-10-09T13:38:49Z</time>
      </trkpt>
      <trkpt lat="43.66847" lon="6.1991">
        <ele>797.2</ele>
        <time>2023-10-09T13:38:50Z</time>
      </trkpt>
      <trkpt lat="43.66847" lon="6.1991">
        <ele>797.2</ele>
        <time>2023-10-09T13:38:51Z</time>
      </trkpt>
      <trkpt lat="43.66847" lon="6.1991">
        <ele>797.2</ele>
        <time>2023-10-09T13:38:52Z</time>
      </trkpt>
      <trkpt lat="43.66847" lon="6.1991">
        <ele>797.2</ele>
        <time>2023-10-09T13:38:53Z</time>
      </trkpt>
      <trkpt lat="43.66847" lon="6.1991">
        <ele>797.2</ele>
        <time>2023-10-09T13:38:54Z</time>
      </trkpt>
      <trkpt lat="43.66847" lon="6.1991">
        <ele>797.2</ele>
        <time>2023-10-09T13:38:55Z</time>
      </trkpt>
      <trkpt lat="43.66847" lon="6.1991">
        <ele>797.2</ele>
        <time>2023-10-09T13:38:56Z</time>
      </trkpt>
      <trkpt lat="43.66847" lon="6.1991">
        <ele>797.2</ele>
        <time>2023-10-09T13:38:57Z</time>
      </trkpt>
      <trkpt lat="43.66847" lon="6.1991">
        <ele>797.2</ele>
        <time>2023-10-09T13:38:58Z</time>
      </trkpt>
      <trkpt lat="43.66847" lon="6.1991">
        <ele>797.2</ele>
        <time>2023-10-09T13:38:59Z</time>
      </trkpt>
      <trkpt lat="43.66847" lon="6.1991">
        <ele>797.2</ele>
        <time>2023-10-09T13:39:00Z</time>
      </trkpt>
      <trkpt lat="43.66847" lon="6.1991">
        <ele>797.2</ele>
        <time>2023-10-09T13:39:01Z</time>
      </trkpt>
      <trkpt lat="43.66847" lon="6.1991">
        <ele>797.2</ele>
        <time>2023-10-09T13:39:02Z</time>
      </trkpt>
      <trkpt lat="43.66847" lon="6.1991">
        <ele>797.2</ele>
        <time>2023-10-09T13:39:03Z</time>
      </trkpt>
      <trkpt lat="43.66847" lon="6.1991">
        <ele>797.2</ele>
        <time>2023-10-09T13:39:04Z</time>
      </trkpt>
      <trkpt lat="43.66847" lon="6.1991">
        <ele>797.2</ele>
        <time>2023-10-09T13:39:05Z</time>
      </trkpt>
      <trkpt lat="43.66847" lon="6.1991">
        <ele>797.2</ele>
        <time>2023-10-09T13:39:06Z</time>
      </trkpt>
      <trkpt lat="43.66847" lon="6.1991">
        <ele>797.2</ele>
        <time>2023-10-09T13:39:07Z</time>
      </trkpt>
      <trkpt lat="43.66847" lon="6.1991">
        <ele>797.2</ele>
        <time>2023-10-09T13:39:08Z</time>
      </trkpt>
      <trkpt lat="43.66847" lon="6.1991">
        <ele>797.2</ele>
        <time>2023-10-09T13:39:09Z</time>
      </trkpt>
      <trkpt lat="43.66847" lon="6.1991">
        <ele>797.2</ele>
        <time>2023-10-09T13:39:10Z</time>
      </trkpt>
      <trkpt lat="43.66847" lon="6.1991">
        <ele>797.2</ele>
        <time>2023-10-09T13:39:11Z</time>
      </trkpt>
      <trkpt lat="43.66847" lon="6.1991">
        <ele>797.2</ele>
        <time>2023-10-09T13:39:12Z</time>
      </trkpt>
      <trkpt lat="43.66847" lon="6.1991">
        <ele>797.2</ele>
        <time>2023-10-09T13:39:13Z</time>
      </trkpt>
      <trkpt lat="43.66847" lon="6.1991">
        <ele>797.2</ele>
        <time>2023-10-09T13:39:14Z</time>
      </trkpt>
      <trkpt lat="43.66847" lon="6.1991">
        <ele>797.2</ele>
        <time>2023-10-09T13:39:15Z</time>
      </trkpt>
      <trkpt lat="43.66847" lon="6.1991">
        <ele>797.2</ele>
        <time>2023-10-09T13:39:16Z</time>
      </trkpt>
      <trkpt lat="43.66847" lon="6.1991">
        <ele>797.2</ele>
        <time>2023-10-09T13:39:17Z</time>
      </trkpt>
      <trkpt lat="43.66847" lon="6.1991">
        <ele>797.2</ele>
        <time>2023-10-09T13:39:18Z</time>
      </trkpt>
      <trkpt lat="43.66847" lon="6.1991">
        <ele>797.2</ele>
        <time>2023-10-09T13:39:19Z</time>
      </trkpt>
      <trkpt lat="43.66847" lon="6.1991">
        <ele>797.2</ele>
        <time>2023-10-09T13:39:20Z</time>
      </trkpt>
      <trkpt lat="43.66847" lon="6.1991">
        <ele>797.2</ele>
        <time>2023-10-09T13:39:21Z</time>
      </trkpt>
      <trkpt lat="43.66847" lon="6.1991">
        <ele>797.2</ele>
        <time>2023-10-09T13:39:22Z</time>
      </trkpt>
      <trkpt lat="43.66847" lon="6.1991">
        <ele>797.2</ele>
        <time>2023-10-09T13:39:23Z</time>
      </trkpt>
      <trkpt lat="43.66847" lon="6.1991">
        <ele>797.2</ele>
        <time>2023-10-09T13:39:24Z</time>
      </trkpt>
      <trkpt lat="43.66847" lon="6.1991">
        <ele>797.2</ele>
        <time>2023-10-09T13:39:25Z</time>
      </trkpt>
      <trkpt lat="43.66847" lon="6.1991">
        <ele>797.2</ele>
        <time>2023-10-09T13:39:26Z</time>
      </trkpt>
      <trkpt lat="43.66847" lon="6.1991">
        <ele>797.2</ele>
        <time>2023-10-09T13:39:27Z</time>
      </trkpt>
      <trkpt lat="43.66847" lon="6.1991">
        <ele>797.2</ele>
        <time>2023-10-09T13:39:28Z</time>
      </trkpt>
      <trkpt lat="43.66847" lon="6.1991">
        <ele>797.2</ele>
        <time>2023-10-09T13:39:29Z</time>
      </trkpt>
      <trkpt lat="43.66847" lon="6.1991">
        <ele>797.2</ele>
        <time>2023-10-09T13:39:30Z</time>
      </trkpt>
      <trkpt lat="43.66847" lon="6.1991">
        <ele>797.2</ele>
        <time>2023-10-09T13:39:31Z</time>
      </trkpt>
      <trkpt lat="43.66847" lon="6.1991">
        <ele>797.2</ele>
        <time>2023-10-09T13:39:32Z</time>
      </trkpt>
      <trkpt lat="43.66847" lon="6.1991">
        <ele>797.2</ele>
        <time>2023-10-09T13:39:33Z</time>
      </trkpt>
      <trkpt lat="43.66847" lon="6.1991">
        <ele>797.2</ele>
        <time>2023-10-09T13:39:34Z</time>
      </trkpt>
      <trkpt lat="43.66847" lon="6.1991">
        <ele>797.2</ele>
        <time>2023-10-09T13:39:35Z</time>
      </trkpt>
      <trkpt lat="43.66847" lon="6.1991">
        <ele>797.2</ele>
        <time>2023-10-09T13:39:36Z</time>
      </trkpt>
      <trkpt lat="43.66847" lon="6.1991">
        <ele>797.2</ele>
        <time>2023-10-09T13:39:37Z</time>
      </trkpt>
      <trkpt lat="43.66847" lon="6.1991">
        <ele>797.2</ele>
        <time>2023-10-09T13:39:38Z</time>
      </trkpt>
      <trkpt lat="43.66847" lon="6.1991">
        <ele>797.2</ele>
        <time>2023-10-09T13:39:39Z</time>
      </trkpt>
      <trkpt lat="43.66847" lon="6.1991">
        <ele>797.2</ele>
        <time>2023-10-09T13:39:40Z</time>
      </trkpt>
      <trkpt lat="43.66847" lon="6.1991">
        <ele>797.2</ele>
        <time>2023-10-09T13:39:41Z</time>
      </trkpt>
      <trkpt lat="43.66847" lon="6.1991">
        <ele>797.2</ele>
        <time>2023-10-09T13:39:42Z</time>
      </trkpt>
      <trkpt lat="43.66847" lon="6.1991">
        <ele>797.2</ele>
        <time>2023-10-09T13:39:43Z</time>
      </trkpt>
      <trkpt lat="43.66847" lon="6.1991">
        <ele>797.2</ele>
        <time>2023-10-09T13:39:44Z</time>
      </trkpt>
      <trkpt lat="43.66847" lon="6.1991">
        <ele>797.2</ele>
        <time>2023-10-09T13:39:45Z</time>
      </trkpt>
      <trkpt lat="43.66847" lon="6.1991">
        <ele>797.2</ele>
        <time>2023-10-09T13:39:46Z</time>
      </trkpt>
      <trkpt lat="43.66847" lon="6.1991">
        <ele>797.2</ele>
        <time>2023-10-09T13:39:47Z</time>
      </trkpt>
      <trkpt lat="43.66847" lon="6.1991">
        <ele>797.2</ele>
        <time>2023-10-09T13:39:48Z</time>
      </trkpt>
      <trkpt lat="43.66847" lon="6.1991">
        <ele>797.2</ele>
        <time>2023-10-09T13:39:49Z</time>
      </trkpt>
      <trkpt lat="43.66847" lon="6.1991">
        <ele>797.2</ele>
        <time>2023-10-09T13:39:50Z</time>
      </trkpt>
      <trkpt lat="43.66847" lon="6.1991">
        <ele>797.2</ele>
        <time>2023-10-09T13:39:51Z</time>
      </trkpt>
      <trkpt lat="43.66847" lon="6.1991">
        <ele>797.2</ele>
        <time>2023-10-09T13:39:52Z</time>
      </trkpt>
      <trkpt lat="43.66847" lon="6.1991">
        <ele>797.2</ele>
        <time>2023-10-09T13:39:53Z</time>
      </trkpt>
      <trkpt lat="43.66847" lon="6.1991">
        <ele>797.2</ele>
        <time>2023-10-09T13:39:54Z</time>
      </trkpt>
      <trkpt lat="43.66847" lon="6.1991">
        <ele>797.2</ele>
        <time>2023-10-09T13:39:55Z</time>
      </trkpt>
      <trkpt lat="43.66847" lon="6.1991">
        <ele>797.2</ele>
        <time>2023-10-09T13:39:56Z</time>
      </trkpt>
      <trkpt lat="43.66847" lon="6.1991">
        <ele>797.2</ele>
        <time>2023-10-09T13:39:58Z</time>
      </trkpt>
      <trkpt lat="43.66847" lon="6.1991">
        <ele>797.2</ele>
        <time>2023-10-09T13:39:59Z</time>
      </trkpt>
      <trkpt lat="43.66847" lon="6.1991">
        <ele>797.2</ele>
        <time>2023-10-09T13:40:00Z</time>
      </trkpt>
      <trkpt lat="43.66847" lon="6.1991">
        <ele>797.2</ele>
        <time>2023-10-09T13:40:01Z</time>
      </trkpt>
      <trkpt lat="43.66847" lon="6.1991">
        <ele>797.2</ele>
        <time>2023-10-09T13:40:02Z</time>
      </trkpt>
      <trkpt lat="43.66847" lon="6.1991">
        <ele>797.2</ele>
        <time>2023-10-09T13:40:03Z</time>
      </trkpt>
      <trkpt lat="43.66847" lon="6.1991">
        <ele>797.2</ele>
        <time>2023-10-09T13:40:04Z</time>
      </trkpt>
      <trkpt lat="43.66847" lon="6.1991">
        <ele>797.2</ele>
        <time>2023-10-09T13:40:05Z</time>
      </trkpt>
      <trkpt lat="43.66847" lon="6.1991">
        <ele>797.2</ele>
        <time>2023-10-09T13:40:06Z</time>
      </trkpt>
      <trkpt lat="43.66847" lon="6.1991">
        <ele>797.2</ele>
        <time>2023-10-09T13:40:07Z</time>
      </trkpt>
      <trkpt lat="43.66847" lon="6.1991">
        <ele>797.2</ele>
        <time>2023-10-09T13:40:08Z</time>
      </trkpt>
      <trkpt lat="43.66847" lon="6.1991">
        <ele>797.2</ele>
        <time>2023-10-09T13:40:09Z</time>
      </trkpt>
      <trkpt lat="43.66847" lon="6.1991">
        <ele>797.2</ele>
        <time>2023-10-09T13:40:10Z</time>
      </trkpt>
      <trkpt lat="43.66847" lon="6.1991">
        <ele>797.2</ele>
        <time>2023-10-09T13:40:11Z</time>
      </trkpt>
      <trkpt lat="43.66847" lon="6.1991">
        <ele>797.2</ele>
        <time>2023-10-09T13:40:12Z</time>
      </trkpt>
      <trkpt lat="43.66847" lon="6.1991">
        <ele>797.2</ele>
        <time>2023-10-09T13:40:13Z</time>
      </trkpt>
      <trkpt lat="43.66847" lon="6.1991">
        <ele>797.2</ele>
        <time>2023-10-09T13:40:14Z</time>
      </trkpt>
      <trkpt lat="43.66847" lon="6.1991">
        <ele>797.2</ele>
        <time>2023-10-09T13:40:15Z</time>
      </trkpt>
      <trkpt lat="43.66847" lon="6.1991">
        <ele>797.2</ele>
        <time>2023-10-09T13:40:16Z</time>
      </trkpt>
      <trkpt lat="43.66847" lon="6.1991">
        <ele>797.2</ele>
        <time>2023-10-09T13:40:17Z</time>
      </trkpt>
      <trkpt lat="43.66847" lon="6.1991">
        <ele>797.2</ele>
        <time>2023-10-09T13:40:18Z</time>
      </trkpt>
      <trkpt lat="43.66847" lon="6.1991">
        <ele>797.2</ele>
        <time>2023-10-09T13:40:19Z</time>
      </trkpt>
      <trkpt lat="43.66847" lon="6.1991">
        <ele>797.2</ele>
        <time>2023-10-09T13:40:20Z</time>
      </trkpt>
      <trkpt lat="43.66847" lon="6.1991">
        <ele>797.2</ele>
        <time>2023-10-09T13:40:21Z</time>
      </trkpt>
      <trkpt lat="43.66847" lon="6.1991">
        <ele>797.2</ele>
        <time>2023-10-09T13:40:22Z</time>
      </trkpt>
      <trkpt lat="43.66847" lon="6.1991">
        <ele>797.2</ele>
        <time>2023-10-09T13:40:23Z</time>
      </trkpt>
      <trkpt lat="43.66847" lon="6.1991">
        <ele>797.2</ele>
        <time>2023-10-09T13:40:24Z</time>
      </trkpt>
      <trkpt lat="43.66847" lon="6.19909">
        <ele>797.2</ele>
        <time>2023-10-09T13:40:25Z</time>
      </trkpt>
      <trkpt lat="43.66846" lon="6.19909">
        <ele>797.1</ele>
        <time>2023-10-09T13:40:26Z</time>
      </trkpt>
      <trkpt lat="43.66846" lon="6.19908">
        <ele>797.1</ele>
        <time>2023-10-09T13:40:27Z</time>
      </trkpt>
      <trkpt lat="43.66846" lon="6.19908">
        <ele>797.1</ele>
        <time>2023-10-09T13:40:28Z</time>
      </trkpt>
      <trkpt lat="43.66845" lon="6.19907">
        <ele>797</ele>
        <time>2023-10-09T13:40:29Z</time>
      </trkpt>
      <trkpt lat="43.66845" lon="6.19907">
        <ele>797</ele>
        <time>2023-10-09T13:40:30Z</time>
      </trkpt>
      <trkpt lat="43.66844" lon="6.19907">
        <ele>796.9</ele>
        <time>2023-10-09T13:40:31Z</time>
      </trkpt>
      <trkpt lat="43.66843" lon="6.19907">
        <ele>796.8</ele>
        <time>2023-10-09T13:40:32Z</time>
      </trkpt>
      <trkpt lat="43.66842" lon="6.19907">
        <ele>796.7</ele>
        <time>2023-10-09T13:40:33Z</time>
      </trkpt>
      <trkpt lat="43.66841" lon="6.19907">
        <ele>796.6</ele>
        <time>2023-10-09T13:40:34Z</time>
      </trkpt>
      <trkpt lat="43.6684" lon="6.19908">
        <ele>796.6</ele>
        <time>2023-10-09T13:40:35Z</time>
      </trkpt>
      <trkpt lat="43.66838" lon="6.19909">
        <ele>796.4</ele>
        <time>2023-10-09T13:40:36Z</time>
      </trkpt>
      <trkpt lat="43.66837" lon="6.19909">
        <ele>796.3</ele>
        <time>2023-10-09T13:40:37Z</time>
      </trkpt>
      <trkpt lat="43.66836" lon="6.19909">
        <ele>796.2</ele>
        <time>2023-10-09T13:40:38Z</time>
      </trkpt>
      <trkpt lat="43.66835" lon="6.19909">
        <ele>796.1</ele>
        <time>2023-10-09T13:40:39Z</time>
      </trkpt>
      <trkpt lat="43.66834" lon="6.19908">
        <ele>796.1</ele>
        <time>2023-10-09T13:40:40Z</time>
      </trkpt>
      <trkpt lat="43.66832" lon="6.19908">
        <ele>796.1</ele>
        <time>2023-10-09T13:40:41Z</time>
      </trkpt>
      <trkpt lat="43.66831" lon="6.19908">
        <ele>796.2</ele>
        <time>2023-10-09T13:40:42Z</time>
      </trkpt>
      <trkpt lat="43.6683" lon="6.19908">
        <ele>796.3</ele>
        <time>2023-10-09T13:40:43Z</time>
      </trkpt>
      <trkpt lat="43.66829" lon="6.19908">
        <ele>796.4</ele>
        <time>2023-10-09T13:40:44Z</time>
      </trkpt>
      <trkpt lat="43.66828" lon="6.19908">
        <ele>796.4</ele>
        <time>2023-10-09T13:40:45Z</time>
      </trkpt>
      <trkpt lat="43.66827" lon="6.19908">
        <ele>796.5</ele>
        <time>2023-10-09T13:40:46Z</time>
      </trkpt>
      <trkpt lat="43.66826" lon="6.19907">
        <ele>796.6</ele>
        <time>2023-10-09T13:40:47Z</time>
      </trkpt>
      <trkpt lat="43.66825" lon="6.19907">
        <ele>796.7</ele>
        <time>2023-10-09T13:40:48Z</time>
      </trkpt>
      <trkpt lat="43.66824" lon="6.19907">
        <ele>796.8</ele>
        <time>2023-10-09T13:40:49Z</time>
      </trkpt>
      <trkpt lat="43.66823" lon="6.19907">
        <ele>796.9</ele>
        <time>2023-10-09T13:40:50Z</time>
      </trkpt>
      <trkpt lat="43.66822" lon="6.19906">
        <ele>797</ele>
        <time>2023-10-09T13:40:51Z</time>
      </trkpt>
      <trkpt lat="43.66822" lon="6.19906">
        <ele>797</ele>
        <time>2023-10-09T13:40:52Z</time>
      </trkpt>
      <trkpt lat="43.66821" lon="6.19905">
        <ele>797.2</ele>
        <time>2023-10-09T13:40:53Z</time>
      </trkpt>
      <trkpt lat="43.6682" lon="6.19904">
        <ele>797.4</ele>
        <time>2023-10-09T13:40:54Z</time>
      </trkpt>
      <trkpt lat="43.66819" lon="6.19904">
        <ele>797.5</ele>
        <time>2023-10-09T13:40:55Z</time>
      </trkpt>
      <trkpt lat="43.66818" lon="6.19904">
        <ele>797.6</ele>
        <time>2023-10-09T13:40:56Z</time>
      </trkpt>
      <trkpt lat="43.66817" lon="6.19903">
        <ele>797.7</ele>
        <time>2023-10-09T13:40:57Z</time>
      </trkpt>
      <trkpt lat="43.66816" lon="6.19903">
        <ele>797.9</ele>
        <time>2023-10-09T13:40:58Z</time>
      </trkpt>
      <trkpt lat="43.66815" lon="6.19903">
        <ele>798</ele>
        <time>2023-10-09T13:40:59Z</time>
      </trkpt>
      <trkpt lat="43.66815" lon="6.19902">
        <ele>798.1</ele>
        <time>2023-10-09T13:41:00Z</time>
      </trkpt>
      <trkpt lat="43.66814" lon="6.19902">
        <ele>798.2</ele>
        <time>2023-10-09T13:41:01Z</time>
      </trkpt>
      <trkpt lat="43.66813" lon="6.19901">
        <ele>798.4</ele>
        <time>2023-10-09T13:41:02Z</time>
      </trkpt>
      <trkpt lat="43.66812" lon="6.19901">
        <ele>798.5</ele>
        <time>2023-10-09T13:41:03Z</time>
      </trkpt>
      <trkpt lat="43.66811" lon="6.19901">
        <ele>798.6</ele>
        <time>2023-10-09T13:41:04Z</time>
      </trkpt>
      <trkpt lat="43.66811" lon="6.19901">
        <ele>798.6</ele>
        <time>2023-10-09T13:41:05Z</time>
      </trkpt>
      <trkpt lat="43.6681" lon="6.19901">
        <ele>798.7</ele>
        <time>2023-10-09T13:41:06Z</time>
      </trkpt>
      <trkpt lat="43.66809" lon="6.19901">
        <ele>798.9</ele>
        <time>2023-10-09T13:41:07Z</time>
      </trkpt>
      <trkpt lat="43.66808" lon="6.19901">
        <ele>799</ele>
        <time>2023-10-09T13:41:08Z</time>
      </trkpt>
      <trkpt lat="43.66807" lon="6.199">
        <ele>799.2</ele>
        <time>2023-10-09T13:41:09Z</time>
      </trkpt>
      <trkpt lat="43.66807" lon="6.199">
        <ele>799.2</ele>
        <time>2023-10-09T13:41:10Z</time>
      </trkpt>
      <trkpt lat="43.66806" lon="6.19899">
        <ele>799.5</ele>
        <time>2023-10-09T13:41:11Z</time>
      </trkpt>
      <trkpt lat="43.66805" lon="6.19899">
        <ele>799.6</ele>
        <time>2023-10-09T13:41:12Z</time>
      </trkpt>
      <trkpt lat="43.66805" lon="6.19899">
        <ele>799.6</ele>
        <time>2023-10-09T13:41:13Z</time>
      </trkpt>
      <trkpt lat="43.66804" lon="6.19898">
        <ele>799.8</ele>
        <time>2023-10-09T13:41:14Z</time>
      </trkpt>
      <trkpt lat="43.66803" lon="6.19898">
        <ele>799.8</ele>
        <time>2023-10-09T13:41:15Z</time>
      </trkpt>
      <trkpt lat="43.66802" lon="6.19898">
        <ele>799.9</ele>
        <time>2023-10-09T13:41:16Z</time>
      </trkpt>
      <trkpt lat="43.66802" lon="6.19897">
        <ele>800</ele>
        <time>2023-10-09T13:41:17Z</time>
      </trkpt>
      <trkpt lat="43.66801" lon="6.19896">
        <ele>800.2</ele>
        <time>2023-10-09T13:41:18Z</time>
      </trkpt>
      <trkpt lat="43.668" lon="6.19895">
        <ele>800.4</ele>
        <time>2023-10-09T13:41:19Z</time>
      </trkpt>
      <trkpt lat="43.66799" lon="6.19895">
        <ele>800.5</ele>
        <time>2023-10-09T13:41:20Z</time>
      </trkpt>
      <trkpt lat="43.66798" lon="6.19895">
        <ele>800.5</ele>
        <time>2023-10-09T13:41:21Z</time>
      </trkpt>
      <trkpt lat="43.66797" lon="6.19895">
        <ele>800.6</ele>
        <time>2023-10-09T13:41:22Z</time>
      </trkpt>
      <trkpt lat="43.66796" lon="6.19894">
        <ele>800.8</ele>
        <time>2023-10-09T13:41:23Z</time>
      </trkpt>
      <trkpt lat="43.66794" lon="6.19894">
        <ele>800.9</ele>
        <time>2023-10-09T13:41:24Z</time>
      </trkpt>
      <trkpt lat="43.66792" lon="6.19893">
        <ele>801.2</ele>
        <time>2023-10-09T13:41:25Z</time>
      </trkpt>
      <trkpt lat="43.66792" lon="6.19893">
        <ele>801.2</ele>
        <time>2023-10-09T13:41:26Z</time>
      </trkpt>
      <trkpt lat="43.66791" lon="6.19893">
        <ele>801.3</ele>
        <time>2023-10-09T13:41:27Z</time>
      </trkpt>
      <trkpt lat="43.66789" lon="6.19892">
        <ele>801.6</ele>
        <time>2023-10-09T13:41:28Z</time>
      </trkpt>
      <trkpt lat="43.66788" lon="6.19892">
        <ele>801.7</ele>
        <time>2023-10-09T13:41:29Z</time>
      </trkpt>
      <trkpt lat="43.66787" lon="6.19892">
        <ele>801.7</ele>
        <time>2023-10-09T13:41:30Z</time>
      </trkpt>
      <trkpt lat="43.66786" lon="6.19892">
        <ele>801.8</ele>
        <time>2023-10-09T13:41:31Z</time>
      </trkpt>
      <trkpt lat="43.66785" lon="6.19891">
        <ele>802.1</ele>
        <time>2023-10-09T13:41:32Z</time>
      </trkpt>
      <trkpt lat="43.66784" lon="6.19891">
        <ele>802.1</ele>
        <time>2023-10-09T13:41:33Z</time>
      </trkpt>
      <trkpt lat="43.66783" lon="6.19891">
        <ele>802.2</ele>
        <time>2023-10-09T13:41:34Z</time>
      </trkpt>
      <trkpt lat="43.66782" lon="6.1989">
        <ele>802.5</ele>
        <time>2023-10-09T13:41:35Z</time>
      </trkpt>
      <trkpt lat="43.66781" lon="6.1989">
        <ele>802.5</ele>
        <time>2023-10-09T13:41:36Z</time>
      </trkpt>
      <trkpt lat="43.6678" lon="6.1989">
        <ele>802.6</ele>
        <time>2023-10-09T13:41:37Z</time>
      </trkpt>
      <trkpt lat="43.66779" lon="6.1989">
        <ele>802.7</ele>
        <time>2023-10-09T13:41:38Z</time>
      </trkpt>
      <trkpt lat="43.66778" lon="6.1989">
        <ele>802.7</ele>
        <time>2023-10-09T13:41:39Z</time>
      </trkpt>
      <trkpt lat="43.66777" lon="6.19889">
        <ele>803</ele>
        <time>2023-10-09T13:41:40Z</time>
      </trkpt>
      <trkpt lat="43.66776" lon="6.19889">
        <ele>803</ele>
        <time>2023-10-09T13:41:41Z</time>
      </trkpt>
      <trkpt lat="43.66775" lon="6.19888">
        <ele>803</ele>
        <time>2023-10-09T13:41:42Z</time>
      </trkpt>
      <trkpt lat="43.66774" lon="6.19888">
        <ele>803.1</ele>
        <time>2023-10-09T13:41:43Z</time>
      </trkpt>
      <trkpt lat="43.66773" lon="6.19888">
        <ele>803.1</ele>
        <time>2023-10-09T13:41:44Z</time>
      </trkpt>
      <trkpt lat="43.66772" lon="6.19888">
        <ele>803.2</ele>
        <time>2023-10-09T13:41:45Z</time>
      </trkpt>
      <trkpt lat="43.66772" lon="6.19888">
        <ele>803.2</ele>
        <time>2023-10-09T13:41:46Z</time>
      </trkpt>
      <trkpt lat="43.66771" lon="6.19888">
        <ele>803.2</ele>
        <time>2023-10-09T13:41:47Z</time>
      </trkpt>
      <trkpt lat="43.6677" lon="6.19888">
        <ele>803.2</ele>
        <time>2023-10-09T13:41:48Z</time>
      </trkpt>
      <trkpt lat="43.66769" lon="6.19888">
        <ele>803.3</ele>
        <time>2023-10-09T13:41:49Z</time>
      </trkpt>
      <trkpt lat="43.66767" lon="6.19888">
        <ele>803.4</ele>
        <time>2023-10-09T13:41:50Z</time>
      </trkpt>
      <trkpt lat="43.66766" lon="6.19888">
        <ele>803.4</ele>
        <time>2023-10-09T13:41:51Z</time>
      </trkpt>
      <trkpt lat="43.66765" lon="6.19888">
        <ele>803.4</ele>
        <time>2023-10-09T13:41:52Z</time>
      </trkpt>
      <trkpt lat="43.66764" lon="6.19888">
        <ele>803.5</ele>
        <time>2023-10-09T13:41:53Z</time>
      </trkpt>
      <trkpt lat="43.66763" lon="6.19888">
        <ele>803.5</ele>
        <time>2023-10-09T13:41:54Z</time>
      </trkpt>
      <trkpt lat="43.66762" lon="6.19888">
        <ele>803.6</ele>
        <time>2023-10-09T13:41:55Z</time>
      </trkpt>
      <trkpt lat="43.66761" lon="6.19888">
        <ele>803.6</ele>
        <time>2023-10-09T13:41:56Z</time>
      </trkpt>
      <trkpt lat="43.6676" lon="6.19888">
        <ele>803.6</ele>
        <time>2023-10-09T13:41:57Z</time>
      </trkpt>
      <trkpt lat="43.66759" lon="6.19888">
        <ele>803.7</ele>
        <time>2023-10-09T13:41:58Z</time>
      </trkpt>
      <trkpt lat="43.66758" lon="6.19888">
        <ele>803.7</ele>
        <time>2023-10-09T13:41:59Z</time>
      </trkpt>
      <trkpt lat="43.66757" lon="6.19887">
        <ele>803.8</ele>
        <time>2023-10-09T13:42:00Z</time>
      </trkpt>
      <trkpt lat="43.66756" lon="6.19886">
        <ele>803.8</ele>
        <time>2023-10-09T13:42:01Z</time>
      </trkpt>
      <trkpt lat="43.66755" lon="6.19886">
        <ele>803.9</ele>
        <time>2023-10-09T13:42:02Z</time>
      </trkpt>
      <trkpt lat="43.66754" lon="6.19885">
        <ele>803.9</ele>
        <time>2023-10-09T13:42:03Z</time>
      </trkpt>
      <trkpt lat="43.66754" lon="6.19885">
        <ele>803.9</ele>
        <time>2023-10-09T13:42:04Z</time>
      </trkpt>
      <trkpt lat="43.66753" lon="6.19884">
        <ele>804</ele>
        <time>2023-10-09T13:42:05Z</time>
      </trkpt>
      <trkpt lat="43.66752" lon="6.19883">
        <ele>804.1</ele>
        <time>2023-10-09T13:42:06Z</time>
      </trkpt>
      <trkpt lat="43.66751" lon="6.19883">
        <ele>804.2</ele>
        <time>2023-10-09T13:42:07Z</time>
      </trkpt>
      <trkpt lat="43.66751" lon="6.19883">
        <ele>804.2</ele>
        <time>2023-10-09T13:42:08Z</time>
      </trkpt>
      <trkpt lat="43.6675" lon="6.19882">
        <ele>804.2</ele>
        <time>2023-10-09T13:42:09Z</time>
      </trkpt>
      <trkpt lat="43.66749" lon="6.19882">
        <ele>804.3</ele>
        <time>2023-10-09T13:42:10Z</time>
      </trkpt>
      <trkpt lat="43.66748" lon="6.19881">
        <ele>804.5</ele>
        <time>2023-10-09T13:42:11Z</time>
      </trkpt>
      <trkpt lat="43.66747" lon="6.19881">
        <ele>804.6</ele>
        <time>2023-10-09T13:42:12Z</time>
      </trkpt>
      <trkpt lat="43.66746" lon="6.1988">
        <ele>804.7</ele>
        <time>2023-10-09T13:42:13Z</time>
      </trkpt>
      <trkpt lat="43.66745" lon="6.19879">
        <ele>804.8</ele>
        <time>2023-10-09T13:42:14Z</time>
      </trkpt>
      <trkpt lat="43.66744" lon="6.19878">
        <ele>805</ele>
        <time>2023-10-09T13:42:15Z</time>
      </trkpt>
      <trkpt lat="43.66744" lon="6.19877">
        <ele>805</ele>
        <time>2023-10-09T13:42:16Z</time>
      </trkpt>
      <trkpt lat="43.66743" lon="6.19876">
        <ele>805.2</ele>
        <time>2023-10-09T13:42:17Z</time>
      </trkpt>
      <trkpt lat="43.66742" lon="6.19876">
        <ele>805.3</ele>
        <time>2023-10-09T13:42:18Z</time>
      </trkpt>
      <trkpt lat="43.66741" lon="6.19875">
        <ele>805.5</ele>
        <time>2023-10-09T13:42:19Z</time>
      </trkpt>
      <trkpt lat="43.6674" lon="6.19875">
        <ele>805.6</ele>
        <time>2023-10-09T13:42:20Z</time>
      </trkpt>
      <trkpt lat="43.6674" lon="6.19874">
        <ele>805.6</ele>
        <time>2023-10-09T13:42:21Z</time>
      </trkpt>
      <trkpt lat="43.66739" lon="6.19873">
        <ele>805.8</ele>
        <time>2023-10-09T13:42:22Z</time>
      </trkpt>
      <trkpt lat="43.66739" lon="6.19873">
        <ele>805.8</ele>
        <time>2023-10-09T13:42:23Z</time>
      </trkpt>
      <trkpt lat="43.66738" lon="6.19872">
        <ele>806</ele>
        <time>2023-10-09T13:42:24Z</time>
      </trkpt>
      <trkpt lat="43.66738" lon="6.19871">
        <ele>806.1</ele>
        <time>2023-10-09T13:42:25Z</time>
      </trkpt>
      <trkpt lat="43.66737" lon="6.1987">
        <ele>806.3</ele>
        <time>2023-10-09T13:42:26Z</time>
      </trkpt>
      <trkpt lat="43.66736" lon="6.1987">
        <ele>806.4</ele>
        <time>2023-10-09T13:42:27Z</time>
      </trkpt>
      <trkpt lat="43.66735" lon="6.19869">
        <ele>806.6</ele>
        <time>2023-10-09T13:42:28Z</time>
      </trkpt>
      <trkpt lat="43.66734" lon="6.1987">
        <ele>806.6</ele>
        <time>2023-10-09T13:42:29Z</time>
      </trkpt>
      <trkpt lat="43.66733" lon="6.1987">
        <ele>806.7</ele>
        <time>2023-10-09T13:42:30Z</time>
      </trkpt>
      <trkpt lat="43.66732" lon="6.19871">
        <ele>806.8</ele>
        <time>2023-10-09T13:42:31Z</time>
      </trkpt>
      <trkpt lat="43.6673" lon="6.19872">
        <ele>806.9</ele>
        <time>2023-10-09T13:42:32Z</time>
      </trkpt>
      <trkpt lat="43.66729" lon="6.19873">
        <ele>806.9</ele>
        <time>2023-10-09T13:42:33Z</time>
      </trkpt>
      <trkpt lat="43.66729" lon="6.19873">
        <ele>806.9</ele>
        <time>2023-10-09T13:42:34Z</time>
      </trkpt>
      <trkpt lat="43.66727" lon="6.19874">
        <ele>807.1</ele>
        <time>2023-10-09T13:42:35Z</time>
      </trkpt>
      <trkpt lat="43.66726" lon="6.19874">
        <ele>807.2</ele>
        <time>2023-10-09T13:42:36Z</time>
      </trkpt>
      <trkpt lat="43.66726" lon="6.19874">
        <ele>807.2</ele>
        <time>2023-10-09T13:42:37Z</time>
      </trkpt>
      <trkpt lat="43.66725" lon="6.19874">
        <ele>807.3</ele>
        <time>2023-10-09T13:42:38Z</time>
      </trkpt>
      <trkpt lat="43.66723" lon="6.19874">
        <ele>807.5</ele>
        <time>2023-10-09T13:42:39Z</time>
      </trkpt>
      <trkpt lat="43.66722" lon="6.19874">
        <ele>807.6</ele>
        <time>2023-10-09T13:42:40Z</time>
      </trkpt>
      <trkpt lat="43.66721" lon="6.19874">
        <ele>807.5</ele>
        <time>2023-10-09T13:42:41Z</time>
      </trkpt>
      <trkpt lat="43.66721" lon="6.19874">
        <ele>807.5</ele>
        <time>2023-10-09T13:42:42Z</time>
      </trkpt>
      <trkpt lat="43.6672" lon="6.19874">
        <ele>807.5</ele>
        <time>2023-10-09T13:42:43Z</time>
      </trkpt>
      <trkpt lat="43.66719" lon="6.19875">
        <ele>807.3</ele>
        <time>2023-10-09T13:42:44Z</time>
      </trkpt>
      <trkpt lat="43.66718" lon="6.19875">
        <ele>807.3</ele>
        <time>2023-10-09T13:42:45Z</time>
      </trkpt>
      <trkpt lat="43.66718" lon="6.19874">
        <ele>807.4</ele>
        <time>2023-10-09T13:42:46Z</time>
      </trkpt>
      <trkpt lat="43.66718" lon="6.19874">
        <ele>807.4</ele>
        <time>2023-10-09T13:42:47Z</time>
      </trkpt>
      <trkpt lat="43.66718" lon="6.19874">
        <ele>807.4</ele>
        <time>2023-10-09T13:42:48Z</time>
      </trkpt>
      <trkpt lat="43.66717" lon="6.19874">
        <ele>807.3</ele>
        <time>2023-10-09T13:42:49Z</time>
      </trkpt>
      <trkpt lat="43.66717" lon="6.19874">
        <ele>807.3</ele>
        <time>2023-10-09T13:42:50Z</time>
      </trkpt>
      <trkpt lat="43.66717" lon="6.19874">
        <ele>807.3</ele>
        <time>2023-10-09T13:42:51Z</time>
      </trkpt>
      <trkpt lat="43.66716" lon="6.19874">
        <ele>807.3</ele>
        <time>2023-10-09T13:42:52Z</time>
      </trkpt>
      <trkpt lat="43.66716" lon="6.19874">
        <ele>807.3</ele>
        <time>2023-10-09T13:42:53Z</time>
      </trkpt>
      <trkpt lat="43.66715" lon="6.19874">
        <ele>807.2</ele>
        <time>2023-10-09T13:42:54Z</time>
      </trkpt>
      <trkpt lat="43.66714" lon="6.19873">
        <ele>807.3</ele>
        <time>2023-10-09T13:42:55Z</time>
      </trkpt>
      <trkpt lat="43.66714" lon="6.19873">
        <ele>807.3</ele>
        <time>2023-10-09T13:42:56Z</time>
      </trkpt>
      <trkpt lat="43.66713" lon="6.19872">
        <ele>807.3</ele>
        <time>2023-10-09T13:42:57Z</time>
      </trkpt>
      <trkpt lat="43.66712" lon="6.19872">
        <ele>807.2</ele>
        <time>2023-10-09T13:42:58Z</time>
      </trkpt>
      <trkpt lat="43.66711" lon="6.19871">
        <ele>807.3</ele>
        <time>2023-10-09T13:42:59Z</time>
      </trkpt>
      <trkpt lat="43.66711" lon="6.19871">
        <ele>807.3</ele>
        <time>2023-10-09T13:43:00Z</time>
      </trkpt>
      <trkpt lat="43.6671" lon="6.1987">
        <ele>807.3</ele>
        <time>2023-10-09T13:43:01Z</time>
      </trkpt>
      <trkpt lat="43.66709" lon="6.1987">
        <ele>807.2</ele>
        <time>2023-10-09T13:43:02Z</time>
      </trkpt>
      <trkpt lat="43.66708" lon="6.19869">
        <ele>807.3</ele>
        <time>2023-10-09T13:43:03Z</time>
      </trkpt>
      <trkpt lat="43.66708" lon="6.19869">
        <ele>807.3</ele>
        <time>2023-10-09T13:43:04Z</time>
      </trkpt>
      <trkpt lat="43.66707" lon="6.19868">
        <ele>807.3</ele>
        <time>2023-10-09T13:43:05Z</time>
      </trkpt>
      <trkpt lat="43.66706" lon="6.19867">
        <ele>807.3</ele>
        <time>2023-10-09T13:43:06Z</time>
      </trkpt>
      <trkpt lat="43.66705" lon="6.19866">
        <ele>807.3</ele>
        <time>2023-10-09T13:43:07Z</time>
      </trkpt>
      <trkpt lat="43.66705" lon="6.19866">
        <ele>807.3</ele>
        <time>2023-10-09T13:43:08Z</time>
      </trkpt>
      <trkpt lat="43.66704" lon="6.19865">
        <ele>807.4</ele>
        <time>2023-10-09T13:43:09Z</time>
      </trkpt>
      <trkpt lat="43.66703" lon="6.19865">
        <ele>807.3</ele>
        <time>2023-10-09T13:43:10Z</time>
      </trkpt>
      <trkpt lat="43.66702" lon="6.19865">
        <ele>807.2</ele>
        <time>2023-10-09T13:43:11Z</time>
      </trkpt>
      <trkpt lat="43.66701" lon="6.19865">
        <ele>807.2</ele>
        <time>2023-10-09T13:43:12Z</time>
      </trkpt>
      <trkpt lat="43.667" lon="6.19864">
        <ele>807.2</ele>
        <time>2023-10-09T13:43:13Z</time>
      </trkpt>
      <trkpt lat="43.66699" lon="6.19864">
        <ele>807.1</ele>
        <time>2023-10-09T13:43:14Z</time>
      </trkpt>
      <trkpt lat="43.66698" lon="6.19863">
        <ele>807.1</ele>
        <time>2023-10-09T13:43:15Z</time>
      </trkpt>
      <trkpt lat="43.66697" lon="6.19862">
        <ele>807.1</ele>
        <time>2023-10-09T13:43:16Z</time>
      </trkpt>
      <trkpt lat="43.66697" lon="6.19861">
        <ele>807.2</ele>
        <time>2023-10-09T13:43:17Z</time>
      </trkpt>
      <trkpt lat="43.66696" lon="6.19861">
        <ele>807.1</ele>
        <time>2023-10-09T13:43:18Z</time>
      </trkpt>
      <trkpt lat="43.66696" lon="6.1986">
        <ele>807</ele>
        <time>2023-10-09T13:43:19Z</time>
      </trkpt>
      <trkpt lat="43.66695" lon="6.1986">
        <ele>806.9</ele>
        <time>2023-10-09T13:43:20Z</time>
      </trkpt>
      <trkpt lat="43.66695" lon="6.19859">
        <ele>806.8</ele>
        <time>2023-10-09T13:43:21Z</time>
      </trkpt>
      <trkpt lat="43.66694" lon="6.19859">
        <ele>806.7</ele>
        <time>2023-10-09T13:43:22Z</time>
      </trkpt>
      <trkpt lat="43.66694" lon="6.19859">
        <ele>806.7</ele>
        <time>2023-10-09T13:43:23Z</time>
      </trkpt>
      <trkpt lat="43.66694" lon="6.19859">
        <ele>806.7</ele>
        <time>2023-10-09T13:43:24Z</time>
      </trkpt>
      <trkpt lat="43.66694" lon="6.19858">
        <ele>806.6</ele>
        <time>2023-10-09T13:43:25Z</time>
      </trkpt>
      <trkpt lat="43.66693" lon="6.19858">
        <ele>806.3</ele>
        <time>2023-10-09T13:43:26Z</time>
      </trkpt>
      <trkpt lat="43.66693" lon="6.19857">
        <ele>806.2</ele>
        <time>2023-10-09T13:43:27Z</time>
      </trkpt>
      <trkpt lat="43.66693" lon="6.19856">
        <ele>806.1</ele>
        <time>2023-10-09T13:43:28Z</time>
      </trkpt>
      <trkpt lat="43.66693" lon="6.19856">
        <ele>806.1</ele>
        <time>2023-10-09T13:43:29Z</time>
      </trkpt>
      <trkpt lat="43.66692" lon="6.19855">
        <ele>805.8</ele>
        <time>2023-10-09T13:43:30Z</time>
      </trkpt>
      <trkpt lat="43.66692" lon="6.19854">
        <ele>805.7</ele>
        <time>2023-10-09T13:43:31Z</time>
      </trkpt>
      <trkpt lat="43.66691" lon="6.19854">
        <ele>805.4</ele>
        <time>2023-10-09T13:43:32Z</time>
      </trkpt>
      <trkpt lat="43.66691" lon="6.19854">
        <ele>805.4</ele>
        <time>2023-10-09T13:43:33Z</time>
      </trkpt>
      <trkpt lat="43.6669" lon="6.19854">
        <ele>805.2</ele>
        <time>2023-10-09T13:43:34Z</time>
      </trkpt>
      <trkpt lat="43.6669" lon="6.19854">
        <ele>805.2</ele>
        <time>2023-10-09T13:43:35Z</time>
      </trkpt>
      <trkpt lat="43.66689" lon="6.19854">
        <ele>805</ele>
        <time>2023-10-09T13:43:36Z</time>
      </trkpt>
      <trkpt lat="43.66689" lon="6.19854">
        <ele>805</ele>
        <time>2023-10-09T13:43:37Z</time>
      </trkpt>
      <trkpt lat="43.66688" lon="6.19854">
        <ele>804.7</ele>
        <time>2023-10-09T13:43:38Z</time>
      </trkpt>
      <trkpt lat="43.66687" lon="6.19854">
        <ele>804.5</ele>
        <time>2023-10-09T13:43:39Z</time>
      </trkpt>
      <trkpt lat="43.66687" lon="6.19854">
        <ele>804.5</ele>
        <time>2023-10-09T13:43:40Z</time>
      </trkpt>
      <trkpt lat="43.66687" lon="6.19854">
        <ele>804.5</ele>
        <time>2023-10-09T13:43:41Z</time>
      </trkpt>
      <trkpt lat="43.66686" lon="6.19854">
        <ele>804.3</ele>
        <time>2023-10-09T13:43:42Z</time>
      </trkpt>
      <trkpt lat="43.66686" lon="6.19853">
        <ele>804.2</ele>
        <time>2023-10-09T13:43:43Z</time>
      </trkpt>
      <trkpt lat="43.66686" lon="6.19852">
        <ele>804.1</ele>
        <time>2023-10-09T13:43:44Z</time>
      </trkpt>
      <trkpt lat="43.66686" lon="6.19852">
        <ele>804.1</ele>
        <time>2023-10-09T13:43:45Z</time>
      </trkpt>
      <trkpt lat="43.66685" lon="6.19851">
        <ele>803.8</ele>
        <time>2023-10-09T13:43:46Z</time>
      </trkpt>
      <trkpt lat="43.66684" lon="6.19851">
        <ele>803.5</ele>
        <time>2023-10-09T13:43:47Z</time>
      </trkpt>
      <trkpt lat="43.66684" lon="6.1985">
        <ele>803.5</ele>
        <time>2023-10-09T13:43:48Z</time>
      </trkpt>
      <trkpt lat="43.66683" lon="6.19849">
        <ele>803.2</ele>
        <time>2023-10-09T13:43:49Z</time>
      </trkpt>
      <trkpt lat="43.66683" lon="6.19849">
        <ele>803.2</ele>
        <time>2023-10-09T13:43:50Z</time>
      </trkpt>
      <trkpt lat="43.66683" lon="6.19849">
        <ele>803.2</ele>
        <time>2023-10-09T13:43:51Z</time>
      </trkpt>
      <trkpt lat="43.66683" lon="6.19849">
        <ele>803.2</ele>
        <time>2023-10-09T13:43:52Z</time>
      </trkpt>
      <trkpt lat="43.66683" lon="6.19849">
        <ele>803.2</ele>
        <time>2023-10-09T13:43:53Z</time>
      </trkpt>
      <trkpt lat="43.66683" lon="6.19849">
        <ele>803.2</ele>
        <time>2023-10-09T13:43:54Z</time>
      </trkpt>
      <trkpt lat="43.66683" lon="6.19849">
        <ele>803.2</ele>
        <time>2023-10-09T13:43:55Z</time>
      </trkpt>
      <trkpt lat="43.66683" lon="6.19849">
        <ele>803.2</ele>
        <time>2023-10-09T13:43:56Z</time>
      </trkpt>
      <trkpt lat="43.66683" lon="6.19849">
        <ele>803.2</ele>
        <time>2023-10-09T13:43:57Z</time>
      </trkpt>
      <trkpt lat="43.66683" lon="6.19849">
        <ele>803.2</ele>
        <time>2023-10-09T13:43:58Z</time>
      </trkpt>
      <trkpt lat="43.66683" lon="6.19848">
        <ele>803.1</ele>
        <time>2023-10-09T13:43:59Z</time>
      </trkpt>
      <trkpt lat="43.66684" lon="6.19848">
        <ele>803.3</ele>
        <time>2023-10-09T13:44:00Z</time>
      </trkpt>
      <trkpt lat="43.66684" lon="6.19848">
        <ele>803.3</ele>
        <time>2023-10-09T13:44:01Z</time>
      </trkpt>
      <trkpt lat="43.66684" lon="6.19848">
        <ele>803.3</ele>
        <time>2023-10-09T13:44:02Z</time>
      </trkpt>
      <trkpt lat="43.66684" lon="6.19848">
        <ele>803.3</ele>
        <time>2023-10-09T13:44:03Z</time>
      </trkpt>
      <trkpt lat="43.66684" lon="6.19848">
        <ele>803.3</ele>
        <time>2023-10-09T13:44:04Z</time>
      </trkpt>
      <trkpt lat="43.66684" lon="6.19848">
        <ele>803.3</ele>
        <time>2023-10-09T13:44:05Z</time>
      </trkpt>
      <trkpt lat="43.66684" lon="6.19848">
        <ele>803.3</ele>
        <time>2023-10-09T13:44:06Z</time>
      </trkpt>
      <trkpt lat="43.66684" lon="6.19848">
        <ele>803.3</ele>
        <time>2023-10-09T13:44:07Z</time>
      </trkpt>
      <trkpt lat="43.66684" lon="6.19848">
        <ele>803.3</ele>
        <time>2023-10-09T13:44:08Z</time>
      </trkpt>
      <trkpt lat="43.66684" lon="6.19848">
        <ele>803.3</ele>
        <time>2023-10-09T13:44:09Z</time>
      </trkpt>
      <trkpt lat="43.66684" lon="6.19848">
        <ele>803.3</ele>
        <time>2023-10-09T13:44:10Z</time>
      </trkpt>
      <trkpt lat="43.66684" lon="6.19848">
        <ele>803.3</ele>
        <time>2023-10-09T13:44:11Z</time>
      </trkpt>
      <trkpt lat="43.66684" lon="6.19848">
        <ele>803.3</ele>
        <time>2023-10-09T13:44:12Z</time>
      </trkpt>
      <trkpt lat="43.66684" lon="6.19848">
        <ele>803.3</ele>
        <time>2023-10-09T13:44:13Z</time>
      </trkpt>
      <trkpt lat="43.66684" lon="6.19848">
        <ele>803.3</ele>
        <time>2023-10-09T13:44:14Z</time>
      </trkpt>
      <trkpt lat="43.66684" lon="6.19848">
        <ele>803.3</ele>
        <time>2023-10-09T13:44:15Z</time>
      </trkpt>
      <trkpt lat="43.66684" lon="6.19848">
        <ele>803.3</ele>
        <time>2023-10-09T13:44:16Z</time>
      </trkpt>
      <trkpt lat="43.66684" lon="6.19848">
        <ele>803.3</ele>
        <time>2023-10-09T13:44:17Z</time>
      </trkpt>
      <trkpt lat="43.66684" lon="6.19848">
        <ele>803.3</ele>
        <time>2023-10-09T13:44:18Z</time>
      </trkpt>
      <trkpt lat="43.66684" lon="6.19848">
        <ele>803.3</ele>
        <time>2023-10-09T13:44:19Z</time>
      </trkpt>
      <trkpt lat="43.66684" lon="6.19848">
        <ele>803.3</ele>
        <time>2023-10-09T13:44:20Z</time>
      </trkpt>
      <trkpt lat="43.66684" lon="6.19848">
        <ele>803.3</ele>
        <time>2023-10-09T13:44:21Z</time>
      </trkpt>
      <trkpt lat="43.66684" lon="6.19848">
        <ele>803.3</ele>
        <time>2023-10-09T13:44:22Z</time>
      </trkpt>
      <trkpt lat="43.66684" lon="6.19848">
        <ele>803.3</ele>
        <time>2023-10-09T13:44:23Z</time>
      </trkpt>
      <trkpt lat="43.66684" lon="6.19848">
        <ele>803.3</ele>
        <time>2023-10-09T13:44:24Z</time>
      </trkpt>
      <trkpt lat="43.66684" lon="6.19848">
        <ele>803.3</ele>
        <time>2023-10-09T13:44:25Z</time>
      </trkpt>
      <trkpt lat="43.66684" lon="6.19848">
        <ele>803.3</ele>
        <time>2023-10-09T13:44:26Z</time>
      </trkpt>
      <trkpt lat="43.66684" lon="6.19848">
        <ele>803.3</ele>
        <time>2023-10-09T13:44:27Z</time>
      </trkpt>
      <trkpt lat="43.66684" lon="6.19848">
        <ele>803.3</ele>
        <time>2023-10-09T13:44:28Z</time>
      </trkpt>
      <trkpt lat="43.66684" lon="6.19848">
        <ele>803.3</ele>
        <time>2023-10-09T13:44:29Z</time>
      </trkpt>
      <trkpt lat="43.66685" lon="6.19848">
        <ele>803.5</ele>
        <time>2023-10-09T13:44:30Z</time>
      </trkpt>
      <trkpt lat="43.66685" lon="6.19848">
        <ele>803.5</ele>
        <time>2023-10-09T13:44:31Z</time>
      </trkpt>
      <trkpt lat="43.66685" lon="6.19848">
        <ele>803.5</ele>
        <time>2023-10-09T13:44:32Z</time>
      </trkpt>
      <trkpt lat="43.66685" lon="6.19848">
        <ele>803.5</ele>
        <time>2023-10-09T13:44:33Z</time>
      </trkpt>
      <trkpt lat="43.66685" lon="6.19848">
        <ele>803.5</ele>
        <time>2023-10-09T13:44:34Z</time>
      </trkpt>
      <trkpt lat="43.66685" lon="6.19848">
        <ele>803.5</ele>
        <time>2023-10-09T13:44:35Z</time>
      </trkpt>
      <trkpt lat="43.66685" lon="6.19848">
        <ele>803.5</ele>
        <time>2023-10-09T13:44:36Z</time>
      </trkpt>
      <trkpt lat="43.66685" lon="6.19848">
        <ele>803.5</ele>
        <time>2023-10-09T13:44:37Z</time>
      </trkpt>
      <trkpt lat="43.66685" lon="6.19848">
        <ele>803.5</ele>
        <time>2023-10-09T13:44:38Z</time>
      </trkpt>
      <trkpt lat="43.66685" lon="6.19848">
        <ele>803.5</ele>
        <time>2023-10-09T13:44:39Z</time>
      </trkpt>
      <trkpt lat="43.66685" lon="6.19848">
        <ele>803.5</ele>
        <time>2023-10-09T13:44:40Z</time>
      </trkpt>
      <trkpt lat="43.66685" lon="6.19848">
        <ele>803.5</ele>
        <time>2023-10-09T13:44:41Z</time>
      </trkpt>
      <trkpt lat="43.66685" lon="6.19848">
        <ele>803.5</ele>
        <time>2023-10-09T13:44:42Z</time>
      </trkpt>
      <trkpt lat="43.66685" lon="6.19848">
        <ele>803.5</ele>
        <time>2023-10-09T13:44:43Z</time>
      </trkpt>
      <trkpt lat="43.66685" lon="6.19848">
        <ele>803.5</ele>
        <time>2023-10-09T13:44:44Z</time>
      </trkpt>
      <trkpt lat="43.66685" lon="6.19848">
        <ele>803.5</ele>
        <time>2023-10-09T13:44:45Z</time>
      </trkpt>
      <trkpt lat="43.66685" lon="6.19848">
        <ele>803.5</ele>
        <time>2023-10-09T13:44:46Z</time>
      </trkpt>
      <trkpt lat="43.66685" lon="6.19848">
        <ele>803.5</ele>
        <time>2023-10-09T13:44:47Z</time>
      </trkpt>
      <trkpt lat="43.66685" lon="6.19848">
        <ele>803.5</ele>
        <time>2023-10-09T13:44:48Z</time>
      </trkpt>
      <trkpt lat="43.66685" lon="6.19848">
        <ele>803.5</ele>
        <time>2023-10-09T13:44:49Z</time>
      </trkpt>
      <trkpt lat="43.66685" lon="6.19848">
        <ele>803.5</ele>
        <time>2023-10-09T13:44:50Z</time>
      </trkpt>
      <trkpt lat="43.66685" lon="6.19848">
        <ele>803.5</ele>
        <time>2023-10-09T13:44:51Z</time>
      </trkpt>
      <trkpt lat="43.66685" lon="6.19848">
        <ele>803.5</ele>
        <time>2023-10-09T13:44:52Z</time>
      </trkpt>
      <trkpt lat="43.66685" lon="6.19848">
        <ele>803.5</ele>
        <time>2023-10-09T13:44:53Z</time>
      </trkpt>
      <trkpt lat="43.66685" lon="6.19848">
        <ele>803.5</ele>
        <time>2023-10-09T13:44:54Z</time>
      </trkpt>
      <trkpt lat="43.66685" lon="6.19848">
        <ele>803.5</ele>
        <time>2023-10-09T13:44:55Z</time>
      </trkpt>
      <trkpt lat="43.66685" lon="6.19848">
        <ele>803.5</ele>
        <time>2023-10-09T13:44:56Z</time>
      </trkpt>
      <trkpt lat="43.66685" lon="6.19848">
        <ele>803.5</ele>
        <time>2023-10-09T13:44:57Z</time>
      </trkpt>
      <trkpt lat="43.66685" lon="6.19848">
        <ele>803.5</ele>
        <time>2023-10-09T13:44:58Z</time>
      </trkpt>
      <trkpt lat="43.66685" lon="6.19847">
        <ele>803.4</ele>
        <time>2023-10-09T13:44:59Z</time>
      </trkpt>
      <trkpt lat="43.66685" lon="6.19847">
        <ele>803.4</ele>
        <time>2023-10-09T13:45:00Z</time>
      </trkpt>
      <trkpt lat="43.66686" lon="6.19847">
        <ele>803.7</ele>
        <time>2023-10-09T13:45:01Z</time>
      </trkpt>
      <trkpt lat="43.66686" lon="6.19847">
        <ele>803.7</ele>
        <time>2023-10-09T13:45:02Z</time>
      </trkpt>
      <trkpt lat="43.66686" lon="6.19847">
        <ele>803.7</ele>
        <time>2023-10-09T13:45:03Z</time>
      </trkpt>
      <trkpt lat="43.66686" lon="6.19847">
        <ele>803.7</ele>
        <time>2023-10-09T13:45:04Z</time>
      </trkpt>
      <trkpt lat="43.66686" lon="6.19847">
        <ele>803.7</ele>
        <time>2023-10-09T13:45:05Z</time>
      </trkpt>
      <trkpt lat="43.66686" lon="6.19847">
        <ele>803.7</ele>
        <time>2023-10-09T13:45:06Z</time>
      </trkpt>
      <trkpt lat="43.66686" lon="6.19847">
        <ele>803.7</ele>
        <time>2023-10-09T13:45:07Z</time>
      </trkpt>
      <trkpt lat="43.66686" lon="6.19847">
        <ele>803.7</ele>
        <time>2023-10-09T13:45:08Z</time>
      </trkpt>
      <trkpt lat="43.66686" lon="6.19847">
        <ele>803.7</ele>
        <time>2023-10-09T13:45:09Z</time>
      </trkpt>
      <trkpt lat="43.66686" lon="6.19847">
        <ele>803.7</ele>
        <time>2023-10-09T13:45:10Z</time>
      </trkpt>
      <trkpt lat="43.66686" lon="6.19847">
        <ele>803.7</ele>
        <time>2023-10-09T13:45:11Z</time>
      </trkpt>
      <trkpt lat="43.66686" lon="6.19847">
        <ele>803.7</ele>
        <time>2023-10-09T13:45:12Z</time>
      </trkpt>
      <trkpt lat="43.66686" lon="6.19847">
        <ele>803.7</ele>
        <time>2023-10-09T13:45:13Z</time>
      </trkpt>
      <trkpt lat="43.66686" lon="6.19847">
        <ele>803.7</ele>
        <time>2023-10-09T13:45:14Z</time>
      </trkpt>
      <trkpt lat="43.66686" lon="6.19847">
        <ele>803.7</ele>
        <time>2023-10-09T13:45:15Z</time>
      </trkpt>
      <trkpt lat="43.66686" lon="6.19847">
        <ele>803.7</ele>
        <time>2023-10-09T13:45:16Z</time>
      </trkpt>
      <trkpt lat="43.66686" lon="6.19847">
        <ele>803.7</ele>
        <time>2023-10-09T13:45:17Z</time>
      </trkpt>
      <trkpt lat="43.66686" lon="6.19847">
        <ele>803.7</ele>
        <time>2023-10-09T13:45:18Z</time>
      </trkpt>
      <trkpt lat="43.66686" lon="6.19847">
        <ele>803.7</ele>
        <time>2023-10-09T13:45:19Z</time>
      </trkpt>
      <trkpt lat="43.66686" lon="6.19847">
        <ele>803.7</ele>
        <time>2023-10-09T13:45:20Z</time>
      </trkpt>
      <trkpt lat="43.66686" lon="6.19847">
        <ele>803.7</ele>
        <time>2023-10-09T13:45:21Z</time>
      </trkpt>
      <trkpt lat="43.66686" lon="6.19847">
        <ele>803.7</ele>
        <time>2023-10-09T13:45:22Z</time>
      </trkpt>
      <trkpt lat="43.66686" lon="6.19847">
        <ele>803.7</ele>
        <time>2023-10-09T13:45:23Z</time>
      </trkpt>
      <trkpt lat="43.66686" lon="6.19847">
        <ele>803.7</ele>
        <time>2023-10-09T13:45:24Z</time>
      </trkpt>
      <trkpt lat="43.66686" lon="6.19847">
        <ele>803.7</ele>
        <time>2023-10-09T13:45:25Z</time>
      </trkpt>
      <trkpt lat="43.66686" lon="6.19847">
        <ele>803.7</ele>
        <time>2023-10-09T13:45:26Z</time>
      </trkpt>
      <trkpt lat="43.66686" lon="6.19847">
        <ele>803.7</ele>
        <time>2023-10-09T13:45:27Z</time>
      </trkpt>
      <trkpt lat="43.66686" lon="6.19847">
        <ele>803.7</ele>
        <time>2023-10-09T13:45:28Z</time>
      </trkpt>
      <trkpt lat="43.66686" lon="6.19847">
        <ele>803.7</ele>
        <time>2023-10-09T13:45:29Z</time>
      </trkpt>
      <trkpt lat="43.66686" lon="6.19847">
        <ele>803.7</ele>
        <time>2023-10-09T13:45:30Z</time>
      </trkpt>
      <trkpt lat="43.66687" lon="6.19847">
        <ele>803.9</ele>
        <time>2023-10-09T13:45:31Z</time>
      </trkpt>
      <trkpt lat="43.66687" lon="6.19847">
        <ele>803.9</ele>
        <time>2023-10-09T13:45:32Z</time>
      </trkpt>
      <trkpt lat="43.66687" lon="6.19847">
        <ele>803.9</ele>
        <time>2023-10-09T13:45:33Z</time>
      </trkpt>
      <trkpt lat="43.66687" lon="6.19847">
        <ele>803.9</ele>
        <time>2023-10-09T13:45:34Z</time>
      </trkpt>
      <trkpt lat="43.66687" lon="6.19847">
        <ele>803.9</ele>
        <time>2023-10-09T13:45:35Z</time>
      </trkpt>
      <trkpt lat="43.66687" lon="6.19847">
        <ele>803.9</ele>
        <time>2023-10-09T13:45:36Z</time>
      </trkpt>
      <trkpt lat="43.66687" lon="6.19847">
        <ele>803.9</ele>
        <time>2023-10-09T13:45:37Z</time>
      </trkpt>
      <trkpt lat="43.66687" lon="6.19847">
        <ele>803.9</ele>
        <time>2023-10-09T13:45:38Z</time>
      </trkpt>
      <trkpt lat="43.66687" lon="6.19847">
        <ele>803.9</ele>
        <time>2023-10-09T13:45:39Z</time>
      </trkpt>
      <trkpt lat="43.66687" lon="6.19847">
        <ele>803.9</ele>
        <time>2023-10-09T13:45:40Z</time>
      </trkpt>
      <trkpt lat="43.66687" lon="6.19847">
        <ele>803.9</ele>
        <time>2023-10-09T13:45:41Z</time>
      </trkpt>
      <trkpt lat="43.66687" lon="6.19847">
        <ele>803.9</ele>
        <time>2023-10-09T13:45:42Z</time>
      </trkpt>
      <trkpt lat="43.66687" lon="6.19847">
        <ele>803.9</ele>
        <time>2023-10-09T13:45:43Z</time>
      </trkpt>
      <trkpt lat="43.66687" lon="6.19847">
        <ele>803.9</ele>
        <time>2023-10-09T13:45:44Z</time>
      </trkpt>
      <trkpt lat="43.66687" lon="6.19847">
        <ele>803.9</ele>
        <time>2023-10-09T13:45:45Z</time>
      </trkpt>
      <trkpt lat="43.66687" lon="6.19847">
        <ele>803.9</ele>
        <time>2023-10-09T13:45:46Z</time>
      </trkpt>
      <trkpt lat="43.66687" lon="6.19847">
        <ele>803.9</ele>
        <time>2023-10-09T13:45:47Z</time>
      </trkpt>
      <trkpt lat="43.66687" lon="6.19847">
        <ele>803.9</ele>
        <time>2023-10-09T13:45:48Z</time>
      </trkpt>
      <trkpt lat="43.66687" lon="6.19847">
        <ele>803.9</ele>
        <time>2023-10-09T13:45:49Z</time>
      </trkpt>
      <trkpt lat="43.66687" lon="6.19847">
        <ele>803.9</ele>
        <time>2023-10-09T13:45:50Z</time>
      </trkpt>
      <trkpt lat="43.66687" lon="6.19847">
        <ele>803.9</ele>
        <time>2023-10-09T13:45:51Z</time>
      </trkpt>
      <trkpt lat="43.66687" lon="6.19847">
        <ele>803.9</ele>
        <time>2023-10-09T13:45:52Z</time>
      </trkpt>
      <trkpt lat="43.66687" lon="6.19847">
        <ele>803.9</ele>
        <time>2023-10-09T13:45:53Z</time>
      </trkpt>
      <trkpt lat="43.66687" lon="6.19847">
        <ele>803.9</ele>
        <time>2023-10-09T13:45:54Z</time>
      </trkpt>
      <trkpt lat="43.66687" lon="6.19847">
        <ele>803.9</ele>
        <time>2023-10-09T13:45:55Z</time>
      </trkpt>
      <trkpt lat="43.66687" lon="6.19847">
        <ele>803.9</ele>
        <time>2023-10-09T13:45:56Z</time>
      </trkpt>
      <trkpt lat="43.66687" lon="6.19847">
        <ele>803.9</ele>
        <time>2023-10-09T13:45:57Z</time>
      </trkpt>
      <trkpt lat="43.66687" lon="6.19847">
        <ele>803.9</ele>
        <time>2023-10-09T13:45:58Z</time>
      </trkpt>
      <trkpt lat="43.66687" lon="6.19846">
        <ele>803.8</ele>
        <time>2023-10-09T13:45:59Z</time>
      </trkpt>
      <trkpt lat="43.66687" lon="6.19846">
        <ele>803.8</ele>
        <time>2023-10-09T13:46:00Z</time>
      </trkpt>
      <trkpt lat="43.66687" lon="6.19846">
        <ele>803.8</ele>
        <time>2023-10-09T13:46:01Z</time>
      </trkpt>
      <trkpt lat="43.66688" lon="6.19846">
        <ele>804</ele>
        <time>2023-10-09T13:46:02Z</time>
      </trkpt>
      <trkpt lat="43.66688" lon="6.19846">
        <ele>804</ele>
        <time>2023-10-09T13:46:03Z</time>
      </trkpt>
      <trkpt lat="43.66688" lon="6.19846">
        <ele>804</ele>
        <time>2023-10-09T13:46:04Z</time>
      </trkpt>
      <trkpt lat="43.66688" lon="6.19846">
        <ele>804</ele>
        <time>2023-10-09T13:46:05Z</time>
      </trkpt>
      <trkpt lat="43.66688" lon="6.19846">
        <ele>804</ele>
        <time>2023-10-09T13:46:06Z</time>
      </trkpt>
      <trkpt lat="43.66688" lon="6.19846">
        <ele>804</ele>
        <time>2023-10-09T13:46:07Z</time>
      </trkpt>
      <trkpt lat="43.66688" lon="6.19846">
        <ele>804</ele>
        <time>2023-10-09T13:46:08Z</time>
      </trkpt>
      <trkpt lat="43.66688" lon="6.19846">
        <ele>804</ele>
        <time>2023-10-09T13:46:09Z</time>
      </trkpt>
      <trkpt lat="43.66688" lon="6.19846">
        <ele>804</ele>
        <time>2023-10-09T13:46:10Z</time>
      </trkpt>
      <trkpt lat="43.66688" lon="6.19846">
        <ele>804</ele>
        <time>2023-10-09T13:46:11Z</time>
      </trkpt>
      <trkpt lat="43.66688" lon="6.19846">
        <ele>804</ele>
        <time>2023-10-09T13:46:12Z</time>
      </trkpt>
      <trkpt lat="43.66688" lon="6.19846">
        <ele>804</ele>
        <time>2023-10-09T13:46:13Z</time>
      </trkpt>
      <trkpt lat="43.66688" lon="6.19846">
        <ele>804</ele>
        <time>2023-10-09T13:46:14Z</time>
      </trkpt>
      <trkpt lat="43.66688" lon="6.19846">
        <ele>804</ele>
        <time>2023-10-09T13:46:15Z</time>
      </trkpt>
      <trkpt lat="43.66688" lon="6.19846">
        <ele>804</ele>
        <time>2023-10-09T13:46:16Z</time>
      </trkpt>
      <trkpt lat="43.66688" lon="6.19846">
        <ele>804</ele>
        <time>2023-10-09T13:46:17Z</time>
      </trkpt>
      <trkpt lat="43.66688" lon="6.19846">
        <ele>804</ele>
        <time>2023-10-09T13:46:18Z</time>
      </trkpt>
      <trkpt lat="43.66688" lon="6.19846">
        <ele>804</ele>
        <time>2023-10-09T13:46:19Z</time>
      </trkpt>
      <trkpt lat="43.66688" lon="6.19846">
        <ele>804</ele>
        <time>2023-10-09T13:46:20Z</time>
      </trkpt>
      <trkpt lat="43.66688" lon="6.19846">
        <ele>804</ele>
        <time>2023-10-09T13:46:21Z</time>
      </trkpt>
      <trkpt lat="43.66688" lon="6.19846">
        <ele>804</ele>
        <time>2023-10-09T13:46:22Z</time>
      </trkpt>
      <trkpt lat="43.66688" lon="6.19846">
        <ele>804</ele>
        <time>2023-10-09T13:46:23Z</time>
      </trkpt>
      <trkpt lat="43.66688" lon="6.19846">
        <ele>804</ele>
        <time>2023-10-09T13:46:24Z</time>
      </trkpt>
      <trkpt lat="43.66688" lon="6.19846">
        <ele>804</ele>
        <time>2023-10-09T13:46:25Z</time>
      </trkpt>
      <trkpt lat="43.66688" lon="6.19846">
        <ele>804</ele>
        <time>2023-10-09T13:46:26Z</time>
      </trkpt>
      <trkpt lat="43.66688" lon="6.19846">
        <ele>804</ele>
        <time>2023-10-09T13:46:27Z</time>
      </trkpt>
      <trkpt lat="43.66688" lon="6.19846">
        <ele>804</ele>
        <time>2023-10-09T13:46:28Z</time>
      </trkpt>
      <trkpt lat="43.66688" lon="6.19846">
        <ele>804</ele>
        <time>2023-10-09T13:46:29Z</time>
      </trkpt>
      <trkpt lat="43.6669" lon="6.19846">
        <ele>804.4</ele>
        <time>2023-10-09T13:46:30Z</time>
      </trkpt>
      <trkpt lat="43.66691" lon="6.19846">
        <ele>804.6</ele>
        <time>2023-10-09T13:46:31Z</time>
      </trkpt>
      <trkpt lat="43.66691" lon="6.19846">
        <ele>804.6</ele>
        <time>2023-10-09T13:46:32Z</time>
      </trkpt>
      <trkpt lat="43.66692" lon="6.19847">
        <ele>804.9</ele>
        <time>2023-10-09T13:46:33Z</time>
      </trkpt>
      <trkpt lat="43.66692" lon="6.19847">
        <ele>804.9</ele>
        <time>2023-10-09T13:46:34Z</time>
      </trkpt>
      <trkpt lat="43.66693" lon="6.19847">
        <ele>805.2</ele>
        <time>2023-10-09T13:46:35Z</time>
      </trkpt>
      <trkpt lat="43.66693" lon="6.19848">
        <ele>805.3</ele>
        <time>2023-10-09T13:46:36Z</time>
      </trkpt>
      <trkpt lat="43.66694" lon="6.19848">
        <ele>805.5</ele>
        <time>2023-10-09T13:46:37Z</time>
      </trkpt>
      <trkpt lat="43.66694" lon="6.19849">
        <ele>805.6</ele>
        <time>2023-10-09T13:46:38Z</time>
      </trkpt>
      <trkpt lat="43.66694" lon="6.19849">
        <ele>805.6</ele>
        <time>2023-10-09T13:46:39Z</time>
      </trkpt>
      <trkpt lat="43.66694" lon="6.19849">
        <ele>805.6</ele>
        <time>2023-10-09T13:46:40Z</time>
      </trkpt>
      <trkpt lat="43.66694" lon="6.19849">
        <ele>805.6</ele>
        <time>2023-10-09T13:46:41Z</time>
      </trkpt>
      <trkpt lat="43.66694" lon="6.19849">
        <ele>805.6</ele>
        <time>2023-10-09T13:46:42Z</time>
      </trkpt>
      <trkpt lat="43.66694" lon="6.19849">
        <ele>805.6</ele>
        <time>2023-10-09T13:46:43Z</time>
      </trkpt>
      <trkpt lat="43.66694" lon="6.19849">
        <ele>805.6</ele>
        <time>2023-10-09T13:46:44Z</time>
      </trkpt>
      <trkpt lat="43.66694" lon="6.19849">
        <ele>805.6</ele>
        <time>2023-10-09T13:46:45Z</time>
      </trkpt>
      <trkpt lat="43.66694" lon="6.19849">
        <ele>805.6</ele>
        <time>2023-10-09T13:46:46Z</time>
      </trkpt>
      <trkpt lat="43.66694" lon="6.19849">
        <ele>805.6</ele>
        <time>2023-10-09T13:46:47Z</time>
      </trkpt>
      <trkpt lat="43.66694" lon="6.19849">
        <ele>805.6</ele>
        <time>2023-10-09T13:46:48Z</time>
      </trkpt>
      <trkpt lat="43.66694" lon="6.19849">
        <ele>805.6</ele>
        <time>2023-10-09T13:46:49Z</time>
      </trkpt>
      <trkpt lat="43.66694" lon="6.19849">
        <ele>805.6</ele>
        <time>2023-10-09T13:46:50Z</time>
      </trkpt>
      <trkpt lat="43.66694" lon="6.19849">
        <ele>805.6</ele>
        <time>2023-10-09T13:46:51Z</time>
      </trkpt>
      <trkpt lat="43.66694" lon="6.19849">
        <ele>805.6</ele>
        <time>2023-10-09T13:46:52Z</time>
      </trkpt>
      <trkpt lat="43.66694" lon="6.19849">
        <ele>805.6</ele>
        <time>2023-10-09T13:46:53Z</time>
      </trkpt>
      <trkpt lat="43.66694" lon="6.19849">
        <ele>805.6</ele>
        <time>2023-10-09T13:46:54Z</time>
      </trkpt>
      <trkpt lat="43.66694" lon="6.19849">
        <ele>805.6</ele>
        <time>2023-10-09T13:46:55Z</time>
      </trkpt>
      <trkpt lat="43.66694" lon="6.19849">
        <ele>805.6</ele>
        <time>2023-10-09T13:46:56Z</time>
      </trkpt>
      <trkpt lat="43.66694" lon="6.19849">
        <ele>805.6</ele>
        <time>2023-10-09T13:46:57Z</time>
      </trkpt>
      <trkpt lat="43.66694" lon="6.19849">
        <ele>805.6</ele>
        <time>2023-10-09T13:46:58Z</time>
      </trkpt>
      <trkpt lat="43.66694" lon="6.19849">
        <ele>805.6</ele>
        <time>2023-10-09T13:46:59Z</time>
      </trkpt>
      <trkpt lat="43.66694" lon="6.19849">
        <ele>805.6</ele>
        <time>2023-10-09T13:47:00Z</time>
      </trkpt>
      <trkpt lat="43.66694" lon="6.19849">
        <ele>805.6</ele>
        <time>2023-10-09T13:47:01Z</time>
      </trkpt>
      <trkpt lat="43.66694" lon="6.19849">
        <ele>805.6</ele>
        <time>2023-10-09T13:47:02Z</time>
      </trkpt>
      <trkpt lat="43.66694" lon="6.19849">
        <ele>805.6</ele>
        <time>2023-10-09T13:47:03Z</time>
      </trkpt>
      <trkpt lat="43.66694" lon="6.1985">
        <ele>805.7</ele>
        <time>2023-10-09T13:47:04Z</time>
      </trkpt>
      <trkpt lat="43.66694" lon="6.1985">
        <ele>805.7</ele>
        <time>2023-10-09T13:47:05Z</time>
      </trkpt>
      <trkpt lat="43.66694" lon="6.1985">
        <ele>805.7</ele>
        <time>2023-10-09T13:47:06Z</time>
      </trkpt>
      <trkpt lat="43.66694" lon="6.1985">
        <ele>805.7</ele>
        <time>2023-10-09T13:47:07Z</time>
      </trkpt>
      <trkpt lat="43.66694" lon="6.1985">
        <ele>805.7</ele>
        <time>2023-10-09T13:47:08Z</time>
      </trkpt>
      <trkpt lat="43.66694" lon="6.1985">
        <ele>805.7</ele>
        <time>2023-10-09T13:47:09Z</time>
      </trkpt>
      <trkpt lat="43.66694" lon="6.1985">
        <ele>805.7</ele>
        <time>2023-10-09T13:47:10Z</time>
      </trkpt>
      <trkpt lat="43.66694" lon="6.1985">
        <ele>805.7</ele>
        <time>2023-10-09T13:47:11Z</time>
      </trkpt>
      <trkpt lat="43.66694" lon="6.1985">
        <ele>805.7</ele>
        <time>2023-10-09T13:47:12Z</time>
      </trkpt>
      <trkpt lat="43.66694" lon="6.1985">
        <ele>805.7</ele>
        <time>2023-10-09T13:47:13Z</time>
      </trkpt>
      <trkpt lat="43.66694" lon="6.1985">
        <ele>805.7</ele>
        <time>2023-10-09T13:47:14Z</time>
      </trkpt>
      <trkpt lat="43.66694" lon="6.1985">
        <ele>805.7</ele>
        <time>2023-10-09T13:47:15Z</time>
      </trkpt>
      <trkpt lat="43.66694" lon="6.1985">
        <ele>805.7</ele>
        <time>2023-10-09T13:47:16Z</time>
      </trkpt>
      <trkpt lat="43.66694" lon="6.1985">
        <ele>805.7</ele>
        <time>2023-10-09T13:47:17Z</time>
      </trkpt>
      <trkpt lat="43.66694" lon="6.1985">
        <ele>805.7</ele>
        <time>2023-10-09T13:47:18Z</time>
      </trkpt>
      <trkpt lat="43.66694" lon="6.1985">
        <ele>805.7</ele>
        <time>2023-10-09T13:47:19Z</time>
      </trkpt>
      <trkpt lat="43.66694" lon="6.1985">
        <ele>805.7</ele>
        <time>2023-10-09T13:47:20Z</time>
      </trkpt>
      <trkpt lat="43.66694" lon="6.1985">
        <ele>805.7</ele>
        <time>2023-10-09T13:47:21Z</time>
      </trkpt>
      <trkpt lat="43.66694" lon="6.1985">
        <ele>805.7</ele>
        <time>2023-10-09T13:47:22Z</time>
      </trkpt>
      <trkpt lat="43.66694" lon="6.1985">
        <ele>805.7</ele>
        <time>2023-10-09T13:47:23Z</time>
      </trkpt>
      <trkpt lat="43.66694" lon="6.1985">
        <ele>805.7</ele>
        <time>2023-10-09T13:47:24Z</time>
      </trkpt>
      <trkpt lat="43.66694" lon="6.1985">
        <ele>805.7</ele>
        <time>2023-10-09T13:47:25Z</time>
      </trkpt>
      <trkpt lat="43.66694" lon="6.1985">
        <ele>805.7</ele>
        <time>2023-10-09T13:47:26Z</time>
      </trkpt>
      <trkpt lat="43.66694" lon="6.1985">
        <ele>805.7</ele>
        <time>2023-10-09T13:47:27Z</time>
      </trkpt>
      <trkpt lat="43.66694" lon="6.1985">
        <ele>805.7</ele>
        <time>2023-10-09T13:47:28Z</time>
      </trkpt>
      <trkpt lat="43.66694" lon="6.1985">
        <ele>805.7</ele>
        <time>2023-10-09T13:47:29Z</time>
      </trkpt>
      <trkpt lat="43.66694" lon="6.1985">
        <ele>805.7</ele>
        <time>2023-10-09T13:47:30Z</time>
      </trkpt>
      <trkpt lat="43.66694" lon="6.1985">
        <ele>805.7</ele>
        <time>2023-10-09T13:47:31Z</time>
      </trkpt>
      <trkpt lat="43.66694" lon="6.19851">
        <ele>805.8</ele>
        <time>2023-10-09T13:47:32Z</time>
      </trkpt>
      <trkpt lat="43.66694" lon="6.19851">
        <ele>805.8</ele>
        <time>2023-10-09T13:47:33Z</time>
      </trkpt>
      <trkpt lat="43.66694" lon="6.19851">
        <ele>805.8</ele>
        <time>2023-10-09T13:47:34Z</time>
      </trkpt>
      <trkpt lat="43.66694" lon="6.19851">
        <ele>805.8</ele>
        <time>2023-10-09T13:47:35Z</time>
      </trkpt>
      <trkpt lat="43.66694" lon="6.19851">
        <ele>805.8</ele>
        <time>2023-10-09T13:47:36Z</time>
      </trkpt>
      <trkpt lat="43.66694" lon="6.19851">
        <ele>805.8</ele>
        <time>2023-10-09T13:47:37Z</time>
      </trkpt>
      <trkpt lat="43.66694" lon="6.19851">
        <ele>805.8</ele>
        <time>2023-10-09T13:47:38Z</time>
      </trkpt>
      <trkpt lat="43.66694" lon="6.19851">
        <ele>805.8</ele>
        <time>2023-10-09T13:47:39Z</time>
      </trkpt>
      <trkpt lat="43.66694" lon="6.19851">
        <ele>805.8</ele>
        <time>2023-10-09T13:47:40Z</time>
      </trkpt>
      <trkpt lat="43.66694" lon="6.19851">
        <ele>805.8</ele>
        <time>2023-10-09T13:47:41Z</time>
      </trkpt>
      <trkpt lat="43.66694" lon="6.19851">
        <ele>805.8</ele>
        <time>2023-10-09T13:47:42Z</time>
      </trkpt>
      <trkpt lat="43.66694" lon="6.19851">
        <ele>805.8</ele>
        <time>2023-10-09T13:47:43Z</time>
      </trkpt>
      <trkpt lat="43.66694" lon="6.19851">
        <ele>805.8</ele>
        <time>2023-10-09T13:47:44Z</time>
      </trkpt>
      <trkpt lat="43.66694" lon="6.19851">
        <ele>805.8</ele>
        <time>2023-10-09T13:47:45Z</time>
      </trkpt>
      <trkpt lat="43.66694" lon="6.19851">
        <ele>805.8</ele>
        <time>2023-10-09T13:47:46Z</time>
      </trkpt>
      <trkpt lat="43.66694" lon="6.19851">
        <ele>805.8</ele>
        <time>2023-10-09T13:47:47Z</time>
      </trkpt>
      <trkpt lat="43.66694" lon="6.19851">
        <ele>805.8</ele>
        <time>2023-10-09T13:47:48Z</time>
      </trkpt>
      <trkpt lat="43.66694" lon="6.19851">
        <ele>805.8</ele>
        <time>2023-10-09T13:47:49Z</time>
      </trkpt>
      <trkpt lat="43.66694" lon="6.19851">
        <ele>805.8</ele>
        <time>2023-10-09T13:47:50Z</time>
      </trkpt>
      <trkpt lat="43.66694" lon="6.19851">
        <ele>805.8</ele>
        <time>2023-10-09T13:47:51Z</time>
      </trkpt>
      <trkpt lat="43.66694" lon="6.19851">
        <ele>805.8</ele>
        <time>2023-10-09T13:47:52Z</time>
      </trkpt>
      <trkpt lat="43.66694" lon="6.19851">
        <ele>805.8</ele>
        <time>2023-10-09T13:47:53Z</time>
      </trkpt>
      <trkpt lat="43.66694" lon="6.19851">
        <ele>805.8</ele>
        <time>2023-10-09T13:47:54Z</time>
      </trkpt>
      <trkpt lat="43.66694" lon="6.19851">
        <ele>805.8</ele>
        <time>2023-10-09T13:47:55Z</time>
      </trkpt>
      <trkpt lat="43.66694" lon="6.19851">
        <ele>805.8</ele>
        <time>2023-10-09T13:47:56Z</time>
      </trkpt>
      <trkpt lat="43.66694" lon="6.19851">
        <ele>805.8</ele>
        <time>2023-10-09T13:47:57Z</time>
      </trkpt>
      <trkpt lat="43.66694" lon="6.19851">
        <ele>805.8</ele>
        <time>2023-10-09T13:47:58Z</time>
      </trkpt>
      <trkpt lat="43.66694" lon="6.19851">
        <ele>805.8</ele>
        <time>2023-10-09T13:47:59Z</time>
      </trkpt>
      <trkpt lat="43.66694" lon="6.19851">
        <ele>805.8</ele>
        <time>2023-10-09T13:48:00Z</time>
      </trkpt>
      <trkpt lat="43.66694" lon="6.19852">
        <ele>805.9</ele>
        <time>2023-10-09T13:48:01Z</time>
      </trkpt>
      <trkpt lat="43.66694" lon="6.19852">
        <ele>805.9</ele>
        <time>2023-10-09T13:48:02Z</time>
      </trkpt>
      <trkpt lat="43.66694" lon="6.19852">
        <ele>805.9</ele>
        <time>2023-10-09T13:48:03Z</time>
      </trkpt>
      <trkpt lat="43.66694" lon="6.19852">
        <ele>805.9</ele>
        <time>2023-10-09T13:48:04Z</time>
      </trkpt>
      <trkpt lat="43.66694" lon="6.19852">
        <ele>805.9</ele>
        <time>2023-10-09T13:48:05Z</time>
      </trkpt>
      <trkpt lat="43.66694" lon="6.19852">
        <ele>805.9</ele>
        <time>2023-10-09T13:48:06Z</time>
      </trkpt>
      <trkpt lat="43.66694" lon="6.19852">
        <ele>805.9</ele>
        <time>2023-10-09T13:48:07Z</time>
      </trkpt>
      <trkpt lat="43.66694" lon="6.19852">
        <ele>805.9</ele>
        <time>2023-10-09T13:48:08Z</time>
      </trkpt>
      <trkpt lat="43.66694" lon="6.19852">
        <ele>805.9</ele>
        <time>2023-10-09T13:48:09Z</time>
      </trkpt>
      <trkpt lat="43.66694" lon="6.19852">
        <ele>805.9</ele>
        <time>2023-10-09T13:48:10Z</time>
      </trkpt>
      <trkpt lat="43.66694" lon="6.19852">
        <ele>805.9</ele>
        <time>2023-10-09T13:48:11Z</time>
      </trkpt>
      <trkpt lat="43.66694" lon="6.19852">
        <ele>805.9</ele>
        <time>2023-10-09T13:48:12Z</time>
      </trkpt>
      <trkpt lat="43.66694" lon="6.19852">
        <ele>805.9</ele>
        <time>2023-10-09T13:48:13Z</time>
      </trkpt>
      <trkpt lat="43.66694" lon="6.19852">
        <ele>805.9</ele>
        <time>2023-10-09T13:48:14Z</time>
      </trkpt>
      <trkpt lat="43.66694" lon="6.19852">
        <ele>805.9</ele>
        <time>2023-10-09T13:48:15Z</time>
      </trkpt>
      <trkpt lat="43.66694" lon="6.19852">
        <ele>805.9</ele>
        <time>2023-10-09T13:48:16Z</time>
      </trkpt>
      <trkpt lat="43.66694" lon="6.19852">
        <ele>805.9</ele>
        <time>2023-10-09T13:48:17Z</time>
      </trkpt>
      <trkpt lat="43.66694" lon="6.19852">
        <ele>805.9</ele>
        <time>2023-10-09T13:48:18Z</time>
      </trkpt>
      <trkpt lat="43.66694" lon="6.19852">
        <ele>805.9</ele>
        <time>2023-10-09T13:48:19Z</time>
      </trkpt>
      <trkpt lat="43.66694" lon="6.19852">
        <ele>805.9</ele>
        <time>2023-10-09T13:48:20Z</time>
      </trkpt>
      <trkpt lat="43.66694" lon="6.19852">
        <ele>805.9</ele>
        <time>2023-10-09T13:48:21Z</time>
      </trkpt>
      <trkpt lat="43.66694" lon="6.19852">
        <ele>805.9</ele>
        <time>2023-10-09T13:48:22Z</time>
      </trkpt>
      <trkpt lat="43.66694" lon="6.19852">
        <ele>805.9</ele>
        <time>2023-10-09T13:48:23Z</time>
      </trkpt>
      <trkpt lat="43.66694" lon="6.19852">
        <ele>805.9</ele>
        <time>2023-10-09T13:48:24Z</time>
      </trkpt>
      <trkpt lat="43.66694" lon="6.19852">
        <ele>805.9</ele>
        <time>2023-10-09T13:48:25Z</time>
      </trkpt>
      <trkpt lat="43.66694" lon="6.19852">
        <ele>805.9</ele>
        <time>2023-10-09T13:48:26Z</time>
      </trkpt>
      <trkpt lat="43.66694" lon="6.19852">
        <ele>805.9</ele>
        <time>2023-10-09T13:48:27Z</time>
      </trkpt>
      <trkpt lat="43.66694" lon="6.19852">
        <ele>805.9</ele>
        <time>2023-10-09T13:48:28Z</time>
      </trkpt>
      <trkpt lat="43.66694" lon="6.19853">
        <ele>806</ele>
        <time>2023-10-09T13:48:29Z</time>
      </trkpt>
      <trkpt lat="43.66694" lon="6.19853">
        <ele>806</ele>
        <time>2023-10-09T13:48:30Z</time>
      </trkpt>
      <trkpt lat="43.66694" lon="6.19853">
        <ele>806</ele>
        <time>2023-10-09T13:48:31Z</time>
      </trkpt>
      <trkpt lat="43.66694" lon="6.19853">
        <ele>806</ele>
        <time>2023-10-09T13:48:32Z</time>
      </trkpt>
      <trkpt lat="43.66694" lon="6.19853">
        <ele>806</ele>
        <time>2023-10-09T13:48:33Z</time>
      </trkpt>
      <trkpt lat="43.66694" lon="6.19853">
        <ele>806</ele>
        <time>2023-10-09T13:48:34Z</time>
      </trkpt>
      <trkpt lat="43.66694" lon="6.19853">
        <ele>806</ele>
        <time>2023-10-09T13:48:35Z</time>
      </trkpt>
      <trkpt lat="43.66694" lon="6.19853">
        <ele>806</ele>
        <time>2023-10-09T13:48:36Z</time>
      </trkpt>
      <trkpt lat="43.66694" lon="6.19853">
        <ele>806</ele>
        <time>2023-10-09T13:48:37Z</time>
      </trkpt>
      <trkpt lat="43.66694" lon="6.19853">
        <ele>806</ele>
        <time>2023-10-09T13:48:38Z</time>
      </trkpt>
      <trkpt lat="43.66694" lon="6.19853">
        <ele>806</ele>
        <time>2023-10-09T13:48:39Z</time>
      </trkpt>
      <trkpt lat="43.66694" lon="6.19853">
        <ele>806</ele>
        <time>2023-10-09T13:48:41Z</time>
      </trkpt>
      <trkpt lat="43.66694" lon="6.19853">
        <ele>806</ele>
        <time>2023-10-09T13:48:42Z</time>
      </trkpt>
      <trkpt lat="43.66694" lon="6.19853">
        <ele>806</ele>
        <time>2023-10-09T13:48:43Z</time>
      </trkpt>
      <trkpt lat="43.66694" lon="6.19853">
        <ele>806</ele>
        <time>2023-10-09T13:48:44Z</time>
      </trkpt>
      <trkpt lat="43.66694" lon="6.19853">
        <ele>806</ele>
        <time>2023-10-09T13:48:45Z</time>
      </trkpt>
      <trkpt lat="43.66694" lon="6.19853">
        <ele>806</ele>
        <time>2023-10-09T13:48:46Z</time>
      </trkpt>
      <trkpt lat="43.66694" lon="6.19853">
        <ele>806</ele>
        <time>2023-10-09T13:48:47Z</time>
      </trkpt>
      <trkpt lat="43.66694" lon="6.19853">
        <ele>806</ele>
        <time>2023-10-09T13:48:48Z</time>
      </trkpt>
      <trkpt lat="43.66694" lon="6.19853">
        <ele>806</ele>
        <time>2023-10-09T13:48:49Z</time>
      </trkpt>
      <trkpt lat="43.66694" lon="6.19853">
        <ele>806</ele>
        <time>2023-10-09T13:48:50Z</time>
      </trkpt>
      <trkpt lat="43.66694" lon="6.19853">
        <ele>806</ele>
        <time>2023-10-09T13:48:51Z</time>
      </trkpt>
      <trkpt lat="43.66694" lon="6.19853">
        <ele>806</ele>
        <time>2023-10-09T13:48:52Z</time>
      </trkpt>
      <trkpt lat="43.66696" lon="6.19854">
        <ele>806.4</ele>
        <time>2023-10-09T13:48:53Z</time>
      </trkpt>
      <trkpt lat="43.66696" lon="6.19854">
        <ele>806.4</ele>
        <time>2023-10-09T13:48:54Z</time>
      </trkpt>
      <trkpt lat="43.66696" lon="6.19854">
        <ele>806.4</ele>
        <time>2023-10-09T13:48:55Z</time>
      </trkpt>
      <trkpt lat="43.66696" lon="6.19854">
        <ele>806.4</ele>
        <time>2023-10-09T13:48:56Z</time>
      </trkpt>
      <trkpt lat="43.66696" lon="6.19854">
        <ele>806.4</ele>
        <time>2023-10-09T13:48:57Z</time>
      </trkpt>
      <trkpt lat="43.66696" lon="6.19854">
        <ele>806.4</ele>
        <time>2023-10-09T13:48:58Z</time>
      </trkpt>
      <trkpt lat="43.66697" lon="6.19854">
        <ele>806.4</ele>
        <time>2023-10-09T13:48:59Z</time>
      </trkpt>
      <trkpt lat="43.66697" lon="6.19854">
        <ele>806.4</ele>
        <time>2023-10-09T13:49:00Z</time>
      </trkpt>
      <trkpt lat="43.66697" lon="6.19854">
        <ele>806.4</ele>
        <time>2023-10-09T13:49:01Z</time>
      </trkpt>
      <trkpt lat="43.66697" lon="6.19854">
        <ele>806.4</ele>
        <time>2023-10-09T13:49:02Z</time>
      </trkpt>
      <trkpt lat="43.66697" lon="6.19854">
        <ele>806.4</ele>
        <time>2023-10-09T13:49:03Z</time>
      </trkpt>
      <trkpt lat="43.66697" lon="6.19854">
        <ele>806.4</ele>
        <time>2023-10-09T13:49:04Z</time>
      </trkpt>
      <trkpt lat="43.66697" lon="6.19854">
        <ele>806.4</ele>
        <time>2023-10-09T13:49:05Z</time>
      </trkpt>
      <trkpt lat="43.66697" lon="6.19854">
        <ele>806.4</ele>
        <time>2023-10-09T13:49:06Z</time>
      </trkpt>
      <trkpt lat="43.66698" lon="6.19854">
        <ele>806.5</ele>
        <time>2023-10-09T13:49:07Z</time>
      </trkpt>
      <trkpt lat="43.66698" lon="6.19854">
        <ele>806.5</ele>
        <time>2023-10-09T13:49:08Z</time>
      </trkpt>
      <trkpt lat="43.66698" lon="6.19854">
        <ele>806.5</ele>
        <time>2023-10-09T13:49:09Z</time>
      </trkpt>
      <trkpt lat="43.66698" lon="6.19854">
        <ele>806.5</ele>
        <time>2023-10-09T13:49:10Z</time>
      </trkpt>
      <trkpt lat="43.66698" lon="6.19854">
        <ele>806.5</ele>
        <time>2023-10-09T13:49:11Z</time>
      </trkpt>
      <trkpt lat="43.66698" lon="6.19854">
        <ele>806.5</ele>
        <time>2023-10-09T13:49:12Z</time>
      </trkpt>
      <trkpt lat="43.66698" lon="6.19854">
        <ele>806.5</ele>
        <time>2023-10-09T13:49:13Z</time>
      </trkpt>
      <trkpt lat="43.66698" lon="6.19854">
        <ele>806.5</ele>
        <time>2023-10-09T13:49:14Z</time>
      </trkpt>
      <trkpt lat="43.66699" lon="6.19854">
        <ele>806.6</ele>
        <time>2023-10-09T13:49:15Z</time>
      </trkpt>
      <trkpt lat="43.66699" lon="6.19854">
        <ele>806.6</ele>
        <time>2023-10-09T13:49:16Z</time>
      </trkpt>
      <trkpt lat="43.66699" lon="6.19854">
        <ele>806.6</ele>
        <time>2023-10-09T13:49:17Z</time>
      </trkpt>
      <trkpt lat="43.66699" lon="6.19854">
        <ele>806.6</ele>
        <time>2023-10-09T13:49:18Z</time>
      </trkpt>
      <trkpt lat="43.66699" lon="6.19854">
        <ele>806.6</ele>
        <time>2023-10-09T13:49:19Z</time>
      </trkpt>
      <trkpt lat="43.667" lon="6.19854">
        <ele>806.7</ele>
        <time>2023-10-09T13:49:20Z</time>
      </trkpt>
      <trkpt lat="43.66702" lon="6.19854">
        <ele>806.8</ele>
        <time>2023-10-09T13:49:21Z</time>
      </trkpt>
      <trkpt lat="43.66702" lon="6.19855">
        <ele>806.9</ele>
        <time>2023-10-09T13:49:22Z</time>
      </trkpt>
      <trkpt lat="43.66703" lon="6.19855">
        <ele>807</ele>
        <time>2023-10-09T13:49:23Z</time>
      </trkpt>
      <trkpt lat="43.66703" lon="6.19856">
        <ele>807.1</ele>
        <time>2023-10-09T13:49:24Z</time>
      </trkpt>
      <trkpt lat="43.66704" lon="6.19857">
        <ele>807.3</ele>
        <time>2023-10-09T13:49:25Z</time>
      </trkpt>
      <trkpt lat="43.66705" lon="6.19857">
        <ele>807.4</ele>
        <time>2023-10-09T13:49:26Z</time>
      </trkpt>
      <trkpt lat="43.66706" lon="6.19858">
        <ele>807.5</ele>
        <time>2023-10-09T13:49:27Z</time>
      </trkpt>
      <trkpt lat="43.66706" lon="6.19858">
        <ele>807.5</ele>
        <time>2023-10-09T13:49:28Z</time>
      </trkpt>
      <trkpt lat="43.66707" lon="6.19858">
        <ele>807.6</ele>
        <time>2023-10-09T13:49:29Z</time>
      </trkpt>
      <trkpt lat="43.66708" lon="6.19858">
        <ele>807.7</ele>
        <time>2023-10-09T13:49:30Z</time>
      </trkpt>
      <trkpt lat="43.66709" lon="6.19858">
        <ele>807.8</ele>
        <time>2023-10-09T13:49:31Z</time>
      </trkpt>
      <trkpt lat="43.66709" lon="6.19859">
        <ele>807.9</ele>
        <time>2023-10-09T13:49:32Z</time>
      </trkpt>
      <trkpt lat="43.6671" lon="6.19859">
        <ele>807.9</ele>
        <time>2023-10-09T13:49:33Z</time>
      </trkpt>
      <trkpt lat="43.6671" lon="6.19859">
        <ele>807.9</ele>
        <time>2023-10-09T13:49:34Z</time>
      </trkpt>
      <trkpt lat="43.66711" lon="6.1986">
        <ele>808.1</ele>
        <time>2023-10-09T13:49:35Z</time>
      </trkpt>
      <trkpt lat="43.66711" lon="6.1986">
        <ele>808.1</ele>
        <time>2023-10-09T13:49:36Z</time>
      </trkpt>
      <trkpt lat="43.66712" lon="6.19861">
        <ele>808.3</ele>
        <time>2023-10-09T13:49:37Z</time>
      </trkpt>
      <trkpt lat="43.66713" lon="6.19861">
        <ele>808.3</ele>
        <time>2023-10-09T13:49:38Z</time>
      </trkpt>
      <trkpt lat="43.66713" lon="6.19862">
        <ele>808.3</ele>
        <time>2023-10-09T13:49:39Z</time>
      </trkpt>
      <trkpt lat="43.66714" lon="6.19863">
        <ele>808.2</ele>
        <time>2023-10-09T13:49:41Z</time>
      </trkpt>
      <trkpt lat="43.66715" lon="6.19863">
        <ele>808.3</ele>
        <time>2023-10-09T13:49:42Z</time>
      </trkpt>
      <trkpt lat="43.66715" lon="6.19864">
        <ele>808.2</ele>
        <time>2023-10-09T13:49:43Z</time>
      </trkpt>
      <trkpt lat="43.66716" lon="6.19864">
        <ele>808.3</ele>
        <time>2023-10-09T13:49:44Z</time>
      </trkpt>
      <trkpt lat="43.66717" lon="6.19864">
        <ele>808.3</ele>
        <time>2023-10-09T13:49:45Z</time>
      </trkpt>
      <trkpt lat="43.66718" lon="6.19864">
        <ele>808.4</ele>
        <time>2023-10-09T13:49:46Z</time>
      </trkpt>
      <trkpt lat="43.66719" lon="6.19865">
        <ele>808.4</ele>
        <time>2023-10-09T13:49:47Z</time>
      </trkpt>
      <trkpt lat="43.6672" lon="6.19865">
        <ele>808.4</ele>
        <time>2023-10-09T13:49:48Z</time>
      </trkpt>
      <trkpt lat="43.6672" lon="6.19865">
        <ele>808.4</ele>
        <time>2023-10-09T13:49:49Z</time>
      </trkpt>
      <trkpt lat="43.66721" lon="6.19865">
        <ele>808.5</ele>
        <time>2023-10-09T13:49:50Z</time>
      </trkpt>
      <trkpt lat="43.66722" lon="6.19865">
        <ele>808.6</ele>
        <time>2023-10-09T13:49:51Z</time>
      </trkpt>
      <trkpt lat="43.66722" lon="6.19866">
        <ele>808.5</ele>
        <time>2023-10-09T13:49:52Z</time>
      </trkpt>
      <trkpt lat="43.66722" lon="6.19866">
        <ele>808.5</ele>
        <time>2023-10-09T13:49:53Z</time>
      </trkpt>
      <trkpt lat="43.66722" lon="6.19866">
        <ele>808.5</ele>
        <time>2023-10-09T13:49:54Z</time>
      </trkpt>
      <trkpt lat="43.66722" lon="6.19866">
        <ele>808.5</ele>
        <time>2023-10-09T13:49:55Z</time>
      </trkpt>
      <trkpt lat="43.66721" lon="6.19866">
        <ele>808.4</ele>
        <time>2023-10-09T13:49:56Z</time>
      </trkpt>
      <trkpt lat="43.66721" lon="6.19867">
        <ele>808.3</ele>
        <time>2023-10-09T13:49:57Z</time>
      </trkpt>
      <trkpt lat="43.66721" lon="6.19868">
        <ele>808.2</ele>
        <time>2023-10-09T13:49:58Z</time>
      </trkpt>
      <trkpt lat="43.66721" lon="6.19869">
        <ele>808.1</ele>
        <time>2023-10-09T13:49:59Z</time>
      </trkpt>
      <trkpt lat="43.66721" lon="6.1987">
        <ele>808</ele>
        <time>2023-10-09T13:50:00Z</time>
      </trkpt>
      <trkpt lat="43.66721" lon="6.19871">
        <ele>807.9</ele>
        <time>2023-10-09T13:50:01Z</time>
      </trkpt>
      <trkpt lat="43.66721" lon="6.19873">
        <ele>807.6</ele>
        <time>2023-10-09T13:50:02Z</time>
      </trkpt>
      <trkpt lat="43.6672" lon="6.19874">
        <ele>807.5</ele>
        <time>2023-10-09T13:50:03Z</time>
      </trkpt>
      <trkpt lat="43.6672" lon="6.19874">
        <ele>807.5</ele>
        <time>2023-10-09T13:50:04Z</time>
      </trkpt>
      <trkpt lat="43.6672" lon="6.19873">
        <ele>807.6</ele>
        <time>2023-10-09T13:50:05Z</time>
      </trkpt>
      <trkpt lat="43.66721" lon="6.19872">
        <ele>807.8</ele>
        <time>2023-10-09T13:50:06Z</time>
      </trkpt>
      <trkpt lat="43.66721" lon="6.19872">
        <ele>807.8</ele>
        <time>2023-10-09T13:50:07Z</time>
      </trkpt>
      <trkpt lat="43.66721" lon="6.19871">
        <ele>807.9</ele>
        <time>2023-10-09T13:50:08Z</time>
      </trkpt>
      <trkpt lat="43.66722" lon="6.19871">
        <ele>807.9</ele>
        <time>2023-10-09T13:50:09Z</time>
      </trkpt>
      <trkpt lat="43.66722" lon="6.1987">
        <ele>808</ele>
        <time>2023-10-09T13:50:10Z</time>
      </trkpt>
      <trkpt lat="43.66722" lon="6.19869">
        <ele>808.1</ele>
        <time>2023-10-09T13:50:11Z</time>
      </trkpt>
      <trkpt lat="43.66723" lon="6.19869">
        <ele>808.1</ele>
        <time>2023-10-09T13:50:12Z</time>
      </trkpt>
      <trkpt lat="43.66724" lon="6.19868">
        <ele>808</ele>
        <time>2023-10-09T13:50:13Z</time>
      </trkpt>
      <trkpt lat="43.66724" lon="6.19867">
        <ele>808.1</ele>
        <time>2023-10-09T13:50:14Z</time>
      </trkpt>
      <trkpt lat="43.66724" lon="6.19866">
        <ele>808.2</ele>
        <time>2023-10-09T13:50:15Z</time>
      </trkpt>
      <trkpt lat="43.66725" lon="6.19866">
        <ele>808.1</ele>
        <time>2023-10-09T13:50:16Z</time>
      </trkpt>
      <trkpt lat="43.66724" lon="6.19866">
        <ele>808.2</ele>
        <time>2023-10-09T13:50:17Z</time>
      </trkpt>
      <trkpt lat="43.66724" lon="6.19867">
        <ele>808.1</ele>
        <time>2023-10-09T13:50:18Z</time>
      </trkpt>
      <trkpt lat="43.66724" lon="6.19867">
        <ele>808.1</ele>
        <time>2023-10-09T13:50:19Z</time>
      </trkpt>
      <trkpt lat="43.66724" lon="6.19868">
        <ele>808</ele>
        <time>2023-10-09T13:50:20Z</time>
      </trkpt>
      <trkpt lat="43.66724" lon="6.19868">
        <ele>808</ele>
        <time>2023-10-09T13:50:21Z</time>
      </trkpt>
      <trkpt lat="43.66724" lon="6.19868">
        <ele>808</ele>
        <time>2023-10-09T13:50:22Z</time>
      </trkpt>
      <trkpt lat="43.66724" lon="6.19868">
        <ele>808</ele>
        <time>2023-10-09T13:50:23Z</time>
      </trkpt>
      <trkpt lat="43.66725" lon="6.19868">
        <ele>807.9</ele>
        <time>2023-10-09T13:50:24Z</time>
      </trkpt>
      <trkpt lat="43.66725" lon="6.19867">
        <ele>808</ele>
        <time>2023-10-09T13:50:25Z</time>
      </trkpt>
      <trkpt lat="43.66725" lon="6.19866">
        <ele>808.1</ele>
        <time>2023-10-09T13:50:26Z</time>
      </trkpt>
      <trkpt lat="43.66725" lon="6.19866">
        <ele>808.1</ele>
        <time>2023-10-09T13:50:27Z</time>
      </trkpt>
      <trkpt lat="43.66725" lon="6.19865">
        <ele>808.2</ele>
        <time>2023-10-09T13:50:28Z</time>
      </trkpt>
      <trkpt lat="43.66725" lon="6.19864">
        <ele>808.3</ele>
        <time>2023-10-09T13:50:29Z</time>
      </trkpt>
      <trkpt lat="43.66725" lon="6.19863">
        <ele>808.4</ele>
        <time>2023-10-09T13:50:30Z</time>
      </trkpt>
      <trkpt lat="43.66725" lon="6.19862">
        <ele>808.5</ele>
        <time>2023-10-09T13:50:31Z</time>
      </trkpt>
      <trkpt lat="43.66725" lon="6.1986">
        <ele>808.5</ele>
        <time>2023-10-09T13:50:32Z</time>
      </trkpt>
      <trkpt lat="43.66726" lon="6.19859">
        <ele>808.3</ele>
        <time>2023-10-09T13:50:33Z</time>
      </trkpt>
      <trkpt lat="43.66726" lon="6.19858">
        <ele>808.2</ele>
        <time>2023-10-09T13:50:34Z</time>
      </trkpt>
      <trkpt lat="43.66727" lon="6.19856">
        <ele>807.9</ele>
        <time>2023-10-09T13:50:35Z</time>
      </trkpt>
      <trkpt lat="43.66727" lon="6.19855">
        <ele>807.9</ele>
        <time>2023-10-09T13:50:36Z</time>
      </trkpt>
      <trkpt lat="43.66728" lon="6.19854">
        <ele>807.7</ele>
        <time>2023-10-09T13:50:37Z</time>
      </trkpt>
      <trkpt lat="43.66728" lon="6.19853">
        <ele>807.6</ele>
        <time>2023-10-09T13:50:38Z</time>
      </trkpt>
      <trkpt lat="43.66728" lon="6.19852">
        <ele>807.5</ele>
        <time>2023-10-09T13:50:39Z</time>
      </trkpt>
      <trkpt lat="43.66728" lon="6.1985">
        <ele>807.4</ele>
        <time>2023-10-09T13:50:40Z</time>
      </trkpt>
      <trkpt lat="43.66729" lon="6.19849">
        <ele>807.2</ele>
        <time>2023-10-09T13:50:41Z</time>
      </trkpt>
      <trkpt lat="43.66729" lon="6.19848">
        <ele>807.1</ele>
        <time>2023-10-09T13:50:42Z</time>
      </trkpt>
      <trkpt lat="43.66729" lon="6.19847">
        <ele>807</ele>
        <time>2023-10-09T13:50:43Z</time>
      </trkpt>
      <trkpt lat="43.66729" lon="6.19846">
        <ele>806.9</ele>
        <time>2023-10-09T13:50:44Z</time>
      </trkpt>
      <trkpt lat="43.66729" lon="6.19845">
        <ele>806.9</ele>
        <time>2023-10-09T13:50:45Z</time>
      </trkpt>
      <trkpt lat="43.66729" lon="6.19844">
        <ele>806.8</ele>
        <time>2023-10-09T13:50:46Z</time>
      </trkpt>
      <trkpt lat="43.6673" lon="6.19842">
        <ele>806.5</ele>
        <time>2023-10-09T13:50:47Z</time>
      </trkpt>
      <trkpt lat="43.6673" lon="6.19841">
        <ele>806.4</ele>
        <time>2023-10-09T13:50:48Z</time>
      </trkpt>
      <trkpt lat="43.6673" lon="6.1984">
        <ele>806.4</ele>
        <time>2023-10-09T13:50:49Z</time>
      </trkpt>
      <trkpt lat="43.6673" lon="6.19839">
        <ele>806.3</ele>
        <time>2023-10-09T13:50:50Z</time>
      </trkpt>
      <trkpt lat="43.66731" lon="6.19838">
        <ele>806.1</ele>
        <time>2023-10-09T13:50:51Z</time>
      </trkpt>
      <trkpt lat="43.66731" lon="6.19836">
        <ele>805.9</ele>
        <time>2023-10-09T13:50:52Z</time>
      </trkpt>
      <trkpt lat="43.66731" lon="6.19836">
        <ele>805.9</ele>
        <time>2023-10-09T13:50:53Z</time>
      </trkpt>
      <trkpt lat="43.66731" lon="6.19834">
        <ele>805.8</ele>
        <time>2023-10-09T13:50:54Z</time>
      </trkpt>
      <trkpt lat="43.66731" lon="6.19834">
        <ele>805.8</ele>
        <time>2023-10-09T13:50:55Z</time>
      </trkpt>
      <trkpt lat="43.66731" lon="6.19833">
        <ele>805.7</ele>
        <time>2023-10-09T13:50:56Z</time>
      </trkpt>
      <trkpt lat="43.66731" lon="6.19831">
        <ele>805.4</ele>
        <time>2023-10-09T13:50:57Z</time>
      </trkpt>
      <trkpt lat="43.66731" lon="6.19831">
        <ele>805.4</ele>
        <time>2023-10-09T13:50:58Z</time>
      </trkpt>
      <trkpt lat="43.66732" lon="6.19829">
        <ele>805</ele>
        <time>2023-10-09T13:50:59Z</time>
      </trkpt>
      <trkpt lat="43.66732" lon="6.19828">
        <ele>804.8</ele>
        <time>2023-10-09T13:51:00Z</time>
      </trkpt>
      <trkpt lat="43.66732" lon="6.19827">
        <ele>804.7</ele>
        <time>2023-10-09T13:51:01Z</time>
      </trkpt>
      <trkpt lat="43.66732" lon="6.19827">
        <ele>804.7</ele>
        <time>2023-10-09T13:51:02Z</time>
      </trkpt>
      <trkpt lat="43.66732" lon="6.19826">
        <ele>804.6</ele>
        <time>2023-10-09T13:51:03Z</time>
      </trkpt>
      <trkpt lat="43.66732" lon="6.19826">
        <ele>804.6</ele>
        <time>2023-10-09T13:51:04Z</time>
      </trkpt>
      <trkpt lat="43.66732" lon="6.19825">
        <ele>804.4</ele>
        <time>2023-10-09T13:51:05Z</time>
      </trkpt>
      <trkpt lat="43.66732" lon="6.19825">
        <ele>804.4</ele>
        <time>2023-10-09T13:51:06Z</time>
      </trkpt>
      <trkpt lat="43.66732" lon="6.19825">
        <ele>804.4</ele>
        <time>2023-10-09T13:51:07Z</time>
      </trkpt>
      <trkpt lat="43.66732" lon="6.19824">
        <ele>804.3</ele>
        <time>2023-10-09T13:51:08Z</time>
      </trkpt>
      <trkpt lat="43.66732" lon="6.19824">
        <ele>804.3</ele>
        <time>2023-10-09T13:51:09Z</time>
      </trkpt>
      <trkpt lat="43.66732" lon="6.19824">
        <ele>804.3</ele>
        <time>2023-10-09T13:51:10Z</time>
      </trkpt>
      <trkpt lat="43.66732" lon="6.19823">
        <ele>804.1</ele>
        <time>2023-10-09T13:51:11Z</time>
      </trkpt>
      <trkpt lat="43.66732" lon="6.19823">
        <ele>804.1</ele>
        <time>2023-10-09T13:51:12Z</time>
      </trkpt>
      <trkpt lat="43.66732" lon="6.19822">
        <ele>804</ele>
        <time>2023-10-09T13:51:13Z</time>
      </trkpt>
      <trkpt lat="43.66731" lon="6.19822">
        <ele>804.1</ele>
        <time>2023-10-09T13:51:14Z</time>
      </trkpt>
      <trkpt lat="43.66731" lon="6.19822">
        <ele>804.1</ele>
        <time>2023-10-09T13:51:15Z</time>
      </trkpt>
      <trkpt lat="43.66731" lon="6.19822">
        <ele>804.1</ele>
        <time>2023-10-09T13:51:16Z</time>
      </trkpt>
      <trkpt lat="43.66731" lon="6.19822">
        <ele>804.1</ele>
        <time>2023-10-09T13:51:17Z</time>
      </trkpt>
      <trkpt lat="43.66731" lon="6.19822">
        <ele>804.1</ele>
        <time>2023-10-09T13:51:18Z</time>
      </trkpt>
      <trkpt lat="43.66731" lon="6.19821">
        <ele>803.9</ele>
        <time>2023-10-09T13:51:19Z</time>
      </trkpt>
      <trkpt lat="43.66731" lon="6.1982">
        <ele>803.8</ele>
        <time>2023-10-09T13:51:20Z</time>
      </trkpt>
      <trkpt lat="43.66731" lon="6.19819">
        <ele>803.6</ele>
        <time>2023-10-09T13:51:21Z</time>
      </trkpt>
      <trkpt lat="43.66731" lon="6.19819">
        <ele>803.6</ele>
        <time>2023-10-09T13:51:22Z</time>
      </trkpt>
      <trkpt lat="43.66731" lon="6.19818">
        <ele>803.5</ele>
        <time>2023-10-09T13:51:23Z</time>
      </trkpt>
      <trkpt lat="43.66732" lon="6.19817">
        <ele>803.3</ele>
        <time>2023-10-09T13:51:24Z</time>
      </trkpt>
      <trkpt lat="43.66732" lon="6.19816">
        <ele>803.1</ele>
        <time>2023-10-09T13:51:25Z</time>
      </trkpt>
      <trkpt lat="43.66732" lon="6.19815">
        <ele>803</ele>
        <time>2023-10-09T13:51:26Z</time>
      </trkpt>
      <trkpt lat="43.66733" lon="6.19814">
        <ele>802.8</ele>
        <time>2023-10-09T13:51:27Z</time>
      </trkpt>
      <trkpt lat="43.66733" lon="6.19812">
        <ele>802.5</ele>
        <time>2023-10-09T13:51:28Z</time>
      </trkpt>
      <trkpt lat="43.66734" lon="6.19811">
        <ele>802.3</ele>
        <time>2023-10-09T13:51:29Z</time>
      </trkpt>
      <trkpt lat="43.66734" lon="6.1981">
        <ele>802.2</ele>
        <time>2023-10-09T13:51:30Z</time>
      </trkpt>
      <trkpt lat="43.66734" lon="6.19809">
        <ele>802</ele>
        <time>2023-10-09T13:51:31Z</time>
      </trkpt>
      <trkpt lat="43.66734" lon="6.19808">
        <ele>801.9</ele>
        <time>2023-10-09T13:51:32Z</time>
      </trkpt>
      <trkpt lat="43.66734" lon="6.19807">
        <ele>801.8</ele>
        <time>2023-10-09T13:51:33Z</time>
      </trkpt>
      <trkpt lat="43.66734" lon="6.19806">
        <ele>801.6</ele>
        <time>2023-10-09T13:51:34Z</time>
      </trkpt>
      <trkpt lat="43.66735" lon="6.19805">
        <ele>801.5</ele>
        <time>2023-10-09T13:51:35Z</time>
      </trkpt>
      <trkpt lat="43.66735" lon="6.19803">
        <ele>801.3</ele>
        <time>2023-10-09T13:51:36Z</time>
      </trkpt>
      <trkpt lat="43.66736" lon="6.19803">
        <ele>801.2</ele>
        <time>2023-10-09T13:51:37Z</time>
      </trkpt>
      <trkpt lat="43.66736" lon="6.19802">
        <ele>801.1</ele>
        <time>2023-10-09T13:51:38Z</time>
      </trkpt>
      <trkpt lat="43.66736" lon="6.19801">
        <ele>801</ele>
        <time>2023-10-09T13:51:39Z</time>
      </trkpt>
      <trkpt lat="43.66736" lon="6.198">
        <ele>800.9</ele>
        <time>2023-10-09T13:51:40Z</time>
      </trkpt>
      <trkpt lat="43.66736" lon="6.19799">
        <ele>800.8</ele>
        <time>2023-10-09T13:51:41Z</time>
      </trkpt>
      <trkpt lat="43.66736" lon="6.19798">
        <ele>800.7</ele>
        <time>2023-10-09T13:51:42Z</time>
      </trkpt>
      <trkpt lat="43.66736" lon="6.19797">
        <ele>800.6</ele>
        <time>2023-10-09T13:51:43Z</time>
      </trkpt>
      <trkpt lat="43.66736" lon="6.19796">
        <ele>800.5</ele>
        <time>2023-10-09T13:51:44Z</time>
      </trkpt>
      <trkpt lat="43.66736" lon="6.19795">
        <ele>800.4</ele>
        <time>2023-10-09T13:51:45Z</time>
      </trkpt>
      <trkpt lat="43.66736" lon="6.19794">
        <ele>800.3</ele>
        <time>2023-10-09T13:51:46Z</time>
      </trkpt>
      <trkpt lat="43.66737" lon="6.19794">
        <ele>800.2</ele>
        <time>2023-10-09T13:51:47Z</time>
      </trkpt>
      <trkpt lat="43.66737" lon="6.19793">
        <ele>800.1</ele>
        <time>2023-10-09T13:51:48Z</time>
      </trkpt>
      <trkpt lat="43.66737" lon="6.19792">
        <ele>800</ele>
        <time>2023-10-09T13:51:49Z</time>
      </trkpt>
      <trkpt lat="43.66736" lon="6.19791">
        <ele>799.9</ele>
        <time>2023-10-09T13:51:50Z</time>
      </trkpt>
      <trkpt lat="43.66736" lon="6.19791">
        <ele>799.9</ele>
        <time>2023-10-09T13:51:51Z</time>
      </trkpt>
      <trkpt lat="43.66736" lon="6.1979">
        <ele>799.8</ele>
        <time>2023-10-09T13:51:52Z</time>
      </trkpt>
      <trkpt lat="43.66736" lon="6.19789">
        <ele>799.7</ele>
        <time>2023-10-09T13:51:53Z</time>
      </trkpt>
      <trkpt lat="43.66736" lon="6.19788">
        <ele>799.6</ele>
        <time>2023-10-09T13:51:54Z</time>
      </trkpt>
      <trkpt lat="43.66736" lon="6.19787">
        <ele>799.5</ele>
        <time>2023-10-09T13:51:55Z</time>
      </trkpt>
      <trkpt lat="43.66737" lon="6.19786">
        <ele>799.4</ele>
        <time>2023-10-09T13:51:56Z</time>
      </trkpt>
      <trkpt lat="43.66737" lon="6.19786">
        <ele>799.4</ele>
        <time>2023-10-09T13:51:57Z</time>
      </trkpt>
      <trkpt lat="43.66737" lon="6.19785">
        <ele>799.2</ele>
        <time>2023-10-09T13:51:58Z</time>
      </trkpt>
      <trkpt lat="43.66737" lon="6.19785">
        <ele>799.2</ele>
        <time>2023-10-09T13:51:59Z</time>
      </trkpt>
      <trkpt lat="43.66737" lon="6.19785">
        <ele>799.2</ele>
        <time>2023-10-09T13:52:00Z</time>
      </trkpt>
      <trkpt lat="43.66738" lon="6.19784">
        <ele>799.1</ele>
        <time>2023-10-09T13:52:01Z</time>
      </trkpt>
      <trkpt lat="43.66737" lon="6.19783">
        <ele>799</ele>
        <time>2023-10-09T13:52:02Z</time>
      </trkpt>
      <trkpt lat="43.66737" lon="6.19782">
        <ele>798.9</ele>
        <time>2023-10-09T13:52:03Z</time>
      </trkpt>
      <trkpt lat="43.66737" lon="6.19781">
        <ele>798.8</ele>
        <time>2023-10-09T13:52:04Z</time>
      </trkpt>
      <trkpt lat="43.66737" lon="6.19779">
        <ele>798.6</ele>
        <time>2023-10-09T13:52:05Z</time>
      </trkpt>
      <trkpt lat="43.66737" lon="6.19778">
        <ele>798.5</ele>
        <time>2023-10-09T13:52:06Z</time>
      </trkpt>
      <trkpt lat="43.66738" lon="6.19777">
        <ele>798.3</ele>
        <time>2023-10-09T13:52:07Z</time>
      </trkpt>
      <trkpt lat="43.66738" lon="6.19776">
        <ele>798.1</ele>
        <time>2023-10-09T13:52:08Z</time>
      </trkpt>
      <trkpt lat="43.66738" lon="6.19774">
        <ele>797.8</ele>
        <time>2023-10-09T13:52:09Z</time>
      </trkpt>
      <trkpt lat="43.66739" lon="6.19773">
        <ele>797.6</ele>
        <time>2023-10-09T13:52:10Z</time>
      </trkpt>
      <trkpt lat="43.66739" lon="6.19772">
        <ele>797.5</ele>
        <time>2023-10-09T13:52:11Z</time>
      </trkpt>
      <trkpt lat="43.6674" lon="6.19771">
        <ele>797.3</ele>
        <time>2023-10-09T13:52:12Z</time>
      </trkpt>
      <trkpt lat="43.6674" lon="6.19771">
        <ele>797.3</ele>
        <time>2023-10-09T13:52:13Z</time>
      </trkpt>
      <trkpt lat="43.6674" lon="6.1977">
        <ele>797.1</ele>
        <time>2023-10-09T13:52:14Z</time>
      </trkpt>
      <trkpt lat="43.6674" lon="6.19769">
        <ele>797</ele>
        <time>2023-10-09T13:52:15Z</time>
      </trkpt>
      <trkpt lat="43.6674" lon="6.19769">
        <ele>797</ele>
        <time>2023-10-09T13:52:16Z</time>
      </trkpt>
      <trkpt lat="43.6674" lon="6.19768">
        <ele>796.8</ele>
        <time>2023-10-09T13:52:17Z</time>
      </trkpt>
      <trkpt lat="43.66741" lon="6.19767">
        <ele>796.6</ele>
        <time>2023-10-09T13:52:18Z</time>
      </trkpt>
      <trkpt lat="43.66741" lon="6.19766">
        <ele>796.5</ele>
        <time>2023-10-09T13:52:19Z</time>
      </trkpt>
      <trkpt lat="43.66741" lon="6.19765">
        <ele>796.3</ele>
        <time>2023-10-09T13:52:20Z</time>
      </trkpt>
      <trkpt lat="43.66741" lon="6.19765">
        <ele>796.3</ele>
        <time>2023-10-09T13:52:21Z</time>
      </trkpt>
      <trkpt lat="43.66741" lon="6.19764">
        <ele>796.2</ele>
        <time>2023-10-09T13:52:22Z</time>
      </trkpt>
      <trkpt lat="43.66741" lon="6.19763">
        <ele>796</ele>
        <time>2023-10-09T13:52:23Z</time>
      </trkpt>
      <trkpt lat="43.66741" lon="6.19763">
        <ele>796</ele>
        <time>2023-10-09T13:52:24Z</time>
      </trkpt>
      <trkpt lat="43.66741" lon="6.19762">
        <ele>795.9</ele>
        <time>2023-10-09T13:52:25Z</time>
      </trkpt>
      <trkpt lat="43.66741" lon="6.19761">
        <ele>795.7</ele>
        <time>2023-10-09T13:52:26Z</time>
      </trkpt>
      <trkpt lat="43.66741" lon="6.1976">
        <ele>795.6</ele>
        <time>2023-10-09T13:52:27Z</time>
      </trkpt>
      <trkpt lat="43.66741" lon="6.1976">
        <ele>795.6</ele>
        <time>2023-10-09T13:52:28Z</time>
      </trkpt>
      <trkpt lat="43.66741" lon="6.19759">
        <ele>795.4</ele>
        <time>2023-10-09T13:52:29Z</time>
      </trkpt>
      <trkpt lat="43.66741" lon="6.19758">
        <ele>795.2</ele>
        <time>2023-10-09T13:52:30Z</time>
      </trkpt>
      <trkpt lat="43.66741" lon="6.19758">
        <ele>795.2</ele>
        <time>2023-10-09T13:52:31Z</time>
      </trkpt>
      <trkpt lat="43.66741" lon="6.19757">
        <ele>795.1</ele>
        <time>2023-10-09T13:52:32Z</time>
      </trkpt>
      <trkpt lat="43.66741" lon="6.19757">
        <ele>795.1</ele>
        <time>2023-10-09T13:52:33Z</time>
      </trkpt>
      <trkpt lat="43.66741" lon="6.19756">
        <ele>794.9</ele>
        <time>2023-10-09T13:52:34Z</time>
      </trkpt>
      <trkpt lat="43.66741" lon="6.19755">
        <ele>794.8</ele>
        <time>2023-10-09T13:52:35Z</time>
      </trkpt>
      <trkpt lat="43.66741" lon="6.19755">
        <ele>794.8</ele>
        <time>2023-10-09T13:52:36Z</time>
      </trkpt>
      <trkpt lat="43.66741" lon="6.19754">
        <ele>794.6</ele>
        <time>2023-10-09T13:52:37Z</time>
      </trkpt>
      <trkpt lat="43.66741" lon="6.19753">
        <ele>794.5</ele>
        <time>2023-10-09T13:52:38Z</time>
      </trkpt>
      <trkpt lat="43.6674" lon="6.19753">
        <ele>794.5</ele>
        <time>2023-10-09T13:52:39Z</time>
      </trkpt>
      <trkpt lat="43.6674" lon="6.19753">
        <ele>794.5</ele>
        <time>2023-10-09T13:52:40Z</time>
      </trkpt>
      <trkpt lat="43.6674" lon="6.19752">
        <ele>794.3</ele>
        <time>2023-10-09T13:52:41Z</time>
      </trkpt>
      <trkpt lat="43.6674" lon="6.19752">
        <ele>794.3</ele>
        <time>2023-10-09T13:52:42Z</time>
      </trkpt>
      <trkpt lat="43.6674" lon="6.19751">
        <ele>794.2</ele>
        <time>2023-10-09T13:52:43Z</time>
      </trkpt>
      <trkpt lat="43.6674" lon="6.1975">
        <ele>794</ele>
        <time>2023-10-09T13:52:44Z</time>
      </trkpt>
      <trkpt lat="43.6674" lon="6.19749">
        <ele>793.8</ele>
        <time>2023-10-09T13:52:45Z</time>
      </trkpt>
      <trkpt lat="43.66739" lon="6.19748">
        <ele>793.7</ele>
        <time>2023-10-09T13:52:46Z</time>
      </trkpt>
      <trkpt lat="43.66739" lon="6.19748">
        <ele>793.7</ele>
        <time>2023-10-09T13:52:47Z</time>
      </trkpt>
      <trkpt lat="43.66739" lon="6.19747">
        <ele>793.5</ele>
        <time>2023-10-09T13:52:48Z</time>
      </trkpt>
      <trkpt lat="43.66739" lon="6.19746">
        <ele>793.3</ele>
        <time>2023-10-09T13:52:49Z</time>
      </trkpt>
      <trkpt lat="43.66739" lon="6.19746">
        <ele>793.3</ele>
        <time>2023-10-09T13:52:50Z</time>
      </trkpt>
      <trkpt lat="43.6674" lon="6.19745">
        <ele>793.2</ele>
        <time>2023-10-09T13:52:51Z</time>
      </trkpt>
      <trkpt lat="43.6674" lon="6.19744">
        <ele>793</ele>
        <time>2023-10-09T13:52:52Z</time>
      </trkpt>
      <trkpt lat="43.66741" lon="6.19743">
        <ele>792.8</ele>
        <time>2023-10-09T13:52:53Z</time>
      </trkpt>
      <trkpt lat="43.66741" lon="6.19742">
        <ele>792.7</ele>
        <time>2023-10-09T13:52:54Z</time>
      </trkpt>
      <trkpt lat="43.66742" lon="6.19741">
        <ele>792.5</ele>
        <time>2023-10-09T13:52:55Z</time>
      </trkpt>
      <trkpt lat="43.66742" lon="6.1974">
        <ele>792.3</ele>
        <time>2023-10-09T13:52:56Z</time>
      </trkpt>
      <trkpt lat="43.66742" lon="6.19739">
        <ele>792.1</ele>
        <time>2023-10-09T13:52:57Z</time>
      </trkpt>
      <trkpt lat="43.66743" lon="6.19738">
        <ele>791.9</ele>
        <time>2023-10-09T13:52:58Z</time>
      </trkpt>
      <trkpt lat="43.66743" lon="6.19738">
        <ele>791.9</ele>
        <time>2023-10-09T13:52:59Z</time>
      </trkpt>
      <trkpt lat="43.66743" lon="6.19737">
        <ele>791.8</ele>
        <time>2023-10-09T13:53:00Z</time>
      </trkpt>
      <trkpt lat="43.66744" lon="6.19737">
        <ele>791.8</ele>
        <time>2023-10-09T13:53:01Z</time>
      </trkpt>
      <trkpt lat="43.66744" lon="6.19737">
        <ele>791.8</ele>
        <time>2023-10-09T13:53:02Z</time>
      </trkpt>
      <trkpt lat="43.66744" lon="6.19736">
        <ele>791.6</ele>
        <time>2023-10-09T13:53:03Z</time>
      </trkpt>
      <trkpt lat="43.66744" lon="6.19736">
        <ele>791.6</ele>
        <time>2023-10-09T13:53:04Z</time>
      </trkpt>
      <trkpt lat="43.66744" lon="6.19736">
        <ele>791.6</ele>
        <time>2023-10-09T13:53:05Z</time>
      </trkpt>
      <trkpt lat="43.66744" lon="6.19736">
        <ele>791.6</ele>
        <time>2023-10-09T13:53:06Z</time>
      </trkpt>
      <trkpt lat="43.66744" lon="6.19735">
        <ele>791.4</ele>
        <time>2023-10-09T13:53:07Z</time>
      </trkpt>
      <trkpt lat="43.66744" lon="6.19735">
        <ele>791.4</ele>
        <time>2023-10-09T13:53:08Z</time>
      </trkpt>
      <trkpt lat="43.66744" lon="6.19735">
        <ele>791.4</ele>
        <time>2023-10-09T13:53:09Z</time>
      </trkpt>
      <trkpt lat="43.66744" lon="6.19735">
        <ele>791.4</ele>
        <time>2023-10-09T13:53:10Z</time>
      </trkpt>
      <trkpt lat="43.66744" lon="6.19735">
        <ele>791.4</ele>
        <time>2023-10-09T13:53:11Z</time>
      </trkpt>
      <trkpt lat="43.66744" lon="6.19735">
        <ele>791.4</ele>
        <time>2023-10-09T13:53:12Z</time>
      </trkpt>
      <trkpt lat="43.66744" lon="6.19735">
        <ele>791.4</ele>
        <time>2023-10-09T13:53:13Z</time>
      </trkpt>
      <trkpt lat="43.66744" lon="6.19735">
        <ele>791.4</ele>
        <time>2023-10-09T13:53:14Z</time>
      </trkpt>
      <trkpt lat="43.66744" lon="6.19735">
        <ele>791.4</ele>
        <time>2023-10-09T13:53:15Z</time>
      </trkpt>
      <trkpt lat="43.66744" lon="6.19736">
        <ele>791.6</ele>
        <time>2023-10-09T13:53:16Z</time>
      </trkpt>
      <trkpt lat="43.66744" lon="6.19736">
        <ele>791.6</ele>
        <time>2023-10-09T13:53:17Z</time>
      </trkpt>
      <trkpt lat="43.66744" lon="6.19736">
        <ele>791.6</ele>
        <time>2023-10-09T13:53:18Z</time>
      </trkpt>
      <trkpt lat="43.66744" lon="6.19736">
        <ele>791.6</ele>
        <time>2023-10-09T13:53:19Z</time>
      </trkpt>
      <trkpt lat="43.66744" lon="6.19736">
        <ele>791.6</ele>
        <time>2023-10-09T13:53:20Z</time>
      </trkpt>
      <trkpt lat="43.66744" lon="6.19736">
        <ele>791.6</ele>
        <time>2023-10-09T13:53:21Z</time>
      </trkpt>
      <trkpt lat="43.66744" lon="6.19736">
        <ele>791.6</ele>
        <time>2023-10-09T13:53:22Z</time>
      </trkpt>
      <trkpt lat="43.66744" lon="6.19736">
        <ele>791.6</ele>
        <time>2023-10-09T13:53:23Z</time>
      </trkpt>
      <trkpt lat="43.66744" lon="6.19736">
        <ele>791.6</ele>
        <time>2023-10-09T13:53:24Z</time>
      </trkpt>
      <trkpt lat="43.66744" lon="6.19736">
        <ele>791.6</ele>
        <time>2023-10-09T13:53:25Z</time>
      </trkpt>
      <trkpt lat="43.66744" lon="6.19736">
        <ele>791.6</ele>
        <time>2023-10-09T13:53:26Z</time>
      </trkpt>
      <trkpt lat="43.66744" lon="6.19736">
        <ele>791.6</ele>
        <time>2023-10-09T13:53:27Z</time>
      </trkpt>
      <trkpt lat="43.66744" lon="6.19736">
        <ele>791.6</ele>
        <time>2023-10-09T13:53:28Z</time>
      </trkpt>
      <trkpt lat="43.66744" lon="6.19736">
        <ele>791.6</ele>
        <time>2023-10-09T13:53:29Z</time>
      </trkpt>
      <trkpt lat="43.66744" lon="6.19736">
        <ele>791.6</ele>
        <time>2023-10-09T13:53:30Z</time>
      </trkpt>
      <trkpt lat="43.66744" lon="6.19736">
        <ele>791.6</ele>
        <time>2023-10-09T13:53:31Z</time>
      </trkpt>
      <trkpt lat="43.66744" lon="6.19736">
        <ele>791.6</ele>
        <time>2023-10-09T13:53:32Z</time>
      </trkpt>
      <trkpt lat="43.66744" lon="6.19736">
        <ele>791.6</ele>
        <time>2023-10-09T13:53:33Z</time>
      </trkpt>
      <trkpt lat="43.66744" lon="6.19736">
        <ele>791.6</ele>
        <time>2023-10-09T13:53:34Z</time>
      </trkpt>
      <trkpt lat="43.66744" lon="6.19736">
        <ele>791.6</ele>
        <time>2023-10-09T13:53:35Z</time>
      </trkpt>
      <trkpt lat="43.66744" lon="6.19736">
        <ele>791.6</ele>
        <time>2023-10-09T13:53:36Z</time>
      </trkpt>
      <trkpt lat="43.66744" lon="6.19736">
        <ele>791.6</ele>
        <time>2023-10-09T13:53:37Z</time>
      </trkpt>
      <trkpt lat="43.66744" lon="6.19736">
        <ele>791.6</ele>
        <time>2023-10-09T13:53:38Z</time>
      </trkpt>
      <trkpt lat="43.66744" lon="6.19736">
        <ele>791.6</ele>
        <time>2023-10-09T13:53:39Z</time>
      </trkpt>
      <trkpt lat="43.66744" lon="6.19736">
        <ele>791.6</ele>
        <time>2023-10-09T13:53:40Z</time>
      </trkpt>
      <trkpt lat="43.66744" lon="6.19736">
        <ele>791.6</ele>
        <time>2023-10-09T13:53:41Z</time>
      </trkpt>
      <trkpt lat="43.66745" lon="6.19733">
        <ele>791.1</ele>
        <time>2023-10-09T13:53:42Z</time>
      </trkpt>
      <trkpt lat="43.66746" lon="6.1973">
        <ele>790.5</ele>
        <time>2023-10-09T13:53:43Z</time>
      </trkpt>
      <trkpt lat="43.66746" lon="6.19729">
        <ele>790.3</ele>
        <time>2023-10-09T13:53:44Z</time>
      </trkpt>
      <trkpt lat="43.66747" lon="6.19728">
        <ele>790.1</ele>
        <time>2023-10-09T13:53:45Z</time>
      </trkpt>
      <trkpt lat="43.66747" lon="6.19727">
        <ele>789.9</ele>
        <time>2023-10-09T13:53:46Z</time>
      </trkpt>
      <trkpt lat="43.66747" lon="6.19726">
        <ele>789.8</ele>
        <time>2023-10-09T13:53:47Z</time>
      </trkpt>
      <trkpt lat="43.66747" lon="6.19725">
        <ele>789.6</ele>
        <time>2023-10-09T13:53:48Z</time>
      </trkpt>
      <trkpt lat="43.66747" lon="6.19722">
        <ele>789.1</ele>
        <time>2023-10-09T13:53:49Z</time>
      </trkpt>
      <trkpt lat="43.66747" lon="6.19722">
        <ele>789.1</ele>
        <time>2023-10-09T13:53:50Z</time>
      </trkpt>
      <trkpt lat="43.66747" lon="6.19721">
        <ele>788.9</ele>
        <time>2023-10-09T13:53:51Z</time>
      </trkpt>
      <trkpt lat="43.66748" lon="6.1972">
        <ele>788.8</ele>
        <time>2023-10-09T13:53:52Z</time>
      </trkpt>
      <trkpt lat="43.66748" lon="6.19718">
        <ele>788.5</ele>
        <time>2023-10-09T13:53:53Z</time>
      </trkpt>
      <trkpt lat="43.66749" lon="6.19717">
        <ele>788.3</ele>
        <time>2023-10-09T13:53:54Z</time>
      </trkpt>
      <trkpt lat="43.66749" lon="6.19716">
        <ele>788.1</ele>
        <time>2023-10-09T13:53:55Z</time>
      </trkpt>
      <trkpt lat="43.66749" lon="6.19715">
        <ele>788</ele>
        <time>2023-10-09T13:53:56Z</time>
      </trkpt>
      <trkpt lat="43.66749" lon="6.19713">
        <ele>787.7</ele>
        <time>2023-10-09T13:53:57Z</time>
      </trkpt>
      <trkpt lat="43.66749" lon="6.19712">
        <ele>787.6</ele>
        <time>2023-10-09T13:53:58Z</time>
      </trkpt>
      <trkpt lat="43.66749" lon="6.19711">
        <ele>787.4</ele>
        <time>2023-10-09T13:53:59Z</time>
      </trkpt>
      <trkpt lat="43.66749" lon="6.1971">
        <ele>787.3</ele>
        <time>2023-10-09T13:54:00Z</time>
      </trkpt>
      <trkpt lat="43.66749" lon="6.19708">
        <ele>787</ele>
        <time>2023-10-09T13:54:01Z</time>
      </trkpt>
      <trkpt lat="43.66749" lon="6.19708">
        <ele>787</ele>
        <time>2023-10-09T13:54:02Z</time>
      </trkpt>
      <trkpt lat="43.66749" lon="6.19707">
        <ele>786.8</ele>
        <time>2023-10-09T13:54:03Z</time>
      </trkpt>
      <trkpt lat="43.66749" lon="6.19706">
        <ele>786.7</ele>
        <time>2023-10-09T13:54:04Z</time>
      </trkpt>
      <trkpt lat="43.66749" lon="6.19705">
        <ele>786.6</ele>
        <time>2023-10-09T13:54:05Z</time>
      </trkpt>
      <trkpt lat="43.6675" lon="6.19704">
        <ele>786.4</ele>
        <time>2023-10-09T13:54:06Z</time>
      </trkpt>
      <trkpt lat="43.6675" lon="6.19702">
        <ele>786.1</ele>
        <time>2023-10-09T13:54:07Z</time>
      </trkpt>
      <trkpt lat="43.6675" lon="6.19701">
        <ele>785.9</ele>
        <time>2023-10-09T13:54:08Z</time>
      </trkpt>
      <trkpt lat="43.6675" lon="6.19699">
        <ele>785.7</ele>
        <time>2023-10-09T13:54:09Z</time>
      </trkpt>
      <trkpt lat="43.6675" lon="6.19698">
        <ele>785.5</ele>
        <time>2023-10-09T13:54:10Z</time>
      </trkpt>
      <trkpt lat="43.6675" lon="6.19697">
        <ele>785.4</ele>
        <time>2023-10-09T13:54:11Z</time>
      </trkpt>
      <trkpt lat="43.6675" lon="6.19696">
        <ele>785.2</ele>
        <time>2023-10-09T13:54:12Z</time>
      </trkpt>
      <trkpt lat="43.6675" lon="6.19695">
        <ele>785.1</ele>
        <time>2023-10-09T13:54:13Z</time>
      </trkpt>
      <trkpt lat="43.6675" lon="6.19694">
        <ele>785</ele>
        <time>2023-10-09T13:54:14Z</time>
      </trkpt>
      <trkpt lat="43.6675" lon="6.19693">
        <ele>784.8</ele>
        <time>2023-10-09T13:54:15Z</time>
      </trkpt>
      <trkpt lat="43.6675" lon="6.19691">
        <ele>784.6</ele>
        <time>2023-10-09T13:54:16Z</time>
      </trkpt>
      <trkpt lat="43.6675" lon="6.1969">
        <ele>784.5</ele>
        <time>2023-10-09T13:54:17Z</time>
      </trkpt>
      <trkpt lat="43.6675" lon="6.19689">
        <ele>784.4</ele>
        <time>2023-10-09T13:54:18Z</time>
      </trkpt>
      <trkpt lat="43.6675" lon="6.19688">
        <ele>784.3</ele>
        <time>2023-10-09T13:54:19Z</time>
      </trkpt>
      <trkpt lat="43.66751" lon="6.19687">
        <ele>784.1</ele>
        <time>2023-10-09T13:54:20Z</time>
      </trkpt>
      <trkpt lat="43.66751" lon="6.19686">
        <ele>784</ele>
        <time>2023-10-09T13:54:21Z</time>
      </trkpt>
      <trkpt lat="43.66751" lon="6.19685">
        <ele>783.9</ele>
        <time>2023-10-09T13:54:22Z</time>
      </trkpt>
      <trkpt lat="43.66752" lon="6.19684">
        <ele>783.7</ele>
        <time>2023-10-09T13:54:23Z</time>
      </trkpt>
      <trkpt lat="43.66752" lon="6.19682">
        <ele>783.4</ele>
        <time>2023-10-09T13:54:24Z</time>
      </trkpt>
      <trkpt lat="43.66752" lon="6.19681">
        <ele>783.3</ele>
        <time>2023-10-09T13:54:25Z</time>
      </trkpt>
      <trkpt lat="43.66752" lon="6.19681">
        <ele>783.3</ele>
        <time>2023-10-09T13:54:26Z</time>
      </trkpt>
      <trkpt lat="43.66753" lon="6.1968">
        <ele>783.1</ele>
        <time>2023-10-09T13:54:27Z</time>
      </trkpt>
      <trkpt lat="43.66753" lon="6.19679">
        <ele>783</ele>
        <time>2023-10-09T13:54:28Z</time>
      </trkpt>
      <trkpt lat="43.66753" lon="6.19678">
        <ele>782.9</ele>
        <time>2023-10-09T13:54:29Z</time>
      </trkpt>
      <trkpt lat="43.66753" lon="6.19677">
        <ele>782.8</ele>
        <time>2023-10-09T13:54:30Z</time>
      </trkpt>
      <trkpt lat="43.66753" lon="6.19676">
        <ele>782.7</ele>
        <time>2023-10-09T13:54:31Z</time>
      </trkpt>
      <trkpt lat="43.66754" lon="6.19675">
        <ele>782.5</ele>
        <time>2023-10-09T13:54:32Z</time>
      </trkpt>
      <trkpt lat="43.66754" lon="6.19674">
        <ele>782.4</ele>
        <time>2023-10-09T13:54:33Z</time>
      </trkpt>
      <trkpt lat="43.66755" lon="6.19673">
        <ele>782.1</ele>
        <time>2023-10-09T13:54:34Z</time>
      </trkpt>
      <trkpt lat="43.66755" lon="6.19672">
        <ele>782</ele>
        <time>2023-10-09T13:54:35Z</time>
      </trkpt>
      <trkpt lat="43.66755" lon="6.19671">
        <ele>781.9</ele>
        <time>2023-10-09T13:54:36Z</time>
      </trkpt>
      <trkpt lat="43.66756" lon="6.1967">
        <ele>781.7</ele>
        <time>2023-10-09T13:54:37Z</time>
      </trkpt>
      <trkpt lat="43.66756" lon="6.19668">
        <ele>781.5</ele>
        <time>2023-10-09T13:54:38Z</time>
      </trkpt>
      <trkpt lat="43.66756" lon="6.19667">
        <ele>781.4</ele>
        <time>2023-10-09T13:54:39Z</time>
      </trkpt>
      <trkpt lat="43.66757" lon="6.19666">
        <ele>781.2</ele>
        <time>2023-10-09T13:54:40Z</time>
      </trkpt>
      <trkpt lat="43.66757" lon="6.19664">
        <ele>781</ele>
        <time>2023-10-09T13:54:41Z</time>
      </trkpt>
      <trkpt lat="43.66757" lon="6.19663">
        <ele>780.9</ele>
        <time>2023-10-09T13:54:42Z</time>
      </trkpt>
      <trkpt lat="43.66757" lon="6.19662">
        <ele>780.8</ele>
        <time>2023-10-09T13:54:43Z</time>
      </trkpt>
      <trkpt lat="43.66757" lon="6.1966">
        <ele>780.6</ele>
        <time>2023-10-09T13:54:44Z</time>
      </trkpt>
      <trkpt lat="43.66757" lon="6.19659">
        <ele>780.6</ele>
        <time>2023-10-09T13:54:45Z</time>
      </trkpt>
      <trkpt lat="43.66757" lon="6.19658">
        <ele>780.5</ele>
        <time>2023-10-09T13:54:46Z</time>
      </trkpt>
      <trkpt lat="43.66758" lon="6.19656">
        <ele>780.1</ele>
        <time>2023-10-09T13:54:47Z</time>
      </trkpt>
      <trkpt lat="43.66758" lon="6.19655">
        <ele>780.1</ele>
        <time>2023-10-09T13:54:48Z</time>
      </trkpt>
      <trkpt lat="43.66758" lon="6.19654">
        <ele>780</ele>
        <time>2023-10-09T13:54:49Z</time>
      </trkpt>
      <trkpt lat="43.66758" lon="6.19653">
        <ele>779.9</ele>
        <time>2023-10-09T13:54:50Z</time>
      </trkpt>
      <trkpt lat="43.66758" lon="6.19652">
        <ele>779.8</ele>
        <time>2023-10-09T13:54:51Z</time>
      </trkpt>
      <trkpt lat="43.66758" lon="6.19651">
        <ele>779.7</ele>
        <time>2023-10-09T13:54:52Z</time>
      </trkpt>
      <trkpt lat="43.66758" lon="6.19651">
        <ele>779.7</ele>
        <time>2023-10-09T13:54:53Z</time>
      </trkpt>
      <trkpt lat="43.66758" lon="6.1965">
        <ele>779.6</ele>
        <time>2023-10-09T13:54:54Z</time>
      </trkpt>
      <trkpt lat="43.66758" lon="6.1965">
        <ele>779.6</ele>
        <time>2023-10-09T13:54:55Z</time>
      </trkpt>
      <trkpt lat="43.66759" lon="6.19649">
        <ele>779.3</ele>
        <time>2023-10-09T13:54:56Z</time>
      </trkpt>
      <trkpt lat="43.66759" lon="6.19648">
        <ele>779.2</ele>
        <time>2023-10-09T13:54:57Z</time>
      </trkpt>
      <trkpt lat="43.66759" lon="6.19647">
        <ele>779.2</ele>
        <time>2023-10-09T13:54:58Z</time>
      </trkpt>
      <trkpt lat="43.66759" lon="6.19646">
        <ele>779.1</ele>
        <time>2023-10-09T13:54:59Z</time>
      </trkpt>
      <trkpt lat="43.66759" lon="6.19645">
        <ele>779</ele>
        <time>2023-10-09T13:55:00Z</time>
      </trkpt>
      <trkpt lat="43.66759" lon="6.19644">
        <ele>778.9</ele>
        <time>2023-10-09T13:55:01Z</time>
      </trkpt>
      <trkpt lat="43.6676" lon="6.19643">
        <ele>778.6</ele>
        <time>2023-10-09T13:55:02Z</time>
      </trkpt>
      <trkpt lat="43.6676" lon="6.19643">
        <ele>778.6</ele>
        <time>2023-10-09T13:55:03Z</time>
      </trkpt>
      <trkpt lat="43.6676" lon="6.19642">
        <ele>778.5</ele>
        <time>2023-10-09T13:55:04Z</time>
      </trkpt>
      <trkpt lat="43.6676" lon="6.19641">
        <ele>778.4</ele>
        <time>2023-10-09T13:55:05Z</time>
      </trkpt>
      <trkpt lat="43.6676" lon="6.1964">
        <ele>778.3</ele>
        <time>2023-10-09T13:55:06Z</time>
      </trkpt>
      <trkpt lat="43.66761" lon="6.19638">
        <ele>777.9</ele>
        <time>2023-10-09T13:55:07Z</time>
      </trkpt>
      <trkpt lat="43.66761" lon="6.19637">
        <ele>777.8</ele>
        <time>2023-10-09T13:55:08Z</time>
      </trkpt>
      <trkpt lat="43.66761" lon="6.19636">
        <ele>777.6</ele>
        <time>2023-10-09T13:55:09Z</time>
      </trkpt>
      <trkpt lat="43.66761" lon="6.19635">
        <ele>777.5</ele>
        <time>2023-10-09T13:55:10Z</time>
      </trkpt>
      <trkpt lat="43.66761" lon="6.19633">
        <ele>777.3</ele>
        <time>2023-10-09T13:55:11Z</time>
      </trkpt>
      <trkpt lat="43.66761" lon="6.19632">
        <ele>777.1</ele>
        <time>2023-10-09T13:55:12Z</time>
      </trkpt>
      <trkpt lat="43.66761" lon="6.19631">
        <ele>777</ele>
        <time>2023-10-09T13:55:13Z</time>
      </trkpt>
      <trkpt lat="43.66761" lon="6.19629">
        <ele>776.7</ele>
        <time>2023-10-09T13:55:14Z</time>
      </trkpt>
      <trkpt lat="43.66762" lon="6.19628">
        <ele>776.4</ele>
        <time>2023-10-09T13:55:15Z</time>
      </trkpt>
      <trkpt lat="43.66762" lon="6.19626">
        <ele>776.2</ele>
        <time>2023-10-09T13:55:16Z</time>
      </trkpt>
      <trkpt lat="43.66762" lon="6.19624">
        <ele>775.9</ele>
        <time>2023-10-09T13:55:17Z</time>
      </trkpt>
      <trkpt lat="43.66762" lon="6.19623">
        <ele>775.8</ele>
        <time>2023-10-09T13:55:18Z</time>
      </trkpt>
      <trkpt lat="43.66762" lon="6.19621">
        <ele>775.5</ele>
        <time>2023-10-09T13:55:19Z</time>
      </trkpt>
      <trkpt lat="43.66762" lon="6.1962">
        <ele>775.4</ele>
        <time>2023-10-09T13:55:20Z</time>
      </trkpt>
      <trkpt lat="43.66762" lon="6.19619">
        <ele>775.3</ele>
        <time>2023-10-09T13:55:21Z</time>
      </trkpt>
      <trkpt lat="43.66762" lon="6.19618">
        <ele>775.2</ele>
        <time>2023-10-09T13:55:22Z</time>
      </trkpt>
      <trkpt lat="43.66761" lon="6.19617">
        <ele>775.2</ele>
        <time>2023-10-09T13:55:23Z</time>
      </trkpt>
      <trkpt lat="43.66762" lon="6.19616">
        <ele>774.9</ele>
        <time>2023-10-09T13:55:24Z</time>
      </trkpt>
      <trkpt lat="43.66762" lon="6.19615">
        <ele>774.8</ele>
        <time>2023-10-09T13:55:25Z</time>
      </trkpt>
      <trkpt lat="43.66762" lon="6.19613">
        <ele>774.5</ele>
        <time>2023-10-09T13:55:26Z</time>
      </trkpt>
      <trkpt lat="43.66762" lon="6.19612">
        <ele>774.4</ele>
        <time>2023-10-09T13:55:27Z</time>
      </trkpt>
      <trkpt lat="43.66762" lon="6.19611">
        <ele>774.3</ele>
        <time>2023-10-09T13:55:28Z</time>
      </trkpt>
      <trkpt lat="43.66763" lon="6.1961">
        <ele>774</ele>
        <time>2023-10-09T13:55:29Z</time>
      </trkpt>
      <trkpt lat="43.66763" lon="6.19609">
        <ele>773.9</ele>
        <time>2023-10-09T13:55:30Z</time>
      </trkpt>
      <trkpt lat="43.66763" lon="6.19607">
        <ele>773.6</ele>
        <time>2023-10-09T13:55:31Z</time>
      </trkpt>
      <trkpt lat="43.66763" lon="6.19606">
        <ele>773.5</ele>
        <time>2023-10-09T13:55:32Z</time>
      </trkpt>
      <trkpt lat="43.66763" lon="6.19605">
        <ele>773.4</ele>
        <time>2023-10-09T13:55:33Z</time>
      </trkpt>
      <trkpt lat="43.66763" lon="6.19604">
        <ele>773.2</ele>
        <time>2023-10-09T13:55:34Z</time>
      </trkpt>
      <trkpt lat="43.66763" lon="6.19603">
        <ele>773.1</ele>
        <time>2023-10-09T13:55:35Z</time>
      </trkpt>
      <trkpt lat="43.66764" lon="6.19602">
        <ele>772.8</ele>
        <time>2023-10-09T13:55:36Z</time>
      </trkpt>
      <trkpt lat="43.66764" lon="6.19602">
        <ele>772.8</ele>
        <time>2023-10-09T13:55:37Z</time>
      </trkpt>
      <trkpt lat="43.66764" lon="6.19601">
        <ele>772.7</ele>
        <time>2023-10-09T13:55:38Z</time>
      </trkpt>
      <trkpt lat="43.66764" lon="6.196">
        <ele>772.6</ele>
        <time>2023-10-09T13:55:39Z</time>
      </trkpt>
      <trkpt lat="43.66764" lon="6.19599">
        <ele>772.5</ele>
        <time>2023-10-09T13:55:40Z</time>
      </trkpt>
      <trkpt lat="43.66764" lon="6.19598">
        <ele>772.3</ele>
        <time>2023-10-09T13:55:41Z</time>
      </trkpt>
      <trkpt lat="43.66764" lon="6.19597">
        <ele>772.2</ele>
        <time>2023-10-09T13:55:42Z</time>
      </trkpt>
      <trkpt lat="43.66764" lon="6.19595">
        <ele>772</ele>
        <time>2023-10-09T13:55:43Z</time>
      </trkpt>
      <trkpt lat="43.66765" lon="6.19594">
        <ele>771.7</ele>
        <time>2023-10-09T13:55:44Z</time>
      </trkpt>
      <trkpt lat="43.66765" lon="6.19592">
        <ele>771.5</ele>
        <time>2023-10-09T13:55:45Z</time>
      </trkpt>
      <trkpt lat="43.66765" lon="6.19591">
        <ele>771.3</ele>
        <time>2023-10-09T13:55:46Z</time>
      </trkpt>
      <trkpt lat="43.66765" lon="6.1959">
        <ele>771.2</ele>
        <time>2023-10-09T13:55:47Z</time>
      </trkpt>
      <trkpt lat="43.66765" lon="6.19589">
        <ele>771.1</ele>
        <time>2023-10-09T13:55:48Z</time>
      </trkpt>
      <trkpt lat="43.66765" lon="6.19587">
        <ele>770.8</ele>
        <time>2023-10-09T13:55:49Z</time>
      </trkpt>
      <trkpt lat="43.66765" lon="6.19586">
        <ele>770.7</ele>
        <time>2023-10-09T13:55:50Z</time>
      </trkpt>
      <trkpt lat="43.66765" lon="6.19585">
        <ele>770.6</ele>
        <time>2023-10-09T13:55:51Z</time>
      </trkpt>
      <trkpt lat="43.66766" lon="6.19584">
        <ele>770.4</ele>
        <time>2023-10-09T13:55:52Z</time>
      </trkpt>
      <trkpt lat="43.66766" lon="6.19583">
        <ele>770.2</ele>
        <time>2023-10-09T13:55:53Z</time>
      </trkpt>
      <trkpt lat="43.66766" lon="6.19582">
        <ele>770.1</ele>
        <time>2023-10-09T13:55:54Z</time>
      </trkpt>
      <trkpt lat="43.66766" lon="6.1958">
        <ele>769.8</ele>
        <time>2023-10-09T13:55:55Z</time>
      </trkpt>
      <trkpt lat="43.66767" lon="6.19579">
        <ele>769.6</ele>
        <time>2023-10-09T13:55:56Z</time>
      </trkpt>
      <trkpt lat="43.66767" lon="6.19578">
        <ele>769.5</ele>
        <time>2023-10-09T13:55:57Z</time>
      </trkpt>
      <trkpt lat="43.66767" lon="6.19577">
        <ele>769.3</ele>
        <time>2023-10-09T13:55:58Z</time>
      </trkpt>
      <trkpt lat="43.66767" lon="6.19576">
        <ele>769.2</ele>
        <time>2023-10-09T13:55:59Z</time>
      </trkpt>
      <trkpt lat="43.66767" lon="6.19575">
        <ele>769.1</ele>
        <time>2023-10-09T13:56:00Z</time>
      </trkpt>
      <trkpt lat="43.66767" lon="6.19574">
        <ele>769</ele>
        <time>2023-10-09T13:56:01Z</time>
      </trkpt>
      <trkpt lat="43.66768" lon="6.19572">
        <ele>768.6</ele>
        <time>2023-10-09T13:56:02Z</time>
      </trkpt>
      <trkpt lat="43.66768" lon="6.19571">
        <ele>768.4</ele>
        <time>2023-10-09T13:56:03Z</time>
      </trkpt>
      <trkpt lat="43.66768" lon="6.1957">
        <ele>768.3</ele>
        <time>2023-10-09T13:56:04Z</time>
      </trkpt>
      <trkpt lat="43.66768" lon="6.19569">
        <ele>768.2</ele>
        <time>2023-10-09T13:56:05Z</time>
      </trkpt>
      <trkpt lat="43.66768" lon="6.19567">
        <ele>767.9</ele>
        <time>2023-10-09T13:56:06Z</time>
      </trkpt>
      <trkpt lat="43.66768" lon="6.19566">
        <ele>767.8</ele>
        <time>2023-10-09T13:56:07Z</time>
      </trkpt>
      <trkpt lat="43.66768" lon="6.19566">
        <ele>767.8</ele>
        <time>2023-10-09T13:56:08Z</time>
      </trkpt>
      <trkpt lat="43.66768" lon="6.19565">
        <ele>767.6</ele>
        <time>2023-10-09T13:56:09Z</time>
      </trkpt>
      <trkpt lat="43.66768" lon="6.19564">
        <ele>767.5</ele>
        <time>2023-10-09T13:56:10Z</time>
      </trkpt>
      <trkpt lat="43.66768" lon="6.19563">
        <ele>767.4</ele>
        <time>2023-10-09T13:56:11Z</time>
      </trkpt>
      <trkpt lat="43.66768" lon="6.19562">
        <ele>767.3</ele>
        <time>2023-10-09T13:56:12Z</time>
      </trkpt>
      <trkpt lat="43.66768" lon="6.19561">
        <ele>767.1</ele>
        <time>2023-10-09T13:56:13Z</time>
      </trkpt>
      <trkpt lat="43.66768" lon="6.1956">
        <ele>767</ele>
        <time>2023-10-09T13:56:14Z</time>
      </trkpt>
      <trkpt lat="43.66768" lon="6.19559">
        <ele>766.9</ele>
        <time>2023-10-09T13:56:15Z</time>
      </trkpt>
      <trkpt lat="43.66768" lon="6.19559">
        <ele>766.9</ele>
        <time>2023-10-09T13:56:16Z</time>
      </trkpt>
      <trkpt lat="43.66768" lon="6.19558">
        <ele>766.7</ele>
        <time>2023-10-09T13:56:17Z</time>
      </trkpt>
      <trkpt lat="43.66768" lon="6.19557">
        <ele>766.6</ele>
        <time>2023-10-09T13:56:18Z</time>
      </trkpt>
      <trkpt lat="43.66768" lon="6.19556">
        <ele>766.5</ele>
        <time>2023-10-09T13:56:19Z</time>
      </trkpt>
      <trkpt lat="43.66767" lon="6.19556">
        <ele>766.6</ele>
        <time>2023-10-09T13:56:20Z</time>
      </trkpt>
      <trkpt lat="43.66767" lon="6.19555">
        <ele>766.5</ele>
        <time>2023-10-09T13:56:21Z</time>
      </trkpt>
      <trkpt lat="43.66767" lon="6.19555">
        <ele>766.5</ele>
        <time>2023-10-09T13:56:22Z</time>
      </trkpt>
      <trkpt lat="43.66768" lon="6.19554">
        <ele>766.1</ele>
        <time>2023-10-09T13:56:23Z</time>
      </trkpt>
      <trkpt lat="43.66768" lon="6.19553">
        <ele>766</ele>
        <time>2023-10-09T13:56:24Z</time>
      </trkpt>
      <trkpt lat="43.66769" lon="6.19552">
        <ele>765.7</ele>
        <time>2023-10-09T13:56:25Z</time>
      </trkpt>
      <trkpt lat="43.66769" lon="6.19552">
        <ele>765.7</ele>
        <time>2023-10-09T13:56:26Z</time>
      </trkpt>
      <trkpt lat="43.66769" lon="6.19552">
        <ele>765.7</ele>
        <time>2023-10-09T13:56:27Z</time>
      </trkpt>
      <trkpt lat="43.66769" lon="6.19552">
        <ele>765.7</ele>
        <time>2023-10-09T13:56:28Z</time>
      </trkpt>
      <trkpt lat="43.66769" lon="6.19552">
        <ele>765.7</ele>
        <time>2023-10-09T13:56:29Z</time>
      </trkpt>
      <trkpt lat="43.66769" lon="6.19552">
        <ele>765.7</ele>
        <time>2023-10-09T13:56:30Z</time>
      </trkpt>
      <trkpt lat="43.66769" lon="6.19552">
        <ele>765.7</ele>
        <time>2023-10-09T13:56:31Z</time>
      </trkpt>
      <trkpt lat="43.66768" lon="6.19553">
        <ele>766</ele>
        <time>2023-10-09T13:56:32Z</time>
      </trkpt>
      <trkpt lat="43.66768" lon="6.19554">
        <ele>766.1</ele>
        <time>2023-10-09T13:56:33Z</time>
      </trkpt>
      <trkpt lat="43.66767" lon="6.19555">
        <ele>766.5</ele>
        <time>2023-10-09T13:56:34Z</time>
      </trkpt>
      <trkpt lat="43.66767" lon="6.19556">
        <ele>766.6</ele>
        <time>2023-10-09T13:56:35Z</time>
      </trkpt>
      <trkpt lat="43.66766" lon="6.19556">
        <ele>766.8</ele>
        <time>2023-10-09T13:56:36Z</time>
      </trkpt>
      <trkpt lat="43.66765" lon="6.19557">
        <ele>767</ele>
        <time>2023-10-09T13:56:37Z</time>
      </trkpt>
      <trkpt lat="43.66765" lon="6.19557">
        <ele>767</ele>
        <time>2023-10-09T13:56:38Z</time>
      </trkpt>
      <trkpt lat="43.66765" lon="6.19558">
        <ele>767.2</ele>
        <time>2023-10-09T13:56:39Z</time>
      </trkpt>
      <trkpt lat="43.66765" lon="6.19558">
        <ele>767.2</ele>
        <time>2023-10-09T13:56:40Z</time>
      </trkpt>
      <trkpt lat="43.66765" lon="6.19558">
        <ele>767.2</ele>
        <time>2023-10-09T13:56:41Z</time>
      </trkpt>
      <trkpt lat="43.66765" lon="6.19558">
        <ele>767.2</ele>
        <time>2023-10-09T13:56:42Z</time>
      </trkpt>
      <trkpt lat="43.66765" lon="6.19558">
        <ele>767.2</ele>
        <time>2023-10-09T13:56:43Z</time>
      </trkpt>
      <trkpt lat="43.66765" lon="6.19558">
        <ele>767.2</ele>
        <time>2023-10-09T13:56:44Z</time>
      </trkpt>
      <trkpt lat="43.66765" lon="6.19558">
        <ele>767.2</ele>
        <time>2023-10-09T13:56:45Z</time>
      </trkpt>
      <trkpt lat="43.66766" lon="6.19558">
        <ele>767</ele>
        <time>2023-10-09T13:56:46Z</time>
      </trkpt>
      <trkpt lat="43.66766" lon="6.19558">
        <ele>767</ele>
        <time>2023-10-09T13:56:47Z</time>
      </trkpt>
      <trkpt lat="43.66766" lon="6.19558">
        <ele>767</ele>
        <time>2023-10-09T13:56:48Z</time>
      </trkpt>
      <trkpt lat="43.66766" lon="6.19558">
        <ele>767</ele>
        <time>2023-10-09T13:56:49Z</time>
      </trkpt>
      <trkpt lat="43.66766" lon="6.19558">
        <ele>767</ele>
        <time>2023-10-09T13:56:50Z</time>
      </trkpt>
      <trkpt lat="43.66766" lon="6.19558">
        <ele>767</ele>
        <time>2023-10-09T13:56:51Z</time>
      </trkpt>
      <trkpt lat="43.66766" lon="6.19558">
        <ele>767</ele>
        <time>2023-10-09T13:56:52Z</time>
      </trkpt>
      <trkpt lat="43.66766" lon="6.19558">
        <ele>767</ele>
        <time>2023-10-09T13:56:53Z</time>
      </trkpt>
      <trkpt lat="43.66766" lon="6.19558">
        <ele>767</ele>
        <time>2023-10-09T13:56:54Z</time>
      </trkpt>
      <trkpt lat="43.66766" lon="6.19558">
        <ele>767</ele>
        <time>2023-10-09T13:56:55Z</time>
      </trkpt>
      <trkpt lat="43.66767" lon="6.19558">
        <ele>766.9</ele>
        <time>2023-10-09T13:56:56Z</time>
      </trkpt>
      <trkpt lat="43.66767" lon="6.19558">
        <ele>766.9</ele>
        <time>2023-10-09T13:56:57Z</time>
      </trkpt>
      <trkpt lat="43.66767" lon="6.19558">
        <ele>766.9</ele>
        <time>2023-10-09T13:56:58Z</time>
      </trkpt>
      <trkpt lat="43.66767" lon="6.19558">
        <ele>766.9</ele>
        <time>2023-10-09T13:56:59Z</time>
      </trkpt>
      <trkpt lat="43.66767" lon="6.19558">
        <ele>766.9</ele>
        <time>2023-10-09T13:57:00Z</time>
      </trkpt>
      <trkpt lat="43.66767" lon="6.19558">
        <ele>766.9</ele>
        <time>2023-10-09T13:57:01Z</time>
      </trkpt>
      <trkpt lat="43.66767" lon="6.19558">
        <ele>766.9</ele>
        <time>2023-10-09T13:57:02Z</time>
      </trkpt>
      <trkpt lat="43.66767" lon="6.19557">
        <ele>766.7</ele>
        <time>2023-10-09T13:57:03Z</time>
      </trkpt>
      <trkpt lat="43.66767" lon="6.19557">
        <ele>766.7</ele>
        <time>2023-10-09T13:57:04Z</time>
      </trkpt>
      <trkpt lat="43.66767" lon="6.19557">
        <ele>766.7</ele>
        <time>2023-10-09T13:57:05Z</time>
      </trkpt>
      <trkpt lat="43.66768" lon="6.19557">
        <ele>766.6</ele>
        <time>2023-10-09T13:57:06Z</time>
      </trkpt>
      <trkpt lat="43.66768" lon="6.19557">
        <ele>766.6</ele>
        <time>2023-10-09T13:57:07Z</time>
      </trkpt>
      <trkpt lat="43.66768" lon="6.19557">
        <ele>766.6</ele>
        <time>2023-10-09T13:57:08Z</time>
      </trkpt>
      <trkpt lat="43.66768" lon="6.19557">
        <ele>766.6</ele>
        <time>2023-10-09T13:57:09Z</time>
      </trkpt>
      <trkpt lat="43.66768" lon="6.19557">
        <ele>766.6</ele>
        <time>2023-10-09T13:57:10Z</time>
      </trkpt>
      <trkpt lat="43.66768" lon="6.19557">
        <ele>766.6</ele>
        <time>2023-10-09T13:57:11Z</time>
      </trkpt>
      <trkpt lat="43.66768" lon="6.19557">
        <ele>766.6</ele>
        <time>2023-10-09T13:57:12Z</time>
      </trkpt>
      <trkpt lat="43.66768" lon="6.19557">
        <ele>766.6</ele>
        <time>2023-10-09T13:57:13Z</time>
      </trkpt>
      <trkpt lat="43.66768" lon="6.19557">
        <ele>766.6</ele>
        <time>2023-10-09T13:57:14Z</time>
      </trkpt>
      <trkpt lat="43.66768" lon="6.19557">
        <ele>766.6</ele>
        <time>2023-10-09T13:57:15Z</time>
      </trkpt>
      <trkpt lat="43.66769" lon="6.19557">
        <ele>766.5</ele>
        <time>2023-10-09T13:57:16Z</time>
      </trkpt>
      <trkpt lat="43.66769" lon="6.19557">
        <ele>766.5</ele>
        <time>2023-10-09T13:57:17Z</time>
      </trkpt>
      <trkpt lat="43.66769" lon="6.19557">
        <ele>766.5</ele>
        <time>2023-10-09T13:57:18Z</time>
      </trkpt>
      <trkpt lat="43.66769" lon="6.19557">
        <ele>766.5</ele>
        <time>2023-10-09T13:57:19Z</time>
      </trkpt>
      <trkpt lat="43.6677" lon="6.19556">
        <ele>766.2</ele>
        <time>2023-10-09T13:57:20Z</time>
      </trkpt>
      <trkpt lat="43.66771" lon="6.19556">
        <ele>766</ele>
        <time>2023-10-09T13:57:21Z</time>
      </trkpt>
      <trkpt lat="43.66771" lon="6.19555">
        <ele>765.9</ele>
        <time>2023-10-09T13:57:22Z</time>
      </trkpt>
      <trkpt lat="43.66771" lon="6.19554">
        <ele>765.7</ele>
        <time>2023-10-09T13:57:23Z</time>
      </trkpt>
      <trkpt lat="43.66771" lon="6.19553">
        <ele>765.5</ele>
        <time>2023-10-09T13:57:24Z</time>
      </trkpt>
      <trkpt lat="43.66771" lon="6.19553">
        <ele>765.5</ele>
        <time>2023-10-09T13:57:25Z</time>
      </trkpt>
      <trkpt lat="43.66771" lon="6.19552">
        <ele>765.4</ele>
        <time>2023-10-09T13:57:26Z</time>
      </trkpt>
      <trkpt lat="43.66771" lon="6.19552">
        <ele>765.4</ele>
        <time>2023-10-09T13:57:27Z</time>
      </trkpt>
      <trkpt lat="43.66771" lon="6.19551">
        <ele>765.2</ele>
        <time>2023-10-09T13:57:28Z</time>
      </trkpt>
      <trkpt lat="43.66772" lon="6.19551">
        <ele>765</ele>
        <time>2023-10-09T13:57:29Z</time>
      </trkpt>
      <trkpt lat="43.66772" lon="6.1955">
        <ele>764.9</ele>
        <time>2023-10-09T13:57:30Z</time>
      </trkpt>
      <trkpt lat="43.66772" lon="6.19549">
        <ele>764.7</ele>
        <time>2023-10-09T13:57:31Z</time>
      </trkpt>
      <trkpt lat="43.66773" lon="6.19548">
        <ele>764.4</ele>
        <time>2023-10-09T13:57:32Z</time>
      </trkpt>
      <trkpt lat="43.66773" lon="6.19547">
        <ele>764.2</ele>
        <time>2023-10-09T13:57:33Z</time>
      </trkpt>
      <trkpt lat="43.66773" lon="6.19546">
        <ele>764</ele>
        <time>2023-10-09T13:57:34Z</time>
      </trkpt>
      <trkpt lat="43.66773" lon="6.19545">
        <ele>763.9</ele>
        <time>2023-10-09T13:57:35Z</time>
      </trkpt>
      <trkpt lat="43.66773" lon="6.19545">
        <ele>763.9</ele>
        <time>2023-10-09T13:57:36Z</time>
      </trkpt>
      <trkpt lat="43.66773" lon="6.19545">
        <ele>763.9</ele>
        <time>2023-10-09T13:57:37Z</time>
      </trkpt>
      <trkpt lat="43.66773" lon="6.19544">
        <ele>763.7</ele>
        <time>2023-10-09T13:57:38Z</time>
      </trkpt>
      <trkpt lat="43.66774" lon="6.19543">
        <ele>763.3</ele>
        <time>2023-10-09T13:57:39Z</time>
      </trkpt>
      <trkpt lat="43.66774" lon="6.19542">
        <ele>763.2</ele>
        <time>2023-10-09T13:57:40Z</time>
      </trkpt>
      <trkpt lat="43.66774" lon="6.19541">
        <ele>763</ele>
        <time>2023-10-09T13:57:41Z</time>
      </trkpt>
      <trkpt lat="43.66774" lon="6.19541">
        <ele>763</ele>
        <time>2023-10-09T13:57:42Z</time>
      </trkpt>
      <trkpt lat="43.66774" lon="6.1954">
        <ele>762.8</ele>
        <time>2023-10-09T13:57:43Z</time>
      </trkpt>
      <trkpt lat="43.66774" lon="6.19539">
        <ele>762.6</ele>
        <time>2023-10-09T13:57:44Z</time>
      </trkpt>
      <trkpt lat="43.66774" lon="6.19539">
        <ele>762.6</ele>
        <time>2023-10-09T13:57:45Z</time>
      </trkpt>
      <trkpt lat="43.66774" lon="6.19538">
        <ele>762.5</ele>
        <time>2023-10-09T13:57:46Z</time>
      </trkpt>
      <trkpt lat="43.66774" lon="6.19537">
        <ele>762.3</ele>
        <time>2023-10-09T13:57:47Z</time>
      </trkpt>
      <trkpt lat="43.66774" lon="6.19536">
        <ele>762.1</ele>
        <time>2023-10-09T13:57:48Z</time>
      </trkpt>
      <trkpt lat="43.66774" lon="6.19535">
        <ele>761.9</ele>
        <time>2023-10-09T13:57:49Z</time>
      </trkpt>
      <trkpt lat="43.66775" lon="6.19535">
        <ele>761.8</ele>
        <time>2023-10-09T13:57:50Z</time>
      </trkpt>
      <trkpt lat="43.66775" lon="6.19534">
        <ele>761.6</ele>
        <time>2023-10-09T13:57:51Z</time>
      </trkpt>
      <trkpt lat="43.66776" lon="6.19533">
        <ele>761.2</ele>
        <time>2023-10-09T13:57:52Z</time>
      </trkpt>
      <trkpt lat="43.66776" lon="6.19533">
        <ele>761.2</ele>
        <time>2023-10-09T13:57:53Z</time>
      </trkpt>
      <trkpt lat="43.66777" lon="6.19532">
        <ele>760.9</ele>
        <time>2023-10-09T13:57:54Z</time>
      </trkpt>
      <trkpt lat="43.66776" lon="6.19531">
        <ele>760.9</ele>
        <time>2023-10-09T13:57:55Z</time>
      </trkpt>
      <trkpt lat="43.66776" lon="6.1953">
        <ele>760.7</ele>
        <time>2023-10-09T13:57:56Z</time>
      </trkpt>
      <trkpt lat="43.66776" lon="6.19529">
        <ele>760.5</ele>
        <time>2023-10-09T13:57:57Z</time>
      </trkpt>
      <trkpt lat="43.66775" lon="6.19528">
        <ele>760.5</ele>
        <time>2023-10-09T13:57:58Z</time>
      </trkpt>
      <trkpt lat="43.66774" lon="6.19527">
        <ele>760.6</ele>
        <time>2023-10-09T13:57:59Z</time>
      </trkpt>
      <trkpt lat="43.66773" lon="6.19526">
        <ele>760.6</ele>
        <time>2023-10-09T13:58:00Z</time>
      </trkpt>
      <trkpt lat="43.66772" lon="6.19525">
        <ele>760.6</ele>
        <time>2023-10-09T13:58:01Z</time>
      </trkpt>
      <trkpt lat="43.66771" lon="6.19524">
        <ele>760.6</ele>
        <time>2023-10-09T13:58:02Z</time>
      </trkpt>
      <trkpt lat="43.6677" lon="6.19523">
        <ele>760.7</ele>
        <time>2023-10-09T13:58:03Z</time>
      </trkpt>
      <trkpt lat="43.6677" lon="6.19522">
        <ele>760.5</ele>
        <time>2023-10-09T13:58:04Z</time>
      </trkpt>
      <trkpt lat="43.66769" lon="6.19521">
        <ele>760.5</ele>
        <time>2023-10-09T13:58:05Z</time>
      </trkpt>
      <trkpt lat="43.66768" lon="6.1952">
        <ele>760.5</ele>
        <time>2023-10-09T13:58:06Z</time>
      </trkpt>
      <trkpt lat="43.66767" lon="6.19519">
        <ele>760.6</ele>
        <time>2023-10-09T13:58:07Z</time>
      </trkpt>
      <trkpt lat="43.66767" lon="6.19517">
        <ele>760.2</ele>
        <time>2023-10-09T13:58:08Z</time>
      </trkpt>
      <trkpt lat="43.66766" lon="6.19516">
        <ele>760.2</ele>
        <time>2023-10-09T13:58:09Z</time>
      </trkpt>
      <trkpt lat="43.66765" lon="6.19513">
        <ele>759.9</ele>
        <time>2023-10-09T13:58:10Z</time>
      </trkpt>
      <trkpt lat="43.66765" lon="6.19512">
        <ele>759.8</ele>
        <time>2023-10-09T13:58:11Z</time>
      </trkpt>
      <trkpt lat="43.66765" lon="6.19511">
        <ele>759.6</ele>
        <time>2023-10-09T13:58:12Z</time>
      </trkpt>
      <trkpt lat="43.66764" lon="6.19509">
        <ele>759.4</ele>
        <time>2023-10-09T13:58:13Z</time>
      </trkpt>
      <trkpt lat="43.66764" lon="6.19507">
        <ele>759.1</ele>
        <time>2023-10-09T13:58:14Z</time>
      </trkpt>
      <trkpt lat="43.66763" lon="6.19506">
        <ele>759.1</ele>
        <time>2023-10-09T13:58:15Z</time>
      </trkpt>
      <trkpt lat="43.66763" lon="6.19506">
        <ele>759.1</ele>
        <time>2023-10-09T13:58:16Z</time>
      </trkpt>
      <trkpt lat="43.66762" lon="6.19505">
        <ele>759.1</ele>
        <time>2023-10-09T13:58:17Z</time>
      </trkpt>
      <trkpt lat="43.66762" lon="6.19504">
        <ele>758.9</ele>
        <time>2023-10-09T13:58:18Z</time>
      </trkpt>
      <trkpt lat="43.66761" lon="6.19503">
        <ele>758.9</ele>
        <time>2023-10-09T13:58:19Z</time>
      </trkpt>
      <trkpt lat="43.6676" lon="6.19502">
        <ele>758.9</ele>
        <time>2023-10-09T13:58:20Z</time>
      </trkpt>
      <trkpt lat="43.6676" lon="6.19501">
        <ele>758.7</ele>
        <time>2023-10-09T13:58:21Z</time>
      </trkpt>
      <trkpt lat="43.6676" lon="6.195">
        <ele>758.6</ele>
        <time>2023-10-09T13:58:22Z</time>
      </trkpt>
      <trkpt lat="43.66759" lon="6.19498">
        <ele>758.5</ele>
        <time>2023-10-09T13:58:23Z</time>
      </trkpt>
      <trkpt lat="43.66759" lon="6.19497">
        <ele>758.3</ele>
        <time>2023-10-09T13:58:24Z</time>
      </trkpt>
      <trkpt lat="43.66758" lon="6.19496">
        <ele>758.4</ele>
        <time>2023-10-09T13:58:25Z</time>
      </trkpt>
      <trkpt lat="43.66758" lon="6.19494">
        <ele>758.1</ele>
        <time>2023-10-09T13:58:26Z</time>
      </trkpt>
      <trkpt lat="43.66757" lon="6.19493">
        <ele>758.2</ele>
        <time>2023-10-09T13:58:27Z</time>
      </trkpt>
      <trkpt lat="43.66757" lon="6.19492">
        <ele>758.1</ele>
        <time>2023-10-09T13:58:28Z</time>
      </trkpt>
      <trkpt lat="43.66757" lon="6.1949">
        <ele>757.8</ele>
        <time>2023-10-09T13:58:29Z</time>
      </trkpt>
      <trkpt lat="43.66756" lon="6.19489">
        <ele>757.9</ele>
        <time>2023-10-09T13:58:30Z</time>
      </trkpt>
      <trkpt lat="43.66756" lon="6.19488">
        <ele>757.7</ele>
        <time>2023-10-09T13:58:31Z</time>
      </trkpt>
      <trkpt lat="43.66756" lon="6.19486">
        <ele>757.5</ele>
        <time>2023-10-09T13:58:32Z</time>
      </trkpt>
      <trkpt lat="43.66756" lon="6.19485">
        <ele>757.4</ele>
        <time>2023-10-09T13:58:33Z</time>
      </trkpt>
      <trkpt lat="43.66755" lon="6.19483">
        <ele>757.3</ele>
        <time>2023-10-09T13:58:34Z</time>
      </trkpt>
      <trkpt lat="43.66755" lon="6.19482">
        <ele>757.2</ele>
        <time>2023-10-09T13:58:35Z</time>
      </trkpt>
      <trkpt lat="43.66755" lon="6.19481">
        <ele>757.1</ele>
        <time>2023-10-09T13:58:36Z</time>
      </trkpt>
      <trkpt lat="43.66755" lon="6.19479">
        <ele>756.9</ele>
        <time>2023-10-09T13:58:37Z</time>
      </trkpt>
      <trkpt lat="43.66754" lon="6.19477">
        <ele>756.8</ele>
        <time>2023-10-09T13:58:38Z</time>
      </trkpt>
      <trkpt lat="43.66754" lon="6.19475">
        <ele>756.6</ele>
        <time>2023-10-09T13:58:39Z</time>
      </trkpt>
      <trkpt lat="43.66754" lon="6.19473">
        <ele>756.4</ele>
        <time>2023-10-09T13:58:40Z</time>
      </trkpt>
      <trkpt lat="43.66754" lon="6.19472">
        <ele>756.3</ele>
        <time>2023-10-09T13:58:41Z</time>
      </trkpt>
      <trkpt lat="43.66754" lon="6.1947">
        <ele>756.3</ele>
        <time>2023-10-09T13:58:42Z</time>
      </trkpt>
      <trkpt lat="43.66754" lon="6.19469">
        <ele>756.3</ele>
        <time>2023-10-09T13:58:43Z</time>
      </trkpt>
      <trkpt lat="43.66754" lon="6.19468">
        <ele>756.3</ele>
        <time>2023-10-09T13:58:44Z</time>
      </trkpt>
      <trkpt lat="43.66754" lon="6.19467">
        <ele>756.3</ele>
        <time>2023-10-09T13:58:45Z</time>
      </trkpt>
      <trkpt lat="43.66754" lon="6.19466">
        <ele>756.3</ele>
        <time>2023-10-09T13:58:46Z</time>
      </trkpt>
      <trkpt lat="43.66754" lon="6.19463">
        <ele>756.3</ele>
        <time>2023-10-09T13:58:47Z</time>
      </trkpt>
      <trkpt lat="43.66754" lon="6.19462">
        <ele>756.3</ele>
        <time>2023-10-09T13:58:48Z</time>
      </trkpt>
      <trkpt lat="43.66753" lon="6.19461">
        <ele>756.5</ele>
        <time>2023-10-09T13:58:49Z</time>
      </trkpt>
      <trkpt lat="43.66753" lon="6.19459">
        <ele>756.5</ele>
        <time>2023-10-09T13:58:50Z</time>
      </trkpt>
      <trkpt lat="43.66753" lon="6.19458">
        <ele>756.5</ele>
        <time>2023-10-09T13:58:51Z</time>
      </trkpt>
      <trkpt lat="43.66753" lon="6.19456">
        <ele>756.5</ele>
        <time>2023-10-09T13:58:52Z</time>
      </trkpt>
      <trkpt lat="43.66752" lon="6.19453">
        <ele>756.7</ele>
        <time>2023-10-09T13:58:53Z</time>
      </trkpt>
      <trkpt lat="43.66752" lon="6.19452">
        <ele>756.7</ele>
        <time>2023-10-09T13:58:54Z</time>
      </trkpt>
      <trkpt lat="43.66752" lon="6.19451">
        <ele>756.7</ele>
        <time>2023-10-09T13:58:55Z</time>
      </trkpt>
      <trkpt lat="43.66751" lon="6.19449">
        <ele>756.9</ele>
        <time>2023-10-09T13:58:56Z</time>
      </trkpt>
      <trkpt lat="43.66751" lon="6.19447">
        <ele>756.9</ele>
        <time>2023-10-09T13:58:57Z</time>
      </trkpt>
      <trkpt lat="43.6675" lon="6.19445">
        <ele>757</ele>
        <time>2023-10-09T13:58:58Z</time>
      </trkpt>
      <trkpt lat="43.6675" lon="6.19443">
        <ele>756.9</ele>
        <time>2023-10-09T13:58:59Z</time>
      </trkpt>
      <trkpt lat="43.6675" lon="6.19442">
        <ele>756.9</ele>
        <time>2023-10-09T13:59:00Z</time>
      </trkpt>
      <trkpt lat="43.66749" lon="6.19441">
        <ele>756.8</ele>
        <time>2023-10-09T13:59:01Z</time>
      </trkpt>
      <trkpt lat="43.66749" lon="6.19439">
        <ele>756.8</ele>
        <time>2023-10-09T13:59:02Z</time>
      </trkpt>
      <trkpt lat="43.66749" lon="6.19438">
        <ele>756.7</ele>
        <time>2023-10-09T13:59:03Z</time>
      </trkpt>
      <trkpt lat="43.66748" lon="6.19437">
        <ele>756.6</ele>
        <time>2023-10-09T13:59:04Z</time>
      </trkpt>
      <trkpt lat="43.66748" lon="6.19436">
        <ele>756.6</ele>
        <time>2023-10-09T13:59:05Z</time>
      </trkpt>
      <trkpt lat="43.66748" lon="6.19434">
        <ele>756.5</ele>
        <time>2023-10-09T13:59:06Z</time>
      </trkpt>
      <trkpt lat="43.66748" lon="6.19433">
        <ele>756.5</ele>
        <time>2023-10-09T13:59:07Z</time>
      </trkpt>
      <trkpt lat="43.66747" lon="6.19432">
        <ele>756.3</ele>
        <time>2023-10-09T13:59:08Z</time>
      </trkpt>
      <trkpt lat="43.66747" lon="6.1943">
        <ele>756.3</ele>
        <time>2023-10-09T13:59:09Z</time>
      </trkpt>
      <trkpt lat="43.66746" lon="6.19427">
        <ele>756</ele>
        <time>2023-10-09T13:59:10Z</time>
      </trkpt>
      <trkpt lat="43.66746" lon="6.19425">
        <ele>756</ele>
        <time>2023-10-09T13:59:11Z</time>
      </trkpt>
      <trkpt lat="43.66746" lon="6.19424">
        <ele>755.9</ele>
        <time>2023-10-09T13:59:12Z</time>
      </trkpt>
      <trkpt lat="43.66746" lon="6.19422">
        <ele>755.8</ele>
        <time>2023-10-09T13:59:13Z</time>
      </trkpt>
      <trkpt lat="43.66746" lon="6.19421">
        <ele>755.8</ele>
        <time>2023-10-09T13:59:14Z</time>
      </trkpt>
      <trkpt lat="43.66746" lon="6.19419">
        <ele>755.7</ele>
        <time>2023-10-09T13:59:15Z</time>
      </trkpt>
      <trkpt lat="43.66745" lon="6.19418">
        <ele>755.5</ele>
        <time>2023-10-09T13:59:16Z</time>
      </trkpt>
      <trkpt lat="43.66745" lon="6.19417">
        <ele>755.5</ele>
        <time>2023-10-09T13:59:17Z</time>
      </trkpt>
      <trkpt lat="43.66745" lon="6.19415">
        <ele>755.4</ele>
        <time>2023-10-09T13:59:18Z</time>
      </trkpt>
      <trkpt lat="43.66744" lon="6.19414">
        <ele>755.3</ele>
        <time>2023-10-09T13:59:19Z</time>
      </trkpt>
      <trkpt lat="43.66744" lon="6.19412">
        <ele>755.2</ele>
        <time>2023-10-09T13:59:20Z</time>
      </trkpt>
      <trkpt lat="43.66743" lon="6.19411">
        <ele>755.1</ele>
        <time>2023-10-09T13:59:21Z</time>
      </trkpt>
      <trkpt lat="43.66743" lon="6.1941">
        <ele>755.1</ele>
        <time>2023-10-09T13:59:22Z</time>
      </trkpt>
      <trkpt lat="43.66743" lon="6.19408">
        <ele>755</ele>
        <time>2023-10-09T13:59:23Z</time>
      </trkpt>
      <trkpt lat="43.66742" lon="6.19407">
        <ele>754.8</ele>
        <time>2023-10-09T13:59:24Z</time>
      </trkpt>
      <trkpt lat="43.66742" lon="6.19406">
        <ele>754.8</ele>
        <time>2023-10-09T13:59:25Z</time>
      </trkpt>
      <trkpt lat="43.66741" lon="6.19404">
        <ele>754.6</ele>
        <time>2023-10-09T13:59:26Z</time>
      </trkpt>
      <trkpt lat="43.66741" lon="6.19403">
        <ele>754.5</ele>
        <time>2023-10-09T13:59:27Z</time>
      </trkpt>
      <trkpt lat="43.6674" lon="6.19402">
        <ele>754.3</ele>
        <time>2023-10-09T13:59:28Z</time>
      </trkpt>
      <trkpt lat="43.6674" lon="6.19401">
        <ele>754.3</ele>
        <time>2023-10-09T13:59:29Z</time>
      </trkpt>
      <trkpt lat="43.66739" lon="6.19399">
        <ele>754.1</ele>
        <time>2023-10-09T13:59:30Z</time>
      </trkpt>
      <trkpt lat="43.66739" lon="6.19398">
        <ele>754</ele>
        <time>2023-10-09T13:59:31Z</time>
      </trkpt>
      <trkpt lat="43.66739" lon="6.19397">
        <ele>754</ele>
        <time>2023-10-09T13:59:32Z</time>
      </trkpt>
      <trkpt lat="43.66738" lon="6.19397">
        <ele>753.8</ele>
        <time>2023-10-09T13:59:33Z</time>
      </trkpt>
      <trkpt lat="43.66738" lon="6.19396">
        <ele>753.7</ele>
        <time>2023-10-09T13:59:34Z</time>
      </trkpt>
      <trkpt lat="43.66737" lon="6.19395">
        <ele>753.5</ele>
        <time>2023-10-09T13:59:35Z</time>
      </trkpt>
      <trkpt lat="43.66737" lon="6.19393">
        <ele>753.4</ele>
        <time>2023-10-09T13:59:36Z</time>
      </trkpt>
      <trkpt lat="43.66737" lon="6.19392">
        <ele>753.3</ele>
        <time>2023-10-09T13:59:37Z</time>
      </trkpt>
      <trkpt lat="43.66736" lon="6.19391">
        <ele>753.1</ele>
        <time>2023-10-09T13:59:38Z</time>
      </trkpt>
      <trkpt lat="43.66736" lon="6.1939">
        <ele>753</ele>
        <time>2023-10-09T13:59:39Z</time>
      </trkpt>
      <trkpt lat="43.66735" lon="6.19389">
        <ele>752.8</ele>
        <time>2023-10-09T13:59:40Z</time>
      </trkpt>
      <trkpt lat="43.66735" lon="6.19388">
        <ele>752.7</ele>
        <time>2023-10-09T13:59:41Z</time>
      </trkpt>
      <trkpt lat="43.66735" lon="6.19387">
        <ele>752.6</ele>
        <time>2023-10-09T13:59:42Z</time>
      </trkpt>
      <trkpt lat="43.66735" lon="6.19387">
        <ele>752.6</ele>
        <time>2023-10-09T13:59:43Z</time>
      </trkpt>
      <trkpt lat="43.66734" lon="6.19386">
        <ele>752.4</ele>
        <time>2023-10-09T13:59:44Z</time>
      </trkpt>
      <trkpt lat="43.66734" lon="6.19386">
        <ele>752.4</ele>
        <time>2023-10-09T13:59:45Z</time>
      </trkpt>
      <trkpt lat="43.66734" lon="6.19385">
        <ele>752.3</ele>
        <time>2023-10-09T13:59:46Z</time>
      </trkpt>
      <trkpt lat="43.66733" lon="6.19385">
        <ele>752.1</ele>
        <time>2023-10-09T13:59:47Z</time>
      </trkpt>
      <trkpt lat="43.66733" lon="6.19385">
        <ele>752.1</ele>
        <time>2023-10-09T13:59:48Z</time>
      </trkpt>
      <trkpt lat="43.66733" lon="6.19385">
        <ele>752.1</ele>
        <time>2023-10-09T13:59:49Z</time>
      </trkpt>
      <trkpt lat="43.66732" lon="6.19385">
        <ele>751.8</ele>
        <time>2023-10-09T13:59:50Z</time>
      </trkpt>
      <trkpt lat="43.66732" lon="6.19385">
        <ele>751.8</ele>
        <time>2023-10-09T13:59:51Z</time>
      </trkpt>
      <trkpt lat="43.66731" lon="6.19385">
        <ele>751.6</ele>
        <time>2023-10-09T13:59:52Z</time>
      </trkpt>
      <trkpt lat="43.66731" lon="6.19385">
        <ele>751.6</ele>
        <time>2023-10-09T13:59:53Z</time>
      </trkpt>
      <trkpt lat="43.66731" lon="6.19385">
        <ele>751.6</ele>
        <time>2023-10-09T13:59:54Z</time>
      </trkpt>
      <trkpt lat="43.6673" lon="6.19385">
        <ele>751.4</ele>
        <time>2023-10-09T13:59:55Z</time>
      </trkpt>
      <trkpt lat="43.66729" lon="6.19384">
        <ele>751.1</ele>
        <time>2023-10-09T13:59:56Z</time>
      </trkpt>
      <trkpt lat="43.66729" lon="6.19384">
        <ele>751.1</ele>
        <time>2023-10-09T13:59:57Z</time>
      </trkpt>
      <trkpt lat="43.66728" lon="6.19384">
        <ele>750.8</ele>
        <time>2023-10-09T13:59:58Z</time>
      </trkpt>
      <trkpt lat="43.66728" lon="6.19383">
        <ele>750.7</ele>
        <time>2023-10-09T13:59:59Z</time>
      </trkpt>
      <trkpt lat="43.66727" lon="6.19383">
        <ele>750.5</ele>
        <time>2023-10-09T14:00:00Z</time>
      </trkpt>
      <trkpt lat="43.66727" lon="6.19382">
        <ele>750.4</ele>
        <time>2023-10-09T14:00:01Z</time>
      </trkpt>
      <trkpt lat="43.66727" lon="6.19381">
        <ele>750.3</ele>
        <time>2023-10-09T14:00:02Z</time>
      </trkpt>
      <trkpt lat="43.66726" lon="6.19381">
        <ele>750.1</ele>
        <time>2023-10-09T14:00:03Z</time>
      </trkpt>
      <trkpt lat="43.66726" lon="6.19381">
        <ele>750.1</ele>
        <time>2023-10-09T14:00:04Z</time>
      </trkpt>
      <trkpt lat="43.66725" lon="6.1938">
        <ele>749.7</ele>
        <time>2023-10-09T14:00:05Z</time>
      </trkpt>
      <trkpt lat="43.66725" lon="6.1938">
        <ele>749.7</ele>
        <time>2023-10-09T14:00:06Z</time>
      </trkpt>
      <trkpt lat="43.66724" lon="6.19379">
        <ele>749.4</ele>
        <time>2023-10-09T14:00:07Z</time>
      </trkpt>
      <trkpt lat="43.66724" lon="6.19379">
        <ele>749.4</ele>
        <time>2023-10-09T14:00:08Z</time>
      </trkpt>
      <trkpt lat="43.66723" lon="6.19379">
        <ele>749.1</ele>
        <time>2023-10-09T14:00:09Z</time>
      </trkpt>
      <trkpt lat="43.66722" lon="6.19379">
        <ele>748.9</ele>
        <time>2023-10-09T14:00:10Z</time>
      </trkpt>
      <trkpt lat="43.66722" lon="6.19379">
        <ele>748.9</ele>
        <time>2023-10-09T14:00:11Z</time>
      </trkpt>
      <trkpt lat="43.66721" lon="6.19379">
        <ele>748.5</ele>
        <time>2023-10-09T14:00:12Z</time>
      </trkpt>
      <trkpt lat="43.66721" lon="6.19379">
        <ele>748.5</ele>
        <time>2023-10-09T14:00:13Z</time>
      </trkpt>
      <trkpt lat="43.6672" lon="6.19379">
        <ele>748.2</ele>
        <time>2023-10-09T14:00:14Z</time>
      </trkpt>
      <trkpt lat="43.6672" lon="6.19378">
        <ele>748</ele>
        <time>2023-10-09T14:00:15Z</time>
      </trkpt>
      <trkpt lat="43.6672" lon="6.19378">
        <ele>748</ele>
        <time>2023-10-09T14:00:16Z</time>
      </trkpt>
      <trkpt lat="43.6672" lon="6.19378">
        <ele>748</ele>
        <time>2023-10-09T14:00:17Z</time>
      </trkpt>
      <trkpt lat="43.66719" lon="6.19378">
        <ele>747.7</ele>
        <time>2023-10-09T14:00:18Z</time>
      </trkpt>
      <trkpt lat="43.66719" lon="6.19379">
        <ele>747.8</ele>
        <time>2023-10-09T14:00:19Z</time>
      </trkpt>
      <trkpt lat="43.66718" lon="6.19379">
        <ele>747.5</ele>
        <time>2023-10-09T14:00:20Z</time>
      </trkpt>
      <trkpt lat="43.66718" lon="6.19379">
        <ele>747.5</ele>
        <time>2023-10-09T14:00:21Z</time>
      </trkpt>
      <trkpt lat="43.66717" lon="6.1938">
        <ele>747.2</ele>
        <time>2023-10-09T14:00:22Z</time>
      </trkpt>
      <trkpt lat="43.66716" lon="6.1938">
        <ele>746.9</ele>
        <time>2023-10-09T14:00:23Z</time>
      </trkpt>
      <trkpt lat="43.66716" lon="6.19381">
        <ele>747</ele>
        <time>2023-10-09T14:00:24Z</time>
      </trkpt>
      <trkpt lat="43.66715" lon="6.19381">
        <ele>746.7</ele>
        <time>2023-10-09T14:00:25Z</time>
      </trkpt>
      <trkpt lat="43.66714" lon="6.19381">
        <ele>746.3</ele>
        <time>2023-10-09T14:00:26Z</time>
      </trkpt>
      <trkpt lat="43.66713" lon="6.19382">
        <ele>746.1</ele>
        <time>2023-10-09T14:00:27Z</time>
      </trkpt>
      <trkpt lat="43.66712" lon="6.19382">
        <ele>745.8</ele>
        <time>2023-10-09T14:00:28Z</time>
      </trkpt>
      <trkpt lat="43.66712" lon="6.19382">
        <ele>745.8</ele>
        <time>2023-10-09T14:00:29Z</time>
      </trkpt>
      <trkpt lat="43.66712" lon="6.19382">
        <ele>745.8</ele>
        <time>2023-10-09T14:00:30Z</time>
      </trkpt>
      <trkpt lat="43.66711" lon="6.19382">
        <ele>745.4</ele>
        <time>2023-10-09T14:00:31Z</time>
      </trkpt>
      <trkpt lat="43.66711" lon="6.19383">
        <ele>745.6</ele>
        <time>2023-10-09T14:00:32Z</time>
      </trkpt>
      <trkpt lat="43.6671" lon="6.19383">
        <ele>745.2</ele>
        <time>2023-10-09T14:00:33Z</time>
      </trkpt>
      <trkpt lat="43.6671" lon="6.19384">
        <ele>745.4</ele>
        <time>2023-10-09T14:00:34Z</time>
      </trkpt>
      <trkpt lat="43.66709" lon="6.19384">
        <ele>745</ele>
        <time>2023-10-09T14:00:35Z</time>
      </trkpt>
      <trkpt lat="43.66709" lon="6.19385">
        <ele>745.2</ele>
        <time>2023-10-09T14:00:36Z</time>
      </trkpt>
      <trkpt lat="43.66708" lon="6.19385">
        <ele>744.8</ele>
        <time>2023-10-09T14:00:37Z</time>
      </trkpt>
      <trkpt lat="43.66707" lon="6.19386">
        <ele>744.6</ele>
        <time>2023-10-09T14:00:38Z</time>
      </trkpt>
      <trkpt lat="43.66707" lon="6.19387">
        <ele>744.8</ele>
        <time>2023-10-09T14:00:39Z</time>
      </trkpt>
      <trkpt lat="43.66706" lon="6.19388">
        <ele>744.6</ele>
        <time>2023-10-09T14:00:40Z</time>
      </trkpt>
      <trkpt lat="43.66706" lon="6.19388">
        <ele>744.6</ele>
        <time>2023-10-09T14:00:41Z</time>
      </trkpt>
      <trkpt lat="43.66705" lon="6.19389">
        <ele>744.4</ele>
        <time>2023-10-09T14:00:42Z</time>
      </trkpt>
      <trkpt lat="43.66705" lon="6.19389">
        <ele>744.4</ele>
        <time>2023-10-09T14:00:43Z</time>
      </trkpt>
      <trkpt lat="43.66704" lon="6.1939">
        <ele>744.2</ele>
        <time>2023-10-09T14:00:44Z</time>
      </trkpt>
      <trkpt lat="43.66703" lon="6.1939">
        <ele>743.9</ele>
        <time>2023-10-09T14:00:45Z</time>
      </trkpt>
      <trkpt lat="43.66703" lon="6.1939">
        <ele>743.9</ele>
        <time>2023-10-09T14:00:46Z</time>
      </trkpt>
      <trkpt lat="43.66702" lon="6.19391">
        <ele>743.6</ele>
        <time>2023-10-09T14:00:47Z</time>
      </trkpt>
      <trkpt lat="43.66701" lon="6.19392">
        <ele>743.4</ele>
        <time>2023-10-09T14:00:48Z</time>
      </trkpt>
      <trkpt lat="43.66701" lon="6.19393">
        <ele>743.5</ele>
        <time>2023-10-09T14:00:49Z</time>
      </trkpt>
      <trkpt lat="43.66701" lon="6.19393">
        <ele>743.5</ele>
        <time>2023-10-09T14:00:50Z</time>
      </trkpt>
      <trkpt lat="43.667" lon="6.19394">
        <ele>743.2</ele>
        <time>2023-10-09T14:00:51Z</time>
      </trkpt>
      <trkpt lat="43.667" lon="6.19394">
        <ele>743.2</ele>
        <time>2023-10-09T14:00:52Z</time>
      </trkpt>
      <trkpt lat="43.66699" lon="6.19395">
        <ele>743</ele>
        <time>2023-10-09T14:00:53Z</time>
      </trkpt>
      <trkpt lat="43.66699" lon="6.19395">
        <ele>743</ele>
        <time>2023-10-09T14:00:54Z</time>
      </trkpt>
      <trkpt lat="43.66699" lon="6.19396">
        <ele>743</ele>
        <time>2023-10-09T14:00:55Z</time>
      </trkpt>
      <trkpt lat="43.66698" lon="6.19397">
        <ele>742.8</ele>
        <time>2023-10-09T14:00:56Z</time>
      </trkpt>
      <trkpt lat="43.66697" lon="6.19397">
        <ele>742.4</ele>
        <time>2023-10-09T14:00:57Z</time>
      </trkpt>
      <trkpt lat="43.66697" lon="6.19398">
        <ele>742.5</ele>
        <time>2023-10-09T14:00:58Z</time>
      </trkpt>
      <trkpt lat="43.66696" lon="6.19399">
        <ele>742.3</ele>
        <time>2023-10-09T14:00:59Z</time>
      </trkpt>
      <trkpt lat="43.66696" lon="6.19399">
        <ele>742.3</ele>
        <time>2023-10-09T14:01:00Z</time>
      </trkpt>
      <trkpt lat="43.66695" lon="6.194">
        <ele>742</ele>
        <time>2023-10-09T14:01:01Z</time>
      </trkpt>
      <trkpt lat="43.66695" lon="6.194">
        <ele>742</ele>
        <time>2023-10-09T14:01:02Z</time>
      </trkpt>
      <trkpt lat="43.66694" lon="6.19401">
        <ele>741.7</ele>
        <time>2023-10-09T14:01:03Z</time>
      </trkpt>
      <trkpt lat="43.66693" lon="6.19401">
        <ele>741.3</ele>
        <time>2023-10-09T14:01:04Z</time>
      </trkpt>
      <trkpt lat="43.66692" lon="6.19402">
        <ele>741</ele>
        <time>2023-10-09T14:01:05Z</time>
      </trkpt>
      <trkpt lat="43.66691" lon="6.19402">
        <ele>740.6</ele>
        <time>2023-10-09T14:01:06Z</time>
      </trkpt>
      <trkpt lat="43.6669" lon="6.19403">
        <ele>740.3</ele>
        <time>2023-10-09T14:01:07Z</time>
      </trkpt>
      <trkpt lat="43.66689" lon="6.19404">
        <ele>740</ele>
        <time>2023-10-09T14:01:08Z</time>
      </trkpt>
      <trkpt lat="43.66689" lon="6.19405">
        <ele>740.1</ele>
        <time>2023-10-09T14:01:09Z</time>
      </trkpt>
      <trkpt lat="43.66688" lon="6.19406">
        <ele>739.8</ele>
        <time>2023-10-09T14:01:10Z</time>
      </trkpt>
      <trkpt lat="43.66688" lon="6.19407">
        <ele>739.9</ele>
        <time>2023-10-09T14:01:11Z</time>
      </trkpt>
      <trkpt lat="43.66687" lon="6.19407">
        <ele>739.5</ele>
        <time>2023-10-09T14:01:12Z</time>
      </trkpt>
      <trkpt lat="43.66687" lon="6.19408">
        <ele>739.6</ele>
        <time>2023-10-09T14:01:13Z</time>
      </trkpt>
      <trkpt lat="43.66687" lon="6.19409">
        <ele>739.7</ele>
        <time>2023-10-09T14:01:14Z</time>
      </trkpt>
      <trkpt lat="43.66686" lon="6.1941">
        <ele>739.4</ele>
        <time>2023-10-09T14:01:15Z</time>
      </trkpt>
      <trkpt lat="43.66685" lon="6.19411">
        <ele>739.1</ele>
        <time>2023-10-09T14:01:16Z</time>
      </trkpt>
      <trkpt lat="43.66685" lon="6.19412">
        <ele>739.2</ele>
        <time>2023-10-09T14:01:17Z</time>
      </trkpt>
      <trkpt lat="43.66684" lon="6.19413">
        <ele>738.9</ele>
        <time>2023-10-09T14:01:18Z</time>
      </trkpt>
      <trkpt lat="43.66683" lon="6.19414">
        <ele>738.6</ele>
        <time>2023-10-09T14:01:19Z</time>
      </trkpt>
      <trkpt lat="43.66683" lon="6.19415">
        <ele>738.7</ele>
        <time>2023-10-09T14:01:20Z</time>
      </trkpt>
      <trkpt lat="43.66682" lon="6.19416">
        <ele>738.5</ele>
        <time>2023-10-09T14:01:21Z</time>
      </trkpt>
      <trkpt lat="43.66681" lon="6.19417">
        <ele>738.2</ele>
        <time>2023-10-09T14:01:22Z</time>
      </trkpt>
      <trkpt lat="43.6668" lon="6.19418">
        <ele>738</ele>
        <time>2023-10-09T14:01:23Z</time>
      </trkpt>
      <trkpt lat="43.6668" lon="6.19419">
        <ele>738.1</ele>
        <time>2023-10-09T14:01:24Z</time>
      </trkpt>
      <trkpt lat="43.66679" lon="6.1942">
        <ele>737.9</ele>
        <time>2023-10-09T14:01:25Z</time>
      </trkpt>
      <trkpt lat="43.66678" lon="6.19421">
        <ele>737.6</ele>
        <time>2023-10-09T14:01:26Z</time>
      </trkpt>
      <trkpt lat="43.66678" lon="6.19422">
        <ele>737.7</ele>
        <time>2023-10-09T14:01:27Z</time>
      </trkpt>
      <trkpt lat="43.66677" lon="6.19423">
        <ele>737.5</ele>
        <time>2023-10-09T14:01:28Z</time>
      </trkpt>
      <trkpt lat="43.66676" lon="6.19424">
        <ele>737.2</ele>
        <time>2023-10-09T14:01:29Z</time>
      </trkpt>
      <trkpt lat="43.66675" lon="6.19424">
        <ele>736.9</ele>
        <time>2023-10-09T14:01:30Z</time>
      </trkpt>
      <trkpt lat="43.66675" lon="6.19425">
        <ele>737</ele>
        <time>2023-10-09T14:01:31Z</time>
      </trkpt>
      <trkpt lat="43.66673" lon="6.19427">
        <ele>736.5</ele>
        <time>2023-10-09T14:01:33Z</time>
      </trkpt>
      <trkpt lat="43.66672" lon="6.19427">
        <ele>736.1</ele>
        <time>2023-10-09T14:01:34Z</time>
      </trkpt>
      <trkpt lat="43.66672" lon="6.19428">
        <ele>736.2</ele>
        <time>2023-10-09T14:01:35Z</time>
      </trkpt>
      <trkpt lat="43.66671" lon="6.19429">
        <ele>736</ele>
        <time>2023-10-09T14:01:36Z</time>
      </trkpt>
      <trkpt lat="43.6667" lon="6.19429">
        <ele>735.6</ele>
        <time>2023-10-09T14:01:37Z</time>
      </trkpt>
      <trkpt lat="43.6667" lon="6.1943">
        <ele>735.7</ele>
        <time>2023-10-09T14:01:38Z</time>
      </trkpt>
      <trkpt lat="43.6667" lon="6.1943">
        <ele>735.7</ele>
        <time>2023-10-09T14:01:39Z</time>
      </trkpt>
      <trkpt lat="43.66669" lon="6.19431">
        <ele>735.4</ele>
        <time>2023-10-09T14:01:40Z</time>
      </trkpt>
      <trkpt lat="43.66668" lon="6.19432">
        <ele>735.2</ele>
        <time>2023-10-09T14:01:41Z</time>
      </trkpt>
      <trkpt lat="43.66667" lon="6.19433">
        <ele>734.9</ele>
        <time>2023-10-09T14:01:42Z</time>
      </trkpt>
      <trkpt lat="43.66667" lon="6.19434">
        <ele>735</ele>
        <time>2023-10-09T14:01:43Z</time>
      </trkpt>
      <trkpt lat="43.66666" lon="6.19435">
        <ele>734.7</ele>
        <time>2023-10-09T14:01:44Z</time>
      </trkpt>
      <trkpt lat="43.66665" lon="6.19437">
        <ele>734.5</ele>
        <time>2023-10-09T14:01:45Z</time>
      </trkpt>
      <trkpt lat="43.66664" lon="6.19437">
        <ele>734.2</ele>
        <time>2023-10-09T14:01:46Z</time>
      </trkpt>
      <trkpt lat="43.66664" lon="6.19438">
        <ele>734.3</ele>
        <time>2023-10-09T14:01:47Z</time>
      </trkpt>
      <trkpt lat="43.66663" lon="6.19438">
        <ele>733.9</ele>
        <time>2023-10-09T14:01:48Z</time>
      </trkpt>
      <trkpt lat="43.66662" lon="6.19439">
        <ele>733.6</ele>
        <time>2023-10-09T14:01:49Z</time>
      </trkpt>
      <trkpt lat="43.66662" lon="6.19439">
        <ele>733.6</ele>
        <time>2023-10-09T14:01:50Z</time>
      </trkpt>
      <trkpt lat="43.66661" lon="6.1944">
        <ele>733.4</ele>
        <time>2023-10-09T14:01:51Z</time>
      </trkpt>
      <trkpt lat="43.6666" lon="6.19441">
        <ele>733.1</ele>
        <time>2023-10-09T14:01:52Z</time>
      </trkpt>
      <trkpt lat="43.66659" lon="6.19441">
        <ele>732.8</ele>
        <time>2023-10-09T14:01:53Z</time>
      </trkpt>
      <trkpt lat="43.66659" lon="6.19441">
        <ele>732.8</ele>
        <time>2023-10-09T14:01:54Z</time>
      </trkpt>
      <trkpt lat="43.66658" lon="6.19441">
        <ele>732.4</ele>
        <time>2023-10-09T14:01:55Z</time>
      </trkpt>
      <trkpt lat="43.66657" lon="6.19441">
        <ele>732</ele>
        <time>2023-10-09T14:01:56Z</time>
      </trkpt>
      <trkpt lat="43.66657" lon="6.19441">
        <ele>732</ele>
        <time>2023-10-09T14:01:57Z</time>
      </trkpt>
      <trkpt lat="43.66656" lon="6.19442">
        <ele>731.8</ele>
        <time>2023-10-09T14:01:58Z</time>
      </trkpt>
      <trkpt lat="43.66655" lon="6.19443">
        <ele>731.6</ele>
        <time>2023-10-09T14:01:59Z</time>
      </trkpt>
      <trkpt lat="43.66654" lon="6.19443">
        <ele>731.2</ele>
        <time>2023-10-09T14:02:00Z</time>
      </trkpt>
      <trkpt lat="43.66654" lon="6.19444">
        <ele>731.4</ele>
        <time>2023-10-09T14:02:01Z</time>
      </trkpt>
      <trkpt lat="43.66653" lon="6.19444">
        <ele>731</ele>
        <time>2023-10-09T14:02:02Z</time>
      </trkpt>
      <trkpt lat="43.66652" lon="6.19445">
        <ele>730.9</ele>
        <time>2023-10-09T14:02:03Z</time>
      </trkpt>
      <trkpt lat="43.66651" lon="6.19446">
        <ele>730.7</ele>
        <time>2023-10-09T14:02:04Z</time>
      </trkpt>
      <trkpt lat="43.6665" lon="6.19446">
        <ele>730.4</ele>
        <time>2023-10-09T14:02:05Z</time>
      </trkpt>
      <trkpt lat="43.66649" lon="6.19447">
        <ele>730.3</ele>
        <time>2023-10-09T14:02:06Z</time>
      </trkpt>
      <trkpt lat="43.66648" lon="6.19448">
        <ele>730.1</ele>
        <time>2023-10-09T14:02:07Z</time>
      </trkpt>
      <trkpt lat="43.66647" lon="6.19448">
        <ele>729.8</ele>
        <time>2023-10-09T14:02:08Z</time>
      </trkpt>
      <trkpt lat="43.66647" lon="6.19449">
        <ele>730</ele>
        <time>2023-10-09T14:02:09Z</time>
      </trkpt>
      <trkpt lat="43.66646" lon="6.19449">
        <ele>729.7</ele>
        <time>2023-10-09T14:02:10Z</time>
      </trkpt>
      <trkpt lat="43.66645" lon="6.1945">
        <ele>729.6</ele>
        <time>2023-10-09T14:02:11Z</time>
      </trkpt>
      <trkpt lat="43.66644" lon="6.1945">
        <ele>729.2</ele>
        <time>2023-10-09T14:02:12Z</time>
      </trkpt>
      <trkpt lat="43.66644" lon="6.19451">
        <ele>729.4</ele>
        <time>2023-10-09T14:02:13Z</time>
      </trkpt>
      <trkpt lat="43.66643" lon="6.19452">
        <ele>729.3</ele>
        <time>2023-10-09T14:02:14Z</time>
      </trkpt>
      <trkpt lat="43.66642" lon="6.19452">
        <ele>729</ele>
        <time>2023-10-09T14:02:15Z</time>
      </trkpt>
      <trkpt lat="43.66641" lon="6.19453">
        <ele>728.9</ele>
        <time>2023-10-09T14:02:16Z</time>
      </trkpt>
      <trkpt lat="43.6664" lon="6.19453">
        <ele>728.5</ele>
        <time>2023-10-09T14:02:17Z</time>
      </trkpt>
      <trkpt lat="43.66639" lon="6.19454">
        <ele>728.4</ele>
        <time>2023-10-09T14:02:18Z</time>
      </trkpt>
      <trkpt lat="43.66639" lon="6.19454">
        <ele>728.4</ele>
        <time>2023-10-09T14:02:19Z</time>
      </trkpt>
      <trkpt lat="43.66638" lon="6.19454">
        <ele>728.2</ele>
        <time>2023-10-09T14:02:20Z</time>
      </trkpt>
      <trkpt lat="43.66637" lon="6.19455">
        <ele>728.2</ele>
        <time>2023-10-09T14:02:21Z</time>
      </trkpt>
      <trkpt lat="43.66636" lon="6.19456">
        <ele>728.1</ele>
        <time>2023-10-09T14:02:22Z</time>
      </trkpt>
      <trkpt lat="43.66635" lon="6.19457">
        <ele>728.1</ele>
        <time>2023-10-09T14:02:23Z</time>
      </trkpt>
      <trkpt lat="43.66635" lon="6.19458">
        <ele>728.4</ele>
        <time>2023-10-09T14:02:24Z</time>
      </trkpt>
      <trkpt lat="43.66633" lon="6.19458">
        <ele>727.8</ele>
        <time>2023-10-09T14:02:25Z</time>
      </trkpt>
      <trkpt lat="43.66632" lon="6.19459">
        <ele>727.8</ele>
        <time>2023-10-09T14:02:26Z</time>
      </trkpt>
      <trkpt lat="43.66631" lon="6.1946">
        <ele>727.8</ele>
        <time>2023-10-09T14:02:27Z</time>
      </trkpt>
      <trkpt lat="43.6663" lon="6.1946">
        <ele>727.5</ele>
        <time>2023-10-09T14:02:28Z</time>
      </trkpt>
      <trkpt lat="43.66628" lon="6.19461">
        <ele>727.2</ele>
        <time>2023-10-09T14:02:29Z</time>
      </trkpt>
      <trkpt lat="43.66627" lon="6.19461">
        <ele>726.9</ele>
        <time>2023-10-09T14:02:30Z</time>
      </trkpt>
      <trkpt lat="43.66627" lon="6.19462">
        <ele>727.2</ele>
        <time>2023-10-09T14:02:31Z</time>
      </trkpt>
      <trkpt lat="43.66625" lon="6.19463">
        <ele>726.8</ele>
        <time>2023-10-09T14:02:32Z</time>
      </trkpt>
      <trkpt lat="43.66624" lon="6.19463">
        <ele>726.6</ele>
        <time>2023-10-09T14:02:33Z</time>
      </trkpt>
      <trkpt lat="43.66623" lon="6.19464">
        <ele>726.5</ele>
        <time>2023-10-09T14:02:34Z</time>
      </trkpt>
      <trkpt lat="43.66622" lon="6.19464">
        <ele>726.2</ele>
        <time>2023-10-09T14:02:35Z</time>
      </trkpt>
      <trkpt lat="43.66621" lon="6.19464">
        <ele>726</ele>
        <time>2023-10-09T14:02:36Z</time>
      </trkpt>
      <trkpt lat="43.6662" lon="6.19464">
        <ele>725.7</ele>
        <time>2023-10-09T14:02:37Z</time>
      </trkpt>
      <trkpt lat="43.66619" lon="6.19464">
        <ele>725.4</ele>
        <time>2023-10-09T14:02:38Z</time>
      </trkpt>
      <trkpt lat="43.66619" lon="6.19465">
        <ele>725.6</ele>
        <time>2023-10-09T14:02:39Z</time>
      </trkpt>
      <trkpt lat="43.66618" lon="6.19465">
        <ele>725.4</ele>
        <time>2023-10-09T14:02:40Z</time>
      </trkpt>
      <trkpt lat="43.66617" lon="6.19466">
        <ele>725.3</ele>
        <time>2023-10-09T14:02:41Z</time>
      </trkpt>
      <trkpt lat="43.66616" lon="6.19466">
        <ele>725</ele>
        <time>2023-10-09T14:02:42Z</time>
      </trkpt>
      <trkpt lat="43.66615" lon="6.19466">
        <ele>724.7</ele>
        <time>2023-10-09T14:02:43Z</time>
      </trkpt>
      <trkpt lat="43.66614" lon="6.19467">
        <ele>724.7</ele>
        <time>2023-10-09T14:02:44Z</time>
      </trkpt>
      <trkpt lat="43.66613" lon="6.19467">
        <ele>724.4</ele>
        <time>2023-10-09T14:02:45Z</time>
      </trkpt>
      <trkpt lat="43.66612" lon="6.19468">
        <ele>724.3</ele>
        <time>2023-10-09T14:02:46Z</time>
      </trkpt>
      <trkpt lat="43.66612" lon="6.19468">
        <ele>724.3</ele>
        <time>2023-10-09T14:02:47Z</time>
      </trkpt>
      <trkpt lat="43.66611" lon="6.19469">
        <ele>724.3</ele>
        <time>2023-10-09T14:02:48Z</time>
      </trkpt>
      <trkpt lat="43.6661" lon="6.19469">
        <ele>724</ele>
        <time>2023-10-09T14:02:49Z</time>
      </trkpt>
      <trkpt lat="43.6661" lon="6.1947">
        <ele>724.2</ele>
        <time>2023-10-09T14:02:50Z</time>
      </trkpt>
      <trkpt lat="43.66609" lon="6.1947">
        <ele>724</ele>
        <time>2023-10-09T14:02:51Z</time>
      </trkpt>
      <trkpt lat="43.66608" lon="6.19471">
        <ele>724</ele>
        <time>2023-10-09T14:02:52Z</time>
      </trkpt>
      <trkpt lat="43.66607" lon="6.19472">
        <ele>723.9</ele>
        <time>2023-10-09T14:02:53Z</time>
      </trkpt>
      <trkpt lat="43.66606" lon="6.19472">
        <ele>723.7</ele>
        <time>2023-10-09T14:02:54Z</time>
      </trkpt>
      <trkpt lat="43.66605" lon="6.19472">
        <ele>723.4</ele>
        <time>2023-10-09T14:02:55Z</time>
      </trkpt>
      <trkpt lat="43.66604" lon="6.19473">
        <ele>723.4</ele>
        <time>2023-10-09T14:02:56Z</time>
      </trkpt>
      <trkpt lat="43.66603" lon="6.19473">
        <ele>723.1</ele>
        <time>2023-10-09T14:02:57Z</time>
      </trkpt>
      <trkpt lat="43.66602" lon="6.19473">
        <ele>722.9</ele>
        <time>2023-10-09T14:02:58Z</time>
      </trkpt>
      <trkpt lat="43.66601" lon="6.19474">
        <ele>722.8</ele>
        <time>2023-10-09T14:02:59Z</time>
      </trkpt>
      <trkpt lat="43.666" lon="6.19474">
        <ele>722.5</ele>
        <time>2023-10-09T14:03:00Z</time>
      </trkpt>
      <trkpt lat="43.666" lon="6.19475">
        <ele>722.7</ele>
        <time>2023-10-09T14:03:01Z</time>
      </trkpt>
      <trkpt lat="43.66599" lon="6.19476">
        <ele>722.6</ele>
        <time>2023-10-09T14:03:02Z</time>
      </trkpt>
      <trkpt lat="43.66598" lon="6.19476">
        <ele>722.4</ele>
        <time>2023-10-09T14:03:03Z</time>
      </trkpt>
      <trkpt lat="43.66597" lon="6.19477">
        <ele>722.3</ele>
        <time>2023-10-09T14:03:04Z</time>
      </trkpt>
      <trkpt lat="43.66596" lon="6.19477">
        <ele>722</ele>
        <time>2023-10-09T14:03:05Z</time>
      </trkpt>
      <trkpt lat="43.66595" lon="6.19478">
        <ele>721.9</ele>
        <time>2023-10-09T14:03:06Z</time>
      </trkpt>
      <trkpt lat="43.66594" lon="6.19478">
        <ele>721.7</ele>
        <time>2023-10-09T14:03:07Z</time>
      </trkpt>
      <trkpt lat="43.66593" lon="6.19479">
        <ele>721.6</ele>
        <time>2023-10-09T14:03:08Z</time>
      </trkpt>
      <trkpt lat="43.66592" lon="6.19479">
        <ele>721.3</ele>
        <time>2023-10-09T14:03:09Z</time>
      </trkpt>
      <trkpt lat="43.66591" lon="6.19479">
        <ele>721</ele>
        <time>2023-10-09T14:03:10Z</time>
      </trkpt>
      <trkpt lat="43.6659" lon="6.19479">
        <ele>720.8</ele>
        <time>2023-10-09T14:03:11Z</time>
      </trkpt>
      <trkpt lat="43.66589" lon="6.19479">
        <ele>720.5</ele>
        <time>2023-10-09T14:03:12Z</time>
      </trkpt>
      <trkpt lat="43.66588" lon="6.19479">
        <ele>720.2</ele>
        <time>2023-10-09T14:03:13Z</time>
      </trkpt>
      <trkpt lat="43.66588" lon="6.19479">
        <ele>720.2</ele>
        <time>2023-10-09T14:03:14Z</time>
      </trkpt>
      <trkpt lat="43.66587" lon="6.19479">
        <ele>720</ele>
        <time>2023-10-09T14:03:15Z</time>
      </trkpt>
      <trkpt lat="43.66587" lon="6.19479">
        <ele>720</ele>
        <time>2023-10-09T14:03:16Z</time>
      </trkpt>
      <trkpt lat="43.66586" lon="6.1948">
        <ele>719.8</ele>
        <time>2023-10-09T14:03:17Z</time>
      </trkpt>
      <trkpt lat="43.66586" lon="6.1948">
        <ele>719.8</ele>
        <time>2023-10-09T14:03:18Z</time>
      </trkpt>
      <trkpt lat="43.66585" lon="6.1948">
        <ele>719.6</ele>
        <time>2023-10-09T14:03:19Z</time>
      </trkpt>
      <trkpt lat="43.66585" lon="6.1948">
        <ele>719.6</ele>
        <time>2023-10-09T14:03:20Z</time>
      </trkpt>
      <trkpt lat="43.66584" lon="6.19481">
        <ele>719.4</ele>
        <time>2023-10-09T14:03:21Z</time>
      </trkpt>
      <trkpt lat="43.66583" lon="6.19481">
        <ele>719.2</ele>
        <time>2023-10-09T14:03:22Z</time>
      </trkpt>
      <trkpt lat="43.66582" lon="6.19482">
        <ele>719</ele>
        <time>2023-10-09T14:03:23Z</time>
      </trkpt>
      <trkpt lat="43.66582" lon="6.19482">
        <ele>719</ele>
        <time>2023-10-09T14:03:24Z</time>
      </trkpt>
      <trkpt lat="43.66581" lon="6.19483">
        <ele>718.9</ele>
        <time>2023-10-09T14:03:25Z</time>
      </trkpt>
      <trkpt lat="43.6658" lon="6.19484">
        <ele>718.8</ele>
        <time>2023-10-09T14:03:26Z</time>
      </trkpt>
      <trkpt lat="43.66579" lon="6.19484">
        <ele>718.5</ele>
        <time>2023-10-09T14:03:27Z</time>
      </trkpt>
      <trkpt lat="43.66578" lon="6.19485">
        <ele>718.3</ele>
        <time>2023-10-09T14:03:28Z</time>
      </trkpt>
      <trkpt lat="43.66577" lon="6.19486">
        <ele>718.2</ele>
        <time>2023-10-09T14:03:29Z</time>
      </trkpt>
      <trkpt lat="43.66576" lon="6.19487">
        <ele>718</ele>
        <time>2023-10-09T14:03:30Z</time>
      </trkpt>
      <trkpt lat="43.66575" lon="6.19488">
        <ele>717.8</ele>
        <time>2023-10-09T14:03:31Z</time>
      </trkpt>
      <trkpt lat="43.66574" lon="6.1949">
        <ele>717.8</ele>
        <time>2023-10-09T14:03:32Z</time>
      </trkpt>
      <trkpt lat="43.66573" lon="6.19491">
        <ele>717.6</ele>
        <time>2023-10-09T14:03:33Z</time>
      </trkpt>
      <trkpt lat="43.66572" lon="6.19493">
        <ele>717.5</ele>
        <time>2023-10-09T14:03:34Z</time>
      </trkpt>
      <trkpt lat="43.66572" lon="6.19494">
        <ele>717.6</ele>
        <time>2023-10-09T14:03:35Z</time>
      </trkpt>
      <trkpt lat="43.66571" lon="6.19496">
        <ele>717.6</ele>
        <time>2023-10-09T14:03:36Z</time>
      </trkpt>
      <trkpt lat="43.6657" lon="6.19498">
        <ele>717.5</ele>
        <time>2023-10-09T14:03:37Z</time>
      </trkpt>
      <trkpt lat="43.66569" lon="6.19499">
        <ele>717.2</ele>
        <time>2023-10-09T14:03:38Z</time>
      </trkpt>
      <trkpt lat="43.66569" lon="6.195">
        <ele>717.4</ele>
        <time>2023-10-09T14:03:39Z</time>
      </trkpt>
      <trkpt lat="43.66568" lon="6.19501">
        <ele>717.1</ele>
        <time>2023-10-09T14:03:40Z</time>
      </trkpt>
      <trkpt lat="43.66567" lon="6.19502">
        <ele>716.8</ele>
        <time>2023-10-09T14:03:41Z</time>
      </trkpt>
      <trkpt lat="43.66567" lon="6.19503">
        <ele>716.8</ele>
        <time>2023-10-09T14:03:42Z</time>
      </trkpt>
      <trkpt lat="43.66566" lon="6.19504">
        <ele>716.5</ele>
        <time>2023-10-09T14:03:43Z</time>
      </trkpt>
      <trkpt lat="43.66565" lon="6.19505">
        <ele>716.2</ele>
        <time>2023-10-09T14:03:44Z</time>
      </trkpt>
      <trkpt lat="43.66564" lon="6.19506">
        <ele>715.9</ele>
        <time>2023-10-09T14:03:45Z</time>
      </trkpt>
      <trkpt lat="43.66563" lon="6.19507">
        <ele>715.6</ele>
        <time>2023-10-09T14:03:46Z</time>
      </trkpt>
      <trkpt lat="43.66562" lon="6.19508">
        <ele>715.3</ele>
        <time>2023-10-09T14:03:47Z</time>
      </trkpt>
      <trkpt lat="43.66562" lon="6.19509">
        <ele>715.3</ele>
        <time>2023-10-09T14:03:48Z</time>
      </trkpt>
      <trkpt lat="43.66561" lon="6.19509">
        <ele>715</ele>
        <time>2023-10-09T14:03:49Z</time>
      </trkpt>
      <trkpt lat="43.66561" lon="6.1951">
        <ele>715</ele>
        <time>2023-10-09T14:03:50Z</time>
      </trkpt>
      <trkpt lat="43.66561" lon="6.1951">
        <ele>715</ele>
        <time>2023-10-09T14:03:51Z</time>
      </trkpt>
      <trkpt lat="43.6656" lon="6.19511">
        <ele>714.6</ele>
        <time>2023-10-09T14:03:52Z</time>
      </trkpt>
      <trkpt lat="43.66561" lon="6.19512">
        <ele>715</ele>
        <time>2023-10-09T14:03:53Z</time>
      </trkpt>
      <trkpt lat="43.6656" lon="6.19513">
        <ele>714.7</ele>
        <time>2023-10-09T14:03:54Z</time>
      </trkpt>
      <trkpt lat="43.6656" lon="6.19514">
        <ele>714.7</ele>
        <time>2023-10-09T14:03:55Z</time>
      </trkpt>
      <trkpt lat="43.6656" lon="6.19515">
        <ele>714.7</ele>
        <time>2023-10-09T14:03:56Z</time>
      </trkpt>
      <trkpt lat="43.6656" lon="6.19517">
        <ele>714.7</ele>
        <time>2023-10-09T14:03:57Z</time>
      </trkpt>
      <trkpt lat="43.66559" lon="6.19518">
        <ele>714.4</ele>
        <time>2023-10-09T14:03:58Z</time>
      </trkpt>
      <trkpt lat="43.66559" lon="6.19519">
        <ele>714.4</ele>
        <time>2023-10-09T14:03:59Z</time>
      </trkpt>
      <trkpt lat="43.66558" lon="6.19521">
        <ele>714</ele>
        <time>2023-10-09T14:04:00Z</time>
      </trkpt>
      <trkpt lat="43.66557" lon="6.19522">
        <ele>713.6</ele>
        <time>2023-10-09T14:04:01Z</time>
      </trkpt>
      <trkpt lat="43.66557" lon="6.19523">
        <ele>713.6</ele>
        <time>2023-10-09T14:04:02Z</time>
      </trkpt>
      <trkpt lat="43.66557" lon="6.19524">
        <ele>713.6</ele>
        <time>2023-10-09T14:04:03Z</time>
      </trkpt>
      <trkpt lat="43.66556" lon="6.19525">
        <ele>713.2</ele>
        <time>2023-10-09T14:04:04Z</time>
      </trkpt>
      <trkpt lat="43.66555" lon="6.19526">
        <ele>712.8</ele>
        <time>2023-10-09T14:04:05Z</time>
      </trkpt>
      <trkpt lat="43.66555" lon="6.19527">
        <ele>712.8</ele>
        <time>2023-10-09T14:04:06Z</time>
      </trkpt>
      <trkpt lat="43.66555" lon="6.19529">
        <ele>712.8</ele>
        <time>2023-10-09T14:04:07Z</time>
      </trkpt>
      <trkpt lat="43.66554" lon="6.1953">
        <ele>712.5</ele>
        <time>2023-10-09T14:04:08Z</time>
      </trkpt>
      <trkpt lat="43.66554" lon="6.19531">
        <ele>712.5</ele>
        <time>2023-10-09T14:04:09Z</time>
      </trkpt>
      <trkpt lat="43.66554" lon="6.19533">
        <ele>712.5</ele>
        <time>2023-10-09T14:04:10Z</time>
      </trkpt>
      <trkpt lat="43.66554" lon="6.19534">
        <ele>712.5</ele>
        <time>2023-10-09T14:04:11Z</time>
      </trkpt>
      <trkpt lat="43.66553" lon="6.19535">
        <ele>712.3</ele>
        <time>2023-10-09T14:04:12Z</time>
      </trkpt>
      <trkpt lat="43.66553" lon="6.19536">
        <ele>712.3</ele>
        <time>2023-10-09T14:04:13Z</time>
      </trkpt>
      <trkpt lat="43.66552" lon="6.19537">
        <ele>712</ele>
        <time>2023-10-09T14:04:14Z</time>
      </trkpt>
      <trkpt lat="43.66551" lon="6.19538">
        <ele>711.8</ele>
        <time>2023-10-09T14:04:15Z</time>
      </trkpt>
      <trkpt lat="43.66551" lon="6.19538">
        <ele>711.8</ele>
        <time>2023-10-09T14:04:16Z</time>
      </trkpt>
      <trkpt lat="43.6655" lon="6.19539">
        <ele>711.5</ele>
        <time>2023-10-09T14:04:17Z</time>
      </trkpt>
      <trkpt lat="43.66549" lon="6.1954">
        <ele>711.3</ele>
        <time>2023-10-09T14:04:18Z</time>
      </trkpt>
      <trkpt lat="43.66549" lon="6.19541">
        <ele>711.3</ele>
        <time>2023-10-09T14:04:19Z</time>
      </trkpt>
      <trkpt lat="43.66548" lon="6.19542">
        <ele>711.1</ele>
        <time>2023-10-09T14:04:20Z</time>
      </trkpt>
      <trkpt lat="43.66548" lon="6.19543">
        <ele>711.1</ele>
        <time>2023-10-09T14:04:21Z</time>
      </trkpt>
      <trkpt lat="43.66547" lon="6.19544">
        <ele>710.9</ele>
        <time>2023-10-09T14:04:22Z</time>
      </trkpt>
      <trkpt lat="43.66546" lon="6.19545">
        <ele>710.8</ele>
        <time>2023-10-09T14:04:23Z</time>
      </trkpt>
      <trkpt lat="43.66546" lon="6.19546">
        <ele>710.8</ele>
        <time>2023-10-09T14:04:24Z</time>
      </trkpt>
      <trkpt lat="43.66545" lon="6.19546">
        <ele>710.6</ele>
        <time>2023-10-09T14:04:25Z</time>
      </trkpt>
      <trkpt lat="43.66544" lon="6.19546">
        <ele>710.3</ele>
        <time>2023-10-09T14:04:26Z</time>
      </trkpt>
      <trkpt lat="43.66544" lon="6.19546">
        <ele>710.3</ele>
        <time>2023-10-09T14:04:27Z</time>
      </trkpt>
      <trkpt lat="43.66543" lon="6.19545">
        <ele>710.1</ele>
        <time>2023-10-09T14:04:28Z</time>
      </trkpt>
      <trkpt lat="43.66542" lon="6.19545">
        <ele>709.8</ele>
        <time>2023-10-09T14:04:29Z</time>
      </trkpt>
      <trkpt lat="43.66542" lon="6.19545">
        <ele>709.8</ele>
        <time>2023-10-09T14:04:30Z</time>
      </trkpt>
      <trkpt lat="43.66541" lon="6.19544">
        <ele>709.5</ele>
        <time>2023-10-09T14:04:31Z</time>
      </trkpt>
      <trkpt lat="43.6654" lon="6.19544">
        <ele>709.3</ele>
        <time>2023-10-09T14:04:32Z</time>
      </trkpt>
      <trkpt lat="43.66539" lon="6.19544">
        <ele>709</ele>
        <time>2023-10-09T14:04:33Z</time>
      </trkpt>
      <trkpt lat="43.66539" lon="6.19544">
        <ele>709</ele>
        <time>2023-10-09T14:04:34Z</time>
      </trkpt>
      <trkpt lat="43.66538" lon="6.19543">
        <ele>708.7</ele>
        <time>2023-10-09T14:04:35Z</time>
      </trkpt>
      <trkpt lat="43.66537" lon="6.19543">
        <ele>708.5</ele>
        <time>2023-10-09T14:04:36Z</time>
      </trkpt>
      <trkpt lat="43.66537" lon="6.19543">
        <ele>708.5</ele>
        <time>2023-10-09T14:04:37Z</time>
      </trkpt>
      <trkpt lat="43.66536" lon="6.19543">
        <ele>708.2</ele>
        <time>2023-10-09T14:04:38Z</time>
      </trkpt>
      <trkpt lat="43.66535" lon="6.19543">
        <ele>708</ele>
        <time>2023-10-09T14:04:39Z</time>
      </trkpt>
      <trkpt lat="43.66534" lon="6.19542">
        <ele>707.6</ele>
        <time>2023-10-09T14:04:40Z</time>
      </trkpt>
      <trkpt lat="43.66533" lon="6.19542">
        <ele>707.4</ele>
        <time>2023-10-09T14:04:41Z</time>
      </trkpt>
      <trkpt lat="43.66531" lon="6.19542">
        <ele>706.9</ele>
        <time>2023-10-09T14:04:42Z</time>
      </trkpt>
      <trkpt lat="43.66531" lon="6.19542">
        <ele>706.9</ele>
        <time>2023-10-09T14:04:43Z</time>
      </trkpt>
      <trkpt lat="43.6653" lon="6.19542">
        <ele>706.6</ele>
        <time>2023-10-09T14:04:44Z</time>
      </trkpt>
      <trkpt lat="43.66529" lon="6.19541">
        <ele>706.2</ele>
        <time>2023-10-09T14:04:45Z</time>
      </trkpt>
      <trkpt lat="43.66528" lon="6.19541">
        <ele>706</ele>
        <time>2023-10-09T14:04:46Z</time>
      </trkpt>
      <trkpt lat="43.66527" lon="6.1954">
        <ele>705.7</ele>
        <time>2023-10-09T14:04:47Z</time>
      </trkpt>
      <trkpt lat="43.66526" lon="6.19539">
        <ele>705.4</ele>
        <time>2023-10-09T14:04:48Z</time>
      </trkpt>
      <trkpt lat="43.66526" lon="6.19538">
        <ele>705.3</ele>
        <time>2023-10-09T14:04:49Z</time>
      </trkpt>
      <trkpt lat="43.66525" lon="6.19537">
        <ele>705.1</ele>
        <time>2023-10-09T14:04:50Z</time>
      </trkpt>
      <trkpt lat="43.66525" lon="6.19537">
        <ele>705.1</ele>
        <time>2023-10-09T14:04:51Z</time>
      </trkpt>
      <trkpt lat="43.66524" lon="6.19536">
        <ele>704.8</ele>
        <time>2023-10-09T14:04:52Z</time>
      </trkpt>
      <trkpt lat="43.66524" lon="6.19535">
        <ele>704.7</ele>
        <time>2023-10-09T14:04:53Z</time>
      </trkpt>
      <trkpt lat="43.66524" lon="6.19534">
        <ele>704.5</ele>
        <time>2023-10-09T14:04:54Z</time>
      </trkpt>
      <trkpt lat="43.66523" lon="6.19533">
        <ele>704.3</ele>
        <time>2023-10-09T14:04:55Z</time>
      </trkpt>
      <trkpt lat="43.66523" lon="6.19532">
        <ele>704.1</ele>
        <time>2023-10-09T14:04:56Z</time>
      </trkpt>
      <trkpt lat="43.66522" lon="6.19531">
        <ele>703.9</ele>
        <time>2023-10-09T14:04:57Z</time>
      </trkpt>
      <trkpt lat="43.66522" lon="6.19531">
        <ele>703.9</ele>
        <time>2023-10-09T14:04:58Z</time>
      </trkpt>
      <trkpt lat="43.66521" lon="6.1953">
        <ele>703.6</ele>
        <time>2023-10-09T14:04:59Z</time>
      </trkpt>
      <trkpt lat="43.66519" lon="6.19529">
        <ele>703.2</ele>
        <time>2023-10-09T14:05:00Z</time>
      </trkpt>
      <trkpt lat="43.66519" lon="6.19528">
        <ele>703.1</ele>
        <time>2023-10-09T14:05:01Z</time>
      </trkpt>
      <trkpt lat="43.66518" lon="6.19528">
        <ele>703</ele>
        <time>2023-10-09T14:05:02Z</time>
      </trkpt>
      <trkpt lat="43.66518" lon="6.19527">
        <ele>702.9</ele>
        <time>2023-10-09T14:05:03Z</time>
      </trkpt>
      <trkpt lat="43.66517" lon="6.19526">
        <ele>702.8</ele>
        <time>2023-10-09T14:05:04Z</time>
      </trkpt>
      <trkpt lat="43.66516" lon="6.19526">
        <ele>702.6</ele>
        <time>2023-10-09T14:05:05Z</time>
      </trkpt>
      <trkpt lat="43.66515" lon="6.19525">
        <ele>702.5</ele>
        <time>2023-10-09T14:05:06Z</time>
      </trkpt>
      <trkpt lat="43.66514" lon="6.19524">
        <ele>702.3</ele>
        <time>2023-10-09T14:05:07Z</time>
      </trkpt>
      <trkpt lat="43.66513" lon="6.19524">
        <ele>702.2</ele>
        <time>2023-10-09T14:05:08Z</time>
      </trkpt>
      <trkpt lat="43.66513" lon="6.19524">
        <ele>702.2</ele>
        <time>2023-10-09T14:05:09Z</time>
      </trkpt>
      <trkpt lat="43.66512" lon="6.19523">
        <ele>702</ele>
        <time>2023-10-09T14:05:10Z</time>
      </trkpt>
      <trkpt lat="43.66511" lon="6.19523">
        <ele>701.9</ele>
        <time>2023-10-09T14:05:11Z</time>
      </trkpt>
      <trkpt lat="43.6651" lon="6.19522">
        <ele>701.7</ele>
        <time>2023-10-09T14:05:12Z</time>
      </trkpt>
      <trkpt lat="43.6651" lon="6.19522">
        <ele>701.7</ele>
        <time>2023-10-09T14:05:13Z</time>
      </trkpt>
      <trkpt lat="43.66509" lon="6.19521">
        <ele>701.5</ele>
        <time>2023-10-09T14:05:14Z</time>
      </trkpt>
      <trkpt lat="43.66508" lon="6.19521">
        <ele>701.3</ele>
        <time>2023-10-09T14:05:15Z</time>
      </trkpt>
      <trkpt lat="43.66507" lon="6.19521">
        <ele>701.2</ele>
        <time>2023-10-09T14:05:16Z</time>
      </trkpt>
      <trkpt lat="43.66505" lon="6.1952">
        <ele>700.9</ele>
        <time>2023-10-09T14:05:18Z</time>
      </trkpt>
      <trkpt lat="43.66504" lon="6.1952">
        <ele>700.7</ele>
        <time>2023-10-09T14:05:19Z</time>
      </trkpt>
      <trkpt lat="43.66503" lon="6.1952">
        <ele>700.6</ele>
        <time>2023-10-09T14:05:20Z</time>
      </trkpt>
      <trkpt lat="43.66503" lon="6.1952">
        <ele>700.6</ele>
        <time>2023-10-09T14:05:21Z</time>
      </trkpt>
      <trkpt lat="43.66503" lon="6.1952">
        <ele>700.6</ele>
        <time>2023-10-09T14:05:22Z</time>
      </trkpt>
      <trkpt lat="43.66503" lon="6.1952">
        <ele>700.6</ele>
        <time>2023-10-09T14:05:23Z</time>
      </trkpt>
      <trkpt lat="43.66503" lon="6.1952">
        <ele>700.6</ele>
        <time>2023-10-09T14:05:24Z</time>
      </trkpt>
      <trkpt lat="43.66503" lon="6.1952">
        <ele>700.6</ele>
        <time>2023-10-09T14:05:25Z</time>
      </trkpt>
      <trkpt lat="43.66503" lon="6.1952">
        <ele>700.6</ele>
        <time>2023-10-09T14:05:26Z</time>
      </trkpt>
      <trkpt lat="43.66503" lon="6.1952">
        <ele>700.6</ele>
        <time>2023-10-09T14:05:27Z</time>
      </trkpt>
      <trkpt lat="43.66503" lon="6.1952">
        <ele>700.6</ele>
        <time>2023-10-09T14:05:28Z</time>
      </trkpt>
      <trkpt lat="43.66503" lon="6.1952">
        <ele>700.6</ele>
        <time>2023-10-09T14:05:29Z</time>
      </trkpt>
      <trkpt lat="43.66503" lon="6.1952">
        <ele>700.6</ele>
        <time>2023-10-09T14:05:30Z</time>
      </trkpt>
      <trkpt lat="43.66503" lon="6.19521">
        <ele>700.7</ele>
        <time>2023-10-09T14:05:31Z</time>
      </trkpt>
      <trkpt lat="43.66503" lon="6.19521">
        <ele>700.7</ele>
        <time>2023-10-09T14:05:32Z</time>
      </trkpt>
      <trkpt lat="43.66503" lon="6.19521">
        <ele>700.7</ele>
        <time>2023-10-09T14:05:33Z</time>
      </trkpt>
      <trkpt lat="43.66503" lon="6.19521">
        <ele>700.7</ele>
        <time>2023-10-09T14:05:34Z</time>
      </trkpt>
      <trkpt lat="43.66503" lon="6.19521">
        <ele>700.7</ele>
        <time>2023-10-09T14:05:35Z</time>
      </trkpt>
      <trkpt lat="43.66503" lon="6.19521">
        <ele>700.7</ele>
        <time>2023-10-09T14:05:36Z</time>
      </trkpt>
      <trkpt lat="43.66503" lon="6.19521">
        <ele>700.7</ele>
        <time>2023-10-09T14:05:37Z</time>
      </trkpt>
      <trkpt lat="43.66503" lon="6.19521">
        <ele>700.7</ele>
        <time>2023-10-09T14:05:38Z</time>
      </trkpt>
      <trkpt lat="43.66503" lon="6.19521">
        <ele>700.7</ele>
        <time>2023-10-09T14:05:39Z</time>
      </trkpt>
      <trkpt lat="43.66503" lon="6.19521">
        <ele>700.7</ele>
        <time>2023-10-09T14:05:40Z</time>
      </trkpt>
      <trkpt lat="43.66503" lon="6.19521">
        <ele>700.7</ele>
        <time>2023-10-09T14:05:41Z</time>
      </trkpt>
      <trkpt lat="43.66503" lon="6.19521">
        <ele>700.7</ele>
        <time>2023-10-09T14:05:42Z</time>
      </trkpt>
      <trkpt lat="43.66503" lon="6.19521">
        <ele>700.7</ele>
        <time>2023-10-09T14:05:43Z</time>
      </trkpt>
      <trkpt lat="43.66503" lon="6.19521">
        <ele>700.7</ele>
        <time>2023-10-09T14:05:44Z</time>
      </trkpt>
      <trkpt lat="43.66503" lon="6.19521">
        <ele>700.7</ele>
        <time>2023-10-09T14:05:45Z</time>
      </trkpt>
      <trkpt lat="43.66503" lon="6.19521">
        <ele>700.7</ele>
        <time>2023-10-09T14:05:46Z</time>
      </trkpt>
      <trkpt lat="43.66503" lon="6.19521">
        <ele>700.7</ele>
        <time>2023-10-09T14:05:47Z</time>
      </trkpt>
      <trkpt lat="43.66502" lon="6.19521">
        <ele>700.5</ele>
        <time>2023-10-09T14:05:48Z</time>
      </trkpt>
      <trkpt lat="43.66502" lon="6.19521">
        <ele>700.5</ele>
        <time>2023-10-09T14:05:49Z</time>
      </trkpt>
      <trkpt lat="43.66502" lon="6.19521">
        <ele>700.5</ele>
        <time>2023-10-09T14:05:50Z</time>
      </trkpt>
      <trkpt lat="43.66502" lon="6.19521">
        <ele>700.5</ele>
        <time>2023-10-09T14:05:51Z</time>
      </trkpt>
      <trkpt lat="43.66502" lon="6.19521">
        <ele>700.5</ele>
        <time>2023-10-09T14:05:52Z</time>
      </trkpt>
      <trkpt lat="43.66502" lon="6.19521">
        <ele>700.5</ele>
        <time>2023-10-09T14:05:53Z</time>
      </trkpt>
      <trkpt lat="43.66502" lon="6.19521">
        <ele>700.5</ele>
        <time>2023-10-09T14:05:54Z</time>
      </trkpt>
      <trkpt lat="43.66502" lon="6.19521">
        <ele>700.5</ele>
        <time>2023-10-09T14:05:55Z</time>
      </trkpt>
      <trkpt lat="43.66502" lon="6.19521">
        <ele>700.5</ele>
        <time>2023-10-09T14:05:56Z</time>
      </trkpt>
      <trkpt lat="43.66502" lon="6.19521">
        <ele>700.5</ele>
        <time>2023-10-09T14:05:57Z</time>
      </trkpt>
      <trkpt lat="43.66502" lon="6.19521">
        <ele>700.5</ele>
        <time>2023-10-09T14:05:58Z</time>
      </trkpt>
      <trkpt lat="43.66502" lon="6.19522">
        <ele>700.6</ele>
        <time>2023-10-09T14:05:59Z</time>
      </trkpt>
      <trkpt lat="43.66502" lon="6.19522">
        <ele>700.6</ele>
        <time>2023-10-09T14:06:00Z</time>
      </trkpt>
      <trkpt lat="43.66502" lon="6.19522">
        <ele>700.6</ele>
        <time>2023-10-09T14:06:01Z</time>
      </trkpt>
      <trkpt lat="43.66502" lon="6.19522">
        <ele>700.6</ele>
        <time>2023-10-09T14:06:02Z</time>
      </trkpt>
      <trkpt lat="43.66502" lon="6.19522">
        <ele>700.6</ele>
        <time>2023-10-09T14:06:03Z</time>
      </trkpt>
      <trkpt lat="43.66502" lon="6.19522">
        <ele>700.6</ele>
        <time>2023-10-09T14:06:04Z</time>
      </trkpt>
      <trkpt lat="43.66502" lon="6.19522">
        <ele>700.6</ele>
        <time>2023-10-09T14:06:05Z</time>
      </trkpt>
      <trkpt lat="43.66502" lon="6.19522">
        <ele>700.6</ele>
        <time>2023-10-09T14:06:06Z</time>
      </trkpt>
      <trkpt lat="43.66502" lon="6.19522">
        <ele>700.6</ele>
        <time>2023-10-09T14:06:07Z</time>
      </trkpt>
      <trkpt lat="43.66502" lon="6.19522">
        <ele>700.6</ele>
        <time>2023-10-09T14:06:08Z</time>
      </trkpt>
      <trkpt lat="43.66502" lon="6.19522">
        <ele>700.6</ele>
        <time>2023-10-09T14:06:09Z</time>
      </trkpt>
      <trkpt lat="43.66502" lon="6.19522">
        <ele>700.6</ele>
        <time>2023-10-09T14:06:10Z</time>
      </trkpt>
      <trkpt lat="43.66502" lon="6.19522">
        <ele>700.6</ele>
        <time>2023-10-09T14:06:11Z</time>
      </trkpt>
      <trkpt lat="43.66502" lon="6.19522">
        <ele>700.6</ele>
        <time>2023-10-09T14:06:12Z</time>
      </trkpt>
      <trkpt lat="43.66502" lon="6.19522">
        <ele>700.6</ele>
        <time>2023-10-09T14:06:13Z</time>
      </trkpt>
      <trkpt lat="43.66502" lon="6.19522">
        <ele>700.6</ele>
        <time>2023-10-09T14:06:14Z</time>
      </trkpt>
      <trkpt lat="43.66502" lon="6.19522">
        <ele>700.6</ele>
        <time>2023-10-09T14:06:15Z</time>
      </trkpt>
      <trkpt lat="43.66502" lon="6.19522">
        <ele>700.6</ele>
        <time>2023-10-09T14:06:16Z</time>
      </trkpt>
      <trkpt lat="43.66502" lon="6.19522">
        <ele>700.6</ele>
        <time>2023-10-09T14:06:17Z</time>
      </trkpt>
      <trkpt lat="43.66502" lon="6.19522">
        <ele>700.6</ele>
        <time>2023-10-09T14:06:18Z</time>
      </trkpt>
      <trkpt lat="43.66502" lon="6.19522">
        <ele>700.6</ele>
        <time>2023-10-09T14:06:19Z</time>
      </trkpt>
      <trkpt lat="43.66502" lon="6.19522">
        <ele>700.6</ele>
        <time>2023-10-09T14:06:20Z</time>
      </trkpt>
      <trkpt lat="43.66502" lon="6.19522">
        <ele>700.6</ele>
        <time>2023-10-09T14:06:21Z</time>
      </trkpt>
      <trkpt lat="43.66502" lon="6.19522">
        <ele>700.6</ele>
        <time>2023-10-09T14:06:22Z</time>
      </trkpt>
      <trkpt lat="43.66502" lon="6.19522">
        <ele>700.6</ele>
        <time>2023-10-09T14:06:23Z</time>
      </trkpt>
      <trkpt lat="43.66502" lon="6.19522">
        <ele>700.6</ele>
        <time>2023-10-09T14:06:24Z</time>
      </trkpt>
      <trkpt lat="43.66502" lon="6.19522">
        <ele>700.6</ele>
        <time>2023-10-09T14:06:25Z</time>
      </trkpt>
      <trkpt lat="43.66502" lon="6.19522">
        <ele>700.6</ele>
        <time>2023-10-09T14:06:26Z</time>
      </trkpt>
      <trkpt lat="43.66502" lon="6.19522">
        <ele>700.6</ele>
        <time>2023-10-09T14:06:27Z</time>
      </trkpt>
      <trkpt lat="43.66502" lon="6.19523">
        <ele>700.7</ele>
        <time>2023-10-09T14:06:28Z</time>
      </trkpt>
      <trkpt lat="43.66502" lon="6.19523">
        <ele>700.7</ele>
        <time>2023-10-09T14:06:29Z</time>
      </trkpt>
      <trkpt lat="43.66502" lon="6.19523">
        <ele>700.7</ele>
        <time>2023-10-09T14:06:30Z</time>
      </trkpt>
      <trkpt lat="43.66502" lon="6.19523">
        <ele>700.7</ele>
        <time>2023-10-09T14:06:31Z</time>
      </trkpt>
      <trkpt lat="43.66501" lon="6.19523">
        <ele>700.6</ele>
        <time>2023-10-09T14:06:32Z</time>
      </trkpt>
      <trkpt lat="43.66501" lon="6.19523">
        <ele>700.6</ele>
        <time>2023-10-09T14:06:33Z</time>
      </trkpt>
      <trkpt lat="43.66501" lon="6.19523">
        <ele>700.6</ele>
        <time>2023-10-09T14:06:34Z</time>
      </trkpt>
      <trkpt lat="43.66501" lon="6.19523">
        <ele>700.6</ele>
        <time>2023-10-09T14:06:35Z</time>
      </trkpt>
      <trkpt lat="43.66501" lon="6.19523">
        <ele>700.6</ele>
        <time>2023-10-09T14:06:36Z</time>
      </trkpt>
      <trkpt lat="43.66501" lon="6.19523">
        <ele>700.6</ele>
        <time>2023-10-09T14:06:37Z</time>
      </trkpt>
      <trkpt lat="43.66501" lon="6.19523">
        <ele>700.6</ele>
        <time>2023-10-09T14:06:38Z</time>
      </trkpt>
      <trkpt lat="43.66501" lon="6.19523">
        <ele>700.6</ele>
        <time>2023-10-09T14:06:39Z</time>
      </trkpt>
      <trkpt lat="43.66501" lon="6.19523">
        <ele>700.6</ele>
        <time>2023-10-09T14:06:40Z</time>
      </trkpt>
      <trkpt lat="43.66501" lon="6.19523">
        <ele>700.6</ele>
        <time>2023-10-09T14:06:41Z</time>
      </trkpt>
      <trkpt lat="43.66501" lon="6.19523">
        <ele>700.6</ele>
        <time>2023-10-09T14:06:42Z</time>
      </trkpt>
      <trkpt lat="43.66501" lon="6.19523">
        <ele>700.6</ele>
        <time>2023-10-09T14:06:43Z</time>
      </trkpt>
      <trkpt lat="43.66501" lon="6.19523">
        <ele>700.6</ele>
        <time>2023-10-09T14:06:44Z</time>
      </trkpt>
      <trkpt lat="43.66501" lon="6.19523">
        <ele>700.6</ele>
        <time>2023-10-09T14:06:45Z</time>
      </trkpt>
      <trkpt lat="43.66501" lon="6.19523">
        <ele>700.6</ele>
        <time>2023-10-09T14:06:46Z</time>
      </trkpt>
      <trkpt lat="43.66501" lon="6.19523">
        <ele>700.6</ele>
        <time>2023-10-09T14:06:47Z</time>
      </trkpt>
      <trkpt lat="43.66501" lon="6.19523">
        <ele>700.6</ele>
        <time>2023-10-09T14:06:48Z</time>
      </trkpt>
      <trkpt lat="43.66501" lon="6.19523">
        <ele>700.6</ele>
        <time>2023-10-09T14:06:49Z</time>
      </trkpt>
      <trkpt lat="43.66501" lon="6.19523">
        <ele>700.6</ele>
        <time>2023-10-09T14:06:50Z</time>
      </trkpt>
      <trkpt lat="43.66501" lon="6.19523">
        <ele>700.6</ele>
        <time>2023-10-09T14:06:51Z</time>
      </trkpt>
      <trkpt lat="43.66501" lon="6.19523">
        <ele>700.6</ele>
        <time>2023-10-09T14:06:52Z</time>
      </trkpt>
      <trkpt lat="43.66501" lon="6.19523">
        <ele>700.6</ele>
        <time>2023-10-09T14:06:53Z</time>
      </trkpt>
      <trkpt lat="43.66501" lon="6.19523">
        <ele>700.6</ele>
        <time>2023-10-09T14:06:54Z</time>
      </trkpt>
      <trkpt lat="43.66501" lon="6.19523">
        <ele>700.6</ele>
        <time>2023-10-09T14:06:55Z</time>
      </trkpt>
      <trkpt lat="43.66501" lon="6.19524">
        <ele>700.7</ele>
        <time>2023-10-09T14:06:56Z</time>
      </trkpt>
      <trkpt lat="43.66501" lon="6.19524">
        <ele>700.7</ele>
        <time>2023-10-09T14:06:57Z</time>
      </trkpt>
      <trkpt lat="43.66501" lon="6.19524">
        <ele>700.7</ele>
        <time>2023-10-09T14:06:58Z</time>
      </trkpt>
      <trkpt lat="43.66501" lon="6.19524">
        <ele>700.7</ele>
        <time>2023-10-09T14:06:59Z</time>
      </trkpt>
      <trkpt lat="43.66501" lon="6.19524">
        <ele>700.7</ele>
        <time>2023-10-09T14:07:00Z</time>
      </trkpt>
      <trkpt lat="43.66501" lon="6.19524">
        <ele>700.7</ele>
        <time>2023-10-09T14:07:01Z</time>
      </trkpt>
      <trkpt lat="43.66501" lon="6.19524">
        <ele>700.7</ele>
        <time>2023-10-09T14:07:02Z</time>
      </trkpt>
      <trkpt lat="43.66501" lon="6.19524">
        <ele>700.7</ele>
        <time>2023-10-09T14:07:03Z</time>
      </trkpt>
      <trkpt lat="43.66501" lon="6.19524">
        <ele>700.7</ele>
        <time>2023-10-09T14:07:04Z</time>
      </trkpt>
      <trkpt lat="43.66501" lon="6.19524">
        <ele>700.7</ele>
        <time>2023-10-09T14:07:05Z</time>
      </trkpt>
      <trkpt lat="43.66501" lon="6.19524">
        <ele>700.7</ele>
        <time>2023-10-09T14:07:06Z</time>
      </trkpt>
      <trkpt lat="43.66501" lon="6.19524">
        <ele>700.7</ele>
        <time>2023-10-09T14:07:07Z</time>
      </trkpt>
      <trkpt lat="43.66501" lon="6.19524">
        <ele>700.7</ele>
        <time>2023-10-09T14:07:08Z</time>
      </trkpt>
      <trkpt lat="43.66501" lon="6.19524">
        <ele>700.7</ele>
        <time>2023-10-09T14:07:09Z</time>
      </trkpt>
      <trkpt lat="43.66501" lon="6.19524">
        <ele>700.7</ele>
        <time>2023-10-09T14:07:10Z</time>
      </trkpt>
      <trkpt lat="43.66501" lon="6.19524">
        <ele>700.7</ele>
        <time>2023-10-09T14:07:11Z</time>
      </trkpt>
      <trkpt lat="43.66501" lon="6.19524">
        <ele>700.7</ele>
        <time>2023-10-09T14:07:12Z</time>
      </trkpt>
      <trkpt lat="43.66501" lon="6.19524">
        <ele>700.7</ele>
        <time>2023-10-09T14:07:13Z</time>
      </trkpt>
      <trkpt lat="43.66499" lon="6.19525">
        <ele>700.6</ele>
        <time>2023-10-09T14:07:14Z</time>
      </trkpt>
      <trkpt lat="43.66499" lon="6.19525">
        <ele>700.6</ele>
        <time>2023-10-09T14:07:15Z</time>
      </trkpt>
      <trkpt lat="43.66498" lon="6.19525">
        <ele>700.4</ele>
        <time>2023-10-09T14:07:16Z</time>
      </trkpt>
      <trkpt lat="43.66497" lon="6.19526">
        <ele>700.4</ele>
        <time>2023-10-09T14:07:17Z</time>
      </trkpt>
      <trkpt lat="43.66497" lon="6.19526">
        <ele>700.4</ele>
        <time>2023-10-09T14:07:18Z</time>
      </trkpt>
      <trkpt lat="43.66496" lon="6.19525">
        <ele>700.1</ele>
        <time>2023-10-09T14:07:19Z</time>
      </trkpt>
      <trkpt lat="43.66495" lon="6.19525">
        <ele>700</ele>
        <time>2023-10-09T14:07:20Z</time>
      </trkpt>
      <trkpt lat="43.66495" lon="6.19526">
        <ele>700.1</ele>
        <time>2023-10-09T14:07:21Z</time>
      </trkpt>
      <trkpt lat="43.66494" lon="6.19526">
        <ele>699.9</ele>
        <time>2023-10-09T14:07:22Z</time>
      </trkpt>
      <trkpt lat="43.66493" lon="6.19527">
        <ele>699.9</ele>
        <time>2023-10-09T14:07:23Z</time>
      </trkpt>
      <trkpt lat="43.66493" lon="6.19527">
        <ele>699.9</ele>
        <time>2023-10-09T14:07:24Z</time>
      </trkpt>
      <trkpt lat="43.66492" lon="6.19527">
        <ele>699.8</ele>
        <time>2023-10-09T14:07:25Z</time>
      </trkpt>
      <trkpt lat="43.66491" lon="6.19528">
        <ele>699.7</ele>
        <time>2023-10-09T14:07:26Z</time>
      </trkpt>
      <trkpt lat="43.6649" lon="6.19529">
        <ele>699.8</ele>
        <time>2023-10-09T14:07:27Z</time>
      </trkpt>
      <trkpt lat="43.66489" lon="6.1953">
        <ele>699.8</ele>
        <time>2023-10-09T14:07:28Z</time>
      </trkpt>
      <trkpt lat="43.66488" lon="6.19531">
        <ele>699.8</ele>
        <time>2023-10-09T14:07:29Z</time>
      </trkpt>
      <trkpt lat="43.66487" lon="6.19532">
        <ele>699.8</ele>
        <time>2023-10-09T14:07:30Z</time>
      </trkpt>
      <trkpt lat="43.66486" lon="6.19533">
        <ele>699.8</ele>
        <time>2023-10-09T14:07:31Z</time>
      </trkpt>
      <trkpt lat="43.66486" lon="6.19533">
        <ele>699.8</ele>
        <time>2023-10-09T14:07:32Z</time>
      </trkpt>
      <trkpt lat="43.66485" lon="6.19534">
        <ele>699.8</ele>
        <time>2023-10-09T14:07:33Z</time>
      </trkpt>
      <trkpt lat="43.66484" lon="6.19534">
        <ele>699.7</ele>
        <time>2023-10-09T14:07:34Z</time>
      </trkpt>
      <trkpt lat="43.66484" lon="6.19535">
        <ele>699.8</ele>
        <time>2023-10-09T14:07:35Z</time>
      </trkpt>
      <trkpt lat="43.66483" lon="6.19536">
        <ele>699.9</ele>
        <time>2023-10-09T14:07:36Z</time>
      </trkpt>
      <trkpt lat="43.66482" lon="6.19536">
        <ele>699.7</ele>
        <time>2023-10-09T14:07:37Z</time>
      </trkpt>
      <trkpt lat="43.66481" lon="6.19537">
        <ele>699.7</ele>
        <time>2023-10-09T14:07:38Z</time>
      </trkpt>
      <trkpt lat="43.6648" lon="6.19538">
        <ele>699.7</ele>
        <time>2023-10-09T14:07:39Z</time>
      </trkpt>
      <trkpt lat="43.6648" lon="6.19538">
        <ele>699.7</ele>
        <time>2023-10-09T14:07:40Z</time>
      </trkpt>
      <trkpt lat="43.66479" lon="6.19539">
        <ele>699.7</ele>
        <time>2023-10-09T14:07:41Z</time>
      </trkpt>
      <trkpt lat="43.66478" lon="6.1954">
        <ele>699.7</ele>
        <time>2023-10-09T14:07:42Z</time>
      </trkpt>
      <trkpt lat="43.66477" lon="6.19541">
        <ele>699.7</ele>
        <time>2023-10-09T14:07:43Z</time>
      </trkpt>
      <trkpt lat="43.66476" lon="6.19541">
        <ele>699.5</ele>
        <time>2023-10-09T14:07:44Z</time>
      </trkpt>
      <trkpt lat="43.66475" lon="6.19543">
        <ele>699.6</ele>
        <time>2023-10-09T14:07:45Z</time>
      </trkpt>
      <trkpt lat="43.66474" lon="6.19544">
        <ele>699.6</ele>
        <time>2023-10-09T14:07:46Z</time>
      </trkpt>
      <trkpt lat="43.66474" lon="6.19545">
        <ele>699.8</ele>
        <time>2023-10-09T14:07:47Z</time>
      </trkpt>
      <trkpt lat="43.66473" lon="6.19546">
        <ele>699.8</ele>
        <time>2023-10-09T14:07:48Z</time>
      </trkpt>
      <trkpt lat="43.66472" lon="6.19547">
        <ele>699.7</ele>
        <time>2023-10-09T14:07:49Z</time>
      </trkpt>
      <trkpt lat="43.66471" lon="6.19548">
        <ele>699.7</ele>
        <time>2023-10-09T14:07:50Z</time>
      </trkpt>
      <trkpt lat="43.6647" lon="6.19549">
        <ele>699.7</ele>
        <time>2023-10-09T14:07:51Z</time>
      </trkpt>
      <trkpt lat="43.66469" lon="6.19549">
        <ele>699.5</ele>
        <time>2023-10-09T14:07:52Z</time>
      </trkpt>
      <trkpt lat="43.66468" lon="6.1955">
        <ele>699.4</ele>
        <time>2023-10-09T14:07:53Z</time>
      </trkpt>
      <trkpt lat="43.66467" lon="6.19551">
        <ele>699.4</ele>
        <time>2023-10-09T14:07:54Z</time>
      </trkpt>
      <trkpt lat="43.66466" lon="6.19552">
        <ele>699.4</ele>
        <time>2023-10-09T14:07:55Z</time>
      </trkpt>
      <trkpt lat="43.66465" lon="6.19553">
        <ele>699.3</ele>
        <time>2023-10-09T14:07:56Z</time>
      </trkpt>
      <trkpt lat="43.66465" lon="6.19554">
        <ele>699.5</ele>
        <time>2023-10-09T14:07:57Z</time>
      </trkpt>
      <trkpt lat="43.66464" lon="6.19555">
        <ele>699.4</ele>
        <time>2023-10-09T14:07:58Z</time>
      </trkpt>
      <trkpt lat="43.66464" lon="6.19556">
        <ele>699.6</ele>
        <time>2023-10-09T14:07:59Z</time>
      </trkpt>
      <trkpt lat="43.66463" lon="6.19557">
        <ele>699.6</ele>
        <time>2023-10-09T14:08:00Z</time>
      </trkpt>
      <trkpt lat="43.66462" lon="6.19558">
        <ele>699.5</ele>
        <time>2023-10-09T14:08:01Z</time>
      </trkpt>
      <trkpt lat="43.66462" lon="6.19559">
        <ele>699.7</ele>
        <time>2023-10-09T14:08:02Z</time>
      </trkpt>
      <trkpt lat="43.66461" lon="6.19561">
        <ele>699.8</ele>
        <time>2023-10-09T14:08:03Z</time>
      </trkpt>
      <trkpt lat="43.6646" lon="6.19561">
        <ele>699.6</ele>
        <time>2023-10-09T14:08:04Z</time>
      </trkpt>
      <trkpt lat="43.66459" lon="6.19562">
        <ele>699.6</ele>
        <time>2023-10-09T14:08:05Z</time>
      </trkpt>
      <trkpt lat="43.66459" lon="6.19563">
        <ele>699.7</ele>
        <time>2023-10-09T14:08:06Z</time>
      </trkpt>
      <trkpt lat="43.66458" lon="6.19564">
        <ele>699.6</ele>
        <time>2023-10-09T14:08:07Z</time>
      </trkpt>
      <trkpt lat="43.66457" lon="6.19566">
        <ele>699.7</ele>
        <time>2023-10-09T14:08:08Z</time>
      </trkpt>
      <trkpt lat="43.66456" lon="6.19567">
        <ele>699.7</ele>
        <time>2023-10-09T14:08:09Z</time>
      </trkpt>
      <trkpt lat="43.66455" lon="6.19568">
        <ele>699.6</ele>
        <time>2023-10-09T14:08:10Z</time>
      </trkpt>
      <trkpt lat="43.66455" lon="6.19569">
        <ele>699.7</ele>
        <time>2023-10-09T14:08:11Z</time>
      </trkpt>
      <trkpt lat="43.66454" lon="6.1957">
        <ele>699.6</ele>
        <time>2023-10-09T14:08:12Z</time>
      </trkpt>
      <trkpt lat="43.66453" lon="6.19571">
        <ele>699.6</ele>
        <time>2023-10-09T14:08:13Z</time>
      </trkpt>
      <trkpt lat="43.66452" lon="6.19572">
        <ele>699.5</ele>
        <time>2023-10-09T14:08:14Z</time>
      </trkpt>
      <trkpt lat="43.66452" lon="6.19573">
        <ele>699.6</ele>
        <time>2023-10-09T14:08:15Z</time>
      </trkpt>
      <trkpt lat="43.6645" lon="6.19574">
        <ele>699.3</ele>
        <time>2023-10-09T14:08:16Z</time>
      </trkpt>
      <trkpt lat="43.6645" lon="6.19574">
        <ele>699.3</ele>
        <time>2023-10-09T14:08:17Z</time>
      </trkpt>
      <trkpt lat="43.66449" lon="6.19575">
        <ele>699.1</ele>
        <time>2023-10-09T14:08:18Z</time>
      </trkpt>
      <trkpt lat="43.66447" lon="6.19576">
        <ele>698.8</ele>
        <time>2023-10-09T14:08:19Z</time>
      </trkpt>
      <trkpt lat="43.66447" lon="6.19576">
        <ele>698.8</ele>
        <time>2023-10-09T14:08:20Z</time>
      </trkpt>
      <trkpt lat="43.66446" lon="6.19576">
        <ele>698.6</ele>
        <time>2023-10-09T14:08:21Z</time>
      </trkpt>
      <trkpt lat="43.66445" lon="6.19577">
        <ele>698.4</ele>
        <time>2023-10-09T14:08:22Z</time>
      </trkpt>
      <trkpt lat="43.66445" lon="6.19577">
        <ele>698.4</ele>
        <time>2023-10-09T14:08:23Z</time>
      </trkpt>
      <trkpt lat="43.66444" lon="6.19578">
        <ele>698.3</ele>
        <time>2023-10-09T14:08:24Z</time>
      </trkpt>
      <trkpt lat="43.66443" lon="6.19578">
        <ele>698.1</ele>
        <time>2023-10-09T14:08:25Z</time>
      </trkpt>
      <trkpt lat="43.66442" lon="6.19578">
        <ele>697.9</ele>
        <time>2023-10-09T14:08:26Z</time>
      </trkpt>
      <trkpt lat="43.66441" lon="6.19579">
        <ele>697.8</ele>
        <time>2023-10-09T14:08:27Z</time>
      </trkpt>
      <trkpt lat="43.66441" lon="6.19579">
        <ele>697.8</ele>
        <time>2023-10-09T14:08:28Z</time>
      </trkpt>
      <trkpt lat="43.6644" lon="6.1958">
        <ele>697.7</ele>
        <time>2023-10-09T14:08:29Z</time>
      </trkpt>
      <trkpt lat="43.66439" lon="6.1958">
        <ele>697.5</ele>
        <time>2023-10-09T14:08:30Z</time>
      </trkpt>
      <trkpt lat="43.66438" lon="6.19581">
        <ele>697.4</ele>
        <time>2023-10-09T14:08:31Z</time>
      </trkpt>
      <trkpt lat="43.66437" lon="6.19582">
        <ele>697.2</ele>
        <time>2023-10-09T14:08:32Z</time>
      </trkpt>
      <trkpt lat="43.66436" lon="6.19582">
        <ele>697</ele>
        <time>2023-10-09T14:08:33Z</time>
      </trkpt>
      <trkpt lat="43.66435" lon="6.19583">
        <ele>696.9</ele>
        <time>2023-10-09T14:08:34Z</time>
      </trkpt>
      <trkpt lat="43.66434" lon="6.19584">
        <ele>696.8</ele>
        <time>2023-10-09T14:08:35Z</time>
      </trkpt>
      <trkpt lat="43.66433" lon="6.19585">
        <ele>696.7</ele>
        <time>2023-10-09T14:08:36Z</time>
      </trkpt>
      <trkpt lat="43.66432" lon="6.19585">
        <ele>696.5</ele>
        <time>2023-10-09T14:08:37Z</time>
      </trkpt>
      <trkpt lat="43.66431" lon="6.19586">
        <ele>696.4</ele>
        <time>2023-10-09T14:08:38Z</time>
      </trkpt>
      <trkpt lat="43.6643" lon="6.19587">
        <ele>696.3</ele>
        <time>2023-10-09T14:08:39Z</time>
      </trkpt>
      <trkpt lat="43.6643" lon="6.19588">
        <ele>696.4</ele>
        <time>2023-10-09T14:08:40Z</time>
      </trkpt>
      <trkpt lat="43.66429" lon="6.19589">
        <ele>696.3</ele>
        <time>2023-10-09T14:08:41Z</time>
      </trkpt>
      <trkpt lat="43.66428" lon="6.1959">
        <ele>696.1</ele>
        <time>2023-10-09T14:08:42Z</time>
      </trkpt>
      <trkpt lat="43.66428" lon="6.19591">
        <ele>696.2</ele>
        <time>2023-10-09T14:08:43Z</time>
      </trkpt>
      <trkpt lat="43.66427" lon="6.19592">
        <ele>696.1</ele>
        <time>2023-10-09T14:08:44Z</time>
      </trkpt>
      <trkpt lat="43.66426" lon="6.19593">
        <ele>695.9</ele>
        <time>2023-10-09T14:08:45Z</time>
      </trkpt>
      <trkpt lat="43.66425" lon="6.19594">
        <ele>695.8</ele>
        <time>2023-10-09T14:08:46Z</time>
      </trkpt>
      <trkpt lat="43.66424" lon="6.19595">
        <ele>695.6</ele>
        <time>2023-10-09T14:08:47Z</time>
      </trkpt>
      <trkpt lat="43.66423" lon="6.19597">
        <ele>695.6</ele>
        <time>2023-10-09T14:08:48Z</time>
      </trkpt>
      <trkpt lat="43.66423" lon="6.19598">
        <ele>695.7</ele>
        <time>2023-10-09T14:08:49Z</time>
      </trkpt>
      <trkpt lat="43.66423" lon="6.19599">
        <ele>695.8</ele>
        <time>2023-10-09T14:08:50Z</time>
      </trkpt>
      <trkpt lat="43.66422" lon="6.19601">
        <ele>695.7</ele>
        <time>2023-10-09T14:08:51Z</time>
      </trkpt>
      <trkpt lat="43.66422" lon="6.19602">
        <ele>695.8</ele>
        <time>2023-10-09T14:08:52Z</time>
      </trkpt>
      <trkpt lat="43.66421" lon="6.19603">
        <ele>695.6</ele>
        <time>2023-10-09T14:08:53Z</time>
      </trkpt>
      <trkpt lat="43.66421" lon="6.19604">
        <ele>695.7</ele>
        <time>2023-10-09T14:08:54Z</time>
      </trkpt>
      <trkpt lat="43.6642" lon="6.19605">
        <ele>695.5</ele>
        <time>2023-10-09T14:08:55Z</time>
      </trkpt>
      <trkpt lat="43.66419" lon="6.19606">
        <ele>695.3</ele>
        <time>2023-10-09T14:08:56Z</time>
      </trkpt>
      <trkpt lat="43.66418" lon="6.19607">
        <ele>695.1</ele>
        <time>2023-10-09T14:08:57Z</time>
      </trkpt>
      <trkpt lat="43.66417" lon="6.19609">
        <ele>694.9</ele>
        <time>2023-10-09T14:08:58Z</time>
      </trkpt>
      <trkpt lat="43.66417" lon="6.1961">
        <ele>695</ele>
        <time>2023-10-09T14:08:59Z</time>
      </trkpt>
      <trkpt lat="43.66415" lon="6.19611">
        <ele>694.6</ele>
        <time>2023-10-09T14:09:00Z</time>
      </trkpt>
      <trkpt lat="43.66414" lon="6.19612">
        <ele>694.5</ele>
        <time>2023-10-09T14:09:01Z</time>
      </trkpt>
      <trkpt lat="43.66414" lon="6.19613">
        <ele>694.6</ele>
        <time>2023-10-09T14:09:02Z</time>
      </trkpt>
      <trkpt lat="43.66412" lon="6.19615">
        <ele>694.2</ele>
        <time>2023-10-09T14:09:03Z</time>
      </trkpt>
      <trkpt lat="43.66412" lon="6.19616">
        <ele>694.3</ele>
        <time>2023-10-09T14:09:04Z</time>
      </trkpt>
      <trkpt lat="43.66411" lon="6.19616">
        <ele>694.1</ele>
        <time>2023-10-09T14:09:05Z</time>
      </trkpt>
      <trkpt lat="43.6641" lon="6.19618">
        <ele>694</ele>
        <time>2023-10-09T14:09:06Z</time>
      </trkpt>
      <trkpt lat="43.6641" lon="6.19619">
        <ele>694.1</ele>
        <time>2023-10-09T14:09:07Z</time>
      </trkpt>
      <trkpt lat="43.66409" lon="6.1962">
        <ele>693.9</ele>
        <time>2023-10-09T14:09:08Z</time>
      </trkpt>
      <trkpt lat="43.66407" lon="6.19622">
        <ele>693.6</ele>
        <time>2023-10-09T14:09:09Z</time>
      </trkpt>
      <trkpt lat="43.66407" lon="6.19623">
        <ele>693.6</ele>
        <time>2023-10-09T14:09:10Z</time>
      </trkpt>
      <trkpt lat="43.66406" lon="6.19624">
        <ele>693.4</ele>
        <time>2023-10-09T14:09:11Z</time>
      </trkpt>
      <trkpt lat="43.66405" lon="6.19625">
        <ele>693.3</ele>
        <time>2023-10-09T14:09:12Z</time>
      </trkpt>
      <trkpt lat="43.66404" lon="6.19627">
        <ele>693.1</ele>
        <time>2023-10-09T14:09:13Z</time>
      </trkpt>
      <trkpt lat="43.66403" lon="6.19629">
        <ele>693</ele>
        <time>2023-10-09T14:09:14Z</time>
      </trkpt>
      <trkpt lat="43.66402" lon="6.1963">
        <ele>692.8</ele>
        <time>2023-10-09T14:09:15Z</time>
      </trkpt>
      <trkpt lat="43.66402" lon="6.19631">
        <ele>692.9</ele>
        <time>2023-10-09T14:09:16Z</time>
      </trkpt>
      <trkpt lat="43.66401" lon="6.19632">
        <ele>692.7</ele>
        <time>2023-10-09T14:09:17Z</time>
      </trkpt>
      <trkpt lat="43.66401" lon="6.19633">
        <ele>692.7</ele>
        <time>2023-10-09T14:09:18Z</time>
      </trkpt>
      <trkpt lat="43.664" lon="6.19634">
        <ele>692.6</ele>
        <time>2023-10-09T14:09:19Z</time>
      </trkpt>
      <trkpt lat="43.66399" lon="6.19636">
        <ele>692.4</ele>
        <time>2023-10-09T14:09:20Z</time>
      </trkpt>
      <trkpt lat="43.66398" lon="6.19637">
        <ele>692.2</ele>
        <time>2023-10-09T14:09:21Z</time>
      </trkpt>
      <trkpt lat="43.66397" lon="6.19638">
        <ele>692</ele>
        <time>2023-10-09T14:09:22Z</time>
      </trkpt>
      <trkpt lat="43.66397" lon="6.19639">
        <ele>692.1</ele>
        <time>2023-10-09T14:09:23Z</time>
      </trkpt>
      <trkpt lat="43.66396" lon="6.19639">
        <ele>691.8</ele>
        <time>2023-10-09T14:09:24Z</time>
      </trkpt>
      <trkpt lat="43.66395" lon="6.1964">
        <ele>691.6</ele>
        <time>2023-10-09T14:09:25Z</time>
      </trkpt>
      <trkpt lat="43.66395" lon="6.19641">
        <ele>691.7</ele>
        <time>2023-10-09T14:09:26Z</time>
      </trkpt>
      <trkpt lat="43.66394" lon="6.19642">
        <ele>691.5</ele>
        <time>2023-10-09T14:09:27Z</time>
      </trkpt>
      <trkpt lat="43.66393" lon="6.19643">
        <ele>691.3</ele>
        <time>2023-10-09T14:09:28Z</time>
      </trkpt>
      <trkpt lat="43.66392" lon="6.19644">
        <ele>691.2</ele>
        <time>2023-10-09T14:09:29Z</time>
      </trkpt>
      <trkpt lat="43.66391" lon="6.19646">
        <ele>691</ele>
        <time>2023-10-09T14:09:30Z</time>
      </trkpt>
      <trkpt lat="43.6639" lon="6.19646">
        <ele>690.8</ele>
        <time>2023-10-09T14:09:31Z</time>
      </trkpt>
      <trkpt lat="43.66389" lon="6.19647">
        <ele>690.6</ele>
        <time>2023-10-09T14:09:32Z</time>
      </trkpt>
      <trkpt lat="43.66388" lon="6.19648">
        <ele>690.5</ele>
        <time>2023-10-09T14:09:33Z</time>
      </trkpt>
      <trkpt lat="43.66388" lon="6.19648">
        <ele>690.5</ele>
        <time>2023-10-09T14:09:34Z</time>
      </trkpt>
      <trkpt lat="43.66387" lon="6.19649">
        <ele>690.4</ele>
        <time>2023-10-09T14:09:35Z</time>
      </trkpt>
      <trkpt lat="43.66386" lon="6.1965">
        <ele>690.3</ele>
        <time>2023-10-09T14:09:36Z</time>
      </trkpt>
      <trkpt lat="43.66386" lon="6.19651">
        <ele>690.4</ele>
        <time>2023-10-09T14:09:37Z</time>
      </trkpt>
      <trkpt lat="43.66385" lon="6.19652">
        <ele>690.2</ele>
        <time>2023-10-09T14:09:38Z</time>
      </trkpt>
      <trkpt lat="43.66384" lon="6.19653">
        <ele>690.1</ele>
        <time>2023-10-09T14:09:39Z</time>
      </trkpt>
      <trkpt lat="43.66384" lon="6.19655">
        <ele>690.3</ele>
        <time>2023-10-09T14:09:40Z</time>
      </trkpt>
      <trkpt lat="43.66383" lon="6.19656">
        <ele>690.2</ele>
        <time>2023-10-09T14:09:41Z</time>
      </trkpt>
      <trkpt lat="43.66382" lon="6.19657">
        <ele>690.1</ele>
        <time>2023-10-09T14:09:42Z</time>
      </trkpt>
      <trkpt lat="43.66381" lon="6.19657">
        <ele>689.9</ele>
        <time>2023-10-09T14:09:43Z</time>
      </trkpt>
      <trkpt lat="43.6638" lon="6.19658">
        <ele>689.8</ele>
        <time>2023-10-09T14:09:44Z</time>
      </trkpt>
      <trkpt lat="43.66379" lon="6.19659">
        <ele>689.7</ele>
        <time>2023-10-09T14:09:45Z</time>
      </trkpt>
      <trkpt lat="43.66378" lon="6.1966">
        <ele>689.6</ele>
        <time>2023-10-09T14:09:46Z</time>
      </trkpt>
      <trkpt lat="43.66377" lon="6.19661">
        <ele>689.5</ele>
        <time>2023-10-09T14:09:47Z</time>
      </trkpt>
      <trkpt lat="43.66376" lon="6.19663">
        <ele>689.4</ele>
        <time>2023-10-09T14:09:48Z</time>
      </trkpt>
      <trkpt lat="43.66375" lon="6.19664">
        <ele>689.3</ele>
        <time>2023-10-09T14:09:49Z</time>
      </trkpt>
      <trkpt lat="43.66374" lon="6.19665">
        <ele>689.2</ele>
        <time>2023-10-09T14:09:50Z</time>
      </trkpt>
      <trkpt lat="43.66372" lon="6.19667">
        <ele>689</ele>
        <time>2023-10-09T14:09:51Z</time>
      </trkpt>
      <trkpt lat="43.66372" lon="6.19668">
        <ele>689</ele>
        <time>2023-10-09T14:09:52Z</time>
      </trkpt>
      <trkpt lat="43.66371" lon="6.19668">
        <ele>688.8</ele>
        <time>2023-10-09T14:09:53Z</time>
      </trkpt>
      <trkpt lat="43.66369" lon="6.1967">
        <ele>688.5</ele>
        <time>2023-10-09T14:09:54Z</time>
      </trkpt>
      <trkpt lat="43.66369" lon="6.19671">
        <ele>688.6</ele>
        <time>2023-10-09T14:09:55Z</time>
      </trkpt>
      <trkpt lat="43.66368" lon="6.19671">
        <ele>688.4</ele>
        <time>2023-10-09T14:09:56Z</time>
      </trkpt>
      <trkpt lat="43.66367" lon="6.19672">
        <ele>688.3</ele>
        <time>2023-10-09T14:09:57Z</time>
      </trkpt>
      <trkpt lat="43.66366" lon="6.19673">
        <ele>688.1</ele>
        <time>2023-10-09T14:09:58Z</time>
      </trkpt>
      <trkpt lat="43.66366" lon="6.19674">
        <ele>688.1</ele>
        <time>2023-10-09T14:09:59Z</time>
      </trkpt>
      <trkpt lat="43.66365" lon="6.19675">
        <ele>688</ele>
        <time>2023-10-09T14:10:00Z</time>
      </trkpt>
      <trkpt lat="43.66364" lon="6.19675">
        <ele>687.8</ele>
        <time>2023-10-09T14:10:01Z</time>
      </trkpt>
      <trkpt lat="43.66364" lon="6.19676">
        <ele>687.9</ele>
        <time>2023-10-09T14:10:02Z</time>
      </trkpt>
      <trkpt lat="43.66363" lon="6.19677">
        <ele>687.7</ele>
        <time>2023-10-09T14:10:03Z</time>
      </trkpt>
      <trkpt lat="43.66361" lon="6.19678">
        <ele>687.4</ele>
        <time>2023-10-09T14:10:04Z</time>
      </trkpt>
      <trkpt lat="43.66361" lon="6.19678">
        <ele>687.4</ele>
        <time>2023-10-09T14:10:05Z</time>
      </trkpt>
      <trkpt lat="43.6636" lon="6.19678">
        <ele>687.3</ele>
        <time>2023-10-09T14:10:06Z</time>
      </trkpt>
      <trkpt lat="43.66359" lon="6.19678">
        <ele>687.1</ele>
        <time>2023-10-09T14:10:07Z</time>
      </trkpt>
      <trkpt lat="43.66357" lon="6.19678">
        <ele>686.9</ele>
        <time>2023-10-09T14:10:08Z</time>
      </trkpt>
      <trkpt lat="43.66356" lon="6.19678">
        <ele>686.7</ele>
        <time>2023-10-09T14:10:09Z</time>
      </trkpt>
      <trkpt lat="43.66355" lon="6.19677">
        <ele>686.6</ele>
        <time>2023-10-09T14:10:10Z</time>
      </trkpt>
      <trkpt lat="43.66354" lon="6.19676">
        <ele>686.4</ele>
        <time>2023-10-09T14:10:11Z</time>
      </trkpt>
      <trkpt lat="43.66353" lon="6.19675">
        <ele>686.2</ele>
        <time>2023-10-09T14:10:12Z</time>
      </trkpt>
      <trkpt lat="43.66352" lon="6.19673">
        <ele>686</ele>
        <time>2023-10-09T14:10:13Z</time>
      </trkpt>
      <trkpt lat="43.66351" lon="6.19671">
        <ele>685.8</ele>
        <time>2023-10-09T14:10:14Z</time>
      </trkpt>
      <trkpt lat="43.66351" lon="6.19669">
        <ele>685.7</ele>
        <time>2023-10-09T14:10:15Z</time>
      </trkpt>
      <trkpt lat="43.66351" lon="6.19668">
        <ele>685.6</ele>
        <time>2023-10-09T14:10:16Z</time>
      </trkpt>
      <trkpt lat="43.66352" lon="6.19666">
        <ele>685.6</ele>
        <time>2023-10-09T14:10:17Z</time>
      </trkpt>
      <trkpt lat="43.66352" lon="6.19663">
        <ele>685.4</ele>
        <time>2023-10-09T14:10:18Z</time>
      </trkpt>
      <trkpt lat="43.66353" lon="6.19662">
        <ele>685.5</ele>
        <time>2023-10-09T14:10:19Z</time>
      </trkpt>
      <trkpt lat="43.66353" lon="6.19661">
        <ele>685.4</ele>
        <time>2023-10-09T14:10:20Z</time>
      </trkpt>
      <trkpt lat="43.66353" lon="6.1966">
        <ele>685.4</ele>
        <time>2023-10-09T14:10:21Z</time>
      </trkpt>
      <trkpt lat="43.66354" lon="6.19658">
        <ele>685.4</ele>
        <time>2023-10-09T14:10:22Z</time>
      </trkpt>
      <trkpt lat="43.66354" lon="6.19657">
        <ele>685.3</ele>
        <time>2023-10-09T14:10:23Z</time>
      </trkpt>
      <trkpt lat="43.66354" lon="6.19656">
        <ele>685.2</ele>
        <time>2023-10-09T14:10:24Z</time>
      </trkpt>
      <trkpt lat="43.66355" lon="6.19655">
        <ele>685.3</ele>
        <time>2023-10-09T14:10:25Z</time>
      </trkpt>
      <trkpt lat="43.66355" lon="6.19653">
        <ele>685.1</ele>
        <time>2023-10-09T14:10:26Z</time>
      </trkpt>
      <trkpt lat="43.66356" lon="6.19652">
        <ele>685.2</ele>
        <time>2023-10-09T14:10:27Z</time>
      </trkpt>
      <trkpt lat="43.66356" lon="6.1965">
        <ele>685.1</ele>
        <time>2023-10-09T14:10:28Z</time>
      </trkpt>
      <trkpt lat="43.66357" lon="6.19648">
        <ele>685.1</ele>
        <time>2023-10-09T14:10:29Z</time>
      </trkpt>
      <trkpt lat="43.66357" lon="6.19647">
        <ele>685</ele>
        <time>2023-10-09T14:10:30Z</time>
      </trkpt>
      <trkpt lat="43.66358" lon="6.19646">
        <ele>685.1</ele>
        <time>2023-10-09T14:10:31Z</time>
      </trkpt>
      <trkpt lat="43.66359" lon="6.19645">
        <ele>685.1</ele>
        <time>2023-10-09T14:10:32Z</time>
      </trkpt>
      <trkpt lat="43.66359" lon="6.19643">
        <ele>685</ele>
        <time>2023-10-09T14:10:33Z</time>
      </trkpt>
      <trkpt lat="43.66359" lon="6.19642">
        <ele>684.9</ele>
        <time>2023-10-09T14:10:34Z</time>
      </trkpt>
      <trkpt lat="43.66359" lon="6.19639">
        <ele>684.7</ele>
        <time>2023-10-09T14:10:35Z</time>
      </trkpt>
      <trkpt lat="43.66359" lon="6.19638">
        <ele>684.7</ele>
        <time>2023-10-09T14:10:36Z</time>
      </trkpt>
      <trkpt lat="43.66359" lon="6.19637">
        <ele>684.6</ele>
        <time>2023-10-09T14:10:37Z</time>
      </trkpt>
      <trkpt lat="43.6636" lon="6.19635">
        <ele>684.7</ele>
        <time>2023-10-09T14:10:38Z</time>
      </trkpt>
      <trkpt lat="43.6636" lon="6.19634">
        <ele>684.7</ele>
        <time>2023-10-09T14:10:39Z</time>
      </trkpt>
      <trkpt lat="43.6636" lon="6.19632">
        <ele>684.6</ele>
        <time>2023-10-09T14:10:40Z</time>
      </trkpt>
      <trkpt lat="43.6636" lon="6.19631">
        <ele>684.5</ele>
        <time>2023-10-09T14:10:41Z</time>
      </trkpt>
      <trkpt lat="43.6636" lon="6.19629">
        <ele>684.5</ele>
        <time>2023-10-09T14:10:42Z</time>
      </trkpt>
      <trkpt lat="43.6636" lon="6.19628">
        <ele>684.4</ele>
        <time>2023-10-09T14:10:43Z</time>
      </trkpt>
      <trkpt lat="43.66361" lon="6.19625">
        <ele>684.5</ele>
        <time>2023-10-09T14:10:44Z</time>
      </trkpt>
      <trkpt lat="43.66361" lon="6.19624">
        <ele>684.4</ele>
        <time>2023-10-09T14:10:45Z</time>
      </trkpt>
      <trkpt lat="43.66361" lon="6.19623">
        <ele>684.4</ele>
        <time>2023-10-09T14:10:46Z</time>
      </trkpt>
      <trkpt lat="43.66361" lon="6.1962">
        <ele>684.3</ele>
        <time>2023-10-09T14:10:47Z</time>
      </trkpt>
      <trkpt lat="43.66361" lon="6.19619">
        <ele>684.3</ele>
        <time>2023-10-09T14:10:48Z</time>
      </trkpt>
      <trkpt lat="43.66361" lon="6.19618">
        <ele>684.2</ele>
        <time>2023-10-09T14:10:49Z</time>
      </trkpt>
      <trkpt lat="43.66361" lon="6.19615">
        <ele>684.1</ele>
        <time>2023-10-09T14:10:50Z</time>
      </trkpt>
      <trkpt lat="43.66362" lon="6.19614">
        <ele>684.3</ele>
        <time>2023-10-09T14:10:51Z</time>
      </trkpt>
      <trkpt lat="43.66362" lon="6.19613">
        <ele>684.2</ele>
        <time>2023-10-09T14:10:52Z</time>
      </trkpt>
      <trkpt lat="43.66362" lon="6.19611">
        <ele>684.2</ele>
        <time>2023-10-09T14:10:53Z</time>
      </trkpt>
      <trkpt lat="43.66363" lon="6.1961">
        <ele>684.3</ele>
        <time>2023-10-09T14:10:54Z</time>
      </trkpt>
      <trkpt lat="43.66363" lon="6.19608">
        <ele>684.1</ele>
        <time>2023-10-09T14:10:55Z</time>
      </trkpt>
      <trkpt lat="43.66364" lon="6.19606">
        <ele>684.2</ele>
        <time>2023-10-09T14:10:56Z</time>
      </trkpt>
      <trkpt lat="43.66365" lon="6.19605">
        <ele>684.3</ele>
        <time>2023-10-09T14:10:57Z</time>
      </trkpt>
      <trkpt lat="43.66366" lon="6.19604">
        <ele>684.4</ele>
        <time>2023-10-09T14:10:58Z</time>
      </trkpt>
      <trkpt lat="43.66366" lon="6.19603">
        <ele>684.3</ele>
        <time>2023-10-09T14:10:59Z</time>
      </trkpt>
      <trkpt lat="43.66367" lon="6.19601">
        <ele>684.3</ele>
        <time>2023-10-09T14:11:00Z</time>
      </trkpt>
      <trkpt lat="43.66368" lon="6.196">
        <ele>684.4</ele>
        <time>2023-10-09T14:11:01Z</time>
      </trkpt>
      <trkpt lat="43.66369" lon="6.19598">
        <ele>684.5</ele>
        <time>2023-10-09T14:11:02Z</time>
      </trkpt>
      <trkpt lat="43.66369" lon="6.19597">
        <ele>684.4</ele>
        <time>2023-10-09T14:11:03Z</time>
      </trkpt>
      <trkpt lat="43.6637" lon="6.19596">
        <ele>684.5</ele>
        <time>2023-10-09T14:11:04Z</time>
      </trkpt>
      <trkpt lat="43.6637" lon="6.19594">
        <ele>684.4</ele>
        <time>2023-10-09T14:11:05Z</time>
      </trkpt>
      <trkpt lat="43.6637" lon="6.19593">
        <ele>684.3</ele>
        <time>2023-10-09T14:11:06Z</time>
      </trkpt>
      <trkpt lat="43.66371" lon="6.19592">
        <ele>684.4</ele>
        <time>2023-10-09T14:11:07Z</time>
      </trkpt>
      <trkpt lat="43.66372" lon="6.1959">
        <ele>684.4</ele>
        <time>2023-10-09T14:11:08Z</time>
      </trkpt>
      <trkpt lat="43.66373" lon="6.19589">
        <ele>684.5</ele>
        <time>2023-10-09T14:11:09Z</time>
      </trkpt>
      <trkpt lat="43.66374" lon="6.19588">
        <ele>684.7</ele>
        <time>2023-10-09T14:11:10Z</time>
      </trkpt>
      <trkpt lat="43.66375" lon="6.19587">
        <ele>684.8</ele>
        <time>2023-10-09T14:11:11Z</time>
      </trkpt>
      <trkpt lat="43.66376" lon="6.19586">
        <ele>684.9</ele>
        <time>2023-10-09T14:11:12Z</time>
      </trkpt>
      <trkpt lat="43.66376" lon="6.19585">
        <ele>684.8</ele>
        <time>2023-10-09T14:11:13Z</time>
      </trkpt>
      <trkpt lat="43.66377" lon="6.19584">
        <ele>684.9</ele>
        <time>2023-10-09T14:11:14Z</time>
      </trkpt>
      <trkpt lat="43.66378" lon="6.19582">
        <ele>684.9</ele>
        <time>2023-10-09T14:11:15Z</time>
      </trkpt>
      <trkpt lat="43.66379" lon="6.19581">
        <ele>685</ele>
        <time>2023-10-09T14:11:16Z</time>
      </trkpt>
      <trkpt lat="43.66379" lon="6.19579">
        <ele>684.8</ele>
        <time>2023-10-09T14:11:17Z</time>
      </trkpt>
      <trkpt lat="43.66379" lon="6.19578">
        <ele>684.7</ele>
        <time>2023-10-09T14:11:18Z</time>
      </trkpt>
      <trkpt lat="43.66378" lon="6.19575">
        <ele>684.3</ele>
        <time>2023-10-09T14:11:19Z</time>
      </trkpt>
      <trkpt lat="43.66378" lon="6.19574">
        <ele>684.2</ele>
        <time>2023-10-09T14:11:20Z</time>
      </trkpt>
      <trkpt lat="43.66378" lon="6.19573">
        <ele>684.1</ele>
        <time>2023-10-09T14:11:21Z</time>
      </trkpt>
      <trkpt lat="43.66378" lon="6.19571">
        <ele>683.9</ele>
        <time>2023-10-09T14:11:22Z</time>
      </trkpt>
      <trkpt lat="43.66378" lon="6.19569">
        <ele>683.7</ele>
        <time>2023-10-09T14:11:23Z</time>
      </trkpt>
      <trkpt lat="43.66378" lon="6.19566">
        <ele>683.4</ele>
        <time>2023-10-09T14:11:24Z</time>
      </trkpt>
      <trkpt lat="43.66378" lon="6.19565">
        <ele>683.3</ele>
        <time>2023-10-09T14:11:25Z</time>
      </trkpt>
      <trkpt lat="43.66378" lon="6.19563">
        <ele>683.1</ele>
        <time>2023-10-09T14:11:26Z</time>
      </trkpt>
      <trkpt lat="43.66379" lon="6.19562">
        <ele>683.2</ele>
        <time>2023-10-09T14:11:27Z</time>
      </trkpt>
      <trkpt lat="43.66379" lon="6.1956">
        <ele>683</ele>
        <time>2023-10-09T14:11:28Z</time>
      </trkpt>
      <trkpt lat="43.66379" lon="6.19559">
        <ele>682.9</ele>
        <time>2023-10-09T14:11:29Z</time>
      </trkpt>
      <trkpt lat="43.6638" lon="6.19556">
        <ele>682.8</ele>
        <time>2023-10-09T14:11:30Z</time>
      </trkpt>
      <trkpt lat="43.6638" lon="6.19555">
        <ele>682.7</ele>
        <time>2023-10-09T14:11:31Z</time>
      </trkpt>
      <trkpt lat="43.6638" lon="6.19553">
        <ele>682.5</ele>
        <time>2023-10-09T14:11:32Z</time>
      </trkpt>
      <trkpt lat="43.66381" lon="6.19551">
        <ele>682.5</ele>
        <time>2023-10-09T14:11:33Z</time>
      </trkpt>
      <trkpt lat="43.66381" lon="6.1955">
        <ele>682.5</ele>
        <time>2023-10-09T14:11:34Z</time>
      </trkpt>
      <trkpt lat="43.66381" lon="6.19548">
        <ele>682.3</ele>
        <time>2023-10-09T14:11:35Z</time>
      </trkpt>
      <trkpt lat="43.66381" lon="6.19547">
        <ele>682.2</ele>
        <time>2023-10-09T14:11:36Z</time>
      </trkpt>
      <trkpt lat="43.66382" lon="6.19545">
        <ele>682.2</ele>
        <time>2023-10-09T14:11:37Z</time>
      </trkpt>
      <trkpt lat="43.66382" lon="6.19544">
        <ele>682.2</ele>
        <time>2023-10-09T14:11:38Z</time>
      </trkpt>
      <trkpt lat="43.66382" lon="6.19543">
        <ele>682.1</ele>
        <time>2023-10-09T14:11:39Z</time>
      </trkpt>
      <trkpt lat="43.66382" lon="6.19541">
        <ele>682</ele>
        <time>2023-10-09T14:11:40Z</time>
      </trkpt>
      <trkpt lat="43.66382" lon="6.1954">
        <ele>681.9</ele>
        <time>2023-10-09T14:11:41Z</time>
      </trkpt>
      <trkpt lat="43.66383" lon="6.19538">
        <ele>681.9</ele>
        <time>2023-10-09T14:11:42Z</time>
      </trkpt>
      <trkpt lat="43.66383" lon="6.19537">
        <ele>681.8</ele>
        <time>2023-10-09T14:11:43Z</time>
      </trkpt>
      <trkpt lat="43.66383" lon="6.19534">
        <ele>681.6</ele>
        <time>2023-10-09T14:11:44Z</time>
      </trkpt>
      <trkpt lat="43.66383" lon="6.19533">
        <ele>681.5</ele>
        <time>2023-10-09T14:11:45Z</time>
      </trkpt>
      <trkpt lat="43.66383" lon="6.19532">
        <ele>681.5</ele>
        <time>2023-10-09T14:11:46Z</time>
      </trkpt>
      <trkpt lat="43.66383" lon="6.1953">
        <ele>681.3</ele>
        <time>2023-10-09T14:11:47Z</time>
      </trkpt>
      <trkpt lat="43.66384" lon="6.19528">
        <ele>681.3</ele>
        <time>2023-10-09T14:11:48Z</time>
      </trkpt>
      <trkpt lat="43.66384" lon="6.19526">
        <ele>681.2</ele>
        <time>2023-10-09T14:11:49Z</time>
      </trkpt>
      <trkpt lat="43.66384" lon="6.19524">
        <ele>681.2</ele>
        <time>2023-10-09T14:11:50Z</time>
      </trkpt>
      <trkpt lat="43.66384" lon="6.19522">
        <ele>681.1</ele>
        <time>2023-10-09T14:11:51Z</time>
      </trkpt>
      <trkpt lat="43.66385" lon="6.19521">
        <ele>681.2</ele>
        <time>2023-10-09T14:11:52Z</time>
      </trkpt>
      <trkpt lat="43.66385" lon="6.19519">
        <ele>681.1</ele>
        <time>2023-10-09T14:11:53Z</time>
      </trkpt>
      <trkpt lat="43.66385" lon="6.19518">
        <ele>681.1</ele>
        <time>2023-10-09T14:11:54Z</time>
      </trkpt>
      <trkpt lat="43.66385" lon="6.19516">
        <ele>681</ele>
        <time>2023-10-09T14:11:55Z</time>
      </trkpt>
      <trkpt lat="43.66385" lon="6.19515">
        <ele>681</ele>
        <time>2023-10-09T14:11:56Z</time>
      </trkpt>
      <trkpt lat="43.66385" lon="6.19513">
        <ele>680.9</ele>
        <time>2023-10-09T14:11:57Z</time>
      </trkpt>
      <trkpt lat="43.66384" lon="6.19511">
        <ele>680.7</ele>
        <time>2023-10-09T14:11:58Z</time>
      </trkpt>
      <trkpt lat="43.66384" lon="6.1951">
        <ele>680.7</ele>
        <time>2023-10-09T14:11:59Z</time>
      </trkpt>
      <trkpt lat="43.66384" lon="6.19509">
        <ele>680.6</ele>
        <time>2023-10-09T14:12:00Z</time>
      </trkpt>
      <trkpt lat="43.66384" lon="6.19508">
        <ele>680.6</ele>
        <time>2023-10-09T14:12:01Z</time>
      </trkpt>
      <trkpt lat="43.66384" lon="6.19507">
        <ele>680.5</ele>
        <time>2023-10-09T14:12:02Z</time>
      </trkpt>
      <trkpt lat="43.66384" lon="6.19506">
        <ele>680.5</ele>
        <time>2023-10-09T14:12:03Z</time>
      </trkpt>
      <trkpt lat="43.66384" lon="6.19504">
        <ele>680.4</ele>
        <time>2023-10-09T14:12:04Z</time>
      </trkpt>
      <trkpt lat="43.66384" lon="6.19503">
        <ele>680.4</ele>
        <time>2023-10-09T14:12:05Z</time>
      </trkpt>
      <trkpt lat="43.66384" lon="6.19501">
        <ele>680.3</ele>
        <time>2023-10-09T14:12:06Z</time>
      </trkpt>
      <trkpt lat="43.66383" lon="6.195">
        <ele>680.2</ele>
        <time>2023-10-09T14:12:07Z</time>
      </trkpt>
      <trkpt lat="43.66383" lon="6.19499">
        <ele>680.1</ele>
        <time>2023-10-09T14:12:08Z</time>
      </trkpt>
      <trkpt lat="43.66382" lon="6.19497">
        <ele>679.9</ele>
        <time>2023-10-09T14:12:09Z</time>
      </trkpt>
      <trkpt lat="43.66381" lon="6.19495">
        <ele>679.7</ele>
        <time>2023-10-09T14:12:10Z</time>
      </trkpt>
      <trkpt lat="43.66381" lon="6.19494">
        <ele>679.6</ele>
        <time>2023-10-09T14:12:11Z</time>
      </trkpt>
      <trkpt lat="43.6638" lon="6.19493">
        <ele>679.5</ele>
        <time>2023-10-09T14:12:12Z</time>
      </trkpt>
      <trkpt lat="43.66379" lon="6.1949">
        <ele>679.2</ele>
        <time>2023-10-09T14:12:13Z</time>
      </trkpt>
      <trkpt lat="43.66379" lon="6.19489">
        <ele>679.2</ele>
        <time>2023-10-09T14:12:14Z</time>
      </trkpt>
      <trkpt lat="43.66379" lon="6.19488">
        <ele>679.1</ele>
        <time>2023-10-09T14:12:15Z</time>
      </trkpt>
      <trkpt lat="43.66379" lon="6.19487">
        <ele>679.1</ele>
        <time>2023-10-09T14:12:16Z</time>
      </trkpt>
      <trkpt lat="43.66379" lon="6.19485">
        <ele>679</ele>
        <time>2023-10-09T14:12:17Z</time>
      </trkpt>
      <trkpt lat="43.66379" lon="6.19484">
        <ele>679</ele>
        <time>2023-10-09T14:12:18Z</time>
      </trkpt>
      <trkpt lat="43.66379" lon="6.19482">
        <ele>678.9</ele>
        <time>2023-10-09T14:12:19Z</time>
      </trkpt>
      <trkpt lat="43.66379" lon="6.19481">
        <ele>678.9</ele>
        <time>2023-10-09T14:12:20Z</time>
      </trkpt>
      <trkpt lat="43.66379" lon="6.19479">
        <ele>678.8</ele>
        <time>2023-10-09T14:12:21Z</time>
      </trkpt>
      <trkpt lat="43.66379" lon="6.19478">
        <ele>678.8</ele>
        <time>2023-10-09T14:12:22Z</time>
      </trkpt>
      <trkpt lat="43.66379" lon="6.19477">
        <ele>678.7</ele>
        <time>2023-10-09T14:12:23Z</time>
      </trkpt>
      <trkpt lat="43.66379" lon="6.19475">
        <ele>678.7</ele>
        <time>2023-10-09T14:12:24Z</time>
      </trkpt>
      <trkpt lat="43.6638" lon="6.19473">
        <ele>678.7</ele>
        <time>2023-10-09T14:12:25Z</time>
      </trkpt>
      <trkpt lat="43.6638" lon="6.19472">
        <ele>678.7</ele>
        <time>2023-10-09T14:12:26Z</time>
      </trkpt>
      <trkpt lat="43.66379" lon="6.19471">
        <ele>678.5</ele>
        <time>2023-10-09T14:12:27Z</time>
      </trkpt>
      <trkpt lat="43.66379" lon="6.1947">
        <ele>678.4</ele>
        <time>2023-10-09T14:12:28Z</time>
      </trkpt>
      <trkpt lat="43.66379" lon="6.19469">
        <ele>678.4</ele>
        <time>2023-10-09T14:12:29Z</time>
      </trkpt>
      <trkpt lat="43.66379" lon="6.19467">
        <ele>678.3</ele>
        <time>2023-10-09T14:12:30Z</time>
      </trkpt>
      <trkpt lat="43.66379" lon="6.19465">
        <ele>678.1</ele>
        <time>2023-10-09T14:12:31Z</time>
      </trkpt>
      <trkpt lat="43.66379" lon="6.19464">
        <ele>678.1</ele>
        <time>2023-10-09T14:12:32Z</time>
      </trkpt>
      <trkpt lat="43.66379" lon="6.19462">
        <ele>678</ele>
        <time>2023-10-09T14:12:33Z</time>
      </trkpt>
      <trkpt lat="43.66379" lon="6.19461">
        <ele>677.9</ele>
        <time>2023-10-09T14:12:34Z</time>
      </trkpt>
      <trkpt lat="43.66379" lon="6.1946">
        <ele>677.9</ele>
        <time>2023-10-09T14:12:35Z</time>
      </trkpt>
      <trkpt lat="43.66378" lon="6.19458">
        <ele>677.6</ele>
        <time>2023-10-09T14:12:36Z</time>
      </trkpt>
      <trkpt lat="43.66378" lon="6.19457">
        <ele>677.6</ele>
        <time>2023-10-09T14:12:37Z</time>
      </trkpt>
      <trkpt lat="43.66378" lon="6.19455">
        <ele>677.4</ele>
        <time>2023-10-09T14:12:38Z</time>
      </trkpt>
      <trkpt lat="43.66378" lon="6.19454">
        <ele>677.4</ele>
        <time>2023-10-09T14:12:39Z</time>
      </trkpt>
      <trkpt lat="43.66378" lon="6.19452">
        <ele>677.3</ele>
        <time>2023-10-09T14:12:40Z</time>
      </trkpt>
      <trkpt lat="43.66378" lon="6.19451">
        <ele>677.2</ele>
        <time>2023-10-09T14:12:41Z</time>
      </trkpt>
      <trkpt lat="43.66378" lon="6.19449">
        <ele>677.1</ele>
        <time>2023-10-09T14:12:42Z</time>
      </trkpt>
      <trkpt lat="43.66378" lon="6.19448">
        <ele>677</ele>
        <time>2023-10-09T14:12:43Z</time>
      </trkpt>
      <trkpt lat="43.66378" lon="6.19446">
        <ele>676.9</ele>
        <time>2023-10-09T14:12:44Z</time>
      </trkpt>
      <trkpt lat="43.66378" lon="6.19444">
        <ele>676.8</ele>
        <time>2023-10-09T14:12:45Z</time>
      </trkpt>
      <trkpt lat="43.66378" lon="6.19441">
        <ele>676.7</ele>
        <time>2023-10-09T14:12:46Z</time>
      </trkpt>
      <trkpt lat="43.66378" lon="6.1944">
        <ele>676.7</ele>
        <time>2023-10-09T14:12:47Z</time>
      </trkpt>
      <trkpt lat="43.66378" lon="6.19438">
        <ele>676.6</ele>
        <time>2023-10-09T14:12:48Z</time>
      </trkpt>
      <trkpt lat="43.66378" lon="6.19436">
        <ele>676.5</ele>
        <time>2023-10-09T14:12:49Z</time>
      </trkpt>
      <trkpt lat="43.66378" lon="6.19435">
        <ele>676.5</ele>
        <time>2023-10-09T14:12:50Z</time>
      </trkpt>
      <trkpt lat="43.66378" lon="6.19433">
        <ele>676.4</ele>
        <time>2023-10-09T14:12:51Z</time>
      </trkpt>
      <trkpt lat="43.66378" lon="6.19432">
        <ele>676.4</ele>
        <time>2023-10-09T14:12:52Z</time>
      </trkpt>
      <trkpt lat="43.66378" lon="6.1943">
        <ele>676.3</ele>
        <time>2023-10-09T14:12:53Z</time>
      </trkpt>
      <trkpt lat="43.66378" lon="6.19429">
        <ele>676.3</ele>
        <time>2023-10-09T14:12:54Z</time>
      </trkpt>
      <trkpt lat="43.66378" lon="6.19428">
        <ele>676.2</ele>
        <time>2023-10-09T14:12:55Z</time>
      </trkpt>
      <trkpt lat="43.66378" lon="6.19426">
        <ele>676.2</ele>
        <time>2023-10-09T14:12:56Z</time>
      </trkpt>
      <trkpt lat="43.66378" lon="6.19424">
        <ele>676.1</ele>
        <time>2023-10-09T14:12:57Z</time>
      </trkpt>
      <trkpt lat="43.66378" lon="6.19422">
        <ele>676</ele>
        <time>2023-10-09T14:12:58Z</time>
      </trkpt>
      <trkpt lat="43.66378" lon="6.19421">
        <ele>676</ele>
        <time>2023-10-09T14:12:59Z</time>
      </trkpt>
      <trkpt lat="43.66379" lon="6.1942">
        <ele>676.1</ele>
        <time>2023-10-09T14:13:00Z</time>
      </trkpt>
      <trkpt lat="43.66379" lon="6.19418">
        <ele>676</ele>
        <time>2023-10-09T14:13:01Z</time>
      </trkpt>
      <trkpt lat="43.66379" lon="6.19417">
        <ele>675.9</ele>
        <time>2023-10-09T14:13:02Z</time>
      </trkpt>
      <trkpt lat="43.6638" lon="6.19415">
        <ele>676</ele>
        <time>2023-10-09T14:13:03Z</time>
      </trkpt>
      <trkpt lat="43.6638" lon="6.19414">
        <ele>675.9</ele>
        <time>2023-10-09T14:13:04Z</time>
      </trkpt>
      <trkpt lat="43.6638" lon="6.19413">
        <ele>675.9</ele>
        <time>2023-10-09T14:13:05Z</time>
      </trkpt>
      <trkpt lat="43.6638" lon="6.19412">
        <ele>675.8</ele>
        <time>2023-10-09T14:13:06Z</time>
      </trkpt>
      <trkpt lat="43.6638" lon="6.1941">
        <ele>675.7</ele>
        <time>2023-10-09T14:13:07Z</time>
      </trkpt>
      <trkpt lat="43.6638" lon="6.19409">
        <ele>675.7</ele>
        <time>2023-10-09T14:13:08Z</time>
      </trkpt>
      <trkpt lat="43.6638" lon="6.19406">
        <ele>675.5</ele>
        <time>2023-10-09T14:13:09Z</time>
      </trkpt>
      <trkpt lat="43.6638" lon="6.19405">
        <ele>675.5</ele>
        <time>2023-10-09T14:13:10Z</time>
      </trkpt>
      <trkpt lat="43.6638" lon="6.19404">
        <ele>675.4</ele>
        <time>2023-10-09T14:13:11Z</time>
      </trkpt>
      <trkpt lat="43.66379" lon="6.19401">
        <ele>675.2</ele>
        <time>2023-10-09T14:13:12Z</time>
      </trkpt>
      <trkpt lat="43.66379" lon="6.194">
        <ele>675.1</ele>
        <time>2023-10-09T14:13:13Z</time>
      </trkpt>
      <trkpt lat="43.66379" lon="6.19399">
        <ele>675.1</ele>
        <time>2023-10-09T14:13:14Z</time>
      </trkpt>
      <trkpt lat="43.66379" lon="6.19397">
        <ele>675</ele>
        <time>2023-10-09T14:13:15Z</time>
      </trkpt>
      <trkpt lat="43.66379" lon="6.19395">
        <ele>674.9</ele>
        <time>2023-10-09T14:13:16Z</time>
      </trkpt>
      <trkpt lat="43.66379" lon="6.19394">
        <ele>674.8</ele>
        <time>2023-10-09T14:13:17Z</time>
      </trkpt>
      <trkpt lat="43.66379" lon="6.19393">
        <ele>674.8</ele>
        <time>2023-10-09T14:13:18Z</time>
      </trkpt>
      <trkpt lat="43.66379" lon="6.19391">
        <ele>674.7</ele>
        <time>2023-10-09T14:13:19Z</time>
      </trkpt>
      <trkpt lat="43.66379" lon="6.1939">
        <ele>674.6</ele>
        <time>2023-10-09T14:13:20Z</time>
      </trkpt>
      <trkpt lat="43.66379" lon="6.19388">
        <ele>674.5</ele>
        <time>2023-10-09T14:13:21Z</time>
      </trkpt>
      <trkpt lat="43.66379" lon="6.19387">
        <ele>674.5</ele>
        <time>2023-10-09T14:13:22Z</time>
      </trkpt>
      <trkpt lat="43.66379" lon="6.19385">
        <ele>674.3</ele>
        <time>2023-10-09T14:13:23Z</time>
      </trkpt>
      <trkpt lat="43.66379" lon="6.19384">
        <ele>674.3</ele>
        <time>2023-10-09T14:13:24Z</time>
      </trkpt>
      <trkpt lat="43.66379" lon="6.19382">
        <ele>674.2</ele>
        <time>2023-10-09T14:13:25Z</time>
      </trkpt>
      <trkpt lat="43.6638" lon="6.19381">
        <ele>674.2</ele>
        <time>2023-10-09T14:13:26Z</time>
      </trkpt>
      <trkpt lat="43.6638" lon="6.1938">
        <ele>674.2</ele>
        <time>2023-10-09T14:13:27Z</time>
      </trkpt>
      <trkpt lat="43.6638" lon="6.19379">
        <ele>674.1</ele>
        <time>2023-10-09T14:13:28Z</time>
      </trkpt>
      <trkpt lat="43.6638" lon="6.19377">
        <ele>674</ele>
        <time>2023-10-09T14:13:29Z</time>
      </trkpt>
      <trkpt lat="43.6638" lon="6.19374">
        <ele>673.8</ele>
        <time>2023-10-09T14:13:30Z</time>
      </trkpt>
      <trkpt lat="43.66381" lon="6.19373">
        <ele>673.9</ele>
        <time>2023-10-09T14:13:31Z</time>
      </trkpt>
      <trkpt lat="43.66381" lon="6.19372">
        <ele>673.8</ele>
        <time>2023-10-09T14:13:32Z</time>
      </trkpt>
      <trkpt lat="43.66381" lon="6.1937">
        <ele>673.7</ele>
        <time>2023-10-09T14:13:33Z</time>
      </trkpt>
      <trkpt lat="43.66381" lon="6.19369">
        <ele>673.6</ele>
        <time>2023-10-09T14:13:34Z</time>
      </trkpt>
      <trkpt lat="43.66382" lon="6.19368">
        <ele>673.7</ele>
        <time>2023-10-09T14:13:35Z</time>
      </trkpt>
      <trkpt lat="43.66382" lon="6.19365">
        <ele>673.5</ele>
        <time>2023-10-09T14:13:36Z</time>
      </trkpt>
      <trkpt lat="43.66382" lon="6.19364">
        <ele>673.4</ele>
        <time>2023-10-09T14:13:37Z</time>
      </trkpt>
      <trkpt lat="43.66383" lon="6.19363">
        <ele>673.5</ele>
        <time>2023-10-09T14:13:38Z</time>
      </trkpt>
      <trkpt lat="43.66383" lon="6.1936">
        <ele>673.3</ele>
        <time>2023-10-09T14:13:39Z</time>
      </trkpt>
      <trkpt lat="43.66383" lon="6.19359">
        <ele>673.2</ele>
        <time>2023-10-09T14:13:40Z</time>
      </trkpt>
      <trkpt lat="43.66383" lon="6.19357">
        <ele>673</ele>
        <time>2023-10-09T14:13:41Z</time>
      </trkpt>
      <trkpt lat="43.66383" lon="6.19356">
        <ele>672.9</ele>
        <time>2023-10-09T14:13:42Z</time>
      </trkpt>
      <trkpt lat="43.66383" lon="6.19355">
        <ele>672.8</ele>
        <time>2023-10-09T14:13:43Z</time>
      </trkpt>
      <trkpt lat="43.66383" lon="6.19353">
        <ele>672.5</ele>
        <time>2023-10-09T14:13:44Z</time>
      </trkpt>
      <trkpt lat="43.66383" lon="6.19352">
        <ele>672.4</ele>
        <time>2023-10-09T14:13:45Z</time>
      </trkpt>
      <trkpt lat="43.66383" lon="6.1935">
        <ele>672.2</ele>
        <time>2023-10-09T14:13:46Z</time>
      </trkpt>
      <trkpt lat="43.66383" lon="6.19349">
        <ele>672.1</ele>
        <time>2023-10-09T14:13:47Z</time>
      </trkpt>
      <trkpt lat="43.66383" lon="6.19347">
        <ele>671.9</ele>
        <time>2023-10-09T14:13:48Z</time>
      </trkpt>
      <trkpt lat="43.66383" lon="6.19346">
        <ele>671.8</ele>
        <time>2023-10-09T14:13:49Z</time>
      </trkpt>
      <trkpt lat="43.66383" lon="6.19344">
        <ele>671.6</ele>
        <time>2023-10-09T14:13:50Z</time>
      </trkpt>
      <trkpt lat="43.66383" lon="6.19343">
        <ele>671.5</ele>
        <time>2023-10-09T14:13:51Z</time>
      </trkpt>
      <trkpt lat="43.66384" lon="6.19342">
        <ele>671.5</ele>
        <time>2023-10-09T14:13:52Z</time>
      </trkpt>
      <trkpt lat="43.66384" lon="6.19341">
        <ele>671.4</ele>
        <time>2023-10-09T14:13:53Z</time>
      </trkpt>
      <trkpt lat="43.66385" lon="6.19339">
        <ele>671.3</ele>
        <time>2023-10-09T14:13:54Z</time>
      </trkpt>
      <trkpt lat="43.66385" lon="6.19338">
        <ele>671.2</ele>
        <time>2023-10-09T14:13:55Z</time>
      </trkpt>
      <trkpt lat="43.66386" lon="6.19336">
        <ele>671.1</ele>
        <time>2023-10-09T14:13:56Z</time>
      </trkpt>
      <trkpt lat="43.66386" lon="6.19335">
        <ele>671</ele>
        <time>2023-10-09T14:13:57Z</time>
      </trkpt>
      <trkpt lat="43.66387" lon="6.19334">
        <ele>670.9</ele>
        <time>2023-10-09T14:13:58Z</time>
      </trkpt>
      <trkpt lat="43.66387" lon="6.19332">
        <ele>670.8</ele>
        <time>2023-10-09T14:13:59Z</time>
      </trkpt>
      <trkpt lat="43.66387" lon="6.19331">
        <ele>670.7</ele>
        <time>2023-10-09T14:14:00Z</time>
      </trkpt>
      <trkpt lat="43.66388" lon="6.1933">
        <ele>670.7</ele>
        <time>2023-10-09T14:14:01Z</time>
      </trkpt>
      <trkpt lat="43.66388" lon="6.19328">
        <ele>670.5</ele>
        <time>2023-10-09T14:14:02Z</time>
      </trkpt>
      <trkpt lat="43.66389" lon="6.19327">
        <ele>670.6</ele>
        <time>2023-10-09T14:14:03Z</time>
      </trkpt>
      <trkpt lat="43.66389" lon="6.19326">
        <ele>670.5</ele>
        <time>2023-10-09T14:14:04Z</time>
      </trkpt>
      <trkpt lat="43.6639" lon="6.19325">
        <ele>670.5</ele>
        <time>2023-10-09T14:14:05Z</time>
      </trkpt>
      <trkpt lat="43.66389" lon="6.19322">
        <ele>670.2</ele>
        <time>2023-10-09T14:14:06Z</time>
      </trkpt>
      <trkpt lat="43.66389" lon="6.19321">
        <ele>670.1</ele>
        <time>2023-10-09T14:14:07Z</time>
      </trkpt>
      <trkpt lat="43.66389" lon="6.1932">
        <ele>670</ele>
        <time>2023-10-09T14:14:08Z</time>
      </trkpt>
      <trkpt lat="43.66389" lon="6.19318">
        <ele>669.9</ele>
        <time>2023-10-09T14:14:09Z</time>
      </trkpt>
      <trkpt lat="43.6639" lon="6.19316">
        <ele>669.8</ele>
        <time>2023-10-09T14:14:10Z</time>
      </trkpt>
      <trkpt lat="43.6639" lon="6.19314">
        <ele>669.7</ele>
        <time>2023-10-09T14:14:11Z</time>
      </trkpt>
      <trkpt lat="43.6639" lon="6.19312">
        <ele>669.5</ele>
        <time>2023-10-09T14:14:12Z</time>
      </trkpt>
      <trkpt lat="43.6639" lon="6.1931">
        <ele>669.4</ele>
        <time>2023-10-09T14:14:13Z</time>
      </trkpt>
      <trkpt lat="43.66391" lon="6.19309">
        <ele>669.4</ele>
        <time>2023-10-09T14:14:14Z</time>
      </trkpt>
      <trkpt lat="43.66391" lon="6.19307">
        <ele>669.3</ele>
        <time>2023-10-09T14:14:15Z</time>
      </trkpt>
      <trkpt lat="43.66391" lon="6.19306">
        <ele>669.2</ele>
        <time>2023-10-09T14:14:16Z</time>
      </trkpt>
      <trkpt lat="43.66391" lon="6.19304">
        <ele>669</ele>
        <time>2023-10-09T14:14:17Z</time>
      </trkpt>
      <trkpt lat="43.66391" lon="6.19303">
        <ele>668.9</ele>
        <time>2023-10-09T14:14:18Z</time>
      </trkpt>
      <trkpt lat="43.66391" lon="6.19301">
        <ele>668.7</ele>
        <time>2023-10-09T14:14:19Z</time>
      </trkpt>
      <trkpt lat="43.66391" lon="6.193">
        <ele>668.6</ele>
        <time>2023-10-09T14:14:20Z</time>
      </trkpt>
      <trkpt lat="43.66391" lon="6.19299">
        <ele>668.4</ele>
        <time>2023-10-09T14:14:21Z</time>
      </trkpt>
      <trkpt lat="43.66391" lon="6.19297">
        <ele>668.2</ele>
        <time>2023-10-09T14:14:22Z</time>
      </trkpt>
      <trkpt lat="43.66391" lon="6.19296">
        <ele>668.1</ele>
        <time>2023-10-09T14:14:23Z</time>
      </trkpt>
      <trkpt lat="43.66391" lon="6.19294">
        <ele>667.9</ele>
        <time>2023-10-09T14:14:24Z</time>
      </trkpt>
      <trkpt lat="43.66391" lon="6.19293">
        <ele>667.8</ele>
        <time>2023-10-09T14:14:25Z</time>
      </trkpt>
      <trkpt lat="43.66391" lon="6.19292">
        <ele>667.7</ele>
        <time>2023-10-09T14:14:26Z</time>
      </trkpt>
      <trkpt lat="43.66391" lon="6.19291">
        <ele>667.6</ele>
        <time>2023-10-09T14:14:27Z</time>
      </trkpt>
      <trkpt lat="43.66391" lon="6.1929">
        <ele>667.5</ele>
        <time>2023-10-09T14:14:28Z</time>
      </trkpt>
      <trkpt lat="43.66391" lon="6.19288">
        <ele>667.3</ele>
        <time>2023-10-09T14:14:29Z</time>
      </trkpt>
      <trkpt lat="43.66391" lon="6.19286">
        <ele>667</ele>
        <time>2023-10-09T14:14:30Z</time>
      </trkpt>
      <trkpt lat="43.66391" lon="6.19285">
        <ele>666.9</ele>
        <time>2023-10-09T14:14:31Z</time>
      </trkpt>
      <trkpt lat="43.66391" lon="6.19284">
        <ele>666.8</ele>
        <time>2023-10-09T14:14:32Z</time>
      </trkpt>
      <trkpt lat="43.66392" lon="6.19283">
        <ele>666.8</ele>
        <time>2023-10-09T14:14:33Z</time>
      </trkpt>
      <trkpt lat="43.66391" lon="6.19282">
        <ele>666.6</ele>
        <time>2023-10-09T14:14:34Z</time>
      </trkpt>
      <trkpt lat="43.66392" lon="6.1928">
        <ele>666.5</ele>
        <time>2023-10-09T14:14:35Z</time>
      </trkpt>
      <trkpt lat="43.66392" lon="6.19279">
        <ele>666.4</ele>
        <time>2023-10-09T14:14:36Z</time>
      </trkpt>
      <trkpt lat="43.66391" lon="6.19277">
        <ele>666.1</ele>
        <time>2023-10-09T14:14:37Z</time>
      </trkpt>
      <trkpt lat="43.66391" lon="6.19276">
        <ele>666</ele>
        <time>2023-10-09T14:14:38Z</time>
      </trkpt>
      <trkpt lat="43.66391" lon="6.19274">
        <ele>665.9</ele>
        <time>2023-10-09T14:14:39Z</time>
      </trkpt>
      <trkpt lat="43.66391" lon="6.19273">
        <ele>665.8</ele>
        <time>2023-10-09T14:14:40Z</time>
      </trkpt>
      <trkpt lat="43.66391" lon="6.19272">
        <ele>665.7</ele>
        <time>2023-10-09T14:14:41Z</time>
      </trkpt>
      <trkpt lat="43.66391" lon="6.1927">
        <ele>665.6</ele>
        <time>2023-10-09T14:14:42Z</time>
      </trkpt>
      <trkpt lat="43.66391" lon="6.19268">
        <ele>665.4</ele>
        <time>2023-10-09T14:14:43Z</time>
      </trkpt>
      <trkpt lat="43.66392" lon="6.19266">
        <ele>665.3</ele>
        <time>2023-10-09T14:14:44Z</time>
      </trkpt>
      <trkpt lat="43.66392" lon="6.19264">
        <ele>665.2</ele>
        <time>2023-10-09T14:14:45Z</time>
      </trkpt>
      <trkpt lat="43.66392" lon="6.19263">
        <ele>665.1</ele>
        <time>2023-10-09T14:14:46Z</time>
      </trkpt>
      <trkpt lat="43.66392" lon="6.19261">
        <ele>664.9</ele>
        <time>2023-10-09T14:14:47Z</time>
      </trkpt>
      <trkpt lat="43.66392" lon="6.1926">
        <ele>664.9</ele>
        <time>2023-10-09T14:14:48Z</time>
      </trkpt>
      <trkpt lat="43.66392" lon="6.1926">
        <ele>664.9</ele>
        <time>2023-10-09T14:14:49Z</time>
      </trkpt>
      <trkpt lat="43.66391" lon="6.19258">
        <ele>664.7</ele>
        <time>2023-10-09T14:14:50Z</time>
      </trkpt>
      <trkpt lat="43.66391" lon="6.19257">
        <ele>664.6</ele>
        <time>2023-10-09T14:14:51Z</time>
      </trkpt>
      <trkpt lat="43.66391" lon="6.19256">
        <ele>664.5</ele>
        <time>2023-10-09T14:14:52Z</time>
      </trkpt>
      <trkpt lat="43.66391" lon="6.19253">
        <ele>664.3</ele>
        <time>2023-10-09T14:14:53Z</time>
      </trkpt>
      <trkpt lat="43.66391" lon="6.19252">
        <ele>664.2</ele>
        <time>2023-10-09T14:14:54Z</time>
      </trkpt>
      <trkpt lat="43.66391" lon="6.19251">
        <ele>664.2</ele>
        <time>2023-10-09T14:14:55Z</time>
      </trkpt>
      <trkpt lat="43.66391" lon="6.19249">
        <ele>664</ele>
        <time>2023-10-09T14:14:56Z</time>
      </trkpt>
      <trkpt lat="43.66392" lon="6.19247">
        <ele>663.8</ele>
        <time>2023-10-09T14:14:57Z</time>
      </trkpt>
      <trkpt lat="43.66392" lon="6.19246">
        <ele>663.7</ele>
        <time>2023-10-09T14:14:58Z</time>
      </trkpt>
      <trkpt lat="43.66392" lon="6.19244">
        <ele>663.5</ele>
        <time>2023-10-09T14:14:59Z</time>
      </trkpt>
      <trkpt lat="43.66392" lon="6.19243">
        <ele>663.4</ele>
        <time>2023-10-09T14:15:00Z</time>
      </trkpt>
      <trkpt lat="43.66392" lon="6.19241">
        <ele>663.2</ele>
        <time>2023-10-09T14:15:01Z</time>
      </trkpt>
      <trkpt lat="43.66392" lon="6.19239">
        <ele>663</ele>
        <time>2023-10-09T14:15:02Z</time>
      </trkpt>
      <trkpt lat="43.66392" lon="6.19237">
        <ele>662.8</ele>
        <time>2023-10-09T14:15:03Z</time>
      </trkpt>
      <trkpt lat="43.66392" lon="6.19236">
        <ele>662.7</ele>
        <time>2023-10-09T14:15:04Z</time>
      </trkpt>
      <trkpt lat="43.66393" lon="6.19233">
        <ele>662.4</ele>
        <time>2023-10-09T14:15:05Z</time>
      </trkpt>
      <trkpt lat="43.66393" lon="6.19232">
        <ele>662.3</ele>
        <time>2023-10-09T14:15:06Z</time>
      </trkpt>
      <trkpt lat="43.66393" lon="6.19231">
        <ele>662.2</ele>
        <time>2023-10-09T14:15:07Z</time>
      </trkpt>
      <trkpt lat="43.66393" lon="6.1923">
        <ele>662.1</ele>
        <time>2023-10-09T14:15:08Z</time>
      </trkpt>
      <trkpt lat="43.66393" lon="6.19228">
        <ele>661.9</ele>
        <time>2023-10-09T14:15:09Z</time>
      </trkpt>
      <trkpt lat="43.66394" lon="6.19227">
        <ele>661.9</ele>
        <time>2023-10-09T14:15:10Z</time>
      </trkpt>
      <trkpt lat="43.66394" lon="6.19225">
        <ele>661.6</ele>
        <time>2023-10-09T14:15:11Z</time>
      </trkpt>
      <trkpt lat="43.66395" lon="6.19224">
        <ele>661.6</ele>
        <time>2023-10-09T14:15:12Z</time>
      </trkpt>
      <trkpt lat="43.66395" lon="6.19222">
        <ele>661.4</ele>
        <time>2023-10-09T14:15:13Z</time>
      </trkpt>
      <trkpt lat="43.66395" lon="6.19221">
        <ele>661.4</ele>
        <time>2023-10-09T14:15:14Z</time>
      </trkpt>
      <trkpt lat="43.66396" lon="6.1922">
        <ele>661.4</ele>
        <time>2023-10-09T14:15:15Z</time>
      </trkpt>
      <trkpt lat="43.66396" lon="6.19219">
        <ele>661.3</ele>
        <time>2023-10-09T14:15:16Z</time>
      </trkpt>
      <trkpt lat="43.66396" lon="6.19217">
        <ele>661.1</ele>
        <time>2023-10-09T14:15:17Z</time>
      </trkpt>
      <trkpt lat="43.66396" lon="6.19216">
        <ele>661.1</ele>
        <time>2023-10-09T14:15:18Z</time>
      </trkpt>
      <trkpt lat="43.66396" lon="6.19214">
        <ele>660.9</ele>
        <time>2023-10-09T14:15:19Z</time>
      </trkpt>
      <trkpt lat="43.66396" lon="6.19213">
        <ele>660.8</ele>
        <time>2023-10-09T14:15:20Z</time>
      </trkpt>
      <trkpt lat="43.66396" lon="6.19212">
        <ele>660.8</ele>
        <time>2023-10-09T14:15:21Z</time>
      </trkpt>
      <trkpt lat="43.66397" lon="6.19209">
        <ele>660.6</ele>
        <time>2023-10-09T14:15:23Z</time>
      </trkpt>
      <trkpt lat="43.66397" lon="6.19207">
        <ele>660.5</ele>
        <time>2023-10-09T14:15:24Z</time>
      </trkpt>
      <trkpt lat="43.66397" lon="6.19206">
        <ele>660.4</ele>
        <time>2023-10-09T14:15:25Z</time>
      </trkpt>
      <trkpt lat="43.66398" lon="6.19204">
        <ele>660.3</ele>
        <time>2023-10-09T14:15:26Z</time>
      </trkpt>
      <trkpt lat="43.66399" lon="6.19202">
        <ele>660.3</ele>
        <time>2023-10-09T14:15:27Z</time>
      </trkpt>
      <trkpt lat="43.66399" lon="6.19201">
        <ele>660.2</ele>
        <time>2023-10-09T14:15:28Z</time>
      </trkpt>
      <trkpt lat="43.66399" lon="6.192">
        <ele>660.1</ele>
        <time>2023-10-09T14:15:29Z</time>
      </trkpt>
      <trkpt lat="43.664" lon="6.19198">
        <ele>660.1</ele>
        <time>2023-10-09T14:15:30Z</time>
      </trkpt>
      <trkpt lat="43.66401" lon="6.19197">
        <ele>660.1</ele>
        <time>2023-10-09T14:15:31Z</time>
      </trkpt>
      <trkpt lat="43.66401" lon="6.19196">
        <ele>660</ele>
        <time>2023-10-09T14:15:32Z</time>
      </trkpt>
      <trkpt lat="43.66402" lon="6.19193">
        <ele>659.8</ele>
        <time>2023-10-09T14:15:33Z</time>
      </trkpt>
      <trkpt lat="43.66402" lon="6.19192">
        <ele>659.8</ele>
        <time>2023-10-09T14:15:34Z</time>
      </trkpt>
      <trkpt lat="43.66402" lon="6.19191">
        <ele>659.7</ele>
        <time>2023-10-09T14:15:35Z</time>
      </trkpt>
      <trkpt lat="43.66403" lon="6.19189">
        <ele>659.6</ele>
        <time>2023-10-09T14:15:36Z</time>
      </trkpt>
      <trkpt lat="43.66403" lon="6.19187">
        <ele>659.5</ele>
        <time>2023-10-09T14:15:37Z</time>
      </trkpt>
      <trkpt lat="43.66404" lon="6.19186">
        <ele>659.5</ele>
        <time>2023-10-09T14:15:38Z</time>
      </trkpt>
      <trkpt lat="43.66404" lon="6.19184">
        <ele>659.3</ele>
        <time>2023-10-09T14:15:39Z</time>
      </trkpt>
      <trkpt lat="43.66405" lon="6.19183">
        <ele>659.3</ele>
        <time>2023-10-09T14:15:40Z</time>
      </trkpt>
      <trkpt lat="43.66406" lon="6.19182">
        <ele>659.3</ele>
        <time>2023-10-09T14:15:41Z</time>
      </trkpt>
      <trkpt lat="43.66406" lon="6.19181">
        <ele>659.3</ele>
        <time>2023-10-09T14:15:42Z</time>
      </trkpt>
      <trkpt lat="43.66406" lon="6.1918">
        <ele>659.2</ele>
        <time>2023-10-09T14:15:43Z</time>
      </trkpt>
      <trkpt lat="43.66407" lon="6.19179">
        <ele>659.2</ele>
        <time>2023-10-09T14:15:44Z</time>
      </trkpt>
      <trkpt lat="43.66408" lon="6.19177">
        <ele>659.1</ele>
        <time>2023-10-09T14:15:45Z</time>
      </trkpt>
      <trkpt lat="43.66408" lon="6.19176">
        <ele>659</ele>
        <time>2023-10-09T14:15:46Z</time>
      </trkpt>
      <trkpt lat="43.66409" lon="6.19175">
        <ele>659</ele>
        <time>2023-10-09T14:15:47Z</time>
      </trkpt>
      <trkpt lat="43.66409" lon="6.19173">
        <ele>658.9</ele>
        <time>2023-10-09T14:15:48Z</time>
      </trkpt>
      <trkpt lat="43.6641" lon="6.19172">
        <ele>658.9</ele>
        <time>2023-10-09T14:15:49Z</time>
      </trkpt>
      <trkpt lat="43.66411" lon="6.19171">
        <ele>658.9</ele>
        <time>2023-10-09T14:15:50Z</time>
      </trkpt>
      <trkpt lat="43.66411" lon="6.1917">
        <ele>658.8</ele>
        <time>2023-10-09T14:15:51Z</time>
      </trkpt>
      <trkpt lat="43.66412" lon="6.19168">
        <ele>658.8</ele>
        <time>2023-10-09T14:15:52Z</time>
      </trkpt>
      <trkpt lat="43.66413" lon="6.19166">
        <ele>658.7</ele>
        <time>2023-10-09T14:15:53Z</time>
      </trkpt>
      <trkpt lat="43.66413" lon="6.19164">
        <ele>658.6</ele>
        <time>2023-10-09T14:15:54Z</time>
      </trkpt>
      <trkpt lat="43.66414" lon="6.19163">
        <ele>658.7</ele>
        <time>2023-10-09T14:15:55Z</time>
      </trkpt>
      <trkpt lat="43.66415" lon="6.19161">
        <ele>658.7</ele>
        <time>2023-10-09T14:15:56Z</time>
      </trkpt>
      <trkpt lat="43.66415" lon="6.1916">
        <ele>658.6</ele>
        <time>2023-10-09T14:15:57Z</time>
      </trkpt>
      <trkpt lat="43.66415" lon="6.19159">
        <ele>658.6</ele>
        <time>2023-10-09T14:15:58Z</time>
      </trkpt>
      <trkpt lat="43.66416" lon="6.19158">
        <ele>658.6</ele>
        <time>2023-10-09T14:15:59Z</time>
      </trkpt>
      <trkpt lat="43.66416" lon="6.19156">
        <ele>658.6</ele>
        <time>2023-10-09T14:16:00Z</time>
      </trkpt>
      <trkpt lat="43.66417" lon="6.19154">
        <ele>658.6</ele>
        <time>2023-10-09T14:16:01Z</time>
      </trkpt>
      <trkpt lat="43.66417" lon="6.19152">
        <ele>658.5</ele>
        <time>2023-10-09T14:16:02Z</time>
      </trkpt>
      <trkpt lat="43.66417" lon="6.19151">
        <ele>658.5</ele>
        <time>2023-10-09T14:16:03Z</time>
      </trkpt>
      <trkpt lat="43.66418" lon="6.19148">
        <ele>658.4</ele>
        <time>2023-10-09T14:16:04Z</time>
      </trkpt>
      <trkpt lat="43.66419" lon="6.19147">
        <ele>658.5</ele>
        <time>2023-10-09T14:16:05Z</time>
      </trkpt>
      <trkpt lat="43.66419" lon="6.19147">
        <ele>658.5</ele>
        <time>2023-10-09T14:16:06Z</time>
      </trkpt>
      <trkpt lat="43.6642" lon="6.19143">
        <ele>658.4</ele>
        <time>2023-10-09T14:16:07Z</time>
      </trkpt>
      <trkpt lat="43.6642" lon="6.19142">
        <ele>658.4</ele>
        <time>2023-10-09T14:16:08Z</time>
      </trkpt>
      <trkpt lat="43.6642" lon="6.19141">
        <ele>658.3</ele>
        <time>2023-10-09T14:16:09Z</time>
      </trkpt>
      <trkpt lat="43.66421" lon="6.19138">
        <ele>658.3</ele>
        <time>2023-10-09T14:16:10Z</time>
      </trkpt>
      <trkpt lat="43.66422" lon="6.19137">
        <ele>658.3</ele>
        <time>2023-10-09T14:16:11Z</time>
      </trkpt>
      <trkpt lat="43.66422" lon="6.19136">
        <ele>658.3</ele>
        <time>2023-10-09T14:16:12Z</time>
      </trkpt>
      <trkpt lat="43.66423" lon="6.19135">
        <ele>658.3</ele>
        <time>2023-10-09T14:16:13Z</time>
      </trkpt>
      <trkpt lat="43.66423" lon="6.19133">
        <ele>658.3</ele>
        <time>2023-10-09T14:16:14Z</time>
      </trkpt>
      <trkpt lat="43.66424" lon="6.19132">
        <ele>658.3</ele>
        <time>2023-10-09T14:16:15Z</time>
      </trkpt>
      <trkpt lat="43.66425" lon="6.19131">
        <ele>658.4</ele>
        <time>2023-10-09T14:16:16Z</time>
      </trkpt>
      <trkpt lat="43.66425" lon="6.1913">
        <ele>658.4</ele>
        <time>2023-10-09T14:16:17Z</time>
      </trkpt>
      <trkpt lat="43.66425" lon="6.19129">
        <ele>658.4</ele>
        <time>2023-10-09T14:16:18Z</time>
      </trkpt>
      <trkpt lat="43.66425" lon="6.19128">
        <ele>658.3</ele>
        <time>2023-10-09T14:16:19Z</time>
      </trkpt>
      <trkpt lat="43.66425" lon="6.19127">
        <ele>658.3</ele>
        <time>2023-10-09T14:16:20Z</time>
      </trkpt>
      <trkpt lat="43.66425" lon="6.19126">
        <ele>658.3</ele>
        <time>2023-10-09T14:16:21Z</time>
      </trkpt>
      <trkpt lat="43.66425" lon="6.19124">
        <ele>658.2</ele>
        <time>2023-10-09T14:16:22Z</time>
      </trkpt>
      <trkpt lat="43.66426" lon="6.19122">
        <ele>658.3</ele>
        <time>2023-10-09T14:16:23Z</time>
      </trkpt>
      <trkpt lat="43.66426" lon="6.1912">
        <ele>658.2</ele>
        <time>2023-10-09T14:16:24Z</time>
      </trkpt>
      <trkpt lat="43.66426" lon="6.19119">
        <ele>658.2</ele>
        <time>2023-10-09T14:16:25Z</time>
      </trkpt>
      <trkpt lat="43.66426" lon="6.19117">
        <ele>658.1</ele>
        <time>2023-10-09T14:16:26Z</time>
      </trkpt>
      <trkpt lat="43.66426" lon="6.19116">
        <ele>658.1</ele>
        <time>2023-10-09T14:16:27Z</time>
      </trkpt>
      <trkpt lat="43.66426" lon="6.19114">
        <ele>658.1</ele>
        <time>2023-10-09T14:16:28Z</time>
      </trkpt>
      <trkpt lat="43.66426" lon="6.19112">
        <ele>658</ele>
        <time>2023-10-09T14:16:29Z</time>
      </trkpt>
      <trkpt lat="43.66426" lon="6.1911">
        <ele>658</ele>
        <time>2023-10-09T14:16:30Z</time>
      </trkpt>
      <trkpt lat="43.66427" lon="6.19108">
        <ele>658.1</ele>
        <time>2023-10-09T14:16:31Z</time>
      </trkpt>
      <trkpt lat="43.66427" lon="6.19106">
        <ele>658</ele>
        <time>2023-10-09T14:16:32Z</time>
      </trkpt>
      <trkpt lat="43.66427" lon="6.19105">
        <ele>658</ele>
        <time>2023-10-09T14:16:33Z</time>
      </trkpt>
      <trkpt lat="43.66427" lon="6.19104">
        <ele>658</ele>
        <time>2023-10-09T14:16:34Z</time>
      </trkpt>
      <trkpt lat="43.66428" lon="6.19102">
        <ele>658.1</ele>
        <time>2023-10-09T14:16:35Z</time>
      </trkpt>
      <trkpt lat="43.66428" lon="6.191">
        <ele>658.1</ele>
        <time>2023-10-09T14:16:36Z</time>
      </trkpt>
      <trkpt lat="43.66429" lon="6.19098">
        <ele>658.1</ele>
        <time>2023-10-09T14:16:37Z</time>
      </trkpt>
      <trkpt lat="43.66429" lon="6.19096">
        <ele>658.1</ele>
        <time>2023-10-09T14:16:38Z</time>
      </trkpt>
      <trkpt lat="43.6643" lon="6.19093">
        <ele>658.1</ele>
        <time>2023-10-09T14:16:39Z</time>
      </trkpt>
      <trkpt lat="43.66431" lon="6.19091">
        <ele>658.2</ele>
        <time>2023-10-09T14:16:40Z</time>
      </trkpt>
      <trkpt lat="43.66431" lon="6.1909">
        <ele>658.2</ele>
        <time>2023-10-09T14:16:41Z</time>
      </trkpt>
      <trkpt lat="43.66431" lon="6.19089">
        <ele>658.1</ele>
        <time>2023-10-09T14:16:42Z</time>
      </trkpt>
      <trkpt lat="43.66432" lon="6.19086">
        <ele>658.2</ele>
        <time>2023-10-09T14:16:43Z</time>
      </trkpt>
      <trkpt lat="43.66432" lon="6.19085">
        <ele>658.1</ele>
        <time>2023-10-09T14:16:44Z</time>
      </trkpt>
      <trkpt lat="43.66433" lon="6.19084">
        <ele>658.2</ele>
        <time>2023-10-09T14:16:45Z</time>
      </trkpt>
      <trkpt lat="43.66433" lon="6.19081">
        <ele>658.1</ele>
        <time>2023-10-09T14:16:46Z</time>
      </trkpt>
      <trkpt lat="43.66434" lon="6.1908">
        <ele>658.1</ele>
        <time>2023-10-09T14:16:47Z</time>
      </trkpt>
      <trkpt lat="43.66434" lon="6.19079">
        <ele>658.1</ele>
        <time>2023-10-09T14:16:48Z</time>
      </trkpt>
      <trkpt lat="43.66434" lon="6.19077">
        <ele>658</ele>
        <time>2023-10-09T14:16:49Z</time>
      </trkpt>
      <trkpt lat="43.66435" lon="6.19076">
        <ele>658.1</ele>
        <time>2023-10-09T14:16:50Z</time>
      </trkpt>
      <trkpt lat="43.66435" lon="6.19075">
        <ele>658</ele>
        <time>2023-10-09T14:16:51Z</time>
      </trkpt>
      <trkpt lat="43.66435" lon="6.19073">
        <ele>657.9</ele>
        <time>2023-10-09T14:16:52Z</time>
      </trkpt>
      <trkpt lat="43.66435" lon="6.19072">
        <ele>657.9</ele>
        <time>2023-10-09T14:16:53Z</time>
      </trkpt>
      <trkpt lat="43.66435" lon="6.19071">
        <ele>657.9</ele>
        <time>2023-10-09T14:16:54Z</time>
      </trkpt>
      <trkpt lat="43.66436" lon="6.19069">
        <ele>657.9</ele>
        <time>2023-10-09T14:16:55Z</time>
      </trkpt>
      <trkpt lat="43.66436" lon="6.19067">
        <ele>657.8</ele>
        <time>2023-10-09T14:16:56Z</time>
      </trkpt>
      <trkpt lat="43.66436" lon="6.19066">
        <ele>657.8</ele>
        <time>2023-10-09T14:16:57Z</time>
      </trkpt>
      <trkpt lat="43.66437" lon="6.19064">
        <ele>657.8</ele>
        <time>2023-10-09T14:16:58Z</time>
      </trkpt>
      <trkpt lat="43.66437" lon="6.19063">
        <ele>657.7</ele>
        <time>2023-10-09T14:16:59Z</time>
      </trkpt>
      <trkpt lat="43.66437" lon="6.19062">
        <ele>657.7</ele>
        <time>2023-10-09T14:17:00Z</time>
      </trkpt>
      <trkpt lat="43.66438" lon="6.19061">
        <ele>657.7</ele>
        <time>2023-10-09T14:17:01Z</time>
      </trkpt>
      <trkpt lat="43.66439" lon="6.19059">
        <ele>657.7</ele>
        <time>2023-10-09T14:17:02Z</time>
      </trkpt>
      <trkpt lat="43.66439" lon="6.19058">
        <ele>657.7</ele>
        <time>2023-10-09T14:17:03Z</time>
      </trkpt>
      <trkpt lat="43.6644" lon="6.19057">
        <ele>657.7</ele>
        <time>2023-10-09T14:17:04Z</time>
      </trkpt>
      <trkpt lat="43.6644" lon="6.19056">
        <ele>657.7</ele>
        <time>2023-10-09T14:17:05Z</time>
      </trkpt>
      <trkpt lat="43.66441" lon="6.19055">
        <ele>657.7</ele>
        <time>2023-10-09T14:17:06Z</time>
      </trkpt>
      <trkpt lat="43.66442" lon="6.19054">
        <ele>657.8</ele>
        <time>2023-10-09T14:17:07Z</time>
      </trkpt>
      <trkpt lat="43.66442" lon="6.19053">
        <ele>657.7</ele>
        <time>2023-10-09T14:17:08Z</time>
      </trkpt>
      <trkpt lat="43.66442" lon="6.19052">
        <ele>657.7</ele>
        <time>2023-10-09T14:17:09Z</time>
      </trkpt>
      <trkpt lat="43.66442" lon="6.1905">
        <ele>657.6</ele>
        <time>2023-10-09T14:17:10Z</time>
      </trkpt>
      <trkpt lat="43.66443" lon="6.19049">
        <ele>657.7</ele>
        <time>2023-10-09T14:17:11Z</time>
      </trkpt>
      <trkpt lat="43.66444" lon="6.19047">
        <ele>657.7</ele>
        <time>2023-10-09T14:17:12Z</time>
      </trkpt>
      <trkpt lat="43.66444" lon="6.19045">
        <ele>657.6</ele>
        <time>2023-10-09T14:17:13Z</time>
      </trkpt>
      <trkpt lat="43.66445" lon="6.19043">
        <ele>657.6</ele>
        <time>2023-10-09T14:17:14Z</time>
      </trkpt>
      <trkpt lat="43.66446" lon="6.1904">
        <ele>657.6</ele>
        <time>2023-10-09T14:17:15Z</time>
      </trkpt>
      <trkpt lat="43.66446" lon="6.19039">
        <ele>657.6</ele>
        <time>2023-10-09T14:17:16Z</time>
      </trkpt>
      <trkpt lat="43.66446" lon="6.19038">
        <ele>657.5</ele>
        <time>2023-10-09T14:17:17Z</time>
      </trkpt>
      <trkpt lat="43.66447" lon="6.19036">
        <ele>657.6</ele>
        <time>2023-10-09T14:17:18Z</time>
      </trkpt>
      <trkpt lat="43.66447" lon="6.19035">
        <ele>657.5</ele>
        <time>2023-10-09T14:17:19Z</time>
      </trkpt>
      <trkpt lat="43.66448" lon="6.19033">
        <ele>657.6</ele>
        <time>2023-10-09T14:17:20Z</time>
      </trkpt>
      <trkpt lat="43.66448" lon="6.19031">
        <ele>657.5</ele>
        <time>2023-10-09T14:17:21Z</time>
      </trkpt>
      <trkpt lat="43.66449" lon="6.19029">
        <ele>657.5</ele>
        <time>2023-10-09T14:17:22Z</time>
      </trkpt>
      <trkpt lat="43.66449" lon="6.19027">
        <ele>657.5</ele>
        <time>2023-10-09T14:17:23Z</time>
      </trkpt>
      <trkpt lat="43.6645" lon="6.19026">
        <ele>657.5</ele>
        <time>2023-10-09T14:17:24Z</time>
      </trkpt>
      <trkpt lat="43.6645" lon="6.19025">
        <ele>657.5</ele>
        <time>2023-10-09T14:17:25Z</time>
      </trkpt>
      <trkpt lat="43.6645" lon="6.19023">
        <ele>657.4</ele>
        <time>2023-10-09T14:17:26Z</time>
      </trkpt>
      <trkpt lat="43.66451" lon="6.19022">
        <ele>657.5</ele>
        <time>2023-10-09T14:17:27Z</time>
      </trkpt>
      <trkpt lat="43.66451" lon="6.19021">
        <ele>657.4</ele>
        <time>2023-10-09T14:17:28Z</time>
      </trkpt>
      <trkpt lat="43.66451" lon="6.19019">
        <ele>657.3</ele>
        <time>2023-10-09T14:17:29Z</time>
      </trkpt>
      <trkpt lat="43.66451" lon="6.19018">
        <ele>657.3</ele>
        <time>2023-10-09T14:17:30Z</time>
      </trkpt>
      <trkpt lat="43.66451" lon="6.19016">
        <ele>657.2</ele>
        <time>2023-10-09T14:17:31Z</time>
      </trkpt>
      <trkpt lat="43.66452" lon="6.19015">
        <ele>657.2</ele>
        <time>2023-10-09T14:17:32Z</time>
      </trkpt>
      <trkpt lat="43.66452" lon="6.19013">
        <ele>657.1</ele>
        <time>2023-10-09T14:17:33Z</time>
      </trkpt>
      <trkpt lat="43.66452" lon="6.19012">
        <ele>657.1</ele>
        <time>2023-10-09T14:17:34Z</time>
      </trkpt>
      <trkpt lat="43.66453" lon="6.19011">
        <ele>657.1</ele>
        <time>2023-10-09T14:17:35Z</time>
      </trkpt>
      <trkpt lat="43.66453" lon="6.19008">
        <ele>657</ele>
        <time>2023-10-09T14:17:36Z</time>
      </trkpt>
      <trkpt lat="43.66453" lon="6.19007">
        <ele>656.9</ele>
        <time>2023-10-09T14:17:37Z</time>
      </trkpt>
      <trkpt lat="43.66454" lon="6.19005">
        <ele>656.9</ele>
        <time>2023-10-09T14:17:38Z</time>
      </trkpt>
      <trkpt lat="43.66454" lon="6.19003">
        <ele>656.8</ele>
        <time>2023-10-09T14:17:39Z</time>
      </trkpt>
      <trkpt lat="43.66454" lon="6.19002">
        <ele>656.8</ele>
        <time>2023-10-09T14:17:40Z</time>
      </trkpt>
      <trkpt lat="43.66455" lon="6.19">
        <ele>656.8</ele>
        <time>2023-10-09T14:17:41Z</time>
      </trkpt>
      <trkpt lat="43.66454" lon="6.18999">
        <ele>656.6</ele>
        <time>2023-10-09T14:17:42Z</time>
      </trkpt>
      <trkpt lat="43.66454" lon="6.18997">
        <ele>656.5</ele>
        <time>2023-10-09T14:17:43Z</time>
      </trkpt>
      <trkpt lat="43.66455" lon="6.18996">
        <ele>656.5</ele>
        <time>2023-10-09T14:17:44Z</time>
      </trkpt>
      <trkpt lat="43.66455" lon="6.18994">
        <ele>656.4</ele>
        <time>2023-10-09T14:17:45Z</time>
      </trkpt>
      <trkpt lat="43.66455" lon="6.18992">
        <ele>656.3</ele>
        <time>2023-10-09T14:17:46Z</time>
      </trkpt>
      <trkpt lat="43.66455" lon="6.18991">
        <ele>656.2</ele>
        <time>2023-10-09T14:17:47Z</time>
      </trkpt>
      <trkpt lat="43.66455" lon="6.1899">
        <ele>656.2</ele>
        <time>2023-10-09T14:17:48Z</time>
      </trkpt>
      <trkpt lat="43.66455" lon="6.18989">
        <ele>656.1</ele>
        <time>2023-10-09T14:17:49Z</time>
      </trkpt>
      <trkpt lat="43.66456" lon="6.18987">
        <ele>656.1</ele>
        <time>2023-10-09T14:17:50Z</time>
      </trkpt>
      <trkpt lat="43.66456" lon="6.18986">
        <ele>656</ele>
        <time>2023-10-09T14:17:51Z</time>
      </trkpt>
      <trkpt lat="43.66456" lon="6.18986">
        <ele>656</ele>
        <time>2023-10-09T14:17:52Z</time>
      </trkpt>
      <trkpt lat="43.66456" lon="6.18986">
        <ele>656</ele>
        <time>2023-10-09T14:17:54Z</time>
      </trkpt>
      <trkpt lat="43.66456" lon="6.18986">
        <ele>656</ele>
        <time>2023-10-09T14:17:55Z</time>
      </trkpt>
      <trkpt lat="43.66456" lon="6.18986">
        <ele>656</ele>
        <time>2023-10-09T14:17:56Z</time>
      </trkpt>
      <trkpt lat="43.66456" lon="6.18986">
        <ele>656</ele>
        <time>2023-10-09T14:17:57Z</time>
      </trkpt>
      <trkpt lat="43.66456" lon="6.18986">
        <ele>656</ele>
        <time>2023-10-09T14:17:58Z</time>
      </trkpt>
      <trkpt lat="43.66456" lon="6.18986">
        <ele>656</ele>
        <time>2023-10-09T14:17:59Z</time>
      </trkpt>
      <trkpt lat="43.66456" lon="6.18986">
        <ele>656</ele>
        <time>2023-10-09T14:18:00Z</time>
      </trkpt>
      <trkpt lat="43.66456" lon="6.18986">
        <ele>656</ele>
        <time>2023-10-09T14:18:01Z</time>
      </trkpt>
      <trkpt lat="43.66456" lon="6.18986">
        <ele>656</ele>
        <time>2023-10-09T14:18:02Z</time>
      </trkpt>
      <trkpt lat="43.66456" lon="6.18986">
        <ele>656</ele>
        <time>2023-10-09T14:18:03Z</time>
      </trkpt>
      <trkpt lat="43.66456" lon="6.18986">
        <ele>656</ele>
        <time>2023-10-09T14:18:04Z</time>
      </trkpt>
      <trkpt lat="43.66456" lon="6.18986">
        <ele>656</ele>
        <time>2023-10-09T14:18:05Z</time>
      </trkpt>
      <trkpt lat="43.66456" lon="6.18986">
        <ele>656</ele>
        <time>2023-10-09T14:18:06Z</time>
      </trkpt>
      <trkpt lat="43.66456" lon="6.18986">
        <ele>656</ele>
        <time>2023-10-09T14:18:07Z</time>
      </trkpt>
      <trkpt lat="43.66456" lon="6.18986">
        <ele>656</ele>
        <time>2023-10-09T14:18:08Z</time>
      </trkpt>
      <trkpt lat="43.66456" lon="6.18986">
        <ele>656</ele>
        <time>2023-10-09T14:18:09Z</time>
      </trkpt>
      <trkpt lat="43.66456" lon="6.18986">
        <ele>656</ele>
        <time>2023-10-09T14:18:10Z</time>
      </trkpt>
      <trkpt lat="43.66456" lon="6.18986">
        <ele>656</ele>
        <time>2023-10-09T14:18:11Z</time>
      </trkpt>
      <trkpt lat="43.66456" lon="6.18986">
        <ele>656</ele>
        <time>2023-10-09T14:18:12Z</time>
      </trkpt>
      <trkpt lat="43.66456" lon="6.18986">
        <ele>656</ele>
        <time>2023-10-09T14:18:13Z</time>
      </trkpt>
      <trkpt lat="43.66456" lon="6.18986">
        <ele>656</ele>
        <time>2023-10-09T14:18:14Z</time>
      </trkpt>
      <trkpt lat="43.66456" lon="6.18986">
        <ele>656</ele>
        <time>2023-10-09T14:18:15Z</time>
      </trkpt>
      <trkpt lat="43.66456" lon="6.18986">
        <ele>656</ele>
        <time>2023-10-09T14:18:16Z</time>
      </trkpt>
      <trkpt lat="43.66456" lon="6.18986">
        <ele>656</ele>
        <time>2023-10-09T14:18:17Z</time>
      </trkpt>
      <trkpt lat="43.66456" lon="6.18986">
        <ele>656</ele>
        <time>2023-10-09T14:18:18Z</time>
      </trkpt>
      <trkpt lat="43.66456" lon="6.18985">
        <ele>656</ele>
        <time>2023-10-09T14:18:19Z</time>
      </trkpt>
      <trkpt lat="43.66456" lon="6.18985">
        <ele>656</ele>
        <time>2023-10-09T14:18:20Z</time>
      </trkpt>
      <trkpt lat="43.66456" lon="6.18985">
        <ele>656</ele>
        <time>2023-10-09T14:18:21Z</time>
      </trkpt>
      <trkpt lat="43.66456" lon="6.18985">
        <ele>656</ele>
        <time>2023-10-09T14:18:22Z</time>
      </trkpt>
      <trkpt lat="43.66456" lon="6.18985">
        <ele>656</ele>
        <time>2023-10-09T14:18:23Z</time>
      </trkpt>
      <trkpt lat="43.66456" lon="6.18985">
        <ele>656</ele>
        <time>2023-10-09T14:18:24Z</time>
      </trkpt>
      <trkpt lat="43.66456" lon="6.18985">
        <ele>656</ele>
        <time>2023-10-09T14:18:25Z</time>
      </trkpt>
      <trkpt lat="43.66456" lon="6.18985">
        <ele>656</ele>
        <time>2023-10-09T14:18:26Z</time>
      </trkpt>
      <trkpt lat="43.66456" lon="6.18985">
        <ele>656</ele>
        <time>2023-10-09T14:18:27Z</time>
      </trkpt>
      <trkpt lat="43.66456" lon="6.18985">
        <ele>656</ele>
        <time>2023-10-09T14:18:28Z</time>
      </trkpt>
      <trkpt lat="43.66456" lon="6.18985">
        <ele>656</ele>
        <time>2023-10-09T14:18:29Z</time>
      </trkpt>
      <trkpt lat="43.66456" lon="6.18985">
        <ele>656</ele>
        <time>2023-10-09T14:18:30Z</time>
      </trkpt>
      <trkpt lat="43.66456" lon="6.18985">
        <ele>656</ele>
        <time>2023-10-09T14:18:31Z</time>
      </trkpt>
      <trkpt lat="43.66456" lon="6.18985">
        <ele>656</ele>
        <time>2023-10-09T14:18:32Z</time>
      </trkpt>
      <trkpt lat="43.66456" lon="6.18985">
        <ele>656</ele>
        <time>2023-10-09T14:18:33Z</time>
      </trkpt>
      <trkpt lat="43.66456" lon="6.18985">
        <ele>656</ele>
        <time>2023-10-09T14:18:34Z</time>
      </trkpt>
      <trkpt lat="43.66456" lon="6.18985">
        <ele>656</ele>
        <time>2023-10-09T14:18:35Z</time>
      </trkpt>
      <trkpt lat="43.66456" lon="6.18985">
        <ele>656</ele>
        <time>2023-10-09T14:18:36Z</time>
      </trkpt>
      <trkpt lat="43.66456" lon="6.18985">
        <ele>656</ele>
        <time>2023-10-09T14:18:37Z</time>
      </trkpt>
      <trkpt lat="43.66456" lon="6.18985">
        <ele>656</ele>
        <time>2023-10-09T14:18:38Z</time>
      </trkpt>
      <trkpt lat="43.66456" lon="6.18985">
        <ele>656</ele>
        <time>2023-10-09T14:18:39Z</time>
      </trkpt>
      <trkpt lat="43.66456" lon="6.18985">
        <ele>656</ele>
        <time>2023-10-09T14:18:40Z</time>
      </trkpt>
      <trkpt lat="43.66456" lon="6.18985">
        <ele>656</ele>
        <time>2023-10-09T14:18:41Z</time>
      </trkpt>
      <trkpt lat="43.66456" lon="6.18985">
        <ele>656</ele>
        <time>2023-10-09T14:18:42Z</time>
      </trkpt>
      <trkpt lat="43.66456" lon="6.18985">
        <ele>656</ele>
        <time>2023-10-09T14:18:43Z</time>
      </trkpt>
      <trkpt lat="43.66456" lon="6.18985">
        <ele>656</ele>
        <time>2023-10-09T14:18:44Z</time>
      </trkpt>
      <trkpt lat="43.66456" lon="6.18985">
        <ele>656</ele>
        <time>2023-10-09T14:18:45Z</time>
      </trkpt>
      <trkpt lat="43.66456" lon="6.18985">
        <ele>656</ele>
        <time>2023-10-09T14:18:46Z</time>
      </trkpt>
      <trkpt lat="43.66456" lon="6.18985">
        <ele>656</ele>
        <time>2023-10-09T14:18:47Z</time>
      </trkpt>
      <trkpt lat="43.66456" lon="6.18985">
        <ele>656</ele>
        <time>2023-10-09T14:18:48Z</time>
      </trkpt>
      <trkpt lat="43.66456" lon="6.18985">
        <ele>656</ele>
        <time>2023-10-09T14:18:49Z</time>
      </trkpt>
      <trkpt lat="43.66456" lon="6.18985">
        <ele>656</ele>
        <time>2023-10-09T14:18:50Z</time>
      </trkpt>
      <trkpt lat="43.66456" lon="6.18985">
        <ele>656</ele>
        <time>2023-10-09T14:18:51Z</time>
      </trkpt>
      <trkpt lat="43.66456" lon="6.18985">
        <ele>656</ele>
        <time>2023-10-09T14:18:52Z</time>
      </trkpt>
      <trkpt lat="43.66456" lon="6.18985">
        <ele>656</ele>
        <time>2023-10-09T14:18:53Z</time>
      </trkpt>
      <trkpt lat="43.66456" lon="6.18985">
        <ele>656</ele>
        <time>2023-10-09T14:18:54Z</time>
      </trkpt>
      <trkpt lat="43.66456" lon="6.18985">
        <ele>656</ele>
        <time>2023-10-09T14:18:55Z</time>
      </trkpt>
      <trkpt lat="43.66456" lon="6.18985">
        <ele>656</ele>
        <time>2023-10-09T14:18:56Z</time>
      </trkpt>
      <trkpt lat="43.66456" lon="6.18985">
        <ele>656</ele>
        <time>2023-10-09T14:18:57Z</time>
      </trkpt>
      <trkpt lat="43.66456" lon="6.18985">
        <ele>656</ele>
        <time>2023-10-09T14:18:58Z</time>
      </trkpt>
      <trkpt lat="43.66456" lon="6.18985">
        <ele>656</ele>
        <time>2023-10-09T14:18:59Z</time>
      </trkpt>
      <trkpt lat="43.66456" lon="6.18985">
        <ele>656</ele>
        <time>2023-10-09T14:19:00Z</time>
      </trkpt>
      <trkpt lat="43.66456" lon="6.18985">
        <ele>656</ele>
        <time>2023-10-09T14:19:01Z</time>
      </trkpt>
      <trkpt lat="43.66456" lon="6.18985">
        <ele>656</ele>
        <time>2023-10-09T14:19:02Z</time>
      </trkpt>
      <trkpt lat="43.66456" lon="6.18985">
        <ele>656</ele>
        <time>2023-10-09T14:19:03Z</time>
      </trkpt>
      <trkpt lat="43.66457" lon="6.18985">
        <ele>656.1</ele>
        <time>2023-10-09T14:19:04Z</time>
      </trkpt>
      <trkpt lat="43.66457" lon="6.18985">
        <ele>656.1</ele>
        <time>2023-10-09T14:19:05Z</time>
      </trkpt>
      <trkpt lat="43.66457" lon="6.18985">
        <ele>656.1</ele>
        <time>2023-10-09T14:19:06Z</time>
      </trkpt>
      <trkpt lat="43.66457" lon="6.18985">
        <ele>656.1</ele>
        <time>2023-10-09T14:19:07Z</time>
      </trkpt>
      <trkpt lat="43.66457" lon="6.18985">
        <ele>656.1</ele>
        <time>2023-10-09T14:19:08Z</time>
      </trkpt>
      <trkpt lat="43.66457" lon="6.18985">
        <ele>656.1</ele>
        <time>2023-10-09T14:19:09Z</time>
      </trkpt>
      <trkpt lat="43.66457" lon="6.18985">
        <ele>656.1</ele>
        <time>2023-10-09T14:19:10Z</time>
      </trkpt>
      <trkpt lat="43.66457" lon="6.18985">
        <ele>656.1</ele>
        <time>2023-10-09T14:19:11Z</time>
      </trkpt>
      <trkpt lat="43.66457" lon="6.18985">
        <ele>656.1</ele>
        <time>2023-10-09T14:19:12Z</time>
      </trkpt>
      <trkpt lat="43.66457" lon="6.18985">
        <ele>656.1</ele>
        <time>2023-10-09T14:19:13Z</time>
      </trkpt>
      <trkpt lat="43.66457" lon="6.18985">
        <ele>656.1</ele>
        <time>2023-10-09T14:19:14Z</time>
      </trkpt>
      <trkpt lat="43.66457" lon="6.18985">
        <ele>656.1</ele>
        <time>2023-10-09T14:19:15Z</time>
      </trkpt>
      <trkpt lat="43.66457" lon="6.18985">
        <ele>656.1</ele>
        <time>2023-10-09T14:19:16Z</time>
      </trkpt>
      <trkpt lat="43.66457" lon="6.18985">
        <ele>656.1</ele>
        <time>2023-10-09T14:19:17Z</time>
      </trkpt>
      <trkpt lat="43.66457" lon="6.18985">
        <ele>656.1</ele>
        <time>2023-10-09T14:19:18Z</time>
      </trkpt>
      <trkpt lat="43.66457" lon="6.18985">
        <ele>656.1</ele>
        <time>2023-10-09T14:19:19Z</time>
      </trkpt>
      <trkpt lat="43.66457" lon="6.18985">
        <ele>656.1</ele>
        <time>2023-10-09T14:19:20Z</time>
      </trkpt>
      <trkpt lat="43.66457" lon="6.18984">
        <ele>656</ele>
        <time>2023-10-09T14:19:21Z</time>
      </trkpt>
      <trkpt lat="43.66457" lon="6.18984">
        <ele>656</ele>
        <time>2023-10-09T14:19:22Z</time>
      </trkpt>
      <trkpt lat="43.66457" lon="6.18984">
        <ele>656</ele>
        <time>2023-10-09T14:19:23Z</time>
      </trkpt>
      <trkpt lat="43.66457" lon="6.18984">
        <ele>656</ele>
        <time>2023-10-09T14:19:24Z</time>
      </trkpt>
      <trkpt lat="43.66457" lon="6.18984">
        <ele>656</ele>
        <time>2023-10-09T14:19:25Z</time>
      </trkpt>
      <trkpt lat="43.66457" lon="6.18984">
        <ele>656</ele>
        <time>2023-10-09T14:19:26Z</time>
      </trkpt>
      <trkpt lat="43.66457" lon="6.18984">
        <ele>656</ele>
        <time>2023-10-09T14:19:27Z</time>
      </trkpt>
      <trkpt lat="43.66457" lon="6.18984">
        <ele>656</ele>
        <time>2023-10-09T14:19:28Z</time>
      </trkpt>
      <trkpt lat="43.66457" lon="6.18984">
        <ele>656</ele>
        <time>2023-10-09T14:19:29Z</time>
      </trkpt>
      <trkpt lat="43.66457" lon="6.18984">
        <ele>656</ele>
        <time>2023-10-09T14:19:30Z</time>
      </trkpt>
      <trkpt lat="43.66457" lon="6.18984">
        <ele>656</ele>
        <time>2023-10-09T14:19:31Z</time>
      </trkpt>
      <trkpt lat="43.66457" lon="6.18984">
        <ele>656</ele>
        <time>2023-10-09T14:19:32Z</time>
      </trkpt>
      <trkpt lat="43.66457" lon="6.18984">
        <ele>656</ele>
        <time>2023-10-09T14:19:33Z</time>
      </trkpt>
      <trkpt lat="43.66457" lon="6.18984">
        <ele>656</ele>
        <time>2023-10-09T14:19:34Z</time>
      </trkpt>
      <trkpt lat="43.66457" lon="6.18984">
        <ele>656</ele>
        <time>2023-10-09T14:19:35Z</time>
      </trkpt>
      <trkpt lat="43.66457" lon="6.18984">
        <ele>656</ele>
        <time>2023-10-09T14:19:36Z</time>
      </trkpt>
      <trkpt lat="43.66457" lon="6.18984">
        <ele>656</ele>
        <time>2023-10-09T14:19:37Z</time>
      </trkpt>
      <trkpt lat="43.66457" lon="6.18984">
        <ele>656</ele>
        <time>2023-10-09T14:19:38Z</time>
      </trkpt>
      <trkpt lat="43.66457" lon="6.18984">
        <ele>656</ele>
        <time>2023-10-09T14:19:39Z</time>
      </trkpt>
      <trkpt lat="43.66457" lon="6.18984">
        <ele>656</ele>
        <time>2023-10-09T14:19:40Z</time>
      </trkpt>
      <trkpt lat="43.66457" lon="6.18984">
        <ele>656</ele>
        <time>2023-10-09T14:19:41Z</time>
      </trkpt>
      <trkpt lat="43.66457" lon="6.18984">
        <ele>656</ele>
        <time>2023-10-09T14:19:42Z</time>
      </trkpt>
      <trkpt lat="43.66457" lon="6.18984">
        <ele>656</ele>
        <time>2023-10-09T14:19:43Z</time>
      </trkpt>
      <trkpt lat="43.66457" lon="6.18984">
        <ele>656</ele>
        <time>2023-10-09T14:19:44Z</time>
      </trkpt>
      <trkpt lat="43.66457" lon="6.18984">
        <ele>656</ele>
        <time>2023-10-09T14:19:45Z</time>
      </trkpt>
      <trkpt lat="43.66457" lon="6.18984">
        <ele>656</ele>
        <time>2023-10-09T14:19:46Z</time>
      </trkpt>
      <trkpt lat="43.66457" lon="6.18984">
        <ele>656</ele>
        <time>2023-10-09T14:19:47Z</time>
      </trkpt>
      <trkpt lat="43.66457" lon="6.18984">
        <ele>656</ele>
        <time>2023-10-09T14:19:48Z</time>
      </trkpt>
      <trkpt lat="43.66457" lon="6.18984">
        <ele>656</ele>
        <time>2023-10-09T14:19:49Z</time>
      </trkpt>
      <trkpt lat="43.66457" lon="6.18984">
        <ele>656</ele>
        <time>2023-10-09T14:19:50Z</time>
      </trkpt>
      <trkpt lat="43.66457" lon="6.18984">
        <ele>656</ele>
        <time>2023-10-09T14:19:51Z</time>
      </trkpt>
      <trkpt lat="43.66457" lon="6.18984">
        <ele>656</ele>
        <time>2023-10-09T14:19:52Z</time>
      </trkpt>
      <trkpt lat="43.66457" lon="6.18984">
        <ele>656</ele>
        <time>2023-10-09T14:19:53Z</time>
      </trkpt>
      <trkpt lat="43.66457" lon="6.18984">
        <ele>656</ele>
        <time>2023-10-09T14:19:54Z</time>
      </trkpt>
      <trkpt lat="43.66457" lon="6.18984">
        <ele>656</ele>
        <time>2023-10-09T14:19:55Z</time>
      </trkpt>
      <trkpt lat="43.66457" lon="6.18984">
        <ele>656</ele>
        <time>2023-10-09T14:19:56Z</time>
      </trkpt>
      <trkpt lat="43.66457" lon="6.18984">
        <ele>656</ele>
        <time>2023-10-09T14:19:57Z</time>
      </trkpt>
      <trkpt lat="43.66457" lon="6.18984">
        <ele>656</ele>
        <time>2023-10-09T14:19:58Z</time>
      </trkpt>
      <trkpt lat="43.66457" lon="6.18984">
        <ele>656</ele>
        <time>2023-10-09T14:19:59Z</time>
      </trkpt>
      <trkpt lat="43.66457" lon="6.18984">
        <ele>656</ele>
        <time>2023-10-09T14:20:00Z</time>
      </trkpt>
      <trkpt lat="43.66457" lon="6.18984">
        <ele>656</ele>
        <time>2023-10-09T14:20:01Z</time>
      </trkpt>
      <trkpt lat="43.66457" lon="6.18984">
        <ele>656</ele>
        <time>2023-10-09T14:20:02Z</time>
      </trkpt>
      <trkpt lat="43.66457" lon="6.18984">
        <ele>656</ele>
        <time>2023-10-09T14:20:03Z</time>
      </trkpt>
      <trkpt lat="43.66457" lon="6.18984">
        <ele>656</ele>
        <time>2023-10-09T14:20:04Z</time>
      </trkpt>
      <trkpt lat="43.66457" lon="6.18984">
        <ele>656</ele>
        <time>2023-10-09T14:20:05Z</time>
      </trkpt>
      <trkpt lat="43.66457" lon="6.18984">
        <ele>656</ele>
        <time>2023-10-09T14:20:06Z</time>
      </trkpt>
      <trkpt lat="43.66457" lon="6.18984">
        <ele>656</ele>
        <time>2023-10-09T14:20:07Z</time>
      </trkpt>
      <trkpt lat="43.66457" lon="6.18984">
        <ele>656</ele>
        <time>2023-10-09T14:20:08Z</time>
      </trkpt>
      <trkpt lat="43.66457" lon="6.18984">
        <ele>656</ele>
        <time>2023-10-09T14:20:09Z</time>
      </trkpt>
      <trkpt lat="43.66457" lon="6.18984">
        <ele>656</ele>
        <time>2023-10-09T14:20:10Z</time>
      </trkpt>
      <trkpt lat="43.66457" lon="6.18984">
        <ele>656</ele>
        <time>2023-10-09T14:20:11Z</time>
      </trkpt>
      <trkpt lat="43.66457" lon="6.18984">
        <ele>656</ele>
        <time>2023-10-09T14:20:12Z</time>
      </trkpt>
      <trkpt lat="43.66457" lon="6.18984">
        <ele>656</ele>
        <time>2023-10-09T14:20:13Z</time>
      </trkpt>
      <trkpt lat="43.66457" lon="6.18984">
        <ele>656</ele>
        <time>2023-10-09T14:20:14Z</time>
      </trkpt>
      <trkpt lat="43.66457" lon="6.18984">
        <ele>656</ele>
        <time>2023-10-09T14:20:15Z</time>
      </trkpt>
      <trkpt lat="43.66457" lon="6.18984">
        <ele>656</ele>
        <time>2023-10-09T14:20:16Z</time>
      </trkpt>
      <trkpt lat="43.66457" lon="6.18984">
        <ele>656</ele>
        <time>2023-10-09T14:20:17Z</time>
      </trkpt>
      <trkpt lat="43.66457" lon="6.18984">
        <ele>656</ele>
        <time>2023-10-09T14:20:18Z</time>
      </trkpt>
      <trkpt lat="43.66457" lon="6.18984">
        <ele>656</ele>
        <time>2023-10-09T14:20:19Z</time>
      </trkpt>
      <trkpt lat="43.66457" lon="6.18984">
        <ele>656</ele>
        <time>2023-10-09T14:20:20Z</time>
      </trkpt>
      <trkpt lat="43.66457" lon="6.18984">
        <ele>656</ele>
        <time>2023-10-09T14:20:21Z</time>
      </trkpt>
      <trkpt lat="43.66457" lon="6.18983">
        <ele>656</ele>
        <time>2023-10-09T14:20:22Z</time>
      </trkpt>
      <trkpt lat="43.66457" lon="6.18983">
        <ele>656</ele>
        <time>2023-10-09T14:20:23Z</time>
      </trkpt>
      <trkpt lat="43.66457" lon="6.18983">
        <ele>656</ele>
        <time>2023-10-09T14:20:24Z</time>
      </trkpt>
      <trkpt lat="43.66457" lon="6.18983">
        <ele>656</ele>
        <time>2023-10-09T14:20:25Z</time>
      </trkpt>
      <trkpt lat="43.66457" lon="6.18983">
        <ele>656</ele>
        <time>2023-10-09T14:20:26Z</time>
      </trkpt>
      <trkpt lat="43.66457" lon="6.18983">
        <ele>656</ele>
        <time>2023-10-09T14:20:27Z</time>
      </trkpt>
      <trkpt lat="43.66458" lon="6.18983">
        <ele>656.1</ele>
        <time>2023-10-09T14:20:28Z</time>
      </trkpt>
      <trkpt lat="43.66458" lon="6.18983">
        <ele>656.1</ele>
        <time>2023-10-09T14:20:29Z</time>
      </trkpt>
      <trkpt lat="43.66458" lon="6.18983">
        <ele>656.1</ele>
        <time>2023-10-09T14:20:30Z</time>
      </trkpt>
      <trkpt lat="43.66458" lon="6.18983">
        <ele>656.1</ele>
        <time>2023-10-09T14:20:31Z</time>
      </trkpt>
      <trkpt lat="43.66458" lon="6.18983">
        <ele>656.1</ele>
        <time>2023-10-09T14:20:32Z</time>
      </trkpt>
      <trkpt lat="43.66458" lon="6.18983">
        <ele>656.1</ele>
        <time>2023-10-09T14:20:33Z</time>
      </trkpt>
      <trkpt lat="43.66458" lon="6.18983">
        <ele>656.1</ele>
        <time>2023-10-09T14:20:34Z</time>
      </trkpt>
      <trkpt lat="43.66458" lon="6.18983">
        <ele>656.1</ele>
        <time>2023-10-09T14:20:35Z</time>
      </trkpt>
      <trkpt lat="43.66458" lon="6.18983">
        <ele>656.1</ele>
        <time>2023-10-09T14:20:36Z</time>
      </trkpt>
      <trkpt lat="43.66458" lon="6.18983">
        <ele>656.1</ele>
        <time>2023-10-09T14:20:37Z</time>
      </trkpt>
      <trkpt lat="43.66458" lon="6.18983">
        <ele>656.1</ele>
        <time>2023-10-09T14:20:38Z</time>
      </trkpt>
      <trkpt lat="43.66458" lon="6.18983">
        <ele>656.1</ele>
        <time>2023-10-09T14:20:39Z</time>
      </trkpt>
      <trkpt lat="43.66458" lon="6.18983">
        <ele>656.1</ele>
        <time>2023-10-09T14:20:40Z</time>
      </trkpt>
      <trkpt lat="43.66458" lon="6.18983">
        <ele>656.1</ele>
        <time>2023-10-09T14:20:41Z</time>
      </trkpt>
      <trkpt lat="43.66458" lon="6.18983">
        <ele>656.1</ele>
        <time>2023-10-09T14:20:42Z</time>
      </trkpt>
      <trkpt lat="43.66458" lon="6.18983">
        <ele>656.1</ele>
        <time>2023-10-09T14:20:43Z</time>
      </trkpt>
      <trkpt lat="43.66458" lon="6.18983">
        <ele>656.1</ele>
        <time>2023-10-09T14:20:44Z</time>
      </trkpt>
      <trkpt lat="43.66458" lon="6.18983">
        <ele>656.1</ele>
        <time>2023-10-09T14:20:45Z</time>
      </trkpt>
      <trkpt lat="43.66458" lon="6.18983">
        <ele>656.1</ele>
        <time>2023-10-09T14:20:46Z</time>
      </trkpt>
      <trkpt lat="43.66458" lon="6.18982">
        <ele>656</ele>
        <time>2023-10-09T14:20:47Z</time>
      </trkpt>
      <trkpt lat="43.66458" lon="6.1898">
        <ele>655.9</ele>
        <time>2023-10-09T14:20:48Z</time>
      </trkpt>
      <trkpt lat="43.66458" lon="6.18979">
        <ele>655.8</ele>
        <time>2023-10-09T14:20:49Z</time>
      </trkpt>
      <trkpt lat="43.66458" lon="6.18978">
        <ele>655.8</ele>
        <time>2023-10-09T14:20:50Z</time>
      </trkpt>
      <trkpt lat="43.66458" lon="6.18976">
        <ele>655.7</ele>
        <time>2023-10-09T14:20:51Z</time>
      </trkpt>
      <trkpt lat="43.66459" lon="6.18975">
        <ele>655.7</ele>
        <time>2023-10-09T14:20:52Z</time>
      </trkpt>
      <trkpt lat="43.66459" lon="6.18972">
        <ele>655.6</ele>
        <time>2023-10-09T14:20:53Z</time>
      </trkpt>
      <trkpt lat="43.66459" lon="6.18971">
        <ele>655.5</ele>
        <time>2023-10-09T14:20:54Z</time>
      </trkpt>
      <trkpt lat="43.66459" lon="6.18969">
        <ele>655.5</ele>
        <time>2023-10-09T14:20:55Z</time>
      </trkpt>
      <trkpt lat="43.66459" lon="6.18968">
        <ele>655.4</ele>
        <time>2023-10-09T14:20:56Z</time>
      </trkpt>
      <trkpt lat="43.66459" lon="6.18967">
        <ele>655.4</ele>
        <time>2023-10-09T14:20:57Z</time>
      </trkpt>
      <trkpt lat="43.66459" lon="6.18966">
        <ele>655.3</ele>
        <time>2023-10-09T14:20:58Z</time>
      </trkpt>
      <trkpt lat="43.66459" lon="6.18964">
        <ele>655.3</ele>
        <time>2023-10-09T14:20:59Z</time>
      </trkpt>
      <trkpt lat="43.66459" lon="6.18963">
        <ele>655.2</ele>
        <time>2023-10-09T14:21:00Z</time>
      </trkpt>
      <trkpt lat="43.66459" lon="6.18962">
        <ele>655.2</ele>
        <time>2023-10-09T14:21:01Z</time>
      </trkpt>
      <trkpt lat="43.66459" lon="6.18961">
        <ele>655.2</ele>
        <time>2023-10-09T14:21:02Z</time>
      </trkpt>
      <trkpt lat="43.66459" lon="6.1896">
        <ele>655.1</ele>
        <time>2023-10-09T14:21:03Z</time>
      </trkpt>
      <trkpt lat="43.66459" lon="6.18959">
        <ele>655.1</ele>
        <time>2023-10-09T14:21:04Z</time>
      </trkpt>
      <trkpt lat="43.66459" lon="6.18957">
        <ele>655</ele>
        <time>2023-10-09T14:21:05Z</time>
      </trkpt>
      <trkpt lat="43.66459" lon="6.18956">
        <ele>655</ele>
        <time>2023-10-09T14:21:06Z</time>
      </trkpt>
      <trkpt lat="43.66459" lon="6.18954">
        <ele>654.9</ele>
        <time>2023-10-09T14:21:07Z</time>
      </trkpt>
      <trkpt lat="43.66459" lon="6.18953">
        <ele>654.9</ele>
        <time>2023-10-09T14:21:08Z</time>
      </trkpt>
      <trkpt lat="43.6646" lon="6.18952">
        <ele>655</ele>
        <time>2023-10-09T14:21:09Z</time>
      </trkpt>
      <trkpt lat="43.6646" lon="6.1895">
        <ele>654.9</ele>
        <time>2023-10-09T14:21:10Z</time>
      </trkpt>
      <trkpt lat="43.66461" lon="6.18949">
        <ele>655</ele>
        <time>2023-10-09T14:21:11Z</time>
      </trkpt>
      <trkpt lat="43.66461" lon="6.18948">
        <ele>654.9</ele>
        <time>2023-10-09T14:21:12Z</time>
      </trkpt>
      <trkpt lat="43.6646" lon="6.18946">
        <ele>654.7</ele>
        <time>2023-10-09T14:21:13Z</time>
      </trkpt>
      <trkpt lat="43.6646" lon="6.18945">
        <ele>654.7</ele>
        <time>2023-10-09T14:21:14Z</time>
      </trkpt>
      <trkpt lat="43.66461" lon="6.18943">
        <ele>654.7</ele>
        <time>2023-10-09T14:21:15Z</time>
      </trkpt>
      <trkpt lat="43.66461" lon="6.18942">
        <ele>654.7</ele>
        <time>2023-10-09T14:21:16Z</time>
      </trkpt>
      <trkpt lat="43.66461" lon="6.18941">
        <ele>654.7</ele>
        <time>2023-10-09T14:21:17Z</time>
      </trkpt>
      <trkpt lat="43.66461" lon="6.1894">
        <ele>654.6</ele>
        <time>2023-10-09T14:21:18Z</time>
      </trkpt>
      <trkpt lat="43.66461" lon="6.18939">
        <ele>654.6</ele>
        <time>2023-10-09T14:21:19Z</time>
      </trkpt>
      <trkpt lat="43.66461" lon="6.18937">
        <ele>654.5</ele>
        <time>2023-10-09T14:21:20Z</time>
      </trkpt>
      <trkpt lat="43.66461" lon="6.18936">
        <ele>654.5</ele>
        <time>2023-10-09T14:21:21Z</time>
      </trkpt>
      <trkpt lat="43.66461" lon="6.18935">
        <ele>654.4</ele>
        <time>2023-10-09T14:21:22Z</time>
      </trkpt>
      <trkpt lat="43.66461" lon="6.18934">
        <ele>654.4</ele>
        <time>2023-10-09T14:21:23Z</time>
      </trkpt>
      <trkpt lat="43.66461" lon="6.18932">
        <ele>654.3</ele>
        <time>2023-10-09T14:21:24Z</time>
      </trkpt>
      <trkpt lat="43.66461" lon="6.18931">
        <ele>654.3</ele>
        <time>2023-10-09T14:21:25Z</time>
      </trkpt>
      <trkpt lat="43.66461" lon="6.1893">
        <ele>654.3</ele>
        <time>2023-10-09T14:21:26Z</time>
      </trkpt>
      <trkpt lat="43.66461" lon="6.18928">
        <ele>654.2</ele>
        <time>2023-10-09T14:21:27Z</time>
      </trkpt>
      <trkpt lat="43.66462" lon="6.18926">
        <ele>654.2</ele>
        <time>2023-10-09T14:21:28Z</time>
      </trkpt>
      <trkpt lat="43.66462" lon="6.18924">
        <ele>654.2</ele>
        <time>2023-10-09T14:21:29Z</time>
      </trkpt>
      <trkpt lat="43.66462" lon="6.18923">
        <ele>654.1</ele>
        <time>2023-10-09T14:21:30Z</time>
      </trkpt>
      <trkpt lat="43.66462" lon="6.1892">
        <ele>654</ele>
        <time>2023-10-09T14:21:31Z</time>
      </trkpt>
      <trkpt lat="43.66462" lon="6.18919">
        <ele>654</ele>
        <time>2023-10-09T14:21:32Z</time>
      </trkpt>
      <trkpt lat="43.66462" lon="6.18918">
        <ele>653.9</ele>
        <time>2023-10-09T14:21:33Z</time>
      </trkpt>
      <trkpt lat="43.66462" lon="6.18916">
        <ele>653.9</ele>
        <time>2023-10-09T14:21:34Z</time>
      </trkpt>
      <trkpt lat="43.66462" lon="6.18915">
        <ele>653.9</ele>
        <time>2023-10-09T14:21:35Z</time>
      </trkpt>
      <trkpt lat="43.66462" lon="6.18913">
        <ele>653.8</ele>
        <time>2023-10-09T14:21:36Z</time>
      </trkpt>
      <trkpt lat="43.66462" lon="6.18912">
        <ele>653.8</ele>
        <time>2023-10-09T14:21:37Z</time>
      </trkpt>
      <trkpt lat="43.66462" lon="6.18911">
        <ele>653.8</ele>
        <time>2023-10-09T14:21:38Z</time>
      </trkpt>
      <trkpt lat="43.66462" lon="6.1891">
        <ele>653.7</ele>
        <time>2023-10-09T14:21:39Z</time>
      </trkpt>
      <trkpt lat="43.66462" lon="6.18908">
        <ele>653.7</ele>
        <time>2023-10-09T14:21:40Z</time>
      </trkpt>
      <trkpt lat="43.66463" lon="6.18906">
        <ele>653.7</ele>
        <time>2023-10-09T14:21:41Z</time>
      </trkpt>
      <trkpt lat="43.66463" lon="6.18904">
        <ele>653.7</ele>
        <time>2023-10-09T14:21:42Z</time>
      </trkpt>
      <trkpt lat="43.66463" lon="6.18903">
        <ele>653.7</ele>
        <time>2023-10-09T14:21:43Z</time>
      </trkpt>
      <trkpt lat="43.66463" lon="6.189">
        <ele>653.6</ele>
        <time>2023-10-09T14:21:44Z</time>
      </trkpt>
      <trkpt lat="43.66464" lon="6.18899">
        <ele>653.7</ele>
        <time>2023-10-09T14:21:45Z</time>
      </trkpt>
      <trkpt lat="43.66464" lon="6.18898">
        <ele>653.6</ele>
        <time>2023-10-09T14:21:46Z</time>
      </trkpt>
      <trkpt lat="43.66464" lon="6.18896">
        <ele>653.6</ele>
        <time>2023-10-09T14:21:47Z</time>
      </trkpt>
      <trkpt lat="43.66465" lon="6.18894">
        <ele>653.6</ele>
        <time>2023-10-09T14:21:48Z</time>
      </trkpt>
      <trkpt lat="43.66465" lon="6.18892">
        <ele>653.6</ele>
        <time>2023-10-09T14:21:49Z</time>
      </trkpt>
      <trkpt lat="43.66466" lon="6.18891">
        <ele>653.6</ele>
        <time>2023-10-09T14:21:50Z</time>
      </trkpt>
      <trkpt lat="43.66466" lon="6.1889">
        <ele>653.6</ele>
        <time>2023-10-09T14:21:51Z</time>
      </trkpt>
      <trkpt lat="43.66466" lon="6.18889">
        <ele>653.6</ele>
        <time>2023-10-09T14:21:52Z</time>
      </trkpt>
      <trkpt lat="43.66466" lon="6.18887">
        <ele>653.5</ele>
        <time>2023-10-09T14:21:53Z</time>
      </trkpt>
      <trkpt lat="43.66467" lon="6.18886">
        <ele>653.5</ele>
        <time>2023-10-09T14:21:54Z</time>
      </trkpt>
      <trkpt lat="43.66467" lon="6.18885">
        <ele>653.5</ele>
        <time>2023-10-09T14:21:55Z</time>
      </trkpt>
      <trkpt lat="43.66467" lon="6.18883">
        <ele>653.4</ele>
        <time>2023-10-09T14:21:56Z</time>
      </trkpt>
      <trkpt lat="43.66467" lon="6.18882">
        <ele>653.4</ele>
        <time>2023-10-09T14:21:57Z</time>
      </trkpt>
      <trkpt lat="43.66466" lon="6.18881">
        <ele>653.3</ele>
        <time>2023-10-09T14:21:58Z</time>
      </trkpt>
      <trkpt lat="43.66466" lon="6.1888">
        <ele>653.2</ele>
        <time>2023-10-09T14:21:59Z</time>
      </trkpt>
      <trkpt lat="43.66466" lon="6.18879">
        <ele>653.2</ele>
        <time>2023-10-09T14:22:00Z</time>
      </trkpt>
      <trkpt lat="43.66466" lon="6.18878">
        <ele>653.2</ele>
        <time>2023-10-09T14:22:01Z</time>
      </trkpt>
      <trkpt lat="43.66465" lon="6.18877">
        <ele>653.1</ele>
        <time>2023-10-09T14:22:02Z</time>
      </trkpt>
      <trkpt lat="43.66465" lon="6.18876">
        <ele>653</ele>
        <time>2023-10-09T14:22:03Z</time>
      </trkpt>
      <trkpt lat="43.66465" lon="6.18874">
        <ele>652.9</ele>
        <time>2023-10-09T14:22:04Z</time>
      </trkpt>
      <trkpt lat="43.66465" lon="6.18873">
        <ele>652.9</ele>
        <time>2023-10-09T14:22:05Z</time>
      </trkpt>
      <trkpt lat="43.66465" lon="6.18872">
        <ele>652.9</ele>
        <time>2023-10-09T14:22:06Z</time>
      </trkpt>
      <trkpt lat="43.66465" lon="6.18871">
        <ele>652.8</ele>
        <time>2023-10-09T14:22:07Z</time>
      </trkpt>
      <trkpt lat="43.66465" lon="6.18869">
        <ele>652.8</ele>
        <time>2023-10-09T14:22:08Z</time>
      </trkpt>
      <trkpt lat="43.66465" lon="6.18868">
        <ele>652.7</ele>
        <time>2023-10-09T14:22:09Z</time>
      </trkpt>
      <trkpt lat="43.66465" lon="6.18866">
        <ele>652.7</ele>
        <time>2023-10-09T14:22:10Z</time>
      </trkpt>
      <trkpt lat="43.66465" lon="6.18865">
        <ele>652.6</ele>
        <time>2023-10-09T14:22:11Z</time>
      </trkpt>
      <trkpt lat="43.66465" lon="6.18864">
        <ele>652.6</ele>
        <time>2023-10-09T14:22:12Z</time>
      </trkpt>
      <trkpt lat="43.66465" lon="6.18863">
        <ele>652.5</ele>
        <time>2023-10-09T14:22:13Z</time>
      </trkpt>
      <trkpt lat="43.66465" lon="6.18862">
        <ele>652.5</ele>
        <time>2023-10-09T14:22:14Z</time>
      </trkpt>
      <trkpt lat="43.66465" lon="6.1886">
        <ele>652.4</ele>
        <time>2023-10-09T14:22:15Z</time>
      </trkpt>
      <trkpt lat="43.66464" lon="6.18859">
        <ele>652.3</ele>
        <time>2023-10-09T14:22:16Z</time>
      </trkpt>
      <trkpt lat="43.66464" lon="6.18857">
        <ele>652.3</ele>
        <time>2023-10-09T14:22:17Z</time>
      </trkpt>
      <trkpt lat="43.66464" lon="6.18856">
        <ele>652.2</ele>
        <time>2023-10-09T14:22:18Z</time>
      </trkpt>
      <trkpt lat="43.66464" lon="6.18855">
        <ele>652.2</ele>
        <time>2023-10-09T14:22:19Z</time>
      </trkpt>
      <trkpt lat="43.66463" lon="6.18853">
        <ele>652</ele>
        <time>2023-10-09T14:22:20Z</time>
      </trkpt>
      <trkpt lat="43.66463" lon="6.18852">
        <ele>652</ele>
        <time>2023-10-09T14:22:21Z</time>
      </trkpt>
      <trkpt lat="43.66463" lon="6.1885">
        <ele>651.9</ele>
        <time>2023-10-09T14:22:22Z</time>
      </trkpt>
      <trkpt lat="43.66462" lon="6.18848">
        <ele>651.8</ele>
        <time>2023-10-09T14:22:23Z</time>
      </trkpt>
      <trkpt lat="43.66462" lon="6.18848">
        <ele>651.8</ele>
        <time>2023-10-09T14:22:24Z</time>
      </trkpt>
      <trkpt lat="43.66462" lon="6.18847">
        <ele>651.8</ele>
        <time>2023-10-09T14:22:25Z</time>
      </trkpt>
      <trkpt lat="43.66461" lon="6.18846">
        <ele>651.6</ele>
        <time>2023-10-09T14:22:26Z</time>
      </trkpt>
      <trkpt lat="43.66461" lon="6.18844">
        <ele>651.6</ele>
        <time>2023-10-09T14:22:27Z</time>
      </trkpt>
      <trkpt lat="43.66461" lon="6.18843">
        <ele>651.5</ele>
        <time>2023-10-09T14:22:28Z</time>
      </trkpt>
      <trkpt lat="43.6646" lon="6.18842">
        <ele>651.4</ele>
        <time>2023-10-09T14:22:29Z</time>
      </trkpt>
      <trkpt lat="43.6646" lon="6.18841">
        <ele>651.4</ele>
        <time>2023-10-09T14:22:30Z</time>
      </trkpt>
      <trkpt lat="43.6646" lon="6.1884">
        <ele>651.4</ele>
        <time>2023-10-09T14:22:31Z</time>
      </trkpt>
      <trkpt lat="43.6646" lon="6.18839">
        <ele>651.3</ele>
        <time>2023-10-09T14:22:32Z</time>
      </trkpt>
      <trkpt lat="43.66459" lon="6.18837">
        <ele>651.2</ele>
        <time>2023-10-09T14:22:33Z</time>
      </trkpt>
      <trkpt lat="43.66459" lon="6.18836">
        <ele>651.1</ele>
        <time>2023-10-09T14:22:34Z</time>
      </trkpt>
      <trkpt lat="43.66459" lon="6.18834">
        <ele>651.1</ele>
        <time>2023-10-09T14:22:35Z</time>
      </trkpt>
      <trkpt lat="43.66459" lon="6.18833">
        <ele>651</ele>
        <time>2023-10-09T14:22:36Z</time>
      </trkpt>
      <trkpt lat="43.66458" lon="6.18831">
        <ele>650.9</ele>
        <time>2023-10-09T14:22:37Z</time>
      </trkpt>
      <trkpt lat="43.66458" lon="6.1883">
        <ele>650.9</ele>
        <time>2023-10-09T14:22:38Z</time>
      </trkpt>
      <trkpt lat="43.66458" lon="6.18829">
        <ele>650.8</ele>
        <time>2023-10-09T14:22:39Z</time>
      </trkpt>
      <trkpt lat="43.66457" lon="6.18828">
        <ele>650.7</ele>
        <time>2023-10-09T14:22:40Z</time>
      </trkpt>
      <trkpt lat="43.66457" lon="6.18826">
        <ele>650.6</ele>
        <time>2023-10-09T14:22:41Z</time>
      </trkpt>
      <trkpt lat="43.66456" lon="6.18825">
        <ele>650.5</ele>
        <time>2023-10-09T14:22:42Z</time>
      </trkpt>
      <trkpt lat="43.66456" lon="6.18823">
        <ele>650.5</ele>
        <time>2023-10-09T14:22:43Z</time>
      </trkpt>
      <trkpt lat="43.66455" lon="6.18821">
        <ele>650.3</ele>
        <time>2023-10-09T14:22:44Z</time>
      </trkpt>
      <trkpt lat="43.66455" lon="6.1882">
        <ele>650.3</ele>
        <time>2023-10-09T14:22:45Z</time>
      </trkpt>
      <trkpt lat="43.66454" lon="6.18819">
        <ele>650.2</ele>
        <time>2023-10-09T14:22:46Z</time>
      </trkpt>
      <trkpt lat="43.66454" lon="6.18816">
        <ele>650.1</ele>
        <time>2023-10-09T14:22:47Z</time>
      </trkpt>
      <trkpt lat="43.66454" lon="6.18814">
        <ele>650</ele>
        <time>2023-10-09T14:22:48Z</time>
      </trkpt>
      <trkpt lat="43.66454" lon="6.18813">
        <ele>650</ele>
        <time>2023-10-09T14:22:49Z</time>
      </trkpt>
      <trkpt lat="43.66454" lon="6.18811">
        <ele>649.9</ele>
        <time>2023-10-09T14:22:50Z</time>
      </trkpt>
      <trkpt lat="43.66453" lon="6.1881">
        <ele>649.8</ele>
        <time>2023-10-09T14:22:51Z</time>
      </trkpt>
      <trkpt lat="43.66453" lon="6.18808">
        <ele>649.7</ele>
        <time>2023-10-09T14:22:52Z</time>
      </trkpt>
      <trkpt lat="43.66453" lon="6.18806">
        <ele>649.6</ele>
        <time>2023-10-09T14:22:53Z</time>
      </trkpt>
      <trkpt lat="43.66453" lon="6.18805">
        <ele>649.6</ele>
        <time>2023-10-09T14:22:54Z</time>
      </trkpt>
      <trkpt lat="43.66453" lon="6.18803">
        <ele>649.5</ele>
        <time>2023-10-09T14:22:55Z</time>
      </trkpt>
      <trkpt lat="43.66453" lon="6.18802">
        <ele>649.5</ele>
        <time>2023-10-09T14:22:56Z</time>
      </trkpt>
      <trkpt lat="43.66453" lon="6.18801">
        <ele>649.5</ele>
        <time>2023-10-09T14:22:57Z</time>
      </trkpt>
      <trkpt lat="43.66453" lon="6.188">
        <ele>649.4</ele>
        <time>2023-10-09T14:22:58Z</time>
      </trkpt>
      <trkpt lat="43.66452" lon="6.18798">
        <ele>649.3</ele>
        <time>2023-10-09T14:22:59Z</time>
      </trkpt>
      <trkpt lat="43.66452" lon="6.18797">
        <ele>649.2</ele>
        <time>2023-10-09T14:23:00Z</time>
      </trkpt>
      <trkpt lat="43.66452" lon="6.18796">
        <ele>649.2</ele>
        <time>2023-10-09T14:23:01Z</time>
      </trkpt>
      <trkpt lat="43.66452" lon="6.18795">
        <ele>649.2</ele>
        <time>2023-10-09T14:23:02Z</time>
      </trkpt>
      <trkpt lat="43.66451" lon="6.18794">
        <ele>649.1</ele>
        <time>2023-10-09T14:23:03Z</time>
      </trkpt>
      <trkpt lat="43.66451" lon="6.18792">
        <ele>649</ele>
        <time>2023-10-09T14:23:04Z</time>
      </trkpt>
      <trkpt lat="43.66452" lon="6.18791">
        <ele>649</ele>
        <time>2023-10-09T14:23:05Z</time>
      </trkpt>
      <trkpt lat="43.66452" lon="6.1879">
        <ele>649</ele>
        <time>2023-10-09T14:23:06Z</time>
      </trkpt>
      <trkpt lat="43.66452" lon="6.18788">
        <ele>648.9</ele>
        <time>2023-10-09T14:23:07Z</time>
      </trkpt>
      <trkpt lat="43.66452" lon="6.18787">
        <ele>648.9</ele>
        <time>2023-10-09T14:23:08Z</time>
      </trkpt>
      <trkpt lat="43.66452" lon="6.18785">
        <ele>648.8</ele>
        <time>2023-10-09T14:23:09Z</time>
      </trkpt>
      <trkpt lat="43.66452" lon="6.18784">
        <ele>648.8</ele>
        <time>2023-10-09T14:23:10Z</time>
      </trkpt>
      <trkpt lat="43.66452" lon="6.18782">
        <ele>648.7</ele>
        <time>2023-10-09T14:23:11Z</time>
      </trkpt>
      <trkpt lat="43.66452" lon="6.18781">
        <ele>648.7</ele>
        <time>2023-10-09T14:23:12Z</time>
      </trkpt>
      <trkpt lat="43.66452" lon="6.18779">
        <ele>648.6</ele>
        <time>2023-10-09T14:23:13Z</time>
      </trkpt>
      <trkpt lat="43.66452" lon="6.18776">
        <ele>648.4</ele>
        <time>2023-10-09T14:23:14Z</time>
      </trkpt>
      <trkpt lat="43.66452" lon="6.18775">
        <ele>648.4</ele>
        <time>2023-10-09T14:23:15Z</time>
      </trkpt>
      <trkpt lat="43.66451" lon="6.18774">
        <ele>648.2</ele>
        <time>2023-10-09T14:23:16Z</time>
      </trkpt>
      <trkpt lat="43.66452" lon="6.18772">
        <ele>648.2</ele>
        <time>2023-10-09T14:23:17Z</time>
      </trkpt>
      <trkpt lat="43.66452" lon="6.1877">
        <ele>648.1</ele>
        <time>2023-10-09T14:23:18Z</time>
      </trkpt>
      <trkpt lat="43.66451" lon="6.18769">
        <ele>647.9</ele>
        <time>2023-10-09T14:23:19Z</time>
      </trkpt>
      <trkpt lat="43.66451" lon="6.18767">
        <ele>647.8</ele>
        <time>2023-10-09T14:23:20Z</time>
      </trkpt>
      <trkpt lat="43.66451" lon="6.18766">
        <ele>647.7</ele>
        <time>2023-10-09T14:23:21Z</time>
      </trkpt>
      <trkpt lat="43.66451" lon="6.18765">
        <ele>647.7</ele>
        <time>2023-10-09T14:23:22Z</time>
      </trkpt>
      <trkpt lat="43.66451" lon="6.18763">
        <ele>647.5</ele>
        <time>2023-10-09T14:23:23Z</time>
      </trkpt>
      <trkpt lat="43.66451" lon="6.18762">
        <ele>647.5</ele>
        <time>2023-10-09T14:23:24Z</time>
      </trkpt>
      <trkpt lat="43.6645" lon="6.1876">
        <ele>647.2</ele>
        <time>2023-10-09T14:23:25Z</time>
      </trkpt>
      <trkpt lat="43.6645" lon="6.18759">
        <ele>647.2</ele>
        <time>2023-10-09T14:23:26Z</time>
      </trkpt>
      <trkpt lat="43.6645" lon="6.18757">
        <ele>647.1</ele>
        <time>2023-10-09T14:23:27Z</time>
      </trkpt>
      <trkpt lat="43.6645" lon="6.18756">
        <ele>647</ele>
        <time>2023-10-09T14:23:28Z</time>
      </trkpt>
      <trkpt lat="43.66449" lon="6.18755">
        <ele>646.8</ele>
        <time>2023-10-09T14:23:29Z</time>
      </trkpt>
      <trkpt lat="43.66449" lon="6.18753">
        <ele>646.7</ele>
        <time>2023-10-09T14:23:30Z</time>
      </trkpt>
      <trkpt lat="43.66448" lon="6.18751">
        <ele>646.5</ele>
        <time>2023-10-09T14:23:31Z</time>
      </trkpt>
      <trkpt lat="43.66448" lon="6.18749">
        <ele>646.3</ele>
        <time>2023-10-09T14:23:32Z</time>
      </trkpt>
      <trkpt lat="43.66447" lon="6.18749">
        <ele>646.2</ele>
        <time>2023-10-09T14:23:33Z</time>
      </trkpt>
      <trkpt lat="43.66447" lon="6.18748">
        <ele>646.2</ele>
        <time>2023-10-09T14:23:34Z</time>
      </trkpt>
      <trkpt lat="43.66447" lon="6.18747">
        <ele>646.2</ele>
        <time>2023-10-09T14:23:35Z</time>
      </trkpt>
      <trkpt lat="43.66446" lon="6.18746">
        <ele>646</ele>
        <time>2023-10-09T14:23:36Z</time>
      </trkpt>
      <trkpt lat="43.66446" lon="6.18744">
        <ele>645.9</ele>
        <time>2023-10-09T14:23:37Z</time>
      </trkpt>
      <trkpt lat="43.66445" lon="6.18743">
        <ele>645.8</ele>
        <time>2023-10-09T14:23:38Z</time>
      </trkpt>
      <trkpt lat="43.66445" lon="6.18741">
        <ele>645.7</ele>
        <time>2023-10-09T14:23:39Z</time>
      </trkpt>
      <trkpt lat="43.66444" lon="6.1874">
        <ele>645.6</ele>
        <time>2023-10-09T14:23:40Z</time>
      </trkpt>
      <trkpt lat="43.66444" lon="6.18739">
        <ele>645.6</ele>
        <time>2023-10-09T14:23:41Z</time>
      </trkpt>
      <trkpt lat="43.66443" lon="6.18738">
        <ele>645.5</ele>
        <time>2023-10-09T14:23:42Z</time>
      </trkpt>
      <trkpt lat="43.66443" lon="6.18737">
        <ele>645.4</ele>
        <time>2023-10-09T14:23:43Z</time>
      </trkpt>
      <trkpt lat="43.66442" lon="6.18735">
        <ele>645.3</ele>
        <time>2023-10-09T14:23:44Z</time>
      </trkpt>
      <trkpt lat="43.66441" lon="6.18734">
        <ele>645.2</ele>
        <time>2023-10-09T14:23:45Z</time>
      </trkpt>
      <trkpt lat="43.6644" lon="6.18733">
        <ele>645.1</ele>
        <time>2023-10-09T14:23:46Z</time>
      </trkpt>
      <trkpt lat="43.6644" lon="6.18732">
        <ele>645</ele>
        <time>2023-10-09T14:23:47Z</time>
      </trkpt>
      <trkpt lat="43.66439" lon="6.18731">
        <ele>644.9</ele>
        <time>2023-10-09T14:23:48Z</time>
      </trkpt>
      <trkpt lat="43.66438" lon="6.1873">
        <ele>644.8</ele>
        <time>2023-10-09T14:23:49Z</time>
      </trkpt>
      <trkpt lat="43.66438" lon="6.18729">
        <ele>644.8</ele>
        <time>2023-10-09T14:23:50Z</time>
      </trkpt>
      <trkpt lat="43.66436" lon="6.18727">
        <ele>644.6</ele>
        <time>2023-10-09T14:23:51Z</time>
      </trkpt>
      <trkpt lat="43.66436" lon="6.18726">
        <ele>644.5</ele>
        <time>2023-10-09T14:23:52Z</time>
      </trkpt>
      <trkpt lat="43.66436" lon="6.18725">
        <ele>644.5</ele>
        <time>2023-10-09T14:23:53Z</time>
      </trkpt>
      <trkpt lat="43.66434" lon="6.18722">
        <ele>644.2</ele>
        <time>2023-10-09T14:23:54Z</time>
      </trkpt>
      <trkpt lat="43.66433" lon="6.18722">
        <ele>644.2</ele>
        <time>2023-10-09T14:23:55Z</time>
      </trkpt>
      <trkpt lat="43.66433" lon="6.18721">
        <ele>644.1</ele>
        <time>2023-10-09T14:23:56Z</time>
      </trkpt>
      <trkpt lat="43.66432" lon="6.1872">
        <ele>644</ele>
        <time>2023-10-09T14:23:57Z</time>
      </trkpt>
      <trkpt lat="43.66431" lon="6.18719">
        <ele>643.9</ele>
        <time>2023-10-09T14:23:58Z</time>
      </trkpt>
      <trkpt lat="43.6643" lon="6.18718">
        <ele>643.7</ele>
        <time>2023-10-09T14:23:59Z</time>
      </trkpt>
      <trkpt lat="43.6643" lon="6.18717">
        <ele>643.7</ele>
        <time>2023-10-09T14:24:00Z</time>
      </trkpt>
      <trkpt lat="43.66429" lon="6.18716">
        <ele>643.6</ele>
        <time>2023-10-09T14:24:01Z</time>
      </trkpt>
      <trkpt lat="43.66428" lon="6.18715">
        <ele>643.4</ele>
        <time>2023-10-09T14:24:02Z</time>
      </trkpt>
      <trkpt lat="43.66426" lon="6.18713">
        <ele>643.2</ele>
        <time>2023-10-09T14:24:03Z</time>
      </trkpt>
      <trkpt lat="43.66426" lon="6.18713">
        <ele>643.2</ele>
        <time>2023-10-09T14:24:04Z</time>
      </trkpt>
      <trkpt lat="43.66425" lon="6.18712">
        <ele>643.1</ele>
        <time>2023-10-09T14:24:05Z</time>
      </trkpt>
      <trkpt lat="43.66424" lon="6.18711">
        <ele>643</ele>
        <time>2023-10-09T14:24:06Z</time>
      </trkpt>
      <trkpt lat="43.66423" lon="6.1871">
        <ele>642.9</ele>
        <time>2023-10-09T14:24:07Z</time>
      </trkpt>
      <trkpt lat="43.66423" lon="6.18709">
        <ele>642.9</ele>
        <time>2023-10-09T14:24:08Z</time>
      </trkpt>
      <trkpt lat="43.66422" lon="6.18708">
        <ele>642.8</ele>
        <time>2023-10-09T14:24:09Z</time>
      </trkpt>
      <trkpt lat="43.66422" lon="6.18707">
        <ele>642.7</ele>
        <time>2023-10-09T14:24:10Z</time>
      </trkpt>
      <trkpt lat="43.66421" lon="6.18706">
        <ele>642.6</ele>
        <time>2023-10-09T14:24:11Z</time>
      </trkpt>
      <trkpt lat="43.66421" lon="6.18706">
        <ele>642.6</ele>
        <time>2023-10-09T14:24:12Z</time>
      </trkpt>
      <trkpt lat="43.6642" lon="6.18705">
        <ele>642.5</ele>
        <time>2023-10-09T14:24:13Z</time>
      </trkpt>
      <trkpt lat="43.66419" lon="6.18704">
        <ele>642.5</ele>
        <time>2023-10-09T14:24:14Z</time>
      </trkpt>
      <trkpt lat="43.66419" lon="6.18703">
        <ele>642.4</ele>
        <time>2023-10-09T14:24:15Z</time>
      </trkpt>
      <trkpt lat="43.66418" lon="6.187">
        <ele>642.3</ele>
        <time>2023-10-09T14:24:16Z</time>
      </trkpt>
      <trkpt lat="43.66418" lon="6.18699">
        <ele>642.2</ele>
        <time>2023-10-09T14:24:17Z</time>
      </trkpt>
      <trkpt lat="43.66418" lon="6.18698">
        <ele>642.2</ele>
        <time>2023-10-09T14:24:18Z</time>
      </trkpt>
      <trkpt lat="43.66417" lon="6.18697">
        <ele>642.1</ele>
        <time>2023-10-09T14:24:19Z</time>
      </trkpt>
      <trkpt lat="43.66416" lon="6.18696">
        <ele>642</ele>
        <time>2023-10-09T14:24:20Z</time>
      </trkpt>
      <trkpt lat="43.66416" lon="6.18695">
        <ele>642</ele>
        <time>2023-10-09T14:24:21Z</time>
      </trkpt>
      <trkpt lat="43.66415" lon="6.18694">
        <ele>641.8</ele>
        <time>2023-10-09T14:24:22Z</time>
      </trkpt>
      <trkpt lat="43.66415" lon="6.18692">
        <ele>641.7</ele>
        <time>2023-10-09T14:24:23Z</time>
      </trkpt>
      <trkpt lat="43.66414" lon="6.18691">
        <ele>641.6</ele>
        <time>2023-10-09T14:24:24Z</time>
      </trkpt>
      <trkpt lat="43.66414" lon="6.18689">
        <ele>641.4</ele>
        <time>2023-10-09T14:24:25Z</time>
      </trkpt>
      <trkpt lat="43.66413" lon="6.18688">
        <ele>641.3</ele>
        <time>2023-10-09T14:24:26Z</time>
      </trkpt>
      <trkpt lat="43.66413" lon="6.18687">
        <ele>641.2</ele>
        <time>2023-10-09T14:24:27Z</time>
      </trkpt>
      <trkpt lat="43.66413" lon="6.18686">
        <ele>641.2</ele>
        <time>2023-10-09T14:24:28Z</time>
      </trkpt>
      <trkpt lat="43.66412" lon="6.18683">
        <ele>640.9</ele>
        <time>2023-10-09T14:24:29Z</time>
      </trkpt>
      <trkpt lat="43.66412" lon="6.18682">
        <ele>640.8</ele>
        <time>2023-10-09T14:24:30Z</time>
      </trkpt>
      <trkpt lat="43.66412" lon="6.18681">
        <ele>640.8</ele>
        <time>2023-10-09T14:24:31Z</time>
      </trkpt>
      <trkpt lat="43.66411" lon="6.18679">
        <ele>640.6</ele>
        <time>2023-10-09T14:24:32Z</time>
      </trkpt>
      <trkpt lat="43.66411" lon="6.18678">
        <ele>640.5</ele>
        <time>2023-10-09T14:24:33Z</time>
      </trkpt>
      <trkpt lat="43.66411" lon="6.18677">
        <ele>640.5</ele>
        <time>2023-10-09T14:24:34Z</time>
      </trkpt>
      <trkpt lat="43.6641" lon="6.18674">
        <ele>640.2</ele>
        <time>2023-10-09T14:24:35Z</time>
      </trkpt>
      <trkpt lat="43.6641" lon="6.18673">
        <ele>640.2</ele>
        <time>2023-10-09T14:24:36Z</time>
      </trkpt>
      <trkpt lat="43.6641" lon="6.18672">
        <ele>640.1</ele>
        <time>2023-10-09T14:24:37Z</time>
      </trkpt>
      <trkpt lat="43.66409" lon="6.18669">
        <ele>639.9</ele>
        <time>2023-10-09T14:24:38Z</time>
      </trkpt>
      <trkpt lat="43.66409" lon="6.18668">
        <ele>639.8</ele>
        <time>2023-10-09T14:24:39Z</time>
      </trkpt>
      <trkpt lat="43.66409" lon="6.18667">
        <ele>639.7</ele>
        <time>2023-10-09T14:24:40Z</time>
      </trkpt>
      <trkpt lat="43.66408" lon="6.18666">
        <ele>639.7</ele>
        <time>2023-10-09T14:24:41Z</time>
      </trkpt>
      <trkpt lat="43.66408" lon="6.18664">
        <ele>639.8</ele>
        <time>2023-10-09T14:24:42Z</time>
      </trkpt>
      <trkpt lat="43.66407" lon="6.18663">
        <ele>639.7</ele>
        <time>2023-10-09T14:24:43Z</time>
      </trkpt>
      <trkpt lat="43.66407" lon="6.18662">
        <ele>639.8</ele>
        <time>2023-10-09T14:24:44Z</time>
      </trkpt>
      <trkpt lat="43.66406" lon="6.18661">
        <ele>639.7</ele>
        <time>2023-10-09T14:24:45Z</time>
      </trkpt>
      <trkpt lat="43.66405" lon="6.18659">
        <ele>639.7</ele>
        <time>2023-10-09T14:24:46Z</time>
      </trkpt>
      <trkpt lat="43.66405" lon="6.18658">
        <ele>639.8</ele>
        <time>2023-10-09T14:24:47Z</time>
      </trkpt>
      <trkpt lat="43.66404" lon="6.18656">
        <ele>639.8</ele>
        <time>2023-10-09T14:24:48Z</time>
      </trkpt>
      <trkpt lat="43.66403" lon="6.18653">
        <ele>639.8</ele>
        <time>2023-10-09T14:24:49Z</time>
      </trkpt>
      <trkpt lat="43.66403" lon="6.18652">
        <ele>639.8</ele>
        <time>2023-10-09T14:24:50Z</time>
      </trkpt>
      <trkpt lat="43.66402" lon="6.18651">
        <ele>639.7</ele>
        <time>2023-10-09T14:24:51Z</time>
      </trkpt>
      <trkpt lat="43.66402" lon="6.18648">
        <ele>639.8</ele>
        <time>2023-10-09T14:24:52Z</time>
      </trkpt>
      <trkpt lat="43.66401" lon="6.18647">
        <ele>639.7</ele>
        <time>2023-10-09T14:24:53Z</time>
      </trkpt>
      <trkpt lat="43.66401" lon="6.18646">
        <ele>639.8</ele>
        <time>2023-10-09T14:24:54Z</time>
      </trkpt>
      <trkpt lat="43.664" lon="6.18644">
        <ele>639.7</ele>
        <time>2023-10-09T14:24:55Z</time>
      </trkpt>
      <trkpt lat="43.66399" lon="6.18643">
        <ele>639.7</ele>
        <time>2023-10-09T14:24:56Z</time>
      </trkpt>
      <trkpt lat="43.66399" lon="6.18641">
        <ele>639.7</ele>
        <time>2023-10-09T14:24:57Z</time>
      </trkpt>
      <trkpt lat="43.66398" lon="6.18641">
        <ele>639.6</ele>
        <time>2023-10-09T14:24:58Z</time>
      </trkpt>
      <trkpt lat="43.66397" lon="6.1864">
        <ele>639.6</ele>
        <time>2023-10-09T14:24:59Z</time>
      </trkpt>
      <trkpt lat="43.66396" lon="6.1864">
        <ele>639.5</ele>
        <time>2023-10-09T14:25:00Z</time>
      </trkpt>
      <trkpt lat="43.66395" lon="6.18639">
        <ele>639.4</ele>
        <time>2023-10-09T14:25:01Z</time>
      </trkpt>
      <trkpt lat="43.66394" lon="6.18638">
        <ele>639.3</ele>
        <time>2023-10-09T14:25:02Z</time>
      </trkpt>
      <trkpt lat="43.66393" lon="6.18637">
        <ele>639.2</ele>
        <time>2023-10-09T14:25:03Z</time>
      </trkpt>
      <trkpt lat="43.66392" lon="6.18636">
        <ele>639.1</ele>
        <time>2023-10-09T14:25:04Z</time>
      </trkpt>
      <trkpt lat="43.66391" lon="6.18635">
        <ele>639</ele>
        <time>2023-10-09T14:25:05Z</time>
      </trkpt>
      <trkpt lat="43.66391" lon="6.18634">
        <ele>639</ele>
        <time>2023-10-09T14:25:06Z</time>
      </trkpt>
      <trkpt lat="43.6639" lon="6.18633">
        <ele>638.9</ele>
        <time>2023-10-09T14:25:07Z</time>
      </trkpt>
      <trkpt lat="43.66389" lon="6.18632">
        <ele>638.8</ele>
        <time>2023-10-09T14:25:08Z</time>
      </trkpt>
      <trkpt lat="43.66388" lon="6.1863">
        <ele>638.6</ele>
        <time>2023-10-09T14:25:09Z</time>
      </trkpt>
      <trkpt lat="43.66387" lon="6.1863">
        <ele>638.6</ele>
        <time>2023-10-09T14:25:10Z</time>
      </trkpt>
      <trkpt lat="43.66386" lon="6.18629">
        <ele>638.5</ele>
        <time>2023-10-09T14:25:11Z</time>
      </trkpt>
      <trkpt lat="43.66386" lon="6.18628">
        <ele>638.4</ele>
        <time>2023-10-09T14:25:12Z</time>
      </trkpt>
      <trkpt lat="43.66385" lon="6.18627">
        <ele>638.4</ele>
        <time>2023-10-09T14:25:13Z</time>
      </trkpt>
      <trkpt lat="43.66384" lon="6.18626">
        <ele>638.3</ele>
        <time>2023-10-09T14:25:14Z</time>
      </trkpt>
      <trkpt lat="43.66383" lon="6.18625">
        <ele>638.2</ele>
        <time>2023-10-09T14:25:15Z</time>
      </trkpt>
      <trkpt lat="43.66382" lon="6.18624">
        <ele>638.1</ele>
        <time>2023-10-09T14:25:16Z</time>
      </trkpt>
      <trkpt lat="43.66381" lon="6.18623">
        <ele>638</ele>
        <time>2023-10-09T14:25:17Z</time>
      </trkpt>
      <trkpt lat="43.6638" lon="6.18622">
        <ele>637.9</ele>
        <time>2023-10-09T14:25:18Z</time>
      </trkpt>
      <trkpt lat="43.66379" lon="6.18621">
        <ele>637.9</ele>
        <time>2023-10-09T14:25:19Z</time>
      </trkpt>
      <trkpt lat="43.66379" lon="6.1862">
        <ele>637.9</ele>
        <time>2023-10-09T14:25:20Z</time>
      </trkpt>
      <trkpt lat="43.66378" lon="6.18619">
        <ele>637.8</ele>
        <time>2023-10-09T14:25:21Z</time>
      </trkpt>
      <trkpt lat="43.66377" lon="6.18618">
        <ele>637.7</ele>
        <time>2023-10-09T14:25:22Z</time>
      </trkpt>
      <trkpt lat="43.66377" lon="6.18617">
        <ele>637.7</ele>
        <time>2023-10-09T14:25:23Z</time>
      </trkpt>
      <trkpt lat="43.66376" lon="6.18615">
        <ele>637.6</ele>
        <time>2023-10-09T14:25:24Z</time>
      </trkpt>
      <trkpt lat="43.66375" lon="6.18614">
        <ele>637.6</ele>
        <time>2023-10-09T14:25:25Z</time>
      </trkpt>
      <trkpt lat="43.66374" lon="6.18613">
        <ele>637.5</ele>
        <time>2023-10-09T14:25:26Z</time>
      </trkpt>
      <trkpt lat="43.66374" lon="6.18612">
        <ele>637.5</ele>
        <time>2023-10-09T14:25:27Z</time>
      </trkpt>
      <trkpt lat="43.66373" lon="6.18612">
        <ele>637.4</ele>
        <time>2023-10-09T14:25:28Z</time>
      </trkpt>
      <trkpt lat="43.66372" lon="6.18611">
        <ele>637.4</ele>
        <time>2023-10-09T14:25:29Z</time>
      </trkpt>
      <trkpt lat="43.66371" lon="6.18609">
        <ele>637.4</ele>
        <time>2023-10-09T14:25:30Z</time>
      </trkpt>
      <trkpt lat="43.6637" lon="6.18608">
        <ele>637.4</ele>
        <time>2023-10-09T14:25:31Z</time>
      </trkpt>
      <trkpt lat="43.6637" lon="6.18607">
        <ele>637.4</ele>
        <time>2023-10-09T14:25:32Z</time>
      </trkpt>
      <trkpt lat="43.66369" lon="6.18606">
        <ele>637.3</ele>
        <time>2023-10-09T14:25:33Z</time>
      </trkpt>
      <trkpt lat="43.66368" lon="6.18605">
        <ele>637.3</ele>
        <time>2023-10-09T14:25:34Z</time>
      </trkpt>
      <trkpt lat="43.66368" lon="6.18604">
        <ele>637.3</ele>
        <time>2023-10-09T14:25:35Z</time>
      </trkpt>
      <trkpt lat="43.66367" lon="6.18603">
        <ele>637.3</ele>
        <time>2023-10-09T14:25:36Z</time>
      </trkpt>
      <trkpt lat="43.66366" lon="6.18602">
        <ele>637.2</ele>
        <time>2023-10-09T14:25:37Z</time>
      </trkpt>
      <trkpt lat="43.66366" lon="6.186">
        <ele>637.2</ele>
        <time>2023-10-09T14:25:38Z</time>
      </trkpt>
      <trkpt lat="43.66365" lon="6.18599">
        <ele>637.2</ele>
        <time>2023-10-09T14:25:39Z</time>
      </trkpt>
      <trkpt lat="43.66364" lon="6.18598">
        <ele>637.2</ele>
        <time>2023-10-09T14:25:40Z</time>
      </trkpt>
      <trkpt lat="43.66364" lon="6.18597">
        <ele>637.2</ele>
        <time>2023-10-09T14:25:41Z</time>
      </trkpt>
      <trkpt lat="43.66363" lon="6.18596">
        <ele>637.1</ele>
        <time>2023-10-09T14:25:42Z</time>
      </trkpt>
      <trkpt lat="43.66362" lon="6.18595">
        <ele>637.1</ele>
        <time>2023-10-09T14:25:43Z</time>
      </trkpt>
      <trkpt lat="43.66361" lon="6.18594">
        <ele>637</ele>
        <time>2023-10-09T14:25:44Z</time>
      </trkpt>
      <trkpt lat="43.6636" lon="6.18592">
        <ele>636.9</ele>
        <time>2023-10-09T14:25:45Z</time>
      </trkpt>
      <trkpt lat="43.6636" lon="6.18591">
        <ele>636.9</ele>
        <time>2023-10-09T14:25:46Z</time>
      </trkpt>
      <trkpt lat="43.66359" lon="6.1859">
        <ele>636.8</ele>
        <time>2023-10-09T14:25:47Z</time>
      </trkpt>
      <trkpt lat="43.66359" lon="6.18588">
        <ele>636.8</ele>
        <time>2023-10-09T14:25:48Z</time>
      </trkpt>
      <trkpt lat="43.66358" lon="6.18587">
        <ele>636.8</ele>
        <time>2023-10-09T14:25:49Z</time>
      </trkpt>
      <trkpt lat="43.66358" lon="6.18586">
        <ele>636.8</ele>
        <time>2023-10-09T14:25:50Z</time>
      </trkpt>
      <trkpt lat="43.66357" lon="6.18585">
        <ele>636.7</ele>
        <time>2023-10-09T14:25:51Z</time>
      </trkpt>
      <trkpt lat="43.66356" lon="6.18584">
        <ele>636.6</ele>
        <time>2023-10-09T14:25:52Z</time>
      </trkpt>
      <trkpt lat="43.66355" lon="6.18582">
        <ele>636.6</ele>
        <time>2023-10-09T14:25:53Z</time>
      </trkpt>
      <trkpt lat="43.66354" lon="6.1858">
        <ele>636.5</ele>
        <time>2023-10-09T14:25:54Z</time>
      </trkpt>
      <trkpt lat="43.66353" lon="6.18579">
        <ele>636.4</ele>
        <time>2023-10-09T14:25:55Z</time>
      </trkpt>
      <trkpt lat="43.66353" lon="6.18578">
        <ele>636.4</ele>
        <time>2023-10-09T14:25:56Z</time>
      </trkpt>
      <trkpt lat="43.66352" lon="6.18577">
        <ele>636.3</ele>
        <time>2023-10-09T14:25:57Z</time>
      </trkpt>
      <trkpt lat="43.66352" lon="6.18576">
        <ele>636.3</ele>
        <time>2023-10-09T14:25:58Z</time>
      </trkpt>
      <trkpt lat="43.66351" lon="6.18574">
        <ele>636.3</ele>
        <time>2023-10-09T14:25:59Z</time>
      </trkpt>
      <trkpt lat="43.6635" lon="6.18572">
        <ele>636.2</ele>
        <time>2023-10-09T14:26:00Z</time>
      </trkpt>
      <trkpt lat="43.6635" lon="6.18571">
        <ele>636.2</ele>
        <time>2023-10-09T14:26:01Z</time>
      </trkpt>
      <trkpt lat="43.66349" lon="6.1857">
        <ele>636.1</ele>
        <time>2023-10-09T14:26:02Z</time>
      </trkpt>
      <trkpt lat="43.66348" lon="6.18567">
        <ele>636.1</ele>
        <time>2023-10-09T14:26:03Z</time>
      </trkpt>
      <trkpt lat="43.66348" lon="6.18566">
        <ele>636.1</ele>
        <time>2023-10-09T14:26:04Z</time>
      </trkpt>
      <trkpt lat="43.66347" lon="6.18565">
        <ele>636</ele>
        <time>2023-10-09T14:26:05Z</time>
      </trkpt>
      <trkpt lat="43.66347" lon="6.18564">
        <ele>636</ele>
        <time>2023-10-09T14:26:06Z</time>
      </trkpt>
      <trkpt lat="43.66346" lon="6.18562">
        <ele>635.9</ele>
        <time>2023-10-09T14:26:07Z</time>
      </trkpt>
      <trkpt lat="43.66346" lon="6.18561">
        <ele>635.9</ele>
        <time>2023-10-09T14:26:08Z</time>
      </trkpt>
      <trkpt lat="43.66346" lon="6.18559">
        <ele>635.9</ele>
        <time>2023-10-09T14:26:09Z</time>
      </trkpt>
      <trkpt lat="43.66345" lon="6.18558">
        <ele>635.8</ele>
        <time>2023-10-09T14:26:10Z</time>
      </trkpt>
      <trkpt lat="43.66345" lon="6.18556">
        <ele>635.8</ele>
        <time>2023-10-09T14:26:11Z</time>
      </trkpt>
      <trkpt lat="43.66344" lon="6.18555">
        <ele>635.8</ele>
        <time>2023-10-09T14:26:12Z</time>
      </trkpt>
      <trkpt lat="43.66344" lon="6.18553">
        <ele>635.8</ele>
        <time>2023-10-09T14:26:13Z</time>
      </trkpt>
      <trkpt lat="43.66343" lon="6.18552">
        <ele>635.7</ele>
        <time>2023-10-09T14:26:14Z</time>
      </trkpt>
      <trkpt lat="43.66343" lon="6.1855">
        <ele>635.7</ele>
        <time>2023-10-09T14:26:15Z</time>
      </trkpt>
      <trkpt lat="43.66342" lon="6.18549">
        <ele>635.6</ele>
        <time>2023-10-09T14:26:16Z</time>
      </trkpt>
      <trkpt lat="43.66342" lon="6.18547">
        <ele>635.6</ele>
        <time>2023-10-09T14:26:17Z</time>
      </trkpt>
      <trkpt lat="43.66341" lon="6.18546">
        <ele>635.6</ele>
        <time>2023-10-09T14:26:18Z</time>
      </trkpt>
      <trkpt lat="43.66341" lon="6.18543">
        <ele>635.6</ele>
        <time>2023-10-09T14:26:19Z</time>
      </trkpt>
      <trkpt lat="43.6634" lon="6.18541">
        <ele>635.5</ele>
        <time>2023-10-09T14:26:20Z</time>
      </trkpt>
      <trkpt lat="43.66339" lon="6.1854">
        <ele>635.4</ele>
        <time>2023-10-09T14:26:21Z</time>
      </trkpt>
      <trkpt lat="43.66339" lon="6.18539">
        <ele>635.4</ele>
        <time>2023-10-09T14:26:22Z</time>
      </trkpt>
      <trkpt lat="43.66339" lon="6.18538">
        <ele>635.4</ele>
        <time>2023-10-09T14:26:23Z</time>
      </trkpt>
      <trkpt lat="43.66338" lon="6.18537">
        <ele>635.3</ele>
        <time>2023-10-09T14:26:24Z</time>
      </trkpt>
      <trkpt lat="43.66337" lon="6.18535">
        <ele>635.3</ele>
        <time>2023-10-09T14:26:25Z</time>
      </trkpt>
      <trkpt lat="43.66336" lon="6.18533">
        <ele>635.2</ele>
        <time>2023-10-09T14:26:26Z</time>
      </trkpt>
      <trkpt lat="43.66335" lon="6.18532">
        <ele>635.1</ele>
        <time>2023-10-09T14:26:27Z</time>
      </trkpt>
      <trkpt lat="43.66335" lon="6.18531">
        <ele>635.1</ele>
        <time>2023-10-09T14:26:28Z</time>
      </trkpt>
      <trkpt lat="43.66334" lon="6.18529">
        <ele>635</ele>
        <time>2023-10-09T14:26:29Z</time>
      </trkpt>
      <trkpt lat="43.66334" lon="6.18527">
        <ele>635</ele>
        <time>2023-10-09T14:26:30Z</time>
      </trkpt>
      <trkpt lat="43.66333" lon="6.18526">
        <ele>635</ele>
        <time>2023-10-09T14:26:31Z</time>
      </trkpt>
      <trkpt lat="43.66333" lon="6.18525">
        <ele>635</ele>
        <time>2023-10-09T14:26:32Z</time>
      </trkpt>
      <trkpt lat="43.66332" lon="6.18523">
        <ele>635</ele>
        <time>2023-10-09T14:26:33Z</time>
      </trkpt>
      <trkpt lat="43.66332" lon="6.18522">
        <ele>635</ele>
        <time>2023-10-09T14:26:34Z</time>
      </trkpt>
      <trkpt lat="43.66331" lon="6.18519">
        <ele>634.9</ele>
        <time>2023-10-09T14:26:35Z</time>
      </trkpt>
      <trkpt lat="43.6633" lon="6.18518">
        <ele>634.9</ele>
        <time>2023-10-09T14:26:36Z</time>
      </trkpt>
      <trkpt lat="43.6633" lon="6.18517">
        <ele>634.9</ele>
        <time>2023-10-09T14:26:37Z</time>
      </trkpt>
      <trkpt lat="43.6633" lon="6.18516">
        <ele>634.9</ele>
        <time>2023-10-09T14:26:38Z</time>
      </trkpt>
      <trkpt lat="43.66329" lon="6.18515">
        <ele>634.8</ele>
        <time>2023-10-09T14:26:39Z</time>
      </trkpt>
      <trkpt lat="43.66328" lon="6.18514">
        <ele>634.8</ele>
        <time>2023-10-09T14:26:40Z</time>
      </trkpt>
      <trkpt lat="43.66327" lon="6.18513">
        <ele>634.8</ele>
        <time>2023-10-09T14:26:41Z</time>
      </trkpt>
      <trkpt lat="43.66326" lon="6.18512">
        <ele>634.7</ele>
        <time>2023-10-09T14:26:42Z</time>
      </trkpt>
      <trkpt lat="43.66325" lon="6.18511">
        <ele>634.7</ele>
        <time>2023-10-09T14:26:43Z</time>
      </trkpt>
      <trkpt lat="43.66324" lon="6.1851">
        <ele>634.7</ele>
        <time>2023-10-09T14:26:44Z</time>
      </trkpt>
      <trkpt lat="43.66323" lon="6.18509">
        <ele>634.6</ele>
        <time>2023-10-09T14:26:45Z</time>
      </trkpt>
      <trkpt lat="43.66322" lon="6.18506">
        <ele>634.6</ele>
        <time>2023-10-09T14:26:46Z</time>
      </trkpt>
      <trkpt lat="43.66321" lon="6.18505">
        <ele>634.6</ele>
        <time>2023-10-09T14:26:47Z</time>
      </trkpt>
      <trkpt lat="43.66321" lon="6.18504">
        <ele>634.6</ele>
        <time>2023-10-09T14:26:48Z</time>
      </trkpt>
      <trkpt lat="43.6632" lon="6.18503">
        <ele>634.5</ele>
        <time>2023-10-09T14:26:49Z</time>
      </trkpt>
      <trkpt lat="43.6632" lon="6.18501">
        <ele>634.5</ele>
        <time>2023-10-09T14:26:50Z</time>
      </trkpt>
      <trkpt lat="43.66319" lon="6.185">
        <ele>634.5</ele>
        <time>2023-10-09T14:26:51Z</time>
      </trkpt>
      <trkpt lat="43.66319" lon="6.18499">
        <ele>634.5</ele>
        <time>2023-10-09T14:26:52Z</time>
      </trkpt>
      <trkpt lat="43.66318" lon="6.18498">
        <ele>634.4</ele>
        <time>2023-10-09T14:26:53Z</time>
      </trkpt>
      <trkpt lat="43.66318" lon="6.18497">
        <ele>634.4</ele>
        <time>2023-10-09T14:26:54Z</time>
      </trkpt>
      <trkpt lat="43.66317" lon="6.18495">
        <ele>634.4</ele>
        <time>2023-10-09T14:26:55Z</time>
      </trkpt>
      <trkpt lat="43.66316" lon="6.18494">
        <ele>634.4</ele>
        <time>2023-10-09T14:26:56Z</time>
      </trkpt>
      <trkpt lat="43.66316" lon="6.18493">
        <ele>634.4</ele>
        <time>2023-10-09T14:26:57Z</time>
      </trkpt>
      <trkpt lat="43.66315" lon="6.18492">
        <ele>634.3</ele>
        <time>2023-10-09T14:26:58Z</time>
      </trkpt>
      <trkpt lat="43.66315" lon="6.18491">
        <ele>634.3</ele>
        <time>2023-10-09T14:26:59Z</time>
      </trkpt>
      <trkpt lat="43.66314" lon="6.1849">
        <ele>634.3</ele>
        <time>2023-10-09T14:27:00Z</time>
      </trkpt>
      <trkpt lat="43.66314" lon="6.18488">
        <ele>634.3</ele>
        <time>2023-10-09T14:27:01Z</time>
      </trkpt>
      <trkpt lat="43.66313" lon="6.18486">
        <ele>634.3</ele>
        <time>2023-10-09T14:27:02Z</time>
      </trkpt>
      <trkpt lat="43.66312" lon="6.18485">
        <ele>634.2</ele>
        <time>2023-10-09T14:27:03Z</time>
      </trkpt>
      <trkpt lat="43.66312" lon="6.18484">
        <ele>634.2</ele>
        <time>2023-10-09T14:27:04Z</time>
      </trkpt>
      <trkpt lat="43.66311" lon="6.18483">
        <ele>634.2</ele>
        <time>2023-10-09T14:27:05Z</time>
      </trkpt>
      <trkpt lat="43.6631" lon="6.18482">
        <ele>634.2</ele>
        <time>2023-10-09T14:27:06Z</time>
      </trkpt>
      <trkpt lat="43.6631" lon="6.1848">
        <ele>634.2</ele>
        <time>2023-10-09T14:27:07Z</time>
      </trkpt>
      <trkpt lat="43.66309" lon="6.18479">
        <ele>634.1</ele>
        <time>2023-10-09T14:27:08Z</time>
      </trkpt>
      <trkpt lat="43.66309" lon="6.18477">
        <ele>634.1</ele>
        <time>2023-10-09T14:27:09Z</time>
      </trkpt>
      <trkpt lat="43.66308" lon="6.18474">
        <ele>634.1</ele>
        <time>2023-10-09T14:27:10Z</time>
      </trkpt>
      <trkpt lat="43.66308" lon="6.18472">
        <ele>634.1</ele>
        <time>2023-10-09T14:27:11Z</time>
      </trkpt>
      <trkpt lat="43.66307" lon="6.18471">
        <ele>634</ele>
        <time>2023-10-09T14:27:12Z</time>
      </trkpt>
      <trkpt lat="43.66307" lon="6.1847">
        <ele>634</ele>
        <time>2023-10-09T14:27:13Z</time>
      </trkpt>
      <trkpt lat="43.66306" lon="6.18467">
        <ele>633.8</ele>
        <time>2023-10-09T14:27:14Z</time>
      </trkpt>
      <trkpt lat="43.66306" lon="6.18466">
        <ele>633.8</ele>
        <time>2023-10-09T14:27:15Z</time>
      </trkpt>
      <trkpt lat="43.66306" lon="6.18465">
        <ele>633.8</ele>
        <time>2023-10-09T14:27:16Z</time>
      </trkpt>
      <trkpt lat="43.66305" lon="6.18462">
        <ele>633.6</ele>
        <time>2023-10-09T14:27:17Z</time>
      </trkpt>
      <trkpt lat="43.66305" lon="6.18461">
        <ele>633.6</ele>
        <time>2023-10-09T14:27:18Z</time>
      </trkpt>
      <trkpt lat="43.66304" lon="6.1846">
        <ele>633.4</ele>
        <time>2023-10-09T14:27:19Z</time>
      </trkpt>
      <trkpt lat="43.66304" lon="6.18459">
        <ele>633.4</ele>
        <time>2023-10-09T14:27:20Z</time>
      </trkpt>
      <trkpt lat="43.66303" lon="6.18458">
        <ele>633.3</ele>
        <time>2023-10-09T14:27:21Z</time>
      </trkpt>
      <trkpt lat="43.66303" lon="6.18456">
        <ele>633.2</ele>
        <time>2023-10-09T14:27:22Z</time>
      </trkpt>
      <trkpt lat="43.66302" lon="6.18455">
        <ele>633.1</ele>
        <time>2023-10-09T14:27:23Z</time>
      </trkpt>
      <trkpt lat="43.66302" lon="6.18453">
        <ele>633.1</ele>
        <time>2023-10-09T14:27:24Z</time>
      </trkpt>
      <trkpt lat="43.66301" lon="6.18451">
        <ele>632.9</ele>
        <time>2023-10-09T14:27:25Z</time>
      </trkpt>
      <trkpt lat="43.66301" lon="6.18449">
        <ele>632.8</ele>
        <time>2023-10-09T14:27:26Z</time>
      </trkpt>
      <trkpt lat="43.66301" lon="6.18447">
        <ele>632.8</ele>
        <time>2023-10-09T14:27:27Z</time>
      </trkpt>
      <trkpt lat="43.66301" lon="6.18445">
        <ele>632.7</ele>
        <time>2023-10-09T14:27:28Z</time>
      </trkpt>
      <trkpt lat="43.66301" lon="6.18444">
        <ele>632.7</ele>
        <time>2023-10-09T14:27:29Z</time>
      </trkpt>
      <trkpt lat="43.66301" lon="6.18443">
        <ele>632.6</ele>
        <time>2023-10-09T14:27:30Z</time>
      </trkpt>
      <trkpt lat="43.66301" lon="6.18441">
        <ele>632.5</ele>
        <time>2023-10-09T14:27:31Z</time>
      </trkpt>
      <trkpt lat="43.66301" lon="6.18439">
        <ele>632.5</ele>
        <time>2023-10-09T14:27:32Z</time>
      </trkpt>
      <trkpt lat="43.66301" lon="6.18437">
        <ele>632.4</ele>
        <time>2023-10-09T14:27:33Z</time>
      </trkpt>
      <trkpt lat="43.66301" lon="6.18436">
        <ele>632.4</ele>
        <time>2023-10-09T14:27:34Z</time>
      </trkpt>
      <trkpt lat="43.66301" lon="6.18435">
        <ele>632.3</ele>
        <time>2023-10-09T14:27:35Z</time>
      </trkpt>
      <trkpt lat="43.66302" lon="6.18433">
        <ele>632.3</ele>
        <time>2023-10-09T14:27:36Z</time>
      </trkpt>
      <trkpt lat="43.66302" lon="6.18432">
        <ele>632.3</ele>
        <time>2023-10-09T14:27:37Z</time>
      </trkpt>
      <trkpt lat="43.66302" lon="6.1843">
        <ele>632.2</ele>
        <time>2023-10-09T14:27:38Z</time>
      </trkpt>
      <trkpt lat="43.66302" lon="6.18428">
        <ele>632.2</ele>
        <time>2023-10-09T14:27:39Z</time>
      </trkpt>
      <trkpt lat="43.66302" lon="6.18426">
        <ele>632.1</ele>
        <time>2023-10-09T14:27:40Z</time>
      </trkpt>
      <trkpt lat="43.66302" lon="6.18423">
        <ele>632</ele>
        <time>2023-10-09T14:27:41Z</time>
      </trkpt>
      <trkpt lat="43.66302" lon="6.18421">
        <ele>631.9</ele>
        <time>2023-10-09T14:27:42Z</time>
      </trkpt>
      <trkpt lat="43.66302" lon="6.18419">
        <ele>631.8</ele>
        <time>2023-10-09T14:27:43Z</time>
      </trkpt>
      <trkpt lat="43.66302" lon="6.18417">
        <ele>631.8</ele>
        <time>2023-10-09T14:27:44Z</time>
      </trkpt>
      <trkpt lat="43.66302" lon="6.18415">
        <ele>631.8</ele>
        <time>2023-10-09T14:27:45Z</time>
      </trkpt>
      <trkpt lat="43.66303" lon="6.18414">
        <ele>631.9</ele>
        <time>2023-10-09T14:27:46Z</time>
      </trkpt>
      <trkpt lat="43.66303" lon="6.18413">
        <ele>631.9</ele>
        <time>2023-10-09T14:27:47Z</time>
      </trkpt>
      <trkpt lat="43.66302" lon="6.18411">
        <ele>631.9</ele>
        <time>2023-10-09T14:27:48Z</time>
      </trkpt>
      <trkpt lat="43.66302" lon="6.1841">
        <ele>632</ele>
        <time>2023-10-09T14:27:49Z</time>
      </trkpt>
      <trkpt lat="43.66302" lon="6.18408">
        <ele>632</ele>
        <time>2023-10-09T14:27:50Z</time>
      </trkpt>
      <trkpt lat="43.66302" lon="6.18406">
        <ele>632.1</ele>
        <time>2023-10-09T14:27:51Z</time>
      </trkpt>
      <trkpt lat="43.66302" lon="6.18405">
        <ele>632.1</ele>
        <time>2023-10-09T14:27:52Z</time>
      </trkpt>
      <trkpt lat="43.66302" lon="6.18403">
        <ele>632.2</ele>
        <time>2023-10-09T14:27:53Z</time>
      </trkpt>
      <trkpt lat="43.66302" lon="6.18402">
        <ele>632.2</ele>
        <time>2023-10-09T14:27:54Z</time>
      </trkpt>
      <trkpt lat="43.66302" lon="6.18401">
        <ele>632.2</ele>
        <time>2023-10-09T14:27:55Z</time>
      </trkpt>
      <trkpt lat="43.66301" lon="6.184">
        <ele>632.2</ele>
        <time>2023-10-09T14:27:56Z</time>
      </trkpt>
      <trkpt lat="43.66301" lon="6.18399">
        <ele>632.2</ele>
        <time>2023-10-09T14:27:57Z</time>
      </trkpt>
      <trkpt lat="43.66301" lon="6.18397">
        <ele>632.3</ele>
        <time>2023-10-09T14:27:58Z</time>
      </trkpt>
      <trkpt lat="43.66301" lon="6.18396">
        <ele>632.3</ele>
        <time>2023-10-09T14:27:59Z</time>
      </trkpt>
      <trkpt lat="43.66301" lon="6.18394">
        <ele>632.4</ele>
        <time>2023-10-09T14:28:00Z</time>
      </trkpt>
      <trkpt lat="43.66301" lon="6.18392">
        <ele>632.4</ele>
        <time>2023-10-09T14:28:01Z</time>
      </trkpt>
      <trkpt lat="43.66301" lon="6.18391">
        <ele>632.4</ele>
        <time>2023-10-09T14:28:02Z</time>
      </trkpt>
      <trkpt lat="43.66301" lon="6.18389">
        <ele>632.5</ele>
        <time>2023-10-09T14:28:03Z</time>
      </trkpt>
      <trkpt lat="43.66301" lon="6.18387">
        <ele>632.5</ele>
        <time>2023-10-09T14:28:04Z</time>
      </trkpt>
      <trkpt lat="43.66301" lon="6.18386">
        <ele>632.4</ele>
        <time>2023-10-09T14:28:05Z</time>
      </trkpt>
      <trkpt lat="43.66301" lon="6.18385">
        <ele>632.4</ele>
        <time>2023-10-09T14:28:06Z</time>
      </trkpt>
      <trkpt lat="43.66301" lon="6.18384">
        <ele>632.4</ele>
        <time>2023-10-09T14:28:07Z</time>
      </trkpt>
      <trkpt lat="43.66301" lon="6.18383">
        <ele>632.3</ele>
        <time>2023-10-09T14:28:08Z</time>
      </trkpt>
      <trkpt lat="43.66301" lon="6.18381">
        <ele>632.3</ele>
        <time>2023-10-09T14:28:09Z</time>
      </trkpt>
      <trkpt lat="43.663" lon="6.1838">
        <ele>632.1</ele>
        <time>2023-10-09T14:28:10Z</time>
      </trkpt>
      <trkpt lat="43.663" lon="6.18378">
        <ele>632.1</ele>
        <time>2023-10-09T14:28:11Z</time>
      </trkpt>
      <trkpt lat="43.66299" lon="6.18377">
        <ele>632</ele>
        <time>2023-10-09T14:28:12Z</time>
      </trkpt>
      <trkpt lat="43.66299" lon="6.18376">
        <ele>631.9</ele>
        <time>2023-10-09T14:28:13Z</time>
      </trkpt>
      <trkpt lat="43.66298" lon="6.18373">
        <ele>631.8</ele>
        <time>2023-10-09T14:28:14Z</time>
      </trkpt>
      <trkpt lat="43.66298" lon="6.18372">
        <ele>631.7</ele>
        <time>2023-10-09T14:28:15Z</time>
      </trkpt>
      <trkpt lat="43.66297" lon="6.18371">
        <ele>631.6</ele>
        <time>2023-10-09T14:28:16Z</time>
      </trkpt>
      <trkpt lat="43.66297" lon="6.18369">
        <ele>631.6</ele>
        <time>2023-10-09T14:28:17Z</time>
      </trkpt>
      <trkpt lat="43.66296" lon="6.18366">
        <ele>631.4</ele>
        <time>2023-10-09T14:28:18Z</time>
      </trkpt>
      <trkpt lat="43.66295" lon="6.18364">
        <ele>631.3</ele>
        <time>2023-10-09T14:28:19Z</time>
      </trkpt>
      <trkpt lat="43.66295" lon="6.18363">
        <ele>631.3</ele>
        <time>2023-10-09T14:28:20Z</time>
      </trkpt>
      <trkpt lat="43.66295" lon="6.18362">
        <ele>631.3</ele>
        <time>2023-10-09T14:28:21Z</time>
      </trkpt>
      <trkpt lat="43.66294" lon="6.18359">
        <ele>631.2</ele>
        <time>2023-10-09T14:28:22Z</time>
      </trkpt>
      <trkpt lat="43.66293" lon="6.18358">
        <ele>631.1</ele>
        <time>2023-10-09T14:28:23Z</time>
      </trkpt>
      <trkpt lat="43.66293" lon="6.18357">
        <ele>631.1</ele>
        <time>2023-10-09T14:28:24Z</time>
      </trkpt>
      <trkpt lat="43.66292" lon="6.18355">
        <ele>631</ele>
        <time>2023-10-09T14:28:25Z</time>
      </trkpt>
      <trkpt lat="43.66292" lon="6.18353">
        <ele>631</ele>
        <time>2023-10-09T14:28:26Z</time>
      </trkpt>
      <trkpt lat="43.66291" lon="6.18352">
        <ele>631</ele>
        <time>2023-10-09T14:28:27Z</time>
      </trkpt>
      <trkpt lat="43.66291" lon="6.1835">
        <ele>631</ele>
        <time>2023-10-09T14:28:28Z</time>
      </trkpt>
      <trkpt lat="43.66291" lon="6.18349">
        <ele>631</ele>
        <time>2023-10-09T14:28:29Z</time>
      </trkpt>
      <trkpt lat="43.66291" lon="6.18348">
        <ele>631</ele>
        <time>2023-10-09T14:28:30Z</time>
      </trkpt>
      <trkpt lat="43.66291" lon="6.18347">
        <ele>631</ele>
        <time>2023-10-09T14:28:31Z</time>
      </trkpt>
      <trkpt lat="43.6629" lon="6.18345">
        <ele>630.9</ele>
        <time>2023-10-09T14:28:32Z</time>
      </trkpt>
      <trkpt lat="43.6629" lon="6.18343">
        <ele>630.9</ele>
        <time>2023-10-09T14:28:33Z</time>
      </trkpt>
      <trkpt lat="43.66289" lon="6.18341">
        <ele>630.8</ele>
        <time>2023-10-09T14:28:34Z</time>
      </trkpt>
      <trkpt lat="43.66289" lon="6.1834">
        <ele>630.8</ele>
        <time>2023-10-09T14:28:35Z</time>
      </trkpt>
      <trkpt lat="43.66289" lon="6.18338">
        <ele>630.8</ele>
        <time>2023-10-09T14:28:36Z</time>
      </trkpt>
      <trkpt lat="43.66289" lon="6.18336">
        <ele>630.8</ele>
        <time>2023-10-09T14:28:37Z</time>
      </trkpt>
      <trkpt lat="43.66289" lon="6.18335">
        <ele>630.8</ele>
        <time>2023-10-09T14:28:38Z</time>
      </trkpt>
      <trkpt lat="43.66288" lon="6.18333">
        <ele>630.7</ele>
        <time>2023-10-09T14:28:39Z</time>
      </trkpt>
      <trkpt lat="43.66287" lon="6.18332">
        <ele>630.7</ele>
        <time>2023-10-09T14:28:40Z</time>
      </trkpt>
      <trkpt lat="43.66287" lon="6.1833">
        <ele>630.7</ele>
        <time>2023-10-09T14:28:41Z</time>
      </trkpt>
      <trkpt lat="43.66286" lon="6.18328">
        <ele>630.6</ele>
        <time>2023-10-09T14:28:42Z</time>
      </trkpt>
      <trkpt lat="43.66286" lon="6.18326">
        <ele>630.6</ele>
        <time>2023-10-09T14:28:43Z</time>
      </trkpt>
      <trkpt lat="43.66286" lon="6.18325">
        <ele>630.6</ele>
        <time>2023-10-09T14:28:44Z</time>
      </trkpt>
      <trkpt lat="43.66285" lon="6.18324">
        <ele>630.5</ele>
        <time>2023-10-09T14:28:45Z</time>
      </trkpt>
      <trkpt lat="43.66285" lon="6.18323">
        <ele>630.5</ele>
        <time>2023-10-09T14:28:46Z</time>
      </trkpt>
      <trkpt lat="43.66284" lon="6.18321">
        <ele>630.4</ele>
        <time>2023-10-09T14:28:47Z</time>
      </trkpt>
      <trkpt lat="43.66284" lon="6.1832">
        <ele>630.4</ele>
        <time>2023-10-09T14:28:48Z</time>
      </trkpt>
      <trkpt lat="43.66284" lon="6.18319">
        <ele>630.4</ele>
        <time>2023-10-09T14:28:49Z</time>
      </trkpt>
      <trkpt lat="43.66283" lon="6.18317">
        <ele>630.4</ele>
        <time>2023-10-09T14:28:50Z</time>
      </trkpt>
      <trkpt lat="43.66282" lon="6.18316">
        <ele>630.3</ele>
        <time>2023-10-09T14:28:51Z</time>
      </trkpt>
      <trkpt lat="43.66282" lon="6.18314">
        <ele>630.3</ele>
        <time>2023-10-09T14:28:52Z</time>
      </trkpt>
      <trkpt lat="43.66281" lon="6.18311">
        <ele>630.2</ele>
        <time>2023-10-09T14:28:53Z</time>
      </trkpt>
      <trkpt lat="43.66281" lon="6.1831">
        <ele>630.2</ele>
        <time>2023-10-09T14:28:54Z</time>
      </trkpt>
      <trkpt lat="43.6628" lon="6.18309">
        <ele>630.2</ele>
        <time>2023-10-09T14:28:55Z</time>
      </trkpt>
      <trkpt lat="43.6628" lon="6.18307">
        <ele>630.2</ele>
        <time>2023-10-09T14:28:56Z</time>
      </trkpt>
      <trkpt lat="43.6628" lon="6.18306">
        <ele>630.2</ele>
        <time>2023-10-09T14:28:57Z</time>
      </trkpt>
      <trkpt lat="43.66279" lon="6.18304">
        <ele>630</ele>
        <time>2023-10-09T14:28:58Z</time>
      </trkpt>
      <trkpt lat="43.66279" lon="6.18302">
        <ele>630</ele>
        <time>2023-10-09T14:28:59Z</time>
      </trkpt>
      <trkpt lat="43.66279" lon="6.18301">
        <ele>629.9</ele>
        <time>2023-10-09T14:29:00Z</time>
      </trkpt>
      <trkpt lat="43.66279" lon="6.18299">
        <ele>629.9</ele>
        <time>2023-10-09T14:29:01Z</time>
      </trkpt>
      <trkpt lat="43.66279" lon="6.18298">
        <ele>629.8</ele>
        <time>2023-10-09T14:29:02Z</time>
      </trkpt>
      <trkpt lat="43.6628" lon="6.18296">
        <ele>629.8</ele>
        <time>2023-10-09T14:29:03Z</time>
      </trkpt>
      <trkpt lat="43.6628" lon="6.18295">
        <ele>629.8</ele>
        <time>2023-10-09T14:29:04Z</time>
      </trkpt>
      <trkpt lat="43.66279" lon="6.18293">
        <ele>629.6</ele>
        <time>2023-10-09T14:29:05Z</time>
      </trkpt>
      <trkpt lat="43.66279" lon="6.18291">
        <ele>629.6</ele>
        <time>2023-10-09T14:29:06Z</time>
      </trkpt>
      <trkpt lat="43.66279" lon="6.1829">
        <ele>629.5</ele>
        <time>2023-10-09T14:29:07Z</time>
      </trkpt>
      <trkpt lat="43.66279" lon="6.18288">
        <ele>629.5</ele>
        <time>2023-10-09T14:29:08Z</time>
      </trkpt>
      <trkpt lat="43.66279" lon="6.18286">
        <ele>629.4</ele>
        <time>2023-10-09T14:29:09Z</time>
      </trkpt>
      <trkpt lat="43.66279" lon="6.18284">
        <ele>629.3</ele>
        <time>2023-10-09T14:29:10Z</time>
      </trkpt>
      <trkpt lat="43.66279" lon="6.18282">
        <ele>629.2</ele>
        <time>2023-10-09T14:29:11Z</time>
      </trkpt>
      <trkpt lat="43.66279" lon="6.1828">
        <ele>629.2</ele>
        <time>2023-10-09T14:29:12Z</time>
      </trkpt>
      <trkpt lat="43.66279" lon="6.18278">
        <ele>629.1</ele>
        <time>2023-10-09T14:29:13Z</time>
      </trkpt>
      <trkpt lat="43.66279" lon="6.18277">
        <ele>629.1</ele>
        <time>2023-10-09T14:29:14Z</time>
      </trkpt>
      <trkpt lat="43.66279" lon="6.18276">
        <ele>629</ele>
        <time>2023-10-09T14:29:15Z</time>
      </trkpt>
      <trkpt lat="43.66279" lon="6.18274">
        <ele>628.9</ele>
        <time>2023-10-09T14:29:16Z</time>
      </trkpt>
      <trkpt lat="43.66279" lon="6.18272">
        <ele>628.9</ele>
        <time>2023-10-09T14:29:17Z</time>
      </trkpt>
      <trkpt lat="43.66279" lon="6.1827">
        <ele>628.8</ele>
        <time>2023-10-09T14:29:18Z</time>
      </trkpt>
      <trkpt lat="43.66279" lon="6.18268">
        <ele>628.7</ele>
        <time>2023-10-09T14:29:19Z</time>
      </trkpt>
      <trkpt lat="43.66279" lon="6.18267">
        <ele>628.7</ele>
        <time>2023-10-09T14:29:20Z</time>
      </trkpt>
      <trkpt lat="43.66279" lon="6.18265">
        <ele>628.6</ele>
        <time>2023-10-09T14:29:21Z</time>
      </trkpt>
      <trkpt lat="43.66279" lon="6.18264">
        <ele>628.6</ele>
        <time>2023-10-09T14:29:22Z</time>
      </trkpt>
      <trkpt lat="43.66279" lon="6.18263">
        <ele>628.5</ele>
        <time>2023-10-09T14:29:23Z</time>
      </trkpt>
      <trkpt lat="43.66279" lon="6.1826">
        <ele>628.4</ele>
        <time>2023-10-09T14:29:24Z</time>
      </trkpt>
      <trkpt lat="43.66279" lon="6.18259">
        <ele>628.4</ele>
        <time>2023-10-09T14:29:25Z</time>
      </trkpt>
      <trkpt lat="43.66279" lon="6.18258">
        <ele>628.3</ele>
        <time>2023-10-09T14:29:26Z</time>
      </trkpt>
      <trkpt lat="43.6628" lon="6.18256">
        <ele>628.3</ele>
        <time>2023-10-09T14:29:27Z</time>
      </trkpt>
      <trkpt lat="43.6628" lon="6.18254">
        <ele>628.2</ele>
        <time>2023-10-09T14:29:28Z</time>
      </trkpt>
      <trkpt lat="43.6628" lon="6.18252">
        <ele>628.2</ele>
        <time>2023-10-09T14:29:29Z</time>
      </trkpt>
      <trkpt lat="43.6628" lon="6.18251">
        <ele>628.1</ele>
        <time>2023-10-09T14:29:30Z</time>
      </trkpt>
      <trkpt lat="43.6628" lon="6.18249">
        <ele>628</ele>
        <time>2023-10-09T14:29:31Z</time>
      </trkpt>
      <trkpt lat="43.6628" lon="6.18248">
        <ele>628</ele>
        <time>2023-10-09T14:29:32Z</time>
      </trkpt>
      <trkpt lat="43.6628" lon="6.18246">
        <ele>627.9</ele>
        <time>2023-10-09T14:29:33Z</time>
      </trkpt>
      <trkpt lat="43.6628" lon="6.18245">
        <ele>627.9</ele>
        <time>2023-10-09T14:29:34Z</time>
      </trkpt>
      <trkpt lat="43.6628" lon="6.18242">
        <ele>627.8</ele>
        <time>2023-10-09T14:29:35Z</time>
      </trkpt>
      <trkpt lat="43.6628" lon="6.18241">
        <ele>627.8</ele>
        <time>2023-10-09T14:29:36Z</time>
      </trkpt>
      <trkpt lat="43.6628" lon="6.1824">
        <ele>627.7</ele>
        <time>2023-10-09T14:29:37Z</time>
      </trkpt>
      <trkpt lat="43.6628" lon="6.18239">
        <ele>627.7</ele>
        <time>2023-10-09T14:29:38Z</time>
      </trkpt>
      <trkpt lat="43.6628" lon="6.18237">
        <ele>627.6</ele>
        <time>2023-10-09T14:29:39Z</time>
      </trkpt>
      <trkpt lat="43.66281" lon="6.18236">
        <ele>627.7</ele>
        <time>2023-10-09T14:29:40Z</time>
      </trkpt>
      <trkpt lat="43.66281" lon="6.18234">
        <ele>627.6</ele>
        <time>2023-10-09T14:29:41Z</time>
      </trkpt>
      <trkpt lat="43.66282" lon="6.18233">
        <ele>627.6</ele>
        <time>2023-10-09T14:29:42Z</time>
      </trkpt>
      <trkpt lat="43.66283" lon="6.1823">
        <ele>627.6</ele>
        <time>2023-10-09T14:29:43Z</time>
      </trkpt>
      <trkpt lat="43.66283" lon="6.18229">
        <ele>627.6</ele>
        <time>2023-10-09T14:29:44Z</time>
      </trkpt>
      <trkpt lat="43.66283" lon="6.18227">
        <ele>627.5</ele>
        <time>2023-10-09T14:29:45Z</time>
      </trkpt>
      <trkpt lat="43.66283" lon="6.18226">
        <ele>627.5</ele>
        <time>2023-10-09T14:29:46Z</time>
      </trkpt>
      <trkpt lat="43.66283" lon="6.18225">
        <ele>627.5</ele>
        <time>2023-10-09T14:29:47Z</time>
      </trkpt>
      <trkpt lat="43.66284" lon="6.18223">
        <ele>627.5</ele>
        <time>2023-10-09T14:29:48Z</time>
      </trkpt>
      <trkpt lat="43.66283" lon="6.18221">
        <ele>627.4</ele>
        <time>2023-10-09T14:29:49Z</time>
      </trkpt>
      <trkpt lat="43.66283" lon="6.18219">
        <ele>627.3</ele>
        <time>2023-10-09T14:29:50Z</time>
      </trkpt>
      <trkpt lat="43.66283" lon="6.18218">
        <ele>627.3</ele>
        <time>2023-10-09T14:29:51Z</time>
      </trkpt>
      <trkpt lat="43.66284" lon="6.18215">
        <ele>627.3</ele>
        <time>2023-10-09T14:29:52Z</time>
      </trkpt>
      <trkpt lat="43.66284" lon="6.18214">
        <ele>627.3</ele>
        <time>2023-10-09T14:29:53Z</time>
      </trkpt>
      <trkpt lat="43.66285" lon="6.18213">
        <ele>627.3</ele>
        <time>2023-10-09T14:29:54Z</time>
      </trkpt>
      <trkpt lat="43.66285" lon="6.18212">
        <ele>627.3</ele>
        <time>2023-10-09T14:29:55Z</time>
      </trkpt>
      <trkpt lat="43.66286" lon="6.18211">
        <ele>627.4</ele>
        <time>2023-10-09T14:29:56Z</time>
      </trkpt>
      <trkpt lat="43.66286" lon="6.18209">
        <ele>627.3</ele>
        <time>2023-10-09T14:29:57Z</time>
      </trkpt>
      <trkpt lat="43.66286" lon="6.18206">
        <ele>627.2</ele>
        <time>2023-10-09T14:29:58Z</time>
      </trkpt>
      <trkpt lat="43.66287" lon="6.18205">
        <ele>627.3</ele>
        <time>2023-10-09T14:29:59Z</time>
      </trkpt>
      <trkpt lat="43.66287" lon="6.18204">
        <ele>627.2</ele>
        <time>2023-10-09T14:30:00Z</time>
      </trkpt>
      <trkpt lat="43.66287" lon="6.18202">
        <ele>627.2</ele>
        <time>2023-10-09T14:30:01Z</time>
      </trkpt>
      <trkpt lat="43.66287" lon="6.18201">
        <ele>627.2</ele>
        <time>2023-10-09T14:30:02Z</time>
      </trkpt>
      <trkpt lat="43.66287" lon="6.18199">
        <ele>627.1</ele>
        <time>2023-10-09T14:30:03Z</time>
      </trkpt>
      <trkpt lat="43.66287" lon="6.18198">
        <ele>627.1</ele>
        <time>2023-10-09T14:30:04Z</time>
      </trkpt>
      <trkpt lat="43.66287" lon="6.18196">
        <ele>627</ele>
        <time>2023-10-09T14:30:05Z</time>
      </trkpt>
      <trkpt lat="43.66287" lon="6.18195">
        <ele>627</ele>
        <time>2023-10-09T14:30:06Z</time>
      </trkpt>
      <trkpt lat="43.66287" lon="6.18193">
        <ele>627</ele>
        <time>2023-10-09T14:30:07Z</time>
      </trkpt>
      <trkpt lat="43.66287" lon="6.18192">
        <ele>627.1</ele>
        <time>2023-10-09T14:30:08Z</time>
      </trkpt>
      <trkpt lat="43.66287" lon="6.18191">
        <ele>627.1</ele>
        <time>2023-10-09T14:30:09Z</time>
      </trkpt>
      <trkpt lat="43.66286" lon="6.18189">
        <ele>627.1</ele>
        <time>2023-10-09T14:30:10Z</time>
      </trkpt>
      <trkpt lat="43.66286" lon="6.18188">
        <ele>627.1</ele>
        <time>2023-10-09T14:30:11Z</time>
      </trkpt>
      <trkpt lat="43.66286" lon="6.18187">
        <ele>627.2</ele>
        <time>2023-10-09T14:30:12Z</time>
      </trkpt>
      <trkpt lat="43.66286" lon="6.18184">
        <ele>627.2</ele>
        <time>2023-10-09T14:30:13Z</time>
      </trkpt>
      <trkpt lat="43.66286" lon="6.18183">
        <ele>627.2</ele>
        <time>2023-10-09T14:30:14Z</time>
      </trkpt>
      <trkpt lat="43.66286" lon="6.18181">
        <ele>627.3</ele>
        <time>2023-10-09T14:30:15Z</time>
      </trkpt>
      <trkpt lat="43.66286" lon="6.18179">
        <ele>627.3</ele>
        <time>2023-10-09T14:30:16Z</time>
      </trkpt>
      <trkpt lat="43.66285" lon="6.18177">
        <ele>627.3</ele>
        <time>2023-10-09T14:30:17Z</time>
      </trkpt>
      <trkpt lat="43.66285" lon="6.18176">
        <ele>627.3</ele>
        <time>2023-10-09T14:30:18Z</time>
      </trkpt>
      <trkpt lat="43.66285" lon="6.18174">
        <ele>627.4</ele>
        <time>2023-10-09T14:30:19Z</time>
      </trkpt>
      <trkpt lat="43.66285" lon="6.18173">
        <ele>627.4</ele>
        <time>2023-10-09T14:30:20Z</time>
      </trkpt>
      <trkpt lat="43.66285" lon="6.18172">
        <ele>627.4</ele>
        <time>2023-10-09T14:30:21Z</time>
      </trkpt>
      <trkpt lat="43.66285" lon="6.1817">
        <ele>627.5</ele>
        <time>2023-10-09T14:30:22Z</time>
      </trkpt>
      <trkpt lat="43.66285" lon="6.18169">
        <ele>627.5</ele>
        <time>2023-10-09T14:30:23Z</time>
      </trkpt>
      <trkpt lat="43.66284" lon="6.18167">
        <ele>627.4</ele>
        <time>2023-10-09T14:30:24Z</time>
      </trkpt>
      <trkpt lat="43.66284" lon="6.18165">
        <ele>627.5</ele>
        <time>2023-10-09T14:30:25Z</time>
      </trkpt>
      <trkpt lat="43.66283" lon="6.18162">
        <ele>627.5</ele>
        <time>2023-10-09T14:30:26Z</time>
      </trkpt>
      <trkpt lat="43.66283" lon="6.18161">
        <ele>627.6</ele>
        <time>2023-10-09T14:30:27Z</time>
      </trkpt>
      <trkpt lat="43.66282" lon="6.1816">
        <ele>627.5</ele>
        <time>2023-10-09T14:30:28Z</time>
      </trkpt>
      <trkpt lat="43.66281" lon="6.18158">
        <ele>627.5</ele>
        <time>2023-10-09T14:30:29Z</time>
      </trkpt>
      <trkpt lat="43.66281" lon="6.18158">
        <ele>627.5</ele>
        <time>2023-10-09T14:30:30Z</time>
      </trkpt>
      <trkpt lat="43.6628" lon="6.18157">
        <ele>627.5</ele>
        <time>2023-10-09T14:30:31Z</time>
      </trkpt>
      <trkpt lat="43.6628" lon="6.18156">
        <ele>627.5</ele>
        <time>2023-10-09T14:30:32Z</time>
      </trkpt>
      <trkpt lat="43.66279" lon="6.18155">
        <ele>627.5</ele>
        <time>2023-10-09T14:30:33Z</time>
      </trkpt>
      <trkpt lat="43.66279" lon="6.18154">
        <ele>627.5</ele>
        <time>2023-10-09T14:30:34Z</time>
      </trkpt>
      <trkpt lat="43.66279" lon="6.18152">
        <ele>627.6</ele>
        <time>2023-10-09T14:30:35Z</time>
      </trkpt>
      <trkpt lat="43.66278" lon="6.1815">
        <ele>627.6</ele>
        <time>2023-10-09T14:30:36Z</time>
      </trkpt>
      <trkpt lat="43.66278" lon="6.18149">
        <ele>627.7</ele>
        <time>2023-10-09T14:30:37Z</time>
      </trkpt>
      <trkpt lat="43.66277" lon="6.18148">
        <ele>627.6</ele>
        <time>2023-10-09T14:30:38Z</time>
      </trkpt>
      <trkpt lat="43.66277" lon="6.18146">
        <ele>627.7</ele>
        <time>2023-10-09T14:30:39Z</time>
      </trkpt>
      <trkpt lat="43.66276" lon="6.18144">
        <ele>627.7</ele>
        <time>2023-10-09T14:30:40Z</time>
      </trkpt>
      <trkpt lat="43.66276" lon="6.18142">
        <ele>627.8</ele>
        <time>2023-10-09T14:30:41Z</time>
      </trkpt>
      <trkpt lat="43.66275" lon="6.18141">
        <ele>627.7</ele>
        <time>2023-10-09T14:30:42Z</time>
      </trkpt>
      <trkpt lat="43.66275" lon="6.1814">
        <ele>627.8</ele>
        <time>2023-10-09T14:30:43Z</time>
      </trkpt>
      <trkpt lat="43.66274" lon="6.18139">
        <ele>627.7</ele>
        <time>2023-10-09T14:30:44Z</time>
      </trkpt>
      <trkpt lat="43.66273" lon="6.18138">
        <ele>627.7</ele>
        <time>2023-10-09T14:30:45Z</time>
      </trkpt>
      <trkpt lat="43.66273" lon="6.18136">
        <ele>627.7</ele>
        <time>2023-10-09T14:30:46Z</time>
      </trkpt>
      <trkpt lat="43.66272" lon="6.18135">
        <ele>627.6</ele>
        <time>2023-10-09T14:30:47Z</time>
      </trkpt>
      <trkpt lat="43.66271" lon="6.18133">
        <ele>627.5</ele>
        <time>2023-10-09T14:30:48Z</time>
      </trkpt>
      <trkpt lat="43.66271" lon="6.18132">
        <ele>627.5</ele>
        <time>2023-10-09T14:30:49Z</time>
      </trkpt>
      <trkpt lat="43.6627" lon="6.18131">
        <ele>627.4</ele>
        <time>2023-10-09T14:30:50Z</time>
      </trkpt>
      <trkpt lat="43.66269" lon="6.1813">
        <ele>627.4</ele>
        <time>2023-10-09T14:30:51Z</time>
      </trkpt>
      <trkpt lat="43.66269" lon="6.18129">
        <ele>627.4</ele>
        <time>2023-10-09T14:30:52Z</time>
      </trkpt>
      <trkpt lat="43.66268" lon="6.18127">
        <ele>627.3</ele>
        <time>2023-10-09T14:30:53Z</time>
      </trkpt>
      <trkpt lat="43.66267" lon="6.18126">
        <ele>627.2</ele>
        <time>2023-10-09T14:30:54Z</time>
      </trkpt>
      <trkpt lat="43.66266" lon="6.18123">
        <ele>627.2</ele>
        <time>2023-10-09T14:30:55Z</time>
      </trkpt>
      <trkpt lat="43.66266" lon="6.18122">
        <ele>627.2</ele>
        <time>2023-10-09T14:30:56Z</time>
      </trkpt>
      <trkpt lat="43.66265" lon="6.18121">
        <ele>627.1</ele>
        <time>2023-10-09T14:30:57Z</time>
      </trkpt>
      <trkpt lat="43.66264" lon="6.18118">
        <ele>627</ele>
        <time>2023-10-09T14:30:58Z</time>
      </trkpt>
      <trkpt lat="43.66264" lon="6.18118">
        <ele>627</ele>
        <time>2023-10-09T14:30:59Z</time>
      </trkpt>
      <trkpt lat="43.66263" lon="6.18117">
        <ele>626.9</ele>
        <time>2023-10-09T14:31:00Z</time>
      </trkpt>
      <trkpt lat="43.66262" lon="6.18114">
        <ele>626.9</ele>
        <time>2023-10-09T14:31:01Z</time>
      </trkpt>
      <trkpt lat="43.66262" lon="6.18113">
        <ele>626.9</ele>
        <time>2023-10-09T14:31:02Z</time>
      </trkpt>
      <trkpt lat="43.66261" lon="6.18112">
        <ele>626.8</ele>
        <time>2023-10-09T14:31:03Z</time>
      </trkpt>
      <trkpt lat="43.66261" lon="6.1811">
        <ele>626.8</ele>
        <time>2023-10-09T14:31:04Z</time>
      </trkpt>
      <trkpt lat="43.6626" lon="6.18109">
        <ele>626.7</ele>
        <time>2023-10-09T14:31:05Z</time>
      </trkpt>
      <trkpt lat="43.6626" lon="6.18108">
        <ele>626.7</ele>
        <time>2023-10-09T14:31:06Z</time>
      </trkpt>
      <trkpt lat="43.66259" lon="6.18106">
        <ele>626.6</ele>
        <time>2023-10-09T14:31:07Z</time>
      </trkpt>
      <trkpt lat="43.66259" lon="6.18105">
        <ele>626.6</ele>
        <time>2023-10-09T14:31:08Z</time>
      </trkpt>
      <trkpt lat="43.66258" lon="6.18104">
        <ele>626.6</ele>
        <time>2023-10-09T14:31:09Z</time>
      </trkpt>
      <trkpt lat="43.66257" lon="6.18103">
        <ele>626.5</ele>
        <time>2023-10-09T14:31:10Z</time>
      </trkpt>
      <trkpt lat="43.66257" lon="6.18101">
        <ele>626.5</ele>
        <time>2023-10-09T14:31:11Z</time>
      </trkpt>
      <trkpt lat="43.66256" lon="6.181">
        <ele>626.4</ele>
        <time>2023-10-09T14:31:12Z</time>
      </trkpt>
      <trkpt lat="43.66255" lon="6.18098">
        <ele>626.4</ele>
        <time>2023-10-09T14:31:13Z</time>
      </trkpt>
      <trkpt lat="43.66255" lon="6.18097">
        <ele>626.4</ele>
        <time>2023-10-09T14:31:14Z</time>
      </trkpt>
      <trkpt lat="43.66255" lon="6.18095">
        <ele>626.4</ele>
        <time>2023-10-09T14:31:15Z</time>
      </trkpt>
      <trkpt lat="43.66254" lon="6.18094">
        <ele>626.3</ele>
        <time>2023-10-09T14:31:16Z</time>
      </trkpt>
      <trkpt lat="43.66254" lon="6.18093">
        <ele>626.3</ele>
        <time>2023-10-09T14:31:17Z</time>
      </trkpt>
      <trkpt lat="43.66253" lon="6.18092">
        <ele>626.2</ele>
        <time>2023-10-09T14:31:18Z</time>
      </trkpt>
      <trkpt lat="43.66252" lon="6.18089">
        <ele>626.1</ele>
        <time>2023-10-09T14:31:19Z</time>
      </trkpt>
      <trkpt lat="43.66252" lon="6.18088">
        <ele>626.1</ele>
        <time>2023-10-09T14:31:20Z</time>
      </trkpt>
      <trkpt lat="43.66251" lon="6.18087">
        <ele>626.1</ele>
        <time>2023-10-09T14:31:21Z</time>
      </trkpt>
      <trkpt lat="43.6625" lon="6.18086">
        <ele>626</ele>
        <time>2023-10-09T14:31:22Z</time>
      </trkpt>
      <trkpt lat="43.6625" lon="6.18085">
        <ele>626</ele>
        <time>2023-10-09T14:31:23Z</time>
      </trkpt>
      <trkpt lat="43.66249" lon="6.18084">
        <ele>626</ele>
        <time>2023-10-09T14:31:24Z</time>
      </trkpt>
      <trkpt lat="43.66248" lon="6.18081">
        <ele>625.9</ele>
        <time>2023-10-09T14:31:25Z</time>
      </trkpt>
      <trkpt lat="43.66248" lon="6.1808">
        <ele>625.9</ele>
        <time>2023-10-09T14:31:26Z</time>
      </trkpt>
      <trkpt lat="43.66247" lon="6.18079">
        <ele>625.9</ele>
        <time>2023-10-09T14:31:27Z</time>
      </trkpt>
      <trkpt lat="43.66247" lon="6.18077">
        <ele>625.9</ele>
        <time>2023-10-09T14:31:28Z</time>
      </trkpt>
      <trkpt lat="43.66246" lon="6.18076">
        <ele>625.8</ele>
        <time>2023-10-09T14:31:29Z</time>
      </trkpt>
      <trkpt lat="43.66245" lon="6.18074">
        <ele>625.8</ele>
        <time>2023-10-09T14:31:30Z</time>
      </trkpt>
      <trkpt lat="43.66245" lon="6.18073">
        <ele>625.8</ele>
        <time>2023-10-09T14:31:31Z</time>
      </trkpt>
      <trkpt lat="43.66244" lon="6.18072">
        <ele>625.7</ele>
        <time>2023-10-09T14:31:32Z</time>
      </trkpt>
      <trkpt lat="43.66243" lon="6.18069">
        <ele>625.6</ele>
        <time>2023-10-09T14:31:33Z</time>
      </trkpt>
      <trkpt lat="43.66243" lon="6.18068">
        <ele>625.6</ele>
        <time>2023-10-09T14:31:34Z</time>
      </trkpt>
      <trkpt lat="43.66243" lon="6.18067">
        <ele>625.6</ele>
        <time>2023-10-09T14:31:35Z</time>
      </trkpt>
      <trkpt lat="43.66242" lon="6.18064">
        <ele>625.5</ele>
        <time>2023-10-09T14:31:36Z</time>
      </trkpt>
      <trkpt lat="43.66241" lon="6.18063">
        <ele>625.4</ele>
        <time>2023-10-09T14:31:37Z</time>
      </trkpt>
      <trkpt lat="43.66241" lon="6.18062">
        <ele>625.4</ele>
        <time>2023-10-09T14:31:38Z</time>
      </trkpt>
      <trkpt lat="43.6624" lon="6.18061">
        <ele>625.4</ele>
        <time>2023-10-09T14:31:39Z</time>
      </trkpt>
      <trkpt lat="43.66239" lon="6.1806">
        <ele>625.3</ele>
        <time>2023-10-09T14:31:40Z</time>
      </trkpt>
      <trkpt lat="43.66239" lon="6.18059">
        <ele>625.3</ele>
        <time>2023-10-09T14:31:41Z</time>
      </trkpt>
      <trkpt lat="43.66238" lon="6.18058">
        <ele>625.2</ele>
        <time>2023-10-09T14:31:42Z</time>
      </trkpt>
      <trkpt lat="43.66238" lon="6.18057">
        <ele>625.2</ele>
        <time>2023-10-09T14:31:43Z</time>
      </trkpt>
      <trkpt lat="43.66237" lon="6.18055">
        <ele>625.1</ele>
        <time>2023-10-09T14:31:44Z</time>
      </trkpt>
      <trkpt lat="43.66237" lon="6.18054">
        <ele>625.1</ele>
        <time>2023-10-09T14:31:45Z</time>
      </trkpt>
      <trkpt lat="43.66236" lon="6.18052">
        <ele>625</ele>
        <time>2023-10-09T14:31:46Z</time>
      </trkpt>
      <trkpt lat="43.66236" lon="6.18051">
        <ele>625</ele>
        <time>2023-10-09T14:31:47Z</time>
      </trkpt>
      <trkpt lat="43.66235" lon="6.1805">
        <ele>624.9</ele>
        <time>2023-10-09T14:31:48Z</time>
      </trkpt>
      <trkpt lat="43.66235" lon="6.18048">
        <ele>624.9</ele>
        <time>2023-10-09T14:31:49Z</time>
      </trkpt>
      <trkpt lat="43.66235" lon="6.18047">
        <ele>624.9</ele>
        <time>2023-10-09T14:31:50Z</time>
      </trkpt>
      <trkpt lat="43.66233" lon="6.18044">
        <ele>624.8</ele>
        <time>2023-10-09T14:31:51Z</time>
      </trkpt>
      <trkpt lat="43.66233" lon="6.18043">
        <ele>624.8</ele>
        <time>2023-10-09T14:31:52Z</time>
      </trkpt>
      <trkpt lat="43.66233" lon="6.18042">
        <ele>624.8</ele>
        <time>2023-10-09T14:31:53Z</time>
      </trkpt>
      <trkpt lat="43.66232" lon="6.1804">
        <ele>624.7</ele>
        <time>2023-10-09T14:31:54Z</time>
      </trkpt>
      <trkpt lat="43.66231" lon="6.18039">
        <ele>624.6</ele>
        <time>2023-10-09T14:31:55Z</time>
      </trkpt>
      <trkpt lat="43.66231" lon="6.18038">
        <ele>624.6</ele>
        <time>2023-10-09T14:31:56Z</time>
      </trkpt>
      <trkpt lat="43.6623" lon="6.18036">
        <ele>624.6</ele>
        <time>2023-10-09T14:31:57Z</time>
      </trkpt>
      <trkpt lat="43.6623" lon="6.18035">
        <ele>624.6</ele>
        <time>2023-10-09T14:31:58Z</time>
      </trkpt>
      <trkpt lat="43.66229" lon="6.18033">
        <ele>624.5</ele>
        <time>2023-10-09T14:31:59Z</time>
      </trkpt>
      <trkpt lat="43.66229" lon="6.18032">
        <ele>624.5</ele>
        <time>2023-10-09T14:32:00Z</time>
      </trkpt>
      <trkpt lat="43.66228" lon="6.1803">
        <ele>624.4</ele>
        <time>2023-10-09T14:32:01Z</time>
      </trkpt>
      <trkpt lat="43.66228" lon="6.18029">
        <ele>624.4</ele>
        <time>2023-10-09T14:32:02Z</time>
      </trkpt>
      <trkpt lat="43.66227" lon="6.18028">
        <ele>624.3</ele>
        <time>2023-10-09T14:32:03Z</time>
      </trkpt>
      <trkpt lat="43.66227" lon="6.18027">
        <ele>624.3</ele>
        <time>2023-10-09T14:32:04Z</time>
      </trkpt>
      <trkpt lat="43.66226" lon="6.18026">
        <ele>624.3</ele>
        <time>2023-10-09T14:32:05Z</time>
      </trkpt>
      <trkpt lat="43.66225" lon="6.18025">
        <ele>624.2</ele>
        <time>2023-10-09T14:32:06Z</time>
      </trkpt>
      <trkpt lat="43.66223" lon="6.18023">
        <ele>624.1</ele>
        <time>2023-10-09T14:32:07Z</time>
      </trkpt>
      <trkpt lat="43.66222" lon="6.18022">
        <ele>624</ele>
        <time>2023-10-09T14:32:08Z</time>
      </trkpt>
      <trkpt lat="43.66222" lon="6.1802">
        <ele>624</ele>
        <time>2023-10-09T14:32:09Z</time>
      </trkpt>
      <trkpt lat="43.66221" lon="6.18019">
        <ele>623.9</ele>
        <time>2023-10-09T14:32:10Z</time>
      </trkpt>
      <trkpt lat="43.6622" lon="6.18017">
        <ele>623.9</ele>
        <time>2023-10-09T14:32:11Z</time>
      </trkpt>
      <trkpt lat="43.66219" lon="6.18016">
        <ele>623.8</ele>
        <time>2023-10-09T14:32:12Z</time>
      </trkpt>
      <trkpt lat="43.66219" lon="6.18015">
        <ele>623.8</ele>
        <time>2023-10-09T14:32:13Z</time>
      </trkpt>
      <trkpt lat="43.66218" lon="6.18014">
        <ele>623.8</ele>
        <time>2023-10-09T14:32:14Z</time>
      </trkpt>
      <trkpt lat="43.66217" lon="6.18013">
        <ele>623.7</ele>
        <time>2023-10-09T14:32:15Z</time>
      </trkpt>
      <trkpt lat="43.66216" lon="6.18011">
        <ele>623.6</ele>
        <time>2023-10-09T14:32:16Z</time>
      </trkpt>
      <trkpt lat="43.66216" lon="6.1801">
        <ele>623.6</ele>
        <time>2023-10-09T14:32:17Z</time>
      </trkpt>
      <trkpt lat="43.66215" lon="6.18009">
        <ele>623.6</ele>
        <time>2023-10-09T14:32:18Z</time>
      </trkpt>
      <trkpt lat="43.66215" lon="6.18007">
        <ele>623.5</ele>
        <time>2023-10-09T14:32:19Z</time>
      </trkpt>
      <trkpt lat="43.66214" lon="6.18006">
        <ele>623.5</ele>
        <time>2023-10-09T14:32:20Z</time>
      </trkpt>
      <trkpt lat="43.66214" lon="6.18005">
        <ele>623.5</ele>
        <time>2023-10-09T14:32:21Z</time>
      </trkpt>
      <trkpt lat="43.66214" lon="6.18003">
        <ele>623.4</ele>
        <time>2023-10-09T14:32:22Z</time>
      </trkpt>
      <trkpt lat="43.66213" lon="6.18002">
        <ele>623.4</ele>
        <time>2023-10-09T14:32:23Z</time>
      </trkpt>
      <trkpt lat="43.66212" lon="6.18">
        <ele>623.3</ele>
        <time>2023-10-09T14:32:24Z</time>
      </trkpt>
      <trkpt lat="43.66212" lon="6.17998">
        <ele>623.2</ele>
        <time>2023-10-09T14:32:25Z</time>
      </trkpt>
      <trkpt lat="43.66211" lon="6.17997">
        <ele>623.1</ele>
        <time>2023-10-09T14:32:26Z</time>
      </trkpt>
      <trkpt lat="43.6621" lon="6.17995">
        <ele>623</ele>
        <time>2023-10-09T14:32:27Z</time>
      </trkpt>
      <trkpt lat="43.6621" lon="6.17994">
        <ele>623</ele>
        <time>2023-10-09T14:32:28Z</time>
      </trkpt>
      <trkpt lat="43.66209" lon="6.17993">
        <ele>622.9</ele>
        <time>2023-10-09T14:32:29Z</time>
      </trkpt>
      <trkpt lat="43.66208" lon="6.17992">
        <ele>622.8</ele>
        <time>2023-10-09T14:32:30Z</time>
      </trkpt>
      <trkpt lat="43.66208" lon="6.1799">
        <ele>622.8</ele>
        <time>2023-10-09T14:32:31Z</time>
      </trkpt>
      <trkpt lat="43.66206" lon="6.17988">
        <ele>622.7</ele>
        <time>2023-10-09T14:32:32Z</time>
      </trkpt>
      <trkpt lat="43.66206" lon="6.17987">
        <ele>622.6</ele>
        <time>2023-10-09T14:32:33Z</time>
      </trkpt>
      <trkpt lat="43.66205" lon="6.17986">
        <ele>622.6</ele>
        <time>2023-10-09T14:32:34Z</time>
      </trkpt>
      <trkpt lat="43.66205" lon="6.17985">
        <ele>622.6</ele>
        <time>2023-10-09T14:32:35Z</time>
      </trkpt>
      <trkpt lat="43.66204" lon="6.17984">
        <ele>622.5</ele>
        <time>2023-10-09T14:32:36Z</time>
      </trkpt>
      <trkpt lat="43.66204" lon="6.17982">
        <ele>622.5</ele>
        <time>2023-10-09T14:32:37Z</time>
      </trkpt>
      <trkpt lat="43.66204" lon="6.1798">
        <ele>622.4</ele>
        <time>2023-10-09T14:32:38Z</time>
      </trkpt>
      <trkpt lat="43.66203" lon="6.17979">
        <ele>622.4</ele>
        <time>2023-10-09T14:32:39Z</time>
      </trkpt>
      <trkpt lat="43.66203" lon="6.17977">
        <ele>622.4</ele>
        <time>2023-10-09T14:32:40Z</time>
      </trkpt>
      <trkpt lat="43.66203" lon="6.17975">
        <ele>622.3</ele>
        <time>2023-10-09T14:32:41Z</time>
      </trkpt>
      <trkpt lat="43.66203" lon="6.17974">
        <ele>622.3</ele>
        <time>2023-10-09T14:32:42Z</time>
      </trkpt>
      <trkpt lat="43.66203" lon="6.17972">
        <ele>622.3</ele>
        <time>2023-10-09T14:32:43Z</time>
      </trkpt>
      <trkpt lat="43.66202" lon="6.17971">
        <ele>622.2</ele>
        <time>2023-10-09T14:32:44Z</time>
      </trkpt>
      <trkpt lat="43.66202" lon="6.1797">
        <ele>622.2</ele>
        <time>2023-10-09T14:32:45Z</time>
      </trkpt>
      <trkpt lat="43.66202" lon="6.17969">
        <ele>622.2</ele>
        <time>2023-10-09T14:32:46Z</time>
      </trkpt>
      <trkpt lat="43.66202" lon="6.17967">
        <ele>622.1</ele>
        <time>2023-10-09T14:32:47Z</time>
      </trkpt>
      <trkpt lat="43.66202" lon="6.17965">
        <ele>622.1</ele>
        <time>2023-10-09T14:32:48Z</time>
      </trkpt>
      <trkpt lat="43.66202" lon="6.17964">
        <ele>622.1</ele>
        <time>2023-10-09T14:32:49Z</time>
      </trkpt>
      <trkpt lat="43.66201" lon="6.17962">
        <ele>622</ele>
        <time>2023-10-09T14:32:50Z</time>
      </trkpt>
      <trkpt lat="43.66201" lon="6.1796">
        <ele>621.9</ele>
        <time>2023-10-09T14:32:51Z</time>
      </trkpt>
      <trkpt lat="43.66201" lon="6.17957">
        <ele>621.8</ele>
        <time>2023-10-09T14:32:52Z</time>
      </trkpt>
      <trkpt lat="43.66201" lon="6.17956">
        <ele>621.8</ele>
        <time>2023-10-09T14:32:53Z</time>
      </trkpt>
      <trkpt lat="43.662" lon="6.17955">
        <ele>621.7</ele>
        <time>2023-10-09T14:32:54Z</time>
      </trkpt>
      <trkpt lat="43.662" lon="6.17952">
        <ele>621.6</ele>
        <time>2023-10-09T14:32:55Z</time>
      </trkpt>
      <trkpt lat="43.662" lon="6.17951">
        <ele>621.6</ele>
        <time>2023-10-09T14:32:56Z</time>
      </trkpt>
      <trkpt lat="43.662" lon="6.17949">
        <ele>621.5</ele>
        <time>2023-10-09T14:32:57Z</time>
      </trkpt>
      <trkpt lat="43.662" lon="6.17947">
        <ele>621.5</ele>
        <time>2023-10-09T14:32:58Z</time>
      </trkpt>
      <trkpt lat="43.66199" lon="6.17946">
        <ele>621.4</ele>
        <time>2023-10-09T14:32:59Z</time>
      </trkpt>
      <trkpt lat="43.66199" lon="6.17943">
        <ele>621.3</ele>
        <time>2023-10-09T14:33:00Z</time>
      </trkpt>
      <trkpt lat="43.66199" lon="6.17942">
        <ele>621.3</ele>
        <time>2023-10-09T14:33:01Z</time>
      </trkpt>
      <trkpt lat="43.66199" lon="6.1794">
        <ele>621.3</ele>
        <time>2023-10-09T14:33:02Z</time>
      </trkpt>
      <trkpt lat="43.66198" lon="6.17939">
        <ele>621.3</ele>
        <time>2023-10-09T14:33:03Z</time>
      </trkpt>
      <trkpt lat="43.66198" lon="6.17938">
        <ele>621.3</ele>
        <time>2023-10-09T14:33:04Z</time>
      </trkpt>
      <trkpt lat="43.66198" lon="6.17936">
        <ele>621.3</ele>
        <time>2023-10-09T14:33:05Z</time>
      </trkpt>
      <trkpt lat="43.66197" lon="6.17934">
        <ele>621.2</ele>
        <time>2023-10-09T14:33:06Z</time>
      </trkpt>
      <trkpt lat="43.66197" lon="6.17933">
        <ele>621.2</ele>
        <time>2023-10-09T14:33:07Z</time>
      </trkpt>
      <trkpt lat="43.66196" lon="6.17932">
        <ele>621.1</ele>
        <time>2023-10-09T14:33:08Z</time>
      </trkpt>
      <trkpt lat="43.66195" lon="6.17929">
        <ele>621</ele>
        <time>2023-10-09T14:33:09Z</time>
      </trkpt>
      <trkpt lat="43.66195" lon="6.17928">
        <ele>621</ele>
        <time>2023-10-09T14:33:10Z</time>
      </trkpt>
      <trkpt lat="43.66195" lon="6.17927">
        <ele>621</ele>
        <time>2023-10-09T14:33:11Z</time>
      </trkpt>
      <trkpt lat="43.66194" lon="6.17926">
        <ele>621</ele>
        <time>2023-10-09T14:33:12Z</time>
      </trkpt>
      <trkpt lat="43.66194" lon="6.17924">
        <ele>621</ele>
        <time>2023-10-09T14:33:13Z</time>
      </trkpt>
      <trkpt lat="43.66193" lon="6.17923">
        <ele>620.9</ele>
        <time>2023-10-09T14:33:14Z</time>
      </trkpt>
      <trkpt lat="43.66193" lon="6.17922">
        <ele>620.9</ele>
        <time>2023-10-09T14:33:15Z</time>
      </trkpt>
      <trkpt lat="43.66192" lon="6.17921">
        <ele>620.9</ele>
        <time>2023-10-09T14:33:16Z</time>
      </trkpt>
      <trkpt lat="43.66192" lon="6.17919">
        <ele>620.9</ele>
        <time>2023-10-09T14:33:17Z</time>
      </trkpt>
      <trkpt lat="43.66191" lon="6.17918">
        <ele>620.9</ele>
        <time>2023-10-09T14:33:18Z</time>
      </trkpt>
      <trkpt lat="43.6619" lon="6.17916">
        <ele>620.8</ele>
        <time>2023-10-09T14:33:19Z</time>
      </trkpt>
      <trkpt lat="43.66189" lon="6.17914">
        <ele>620.8</ele>
        <time>2023-10-09T14:33:20Z</time>
      </trkpt>
      <trkpt lat="43.66188" lon="6.17913">
        <ele>620.8</ele>
        <time>2023-10-09T14:33:21Z</time>
      </trkpt>
      <trkpt lat="43.66188" lon="6.17912">
        <ele>620.8</ele>
        <time>2023-10-09T14:33:22Z</time>
      </trkpt>
      <trkpt lat="43.66187" lon="6.17911">
        <ele>620.7</ele>
        <time>2023-10-09T14:33:23Z</time>
      </trkpt>
      <trkpt lat="43.66186" lon="6.1791">
        <ele>620.7</ele>
        <time>2023-10-09T14:33:24Z</time>
      </trkpt>
      <trkpt lat="43.66185" lon="6.17909">
        <ele>620.7</ele>
        <time>2023-10-09T14:33:25Z</time>
      </trkpt>
      <trkpt lat="43.66184" lon="6.17908">
        <ele>620.6</ele>
        <time>2023-10-09T14:33:26Z</time>
      </trkpt>
      <trkpt lat="43.66183" lon="6.17906">
        <ele>620.6</ele>
        <time>2023-10-09T14:33:27Z</time>
      </trkpt>
      <trkpt lat="43.66182" lon="6.17905">
        <ele>620.6</ele>
        <time>2023-10-09T14:33:28Z</time>
      </trkpt>
      <trkpt lat="43.66181" lon="6.17904">
        <ele>620.5</ele>
        <time>2023-10-09T14:33:29Z</time>
      </trkpt>
      <trkpt lat="43.6618" lon="6.17903">
        <ele>620.5</ele>
        <time>2023-10-09T14:33:30Z</time>
      </trkpt>
      <trkpt lat="43.6618" lon="6.17902">
        <ele>620.5</ele>
        <time>2023-10-09T14:33:31Z</time>
      </trkpt>
      <trkpt lat="43.66179" lon="6.17901">
        <ele>620.4</ele>
        <time>2023-10-09T14:33:32Z</time>
      </trkpt>
      <trkpt lat="43.66178" lon="6.179">
        <ele>620.4</ele>
        <time>2023-10-09T14:33:33Z</time>
      </trkpt>
      <trkpt lat="43.66177" lon="6.17899">
        <ele>620.4</ele>
        <time>2023-10-09T14:33:34Z</time>
      </trkpt>
      <trkpt lat="43.66176" lon="6.17898">
        <ele>620.3</ele>
        <time>2023-10-09T14:33:35Z</time>
      </trkpt>
      <trkpt lat="43.66176" lon="6.17896">
        <ele>620.3</ele>
        <time>2023-10-09T14:33:36Z</time>
      </trkpt>
      <trkpt lat="43.66175" lon="6.17895">
        <ele>620.3</ele>
        <time>2023-10-09T14:33:37Z</time>
      </trkpt>
      <trkpt lat="43.66174" lon="6.17894">
        <ele>620.3</ele>
        <time>2023-10-09T14:33:38Z</time>
      </trkpt>
      <trkpt lat="43.66174" lon="6.17893">
        <ele>620.3</ele>
        <time>2023-10-09T14:33:39Z</time>
      </trkpt>
      <trkpt lat="43.66173" lon="6.17892">
        <ele>620.2</ele>
        <time>2023-10-09T14:33:40Z</time>
      </trkpt>
      <trkpt lat="43.66172" lon="6.17891">
        <ele>620.2</ele>
        <time>2023-10-09T14:33:41Z</time>
      </trkpt>
      <trkpt lat="43.66171" lon="6.17889">
        <ele>620.2</ele>
        <time>2023-10-09T14:33:42Z</time>
      </trkpt>
      <trkpt lat="43.6617" lon="6.17888">
        <ele>620.1</ele>
        <time>2023-10-09T14:33:43Z</time>
      </trkpt>
      <trkpt lat="43.66169" lon="6.17887">
        <ele>620.1</ele>
        <time>2023-10-09T14:33:44Z</time>
      </trkpt>
      <trkpt lat="43.66169" lon="6.17885">
        <ele>620.1</ele>
        <time>2023-10-09T14:33:45Z</time>
      </trkpt>
      <trkpt lat="43.66168" lon="6.17883">
        <ele>620</ele>
        <time>2023-10-09T14:33:46Z</time>
      </trkpt>
      <trkpt lat="43.66167" lon="6.17881">
        <ele>620</ele>
        <time>2023-10-09T14:33:47Z</time>
      </trkpt>
      <trkpt lat="43.66167" lon="6.1788">
        <ele>620</ele>
        <time>2023-10-09T14:33:48Z</time>
      </trkpt>
      <trkpt lat="43.66166" lon="6.17878">
        <ele>620</ele>
        <time>2023-10-09T14:33:49Z</time>
      </trkpt>
      <trkpt lat="43.66166" lon="6.17877">
        <ele>620</ele>
        <time>2023-10-09T14:33:50Z</time>
      </trkpt>
      <trkpt lat="43.66165" lon="6.17876">
        <ele>619.9</ele>
        <time>2023-10-09T14:33:51Z</time>
      </trkpt>
      <trkpt lat="43.66164" lon="6.17875">
        <ele>619.9</ele>
        <time>2023-10-09T14:33:52Z</time>
      </trkpt>
      <trkpt lat="43.66164" lon="6.17874">
        <ele>619.9</ele>
        <time>2023-10-09T14:33:53Z</time>
      </trkpt>
      <trkpt lat="43.66163" lon="6.17872">
        <ele>619.8</ele>
        <time>2023-10-09T14:33:54Z</time>
      </trkpt>
      <trkpt lat="43.66162" lon="6.1787">
        <ele>619.8</ele>
        <time>2023-10-09T14:33:55Z</time>
      </trkpt>
      <trkpt lat="43.66161" lon="6.1787">
        <ele>619.7</ele>
        <time>2023-10-09T14:33:56Z</time>
      </trkpt>
      <trkpt lat="43.66161" lon="6.17869">
        <ele>619.7</ele>
        <time>2023-10-09T14:33:57Z</time>
      </trkpt>
      <trkpt lat="43.6616" lon="6.17868">
        <ele>619.7</ele>
        <time>2023-10-09T14:33:58Z</time>
      </trkpt>
      <trkpt lat="43.66159" lon="6.17867">
        <ele>619.7</ele>
        <time>2023-10-09T14:33:59Z</time>
      </trkpt>
      <trkpt lat="43.66158" lon="6.17866">
        <ele>619.6</ele>
        <time>2023-10-09T14:34:00Z</time>
      </trkpt>
      <trkpt lat="43.66157" lon="6.17865">
        <ele>619.6</ele>
        <time>2023-10-09T14:34:01Z</time>
      </trkpt>
      <trkpt lat="43.66156" lon="6.17864">
        <ele>619.6</ele>
        <time>2023-10-09T14:34:02Z</time>
      </trkpt>
      <trkpt lat="43.66155" lon="6.17864">
        <ele>619.5</ele>
        <time>2023-10-09T14:34:03Z</time>
      </trkpt>
      <trkpt lat="43.66154" lon="6.17862">
        <ele>619.5</ele>
        <time>2023-10-09T14:34:04Z</time>
      </trkpt>
      <trkpt lat="43.66153" lon="6.17861">
        <ele>619.5</ele>
        <time>2023-10-09T14:34:05Z</time>
      </trkpt>
      <trkpt lat="43.66153" lon="6.1786">
        <ele>619.5</ele>
        <time>2023-10-09T14:34:06Z</time>
      </trkpt>
      <trkpt lat="43.66152" lon="6.1786">
        <ele>619.5</ele>
        <time>2023-10-09T14:34:07Z</time>
      </trkpt>
      <trkpt lat="43.66151" lon="6.17859">
        <ele>619.5</ele>
        <time>2023-10-09T14:34:08Z</time>
      </trkpt>
      <trkpt lat="43.6615" lon="6.17858">
        <ele>619.5</ele>
        <time>2023-10-09T14:34:09Z</time>
      </trkpt>
      <trkpt lat="43.66149" lon="6.17857">
        <ele>619.5</ele>
        <time>2023-10-09T14:34:10Z</time>
      </trkpt>
      <trkpt lat="43.66149" lon="6.17855">
        <ele>619.6</ele>
        <time>2023-10-09T14:34:11Z</time>
      </trkpt>
      <trkpt lat="43.66147" lon="6.17852">
        <ele>619.6</ele>
        <time>2023-10-09T14:34:12Z</time>
      </trkpt>
      <trkpt lat="43.66147" lon="6.17852">
        <ele>619.6</ele>
        <time>2023-10-09T14:34:13Z</time>
      </trkpt>
      <trkpt lat="43.66146" lon="6.17851">
        <ele>619.6</ele>
        <time>2023-10-09T14:34:14Z</time>
      </trkpt>
      <trkpt lat="43.66145" lon="6.1785">
        <ele>619.6</ele>
        <time>2023-10-09T14:34:15Z</time>
      </trkpt>
      <trkpt lat="43.66144" lon="6.17849">
        <ele>619.6</ele>
        <time>2023-10-09T14:34:16Z</time>
      </trkpt>
      <trkpt lat="43.66143" lon="6.17848">
        <ele>619.6</ele>
        <time>2023-10-09T14:34:17Z</time>
      </trkpt>
      <trkpt lat="43.66142" lon="6.17846">
        <ele>619.7</ele>
        <time>2023-10-09T14:34:18Z</time>
      </trkpt>
      <trkpt lat="43.66142" lon="6.17845">
        <ele>619.7</ele>
        <time>2023-10-09T14:34:19Z</time>
      </trkpt>
      <trkpt lat="43.66141" lon="6.17844">
        <ele>619.7</ele>
        <time>2023-10-09T14:34:20Z</time>
      </trkpt>
      <trkpt lat="43.6614" lon="6.17843">
        <ele>619.7</ele>
        <time>2023-10-09T14:34:21Z</time>
      </trkpt>
      <trkpt lat="43.66139" lon="6.17842">
        <ele>619.7</ele>
        <time>2023-10-09T14:34:22Z</time>
      </trkpt>
      <trkpt lat="43.66138" lon="6.17841">
        <ele>619.7</ele>
        <time>2023-10-09T14:34:23Z</time>
      </trkpt>
      <trkpt lat="43.66137" lon="6.1784">
        <ele>619.6</ele>
        <time>2023-10-09T14:34:24Z</time>
      </trkpt>
      <trkpt lat="43.66137" lon="6.17839">
        <ele>619.7</ele>
        <time>2023-10-09T14:34:25Z</time>
      </trkpt>
      <trkpt lat="43.66136" lon="6.17838">
        <ele>619.6</ele>
        <time>2023-10-09T14:34:26Z</time>
      </trkpt>
      <trkpt lat="43.66135" lon="6.17836">
        <ele>619.6</ele>
        <time>2023-10-09T14:34:27Z</time>
      </trkpt>
      <trkpt lat="43.66135" lon="6.17835">
        <ele>619.7</ele>
        <time>2023-10-09T14:34:28Z</time>
      </trkpt>
      <trkpt lat="43.66134" lon="6.17834">
        <ele>619.6</ele>
        <time>2023-10-09T14:34:29Z</time>
      </trkpt>
      <trkpt lat="43.66133" lon="6.17833">
        <ele>619.6</ele>
        <time>2023-10-09T14:34:30Z</time>
      </trkpt>
      <trkpt lat="43.66133" lon="6.17832">
        <ele>619.6</ele>
        <time>2023-10-09T14:34:31Z</time>
      </trkpt>
      <trkpt lat="43.66132" lon="6.17831">
        <ele>619.5</ele>
        <time>2023-10-09T14:34:32Z</time>
      </trkpt>
      <trkpt lat="43.66131" lon="6.17829">
        <ele>619.5</ele>
        <time>2023-10-09T14:34:33Z</time>
      </trkpt>
      <trkpt lat="43.66131" lon="6.17828">
        <ele>619.5</ele>
        <time>2023-10-09T14:34:34Z</time>
      </trkpt>
      <trkpt lat="43.6613" lon="6.17827">
        <ele>619.4</ele>
        <time>2023-10-09T14:34:35Z</time>
      </trkpt>
      <trkpt lat="43.6613" lon="6.17825">
        <ele>619.5</ele>
        <time>2023-10-09T14:34:36Z</time>
      </trkpt>
      <trkpt lat="43.66129" lon="6.17824">
        <ele>619.4</ele>
        <time>2023-10-09T14:34:37Z</time>
      </trkpt>
      <trkpt lat="43.66128" lon="6.17823">
        <ele>619.4</ele>
        <time>2023-10-09T14:34:38Z</time>
      </trkpt>
      <trkpt lat="43.66128" lon="6.17822">
        <ele>619.4</ele>
        <time>2023-10-09T14:34:39Z</time>
      </trkpt>
      <trkpt lat="43.66127" lon="6.17822">
        <ele>619.3</ele>
        <time>2023-10-09T14:34:40Z</time>
      </trkpt>
      <trkpt lat="43.66127" lon="6.17821">
        <ele>619.3</ele>
        <time>2023-10-09T14:34:41Z</time>
      </trkpt>
      <trkpt lat="43.66127" lon="6.17821">
        <ele>619.3</ele>
        <time>2023-10-09T14:34:42Z</time>
      </trkpt>
      <trkpt lat="43.66126" lon="6.17821">
        <ele>619.3</ele>
        <time>2023-10-09T14:34:43Z</time>
      </trkpt>
      <trkpt lat="43.66126" lon="6.17821">
        <ele>619.3</ele>
        <time>2023-10-09T14:34:44Z</time>
      </trkpt>
      <trkpt lat="43.66126" lon="6.17821">
        <ele>619.3</ele>
        <time>2023-10-09T14:34:45Z</time>
      </trkpt>
      <trkpt lat="43.66126" lon="6.17821">
        <ele>619.3</ele>
        <time>2023-10-09T14:34:46Z</time>
      </trkpt>
      <trkpt lat="43.66126" lon="6.17821">
        <ele>619.3</ele>
        <time>2023-10-09T14:34:47Z</time>
      </trkpt>
      <trkpt lat="43.66126" lon="6.17821">
        <ele>619.3</ele>
        <time>2023-10-09T14:34:48Z</time>
      </trkpt>
      <trkpt lat="43.66126" lon="6.17821">
        <ele>619.3</ele>
        <time>2023-10-09T14:34:49Z</time>
      </trkpt>
      <trkpt lat="43.66126" lon="6.17821">
        <ele>619.3</ele>
        <time>2023-10-09T14:34:50Z</time>
      </trkpt>
      <trkpt lat="43.66126" lon="6.17821">
        <ele>619.3</ele>
        <time>2023-10-09T14:34:51Z</time>
      </trkpt>
      <trkpt lat="43.66126" lon="6.17821">
        <ele>619.3</ele>
        <time>2023-10-09T14:34:52Z</time>
      </trkpt>
      <trkpt lat="43.66126" lon="6.17821">
        <ele>619.3</ele>
        <time>2023-10-09T14:34:53Z</time>
      </trkpt>
      <trkpt lat="43.66126" lon="6.17821">
        <ele>619.3</ele>
        <time>2023-10-09T14:34:54Z</time>
      </trkpt>
      <trkpt lat="43.66126" lon="6.17821">
        <ele>619.3</ele>
        <time>2023-10-09T14:34:55Z</time>
      </trkpt>
      <trkpt lat="43.66126" lon="6.17821">
        <ele>619.3</ele>
        <time>2023-10-09T14:34:56Z</time>
      </trkpt>
      <trkpt lat="43.66126" lon="6.17821">
        <ele>619.3</ele>
        <time>2023-10-09T14:34:57Z</time>
      </trkpt>
      <trkpt lat="43.66126" lon="6.17821">
        <ele>619.3</ele>
        <time>2023-10-09T14:34:58Z</time>
      </trkpt>
      <trkpt lat="43.66126" lon="6.17821">
        <ele>619.3</ele>
        <time>2023-10-09T14:34:59Z</time>
      </trkpt>
      <trkpt lat="43.66126" lon="6.17821">
        <ele>619.3</ele>
        <time>2023-10-09T14:35:00Z</time>
      </trkpt>
      <trkpt lat="43.66126" lon="6.17821">
        <ele>619.3</ele>
        <time>2023-10-09T14:35:01Z</time>
      </trkpt>
      <trkpt lat="43.66126" lon="6.17821">
        <ele>619.3</ele>
        <time>2023-10-09T14:35:02Z</time>
      </trkpt>
      <trkpt lat="43.66126" lon="6.17821">
        <ele>619.3</ele>
        <time>2023-10-09T14:35:03Z</time>
      </trkpt>
      <trkpt lat="43.66126" lon="6.17821">
        <ele>619.3</ele>
        <time>2023-10-09T14:35:04Z</time>
      </trkpt>
      <trkpt lat="43.66126" lon="6.17821">
        <ele>619.3</ele>
        <time>2023-10-09T14:35:05Z</time>
      </trkpt>
      <trkpt lat="43.66126" lon="6.17821">
        <ele>619.3</ele>
        <time>2023-10-09T14:35:06Z</time>
      </trkpt>
      <trkpt lat="43.66126" lon="6.17821">
        <ele>619.3</ele>
        <time>2023-10-09T14:35:07Z</time>
      </trkpt>
      <trkpt lat="43.66126" lon="6.17821">
        <ele>619.3</ele>
        <time>2023-10-09T14:35:08Z</time>
      </trkpt>
      <trkpt lat="43.66126" lon="6.17821">
        <ele>619.3</ele>
        <time>2023-10-09T14:35:09Z</time>
      </trkpt>
      <trkpt lat="43.66126" lon="6.17821">
        <ele>619.3</ele>
        <time>2023-10-09T14:35:10Z</time>
      </trkpt>
      <trkpt lat="43.66126" lon="6.17821">
        <ele>619.3</ele>
        <time>2023-10-09T14:35:11Z</time>
      </trkpt>
      <trkpt lat="43.66126" lon="6.17821">
        <ele>619.3</ele>
        <time>2023-10-09T14:35:12Z</time>
      </trkpt>
      <trkpt lat="43.66126" lon="6.17821">
        <ele>619.3</ele>
        <time>2023-10-09T14:35:13Z</time>
      </trkpt>
      <trkpt lat="43.66126" lon="6.1782">
        <ele>619.3</ele>
        <time>2023-10-09T14:35:14Z</time>
      </trkpt>
      <trkpt lat="43.66126" lon="6.1782">
        <ele>619.3</ele>
        <time>2023-10-09T14:35:15Z</time>
      </trkpt>
      <trkpt lat="43.66126" lon="6.1782">
        <ele>619.3</ele>
        <time>2023-10-09T14:35:16Z</time>
      </trkpt>
      <trkpt lat="43.66126" lon="6.1782">
        <ele>619.3</ele>
        <time>2023-10-09T14:35:17Z</time>
      </trkpt>
      <trkpt lat="43.66126" lon="6.1782">
        <ele>619.3</ele>
        <time>2023-10-09T14:35:18Z</time>
      </trkpt>
      <trkpt lat="43.66126" lon="6.1782">
        <ele>619.3</ele>
        <time>2023-10-09T14:35:19Z</time>
      </trkpt>
      <trkpt lat="43.66126" lon="6.1782">
        <ele>619.3</ele>
        <time>2023-10-09T14:35:20Z</time>
      </trkpt>
      <trkpt lat="43.66126" lon="6.1782">
        <ele>619.3</ele>
        <time>2023-10-09T14:35:21Z</time>
      </trkpt>
      <trkpt lat="43.66126" lon="6.1782">
        <ele>619.3</ele>
        <time>2023-10-09T14:35:22Z</time>
      </trkpt>
      <trkpt lat="43.66126" lon="6.1782">
        <ele>619.3</ele>
        <time>2023-10-09T14:35:23Z</time>
      </trkpt>
      <trkpt lat="43.66126" lon="6.1782">
        <ele>619.3</ele>
        <time>2023-10-09T14:35:24Z</time>
      </trkpt>
      <trkpt lat="43.66126" lon="6.1782">
        <ele>619.3</ele>
        <time>2023-10-09T14:35:25Z</time>
      </trkpt>
      <trkpt lat="43.66126" lon="6.1782">
        <ele>619.3</ele>
        <time>2023-10-09T14:35:26Z</time>
      </trkpt>
      <trkpt lat="43.66126" lon="6.1782">
        <ele>619.3</ele>
        <time>2023-10-09T14:35:27Z</time>
      </trkpt>
      <trkpt lat="43.66125" lon="6.1782">
        <ele>619.2</ele>
        <time>2023-10-09T14:35:28Z</time>
      </trkpt>
      <trkpt lat="43.66125" lon="6.1782">
        <ele>619.2</ele>
        <time>2023-10-09T14:35:29Z</time>
      </trkpt>
      <trkpt lat="43.66125" lon="6.1782">
        <ele>619.2</ele>
        <time>2023-10-09T14:35:30Z</time>
      </trkpt>
      <trkpt lat="43.66125" lon="6.1782">
        <ele>619.2</ele>
        <time>2023-10-09T14:35:31Z</time>
      </trkpt>
      <trkpt lat="43.66125" lon="6.1782">
        <ele>619.2</ele>
        <time>2023-10-09T14:35:32Z</time>
      </trkpt>
      <trkpt lat="43.66125" lon="6.1782">
        <ele>619.2</ele>
        <time>2023-10-09T14:35:33Z</time>
      </trkpt>
      <trkpt lat="43.66125" lon="6.1782">
        <ele>619.2</ele>
        <time>2023-10-09T14:35:34Z</time>
      </trkpt>
      <trkpt lat="43.66125" lon="6.1782">
        <ele>619.2</ele>
        <time>2023-10-09T14:35:35Z</time>
      </trkpt>
      <trkpt lat="43.66125" lon="6.1782">
        <ele>619.2</ele>
        <time>2023-10-09T14:35:36Z</time>
      </trkpt>
      <trkpt lat="43.66125" lon="6.1782">
        <ele>619.2</ele>
        <time>2023-10-09T14:35:37Z</time>
      </trkpt>
      <trkpt lat="43.66125" lon="6.1782">
        <ele>619.2</ele>
        <time>2023-10-09T14:35:38Z</time>
      </trkpt>
      <trkpt lat="43.66125" lon="6.1782">
        <ele>619.2</ele>
        <time>2023-10-09T14:35:39Z</time>
      </trkpt>
      <trkpt lat="43.66125" lon="6.1782">
        <ele>619.2</ele>
        <time>2023-10-09T14:35:40Z</time>
      </trkpt>
      <trkpt lat="43.66125" lon="6.1782">
        <ele>619.2</ele>
        <time>2023-10-09T14:35:41Z</time>
      </trkpt>
      <trkpt lat="43.66125" lon="6.1782">
        <ele>619.2</ele>
        <time>2023-10-09T14:35:42Z</time>
      </trkpt>
      <trkpt lat="43.66125" lon="6.1782">
        <ele>619.2</ele>
        <time>2023-10-09T14:35:43Z</time>
      </trkpt>
      <trkpt lat="43.66125" lon="6.17819">
        <ele>619.3</ele>
        <time>2023-10-09T14:35:44Z</time>
      </trkpt>
      <trkpt lat="43.66125" lon="6.17819">
        <ele>619.3</ele>
        <time>2023-10-09T14:35:45Z</time>
      </trkpt>
      <trkpt lat="43.66125" lon="6.17819">
        <ele>619.3</ele>
        <time>2023-10-09T14:35:46Z</time>
      </trkpt>
      <trkpt lat="43.66125" lon="6.17819">
        <ele>619.3</ele>
        <time>2023-10-09T14:35:47Z</time>
      </trkpt>
      <trkpt lat="43.66125" lon="6.17819">
        <ele>619.3</ele>
        <time>2023-10-09T14:35:48Z</time>
      </trkpt>
      <trkpt lat="43.66125" lon="6.17819">
        <ele>619.3</ele>
        <time>2023-10-09T14:35:49Z</time>
      </trkpt>
      <trkpt lat="43.66125" lon="6.17819">
        <ele>619.3</ele>
        <time>2023-10-09T14:35:50Z</time>
      </trkpt>
      <trkpt lat="43.66125" lon="6.17819">
        <ele>619.3</ele>
        <time>2023-10-09T14:35:51Z</time>
      </trkpt>
      <trkpt lat="43.66125" lon="6.17819">
        <ele>619.3</ele>
        <time>2023-10-09T14:35:52Z</time>
      </trkpt>
      <trkpt lat="43.66125" lon="6.17819">
        <ele>619.3</ele>
        <time>2023-10-09T14:35:53Z</time>
      </trkpt>
      <trkpt lat="43.66125" lon="6.17819">
        <ele>619.3</ele>
        <time>2023-10-09T14:35:54Z</time>
      </trkpt>
      <trkpt lat="43.66125" lon="6.17819">
        <ele>619.3</ele>
        <time>2023-10-09T14:35:55Z</time>
      </trkpt>
      <trkpt lat="43.66125" lon="6.17819">
        <ele>619.3</ele>
        <time>2023-10-09T14:35:56Z</time>
      </trkpt>
      <trkpt lat="43.66125" lon="6.17819">
        <ele>619.3</ele>
        <time>2023-10-09T14:35:57Z</time>
      </trkpt>
      <trkpt lat="43.66125" lon="6.17819">
        <ele>619.3</ele>
        <time>2023-10-09T14:35:58Z</time>
      </trkpt>
      <trkpt lat="43.66125" lon="6.17819">
        <ele>619.3</ele>
        <time>2023-10-09T14:35:59Z</time>
      </trkpt>
      <trkpt lat="43.66125" lon="6.17819">
        <ele>619.3</ele>
        <time>2023-10-09T14:36:00Z</time>
      </trkpt>
      <trkpt lat="43.66125" lon="6.17819">
        <ele>619.3</ele>
        <time>2023-10-09T14:36:01Z</time>
      </trkpt>
      <trkpt lat="43.66125" lon="6.17819">
        <ele>619.3</ele>
        <time>2023-10-09T14:36:02Z</time>
      </trkpt>
      <trkpt lat="43.66125" lon="6.17819">
        <ele>619.3</ele>
        <time>2023-10-09T14:36:03Z</time>
      </trkpt>
      <trkpt lat="43.66125" lon="6.17819">
        <ele>619.3</ele>
        <time>2023-10-09T14:36:04Z</time>
      </trkpt>
      <trkpt lat="43.66125" lon="6.17819">
        <ele>619.3</ele>
        <time>2023-10-09T14:36:05Z</time>
      </trkpt>
      <trkpt lat="43.66125" lon="6.17819">
        <ele>619.3</ele>
        <time>2023-10-09T14:36:06Z</time>
      </trkpt>
      <trkpt lat="43.66125" lon="6.17819">
        <ele>619.3</ele>
        <time>2023-10-09T14:36:07Z</time>
      </trkpt>
      <trkpt lat="43.66125" lon="6.17819">
        <ele>619.3</ele>
        <time>2023-10-09T14:36:08Z</time>
      </trkpt>
      <trkpt lat="43.66125" lon="6.17819">
        <ele>619.3</ele>
        <time>2023-10-09T14:36:09Z</time>
      </trkpt>
      <trkpt lat="43.66125" lon="6.17819">
        <ele>619.3</ele>
        <time>2023-10-09T14:36:10Z</time>
      </trkpt>
      <trkpt lat="43.66125" lon="6.17819">
        <ele>619.3</ele>
        <time>2023-10-09T14:36:11Z</time>
      </trkpt>
      <trkpt lat="43.66125" lon="6.17819">
        <ele>619.3</ele>
        <time>2023-10-09T14:36:12Z</time>
      </trkpt>
      <trkpt lat="43.66125" lon="6.17819">
        <ele>619.3</ele>
        <time>2023-10-09T14:36:13Z</time>
      </trkpt>
      <trkpt lat="43.66125" lon="6.17818">
        <ele>619.3</ele>
        <time>2023-10-09T14:36:14Z</time>
      </trkpt>
      <trkpt lat="43.66125" lon="6.17818">
        <ele>619.3</ele>
        <time>2023-10-09T14:36:15Z</time>
      </trkpt>
      <trkpt lat="43.66125" lon="6.17818">
        <ele>619.3</ele>
        <time>2023-10-09T14:36:16Z</time>
      </trkpt>
      <trkpt lat="43.66125" lon="6.17818">
        <ele>619.3</ele>
        <time>2023-10-09T14:36:17Z</time>
      </trkpt>
      <trkpt lat="43.66125" lon="6.17818">
        <ele>619.3</ele>
        <time>2023-10-09T14:36:18Z</time>
      </trkpt>
      <trkpt lat="43.66125" lon="6.17818">
        <ele>619.3</ele>
        <time>2023-10-09T14:36:19Z</time>
      </trkpt>
      <trkpt lat="43.66125" lon="6.17818">
        <ele>619.3</ele>
        <time>2023-10-09T14:36:20Z</time>
      </trkpt>
      <trkpt lat="43.66125" lon="6.17818">
        <ele>619.3</ele>
        <time>2023-10-09T14:36:21Z</time>
      </trkpt>
      <trkpt lat="43.66125" lon="6.17818">
        <ele>619.3</ele>
        <time>2023-10-09T14:36:22Z</time>
      </trkpt>
      <trkpt lat="43.66125" lon="6.17818">
        <ele>619.3</ele>
        <time>2023-10-09T14:36:23Z</time>
      </trkpt>
      <trkpt lat="43.66125" lon="6.17818">
        <ele>619.3</ele>
        <time>2023-10-09T14:36:24Z</time>
      </trkpt>
      <trkpt lat="43.66125" lon="6.17818">
        <ele>619.3</ele>
        <time>2023-10-09T14:36:25Z</time>
      </trkpt>
      <trkpt lat="43.66125" lon="6.17818">
        <ele>619.3</ele>
        <time>2023-10-09T14:36:26Z</time>
      </trkpt>
      <trkpt lat="43.66125" lon="6.17818">
        <ele>619.3</ele>
        <time>2023-10-09T14:36:27Z</time>
      </trkpt>
      <trkpt lat="43.66125" lon="6.17818">
        <ele>619.3</ele>
        <time>2023-10-09T14:36:28Z</time>
      </trkpt>
      <trkpt lat="43.66125" lon="6.17818">
        <ele>619.3</ele>
        <time>2023-10-09T14:36:29Z</time>
      </trkpt>
      <trkpt lat="43.66125" lon="6.17818">
        <ele>619.3</ele>
        <time>2023-10-09T14:36:30Z</time>
      </trkpt>
      <trkpt lat="43.66125" lon="6.17818">
        <ele>619.3</ele>
        <time>2023-10-09T14:36:31Z</time>
      </trkpt>
      <trkpt lat="43.66125" lon="6.17818">
        <ele>619.3</ele>
        <time>2023-10-09T14:36:32Z</time>
      </trkpt>
      <trkpt lat="43.66125" lon="6.17818">
        <ele>619.3</ele>
        <time>2023-10-09T14:36:33Z</time>
      </trkpt>
      <trkpt lat="43.66125" lon="6.17818">
        <ele>619.3</ele>
        <time>2023-10-09T14:36:34Z</time>
      </trkpt>
      <trkpt lat="43.66125" lon="6.17818">
        <ele>619.3</ele>
        <time>2023-10-09T14:36:35Z</time>
      </trkpt>
      <trkpt lat="43.66125" lon="6.17818">
        <ele>619.3</ele>
        <time>2023-10-09T14:36:36Z</time>
      </trkpt>
      <trkpt lat="43.66125" lon="6.17818">
        <ele>619.3</ele>
        <time>2023-10-09T14:36:37Z</time>
      </trkpt>
      <trkpt lat="43.66125" lon="6.17818">
        <ele>619.3</ele>
        <time>2023-10-09T14:36:38Z</time>
      </trkpt>
      <trkpt lat="43.66125" lon="6.17818">
        <ele>619.3</ele>
        <time>2023-10-09T14:36:39Z</time>
      </trkpt>
      <trkpt lat="43.66125" lon="6.17818">
        <ele>619.3</ele>
        <time>2023-10-09T14:36:40Z</time>
      </trkpt>
      <trkpt lat="43.66125" lon="6.17818">
        <ele>619.3</ele>
        <time>2023-10-09T14:36:41Z</time>
      </trkpt>
      <trkpt lat="43.66125" lon="6.17818">
        <ele>619.3</ele>
        <time>2023-10-09T14:36:42Z</time>
      </trkpt>
      <trkpt lat="43.66125" lon="6.17817">
        <ele>619.3</ele>
        <time>2023-10-09T14:36:43Z</time>
      </trkpt>
      <trkpt lat="43.66125" lon="6.17817">
        <ele>619.3</ele>
        <time>2023-10-09T14:36:44Z</time>
      </trkpt>
      <trkpt lat="43.66125" lon="6.17817">
        <ele>619.3</ele>
        <time>2023-10-09T14:36:45Z</time>
      </trkpt>
      <trkpt lat="43.66125" lon="6.17817">
        <ele>619.3</ele>
        <time>2023-10-09T14:36:46Z</time>
      </trkpt>
      <trkpt lat="43.66125" lon="6.17817">
        <ele>619.3</ele>
        <time>2023-10-09T14:36:47Z</time>
      </trkpt>
      <trkpt lat="43.66125" lon="6.17817">
        <ele>619.3</ele>
        <time>2023-10-09T14:36:48Z</time>
      </trkpt>
      <trkpt lat="43.66125" lon="6.17817">
        <ele>619.3</ele>
        <time>2023-10-09T14:36:49Z</time>
      </trkpt>
      <trkpt lat="43.66125" lon="6.17817">
        <ele>619.3</ele>
        <time>2023-10-09T14:36:50Z</time>
      </trkpt>
      <trkpt lat="43.66125" lon="6.17817">
        <ele>619.3</ele>
        <time>2023-10-09T14:36:51Z</time>
      </trkpt>
      <trkpt lat="43.66125" lon="6.17817">
        <ele>619.3</ele>
        <time>2023-10-09T14:36:52Z</time>
      </trkpt>
      <trkpt lat="43.66125" lon="6.17817">
        <ele>619.3</ele>
        <time>2023-10-09T14:36:53Z</time>
      </trkpt>
      <trkpt lat="43.66125" lon="6.17817">
        <ele>619.3</ele>
        <time>2023-10-09T14:36:54Z</time>
      </trkpt>
      <trkpt lat="43.66125" lon="6.17817">
        <ele>619.3</ele>
        <time>2023-10-09T14:36:55Z</time>
      </trkpt>
      <trkpt lat="43.66125" lon="6.17817">
        <ele>619.3</ele>
        <time>2023-10-09T14:36:56Z</time>
      </trkpt>
      <trkpt lat="43.66125" lon="6.17817">
        <ele>619.3</ele>
        <time>2023-10-09T14:36:57Z</time>
      </trkpt>
      <trkpt lat="43.66125" lon="6.17817">
        <ele>619.3</ele>
        <time>2023-10-09T14:36:58Z</time>
      </trkpt>
      <trkpt lat="43.66125" lon="6.17817">
        <ele>619.3</ele>
        <time>2023-10-09T14:36:59Z</time>
      </trkpt>
      <trkpt lat="43.66125" lon="6.17817">
        <ele>619.3</ele>
        <time>2023-10-09T14:37:00Z</time>
      </trkpt>
      <trkpt lat="43.66125" lon="6.17817">
        <ele>619.3</ele>
        <time>2023-10-09T14:37:01Z</time>
      </trkpt>
      <trkpt lat="43.66125" lon="6.17817">
        <ele>619.3</ele>
        <time>2023-10-09T14:37:02Z</time>
      </trkpt>
      <trkpt lat="43.66125" lon="6.17817">
        <ele>619.3</ele>
        <time>2023-10-09T14:37:03Z</time>
      </trkpt>
      <trkpt lat="43.66125" lon="6.17817">
        <ele>619.3</ele>
        <time>2023-10-09T14:37:04Z</time>
      </trkpt>
      <trkpt lat="43.66125" lon="6.17817">
        <ele>619.3</ele>
        <time>2023-10-09T14:37:05Z</time>
      </trkpt>
      <trkpt lat="43.66125" lon="6.17817">
        <ele>619.3</ele>
        <time>2023-10-09T14:37:06Z</time>
      </trkpt>
      <trkpt lat="43.66125" lon="6.17817">
        <ele>619.3</ele>
        <time>2023-10-09T14:37:07Z</time>
      </trkpt>
      <trkpt lat="43.66124" lon="6.17815">
        <ele>619.3</ele>
        <time>2023-10-09T14:37:08Z</time>
      </trkpt>
      <trkpt lat="43.66124" lon="6.17814">
        <ele>619.3</ele>
        <time>2023-10-09T14:37:09Z</time>
      </trkpt>
      <trkpt lat="43.66124" lon="6.17813">
        <ele>619.3</ele>
        <time>2023-10-09T14:37:10Z</time>
      </trkpt>
      <trkpt lat="43.66123" lon="6.17811">
        <ele>619.3</ele>
        <time>2023-10-09T14:37:11Z</time>
      </trkpt>
      <trkpt lat="43.66123" lon="6.17809">
        <ele>619.4</ele>
        <time>2023-10-09T14:37:12Z</time>
      </trkpt>
      <trkpt lat="43.66123" lon="6.17808">
        <ele>619.4</ele>
        <time>2023-10-09T14:37:13Z</time>
      </trkpt>
      <trkpt lat="43.66123" lon="6.17807">
        <ele>619.4</ele>
        <time>2023-10-09T14:37:14Z</time>
      </trkpt>
      <trkpt lat="43.66122" lon="6.17806">
        <ele>619.4</ele>
        <time>2023-10-09T14:37:15Z</time>
      </trkpt>
      <trkpt lat="43.66121" lon="6.17804">
        <ele>619.4</ele>
        <time>2023-10-09T14:37:16Z</time>
      </trkpt>
      <trkpt lat="43.66121" lon="6.17803">
        <ele>619.4</ele>
        <time>2023-10-09T14:37:17Z</time>
      </trkpt>
      <trkpt lat="43.66121" lon="6.17802">
        <ele>619.4</ele>
        <time>2023-10-09T14:37:18Z</time>
      </trkpt>
      <trkpt lat="43.66121" lon="6.178">
        <ele>619.4</ele>
        <time>2023-10-09T14:37:19Z</time>
      </trkpt>
      <trkpt lat="43.6612" lon="6.17798">
        <ele>619.3</ele>
        <time>2023-10-09T14:37:20Z</time>
      </trkpt>
      <trkpt lat="43.6612" lon="6.17797">
        <ele>619.3</ele>
        <time>2023-10-09T14:37:21Z</time>
      </trkpt>
      <trkpt lat="43.66119" lon="6.17795">
        <ele>619.3</ele>
        <time>2023-10-09T14:37:22Z</time>
      </trkpt>
      <trkpt lat="43.66118" lon="6.17793">
        <ele>619.2</ele>
        <time>2023-10-09T14:37:23Z</time>
      </trkpt>
      <trkpt lat="43.66118" lon="6.17792">
        <ele>619.2</ele>
        <time>2023-10-09T14:37:24Z</time>
      </trkpt>
      <trkpt lat="43.66117" lon="6.1779">
        <ele>619.2</ele>
        <time>2023-10-09T14:37:25Z</time>
      </trkpt>
      <trkpt lat="43.66117" lon="6.17789">
        <ele>619.2</ele>
        <time>2023-10-09T14:37:26Z</time>
      </trkpt>
      <trkpt lat="43.66117" lon="6.17788">
        <ele>619.2</ele>
        <time>2023-10-09T14:37:27Z</time>
      </trkpt>
      <trkpt lat="43.66118" lon="6.17787">
        <ele>619.2</ele>
        <time>2023-10-09T14:37:28Z</time>
      </trkpt>
      <trkpt lat="43.66118" lon="6.17785">
        <ele>619.2</ele>
        <time>2023-10-09T14:37:29Z</time>
      </trkpt>
      <trkpt lat="43.66118" lon="6.17784">
        <ele>619.2</ele>
        <time>2023-10-09T14:37:30Z</time>
      </trkpt>
      <trkpt lat="43.66118" lon="6.17782">
        <ele>619.2</ele>
        <time>2023-10-09T14:37:31Z</time>
      </trkpt>
      <trkpt lat="43.66118" lon="6.17781">
        <ele>619.2</ele>
        <time>2023-10-09T14:37:32Z</time>
      </trkpt>
      <trkpt lat="43.66118" lon="6.1778">
        <ele>619.2</ele>
        <time>2023-10-09T14:37:33Z</time>
      </trkpt>
      <trkpt lat="43.66118" lon="6.17779">
        <ele>619.2</ele>
        <time>2023-10-09T14:37:34Z</time>
      </trkpt>
      <trkpt lat="43.66118" lon="6.17778">
        <ele>619.2</ele>
        <time>2023-10-09T14:37:35Z</time>
      </trkpt>
      <trkpt lat="43.66118" lon="6.17777">
        <ele>619.2</ele>
        <time>2023-10-09T14:37:36Z</time>
      </trkpt>
      <trkpt lat="43.66117" lon="6.17775">
        <ele>619.2</ele>
        <time>2023-10-09T14:37:37Z</time>
      </trkpt>
      <trkpt lat="43.66117" lon="6.17774">
        <ele>619.2</ele>
        <time>2023-10-09T14:37:38Z</time>
      </trkpt>
      <trkpt lat="43.66116" lon="6.17772">
        <ele>619.2</ele>
        <time>2023-10-09T14:37:39Z</time>
      </trkpt>
      <trkpt lat="43.66116" lon="6.17771">
        <ele>619.2</ele>
        <time>2023-10-09T14:37:40Z</time>
      </trkpt>
      <trkpt lat="43.66115" lon="6.1777">
        <ele>619.1</ele>
        <time>2023-10-09T14:37:41Z</time>
      </trkpt>
      <trkpt lat="43.66115" lon="6.17769">
        <ele>619.1</ele>
        <time>2023-10-09T14:37:42Z</time>
      </trkpt>
      <trkpt lat="43.66115" lon="6.17767">
        <ele>619.1</ele>
        <time>2023-10-09T14:37:43Z</time>
      </trkpt>
      <trkpt lat="43.66115" lon="6.17765">
        <ele>619.1</ele>
        <time>2023-10-09T14:37:44Z</time>
      </trkpt>
      <trkpt lat="43.66115" lon="6.17764">
        <ele>619.1</ele>
        <time>2023-10-09T14:37:45Z</time>
      </trkpt>
      <trkpt lat="43.66114" lon="6.17762">
        <ele>619.1</ele>
        <time>2023-10-09T14:37:46Z</time>
      </trkpt>
      <trkpt lat="43.66114" lon="6.17761">
        <ele>619.1</ele>
        <time>2023-10-09T14:37:47Z</time>
      </trkpt>
      <trkpt lat="43.66114" lon="6.1776">
        <ele>619.1</ele>
        <time>2023-10-09T14:37:48Z</time>
      </trkpt>
      <trkpt lat="43.66114" lon="6.17758">
        <ele>619.1</ele>
        <time>2023-10-09T14:37:49Z</time>
      </trkpt>
      <trkpt lat="43.66114" lon="6.17757">
        <ele>619.1</ele>
        <time>2023-10-09T14:37:50Z</time>
      </trkpt>
      <trkpt lat="43.66114" lon="6.17754">
        <ele>619.1</ele>
        <time>2023-10-09T14:37:51Z</time>
      </trkpt>
      <trkpt lat="43.66113" lon="6.17753">
        <ele>619.1</ele>
        <time>2023-10-09T14:37:52Z</time>
      </trkpt>
      <trkpt lat="43.66113" lon="6.17752">
        <ele>619.1</ele>
        <time>2023-10-09T14:37:53Z</time>
      </trkpt>
      <trkpt lat="43.66113" lon="6.1775">
        <ele>619.1</ele>
        <time>2023-10-09T14:37:54Z</time>
      </trkpt>
      <trkpt lat="43.66113" lon="6.17749">
        <ele>619.1</ele>
        <time>2023-10-09T14:37:55Z</time>
      </trkpt>
      <trkpt lat="43.66112" lon="6.17747">
        <ele>619</ele>
        <time>2023-10-09T14:37:56Z</time>
      </trkpt>
      <trkpt lat="43.66112" lon="6.17746">
        <ele>619</ele>
        <time>2023-10-09T14:37:57Z</time>
      </trkpt>
      <trkpt lat="43.66112" lon="6.17745">
        <ele>619</ele>
        <time>2023-10-09T14:37:58Z</time>
      </trkpt>
      <trkpt lat="43.66112" lon="6.17743">
        <ele>619</ele>
        <time>2023-10-09T14:37:59Z</time>
      </trkpt>
      <trkpt lat="43.66111" lon="6.17741">
        <ele>619</ele>
        <time>2023-10-09T14:38:00Z</time>
      </trkpt>
      <trkpt lat="43.66111" lon="6.17739">
        <ele>619</ele>
        <time>2023-10-09T14:38:01Z</time>
      </trkpt>
      <trkpt lat="43.6611" lon="6.17736">
        <ele>618.9</ele>
        <time>2023-10-09T14:38:02Z</time>
      </trkpt>
      <trkpt lat="43.6611" lon="6.17735">
        <ele>618.9</ele>
        <time>2023-10-09T14:38:03Z</time>
      </trkpt>
      <trkpt lat="43.66109" lon="6.17734">
        <ele>618.9</ele>
        <time>2023-10-09T14:38:04Z</time>
      </trkpt>
      <trkpt lat="43.66109" lon="6.17731">
        <ele>618.9</ele>
        <time>2023-10-09T14:38:05Z</time>
      </trkpt>
      <trkpt lat="43.66109" lon="6.1773">
        <ele>618.9</ele>
        <time>2023-10-09T14:38:06Z</time>
      </trkpt>
      <trkpt lat="43.66109" lon="6.17729">
        <ele>618.9</ele>
        <time>2023-10-09T14:38:07Z</time>
      </trkpt>
      <trkpt lat="43.66109" lon="6.17727">
        <ele>618.9</ele>
        <time>2023-10-09T14:38:08Z</time>
      </trkpt>
      <trkpt lat="43.66108" lon="6.17725">
        <ele>618.9</ele>
        <time>2023-10-09T14:38:09Z</time>
      </trkpt>
      <trkpt lat="43.66108" lon="6.17724">
        <ele>618.9</ele>
        <time>2023-10-09T14:38:10Z</time>
      </trkpt>
      <trkpt lat="43.66108" lon="6.17723">
        <ele>618.9</ele>
        <time>2023-10-09T14:38:11Z</time>
      </trkpt>
      <trkpt lat="43.66108" lon="6.17721">
        <ele>618.9</ele>
        <time>2023-10-09T14:38:12Z</time>
      </trkpt>
      <trkpt lat="43.66107" lon="6.1772">
        <ele>618.9</ele>
        <time>2023-10-09T14:38:13Z</time>
      </trkpt>
      <trkpt lat="43.66107" lon="6.17719">
        <ele>619</ele>
        <time>2023-10-09T14:38:14Z</time>
      </trkpt>
      <trkpt lat="43.66107" lon="6.17717">
        <ele>619</ele>
        <time>2023-10-09T14:38:15Z</time>
      </trkpt>
      <trkpt lat="43.66106" lon="6.17716">
        <ele>619</ele>
        <time>2023-10-09T14:38:16Z</time>
      </trkpt>
      <trkpt lat="43.66106" lon="6.17714">
        <ele>619.1</ele>
        <time>2023-10-09T14:38:17Z</time>
      </trkpt>
      <trkpt lat="43.66105" lon="6.17713">
        <ele>619</ele>
        <time>2023-10-09T14:38:18Z</time>
      </trkpt>
      <trkpt lat="43.66105" lon="6.17712">
        <ele>619.1</ele>
        <time>2023-10-09T14:38:19Z</time>
      </trkpt>
      <trkpt lat="43.66105" lon="6.1771">
        <ele>619.1</ele>
        <time>2023-10-09T14:38:20Z</time>
      </trkpt>
      <trkpt lat="43.66104" lon="6.17709">
        <ele>619.1</ele>
        <time>2023-10-09T14:38:21Z</time>
      </trkpt>
      <trkpt lat="43.66104" lon="6.17706">
        <ele>619.2</ele>
        <time>2023-10-09T14:38:22Z</time>
      </trkpt>
      <trkpt lat="43.66103" lon="6.17705">
        <ele>619.1</ele>
        <time>2023-10-09T14:38:23Z</time>
      </trkpt>
      <trkpt lat="43.66103" lon="6.17704">
        <ele>619.2</ele>
        <time>2023-10-09T14:38:24Z</time>
      </trkpt>
      <trkpt lat="43.66103" lon="6.17703">
        <ele>619.2</ele>
        <time>2023-10-09T14:38:25Z</time>
      </trkpt>
      <trkpt lat="43.66103" lon="6.17701">
        <ele>619.2</ele>
        <time>2023-10-09T14:38:26Z</time>
      </trkpt>
      <trkpt lat="43.66102" lon="6.177">
        <ele>619.2</ele>
        <time>2023-10-09T14:38:27Z</time>
      </trkpt>
      <trkpt lat="43.66102" lon="6.17697">
        <ele>619.3</ele>
        <time>2023-10-09T14:38:28Z</time>
      </trkpt>
      <trkpt lat="43.66101" lon="6.17696">
        <ele>619.2</ele>
        <time>2023-10-09T14:38:29Z</time>
      </trkpt>
      <trkpt lat="43.66101" lon="6.17694">
        <ele>619.3</ele>
        <time>2023-10-09T14:38:30Z</time>
      </trkpt>
      <trkpt lat="43.661" lon="6.17693">
        <ele>619.2</ele>
        <time>2023-10-09T14:38:31Z</time>
      </trkpt>
      <trkpt lat="43.661" lon="6.17691">
        <ele>619.2</ele>
        <time>2023-10-09T14:38:32Z</time>
      </trkpt>
      <trkpt lat="43.66099" lon="6.1769">
        <ele>619.2</ele>
        <time>2023-10-09T14:38:33Z</time>
      </trkpt>
      <trkpt lat="43.66099" lon="6.17688">
        <ele>619.2</ele>
        <time>2023-10-09T14:38:34Z</time>
      </trkpt>
      <trkpt lat="43.66099" lon="6.17687">
        <ele>619.2</ele>
        <time>2023-10-09T14:38:35Z</time>
      </trkpt>
      <trkpt lat="43.66098" lon="6.17685">
        <ele>619.2</ele>
        <time>2023-10-09T14:38:36Z</time>
      </trkpt>
      <trkpt lat="43.66097" lon="6.17684">
        <ele>619.2</ele>
        <time>2023-10-09T14:38:37Z</time>
      </trkpt>
      <trkpt lat="43.66097" lon="6.17683">
        <ele>619.2</ele>
        <time>2023-10-09T14:38:38Z</time>
      </trkpt>
      <trkpt lat="43.66096" lon="6.17681">
        <ele>619.2</ele>
        <time>2023-10-09T14:38:39Z</time>
      </trkpt>
      <trkpt lat="43.66095" lon="6.1768">
        <ele>619.1</ele>
        <time>2023-10-09T14:38:40Z</time>
      </trkpt>
      <trkpt lat="43.66095" lon="6.17679">
        <ele>619.2</ele>
        <time>2023-10-09T14:38:41Z</time>
      </trkpt>
      <trkpt lat="43.66095" lon="6.17678">
        <ele>619.2</ele>
        <time>2023-10-09T14:38:42Z</time>
      </trkpt>
      <trkpt lat="43.66095" lon="6.17676">
        <ele>619.2</ele>
        <time>2023-10-09T14:38:43Z</time>
      </trkpt>
      <trkpt lat="43.66094" lon="6.17675">
        <ele>619.2</ele>
        <time>2023-10-09T14:38:44Z</time>
      </trkpt>
      <trkpt lat="43.66094" lon="6.17673">
        <ele>619.2</ele>
        <time>2023-10-09T14:38:45Z</time>
      </trkpt>
      <trkpt lat="43.66094" lon="6.17671">
        <ele>619.3</ele>
        <time>2023-10-09T14:38:46Z</time>
      </trkpt>
      <trkpt lat="43.66094" lon="6.1767">
        <ele>619.3</ele>
        <time>2023-10-09T14:38:47Z</time>
      </trkpt>
      <trkpt lat="43.66094" lon="6.17668">
        <ele>619.4</ele>
        <time>2023-10-09T14:38:48Z</time>
      </trkpt>
      <trkpt lat="43.66094" lon="6.17667">
        <ele>619.4</ele>
        <time>2023-10-09T14:38:49Z</time>
      </trkpt>
      <trkpt lat="43.66095" lon="6.17665">
        <ele>619.4</ele>
        <time>2023-10-09T14:38:50Z</time>
      </trkpt>
      <trkpt lat="43.66095" lon="6.17663">
        <ele>619.4</ele>
        <time>2023-10-09T14:38:51Z</time>
      </trkpt>
      <trkpt lat="43.66095" lon="6.17661">
        <ele>619.4</ele>
        <time>2023-10-09T14:38:52Z</time>
      </trkpt>
      <trkpt lat="43.66095" lon="6.17659">
        <ele>619.4</ele>
        <time>2023-10-09T14:38:53Z</time>
      </trkpt>
      <trkpt lat="43.66095" lon="6.17658">
        <ele>619.4</ele>
        <time>2023-10-09T14:38:54Z</time>
      </trkpt>
      <trkpt lat="43.66095" lon="6.17656">
        <ele>619.4</ele>
        <time>2023-10-09T14:38:55Z</time>
      </trkpt>
      <trkpt lat="43.66095" lon="6.17654">
        <ele>619.4</ele>
        <time>2023-10-09T14:38:56Z</time>
      </trkpt>
      <trkpt lat="43.66095" lon="6.17652">
        <ele>619.4</ele>
        <time>2023-10-09T14:38:57Z</time>
      </trkpt>
      <trkpt lat="43.66095" lon="6.17651">
        <ele>619.4</ele>
        <time>2023-10-09T14:38:58Z</time>
      </trkpt>
      <trkpt lat="43.66095" lon="6.17649">
        <ele>619.4</ele>
        <time>2023-10-09T14:38:59Z</time>
      </trkpt>
      <trkpt lat="43.66095" lon="6.17647">
        <ele>619.4</ele>
        <time>2023-10-09T14:39:00Z</time>
      </trkpt>
      <trkpt lat="43.66095" lon="6.17646">
        <ele>619.4</ele>
        <time>2023-10-09T14:39:01Z</time>
      </trkpt>
      <trkpt lat="43.66095" lon="6.17645">
        <ele>619.4</ele>
        <time>2023-10-09T14:39:02Z</time>
      </trkpt>
      <trkpt lat="43.66095" lon="6.17643">
        <ele>619.4</ele>
        <time>2023-10-09T14:39:03Z</time>
      </trkpt>
      <trkpt lat="43.66096" lon="6.17642">
        <ele>619.5</ele>
        <time>2023-10-09T14:39:04Z</time>
      </trkpt>
      <trkpt lat="43.66096" lon="6.1764">
        <ele>619.5</ele>
        <time>2023-10-09T14:39:05Z</time>
      </trkpt>
      <trkpt lat="43.66096" lon="6.17638">
        <ele>619.5</ele>
        <time>2023-10-09T14:39:06Z</time>
      </trkpt>
      <trkpt lat="43.66096" lon="6.17636">
        <ele>619.5</ele>
        <time>2023-10-09T14:39:07Z</time>
      </trkpt>
      <trkpt lat="43.66096" lon="6.17635">
        <ele>619.5</ele>
        <time>2023-10-09T14:39:08Z</time>
      </trkpt>
      <trkpt lat="43.66096" lon="6.17633">
        <ele>619.5</ele>
        <time>2023-10-09T14:39:09Z</time>
      </trkpt>
      <trkpt lat="43.66096" lon="6.17632">
        <ele>619.5</ele>
        <time>2023-10-09T14:39:10Z</time>
      </trkpt>
      <trkpt lat="43.66097" lon="6.17631">
        <ele>619.5</ele>
        <time>2023-10-09T14:39:11Z</time>
      </trkpt>
      <trkpt lat="43.66097" lon="6.17629">
        <ele>619.5</ele>
        <time>2023-10-09T14:39:12Z</time>
      </trkpt>
      <trkpt lat="43.66097" lon="6.17626">
        <ele>619.5</ele>
        <time>2023-10-09T14:39:13Z</time>
      </trkpt>
      <trkpt lat="43.66096" lon="6.17624">
        <ele>619.5</ele>
        <time>2023-10-09T14:39:14Z</time>
      </trkpt>
      <trkpt lat="43.66096" lon="6.17623">
        <ele>619.5</ele>
        <time>2023-10-09T14:39:15Z</time>
      </trkpt>
      <trkpt lat="43.66096" lon="6.17622">
        <ele>619.5</ele>
        <time>2023-10-09T14:39:16Z</time>
      </trkpt>
      <trkpt lat="43.66096" lon="6.1762">
        <ele>619.5</ele>
        <time>2023-10-09T14:39:17Z</time>
      </trkpt>
      <trkpt lat="43.66096" lon="6.17619">
        <ele>619.5</ele>
        <time>2023-10-09T14:39:18Z</time>
      </trkpt>
      <trkpt lat="43.66096" lon="6.17617">
        <ele>619.5</ele>
        <time>2023-10-09T14:39:19Z</time>
      </trkpt>
      <trkpt lat="43.66096" lon="6.17616">
        <ele>619.5</ele>
        <time>2023-10-09T14:39:20Z</time>
      </trkpt>
      <trkpt lat="43.66096" lon="6.17614">
        <ele>619.5</ele>
        <time>2023-10-09T14:39:21Z</time>
      </trkpt>
      <trkpt lat="43.66096" lon="6.17612">
        <ele>619.5</ele>
        <time>2023-10-09T14:39:22Z</time>
      </trkpt>
      <trkpt lat="43.66096" lon="6.17611">
        <ele>619.5</ele>
        <time>2023-10-09T14:39:23Z</time>
      </trkpt>
      <trkpt lat="43.66096" lon="6.1761">
        <ele>619.5</ele>
        <time>2023-10-09T14:39:24Z</time>
      </trkpt>
      <trkpt lat="43.66096" lon="6.17608">
        <ele>619.5</ele>
        <time>2023-10-09T14:39:25Z</time>
      </trkpt>
      <trkpt lat="43.66096" lon="6.17607">
        <ele>619.5</ele>
        <time>2023-10-09T14:39:26Z</time>
      </trkpt>
      <trkpt lat="43.66095" lon="6.17605">
        <ele>619.4</ele>
        <time>2023-10-09T14:39:27Z</time>
      </trkpt>
      <trkpt lat="43.66095" lon="6.17603">
        <ele>619.4</ele>
        <time>2023-10-09T14:39:28Z</time>
      </trkpt>
      <trkpt lat="43.66095" lon="6.17601">
        <ele>619.4</ele>
        <time>2023-10-09T14:39:29Z</time>
      </trkpt>
      <trkpt lat="43.66095" lon="6.17599">
        <ele>619.4</ele>
        <time>2023-10-09T14:39:30Z</time>
      </trkpt>
      <trkpt lat="43.66095" lon="6.17598">
        <ele>619.4</ele>
        <time>2023-10-09T14:39:31Z</time>
      </trkpt>
      <trkpt lat="43.66095" lon="6.17596">
        <ele>619.4</ele>
        <time>2023-10-09T14:39:32Z</time>
      </trkpt>
      <trkpt lat="43.66095" lon="6.17595">
        <ele>619.4</ele>
        <time>2023-10-09T14:39:33Z</time>
      </trkpt>
      <trkpt lat="43.66094" lon="6.17594">
        <ele>619.4</ele>
        <time>2023-10-09T14:39:34Z</time>
      </trkpt>
      <trkpt lat="43.66094" lon="6.17592">
        <ele>619.4</ele>
        <time>2023-10-09T14:39:35Z</time>
      </trkpt>
      <trkpt lat="43.66094" lon="6.17591">
        <ele>619.4</ele>
        <time>2023-10-09T14:39:36Z</time>
      </trkpt>
      <trkpt lat="43.66094" lon="6.17589">
        <ele>619.4</ele>
        <time>2023-10-09T14:39:37Z</time>
      </trkpt>
      <trkpt lat="43.66094" lon="6.17588">
        <ele>619.4</ele>
        <time>2023-10-09T14:39:38Z</time>
      </trkpt>
      <trkpt lat="43.66094" lon="6.17586">
        <ele>619.4</ele>
        <time>2023-10-09T14:39:39Z</time>
      </trkpt>
      <trkpt lat="43.66093" lon="6.17585">
        <ele>619.3</ele>
        <time>2023-10-09T14:39:40Z</time>
      </trkpt>
      <trkpt lat="43.66093" lon="6.17584">
        <ele>619.3</ele>
        <time>2023-10-09T14:39:41Z</time>
      </trkpt>
      <trkpt lat="43.66093" lon="6.17583">
        <ele>619.3</ele>
        <time>2023-10-09T14:39:42Z</time>
      </trkpt>
      <trkpt lat="43.66093" lon="6.1758">
        <ele>619.3</ele>
        <time>2023-10-09T14:39:43Z</time>
      </trkpt>
      <trkpt lat="43.66092" lon="6.17579">
        <ele>619.3</ele>
        <time>2023-10-09T14:39:44Z</time>
      </trkpt>
      <trkpt lat="43.66092" lon="6.17578">
        <ele>619.3</ele>
        <time>2023-10-09T14:39:45Z</time>
      </trkpt>
      <trkpt lat="43.66092" lon="6.17577">
        <ele>619.3</ele>
        <time>2023-10-09T14:39:46Z</time>
      </trkpt>
      <trkpt lat="43.66092" lon="6.17575">
        <ele>619.3</ele>
        <time>2023-10-09T14:39:47Z</time>
      </trkpt>
      <trkpt lat="43.66092" lon="6.17574">
        <ele>619.3</ele>
        <time>2023-10-09T14:39:48Z</time>
      </trkpt>
      <trkpt lat="43.66092" lon="6.17572">
        <ele>619.3</ele>
        <time>2023-10-09T14:39:49Z</time>
      </trkpt>
      <trkpt lat="43.66092" lon="6.1757">
        <ele>619.3</ele>
        <time>2023-10-09T14:39:50Z</time>
      </trkpt>
      <trkpt lat="43.66091" lon="6.17567">
        <ele>619.3</ele>
        <time>2023-10-09T14:39:51Z</time>
      </trkpt>
      <trkpt lat="43.66091" lon="6.17565">
        <ele>619.3</ele>
        <time>2023-10-09T14:39:52Z</time>
      </trkpt>
      <trkpt lat="43.66091" lon="6.17564">
        <ele>619.3</ele>
        <time>2023-10-09T14:39:53Z</time>
      </trkpt>
      <trkpt lat="43.66091" lon="6.17562">
        <ele>619.3</ele>
        <time>2023-10-09T14:39:54Z</time>
      </trkpt>
      <trkpt lat="43.66091" lon="6.17561">
        <ele>619.3</ele>
        <time>2023-10-09T14:39:55Z</time>
      </trkpt>
      <trkpt lat="43.66091" lon="6.1756">
        <ele>619.3</ele>
        <time>2023-10-09T14:39:56Z</time>
      </trkpt>
      <trkpt lat="43.66091" lon="6.17559">
        <ele>619.3</ele>
        <time>2023-10-09T14:39:57Z</time>
      </trkpt>
      <trkpt lat="43.6609" lon="6.17557">
        <ele>619.2</ele>
        <time>2023-10-09T14:39:58Z</time>
      </trkpt>
      <trkpt lat="43.6609" lon="6.17554">
        <ele>619.2</ele>
        <time>2023-10-09T14:39:59Z</time>
      </trkpt>
      <trkpt lat="43.6609" lon="6.17553">
        <ele>619.2</ele>
        <time>2023-10-09T14:40:00Z</time>
      </trkpt>
      <trkpt lat="43.6609" lon="6.17551">
        <ele>619.2</ele>
        <time>2023-10-09T14:40:01Z</time>
      </trkpt>
      <trkpt lat="43.66089" lon="6.17549">
        <ele>619.2</ele>
        <time>2023-10-09T14:40:02Z</time>
      </trkpt>
      <trkpt lat="43.66089" lon="6.17548">
        <ele>619.2</ele>
        <time>2023-10-09T14:40:03Z</time>
      </trkpt>
      <trkpt lat="43.66088" lon="6.17545">
        <ele>619.2</ele>
        <time>2023-10-09T14:40:04Z</time>
      </trkpt>
      <trkpt lat="43.66088" lon="6.17544">
        <ele>619.2</ele>
        <time>2023-10-09T14:40:05Z</time>
      </trkpt>
      <trkpt lat="43.66088" lon="6.17543">
        <ele>619.2</ele>
        <time>2023-10-09T14:40:06Z</time>
      </trkpt>
      <trkpt lat="43.66088" lon="6.17542">
        <ele>619.2</ele>
        <time>2023-10-09T14:40:07Z</time>
      </trkpt>
      <trkpt lat="43.66087" lon="6.1754">
        <ele>619.1</ele>
        <time>2023-10-09T14:40:08Z</time>
      </trkpt>
      <trkpt lat="43.66087" lon="6.17539">
        <ele>619.1</ele>
        <time>2023-10-09T14:40:09Z</time>
      </trkpt>
      <trkpt lat="43.66087" lon="6.17537">
        <ele>619.1</ele>
        <time>2023-10-09T14:40:10Z</time>
      </trkpt>
      <trkpt lat="43.66087" lon="6.17536">
        <ele>619.1</ele>
        <time>2023-10-09T14:40:11Z</time>
      </trkpt>
      <trkpt lat="43.66086" lon="6.17535">
        <ele>619.1</ele>
        <time>2023-10-09T14:40:12Z</time>
      </trkpt>
      <trkpt lat="43.66086" lon="6.17534">
        <ele>619.1</ele>
        <time>2023-10-09T14:40:13Z</time>
      </trkpt>
      <trkpt lat="43.66086" lon="6.17532">
        <ele>619.1</ele>
        <time>2023-10-09T14:40:14Z</time>
      </trkpt>
      <trkpt lat="43.66086" lon="6.17531">
        <ele>619.1</ele>
        <time>2023-10-09T14:40:15Z</time>
      </trkpt>
      <trkpt lat="43.66085" lon="6.17528">
        <ele>619.1</ele>
        <time>2023-10-09T14:40:16Z</time>
      </trkpt>
      <trkpt lat="43.66085" lon="6.17527">
        <ele>619</ele>
        <time>2023-10-09T14:40:17Z</time>
      </trkpt>
      <trkpt lat="43.66084" lon="6.17526">
        <ele>619</ele>
        <time>2023-10-09T14:40:18Z</time>
      </trkpt>
      <trkpt lat="43.66084" lon="6.17523">
        <ele>618.9</ele>
        <time>2023-10-09T14:40:19Z</time>
      </trkpt>
      <trkpt lat="43.66083" lon="6.17522">
        <ele>618.8</ele>
        <time>2023-10-09T14:40:20Z</time>
      </trkpt>
      <trkpt lat="43.66083" lon="6.17521">
        <ele>618.7</ele>
        <time>2023-10-09T14:40:21Z</time>
      </trkpt>
      <trkpt lat="43.66083" lon="6.1752">
        <ele>618.7</ele>
        <time>2023-10-09T14:40:22Z</time>
      </trkpt>
      <trkpt lat="43.66082" lon="6.17518">
        <ele>618.6</ele>
        <time>2023-10-09T14:40:23Z</time>
      </trkpt>
      <trkpt lat="43.66081" lon="6.17517">
        <ele>618.5</ele>
        <time>2023-10-09T14:40:24Z</time>
      </trkpt>
      <trkpt lat="43.6608" lon="6.17514">
        <ele>618.3</ele>
        <time>2023-10-09T14:40:25Z</time>
      </trkpt>
      <trkpt lat="43.6608" lon="6.17513">
        <ele>618.3</ele>
        <time>2023-10-09T14:40:26Z</time>
      </trkpt>
      <trkpt lat="43.66079" lon="6.17512">
        <ele>618.2</ele>
        <time>2023-10-09T14:40:27Z</time>
      </trkpt>
      <trkpt lat="43.66078" lon="6.1751">
        <ele>618.1</ele>
        <time>2023-10-09T14:40:28Z</time>
      </trkpt>
      <trkpt lat="43.66077" lon="6.17509">
        <ele>618</ele>
        <time>2023-10-09T14:40:29Z</time>
      </trkpt>
      <trkpt lat="43.66077" lon="6.17506">
        <ele>617.9</ele>
        <time>2023-10-09T14:40:30Z</time>
      </trkpt>
      <trkpt lat="43.66076" lon="6.17505">
        <ele>617.9</ele>
        <time>2023-10-09T14:40:31Z</time>
      </trkpt>
      <trkpt lat="43.66076" lon="6.17504">
        <ele>617.8</ele>
        <time>2023-10-09T14:40:32Z</time>
      </trkpt>
      <trkpt lat="43.66075" lon="6.17501">
        <ele>617.7</ele>
        <time>2023-10-09T14:40:33Z</time>
      </trkpt>
      <trkpt lat="43.66075" lon="6.175">
        <ele>617.7</ele>
        <time>2023-10-09T14:40:34Z</time>
      </trkpt>
      <trkpt lat="43.66075" lon="6.17499">
        <ele>617.7</ele>
        <time>2023-10-09T14:40:35Z</time>
      </trkpt>
      <trkpt lat="43.66075" lon="6.17497">
        <ele>617.7</ele>
        <time>2023-10-09T14:40:36Z</time>
      </trkpt>
      <trkpt lat="43.66075" lon="6.17496">
        <ele>617.7</ele>
        <time>2023-10-09T14:40:37Z</time>
      </trkpt>
      <trkpt lat="43.66074" lon="6.17494">
        <ele>617.7</ele>
        <time>2023-10-09T14:40:38Z</time>
      </trkpt>
      <trkpt lat="43.66074" lon="6.17493">
        <ele>617.7</ele>
        <time>2023-10-09T14:40:39Z</time>
      </trkpt>
      <trkpt lat="43.66074" lon="6.17491">
        <ele>617.7</ele>
        <time>2023-10-09T14:40:40Z</time>
      </trkpt>
      <trkpt lat="43.66073" lon="6.1749">
        <ele>617.6</ele>
        <time>2023-10-09T14:40:41Z</time>
      </trkpt>
      <trkpt lat="43.66073" lon="6.17487">
        <ele>617.6</ele>
        <time>2023-10-09T14:40:42Z</time>
      </trkpt>
      <trkpt lat="43.66073" lon="6.17486">
        <ele>617.6</ele>
        <time>2023-10-09T14:40:43Z</time>
      </trkpt>
      <trkpt lat="43.66072" lon="6.17484">
        <ele>617.6</ele>
        <time>2023-10-09T14:40:44Z</time>
      </trkpt>
      <trkpt lat="43.66072" lon="6.17483">
        <ele>617.6</ele>
        <time>2023-10-09T14:40:45Z</time>
      </trkpt>
      <trkpt lat="43.66072" lon="6.17481">
        <ele>617.6</ele>
        <time>2023-10-09T14:40:46Z</time>
      </trkpt>
      <trkpt lat="43.66072" lon="6.1748">
        <ele>617.6</ele>
        <time>2023-10-09T14:40:47Z</time>
      </trkpt>
      <trkpt lat="43.66071" lon="6.17479">
        <ele>617.6</ele>
        <time>2023-10-09T14:40:48Z</time>
      </trkpt>
      <trkpt lat="43.66071" lon="6.17477">
        <ele>617.6</ele>
        <time>2023-10-09T14:40:49Z</time>
      </trkpt>
      <trkpt lat="43.66071" lon="6.17476">
        <ele>617.6</ele>
        <time>2023-10-09T14:40:50Z</time>
      </trkpt>
      <trkpt lat="43.66071" lon="6.17473">
        <ele>617.6</ele>
        <time>2023-10-09T14:40:51Z</time>
      </trkpt>
      <trkpt lat="43.66071" lon="6.17472">
        <ele>617.6</ele>
        <time>2023-10-09T14:40:52Z</time>
      </trkpt>
      <trkpt lat="43.6607" lon="6.17471">
        <ele>617.5</ele>
        <time>2023-10-09T14:40:53Z</time>
      </trkpt>
      <trkpt lat="43.6607" lon="6.17468">
        <ele>617.4</ele>
        <time>2023-10-09T14:40:54Z</time>
      </trkpt>
      <trkpt lat="43.6607" lon="6.17467">
        <ele>617.4</ele>
        <time>2023-10-09T14:40:55Z</time>
      </trkpt>
      <trkpt lat="43.6607" lon="6.17466">
        <ele>617.4</ele>
        <time>2023-10-09T14:40:56Z</time>
      </trkpt>
      <trkpt lat="43.6607" lon="6.17463">
        <ele>617.3</ele>
        <time>2023-10-09T14:40:57Z</time>
      </trkpt>
      <trkpt lat="43.66069" lon="6.17462">
        <ele>617.3</ele>
        <time>2023-10-09T14:40:58Z</time>
      </trkpt>
      <trkpt lat="43.66069" lon="6.17461">
        <ele>617.3</ele>
        <time>2023-10-09T14:40:59Z</time>
      </trkpt>
      <trkpt lat="43.66069" lon="6.17459">
        <ele>617.3</ele>
        <time>2023-10-09T14:41:00Z</time>
      </trkpt>
      <trkpt lat="43.66069" lon="6.17458">
        <ele>617.2</ele>
        <time>2023-10-09T14:41:01Z</time>
      </trkpt>
      <trkpt lat="43.66068" lon="6.17456">
        <ele>617.2</ele>
        <time>2023-10-09T14:41:02Z</time>
      </trkpt>
      <trkpt lat="43.66068" lon="6.17455">
        <ele>617.2</ele>
        <time>2023-10-09T14:41:03Z</time>
      </trkpt>
      <trkpt lat="43.66068" lon="6.17453">
        <ele>617.1</ele>
        <time>2023-10-09T14:41:04Z</time>
      </trkpt>
      <trkpt lat="43.66068" lon="6.17452">
        <ele>617.1</ele>
        <time>2023-10-09T14:41:05Z</time>
      </trkpt>
      <trkpt lat="43.66068" lon="6.17449">
        <ele>617.1</ele>
        <time>2023-10-09T14:41:06Z</time>
      </trkpt>
      <trkpt lat="43.66068" lon="6.17448">
        <ele>617.1</ele>
        <time>2023-10-09T14:41:07Z</time>
      </trkpt>
      <trkpt lat="43.66068" lon="6.17446">
        <ele>617</ele>
        <time>2023-10-09T14:41:08Z</time>
      </trkpt>
      <trkpt lat="43.66068" lon="6.17444">
        <ele>617</ele>
        <time>2023-10-09T14:41:09Z</time>
      </trkpt>
      <trkpt lat="43.66068" lon="6.17443">
        <ele>617</ele>
        <time>2023-10-09T14:41:10Z</time>
      </trkpt>
      <trkpt lat="43.66068" lon="6.17441">
        <ele>616.9</ele>
        <time>2023-10-09T14:41:11Z</time>
      </trkpt>
      <trkpt lat="43.66068" lon="6.17438">
        <ele>616.9</ele>
        <time>2023-10-09T14:41:13Z</time>
      </trkpt>
      <trkpt lat="43.66067" lon="6.17436">
        <ele>616.8</ele>
        <time>2023-10-09T14:41:14Z</time>
      </trkpt>
      <trkpt lat="43.66067" lon="6.17434">
        <ele>616.8</ele>
        <time>2023-10-09T14:41:15Z</time>
      </trkpt>
      <trkpt lat="43.66067" lon="6.17431">
        <ele>616.7</ele>
        <time>2023-10-09T14:41:16Z</time>
      </trkpt>
      <trkpt lat="43.66067" lon="6.1743">
        <ele>616.7</ele>
        <time>2023-10-09T14:41:17Z</time>
      </trkpt>
      <trkpt lat="43.66067" lon="6.17428">
        <ele>616.7</ele>
        <time>2023-10-09T14:41:18Z</time>
      </trkpt>
      <trkpt lat="43.66067" lon="6.17427">
        <ele>616.6</ele>
        <time>2023-10-09T14:41:19Z</time>
      </trkpt>
      <trkpt lat="43.66067" lon="6.17425">
        <ele>616.6</ele>
        <time>2023-10-09T14:41:20Z</time>
      </trkpt>
      <trkpt lat="43.66066" lon="6.17424">
        <ele>616.5</ele>
        <time>2023-10-09T14:41:21Z</time>
      </trkpt>
      <trkpt lat="43.66066" lon="6.17423">
        <ele>616.5</ele>
        <time>2023-10-09T14:41:22Z</time>
      </trkpt>
      <trkpt lat="43.66066" lon="6.17421">
        <ele>616.5</ele>
        <time>2023-10-09T14:41:23Z</time>
      </trkpt>
      <trkpt lat="43.66066" lon="6.1742">
        <ele>616.5</ele>
        <time>2023-10-09T14:41:24Z</time>
      </trkpt>
      <trkpt lat="43.66065" lon="6.17417">
        <ele>616.3</ele>
        <time>2023-10-09T14:41:25Z</time>
      </trkpt>
      <trkpt lat="43.66065" lon="6.17416">
        <ele>616.3</ele>
        <time>2023-10-09T14:41:26Z</time>
      </trkpt>
      <trkpt lat="43.66065" lon="6.17415">
        <ele>616.3</ele>
        <time>2023-10-09T14:41:27Z</time>
      </trkpt>
      <trkpt lat="43.66066" lon="6.17413">
        <ele>616.4</ele>
        <time>2023-10-09T14:41:28Z</time>
      </trkpt>
      <trkpt lat="43.66066" lon="6.17411">
        <ele>616.4</ele>
        <time>2023-10-09T14:41:29Z</time>
      </trkpt>
      <trkpt lat="43.66066" lon="6.1741">
        <ele>616.4</ele>
        <time>2023-10-09T14:41:30Z</time>
      </trkpt>
      <trkpt lat="43.66066" lon="6.17409">
        <ele>616.4</ele>
        <time>2023-10-09T14:41:31Z</time>
      </trkpt>
      <trkpt lat="43.66066" lon="6.17407">
        <ele>616.4</ele>
        <time>2023-10-09T14:41:32Z</time>
      </trkpt>
      <trkpt lat="43.66066" lon="6.17405">
        <ele>616.4</ele>
        <time>2023-10-09T14:41:33Z</time>
      </trkpt>
      <trkpt lat="43.66067" lon="6.17404">
        <ele>616.4</ele>
        <time>2023-10-09T14:41:34Z</time>
      </trkpt>
      <trkpt lat="43.66067" lon="6.17402">
        <ele>616.4</ele>
        <time>2023-10-09T14:41:35Z</time>
      </trkpt>
      <trkpt lat="43.66067" lon="6.174">
        <ele>616.4</ele>
        <time>2023-10-09T14:41:36Z</time>
      </trkpt>
      <trkpt lat="43.66067" lon="6.17398">
        <ele>616.4</ele>
        <time>2023-10-09T14:41:37Z</time>
      </trkpt>
      <trkpt lat="43.66067" lon="6.17396">
        <ele>616.4</ele>
        <time>2023-10-09T14:41:38Z</time>
      </trkpt>
      <trkpt lat="43.66067" lon="6.17395">
        <ele>616.4</ele>
        <time>2023-10-09T14:41:39Z</time>
      </trkpt>
      <trkpt lat="43.66067" lon="6.17393">
        <ele>616.4</ele>
        <time>2023-10-09T14:41:40Z</time>
      </trkpt>
      <trkpt lat="43.66067" lon="6.1739">
        <ele>616.4</ele>
        <time>2023-10-09T14:41:41Z</time>
      </trkpt>
      <trkpt lat="43.66067" lon="6.17389">
        <ele>616.4</ele>
        <time>2023-10-09T14:41:42Z</time>
      </trkpt>
      <trkpt lat="43.66067" lon="6.17388">
        <ele>616.4</ele>
        <time>2023-10-09T14:41:43Z</time>
      </trkpt>
      <trkpt lat="43.66068" lon="6.17387">
        <ele>616.4</ele>
        <time>2023-10-09T14:41:44Z</time>
      </trkpt>
      <trkpt lat="43.66068" lon="6.17385">
        <ele>616.4</ele>
        <time>2023-10-09T14:41:45Z</time>
      </trkpt>
      <trkpt lat="43.66068" lon="6.17382">
        <ele>616.3</ele>
        <time>2023-10-09T14:41:46Z</time>
      </trkpt>
      <trkpt lat="43.66069" lon="6.17381">
        <ele>616.3</ele>
        <time>2023-10-09T14:41:47Z</time>
      </trkpt>
      <trkpt lat="43.66069" lon="6.1738">
        <ele>616.3</ele>
        <time>2023-10-09T14:41:48Z</time>
      </trkpt>
      <trkpt lat="43.66069" lon="6.17378">
        <ele>616.3</ele>
        <time>2023-10-09T14:41:49Z</time>
      </trkpt>
      <trkpt lat="43.6607" lon="6.17376">
        <ele>616.3</ele>
        <time>2023-10-09T14:41:50Z</time>
      </trkpt>
      <trkpt lat="43.66071" lon="6.17375">
        <ele>616.3</ele>
        <time>2023-10-09T14:41:51Z</time>
      </trkpt>
      <trkpt lat="43.66071" lon="6.17373">
        <ele>616.2</ele>
        <time>2023-10-09T14:41:52Z</time>
      </trkpt>
      <trkpt lat="43.66072" lon="6.17371">
        <ele>616.2</ele>
        <time>2023-10-09T14:41:53Z</time>
      </trkpt>
      <trkpt lat="43.66072" lon="6.1737">
        <ele>616.2</ele>
        <time>2023-10-09T14:41:54Z</time>
      </trkpt>
      <trkpt lat="43.66073" lon="6.17368">
        <ele>616.2</ele>
        <time>2023-10-09T14:41:55Z</time>
      </trkpt>
      <trkpt lat="43.66073" lon="6.17367">
        <ele>616.1</ele>
        <time>2023-10-09T14:41:56Z</time>
      </trkpt>
      <trkpt lat="43.66073" lon="6.17366">
        <ele>616.1</ele>
        <time>2023-10-09T14:41:57Z</time>
      </trkpt>
      <trkpt lat="43.66073" lon="6.17365">
        <ele>616.1</ele>
        <time>2023-10-09T14:41:58Z</time>
      </trkpt>
      <trkpt lat="43.66074" lon="6.17363">
        <ele>616</ele>
        <time>2023-10-09T14:41:59Z</time>
      </trkpt>
      <trkpt lat="43.66074" lon="6.17361">
        <ele>616</ele>
        <time>2023-10-09T14:42:00Z</time>
      </trkpt>
      <trkpt lat="43.66074" lon="6.17359">
        <ele>616</ele>
        <time>2023-10-09T14:42:01Z</time>
      </trkpt>
      <trkpt lat="43.66075" lon="6.17357">
        <ele>616</ele>
        <time>2023-10-09T14:42:02Z</time>
      </trkpt>
      <trkpt lat="43.66075" lon="6.17355">
        <ele>616</ele>
        <time>2023-10-09T14:42:03Z</time>
      </trkpt>
      <trkpt lat="43.66075" lon="6.17353">
        <ele>616</ele>
        <time>2023-10-09T14:42:04Z</time>
      </trkpt>
      <trkpt lat="43.66076" lon="6.17351">
        <ele>616</ele>
        <time>2023-10-09T14:42:05Z</time>
      </trkpt>
      <trkpt lat="43.66076" lon="6.17349">
        <ele>616</ele>
        <time>2023-10-09T14:42:07Z</time>
      </trkpt>
      <trkpt lat="43.66077" lon="6.17346">
        <ele>616</ele>
        <time>2023-10-09T14:42:08Z</time>
      </trkpt>
      <trkpt lat="43.66078" lon="6.17345">
        <ele>616</ele>
        <time>2023-10-09T14:42:09Z</time>
      </trkpt>
      <trkpt lat="43.66078" lon="6.17344">
        <ele>616</ele>
        <time>2023-10-09T14:42:10Z</time>
      </trkpt>
      <trkpt lat="43.66079" lon="6.17341">
        <ele>616</ele>
        <time>2023-10-09T14:42:11Z</time>
      </trkpt>
      <trkpt lat="43.6608" lon="6.1734">
        <ele>616</ele>
        <time>2023-10-09T14:42:12Z</time>
      </trkpt>
      <trkpt lat="43.6608" lon="6.17338">
        <ele>616</ele>
        <time>2023-10-09T14:42:13Z</time>
      </trkpt>
      <trkpt lat="43.66081" lon="6.17336">
        <ele>616</ele>
        <time>2023-10-09T14:42:14Z</time>
      </trkpt>
      <trkpt lat="43.66081" lon="6.17334">
        <ele>616</ele>
        <time>2023-10-09T14:42:15Z</time>
      </trkpt>
      <trkpt lat="43.66082" lon="6.17333">
        <ele>616</ele>
        <time>2023-10-09T14:42:16Z</time>
      </trkpt>
      <trkpt lat="43.66082" lon="6.17332">
        <ele>616</ele>
        <time>2023-10-09T14:42:17Z</time>
      </trkpt>
      <trkpt lat="43.66082" lon="6.17331">
        <ele>615.9</ele>
        <time>2023-10-09T14:42:18Z</time>
      </trkpt>
      <trkpt lat="43.66083" lon="6.1733">
        <ele>615.9</ele>
        <time>2023-10-09T14:42:19Z</time>
      </trkpt>
      <trkpt lat="43.66083" lon="6.17328">
        <ele>615.8</ele>
        <time>2023-10-09T14:42:20Z</time>
      </trkpt>
      <trkpt lat="43.66084" lon="6.17325">
        <ele>615.7</ele>
        <time>2023-10-09T14:42:21Z</time>
      </trkpt>
      <trkpt lat="43.66084" lon="6.17324">
        <ele>615.7</ele>
        <time>2023-10-09T14:42:22Z</time>
      </trkpt>
      <trkpt lat="43.66084" lon="6.17322">
        <ele>615.6</ele>
        <time>2023-10-09T14:42:23Z</time>
      </trkpt>
      <trkpt lat="43.66084" lon="6.17321">
        <ele>615.6</ele>
        <time>2023-10-09T14:42:24Z</time>
      </trkpt>
      <trkpt lat="43.66084" lon="6.17319">
        <ele>615.5</ele>
        <time>2023-10-09T14:42:25Z</time>
      </trkpt>
      <trkpt lat="43.66084" lon="6.17317">
        <ele>615.4</ele>
        <time>2023-10-09T14:42:26Z</time>
      </trkpt>
      <trkpt lat="43.66084" lon="6.17315">
        <ele>615.4</ele>
        <time>2023-10-09T14:42:27Z</time>
      </trkpt>
      <trkpt lat="43.66085" lon="6.17314">
        <ele>615.4</ele>
        <time>2023-10-09T14:42:28Z</time>
      </trkpt>
      <trkpt lat="43.66085" lon="6.17313">
        <ele>615.3</ele>
        <time>2023-10-09T14:42:29Z</time>
      </trkpt>
      <trkpt lat="43.66085" lon="6.17311">
        <ele>615.3</ele>
        <time>2023-10-09T14:42:30Z</time>
      </trkpt>
      <trkpt lat="43.66085" lon="6.17309">
        <ele>615.2</ele>
        <time>2023-10-09T14:42:31Z</time>
      </trkpt>
      <trkpt lat="43.66085" lon="6.17308">
        <ele>615.1</ele>
        <time>2023-10-09T14:42:32Z</time>
      </trkpt>
      <trkpt lat="43.66086" lon="6.17306">
        <ele>615.1</ele>
        <time>2023-10-09T14:42:33Z</time>
      </trkpt>
      <trkpt lat="43.66086" lon="6.17304">
        <ele>615.1</ele>
        <time>2023-10-09T14:42:34Z</time>
      </trkpt>
      <trkpt lat="43.66086" lon="6.17302">
        <ele>615.1</ele>
        <time>2023-10-09T14:42:35Z</time>
      </trkpt>
      <trkpt lat="43.66087" lon="6.173">
        <ele>615.1</ele>
        <time>2023-10-09T14:42:36Z</time>
      </trkpt>
      <trkpt lat="43.66087" lon="6.17299">
        <ele>615.1</ele>
        <time>2023-10-09T14:42:37Z</time>
      </trkpt>
      <trkpt lat="43.66087" lon="6.17298">
        <ele>615.1</ele>
        <time>2023-10-09T14:42:38Z</time>
      </trkpt>
      <trkpt lat="43.66087" lon="6.17296">
        <ele>615.1</ele>
        <time>2023-10-09T14:42:39Z</time>
      </trkpt>
      <trkpt lat="43.66087" lon="6.17295">
        <ele>615.1</ele>
        <time>2023-10-09T14:42:40Z</time>
      </trkpt>
      <trkpt lat="43.66087" lon="6.17293">
        <ele>615.1</ele>
        <time>2023-10-09T14:42:41Z</time>
      </trkpt>
      <trkpt lat="43.66088" lon="6.17292">
        <ele>615.2</ele>
        <time>2023-10-09T14:42:42Z</time>
      </trkpt>
      <trkpt lat="43.66088" lon="6.1729">
        <ele>615.2</ele>
        <time>2023-10-09T14:42:43Z</time>
      </trkpt>
      <trkpt lat="43.66088" lon="6.17289">
        <ele>615.2</ele>
        <time>2023-10-09T14:42:44Z</time>
      </trkpt>
      <trkpt lat="43.66088" lon="6.17287">
        <ele>615.2</ele>
        <time>2023-10-09T14:42:45Z</time>
      </trkpt>
      <trkpt lat="43.66088" lon="6.17286">
        <ele>615.2</ele>
        <time>2023-10-09T14:42:46Z</time>
      </trkpt>
      <trkpt lat="43.66088" lon="6.17284">
        <ele>615.2</ele>
        <time>2023-10-09T14:42:47Z</time>
      </trkpt>
      <trkpt lat="43.66089" lon="6.17281">
        <ele>615.2</ele>
        <time>2023-10-09T14:42:48Z</time>
      </trkpt>
      <trkpt lat="43.66089" lon="6.1728">
        <ele>615.2</ele>
        <time>2023-10-09T14:42:49Z</time>
      </trkpt>
      <trkpt lat="43.66089" lon="6.17279">
        <ele>615.2</ele>
        <time>2023-10-09T14:42:50Z</time>
      </trkpt>
      <trkpt lat="43.66089" lon="6.17277">
        <ele>615.2</ele>
        <time>2023-10-09T14:42:51Z</time>
      </trkpt>
      <trkpt lat="43.6609" lon="6.17275">
        <ele>615.1</ele>
        <time>2023-10-09T14:42:52Z</time>
      </trkpt>
      <trkpt lat="43.6609" lon="6.17273">
        <ele>615.1</ele>
        <time>2023-10-09T14:42:53Z</time>
      </trkpt>
      <trkpt lat="43.66091" lon="6.17271">
        <ele>615</ele>
        <time>2023-10-09T14:42:54Z</time>
      </trkpt>
      <trkpt lat="43.66091" lon="6.17269">
        <ele>615</ele>
        <time>2023-10-09T14:42:55Z</time>
      </trkpt>
      <trkpt lat="43.66091" lon="6.17268">
        <ele>614.9</ele>
        <time>2023-10-09T14:42:56Z</time>
      </trkpt>
      <trkpt lat="43.66091" lon="6.17266">
        <ele>614.9</ele>
        <time>2023-10-09T14:42:57Z</time>
      </trkpt>
      <trkpt lat="43.66091" lon="6.17263">
        <ele>614.7</ele>
        <time>2023-10-09T14:42:58Z</time>
      </trkpt>
      <trkpt lat="43.66091" lon="6.17262">
        <ele>614.7</ele>
        <time>2023-10-09T14:42:59Z</time>
      </trkpt>
      <trkpt lat="43.66091" lon="6.17261">
        <ele>614.7</ele>
        <time>2023-10-09T14:43:00Z</time>
      </trkpt>
      <trkpt lat="43.66091" lon="6.1726">
        <ele>614.6</ele>
        <time>2023-10-09T14:43:01Z</time>
      </trkpt>
      <trkpt lat="43.66091" lon="6.17258">
        <ele>614.6</ele>
        <time>2023-10-09T14:43:02Z</time>
      </trkpt>
      <trkpt lat="43.66092" lon="6.17257">
        <ele>614.6</ele>
        <time>2023-10-09T14:43:03Z</time>
      </trkpt>
      <trkpt lat="43.66092" lon="6.17255">
        <ele>614.5</ele>
        <time>2023-10-09T14:43:04Z</time>
      </trkpt>
      <trkpt lat="43.66092" lon="6.17254">
        <ele>614.5</ele>
        <time>2023-10-09T14:43:05Z</time>
      </trkpt>
      <trkpt lat="43.66092" lon="6.17252">
        <ele>614.4</ele>
        <time>2023-10-09T14:43:06Z</time>
      </trkpt>
      <trkpt lat="43.66092" lon="6.1725">
        <ele>614.3</ele>
        <time>2023-10-09T14:43:07Z</time>
      </trkpt>
      <trkpt lat="43.66092" lon="6.17248">
        <ele>614.3</ele>
        <time>2023-10-09T14:43:08Z</time>
      </trkpt>
      <trkpt lat="43.66093" lon="6.17246">
        <ele>614.2</ele>
        <time>2023-10-09T14:43:09Z</time>
      </trkpt>
      <trkpt lat="43.66093" lon="6.17244">
        <ele>614.2</ele>
        <time>2023-10-09T14:43:10Z</time>
      </trkpt>
      <trkpt lat="43.66094" lon="6.17241">
        <ele>614.1</ele>
        <time>2023-10-09T14:43:11Z</time>
      </trkpt>
      <trkpt lat="43.66094" lon="6.1724">
        <ele>614.1</ele>
        <time>2023-10-09T14:43:12Z</time>
      </trkpt>
      <trkpt lat="43.66094" lon="6.17239">
        <ele>614.1</ele>
        <time>2023-10-09T14:43:13Z</time>
      </trkpt>
      <trkpt lat="43.66095" lon="6.17237">
        <ele>614</ele>
        <time>2023-10-09T14:43:14Z</time>
      </trkpt>
      <trkpt lat="43.66095" lon="6.17236">
        <ele>614</ele>
        <time>2023-10-09T14:43:15Z</time>
      </trkpt>
      <trkpt lat="43.66095" lon="6.17235">
        <ele>614</ele>
        <time>2023-10-09T14:43:16Z</time>
      </trkpt>
      <trkpt lat="43.66096" lon="6.17234">
        <ele>613.9</ele>
        <time>2023-10-09T14:43:17Z</time>
      </trkpt>
      <trkpt lat="43.66096" lon="6.17232">
        <ele>613.9</ele>
        <time>2023-10-09T14:43:18Z</time>
      </trkpt>
      <trkpt lat="43.66097" lon="6.17231">
        <ele>613.8</ele>
        <time>2023-10-09T14:43:19Z</time>
      </trkpt>
      <trkpt lat="43.66098" lon="6.17229">
        <ele>613.7</ele>
        <time>2023-10-09T14:43:20Z</time>
      </trkpt>
      <trkpt lat="43.66098" lon="6.17228">
        <ele>613.7</ele>
        <time>2023-10-09T14:43:21Z</time>
      </trkpt>
      <trkpt lat="43.66099" lon="6.17227">
        <ele>613.6</ele>
        <time>2023-10-09T14:43:22Z</time>
      </trkpt>
      <trkpt lat="43.661" lon="6.17226">
        <ele>613.6</ele>
        <time>2023-10-09T14:43:23Z</time>
      </trkpt>
      <trkpt lat="43.661" lon="6.17225">
        <ele>613.5</ele>
        <time>2023-10-09T14:43:24Z</time>
      </trkpt>
      <trkpt lat="43.66101" lon="6.17223">
        <ele>613.4</ele>
        <time>2023-10-09T14:43:25Z</time>
      </trkpt>
      <trkpt lat="43.66101" lon="6.17221">
        <ele>613.4</ele>
        <time>2023-10-09T14:43:26Z</time>
      </trkpt>
      <trkpt lat="43.66102" lon="6.1722">
        <ele>613.4</ele>
        <time>2023-10-09T14:43:27Z</time>
      </trkpt>
      <trkpt lat="43.66103" lon="6.17218">
        <ele>613.3</ele>
        <time>2023-10-09T14:43:28Z</time>
      </trkpt>
      <trkpt lat="43.66104" lon="6.17217">
        <ele>613.3</ele>
        <time>2023-10-09T14:43:29Z</time>
      </trkpt>
      <trkpt lat="43.66105" lon="6.17215">
        <ele>613.3</ele>
        <time>2023-10-09T14:43:30Z</time>
      </trkpt>
      <trkpt lat="43.66106" lon="6.17214">
        <ele>613.2</ele>
        <time>2023-10-09T14:43:31Z</time>
      </trkpt>
      <trkpt lat="43.66106" lon="6.17212">
        <ele>613.3</ele>
        <time>2023-10-09T14:43:32Z</time>
      </trkpt>
      <trkpt lat="43.66107" lon="6.17211">
        <ele>613.2</ele>
        <time>2023-10-09T14:43:33Z</time>
      </trkpt>
      <trkpt lat="43.66108" lon="6.17209">
        <ele>613.2</ele>
        <time>2023-10-09T14:43:34Z</time>
      </trkpt>
      <trkpt lat="43.66109" lon="6.17208">
        <ele>613.1</ele>
        <time>2023-10-09T14:43:35Z</time>
      </trkpt>
      <trkpt lat="43.6611" lon="6.17206">
        <ele>613.1</ele>
        <time>2023-10-09T14:43:36Z</time>
      </trkpt>
      <trkpt lat="43.66111" lon="6.17205">
        <ele>613</ele>
        <time>2023-10-09T14:43:37Z</time>
      </trkpt>
      <trkpt lat="43.66112" lon="6.17202">
        <ele>613</ele>
        <time>2023-10-09T14:43:38Z</time>
      </trkpt>
      <trkpt lat="43.66112" lon="6.17201">
        <ele>613</ele>
        <time>2023-10-09T14:43:39Z</time>
      </trkpt>
      <trkpt lat="43.66113" lon="6.172">
        <ele>613.1</ele>
        <time>2023-10-09T14:43:40Z</time>
      </trkpt>
      <trkpt lat="43.66113" lon="6.17199">
        <ele>613.1</ele>
        <time>2023-10-09T14:43:41Z</time>
      </trkpt>
      <trkpt lat="43.66114" lon="6.17198">
        <ele>613.1</ele>
        <time>2023-10-09T14:43:42Z</time>
      </trkpt>
      <trkpt lat="43.66114" lon="6.17197">
        <ele>613.1</ele>
        <time>2023-10-09T14:43:43Z</time>
      </trkpt>
      <trkpt lat="43.66115" lon="6.17194">
        <ele>613.1</ele>
        <time>2023-10-09T14:43:44Z</time>
      </trkpt>
      <trkpt lat="43.66115" lon="6.17193">
        <ele>613.1</ele>
        <time>2023-10-09T14:43:45Z</time>
      </trkpt>
      <trkpt lat="43.66115" lon="6.17192">
        <ele>613.1</ele>
        <time>2023-10-09T14:43:46Z</time>
      </trkpt>
      <trkpt lat="43.66116" lon="6.1719">
        <ele>613.1</ele>
        <time>2023-10-09T14:43:47Z</time>
      </trkpt>
      <trkpt lat="43.66116" lon="6.17188">
        <ele>613.1</ele>
        <time>2023-10-09T14:43:48Z</time>
      </trkpt>
      <trkpt lat="43.66117" lon="6.17186">
        <ele>613.1</ele>
        <time>2023-10-09T14:43:49Z</time>
      </trkpt>
      <trkpt lat="43.66118" lon="6.17185">
        <ele>613.2</ele>
        <time>2023-10-09T14:43:50Z</time>
      </trkpt>
      <trkpt lat="43.66118" lon="6.17184">
        <ele>613.2</ele>
        <time>2023-10-09T14:43:51Z</time>
      </trkpt>
      <trkpt lat="43.66118" lon="6.17183">
        <ele>613.1</ele>
        <time>2023-10-09T14:43:52Z</time>
      </trkpt>
      <trkpt lat="43.66119" lon="6.17181">
        <ele>613.1</ele>
        <time>2023-10-09T14:43:53Z</time>
      </trkpt>
      <trkpt lat="43.66119" lon="6.1718">
        <ele>613.1</ele>
        <time>2023-10-09T14:43:54Z</time>
      </trkpt>
      <trkpt lat="43.66119" lon="6.17178">
        <ele>613.1</ele>
        <time>2023-10-09T14:43:55Z</time>
      </trkpt>
      <trkpt lat="43.6612" lon="6.17176">
        <ele>613.1</ele>
        <time>2023-10-09T14:43:56Z</time>
      </trkpt>
      <trkpt lat="43.6612" lon="6.17174">
        <ele>613.1</ele>
        <time>2023-10-09T14:43:57Z</time>
      </trkpt>
      <trkpt lat="43.66121" lon="6.17173">
        <ele>613.1</ele>
        <time>2023-10-09T14:43:58Z</time>
      </trkpt>
      <trkpt lat="43.66122" lon="6.1717">
        <ele>613</ele>
        <time>2023-10-09T14:43:59Z</time>
      </trkpt>
      <trkpt lat="43.66123" lon="6.17169">
        <ele>613</ele>
        <time>2023-10-09T14:44:00Z</time>
      </trkpt>
      <trkpt lat="43.66123" lon="6.17168">
        <ele>613</ele>
        <time>2023-10-09T14:44:01Z</time>
      </trkpt>
      <trkpt lat="43.66124" lon="6.17167">
        <ele>613</ele>
        <time>2023-10-09T14:44:02Z</time>
      </trkpt>
      <trkpt lat="43.66124" lon="6.17166">
        <ele>613</ele>
        <time>2023-10-09T14:44:03Z</time>
      </trkpt>
      <trkpt lat="43.66125" lon="6.17165">
        <ele>612.9</ele>
        <time>2023-10-09T14:44:04Z</time>
      </trkpt>
      <trkpt lat="43.66125" lon="6.17163">
        <ele>612.9</ele>
        <time>2023-10-09T14:44:05Z</time>
      </trkpt>
      <trkpt lat="43.66126" lon="6.17162">
        <ele>612.8</ele>
        <time>2023-10-09T14:44:06Z</time>
      </trkpt>
      <trkpt lat="43.66126" lon="6.1716">
        <ele>612.7</ele>
        <time>2023-10-09T14:44:07Z</time>
      </trkpt>
      <trkpt lat="43.66127" lon="6.17158">
        <ele>612.6</ele>
        <time>2023-10-09T14:44:08Z</time>
      </trkpt>
      <trkpt lat="43.66128" lon="6.17157">
        <ele>612.6</ele>
        <time>2023-10-09T14:44:09Z</time>
      </trkpt>
      <trkpt lat="43.66128" lon="6.17156">
        <ele>612.5</ele>
        <time>2023-10-09T14:44:10Z</time>
      </trkpt>
      <trkpt lat="43.66129" lon="6.17154">
        <ele>612.4</ele>
        <time>2023-10-09T14:44:11Z</time>
      </trkpt>
      <trkpt lat="43.66129" lon="6.17153">
        <ele>612.4</ele>
        <time>2023-10-09T14:44:12Z</time>
      </trkpt>
      <trkpt lat="43.6613" lon="6.17151">
        <ele>612.2</ele>
        <time>2023-10-09T14:44:13Z</time>
      </trkpt>
      <trkpt lat="43.6613" lon="6.17149">
        <ele>612.1</ele>
        <time>2023-10-09T14:44:14Z</time>
      </trkpt>
      <trkpt lat="43.66131" lon="6.17147">
        <ele>612</ele>
        <time>2023-10-09T14:44:15Z</time>
      </trkpt>
      <trkpt lat="43.66131" lon="6.17145">
        <ele>611.9</ele>
        <time>2023-10-09T14:44:16Z</time>
      </trkpt>
      <trkpt lat="43.66131" lon="6.17144">
        <ele>611.8</ele>
        <time>2023-10-09T14:44:17Z</time>
      </trkpt>
      <trkpt lat="43.66132" lon="6.17142">
        <ele>611.7</ele>
        <time>2023-10-09T14:44:18Z</time>
      </trkpt>
      <trkpt lat="43.66133" lon="6.17141">
        <ele>611.5</ele>
        <time>2023-10-09T14:44:19Z</time>
      </trkpt>
      <trkpt lat="43.66134" lon="6.1714">
        <ele>611.4</ele>
        <time>2023-10-09T14:44:20Z</time>
      </trkpt>
      <trkpt lat="43.66134" lon="6.17139">
        <ele>611.4</ele>
        <time>2023-10-09T14:44:21Z</time>
      </trkpt>
      <trkpt lat="43.66135" lon="6.17138">
        <ele>611.3</ele>
        <time>2023-10-09T14:44:22Z</time>
      </trkpt>
      <trkpt lat="43.66135" lon="6.17137">
        <ele>611.3</ele>
        <time>2023-10-09T14:44:23Z</time>
      </trkpt>
      <trkpt lat="43.66136" lon="6.17136">
        <ele>611.2</ele>
        <time>2023-10-09T14:44:24Z</time>
      </trkpt>
      <trkpt lat="43.66136" lon="6.17134">
        <ele>611.2</ele>
        <time>2023-10-09T14:44:25Z</time>
      </trkpt>
      <trkpt lat="43.66137" lon="6.17132">
        <ele>611.2</ele>
        <time>2023-10-09T14:44:26Z</time>
      </trkpt>
      <trkpt lat="43.66138" lon="6.1713">
        <ele>611.1</ele>
        <time>2023-10-09T14:44:27Z</time>
      </trkpt>
      <trkpt lat="43.66139" lon="6.17128">
        <ele>611</ele>
        <time>2023-10-09T14:44:28Z</time>
      </trkpt>
      <trkpt lat="43.66139" lon="6.17127">
        <ele>611</ele>
        <time>2023-10-09T14:44:29Z</time>
      </trkpt>
      <trkpt lat="43.6614" lon="6.17126">
        <ele>611.1</ele>
        <time>2023-10-09T14:44:30Z</time>
      </trkpt>
      <trkpt lat="43.6614" lon="6.17124">
        <ele>611.1</ele>
        <time>2023-10-09T14:44:31Z</time>
      </trkpt>
      <trkpt lat="43.66141" lon="6.17123">
        <ele>611.1</ele>
        <time>2023-10-09T14:44:32Z</time>
      </trkpt>
      <trkpt lat="43.66141" lon="6.17122">
        <ele>611.1</ele>
        <time>2023-10-09T14:44:33Z</time>
      </trkpt>
      <trkpt lat="43.66142" lon="6.17119">
        <ele>611.1</ele>
        <time>2023-10-09T14:44:34Z</time>
      </trkpt>
      <trkpt lat="43.66142" lon="6.17118">
        <ele>611.1</ele>
        <time>2023-10-09T14:44:35Z</time>
      </trkpt>
      <trkpt lat="43.66143" lon="6.17117">
        <ele>611.2</ele>
        <time>2023-10-09T14:44:36Z</time>
      </trkpt>
      <trkpt lat="43.66143" lon="6.17115">
        <ele>611.2</ele>
        <time>2023-10-09T14:44:37Z</time>
      </trkpt>
      <trkpt lat="43.66144" lon="6.17113">
        <ele>611.2</ele>
        <time>2023-10-09T14:44:38Z</time>
      </trkpt>
      <trkpt lat="43.66145" lon="6.17112">
        <ele>611.2</ele>
        <time>2023-10-09T14:44:39Z</time>
      </trkpt>
      <trkpt lat="43.66145" lon="6.17111">
        <ele>611.2</ele>
        <time>2023-10-09T14:44:40Z</time>
      </trkpt>
      <trkpt lat="43.66146" lon="6.17109">
        <ele>611.2</ele>
        <time>2023-10-09T14:44:41Z</time>
      </trkpt>
      <trkpt lat="43.66146" lon="6.17108">
        <ele>611.2</ele>
        <time>2023-10-09T14:44:42Z</time>
      </trkpt>
      <trkpt lat="43.66147" lon="6.17107">
        <ele>611.2</ele>
        <time>2023-10-09T14:44:43Z</time>
      </trkpt>
      <trkpt lat="43.66147" lon="6.17105">
        <ele>611.2</ele>
        <time>2023-10-09T14:44:44Z</time>
      </trkpt>
      <trkpt lat="43.66148" lon="6.17103">
        <ele>611.1</ele>
        <time>2023-10-09T14:44:45Z</time>
      </trkpt>
      <trkpt lat="43.66149" lon="6.17102">
        <ele>611.1</ele>
        <time>2023-10-09T14:44:46Z</time>
      </trkpt>
      <trkpt lat="43.66149" lon="6.17101">
        <ele>611.1</ele>
        <time>2023-10-09T14:44:47Z</time>
      </trkpt>
      <trkpt lat="43.6615" lon="6.171">
        <ele>611.1</ele>
        <time>2023-10-09T14:44:48Z</time>
      </trkpt>
      <trkpt lat="43.66151" lon="6.17099">
        <ele>611.1</ele>
        <time>2023-10-09T14:44:49Z</time>
      </trkpt>
      <trkpt lat="43.66151" lon="6.17097">
        <ele>611</ele>
        <time>2023-10-09T14:44:50Z</time>
      </trkpt>
      <trkpt lat="43.66152" lon="6.17095">
        <ele>610.9</ele>
        <time>2023-10-09T14:44:51Z</time>
      </trkpt>
      <trkpt lat="43.66152" lon="6.17094">
        <ele>610.9</ele>
        <time>2023-10-09T14:44:52Z</time>
      </trkpt>
      <trkpt lat="43.66152" lon="6.17093">
        <ele>610.9</ele>
        <time>2023-10-09T14:44:53Z</time>
      </trkpt>
      <trkpt lat="43.66153" lon="6.17091">
        <ele>610.8</ele>
        <time>2023-10-09T14:44:54Z</time>
      </trkpt>
      <trkpt lat="43.66154" lon="6.17089">
        <ele>610.7</ele>
        <time>2023-10-09T14:44:55Z</time>
      </trkpt>
      <trkpt lat="43.66155" lon="6.17087">
        <ele>610.6</ele>
        <time>2023-10-09T14:44:56Z</time>
      </trkpt>
      <trkpt lat="43.66155" lon="6.17086">
        <ele>610.5</ele>
        <time>2023-10-09T14:44:57Z</time>
      </trkpt>
      <trkpt lat="43.66156" lon="6.17085">
        <ele>610.5</ele>
        <time>2023-10-09T14:44:58Z</time>
      </trkpt>
      <trkpt lat="43.66156" lon="6.17082">
        <ele>610.4</ele>
        <time>2023-10-09T14:44:59Z</time>
      </trkpt>
      <trkpt lat="43.66157" lon="6.17081">
        <ele>610.3</ele>
        <time>2023-10-09T14:45:00Z</time>
      </trkpt>
      <trkpt lat="43.66157" lon="6.1708">
        <ele>610.3</ele>
        <time>2023-10-09T14:45:01Z</time>
      </trkpt>
      <trkpt lat="43.66158" lon="6.17078">
        <ele>610.2</ele>
        <time>2023-10-09T14:45:02Z</time>
      </trkpt>
      <trkpt lat="43.66158" lon="6.17076">
        <ele>610.2</ele>
        <time>2023-10-09T14:45:03Z</time>
      </trkpt>
      <trkpt lat="43.66159" lon="6.17073">
        <ele>610.1</ele>
        <time>2023-10-09T14:45:04Z</time>
      </trkpt>
      <trkpt lat="43.6616" lon="6.17072">
        <ele>610</ele>
        <time>2023-10-09T14:45:05Z</time>
      </trkpt>
      <trkpt lat="43.6616" lon="6.17071">
        <ele>610</ele>
        <time>2023-10-09T14:45:06Z</time>
      </trkpt>
      <trkpt lat="43.6616" lon="6.1707">
        <ele>610</ele>
        <time>2023-10-09T14:45:07Z</time>
      </trkpt>
      <trkpt lat="43.66161" lon="6.17069">
        <ele>609.9</ele>
        <time>2023-10-09T14:45:08Z</time>
      </trkpt>
      <trkpt lat="43.66161" lon="6.17067">
        <ele>609.9</ele>
        <time>2023-10-09T14:45:09Z</time>
      </trkpt>
      <trkpt lat="43.66161" lon="6.17066">
        <ele>609.8</ele>
        <time>2023-10-09T14:45:10Z</time>
      </trkpt>
      <trkpt lat="43.66162" lon="6.17065">
        <ele>609.7</ele>
        <time>2023-10-09T14:45:11Z</time>
      </trkpt>
      <trkpt lat="43.66162" lon="6.17064">
        <ele>609.7</ele>
        <time>2023-10-09T14:45:12Z</time>
      </trkpt>
      <trkpt lat="43.66163" lon="6.17062">
        <ele>609.6</ele>
        <time>2023-10-09T14:45:13Z</time>
      </trkpt>
      <trkpt lat="43.66163" lon="6.17061">
        <ele>609.5</ele>
        <time>2023-10-09T14:45:14Z</time>
      </trkpt>
      <trkpt lat="43.66164" lon="6.1706">
        <ele>609.4</ele>
        <time>2023-10-09T14:45:15Z</time>
      </trkpt>
      <trkpt lat="43.66164" lon="6.17058">
        <ele>609.4</ele>
        <time>2023-10-09T14:45:16Z</time>
      </trkpt>
      <trkpt lat="43.66165" lon="6.17057">
        <ele>609.2</ele>
        <time>2023-10-09T14:45:17Z</time>
      </trkpt>
      <trkpt lat="43.66165" lon="6.17055">
        <ele>609.2</ele>
        <time>2023-10-09T14:45:18Z</time>
      </trkpt>
      <trkpt lat="43.66166" lon="6.17053">
        <ele>609.2</ele>
        <time>2023-10-09T14:45:19Z</time>
      </trkpt>
      <trkpt lat="43.66166" lon="6.17052">
        <ele>609.2</ele>
        <time>2023-10-09T14:45:20Z</time>
      </trkpt>
      <trkpt lat="43.66167" lon="6.17051">
        <ele>609.2</ele>
        <time>2023-10-09T14:45:21Z</time>
      </trkpt>
      <trkpt lat="43.66168" lon="6.17048">
        <ele>609.3</ele>
        <time>2023-10-09T14:45:22Z</time>
      </trkpt>
      <trkpt lat="43.66168" lon="6.17047">
        <ele>609.4</ele>
        <time>2023-10-09T14:45:23Z</time>
      </trkpt>
      <trkpt lat="43.66169" lon="6.17046">
        <ele>609.4</ele>
        <time>2023-10-09T14:45:24Z</time>
      </trkpt>
      <trkpt lat="43.6617" lon="6.17044">
        <ele>609.5</ele>
        <time>2023-10-09T14:45:25Z</time>
      </trkpt>
      <trkpt lat="43.6617" lon="6.17043">
        <ele>609.5</ele>
        <time>2023-10-09T14:45:26Z</time>
      </trkpt>
      <trkpt lat="43.6617" lon="6.17042">
        <ele>609.6</ele>
        <time>2023-10-09T14:45:27Z</time>
      </trkpt>
      <trkpt lat="43.66171" lon="6.1704">
        <ele>609.6</ele>
        <time>2023-10-09T14:45:28Z</time>
      </trkpt>
      <trkpt lat="43.66171" lon="6.17038">
        <ele>609.6</ele>
        <time>2023-10-09T14:45:29Z</time>
      </trkpt>
      <trkpt lat="43.66172" lon="6.17037">
        <ele>609.7</ele>
        <time>2023-10-09T14:45:30Z</time>
      </trkpt>
      <trkpt lat="43.66172" lon="6.17035">
        <ele>609.7</ele>
        <time>2023-10-09T14:45:31Z</time>
      </trkpt>
      <trkpt lat="43.66173" lon="6.17033">
        <ele>609.7</ele>
        <time>2023-10-09T14:45:32Z</time>
      </trkpt>
      <trkpt lat="43.66174" lon="6.17032">
        <ele>609.7</ele>
        <time>2023-10-09T14:45:33Z</time>
      </trkpt>
      <trkpt lat="43.66174" lon="6.17031">
        <ele>609.7</ele>
        <time>2023-10-09T14:45:34Z</time>
      </trkpt>
      <trkpt lat="43.66175" lon="6.1703">
        <ele>609.7</ele>
        <time>2023-10-09T14:45:35Z</time>
      </trkpt>
      <trkpt lat="43.66175" lon="6.17029">
        <ele>609.7</ele>
        <time>2023-10-09T14:45:36Z</time>
      </trkpt>
      <trkpt lat="43.66175" lon="6.17027">
        <ele>609.7</ele>
        <time>2023-10-09T14:45:37Z</time>
      </trkpt>
      <trkpt lat="43.66176" lon="6.17026">
        <ele>609.6</ele>
        <time>2023-10-09T14:45:38Z</time>
      </trkpt>
      <trkpt lat="43.66176" lon="6.17024">
        <ele>609.6</ele>
        <time>2023-10-09T14:45:39Z</time>
      </trkpt>
      <trkpt lat="43.66177" lon="6.17021">
        <ele>609.5</ele>
        <time>2023-10-09T14:45:41Z</time>
      </trkpt>
      <trkpt lat="43.66178" lon="6.17018">
        <ele>609.4</ele>
        <time>2023-10-09T14:45:42Z</time>
      </trkpt>
      <trkpt lat="43.66178" lon="6.17017">
        <ele>609.4</ele>
        <time>2023-10-09T14:45:43Z</time>
      </trkpt>
      <trkpt lat="43.66178" lon="6.17016">
        <ele>609.4</ele>
        <time>2023-10-09T14:45:44Z</time>
      </trkpt>
      <trkpt lat="43.66178" lon="6.17014">
        <ele>609.4</ele>
        <time>2023-10-09T14:45:45Z</time>
      </trkpt>
      <trkpt lat="43.66179" lon="6.17012">
        <ele>609.3</ele>
        <time>2023-10-09T14:45:46Z</time>
      </trkpt>
      <trkpt lat="43.66179" lon="6.1701">
        <ele>609.3</ele>
        <time>2023-10-09T14:45:47Z</time>
      </trkpt>
      <trkpt lat="43.6618" lon="6.17009">
        <ele>609.2</ele>
        <time>2023-10-09T14:45:48Z</time>
      </trkpt>
      <trkpt lat="43.66181" lon="6.17007">
        <ele>609.1</ele>
        <time>2023-10-09T14:45:49Z</time>
      </trkpt>
      <trkpt lat="43.66181" lon="6.17006">
        <ele>609.1</ele>
        <time>2023-10-09T14:45:50Z</time>
      </trkpt>
      <trkpt lat="43.66182" lon="6.17005">
        <ele>609</ele>
        <time>2023-10-09T14:45:51Z</time>
      </trkpt>
      <trkpt lat="43.66182" lon="6.17004">
        <ele>609</ele>
        <time>2023-10-09T14:45:52Z</time>
      </trkpt>
      <trkpt lat="43.66182" lon="6.17003">
        <ele>609</ele>
        <time>2023-10-09T14:45:53Z</time>
      </trkpt>
      <trkpt lat="43.66183" lon="6.17001">
        <ele>608.8</ele>
        <time>2023-10-09T14:45:54Z</time>
      </trkpt>
      <trkpt lat="43.66183" lon="6.16998">
        <ele>608.8</ele>
        <time>2023-10-09T14:45:55Z</time>
      </trkpt>
      <trkpt lat="43.66184" lon="6.16997">
        <ele>608.7</ele>
        <time>2023-10-09T14:45:56Z</time>
      </trkpt>
      <trkpt lat="43.66184" lon="6.16996">
        <ele>608.7</ele>
        <time>2023-10-09T14:45:57Z</time>
      </trkpt>
      <trkpt lat="43.66185" lon="6.16994">
        <ele>608.5</ele>
        <time>2023-10-09T14:45:58Z</time>
      </trkpt>
      <trkpt lat="43.66185" lon="6.16992">
        <ele>608.5</ele>
        <time>2023-10-09T14:45:59Z</time>
      </trkpt>
      <trkpt lat="43.66185" lon="6.16991">
        <ele>608.5</ele>
        <time>2023-10-09T14:46:00Z</time>
      </trkpt>
      <trkpt lat="43.66186" lon="6.16988">
        <ele>608.3</ele>
        <time>2023-10-09T14:46:01Z</time>
      </trkpt>
      <trkpt lat="43.66186" lon="6.16987">
        <ele>608.3</ele>
        <time>2023-10-09T14:46:02Z</time>
      </trkpt>
      <trkpt lat="43.66186" lon="6.16986">
        <ele>608.3</ele>
        <time>2023-10-09T14:46:03Z</time>
      </trkpt>
      <trkpt lat="43.66186" lon="6.16984">
        <ele>608.2</ele>
        <time>2023-10-09T14:46:04Z</time>
      </trkpt>
      <trkpt lat="43.66186" lon="6.16982">
        <ele>608.2</ele>
        <time>2023-10-09T14:46:05Z</time>
      </trkpt>
      <trkpt lat="43.66186" lon="6.16981">
        <ele>608.1</ele>
        <time>2023-10-09T14:46:06Z</time>
      </trkpt>
      <trkpt lat="43.66186" lon="6.16978">
        <ele>608.1</ele>
        <time>2023-10-09T14:46:07Z</time>
      </trkpt>
      <trkpt lat="43.66186" lon="6.16977">
        <ele>608</ele>
        <time>2023-10-09T14:46:08Z</time>
      </trkpt>
      <trkpt lat="43.66186" lon="6.16976">
        <ele>608</ele>
        <time>2023-10-09T14:46:09Z</time>
      </trkpt>
      <trkpt lat="43.66186" lon="6.16974">
        <ele>608</ele>
        <time>2023-10-09T14:46:11Z</time>
      </trkpt>
      <trkpt lat="43.66187" lon="6.16973">
        <ele>607.8</ele>
        <time>2023-10-09T14:46:12Z</time>
      </trkpt>
      <trkpt lat="43.66187" lon="6.16971">
        <ele>607.8</ele>
        <time>2023-10-09T14:46:13Z</time>
      </trkpt>
      <trkpt lat="43.66187" lon="6.16969">
        <ele>607.9</ele>
        <time>2023-10-09T14:46:14Z</time>
      </trkpt>
      <trkpt lat="43.66187" lon="6.16967">
        <ele>607.9</ele>
        <time>2023-10-09T14:46:15Z</time>
      </trkpt>
      <trkpt lat="43.66187" lon="6.16966">
        <ele>608</ele>
        <time>2023-10-09T14:46:16Z</time>
      </trkpt>
      <trkpt lat="43.66188" lon="6.16964">
        <ele>607.9</ele>
        <time>2023-10-09T14:46:17Z</time>
      </trkpt>
      <trkpt lat="43.66188" lon="6.16962">
        <ele>608</ele>
        <time>2023-10-09T14:46:18Z</time>
      </trkpt>
      <trkpt lat="43.66188" lon="6.16961">
        <ele>608</ele>
        <time>2023-10-09T14:46:19Z</time>
      </trkpt>
      <trkpt lat="43.66188" lon="6.16959">
        <ele>608.1</ele>
        <time>2023-10-09T14:46:20Z</time>
      </trkpt>
      <trkpt lat="43.66188" lon="6.16958">
        <ele>608.1</ele>
        <time>2023-10-09T14:46:21Z</time>
      </trkpt>
      <trkpt lat="43.66189" lon="6.16955">
        <ele>608.1</ele>
        <time>2023-10-09T14:46:22Z</time>
      </trkpt>
      <trkpt lat="43.66189" lon="6.16954">
        <ele>608.1</ele>
        <time>2023-10-09T14:46:23Z</time>
      </trkpt>
      <trkpt lat="43.66189" lon="6.16953">
        <ele>608.1</ele>
        <time>2023-10-09T14:46:24Z</time>
      </trkpt>
      <trkpt lat="43.66189" lon="6.16951">
        <ele>608.2</ele>
        <time>2023-10-09T14:46:25Z</time>
      </trkpt>
      <trkpt lat="43.6619" lon="6.16949">
        <ele>608.2</ele>
        <time>2023-10-09T14:46:26Z</time>
      </trkpt>
      <trkpt lat="43.6619" lon="6.16947">
        <ele>608.2</ele>
        <time>2023-10-09T14:46:27Z</time>
      </trkpt>
      <trkpt lat="43.6619" lon="6.16946">
        <ele>608.3</ele>
        <time>2023-10-09T14:46:28Z</time>
      </trkpt>
      <trkpt lat="43.6619" lon="6.16945">
        <ele>608.3</ele>
        <time>2023-10-09T14:46:29Z</time>
      </trkpt>
      <trkpt lat="43.6619" lon="6.16943">
        <ele>608.3</ele>
        <time>2023-10-09T14:46:30Z</time>
      </trkpt>
      <trkpt lat="43.66191" lon="6.16942">
        <ele>608.2</ele>
        <time>2023-10-09T14:46:31Z</time>
      </trkpt>
      <trkpt lat="43.66191" lon="6.16941">
        <ele>608.2</ele>
        <time>2023-10-09T14:46:32Z</time>
      </trkpt>
      <trkpt lat="43.66191" lon="6.16938">
        <ele>608.2</ele>
        <time>2023-10-09T14:46:33Z</time>
      </trkpt>
      <trkpt lat="43.66191" lon="6.16937">
        <ele>608.2</ele>
        <time>2023-10-09T14:46:34Z</time>
      </trkpt>
      <trkpt lat="43.66191" lon="6.16936">
        <ele>608.2</ele>
        <time>2023-10-09T14:46:35Z</time>
      </trkpt>
      <trkpt lat="43.66191" lon="6.16934">
        <ele>608.2</ele>
        <time>2023-10-09T14:46:36Z</time>
      </trkpt>
      <trkpt lat="43.66191" lon="6.16932">
        <ele>608.2</ele>
        <time>2023-10-09T14:46:37Z</time>
      </trkpt>
      <trkpt lat="43.66191" lon="6.16929">
        <ele>608.2</ele>
        <time>2023-10-09T14:46:38Z</time>
      </trkpt>
      <trkpt lat="43.66191" lon="6.16927">
        <ele>608.2</ele>
        <time>2023-10-09T14:46:39Z</time>
      </trkpt>
      <trkpt lat="43.66191" lon="6.16926">
        <ele>608.2</ele>
        <time>2023-10-09T14:46:40Z</time>
      </trkpt>
      <trkpt lat="43.66191" lon="6.16924">
        <ele>608.2</ele>
        <time>2023-10-09T14:46:41Z</time>
      </trkpt>
      <trkpt lat="43.66191" lon="6.16922">
        <ele>608.2</ele>
        <time>2023-10-09T14:46:42Z</time>
      </trkpt>
      <trkpt lat="43.66191" lon="6.16921">
        <ele>608.2</ele>
        <time>2023-10-09T14:46:43Z</time>
      </trkpt>
      <trkpt lat="43.66191" lon="6.16918">
        <ele>608.2</ele>
        <time>2023-10-09T14:46:44Z</time>
      </trkpt>
      <trkpt lat="43.66191" lon="6.16917">
        <ele>608.2</ele>
        <time>2023-10-09T14:46:45Z</time>
      </trkpt>
      <trkpt lat="43.66191" lon="6.16916">
        <ele>608.2</ele>
        <time>2023-10-09T14:46:46Z</time>
      </trkpt>
      <trkpt lat="43.6619" lon="6.16914">
        <ele>608.2</ele>
        <time>2023-10-09T14:46:47Z</time>
      </trkpt>
      <trkpt lat="43.6619" lon="6.16913">
        <ele>608.2</ele>
        <time>2023-10-09T14:46:48Z</time>
      </trkpt>
      <trkpt lat="43.6619" lon="6.16911">
        <ele>608.1</ele>
        <time>2023-10-09T14:46:49Z</time>
      </trkpt>
      <trkpt lat="43.6619" lon="6.16909">
        <ele>608.1</ele>
        <time>2023-10-09T14:46:50Z</time>
      </trkpt>
      <trkpt lat="43.6619" lon="6.16908">
        <ele>608.1</ele>
        <time>2023-10-09T14:46:51Z</time>
      </trkpt>
      <trkpt lat="43.6619" lon="6.16906">
        <ele>608</ele>
        <time>2023-10-09T14:46:52Z</time>
      </trkpt>
      <trkpt lat="43.6619" lon="6.16903">
        <ele>607.9</ele>
        <time>2023-10-09T14:46:53Z</time>
      </trkpt>
      <trkpt lat="43.6619" lon="6.16902">
        <ele>607.9</ele>
        <time>2023-10-09T14:46:54Z</time>
      </trkpt>
      <trkpt lat="43.66189" lon="6.16901">
        <ele>607.9</ele>
        <time>2023-10-09T14:46:55Z</time>
      </trkpt>
      <trkpt lat="43.66189" lon="6.16898">
        <ele>607.9</ele>
        <time>2023-10-09T14:46:56Z</time>
      </trkpt>
      <trkpt lat="43.66189" lon="6.16897">
        <ele>607.8</ele>
        <time>2023-10-09T14:46:57Z</time>
      </trkpt>
      <trkpt lat="43.66189" lon="6.16896">
        <ele>607.8</ele>
        <time>2023-10-09T14:46:58Z</time>
      </trkpt>
      <trkpt lat="43.66189" lon="6.16895">
        <ele>607.8</ele>
        <time>2023-10-09T14:46:59Z</time>
      </trkpt>
      <trkpt lat="43.66189" lon="6.16893">
        <ele>607.7</ele>
        <time>2023-10-09T14:47:00Z</time>
      </trkpt>
      <trkpt lat="43.66189" lon="6.16892">
        <ele>607.7</ele>
        <time>2023-10-09T14:47:01Z</time>
      </trkpt>
      <trkpt lat="43.66189" lon="6.1689">
        <ele>607.6</ele>
        <time>2023-10-09T14:47:02Z</time>
      </trkpt>
      <trkpt lat="43.66188" lon="6.16889">
        <ele>607.7</ele>
        <time>2023-10-09T14:47:03Z</time>
      </trkpt>
      <trkpt lat="43.66188" lon="6.16887">
        <ele>607.7</ele>
        <time>2023-10-09T14:47:04Z</time>
      </trkpt>
      <trkpt lat="43.66188" lon="6.16886">
        <ele>607.7</ele>
        <time>2023-10-09T14:47:05Z</time>
      </trkpt>
      <trkpt lat="43.66188" lon="6.16883">
        <ele>607.7</ele>
        <time>2023-10-09T14:47:06Z</time>
      </trkpt>
      <trkpt lat="43.66187" lon="6.16881">
        <ele>607.8</ele>
        <time>2023-10-09T14:47:07Z</time>
      </trkpt>
      <trkpt lat="43.66187" lon="6.16879">
        <ele>607.8</ele>
        <time>2023-10-09T14:47:08Z</time>
      </trkpt>
      <trkpt lat="43.66187" lon="6.16877">
        <ele>607.8</ele>
        <time>2023-10-09T14:47:09Z</time>
      </trkpt>
      <trkpt lat="43.66187" lon="6.16875">
        <ele>607.8</ele>
        <time>2023-10-09T14:47:10Z</time>
      </trkpt>
      <trkpt lat="43.66187" lon="6.16874">
        <ele>607.8</ele>
        <time>2023-10-09T14:47:11Z</time>
      </trkpt>
      <trkpt lat="43.66187" lon="6.16872">
        <ele>607.8</ele>
        <time>2023-10-09T14:47:12Z</time>
      </trkpt>
      <trkpt lat="43.66187" lon="6.16871">
        <ele>607.8</ele>
        <time>2023-10-09T14:47:13Z</time>
      </trkpt>
      <trkpt lat="43.66186" lon="6.1687">
        <ele>607.9</ele>
        <time>2023-10-09T14:47:14Z</time>
      </trkpt>
      <trkpt lat="43.66186" lon="6.16869">
        <ele>607.9</ele>
        <time>2023-10-09T14:47:15Z</time>
      </trkpt>
      <trkpt lat="43.66186" lon="6.16867">
        <ele>607.9</ele>
        <time>2023-10-09T14:47:16Z</time>
      </trkpt>
      <trkpt lat="43.66186" lon="6.16865">
        <ele>607.9</ele>
        <time>2023-10-09T14:47:17Z</time>
      </trkpt>
      <trkpt lat="43.66186" lon="6.16862">
        <ele>607.9</ele>
        <time>2023-10-09T14:47:18Z</time>
      </trkpt>
      <trkpt lat="43.66186" lon="6.1686">
        <ele>607.9</ele>
        <time>2023-10-09T14:47:19Z</time>
      </trkpt>
      <trkpt lat="43.66186" lon="6.16857">
        <ele>607.9</ele>
        <time>2023-10-09T14:47:20Z</time>
      </trkpt>
      <trkpt lat="43.66186" lon="6.16856">
        <ele>607.9</ele>
        <time>2023-10-09T14:47:21Z</time>
      </trkpt>
      <trkpt lat="43.66186" lon="6.16855">
        <ele>607.9</ele>
        <time>2023-10-09T14:47:22Z</time>
      </trkpt>
      <trkpt lat="43.66186" lon="6.16854">
        <ele>607.9</ele>
        <time>2023-10-09T14:47:23Z</time>
      </trkpt>
      <trkpt lat="43.66186" lon="6.16853">
        <ele>607.9</ele>
        <time>2023-10-09T14:47:24Z</time>
      </trkpt>
      <trkpt lat="43.66186" lon="6.16851">
        <ele>607.9</ele>
        <time>2023-10-09T14:47:25Z</time>
      </trkpt>
      <trkpt lat="43.66186" lon="6.16849">
        <ele>607.9</ele>
        <time>2023-10-09T14:47:26Z</time>
      </trkpt>
      <trkpt lat="43.66186" lon="6.16847">
        <ele>607.9</ele>
        <time>2023-10-09T14:47:27Z</time>
      </trkpt>
      <trkpt lat="43.66186" lon="6.16846">
        <ele>607.9</ele>
        <time>2023-10-09T14:47:28Z</time>
      </trkpt>
      <trkpt lat="43.66186" lon="6.16844">
        <ele>607.9</ele>
        <time>2023-10-09T14:47:29Z</time>
      </trkpt>
      <trkpt lat="43.66186" lon="6.16842">
        <ele>607.9</ele>
        <time>2023-10-09T14:47:30Z</time>
      </trkpt>
      <trkpt lat="43.66185" lon="6.1684">
        <ele>608</ele>
        <time>2023-10-09T14:47:31Z</time>
      </trkpt>
      <trkpt lat="43.66185" lon="6.16838">
        <ele>608</ele>
        <time>2023-10-09T14:47:32Z</time>
      </trkpt>
      <trkpt lat="43.66185" lon="6.16836">
        <ele>608</ele>
        <time>2023-10-09T14:47:33Z</time>
      </trkpt>
      <trkpt lat="43.66185" lon="6.16834">
        <ele>608</ele>
        <time>2023-10-09T14:47:34Z</time>
      </trkpt>
      <trkpt lat="43.66186" lon="6.16833">
        <ele>607.9</ele>
        <time>2023-10-09T14:47:35Z</time>
      </trkpt>
      <trkpt lat="43.66186" lon="6.16831">
        <ele>607.9</ele>
        <time>2023-10-09T14:47:36Z</time>
      </trkpt>
      <trkpt lat="43.66186" lon="6.16828">
        <ele>607.9</ele>
        <time>2023-10-09T14:47:37Z</time>
      </trkpt>
      <trkpt lat="43.66186" lon="6.16827">
        <ele>607.9</ele>
        <time>2023-10-09T14:47:38Z</time>
      </trkpt>
      <trkpt lat="43.66186" lon="6.16826">
        <ele>607.9</ele>
        <time>2023-10-09T14:47:39Z</time>
      </trkpt>
      <trkpt lat="43.66186" lon="6.16824">
        <ele>607.9</ele>
        <time>2023-10-09T14:47:40Z</time>
      </trkpt>
      <trkpt lat="43.66186" lon="6.16822">
        <ele>607.9</ele>
        <time>2023-10-09T14:47:41Z</time>
      </trkpt>
      <trkpt lat="43.66186" lon="6.1682">
        <ele>607.9</ele>
        <time>2023-10-09T14:47:42Z</time>
      </trkpt>
      <trkpt lat="43.66186" lon="6.16818">
        <ele>607.9</ele>
        <time>2023-10-09T14:47:43Z</time>
      </trkpt>
      <trkpt lat="43.66187" lon="6.16815">
        <ele>607.8</ele>
        <time>2023-10-09T14:47:44Z</time>
      </trkpt>
      <trkpt lat="43.66187" lon="6.16814">
        <ele>607.8</ele>
        <time>2023-10-09T14:47:45Z</time>
      </trkpt>
      <trkpt lat="43.66187" lon="6.16813">
        <ele>607.8</ele>
        <time>2023-10-09T14:47:46Z</time>
      </trkpt>
      <trkpt lat="43.66187" lon="6.1681">
        <ele>607.8</ele>
        <time>2023-10-09T14:47:47Z</time>
      </trkpt>
      <trkpt lat="43.66187" lon="6.16808">
        <ele>607.8</ele>
        <time>2023-10-09T14:47:48Z</time>
      </trkpt>
      <trkpt lat="43.66187" lon="6.16807">
        <ele>607.8</ele>
        <time>2023-10-09T14:47:49Z</time>
      </trkpt>
      <trkpt lat="43.66187" lon="6.16805">
        <ele>607.8</ele>
        <time>2023-10-09T14:47:50Z</time>
      </trkpt>
      <trkpt lat="43.66187" lon="6.16803">
        <ele>607.8</ele>
        <time>2023-10-09T14:47:51Z</time>
      </trkpt>
      <trkpt lat="43.66187" lon="6.16801">
        <ele>607.8</ele>
        <time>2023-10-09T14:47:52Z</time>
      </trkpt>
      <trkpt lat="43.66188" lon="6.168">
        <ele>607.7</ele>
        <time>2023-10-09T14:47:53Z</time>
      </trkpt>
      <trkpt lat="43.66188" lon="6.16799">
        <ele>607.7</ele>
        <time>2023-10-09T14:47:54Z</time>
      </trkpt>
      <trkpt lat="43.66188" lon="6.16797">
        <ele>607.7</ele>
        <time>2023-10-09T14:47:55Z</time>
      </trkpt>
      <trkpt lat="43.66188" lon="6.16796">
        <ele>607.7</ele>
        <time>2023-10-09T14:47:56Z</time>
      </trkpt>
      <trkpt lat="43.66188" lon="6.16794">
        <ele>607.7</ele>
        <time>2023-10-09T14:47:57Z</time>
      </trkpt>
      <trkpt lat="43.66188" lon="6.16792">
        <ele>607.7</ele>
        <time>2023-10-09T14:47:58Z</time>
      </trkpt>
      <trkpt lat="43.66188" lon="6.16789">
        <ele>607.7</ele>
        <time>2023-10-09T14:47:59Z</time>
      </trkpt>
      <trkpt lat="43.66188" lon="6.16787">
        <ele>607.7</ele>
        <time>2023-10-09T14:48:00Z</time>
      </trkpt>
      <trkpt lat="43.66188" lon="6.16785">
        <ele>607.7</ele>
        <time>2023-10-09T14:48:01Z</time>
      </trkpt>
      <trkpt lat="43.66188" lon="6.16783">
        <ele>607.7</ele>
        <time>2023-10-09T14:48:02Z</time>
      </trkpt>
      <trkpt lat="43.66188" lon="6.16781">
        <ele>607.7</ele>
        <time>2023-10-09T14:48:03Z</time>
      </trkpt>
      <trkpt lat="43.66188" lon="6.1678">
        <ele>607.7</ele>
        <time>2023-10-09T14:48:04Z</time>
      </trkpt>
      <trkpt lat="43.66188" lon="6.16779">
        <ele>607.7</ele>
        <time>2023-10-09T14:48:05Z</time>
      </trkpt>
      <trkpt lat="43.66188" lon="6.16778">
        <ele>607.7</ele>
        <time>2023-10-09T14:48:06Z</time>
      </trkpt>
      <trkpt lat="43.66187" lon="6.16775">
        <ele>607.8</ele>
        <time>2023-10-09T14:48:07Z</time>
      </trkpt>
      <trkpt lat="43.66187" lon="6.16774">
        <ele>607.8</ele>
        <time>2023-10-09T14:48:08Z</time>
      </trkpt>
      <trkpt lat="43.66187" lon="6.16772">
        <ele>607.8</ele>
        <time>2023-10-09T14:48:09Z</time>
      </trkpt>
      <trkpt lat="43.66187" lon="6.1677">
        <ele>607.8</ele>
        <time>2023-10-09T14:48:10Z</time>
      </trkpt>
      <trkpt lat="43.66187" lon="6.16768">
        <ele>607.8</ele>
        <time>2023-10-09T14:48:11Z</time>
      </trkpt>
      <trkpt lat="43.66187" lon="6.16765">
        <ele>607.8</ele>
        <time>2023-10-09T14:48:12Z</time>
      </trkpt>
      <trkpt lat="43.66187" lon="6.16764">
        <ele>607.8</ele>
        <time>2023-10-09T14:48:13Z</time>
      </trkpt>
      <trkpt lat="43.66187" lon="6.16763">
        <ele>607.8</ele>
        <time>2023-10-09T14:48:14Z</time>
      </trkpt>
      <trkpt lat="43.66187" lon="6.16761">
        <ele>607.8</ele>
        <time>2023-10-09T14:48:15Z</time>
      </trkpt>
      <trkpt lat="43.66187" lon="6.1676">
        <ele>607.8</ele>
        <time>2023-10-09T14:48:16Z</time>
      </trkpt>
      <trkpt lat="43.66187" lon="6.16759">
        <ele>607.8</ele>
        <time>2023-10-09T14:48:17Z</time>
      </trkpt>
      <trkpt lat="43.66187" lon="6.16756">
        <ele>607.8</ele>
        <time>2023-10-09T14:48:18Z</time>
      </trkpt>
      <trkpt lat="43.66187" lon="6.16755">
        <ele>607.8</ele>
        <time>2023-10-09T14:48:19Z</time>
      </trkpt>
      <trkpt lat="43.66187" lon="6.16754">
        <ele>607.8</ele>
        <time>2023-10-09T14:48:20Z</time>
      </trkpt>
      <trkpt lat="43.66187" lon="6.16751">
        <ele>607.8</ele>
        <time>2023-10-09T14:48:21Z</time>
      </trkpt>
      <trkpt lat="43.66187" lon="6.1675">
        <ele>607.8</ele>
        <time>2023-10-09T14:48:22Z</time>
      </trkpt>
      <trkpt lat="43.66187" lon="6.16748">
        <ele>607.9</ele>
        <time>2023-10-09T14:48:23Z</time>
      </trkpt>
      <trkpt lat="43.66187" lon="6.16746">
        <ele>607.9</ele>
        <time>2023-10-09T14:48:24Z</time>
      </trkpt>
      <trkpt lat="43.66187" lon="6.16744">
        <ele>608</ele>
        <time>2023-10-09T14:48:25Z</time>
      </trkpt>
      <trkpt lat="43.66187" lon="6.16743">
        <ele>608.1</ele>
        <time>2023-10-09T14:48:26Z</time>
      </trkpt>
      <trkpt lat="43.66187" lon="6.16741">
        <ele>608.1</ele>
        <time>2023-10-09T14:48:27Z</time>
      </trkpt>
      <trkpt lat="43.66186" lon="6.16739">
        <ele>608.3</ele>
        <time>2023-10-09T14:48:28Z</time>
      </trkpt>
      <trkpt lat="43.66186" lon="6.16738">
        <ele>608.3</ele>
        <time>2023-10-09T14:48:29Z</time>
      </trkpt>
      <trkpt lat="43.66186" lon="6.16736">
        <ele>608.4</ele>
        <time>2023-10-09T14:48:30Z</time>
      </trkpt>
      <trkpt lat="43.66186" lon="6.16734">
        <ele>608.5</ele>
        <time>2023-10-09T14:48:31Z</time>
      </trkpt>
      <trkpt lat="43.66186" lon="6.16732">
        <ele>608.6</ele>
        <time>2023-10-09T14:48:32Z</time>
      </trkpt>
      <trkpt lat="43.66186" lon="6.16731">
        <ele>608.6</ele>
        <time>2023-10-09T14:48:33Z</time>
      </trkpt>
      <trkpt lat="43.66186" lon="6.1673">
        <ele>608.6</ele>
        <time>2023-10-09T14:48:34Z</time>
      </trkpt>
      <trkpt lat="43.66186" lon="6.16728">
        <ele>608.7</ele>
        <time>2023-10-09T14:48:35Z</time>
      </trkpt>
      <trkpt lat="43.66186" lon="6.16727">
        <ele>608.7</ele>
        <time>2023-10-09T14:48:36Z</time>
      </trkpt>
      <trkpt lat="43.66186" lon="6.16725">
        <ele>608.8</ele>
        <time>2023-10-09T14:48:37Z</time>
      </trkpt>
      <trkpt lat="43.66187" lon="6.16722">
        <ele>608.8</ele>
        <time>2023-10-09T14:48:38Z</time>
      </trkpt>
      <trkpt lat="43.66187" lon="6.16721">
        <ele>608.8</ele>
        <time>2023-10-09T14:48:39Z</time>
      </trkpt>
      <trkpt lat="43.66187" lon="6.16719">
        <ele>608.8</ele>
        <time>2023-10-09T14:48:40Z</time>
      </trkpt>
      <trkpt lat="43.66186" lon="6.16717">
        <ele>608.9</ele>
        <time>2023-10-09T14:48:41Z</time>
      </trkpt>
      <trkpt lat="43.66186" lon="6.16715">
        <ele>608.9</ele>
        <time>2023-10-09T14:48:42Z</time>
      </trkpt>
      <trkpt lat="43.66186" lon="6.16714">
        <ele>608.9</ele>
        <time>2023-10-09T14:48:43Z</time>
      </trkpt>
      <trkpt lat="43.66186" lon="6.16712">
        <ele>608.9</ele>
        <time>2023-10-09T14:48:44Z</time>
      </trkpt>
      <trkpt lat="43.66186" lon="6.16711">
        <ele>608.9</ele>
        <time>2023-10-09T14:48:45Z</time>
      </trkpt>
      <trkpt lat="43.66186" lon="6.16709">
        <ele>608.9</ele>
        <time>2023-10-09T14:48:46Z</time>
      </trkpt>
      <trkpt lat="43.66186" lon="6.16707">
        <ele>608.9</ele>
        <time>2023-10-09T14:48:47Z</time>
      </trkpt>
      <trkpt lat="43.66186" lon="6.16705">
        <ele>608.9</ele>
        <time>2023-10-09T14:48:48Z</time>
      </trkpt>
      <trkpt lat="43.66186" lon="6.16702">
        <ele>608.9</ele>
        <time>2023-10-09T14:48:49Z</time>
      </trkpt>
      <trkpt lat="43.66186" lon="6.16701">
        <ele>608.9</ele>
        <time>2023-10-09T14:48:50Z</time>
      </trkpt>
      <trkpt lat="43.66186" lon="6.167">
        <ele>608.9</ele>
        <time>2023-10-09T14:48:51Z</time>
      </trkpt>
      <trkpt lat="43.66186" lon="6.16698">
        <ele>608.9</ele>
        <time>2023-10-09T14:48:52Z</time>
      </trkpt>
      <trkpt lat="43.66185" lon="6.16697">
        <ele>609</ele>
        <time>2023-10-09T14:48:53Z</time>
      </trkpt>
      <trkpt lat="43.66185" lon="6.16696">
        <ele>609</ele>
        <time>2023-10-09T14:48:54Z</time>
      </trkpt>
      <trkpt lat="43.66185" lon="6.16693">
        <ele>609</ele>
        <time>2023-10-09T14:48:55Z</time>
      </trkpt>
      <trkpt lat="43.66185" lon="6.16692">
        <ele>609</ele>
        <time>2023-10-09T14:48:56Z</time>
      </trkpt>
      <trkpt lat="43.66185" lon="6.1669">
        <ele>609</ele>
        <time>2023-10-09T14:48:57Z</time>
      </trkpt>
      <trkpt lat="43.66185" lon="6.16687">
        <ele>609</ele>
        <time>2023-10-09T14:48:58Z</time>
      </trkpt>
      <trkpt lat="43.66185" lon="6.16686">
        <ele>609</ele>
        <time>2023-10-09T14:48:59Z</time>
      </trkpt>
      <trkpt lat="43.66185" lon="6.16685">
        <ele>609</ele>
        <time>2023-10-09T14:49:00Z</time>
      </trkpt>
      <trkpt lat="43.66185" lon="6.16684">
        <ele>609</ele>
        <time>2023-10-09T14:49:01Z</time>
      </trkpt>
      <trkpt lat="43.66185" lon="6.16683">
        <ele>609</ele>
        <time>2023-10-09T14:49:02Z</time>
      </trkpt>
      <trkpt lat="43.66185" lon="6.16681">
        <ele>609</ele>
        <time>2023-10-09T14:49:03Z</time>
      </trkpt>
      <trkpt lat="43.66184" lon="6.16679">
        <ele>609.1</ele>
        <time>2023-10-09T14:49:04Z</time>
      </trkpt>
      <trkpt lat="43.66184" lon="6.16677">
        <ele>609.1</ele>
        <time>2023-10-09T14:49:05Z</time>
      </trkpt>
      <trkpt lat="43.66184" lon="6.16676">
        <ele>609.1</ele>
        <time>2023-10-09T14:49:06Z</time>
      </trkpt>
      <trkpt lat="43.66184" lon="6.16674">
        <ele>609.1</ele>
        <time>2023-10-09T14:49:07Z</time>
      </trkpt>
      <trkpt lat="43.66184" lon="6.16672">
        <ele>609.1</ele>
        <time>2023-10-09T14:49:08Z</time>
      </trkpt>
      <trkpt lat="43.66183" lon="6.16671">
        <ele>609.2</ele>
        <time>2023-10-09T14:49:09Z</time>
      </trkpt>
      <trkpt lat="43.66184" lon="6.16669">
        <ele>609.1</ele>
        <time>2023-10-09T14:49:10Z</time>
      </trkpt>
      <trkpt lat="43.66184" lon="6.16668">
        <ele>609.1</ele>
        <time>2023-10-09T14:49:11Z</time>
      </trkpt>
      <trkpt lat="43.66183" lon="6.16667">
        <ele>609.2</ele>
        <time>2023-10-09T14:49:12Z</time>
      </trkpt>
      <trkpt lat="43.66183" lon="6.16666">
        <ele>609.2</ele>
        <time>2023-10-09T14:49:13Z</time>
      </trkpt>
      <trkpt lat="43.66182" lon="6.16665">
        <ele>609.3</ele>
        <time>2023-10-09T14:49:14Z</time>
      </trkpt>
      <trkpt lat="43.66181" lon="6.16662">
        <ele>609.4</ele>
        <time>2023-10-09T14:49:16Z</time>
      </trkpt>
      <trkpt lat="43.66181" lon="6.16661">
        <ele>609.4</ele>
        <time>2023-10-09T14:49:17Z</time>
      </trkpt>
      <trkpt lat="43.6618" lon="6.16659">
        <ele>609.4</ele>
        <time>2023-10-09T14:49:18Z</time>
      </trkpt>
      <trkpt lat="43.6618" lon="6.16657">
        <ele>609.4</ele>
        <time>2023-10-09T14:49:19Z</time>
      </trkpt>
      <trkpt lat="43.6618" lon="6.16654">
        <ele>609.3</ele>
        <time>2023-10-09T14:49:20Z</time>
      </trkpt>
      <trkpt lat="43.6618" lon="6.16653">
        <ele>609.3</ele>
        <time>2023-10-09T14:49:21Z</time>
      </trkpt>
      <trkpt lat="43.66179" lon="6.16651">
        <ele>609.4</ele>
        <time>2023-10-09T14:49:22Z</time>
      </trkpt>
      <trkpt lat="43.66179" lon="6.1665">
        <ele>609.3</ele>
        <time>2023-10-09T14:49:23Z</time>
      </trkpt>
      <trkpt lat="43.66178" lon="6.16648">
        <ele>609.4</ele>
        <time>2023-10-09T14:49:24Z</time>
      </trkpt>
      <trkpt lat="43.66178" lon="6.16646">
        <ele>609.3</ele>
        <time>2023-10-09T14:49:25Z</time>
      </trkpt>
      <trkpt lat="43.66177" lon="6.16645">
        <ele>609.4</ele>
        <time>2023-10-09T14:49:26Z</time>
      </trkpt>
      <trkpt lat="43.66177" lon="6.16643">
        <ele>609.3</ele>
        <time>2023-10-09T14:49:27Z</time>
      </trkpt>
      <trkpt lat="43.66177" lon="6.16641">
        <ele>609.3</ele>
        <time>2023-10-09T14:49:28Z</time>
      </trkpt>
      <trkpt lat="43.66177" lon="6.16639">
        <ele>609.3</ele>
        <time>2023-10-09T14:49:29Z</time>
      </trkpt>
      <trkpt lat="43.66177" lon="6.16637">
        <ele>609.2</ele>
        <time>2023-10-09T14:49:30Z</time>
      </trkpt>
      <trkpt lat="43.66177" lon="6.16636">
        <ele>609.2</ele>
        <time>2023-10-09T14:49:31Z</time>
      </trkpt>
      <trkpt lat="43.66176" lon="6.16635">
        <ele>609.3</ele>
        <time>2023-10-09T14:49:32Z</time>
      </trkpt>
      <trkpt lat="43.66176" lon="6.16633">
        <ele>609.3</ele>
        <time>2023-10-09T14:49:33Z</time>
      </trkpt>
      <trkpt lat="43.66175" lon="6.16631">
        <ele>609.3</ele>
        <time>2023-10-09T14:49:34Z</time>
      </trkpt>
      <trkpt lat="43.66174" lon="6.1663">
        <ele>609.4</ele>
        <time>2023-10-09T14:49:35Z</time>
      </trkpt>
      <trkpt lat="43.66174" lon="6.16629">
        <ele>609.4</ele>
        <time>2023-10-09T14:49:36Z</time>
      </trkpt>
      <trkpt lat="43.66173" lon="6.16627">
        <ele>609.4</ele>
        <time>2023-10-09T14:49:37Z</time>
      </trkpt>
      <trkpt lat="43.66173" lon="6.16625">
        <ele>609.4</ele>
        <time>2023-10-09T14:49:38Z</time>
      </trkpt>
      <trkpt lat="43.66172" lon="6.16623">
        <ele>609.5</ele>
        <time>2023-10-09T14:49:39Z</time>
      </trkpt>
      <trkpt lat="43.66172" lon="6.16622">
        <ele>609.5</ele>
        <time>2023-10-09T14:49:40Z</time>
      </trkpt>
      <trkpt lat="43.66171" lon="6.16621">
        <ele>609.6</ele>
        <time>2023-10-09T14:49:41Z</time>
      </trkpt>
      <trkpt lat="43.6617" lon="6.16619">
        <ele>609.7</ele>
        <time>2023-10-09T14:49:42Z</time>
      </trkpt>
      <trkpt lat="43.66169" lon="6.16618">
        <ele>609.8</ele>
        <time>2023-10-09T14:49:43Z</time>
      </trkpt>
      <trkpt lat="43.66169" lon="6.16617">
        <ele>609.8</ele>
        <time>2023-10-09T14:49:44Z</time>
      </trkpt>
      <trkpt lat="43.66168" lon="6.16615">
        <ele>609.9</ele>
        <time>2023-10-09T14:49:45Z</time>
      </trkpt>
      <trkpt lat="43.66167" lon="6.16613">
        <ele>610</ele>
        <time>2023-10-09T14:49:46Z</time>
      </trkpt>
      <trkpt lat="43.66167" lon="6.16611">
        <ele>610</ele>
        <time>2023-10-09T14:49:47Z</time>
      </trkpt>
      <trkpt lat="43.66166" lon="6.1661">
        <ele>610</ele>
        <time>2023-10-09T14:49:48Z</time>
      </trkpt>
      <trkpt lat="43.66165" lon="6.16608">
        <ele>610</ele>
        <time>2023-10-09T14:49:49Z</time>
      </trkpt>
      <trkpt lat="43.66165" lon="6.16607">
        <ele>610</ele>
        <time>2023-10-09T14:49:50Z</time>
      </trkpt>
      <trkpt lat="43.66164" lon="6.16606">
        <ele>610</ele>
        <time>2023-10-09T14:49:51Z</time>
      </trkpt>
      <trkpt lat="43.66164" lon="6.16605">
        <ele>610</ele>
        <time>2023-10-09T14:49:52Z</time>
      </trkpt>
      <trkpt lat="43.66163" lon="6.16603">
        <ele>609.9</ele>
        <time>2023-10-09T14:49:53Z</time>
      </trkpt>
      <trkpt lat="43.66162" lon="6.16602">
        <ele>610</ele>
        <time>2023-10-09T14:49:54Z</time>
      </trkpt>
      <trkpt lat="43.66162" lon="6.16599">
        <ele>609.8</ele>
        <time>2023-10-09T14:49:55Z</time>
      </trkpt>
      <trkpt lat="43.66161" lon="6.16598">
        <ele>609.8</ele>
        <time>2023-10-09T14:49:56Z</time>
      </trkpt>
      <trkpt lat="43.66161" lon="6.16597">
        <ele>609.8</ele>
        <time>2023-10-09T14:49:57Z</time>
      </trkpt>
      <trkpt lat="43.6616" lon="6.16596">
        <ele>609.8</ele>
        <time>2023-10-09T14:49:58Z</time>
      </trkpt>
      <trkpt lat="43.6616" lon="6.16595">
        <ele>609.8</ele>
        <time>2023-10-09T14:49:59Z</time>
      </trkpt>
      <trkpt lat="43.66159" lon="6.16594">
        <ele>609.8</ele>
        <time>2023-10-09T14:50:00Z</time>
      </trkpt>
      <trkpt lat="43.66159" lon="6.16593">
        <ele>609.7</ele>
        <time>2023-10-09T14:50:01Z</time>
      </trkpt>
      <trkpt lat="43.66157" lon="6.16591">
        <ele>609.7</ele>
        <time>2023-10-09T14:50:02Z</time>
      </trkpt>
      <trkpt lat="43.66157" lon="6.1659">
        <ele>609.7</ele>
        <time>2023-10-09T14:50:03Z</time>
      </trkpt>
      <trkpt lat="43.66156" lon="6.16589">
        <ele>609.7</ele>
        <time>2023-10-09T14:50:04Z</time>
      </trkpt>
      <trkpt lat="43.66155" lon="6.16587">
        <ele>609.6</ele>
        <time>2023-10-09T14:50:05Z</time>
      </trkpt>
      <trkpt lat="43.66154" lon="6.16586">
        <ele>609.6</ele>
        <time>2023-10-09T14:50:06Z</time>
      </trkpt>
      <trkpt lat="43.66153" lon="6.16584">
        <ele>609.5</ele>
        <time>2023-10-09T14:50:07Z</time>
      </trkpt>
      <trkpt lat="43.66153" lon="6.16583">
        <ele>609.5</ele>
        <time>2023-10-09T14:50:08Z</time>
      </trkpt>
      <trkpt lat="43.66152" lon="6.16582">
        <ele>609.5</ele>
        <time>2023-10-09T14:50:09Z</time>
      </trkpt>
      <trkpt lat="43.66151" lon="6.16581">
        <ele>609.5</ele>
        <time>2023-10-09T14:50:10Z</time>
      </trkpt>
      <trkpt lat="43.66151" lon="6.1658">
        <ele>609.5</ele>
        <time>2023-10-09T14:50:11Z</time>
      </trkpt>
      <trkpt lat="43.6615" lon="6.16578">
        <ele>609.4</ele>
        <time>2023-10-09T14:50:12Z</time>
      </trkpt>
      <trkpt lat="43.66148" lon="6.16577">
        <ele>609.5</ele>
        <time>2023-10-09T14:50:13Z</time>
      </trkpt>
      <trkpt lat="43.66148" lon="6.16575">
        <ele>609.5</ele>
        <time>2023-10-09T14:50:14Z</time>
      </trkpt>
      <trkpt lat="43.66147" lon="6.16574">
        <ele>609.5</ele>
        <time>2023-10-09T14:50:15Z</time>
      </trkpt>
      <trkpt lat="43.66146" lon="6.16572">
        <ele>609.5</ele>
        <time>2023-10-09T14:50:16Z</time>
      </trkpt>
      <trkpt lat="43.66145" lon="6.16571">
        <ele>609.6</ele>
        <time>2023-10-09T14:50:17Z</time>
      </trkpt>
      <trkpt lat="43.66144" lon="6.1657">
        <ele>609.6</ele>
        <time>2023-10-09T14:50:18Z</time>
      </trkpt>
      <trkpt lat="43.66143" lon="6.16569">
        <ele>609.7</ele>
        <time>2023-10-09T14:50:19Z</time>
      </trkpt>
      <trkpt lat="43.66142" lon="6.16567">
        <ele>609.8</ele>
        <time>2023-10-09T14:50:20Z</time>
      </trkpt>
      <trkpt lat="43.66141" lon="6.16566">
        <ele>609.8</ele>
        <time>2023-10-09T14:50:21Z</time>
      </trkpt>
      <trkpt lat="43.66141" lon="6.16565">
        <ele>609.8</ele>
        <time>2023-10-09T14:50:22Z</time>
      </trkpt>
      <trkpt lat="43.6614" lon="6.16563">
        <ele>609.9</ele>
        <time>2023-10-09T14:50:23Z</time>
      </trkpt>
      <trkpt lat="43.66139" lon="6.16562">
        <ele>610</ele>
        <time>2023-10-09T14:50:24Z</time>
      </trkpt>
      <trkpt lat="43.66139" lon="6.16561">
        <ele>610</ele>
        <time>2023-10-09T14:50:25Z</time>
      </trkpt>
      <trkpt lat="43.66138" lon="6.1656">
        <ele>610</ele>
        <time>2023-10-09T14:50:26Z</time>
      </trkpt>
      <trkpt lat="43.66137" lon="6.16559">
        <ele>610.1</ele>
        <time>2023-10-09T14:50:27Z</time>
      </trkpt>
      <trkpt lat="43.66137" lon="6.16558">
        <ele>610.1</ele>
        <time>2023-10-09T14:50:28Z</time>
      </trkpt>
      <trkpt lat="43.66136" lon="6.16557">
        <ele>610.1</ele>
        <time>2023-10-09T14:50:29Z</time>
      </trkpt>
      <trkpt lat="43.66136" lon="6.16555">
        <ele>610.1</ele>
        <time>2023-10-09T14:50:30Z</time>
      </trkpt>
      <trkpt lat="43.66135" lon="6.16554">
        <ele>610.1</ele>
        <time>2023-10-09T14:50:31Z</time>
      </trkpt>
      <trkpt lat="43.66135" lon="6.16552">
        <ele>610</ele>
        <time>2023-10-09T14:50:32Z</time>
      </trkpt>
      <trkpt lat="43.66134" lon="6.1655">
        <ele>610</ele>
        <time>2023-10-09T14:50:33Z</time>
      </trkpt>
      <trkpt lat="43.66133" lon="6.16549">
        <ele>610</ele>
        <time>2023-10-09T14:50:34Z</time>
      </trkpt>
      <trkpt lat="43.66133" lon="6.16547">
        <ele>609.9</ele>
        <time>2023-10-09T14:50:35Z</time>
      </trkpt>
      <trkpt lat="43.66132" lon="6.16546">
        <ele>609.9</ele>
        <time>2023-10-09T14:50:36Z</time>
      </trkpt>
      <trkpt lat="43.66131" lon="6.16545">
        <ele>609.9</ele>
        <time>2023-10-09T14:50:37Z</time>
      </trkpt>
      <trkpt lat="43.66131" lon="6.16544">
        <ele>609.9</ele>
        <time>2023-10-09T14:50:38Z</time>
      </trkpt>
      <trkpt lat="43.6613" lon="6.16542">
        <ele>609.8</ele>
        <time>2023-10-09T14:50:39Z</time>
      </trkpt>
      <trkpt lat="43.66129" lon="6.1654">
        <ele>609.8</ele>
        <time>2023-10-09T14:50:40Z</time>
      </trkpt>
      <trkpt lat="43.66129" lon="6.16539">
        <ele>609.8</ele>
        <time>2023-10-09T14:50:41Z</time>
      </trkpt>
      <trkpt lat="43.66128" lon="6.16538">
        <ele>609.8</ele>
        <time>2023-10-09T14:50:42Z</time>
      </trkpt>
      <trkpt lat="43.66128" lon="6.16537">
        <ele>609.7</ele>
        <time>2023-10-09T14:50:43Z</time>
      </trkpt>
      <trkpt lat="43.66127" lon="6.16536">
        <ele>609.7</ele>
        <time>2023-10-09T14:50:44Z</time>
      </trkpt>
      <trkpt lat="43.66127" lon="6.16535">
        <ele>609.7</ele>
        <time>2023-10-09T14:50:45Z</time>
      </trkpt>
      <trkpt lat="43.66126" lon="6.16534">
        <ele>609.7</ele>
        <time>2023-10-09T14:50:46Z</time>
      </trkpt>
      <trkpt lat="43.66126" lon="6.16532">
        <ele>609.6</ele>
        <time>2023-10-09T14:50:47Z</time>
      </trkpt>
      <trkpt lat="43.66126" lon="6.16531">
        <ele>609.6</ele>
        <time>2023-10-09T14:50:48Z</time>
      </trkpt>
      <trkpt lat="43.66125" lon="6.16529">
        <ele>609.5</ele>
        <time>2023-10-09T14:50:49Z</time>
      </trkpt>
      <trkpt lat="43.66125" lon="6.16527">
        <ele>609.5</ele>
        <time>2023-10-09T14:50:50Z</time>
      </trkpt>
      <trkpt lat="43.66124" lon="6.16525">
        <ele>609.4</ele>
        <time>2023-10-09T14:50:51Z</time>
      </trkpt>
      <trkpt lat="43.66124" lon="6.16523">
        <ele>609.3</ele>
        <time>2023-10-09T14:50:52Z</time>
      </trkpt>
      <trkpt lat="43.66123" lon="6.16521">
        <ele>609.2</ele>
        <time>2023-10-09T14:50:53Z</time>
      </trkpt>
      <trkpt lat="43.66123" lon="6.1652">
        <ele>609.2</ele>
        <time>2023-10-09T14:50:54Z</time>
      </trkpt>
      <trkpt lat="43.66123" lon="6.16518">
        <ele>609.1</ele>
        <time>2023-10-09T14:50:55Z</time>
      </trkpt>
      <trkpt lat="43.66123" lon="6.16517">
        <ele>609</ele>
        <time>2023-10-09T14:50:56Z</time>
      </trkpt>
      <trkpt lat="43.66123" lon="6.16516">
        <ele>609</ele>
        <time>2023-10-09T14:50:57Z</time>
      </trkpt>
      <trkpt lat="43.66122" lon="6.16514">
        <ele>608.9</ele>
        <time>2023-10-09T14:50:58Z</time>
      </trkpt>
      <trkpt lat="43.66122" lon="6.16512">
        <ele>608.8</ele>
        <time>2023-10-09T14:50:59Z</time>
      </trkpt>
      <trkpt lat="43.66121" lon="6.1651">
        <ele>608.8</ele>
        <time>2023-10-09T14:51:00Z</time>
      </trkpt>
      <trkpt lat="43.66121" lon="6.16509">
        <ele>608.7</ele>
        <time>2023-10-09T14:51:01Z</time>
      </trkpt>
      <trkpt lat="43.66121" lon="6.16507">
        <ele>608.6</ele>
        <time>2023-10-09T14:51:02Z</time>
      </trkpt>
      <trkpt lat="43.6612" lon="6.16506">
        <ele>608.6</ele>
        <time>2023-10-09T14:51:03Z</time>
      </trkpt>
      <trkpt lat="43.66119" lon="6.16503">
        <ele>608.6</ele>
        <time>2023-10-09T14:51:04Z</time>
      </trkpt>
      <trkpt lat="43.66119" lon="6.16502">
        <ele>608.5</ele>
        <time>2023-10-09T14:51:05Z</time>
      </trkpt>
      <trkpt lat="43.66119" lon="6.16501">
        <ele>608.5</ele>
        <time>2023-10-09T14:51:06Z</time>
      </trkpt>
      <trkpt lat="43.66119" lon="6.165">
        <ele>608.4</ele>
        <time>2023-10-09T14:51:07Z</time>
      </trkpt>
      <trkpt lat="43.66118" lon="6.16498">
        <ele>608.4</ele>
        <time>2023-10-09T14:51:08Z</time>
      </trkpt>
      <trkpt lat="43.66118" lon="6.16497">
        <ele>608.3</ele>
        <time>2023-10-09T14:51:09Z</time>
      </trkpt>
      <trkpt lat="43.66117" lon="6.16495">
        <ele>608.3</ele>
        <time>2023-10-09T14:51:10Z</time>
      </trkpt>
      <trkpt lat="43.66117" lon="6.16493">
        <ele>608.1</ele>
        <time>2023-10-09T14:51:11Z</time>
      </trkpt>
      <trkpt lat="43.66117" lon="6.1649">
        <ele>607.9</ele>
        <time>2023-10-09T14:51:12Z</time>
      </trkpt>
      <trkpt lat="43.66116" lon="6.16489">
        <ele>607.9</ele>
        <time>2023-10-09T14:51:13Z</time>
      </trkpt>
      <trkpt lat="43.66116" lon="6.16487">
        <ele>607.8</ele>
        <time>2023-10-09T14:51:14Z</time>
      </trkpt>
      <trkpt lat="43.66116" lon="6.16486">
        <ele>607.7</ele>
        <time>2023-10-09T14:51:15Z</time>
      </trkpt>
      <trkpt lat="43.66115" lon="6.16484">
        <ele>607.6</ele>
        <time>2023-10-09T14:51:16Z</time>
      </trkpt>
      <trkpt lat="43.66115" lon="6.16481">
        <ele>607.4</ele>
        <time>2023-10-09T14:51:17Z</time>
      </trkpt>
      <trkpt lat="43.66115" lon="6.1648">
        <ele>607.4</ele>
        <time>2023-10-09T14:51:18Z</time>
      </trkpt>
      <trkpt lat="43.66115" lon="6.16478">
        <ele>607.2</ele>
        <time>2023-10-09T14:51:19Z</time>
      </trkpt>
      <trkpt lat="43.66115" lon="6.16477">
        <ele>607.2</ele>
        <time>2023-10-09T14:51:20Z</time>
      </trkpt>
      <trkpt lat="43.66115" lon="6.16475">
        <ele>607</ele>
        <time>2023-10-09T14:51:21Z</time>
      </trkpt>
      <trkpt lat="43.66115" lon="6.16474">
        <ele>607</ele>
        <time>2023-10-09T14:51:22Z</time>
      </trkpt>
      <trkpt lat="43.66114" lon="6.16471">
        <ele>606.8</ele>
        <time>2023-10-09T14:51:23Z</time>
      </trkpt>
      <trkpt lat="43.66114" lon="6.1647">
        <ele>606.8</ele>
        <time>2023-10-09T14:51:24Z</time>
      </trkpt>
      <trkpt lat="43.66114" lon="6.16469">
        <ele>606.8</ele>
        <time>2023-10-09T14:51:25Z</time>
      </trkpt>
      <trkpt lat="43.66114" lon="6.16468">
        <ele>606.7</ele>
        <time>2023-10-09T14:51:26Z</time>
      </trkpt>
      <trkpt lat="43.66114" lon="6.16466">
        <ele>606.6</ele>
        <time>2023-10-09T14:51:27Z</time>
      </trkpt>
      <trkpt lat="43.66114" lon="6.16465">
        <ele>606.6</ele>
        <time>2023-10-09T14:51:28Z</time>
      </trkpt>
      <trkpt lat="43.66113" lon="6.16463">
        <ele>606.6</ele>
        <time>2023-10-09T14:51:29Z</time>
      </trkpt>
      <trkpt lat="43.66113" lon="6.16462">
        <ele>606.5</ele>
        <time>2023-10-09T14:51:30Z</time>
      </trkpt>
      <trkpt lat="43.66113" lon="6.16461">
        <ele>606.5</ele>
        <time>2023-10-09T14:51:31Z</time>
      </trkpt>
      <trkpt lat="43.66112" lon="6.16458">
        <ele>606.4</ele>
        <time>2023-10-09T14:51:32Z</time>
      </trkpt>
      <trkpt lat="43.66112" lon="6.16457">
        <ele>606.4</ele>
        <time>2023-10-09T14:51:33Z</time>
      </trkpt>
      <trkpt lat="43.66111" lon="6.16456">
        <ele>606.4</ele>
        <time>2023-10-09T14:51:34Z</time>
      </trkpt>
      <trkpt lat="43.66111" lon="6.16454">
        <ele>606.3</ele>
        <time>2023-10-09T14:51:35Z</time>
      </trkpt>
      <trkpt lat="43.66111" lon="6.16452">
        <ele>606.3</ele>
        <time>2023-10-09T14:51:36Z</time>
      </trkpt>
      <trkpt lat="43.66111" lon="6.1645">
        <ele>606.2</ele>
        <time>2023-10-09T14:51:37Z</time>
      </trkpt>
      <trkpt lat="43.66111" lon="6.16448">
        <ele>606.1</ele>
        <time>2023-10-09T14:51:38Z</time>
      </trkpt>
      <trkpt lat="43.6611" lon="6.16447">
        <ele>606.1</ele>
        <time>2023-10-09T14:51:39Z</time>
      </trkpt>
      <trkpt lat="43.6611" lon="6.16446">
        <ele>606.1</ele>
        <time>2023-10-09T14:51:40Z</time>
      </trkpt>
      <trkpt lat="43.6611" lon="6.16445">
        <ele>606</ele>
        <time>2023-10-09T14:51:41Z</time>
      </trkpt>
      <trkpt lat="43.66109" lon="6.16443">
        <ele>605.9</ele>
        <time>2023-10-09T14:51:42Z</time>
      </trkpt>
      <trkpt lat="43.66109" lon="6.16441">
        <ele>605.8</ele>
        <time>2023-10-09T14:51:43Z</time>
      </trkpt>
      <trkpt lat="43.66108" lon="6.16439">
        <ele>605.6</ele>
        <time>2023-10-09T14:51:44Z</time>
      </trkpt>
      <trkpt lat="43.66108" lon="6.16438">
        <ele>605.5</ele>
        <time>2023-10-09T14:51:45Z</time>
      </trkpt>
      <trkpt lat="43.66108" lon="6.16437">
        <ele>605.5</ele>
        <time>2023-10-09T14:51:46Z</time>
      </trkpt>
      <trkpt lat="43.66107" lon="6.16435">
        <ele>605.3</ele>
        <time>2023-10-09T14:51:47Z</time>
      </trkpt>
      <trkpt lat="43.66107" lon="6.16433">
        <ele>605.2</ele>
        <time>2023-10-09T14:51:48Z</time>
      </trkpt>
      <trkpt lat="43.66107" lon="6.16432">
        <ele>605.1</ele>
        <time>2023-10-09T14:51:49Z</time>
      </trkpt>
      <trkpt lat="43.66106" lon="6.1643">
        <ele>605</ele>
        <time>2023-10-09T14:51:50Z</time>
      </trkpt>
      <trkpt lat="43.66106" lon="6.16428">
        <ele>604.8</ele>
        <time>2023-10-09T14:51:51Z</time>
      </trkpt>
      <trkpt lat="43.66106" lon="6.16426">
        <ele>604.7</ele>
        <time>2023-10-09T14:51:52Z</time>
      </trkpt>
      <trkpt lat="43.66105" lon="6.16424">
        <ele>604.5</ele>
        <time>2023-10-09T14:51:53Z</time>
      </trkpt>
      <trkpt lat="43.66105" lon="6.16423">
        <ele>604.5</ele>
        <time>2023-10-09T14:51:54Z</time>
      </trkpt>
      <trkpt lat="43.66105" lon="6.16422">
        <ele>604.4</ele>
        <time>2023-10-09T14:51:55Z</time>
      </trkpt>
      <trkpt lat="43.66104" lon="6.16421">
        <ele>604.3</ele>
        <time>2023-10-09T14:51:56Z</time>
      </trkpt>
      <trkpt lat="43.66104" lon="6.16419">
        <ele>604.2</ele>
        <time>2023-10-09T14:51:57Z</time>
      </trkpt>
      <trkpt lat="43.66103" lon="6.16418">
        <ele>604.1</ele>
        <time>2023-10-09T14:51:58Z</time>
      </trkpt>
      <trkpt lat="43.66102" lon="6.16417">
        <ele>604</ele>
        <time>2023-10-09T14:51:59Z</time>
      </trkpt>
      <trkpt lat="43.66101" lon="6.16417">
        <ele>604</ele>
        <time>2023-10-09T14:52:00Z</time>
      </trkpt>
      <trkpt lat="43.66101" lon="6.16416">
        <ele>604</ele>
        <time>2023-10-09T14:52:01Z</time>
      </trkpt>
      <trkpt lat="43.661" lon="6.16416">
        <ele>604</ele>
        <time>2023-10-09T14:52:02Z</time>
      </trkpt>
      <trkpt lat="43.661" lon="6.16416">
        <ele>604</ele>
        <time>2023-10-09T14:52:03Z</time>
      </trkpt>
      <trkpt lat="43.66099" lon="6.16415">
        <ele>603.9</ele>
        <time>2023-10-09T14:52:04Z</time>
      </trkpt>
      <trkpt lat="43.66099" lon="6.16414">
        <ele>603.9</ele>
        <time>2023-10-09T14:52:05Z</time>
      </trkpt>
      <trkpt lat="43.66099" lon="6.16415">
        <ele>603.9</ele>
        <time>2023-10-09T14:52:06Z</time>
      </trkpt>
      <trkpt lat="43.66099" lon="6.16414">
        <ele>603.9</ele>
        <time>2023-10-09T14:52:07Z</time>
      </trkpt>
      <trkpt lat="43.66099" lon="6.16414">
        <ele>603.9</ele>
        <time>2023-10-09T14:52:08Z</time>
      </trkpt>
      <trkpt lat="43.66099" lon="6.16414">
        <ele>603.9</ele>
        <time>2023-10-09T14:52:09Z</time>
      </trkpt>
      <trkpt lat="43.66099" lon="6.16413">
        <ele>603.8</ele>
        <time>2023-10-09T14:52:10Z</time>
      </trkpt>
      <trkpt lat="43.66099" lon="6.16413">
        <ele>603.8</ele>
        <time>2023-10-09T14:52:11Z</time>
      </trkpt>
      <trkpt lat="43.66099" lon="6.16413">
        <ele>603.8</ele>
        <time>2023-10-09T14:52:12Z</time>
      </trkpt>
      <trkpt lat="43.66099" lon="6.16413">
        <ele>603.8</ele>
        <time>2023-10-09T14:52:13Z</time>
      </trkpt>
      <trkpt lat="43.66099" lon="6.16413">
        <ele>603.8</ele>
        <time>2023-10-09T14:52:14Z</time>
      </trkpt>
      <trkpt lat="43.66099" lon="6.16413">
        <ele>603.8</ele>
        <time>2023-10-09T14:52:15Z</time>
      </trkpt>
      <trkpt lat="43.66099" lon="6.16413">
        <ele>603.8</ele>
        <time>2023-10-09T14:52:16Z</time>
      </trkpt>
      <trkpt lat="43.66099" lon="6.16413">
        <ele>603.8</ele>
        <time>2023-10-09T14:52:17Z</time>
      </trkpt>
      <trkpt lat="43.66099" lon="6.16413">
        <ele>603.8</ele>
        <time>2023-10-09T14:52:18Z</time>
      </trkpt>
      <trkpt lat="43.66099" lon="6.16414">
        <ele>603.9</ele>
        <time>2023-10-09T14:52:19Z</time>
      </trkpt>
      <trkpt lat="43.66099" lon="6.16414">
        <ele>603.9</ele>
        <time>2023-10-09T14:52:20Z</time>
      </trkpt>
      <trkpt lat="43.66099" lon="6.16414">
        <ele>603.9</ele>
        <time>2023-10-09T14:52:21Z</time>
      </trkpt>
      <trkpt lat="43.66099" lon="6.16414">
        <ele>603.9</ele>
        <time>2023-10-09T14:52:22Z</time>
      </trkpt>
      <trkpt lat="43.66099" lon="6.16414">
        <ele>603.9</ele>
        <time>2023-10-09T14:52:23Z</time>
      </trkpt>
      <trkpt lat="43.66099" lon="6.16414">
        <ele>603.9</ele>
        <time>2023-10-09T14:52:24Z</time>
      </trkpt>
      <trkpt lat="43.66099" lon="6.16414">
        <ele>603.9</ele>
        <time>2023-10-09T14:52:25Z</time>
      </trkpt>
      <trkpt lat="43.66099" lon="6.16414">
        <ele>603.9</ele>
        <time>2023-10-09T14:52:26Z</time>
      </trkpt>
      <trkpt lat="43.66099" lon="6.16414">
        <ele>603.9</ele>
        <time>2023-10-09T14:52:27Z</time>
      </trkpt>
      <trkpt lat="43.66099" lon="6.16414">
        <ele>603.9</ele>
        <time>2023-10-09T14:52:28Z</time>
      </trkpt>
      <trkpt lat="43.66099" lon="6.16414">
        <ele>603.9</ele>
        <time>2023-10-09T14:52:29Z</time>
      </trkpt>
      <trkpt lat="43.66099" lon="6.16414">
        <ele>603.9</ele>
        <time>2023-10-09T14:52:30Z</time>
      </trkpt>
      <trkpt lat="43.66099" lon="6.16414">
        <ele>603.9</ele>
        <time>2023-10-09T14:52:31Z</time>
      </trkpt>
      <trkpt lat="43.66099" lon="6.16414">
        <ele>603.9</ele>
        <time>2023-10-09T14:52:32Z</time>
      </trkpt>
      <trkpt lat="43.66099" lon="6.16414">
        <ele>603.9</ele>
        <time>2023-10-09T14:52:33Z</time>
      </trkpt>
      <trkpt lat="43.66099" lon="6.16414">
        <ele>603.9</ele>
        <time>2023-10-09T14:52:34Z</time>
      </trkpt>
      <trkpt lat="43.66099" lon="6.16414">
        <ele>603.9</ele>
        <time>2023-10-09T14:52:35Z</time>
      </trkpt>
      <trkpt lat="43.66098" lon="6.16414">
        <ele>603.9</ele>
        <time>2023-10-09T14:52:36Z</time>
      </trkpt>
      <trkpt lat="43.66097" lon="6.16414">
        <ele>603.9</ele>
        <time>2023-10-09T14:52:37Z</time>
      </trkpt>
      <trkpt lat="43.66096" lon="6.16414">
        <ele>603.9</ele>
        <time>2023-10-09T14:52:38Z</time>
      </trkpt>
      <trkpt lat="43.66096" lon="6.16414">
        <ele>603.9</ele>
        <time>2023-10-09T14:52:39Z</time>
      </trkpt>
      <trkpt lat="43.66096" lon="6.16414">
        <ele>603.9</ele>
        <time>2023-10-09T14:52:40Z</time>
      </trkpt>
      <trkpt lat="43.66095" lon="6.16414">
        <ele>603.8</ele>
        <time>2023-10-09T14:52:41Z</time>
      </trkpt>
      <trkpt lat="43.66095" lon="6.16414">
        <ele>603.8</ele>
        <time>2023-10-09T14:52:42Z</time>
      </trkpt>
      <trkpt lat="43.66095" lon="6.16414">
        <ele>603.8</ele>
        <time>2023-10-09T14:52:43Z</time>
      </trkpt>
      <trkpt lat="43.66095" lon="6.16414">
        <ele>603.8</ele>
        <time>2023-10-09T14:52:44Z</time>
      </trkpt>
      <trkpt lat="43.66095" lon="6.16414">
        <ele>603.8</ele>
        <time>2023-10-09T14:52:45Z</time>
      </trkpt>
      <trkpt lat="43.66095" lon="6.16414">
        <ele>603.8</ele>
        <time>2023-10-09T14:52:46Z</time>
      </trkpt>
      <trkpt lat="43.66095" lon="6.16414">
        <ele>603.8</ele>
        <time>2023-10-09T14:52:47Z</time>
      </trkpt>
      <trkpt lat="43.66095" lon="6.16414">
        <ele>603.8</ele>
        <time>2023-10-09T14:52:48Z</time>
      </trkpt>
      <trkpt lat="43.66095" lon="6.16414">
        <ele>603.8</ele>
        <time>2023-10-09T14:52:49Z</time>
      </trkpt>
      <trkpt lat="43.66095" lon="6.16414">
        <ele>603.8</ele>
        <time>2023-10-09T14:52:50Z</time>
      </trkpt>
      <trkpt lat="43.66095" lon="6.16414">
        <ele>603.8</ele>
        <time>2023-10-09T14:52:51Z</time>
      </trkpt>
      <trkpt lat="43.66095" lon="6.16414">
        <ele>603.8</ele>
        <time>2023-10-09T14:52:52Z</time>
      </trkpt>
      <trkpt lat="43.66095" lon="6.16414">
        <ele>603.8</ele>
        <time>2023-10-09T14:52:53Z</time>
      </trkpt>
      <trkpt lat="43.66095" lon="6.16414">
        <ele>603.8</ele>
        <time>2023-10-09T14:52:54Z</time>
      </trkpt>
      <trkpt lat="43.66095" lon="6.16414">
        <ele>603.8</ele>
        <time>2023-10-09T14:52:55Z</time>
      </trkpt>
      <trkpt lat="43.66095" lon="6.16414">
        <ele>603.8</ele>
        <time>2023-10-09T14:52:56Z</time>
      </trkpt>
      <trkpt lat="43.66095" lon="6.16414">
        <ele>603.8</ele>
        <time>2023-10-09T14:52:57Z</time>
      </trkpt>
      <trkpt lat="43.66095" lon="6.16414">
        <ele>603.8</ele>
        <time>2023-10-09T14:52:58Z</time>
      </trkpt>
      <trkpt lat="43.66095" lon="6.16414">
        <ele>603.8</ele>
        <time>2023-10-09T14:52:59Z</time>
      </trkpt>
      <trkpt lat="43.66095" lon="6.16414">
        <ele>603.8</ele>
        <time>2023-10-09T14:53:00Z</time>
      </trkpt>
      <trkpt lat="43.66095" lon="6.16414">
        <ele>603.8</ele>
        <time>2023-10-09T14:53:01Z</time>
      </trkpt>
      <trkpt lat="43.66095" lon="6.16414">
        <ele>603.8</ele>
        <time>2023-10-09T14:53:02Z</time>
      </trkpt>
      <trkpt lat="43.66095" lon="6.16414">
        <ele>603.8</ele>
        <time>2023-10-09T14:53:03Z</time>
      </trkpt>
      <trkpt lat="43.66095" lon="6.16414">
        <ele>603.8</ele>
        <time>2023-10-09T14:53:04Z</time>
      </trkpt>
      <trkpt lat="43.66095" lon="6.16414">
        <ele>603.8</ele>
        <time>2023-10-09T14:53:05Z</time>
      </trkpt>
      <trkpt lat="43.66095" lon="6.16414">
        <ele>603.8</ele>
        <time>2023-10-09T14:53:06Z</time>
      </trkpt>
      <trkpt lat="43.66095" lon="6.16414">
        <ele>603.8</ele>
        <time>2023-10-09T14:53:07Z</time>
      </trkpt>
      <trkpt lat="43.66095" lon="6.16414">
        <ele>603.8</ele>
        <time>2023-10-09T14:53:08Z</time>
      </trkpt>
      <trkpt lat="43.66095" lon="6.16414">
        <ele>603.8</ele>
        <time>2023-10-09T14:53:09Z</time>
      </trkpt>
      <trkpt lat="43.66095" lon="6.16414">
        <ele>603.8</ele>
        <time>2023-10-09T14:53:10Z</time>
      </trkpt>
      <trkpt lat="43.66095" lon="6.16414">
        <ele>603.8</ele>
        <time>2023-10-09T14:53:11Z</time>
      </trkpt>
      <trkpt lat="43.66095" lon="6.16414">
        <ele>603.8</ele>
        <time>2023-10-09T14:53:12Z</time>
      </trkpt>
      <trkpt lat="43.66095" lon="6.16414">
        <ele>603.8</ele>
        <time>2023-10-09T14:53:13Z</time>
      </trkpt>
      <trkpt lat="43.66095" lon="6.16414">
        <ele>603.8</ele>
        <time>2023-10-09T14:53:14Z</time>
      </trkpt>
      <trkpt lat="43.66095" lon="6.16414">
        <ele>603.8</ele>
        <time>2023-10-09T14:53:15Z</time>
      </trkpt>
      <trkpt lat="43.66095" lon="6.16414">
        <ele>603.8</ele>
        <time>2023-10-09T14:53:16Z</time>
      </trkpt>
      <trkpt lat="43.66095" lon="6.16414">
        <ele>603.8</ele>
        <time>2023-10-09T14:53:17Z</time>
      </trkpt>
      <trkpt lat="43.66095" lon="6.16414">
        <ele>603.8</ele>
        <time>2023-10-09T14:53:18Z</time>
      </trkpt>
      <trkpt lat="43.66095" lon="6.16414">
        <ele>603.8</ele>
        <time>2023-10-09T14:53:19Z</time>
      </trkpt>
      <trkpt lat="43.66095" lon="6.16414">
        <ele>603.8</ele>
        <time>2023-10-09T14:53:20Z</time>
      </trkpt>
      <trkpt lat="43.66095" lon="6.16414">
        <ele>603.8</ele>
        <time>2023-10-09T14:53:21Z</time>
      </trkpt>
      <trkpt lat="43.66095" lon="6.16414">
        <ele>603.8</ele>
        <time>2023-10-09T14:53:22Z</time>
      </trkpt>
      <trkpt lat="43.66095" lon="6.16414">
        <ele>603.8</ele>
        <time>2023-10-09T14:53:23Z</time>
      </trkpt>
      <trkpt lat="43.66095" lon="6.16414">
        <ele>603.8</ele>
        <time>2023-10-09T14:53:24Z</time>
      </trkpt>
      <trkpt lat="43.66095" lon="6.16414">
        <ele>603.8</ele>
        <time>2023-10-09T14:53:25Z</time>
      </trkpt>
      <trkpt lat="43.66095" lon="6.16414">
        <ele>603.8</ele>
        <time>2023-10-09T14:53:26Z</time>
      </trkpt>
      <trkpt lat="43.66095" lon="6.16414">
        <ele>603.8</ele>
        <time>2023-10-09T14:53:27Z</time>
      </trkpt>
      <trkpt lat="43.66095" lon="6.16414">
        <ele>603.8</ele>
        <time>2023-10-09T14:53:28Z</time>
      </trkpt>
      <trkpt lat="43.66095" lon="6.16414">
        <ele>603.8</ele>
        <time>2023-10-09T14:53:29Z</time>
      </trkpt>
      <trkpt lat="43.66095" lon="6.16414">
        <ele>603.8</ele>
        <time>2023-10-09T14:53:30Z</time>
      </trkpt>
      <trkpt lat="43.66095" lon="6.16414">
        <ele>603.8</ele>
        <time>2023-10-09T14:53:31Z</time>
      </trkpt>
      <trkpt lat="43.66095" lon="6.16414">
        <ele>603.8</ele>
        <time>2023-10-09T14:53:32Z</time>
      </trkpt>
      <trkpt lat="43.66095" lon="6.16414">
        <ele>603.8</ele>
        <time>2023-10-09T14:53:33Z</time>
      </trkpt>
      <trkpt lat="43.66095" lon="6.16414">
        <ele>603.8</ele>
        <time>2023-10-09T14:53:34Z</time>
      </trkpt>
      <trkpt lat="43.66095" lon="6.16414">
        <ele>603.8</ele>
        <time>2023-10-09T14:53:35Z</time>
      </trkpt>
      <trkpt lat="43.66095" lon="6.16414">
        <ele>603.8</ele>
        <time>2023-10-09T14:53:36Z</time>
      </trkpt>
      <trkpt lat="43.66095" lon="6.16414">
        <ele>603.8</ele>
        <time>2023-10-09T14:53:37Z</time>
      </trkpt>
      <trkpt lat="43.66095" lon="6.16414">
        <ele>603.8</ele>
        <time>2023-10-09T14:53:38Z</time>
      </trkpt>
      <trkpt lat="43.66095" lon="6.16414">
        <ele>603.8</ele>
        <time>2023-10-09T14:53:39Z</time>
      </trkpt>
      <trkpt lat="43.66095" lon="6.16414">
        <ele>603.8</ele>
        <time>2023-10-09T14:53:40Z</time>
      </trkpt>
      <trkpt lat="43.66095" lon="6.16414">
        <ele>603.8</ele>
        <time>2023-10-09T14:53:41Z</time>
      </trkpt>
      <trkpt lat="43.66095" lon="6.16414">
        <ele>603.8</ele>
        <time>2023-10-09T14:53:42Z</time>
      </trkpt>
      <trkpt lat="43.66095" lon="6.16414">
        <ele>603.8</ele>
        <time>2023-10-09T14:53:43Z</time>
      </trkpt>
      <trkpt lat="43.66095" lon="6.16414">
        <ele>603.8</ele>
        <time>2023-10-09T14:53:44Z</time>
      </trkpt>
      <trkpt lat="43.66095" lon="6.16414">
        <ele>603.8</ele>
        <time>2023-10-09T14:53:45Z</time>
      </trkpt>
      <trkpt lat="43.66095" lon="6.16414">
        <ele>603.8</ele>
        <time>2023-10-09T14:53:46Z</time>
      </trkpt>
      <trkpt lat="43.66095" lon="6.16414">
        <ele>603.8</ele>
        <time>2023-10-09T14:53:47Z</time>
      </trkpt>
      <trkpt lat="43.66095" lon="6.16414">
        <ele>603.8</ele>
        <time>2023-10-09T14:53:48Z</time>
      </trkpt>
      <trkpt lat="43.66095" lon="6.16414">
        <ele>603.8</ele>
        <time>2023-10-09T14:53:49Z</time>
      </trkpt>
      <trkpt lat="43.66095" lon="6.16414">
        <ele>603.8</ele>
        <time>2023-10-09T14:53:50Z</time>
      </trkpt>
      <trkpt lat="43.66095" lon="6.16414">
        <ele>603.8</ele>
        <time>2023-10-09T14:53:51Z</time>
      </trkpt>
      <trkpt lat="43.66095" lon="6.16414">
        <ele>603.8</ele>
        <time>2023-10-09T14:53:52Z</time>
      </trkpt>
      <trkpt lat="43.66095" lon="6.16414">
        <ele>603.8</ele>
        <time>2023-10-09T14:53:53Z</time>
      </trkpt>
      <trkpt lat="43.66095" lon="6.16414">
        <ele>603.8</ele>
        <time>2023-10-09T14:53:54Z</time>
      </trkpt>
      <trkpt lat="43.66095" lon="6.16414">
        <ele>603.8</ele>
        <time>2023-10-09T14:53:55Z</time>
      </trkpt>
      <trkpt lat="43.66095" lon="6.16414">
        <ele>603.8</ele>
        <time>2023-10-09T14:53:56Z</time>
      </trkpt>
      <trkpt lat="43.66095" lon="6.16414">
        <ele>603.8</ele>
        <time>2023-10-09T14:53:57Z</time>
      </trkpt>
      <trkpt lat="43.66095" lon="6.16414">
        <ele>603.8</ele>
        <time>2023-10-09T14:53:58Z</time>
      </trkpt>
      <trkpt lat="43.66095" lon="6.16414">
        <ele>603.8</ele>
        <time>2023-10-09T14:53:59Z</time>
      </trkpt>
      <trkpt lat="43.66095" lon="6.16414">
        <ele>603.8</ele>
        <time>2023-10-09T14:54:00Z</time>
      </trkpt>
      <trkpt lat="43.66095" lon="6.16414">
        <ele>603.8</ele>
        <time>2023-10-09T14:54:01Z</time>
      </trkpt>
      <trkpt lat="43.66095" lon="6.16414">
        <ele>603.8</ele>
        <time>2023-10-09T14:54:02Z</time>
      </trkpt>
      <trkpt lat="43.66095" lon="6.16414">
        <ele>603.8</ele>
        <time>2023-10-09T14:54:03Z</time>
      </trkpt>
      <trkpt lat="43.66095" lon="6.16414">
        <ele>603.8</ele>
        <time>2023-10-09T14:54:04Z</time>
      </trkpt>
      <trkpt lat="43.66095" lon="6.16414">
        <ele>603.8</ele>
        <time>2023-10-09T14:54:05Z</time>
      </trkpt>
      <trkpt lat="43.66095" lon="6.16414">
        <ele>603.8</ele>
        <time>2023-10-09T14:54:06Z</time>
      </trkpt>
      <trkpt lat="43.66095" lon="6.16414">
        <ele>603.8</ele>
        <time>2023-10-09T14:54:07Z</time>
      </trkpt>
      <trkpt lat="43.66095" lon="6.16414">
        <ele>603.8</ele>
        <time>2023-10-09T14:54:08Z</time>
      </trkpt>
      <trkpt lat="43.66095" lon="6.16414">
        <ele>603.8</ele>
        <time>2023-10-09T14:54:09Z</time>
      </trkpt>
      <trkpt lat="43.66095" lon="6.16414">
        <ele>603.8</ele>
        <time>2023-10-09T14:54:10Z</time>
      </trkpt>
      <trkpt lat="43.66095" lon="6.16414">
        <ele>603.8</ele>
        <time>2023-10-09T14:54:11Z</time>
      </trkpt>
      <trkpt lat="43.66095" lon="6.16414">
        <ele>603.8</ele>
        <time>2023-10-09T14:54:12Z</time>
      </trkpt>
      <trkpt lat="43.66095" lon="6.16414">
        <ele>603.8</ele>
        <time>2023-10-09T14:54:13Z</time>
      </trkpt>
      <trkpt lat="43.66095" lon="6.16414">
        <ele>603.8</ele>
        <time>2023-10-09T14:54:14Z</time>
      </trkpt>
      <trkpt lat="43.66095" lon="6.16414">
        <ele>603.8</ele>
        <time>2023-10-09T14:54:15Z</time>
      </trkpt>
      <trkpt lat="43.66095" lon="6.16414">
        <ele>603.8</ele>
        <time>2023-10-09T14:54:16Z</time>
      </trkpt>
      <trkpt lat="43.66095" lon="6.16414">
        <ele>603.8</ele>
        <time>2023-10-09T14:54:17Z</time>
      </trkpt>
      <trkpt lat="43.66095" lon="6.16414">
        <ele>603.8</ele>
        <time>2023-10-09T14:54:18Z</time>
      </trkpt>
      <trkpt lat="43.66095" lon="6.16414">
        <ele>603.8</ele>
        <time>2023-10-09T14:54:19Z</time>
      </trkpt>
      <trkpt lat="43.66095" lon="6.16414">
        <ele>603.8</ele>
        <time>2023-10-09T14:54:20Z</time>
      </trkpt>
      <trkpt lat="43.66095" lon="6.16414">
        <ele>603.8</ele>
        <time>2023-10-09T14:54:21Z</time>
      </trkpt>
      <trkpt lat="43.66095" lon="6.16414">
        <ele>603.8</ele>
        <time>2023-10-09T14:54:22Z</time>
      </trkpt>
      <trkpt lat="43.66095" lon="6.16414">
        <ele>603.8</ele>
        <time>2023-10-09T14:54:23Z</time>
      </trkpt>
      <trkpt lat="43.66095" lon="6.16414">
        <ele>603.8</ele>
        <time>2023-10-09T14:54:24Z</time>
      </trkpt>
      <trkpt lat="43.66095" lon="6.16414">
        <ele>603.8</ele>
        <time>2023-10-09T14:54:25Z</time>
      </trkpt>
      <trkpt lat="43.66095" lon="6.16414">
        <ele>603.8</ele>
        <time>2023-10-09T14:54:26Z</time>
      </trkpt>
      <trkpt lat="43.66095" lon="6.16414">
        <ele>603.8</ele>
        <time>2023-10-09T14:54:27Z</time>
      </trkpt>
      <trkpt lat="43.66095" lon="6.16414">
        <ele>603.8</ele>
        <time>2023-10-09T14:54:28Z</time>
      </trkpt>
      <trkpt lat="43.66095" lon="6.16414">
        <ele>603.8</ele>
        <time>2023-10-09T14:54:29Z</time>
      </trkpt>
      <trkpt lat="43.66095" lon="6.16414">
        <ele>603.8</ele>
        <time>2023-10-09T14:54:30Z</time>
      </trkpt>
      <trkpt lat="43.66095" lon="6.16414">
        <ele>603.8</ele>
        <time>2023-10-09T14:54:31Z</time>
      </trkpt>
      <trkpt lat="43.66095" lon="6.16414">
        <ele>603.8</ele>
        <time>2023-10-09T14:54:32Z</time>
      </trkpt>
      <trkpt lat="43.66095" lon="6.16414">
        <ele>603.8</ele>
        <time>2023-10-09T14:54:33Z</time>
      </trkpt>
      <trkpt lat="43.66095" lon="6.16414">
        <ele>603.8</ele>
        <time>2023-10-09T14:54:34Z</time>
      </trkpt>
      <trkpt lat="43.66095" lon="6.16414">
        <ele>603.8</ele>
        <time>2023-10-09T14:54:35Z</time>
      </trkpt>
      <trkpt lat="43.66095" lon="6.16414">
        <ele>603.8</ele>
        <time>2023-10-09T14:54:36Z</time>
      </trkpt>
      <trkpt lat="43.66095" lon="6.16414">
        <ele>603.8</ele>
        <time>2023-10-09T14:54:37Z</time>
      </trkpt>
      <trkpt lat="43.66095" lon="6.16414">
        <ele>603.8</ele>
        <time>2023-10-09T14:54:38Z</time>
      </trkpt>
      <trkpt lat="43.66095" lon="6.16413">
        <ele>603.8</ele>
        <time>2023-10-09T14:54:39Z</time>
      </trkpt>
      <trkpt lat="43.66095" lon="6.16412">
        <ele>603.7</ele>
        <time>2023-10-09T14:54:40Z</time>
      </trkpt>
      <trkpt lat="43.66094" lon="6.16411">
        <ele>603.7</ele>
        <time>2023-10-09T14:54:41Z</time>
      </trkpt>
      <trkpt lat="43.66094" lon="6.1641">
        <ele>603.6</ele>
        <time>2023-10-09T14:54:42Z</time>
      </trkpt>
      <trkpt lat="43.66093" lon="6.1641">
        <ele>603.6</ele>
        <time>2023-10-09T14:54:43Z</time>
      </trkpt>
      <trkpt lat="43.66092" lon="6.1641">
        <ele>603.6</ele>
        <time>2023-10-09T14:54:44Z</time>
      </trkpt>
      <trkpt lat="43.66091" lon="6.16409">
        <ele>603.5</ele>
        <time>2023-10-09T14:54:45Z</time>
      </trkpt>
      <trkpt lat="43.6609" lon="6.16409">
        <ele>603.5</ele>
        <time>2023-10-09T14:54:46Z</time>
      </trkpt>
      <trkpt lat="43.6609" lon="6.16408">
        <ele>603.5</ele>
        <time>2023-10-09T14:54:47Z</time>
      </trkpt>
      <trkpt lat="43.66089" lon="6.16408">
        <ele>603.4</ele>
        <time>2023-10-09T14:54:48Z</time>
      </trkpt>
      <trkpt lat="43.66088" lon="6.16407">
        <ele>603.4</ele>
        <time>2023-10-09T14:54:49Z</time>
      </trkpt>
      <trkpt lat="43.66087" lon="6.16407">
        <ele>603.3</ele>
        <time>2023-10-09T14:54:50Z</time>
      </trkpt>
      <trkpt lat="43.66087" lon="6.16406">
        <ele>603.3</ele>
        <time>2023-10-09T14:54:51Z</time>
      </trkpt>
      <trkpt lat="43.66086" lon="6.16406">
        <ele>603.3</ele>
        <time>2023-10-09T14:54:52Z</time>
      </trkpt>
      <trkpt lat="43.66085" lon="6.16406">
        <ele>603.3</ele>
        <time>2023-10-09T14:54:53Z</time>
      </trkpt>
      <trkpt lat="43.66084" lon="6.16406">
        <ele>603.2</ele>
        <time>2023-10-09T14:54:54Z</time>
      </trkpt>
      <trkpt lat="43.66083" lon="6.16405">
        <ele>603.2</ele>
        <time>2023-10-09T14:54:55Z</time>
      </trkpt>
      <trkpt lat="43.66083" lon="6.16405">
        <ele>603.2</ele>
        <time>2023-10-09T14:54:56Z</time>
      </trkpt>
      <trkpt lat="43.66082" lon="6.16404">
        <ele>603.1</ele>
        <time>2023-10-09T14:54:57Z</time>
      </trkpt>
      <trkpt lat="43.66081" lon="6.16404">
        <ele>603</ele>
        <time>2023-10-09T14:54:58Z</time>
      </trkpt>
      <trkpt lat="43.6608" lon="6.16404">
        <ele>603</ele>
        <time>2023-10-09T14:54:59Z</time>
      </trkpt>
      <trkpt lat="43.66078" lon="6.16404">
        <ele>603</ele>
        <time>2023-10-09T14:55:00Z</time>
      </trkpt>
      <trkpt lat="43.66077" lon="6.16404">
        <ele>603</ele>
        <time>2023-10-09T14:55:01Z</time>
      </trkpt>
      <trkpt lat="43.66076" lon="6.16404">
        <ele>602.9</ele>
        <time>2023-10-09T14:55:02Z</time>
      </trkpt>
      <trkpt lat="43.66074" lon="6.16403">
        <ele>602.8</ele>
        <time>2023-10-09T14:55:03Z</time>
      </trkpt>
      <trkpt lat="43.66073" lon="6.16403">
        <ele>602.8</ele>
        <time>2023-10-09T14:55:04Z</time>
      </trkpt>
      <trkpt lat="43.66072" lon="6.16403">
        <ele>602.8</ele>
        <time>2023-10-09T14:55:05Z</time>
      </trkpt>
      <trkpt lat="43.66071" lon="6.16402">
        <ele>602.7</ele>
        <time>2023-10-09T14:55:06Z</time>
      </trkpt>
      <trkpt lat="43.6607" lon="6.16401">
        <ele>602.7</ele>
        <time>2023-10-09T14:55:07Z</time>
      </trkpt>
      <trkpt lat="43.6607" lon="6.16401">
        <ele>602.7</ele>
        <time>2023-10-09T14:55:08Z</time>
      </trkpt>
      <trkpt lat="43.66069" lon="6.16401">
        <ele>602.6</ele>
        <time>2023-10-09T14:55:09Z</time>
      </trkpt>
      <trkpt lat="43.66067" lon="6.16401">
        <ele>602.6</ele>
        <time>2023-10-09T14:55:10Z</time>
      </trkpt>
      <trkpt lat="43.66066" lon="6.16402">
        <ele>602.6</ele>
        <time>2023-10-09T14:55:11Z</time>
      </trkpt>
      <trkpt lat="43.66064" lon="6.16403">
        <ele>602.7</ele>
        <time>2023-10-09T14:55:12Z</time>
      </trkpt>
      <trkpt lat="43.66064" lon="6.16404">
        <ele>602.7</ele>
        <time>2023-10-09T14:55:13Z</time>
      </trkpt>
      <trkpt lat="43.66063" lon="6.16404">
        <ele>602.7</ele>
        <time>2023-10-09T14:55:14Z</time>
      </trkpt>
      <trkpt lat="43.66061" lon="6.16406">
        <ele>602.7</ele>
        <time>2023-10-09T14:55:15Z</time>
      </trkpt>
      <trkpt lat="43.6606" lon="6.16406">
        <ele>602.7</ele>
        <time>2023-10-09T14:55:16Z</time>
      </trkpt>
      <trkpt lat="43.6606" lon="6.16407">
        <ele>602.8</ele>
        <time>2023-10-09T14:55:17Z</time>
      </trkpt>
      <trkpt lat="43.66059" lon="6.16407">
        <ele>602.7</ele>
        <time>2023-10-09T14:55:18Z</time>
      </trkpt>
      <trkpt lat="43.66058" lon="6.16408">
        <ele>602.7</ele>
        <time>2023-10-09T14:55:19Z</time>
      </trkpt>
      <trkpt lat="43.66057" lon="6.16409">
        <ele>602.8</ele>
        <time>2023-10-09T14:55:20Z</time>
      </trkpt>
      <trkpt lat="43.66056" lon="6.1641">
        <ele>602.8</ele>
        <time>2023-10-09T14:55:21Z</time>
      </trkpt>
      <trkpt lat="43.66055" lon="6.16411">
        <ele>602.7</ele>
        <time>2023-10-09T14:55:22Z</time>
      </trkpt>
      <trkpt lat="43.66054" lon="6.16412">
        <ele>602.7</ele>
        <time>2023-10-09T14:55:23Z</time>
      </trkpt>
      <trkpt lat="43.66054" lon="6.16414">
        <ele>602.7</ele>
        <time>2023-10-09T14:55:24Z</time>
      </trkpt>
      <trkpt lat="43.66053" lon="6.16415">
        <ele>602.7</ele>
        <time>2023-10-09T14:55:25Z</time>
      </trkpt>
      <trkpt lat="43.66052" lon="6.16416">
        <ele>602.6</ele>
        <time>2023-10-09T14:55:26Z</time>
      </trkpt>
      <trkpt lat="43.6605" lon="6.16417">
        <ele>602.4</ele>
        <time>2023-10-09T14:55:27Z</time>
      </trkpt>
      <trkpt lat="43.6605" lon="6.16418">
        <ele>602.5</ele>
        <time>2023-10-09T14:55:28Z</time>
      </trkpt>
      <trkpt lat="43.66049" lon="6.16419">
        <ele>602.4</ele>
        <time>2023-10-09T14:55:29Z</time>
      </trkpt>
      <trkpt lat="43.66048" lon="6.1642">
        <ele>602.3</ele>
        <time>2023-10-09T14:55:30Z</time>
      </trkpt>
      <trkpt lat="43.66047" lon="6.16421">
        <ele>602.3</ele>
        <time>2023-10-09T14:55:31Z</time>
      </trkpt>
      <trkpt lat="43.66047" lon="6.16422">
        <ele>602.3</ele>
        <time>2023-10-09T14:55:32Z</time>
      </trkpt>
      <trkpt lat="43.66046" lon="6.16423">
        <ele>602.3</ele>
        <time>2023-10-09T14:55:33Z</time>
      </trkpt>
      <trkpt lat="43.66045" lon="6.16423">
        <ele>602.2</ele>
        <time>2023-10-09T14:55:34Z</time>
      </trkpt>
      <trkpt lat="43.66044" lon="6.16424">
        <ele>602.1</ele>
        <time>2023-10-09T14:55:35Z</time>
      </trkpt>
      <trkpt lat="43.66043" lon="6.16425">
        <ele>602.1</ele>
        <time>2023-10-09T14:55:36Z</time>
      </trkpt>
      <trkpt lat="43.66043" lon="6.16426">
        <ele>602.1</ele>
        <time>2023-10-09T14:55:37Z</time>
      </trkpt>
      <trkpt lat="43.66042" lon="6.16427">
        <ele>602.1</ele>
        <time>2023-10-09T14:55:38Z</time>
      </trkpt>
      <trkpt lat="43.66041" lon="6.16427">
        <ele>602</ele>
        <time>2023-10-09T14:55:39Z</time>
      </trkpt>
      <trkpt lat="43.66041" lon="6.16428">
        <ele>602</ele>
        <time>2023-10-09T14:55:40Z</time>
      </trkpt>
      <trkpt lat="43.66039" lon="6.16429">
        <ele>601.9</ele>
        <time>2023-10-09T14:55:41Z</time>
      </trkpt>
      <trkpt lat="43.66038" lon="6.1643">
        <ele>601.9</ele>
        <time>2023-10-09T14:55:42Z</time>
      </trkpt>
      <trkpt lat="43.66037" lon="6.16431">
        <ele>601.9</ele>
        <time>2023-10-09T14:55:43Z</time>
      </trkpt>
      <trkpt lat="43.66036" lon="6.16432">
        <ele>601.8</ele>
        <time>2023-10-09T14:55:44Z</time>
      </trkpt>
      <trkpt lat="43.66035" lon="6.16433">
        <ele>601.8</ele>
        <time>2023-10-09T14:55:45Z</time>
      </trkpt>
      <trkpt lat="43.66034" lon="6.16433">
        <ele>601.7</ele>
        <time>2023-10-09T14:55:46Z</time>
      </trkpt>
      <trkpt lat="43.66033" lon="6.16433">
        <ele>601.6</ele>
        <time>2023-10-09T14:55:47Z</time>
      </trkpt>
      <trkpt lat="43.66032" lon="6.16433">
        <ele>601.5</ele>
        <time>2023-10-09T14:55:48Z</time>
      </trkpt>
      <trkpt lat="43.66031" lon="6.16433">
        <ele>601.5</ele>
        <time>2023-10-09T14:55:49Z</time>
      </trkpt>
      <trkpt lat="43.66031" lon="6.16434">
        <ele>601.5</ele>
        <time>2023-10-09T14:55:50Z</time>
      </trkpt>
      <trkpt lat="43.6603" lon="6.16434">
        <ele>601.4</ele>
        <time>2023-10-09T14:55:51Z</time>
      </trkpt>
      <trkpt lat="43.66029" lon="6.16434">
        <ele>601.4</ele>
        <time>2023-10-09T14:55:52Z</time>
      </trkpt>
      <trkpt lat="43.66028" lon="6.16433">
        <ele>601.2</ele>
        <time>2023-10-09T14:55:53Z</time>
      </trkpt>
      <trkpt lat="43.66027" lon="6.16433">
        <ele>601.2</ele>
        <time>2023-10-09T14:55:54Z</time>
      </trkpt>
      <trkpt lat="43.66026" lon="6.16432">
        <ele>601.1</ele>
        <time>2023-10-09T14:55:55Z</time>
      </trkpt>
      <trkpt lat="43.66025" lon="6.16432">
        <ele>601.2</ele>
        <time>2023-10-09T14:55:56Z</time>
      </trkpt>
      <trkpt lat="43.66024" lon="6.16431">
        <ele>601.1</ele>
        <time>2023-10-09T14:55:57Z</time>
      </trkpt>
      <trkpt lat="43.66023" lon="6.16431">
        <ele>601.1</ele>
        <time>2023-10-09T14:55:58Z</time>
      </trkpt>
      <trkpt lat="43.66022" lon="6.1643">
        <ele>601.1</ele>
        <time>2023-10-09T14:55:59Z</time>
      </trkpt>
      <trkpt lat="43.66021" lon="6.1643">
        <ele>601.1</ele>
        <time>2023-10-09T14:56:00Z</time>
      </trkpt>
      <trkpt lat="43.6602" lon="6.16429">
        <ele>601</ele>
        <time>2023-10-09T14:56:01Z</time>
      </trkpt>
      <trkpt lat="43.66019" lon="6.16428">
        <ele>600.9</ele>
        <time>2023-10-09T14:56:02Z</time>
      </trkpt>
      <trkpt lat="43.66018" lon="6.16426">
        <ele>600.8</ele>
        <time>2023-10-09T14:56:03Z</time>
      </trkpt>
      <trkpt lat="43.66017" lon="6.16425">
        <ele>600.7</ele>
        <time>2023-10-09T14:56:04Z</time>
      </trkpt>
      <trkpt lat="43.66016" lon="6.16424">
        <ele>600.6</ele>
        <time>2023-10-09T14:56:05Z</time>
      </trkpt>
      <trkpt lat="43.66016" lon="6.16423">
        <ele>600.6</ele>
        <time>2023-10-09T14:56:06Z</time>
      </trkpt>
      <trkpt lat="43.66015" lon="6.16423">
        <ele>600.6</ele>
        <time>2023-10-09T14:56:07Z</time>
      </trkpt>
      <trkpt lat="43.66015" lon="6.16421">
        <ele>600.4</ele>
        <time>2023-10-09T14:56:08Z</time>
      </trkpt>
      <trkpt lat="43.66014" lon="6.1642">
        <ele>600.3</ele>
        <time>2023-10-09T14:56:09Z</time>
      </trkpt>
      <trkpt lat="43.66013" lon="6.16418">
        <ele>600.1</ele>
        <time>2023-10-09T14:56:10Z</time>
      </trkpt>
      <trkpt lat="43.66013" lon="6.16417">
        <ele>600</ele>
        <time>2023-10-09T14:56:11Z</time>
      </trkpt>
      <trkpt lat="43.66013" lon="6.16415">
        <ele>599.9</ele>
        <time>2023-10-09T14:56:12Z</time>
      </trkpt>
      <trkpt lat="43.66012" lon="6.16414">
        <ele>599.8</ele>
        <time>2023-10-09T14:56:13Z</time>
      </trkpt>
      <trkpt lat="43.66011" lon="6.16412">
        <ele>599.6</ele>
        <time>2023-10-09T14:56:14Z</time>
      </trkpt>
      <trkpt lat="43.66011" lon="6.16411">
        <ele>599.5</ele>
        <time>2023-10-09T14:56:15Z</time>
      </trkpt>
      <trkpt lat="43.6601" lon="6.1641">
        <ele>599.5</ele>
        <time>2023-10-09T14:56:16Z</time>
      </trkpt>
      <trkpt lat="43.6601" lon="6.16409">
        <ele>599.4</ele>
        <time>2023-10-09T14:56:17Z</time>
      </trkpt>
      <trkpt lat="43.66009" lon="6.16408">
        <ele>599.3</ele>
        <time>2023-10-09T14:56:18Z</time>
      </trkpt>
      <trkpt lat="43.66009" lon="6.16405">
        <ele>599</ele>
        <time>2023-10-09T14:56:19Z</time>
      </trkpt>
      <trkpt lat="43.66009" lon="6.16404">
        <ele>598.9</ele>
        <time>2023-10-09T14:56:20Z</time>
      </trkpt>
      <trkpt lat="43.66008" lon="6.16402">
        <ele>598.7</ele>
        <time>2023-10-09T14:56:21Z</time>
      </trkpt>
      <trkpt lat="43.66008" lon="6.16401">
        <ele>598.6</ele>
        <time>2023-10-09T14:56:22Z</time>
      </trkpt>
      <trkpt lat="43.66007" lon="6.16399">
        <ele>598.4</ele>
        <time>2023-10-09T14:56:23Z</time>
      </trkpt>
      <trkpt lat="43.66007" lon="6.16398">
        <ele>598.3</ele>
        <time>2023-10-09T14:56:24Z</time>
      </trkpt>
      <trkpt lat="43.66007" lon="6.16396">
        <ele>598.1</ele>
        <time>2023-10-09T14:56:25Z</time>
      </trkpt>
      <trkpt lat="43.66007" lon="6.16395">
        <ele>598.1</ele>
        <time>2023-10-09T14:56:26Z</time>
      </trkpt>
      <trkpt lat="43.66006" lon="6.16394">
        <ele>597.9</ele>
        <time>2023-10-09T14:56:27Z</time>
      </trkpt>
      <trkpt lat="43.66006" lon="6.16393">
        <ele>597.8</ele>
        <time>2023-10-09T14:56:28Z</time>
      </trkpt>
      <trkpt lat="43.66006" lon="6.16392">
        <ele>597.7</ele>
        <time>2023-10-09T14:56:29Z</time>
      </trkpt>
      <trkpt lat="43.66005" lon="6.1639">
        <ele>597.5</ele>
        <time>2023-10-09T14:56:30Z</time>
      </trkpt>
      <trkpt lat="43.66005" lon="6.16389">
        <ele>597.4</ele>
        <time>2023-10-09T14:56:31Z</time>
      </trkpt>
      <trkpt lat="43.66005" lon="6.16388">
        <ele>597.3</ele>
        <time>2023-10-09T14:56:32Z</time>
      </trkpt>
      <trkpt lat="43.66004" lon="6.16386">
        <ele>597.1</ele>
        <time>2023-10-09T14:56:33Z</time>
      </trkpt>
      <trkpt lat="43.66004" lon="6.16385">
        <ele>597</ele>
        <time>2023-10-09T14:56:34Z</time>
      </trkpt>
      <trkpt lat="43.66003" lon="6.16384">
        <ele>596.9</ele>
        <time>2023-10-09T14:56:35Z</time>
      </trkpt>
      <trkpt lat="43.66003" lon="6.16383">
        <ele>596.8</ele>
        <time>2023-10-09T14:56:36Z</time>
      </trkpt>
      <trkpt lat="43.66002" lon="6.16381">
        <ele>596.6</ele>
        <time>2023-10-09T14:56:37Z</time>
      </trkpt>
      <trkpt lat="43.66002" lon="6.16379">
        <ele>596.5</ele>
        <time>2023-10-09T14:56:38Z</time>
      </trkpt>
      <trkpt lat="43.66001" lon="6.16378">
        <ele>596.3</ele>
        <time>2023-10-09T14:56:39Z</time>
      </trkpt>
      <trkpt lat="43.66001" lon="6.16377">
        <ele>596.2</ele>
        <time>2023-10-09T14:56:40Z</time>
      </trkpt>
      <trkpt lat="43.66" lon="6.16376">
        <ele>596.1</ele>
        <time>2023-10-09T14:56:41Z</time>
      </trkpt>
      <trkpt lat="43.66" lon="6.16374">
        <ele>595.9</ele>
        <time>2023-10-09T14:56:42Z</time>
      </trkpt>
      <trkpt lat="43.65999" lon="6.16373">
        <ele>595.9</ele>
        <time>2023-10-09T14:56:43Z</time>
      </trkpt>
      <trkpt lat="43.65998" lon="6.16371">
        <ele>595.8</ele>
        <time>2023-10-09T14:56:44Z</time>
      </trkpt>
      <trkpt lat="43.65998" lon="6.16369">
        <ele>595.6</ele>
        <time>2023-10-09T14:56:45Z</time>
      </trkpt>
      <trkpt lat="43.65998" lon="6.16368">
        <ele>595.5</ele>
        <time>2023-10-09T14:56:46Z</time>
      </trkpt>
      <trkpt lat="43.65997" lon="6.16367">
        <ele>595.5</ele>
        <time>2023-10-09T14:56:47Z</time>
      </trkpt>
      <trkpt lat="43.65996" lon="6.16366">
        <ele>595.4</ele>
        <time>2023-10-09T14:56:48Z</time>
      </trkpt>
      <trkpt lat="43.65996" lon="6.16365">
        <ele>595.3</ele>
        <time>2023-10-09T14:56:49Z</time>
      </trkpt>
      <trkpt lat="43.65995" lon="6.16364">
        <ele>595.2</ele>
        <time>2023-10-09T14:56:50Z</time>
      </trkpt>
      <trkpt lat="43.65995" lon="6.16363">
        <ele>595.2</ele>
        <time>2023-10-09T14:56:51Z</time>
      </trkpt>
      <trkpt lat="43.65994" lon="6.16362">
        <ele>595.1</ele>
        <time>2023-10-09T14:56:52Z</time>
      </trkpt>
      <trkpt lat="43.65993" lon="6.16361">
        <ele>595</ele>
        <time>2023-10-09T14:56:53Z</time>
      </trkpt>
      <trkpt lat="43.65992" lon="6.1636">
        <ele>595</ele>
        <time>2023-10-09T14:56:54Z</time>
      </trkpt>
      <trkpt lat="43.65991" lon="6.1636">
        <ele>594.9</ele>
        <time>2023-10-09T14:56:55Z</time>
      </trkpt>
      <trkpt lat="43.65989" lon="6.1636">
        <ele>594.9</ele>
        <time>2023-10-09T14:56:56Z</time>
      </trkpt>
      <trkpt lat="43.65988" lon="6.1636">
        <ele>594.9</ele>
        <time>2023-10-09T14:56:57Z</time>
      </trkpt>
      <trkpt lat="43.65987" lon="6.16359">
        <ele>594.9</ele>
        <time>2023-10-09T14:56:58Z</time>
      </trkpt>
      <trkpt lat="43.65986" lon="6.16359">
        <ele>594.8</ele>
        <time>2023-10-09T14:56:59Z</time>
      </trkpt>
      <trkpt lat="43.65985" lon="6.16359">
        <ele>594.8</ele>
        <time>2023-10-09T14:57:00Z</time>
      </trkpt>
      <trkpt lat="43.65983" lon="6.16358">
        <ele>594.7</ele>
        <time>2023-10-09T14:57:01Z</time>
      </trkpt>
      <trkpt lat="43.65981" lon="6.16358">
        <ele>594.7</ele>
        <time>2023-10-09T14:57:02Z</time>
      </trkpt>
      <trkpt lat="43.65981" lon="6.16358">
        <ele>594.7</ele>
        <time>2023-10-09T14:57:03Z</time>
      </trkpt>
      <trkpt lat="43.6598" lon="6.16358">
        <ele>594.7</ele>
        <time>2023-10-09T14:57:04Z</time>
      </trkpt>
      <trkpt lat="43.65978" lon="6.16358">
        <ele>594.6</ele>
        <time>2023-10-09T14:57:05Z</time>
      </trkpt>
      <trkpt lat="43.65977" lon="6.16358">
        <ele>594.6</ele>
        <time>2023-10-09T14:57:06Z</time>
      </trkpt>
      <trkpt lat="43.65975" lon="6.16357">
        <ele>594.5</ele>
        <time>2023-10-09T14:57:07Z</time>
      </trkpt>
      <trkpt lat="43.65974" lon="6.16357">
        <ele>594.4</ele>
        <time>2023-10-09T14:57:08Z</time>
      </trkpt>
      <trkpt lat="43.65973" lon="6.16357">
        <ele>594.4</ele>
        <time>2023-10-09T14:57:09Z</time>
      </trkpt>
      <trkpt lat="43.65971" lon="6.16356">
        <ele>594.3</ele>
        <time>2023-10-09T14:57:10Z</time>
      </trkpt>
      <trkpt lat="43.6597" lon="6.16356">
        <ele>594.4</ele>
        <time>2023-10-09T14:57:11Z</time>
      </trkpt>
      <trkpt lat="43.6597" lon="6.16356">
        <ele>594.4</ele>
        <time>2023-10-09T14:57:12Z</time>
      </trkpt>
      <trkpt lat="43.65968" lon="6.16356">
        <ele>594.4</ele>
        <time>2023-10-09T14:57:13Z</time>
      </trkpt>
      <trkpt lat="43.65967" lon="6.16356">
        <ele>594.5</ele>
        <time>2023-10-09T14:57:14Z</time>
      </trkpt>
      <trkpt lat="43.65966" lon="6.16356">
        <ele>594.5</ele>
        <time>2023-10-09T14:57:15Z</time>
      </trkpt>
      <trkpt lat="43.65964" lon="6.16355">
        <ele>594.5</ele>
        <time>2023-10-09T14:57:16Z</time>
      </trkpt>
      <trkpt lat="43.65963" lon="6.16355">
        <ele>594.5</ele>
        <time>2023-10-09T14:57:17Z</time>
      </trkpt>
      <trkpt lat="43.65962" lon="6.16355">
        <ele>594.6</ele>
        <time>2023-10-09T14:57:18Z</time>
      </trkpt>
      <trkpt lat="43.65961" lon="6.16355">
        <ele>594.6</ele>
        <time>2023-10-09T14:57:19Z</time>
      </trkpt>
      <trkpt lat="43.6596" lon="6.16354">
        <ele>594.5</ele>
        <time>2023-10-09T14:57:20Z</time>
      </trkpt>
      <trkpt lat="43.65959" lon="6.16354">
        <ele>594.6</ele>
        <time>2023-10-09T14:57:21Z</time>
      </trkpt>
      <trkpt lat="43.65958" lon="6.16353">
        <ele>594.5</ele>
        <time>2023-10-09T14:57:22Z</time>
      </trkpt>
      <trkpt lat="43.65957" lon="6.16353">
        <ele>594.5</ele>
        <time>2023-10-09T14:57:23Z</time>
      </trkpt>
      <trkpt lat="43.65956" lon="6.16352">
        <ele>594.5</ele>
        <time>2023-10-09T14:57:24Z</time>
      </trkpt>
      <trkpt lat="43.65955" lon="6.16351">
        <ele>594.4</ele>
        <time>2023-10-09T14:57:25Z</time>
      </trkpt>
      <trkpt lat="43.65954" lon="6.1635">
        <ele>594.3</ele>
        <time>2023-10-09T14:57:26Z</time>
      </trkpt>
      <trkpt lat="43.65953" lon="6.1635">
        <ele>594.4</ele>
        <time>2023-10-09T14:57:27Z</time>
      </trkpt>
      <trkpt lat="43.65952" lon="6.16349">
        <ele>594.3</ele>
        <time>2023-10-09T14:57:28Z</time>
      </trkpt>
      <trkpt lat="43.65951" lon="6.16348">
        <ele>594.2</ele>
        <time>2023-10-09T14:57:29Z</time>
      </trkpt>
      <trkpt lat="43.65951" lon="6.16348">
        <ele>594.2</ele>
        <time>2023-10-09T14:57:30Z</time>
      </trkpt>
      <trkpt lat="43.6595" lon="6.16347">
        <ele>594.2</ele>
        <time>2023-10-09T14:57:31Z</time>
      </trkpt>
      <trkpt lat="43.65949" lon="6.16346">
        <ele>594.1</ele>
        <time>2023-10-09T14:57:32Z</time>
      </trkpt>
      <trkpt lat="43.65948" lon="6.16345">
        <ele>594.1</ele>
        <time>2023-10-09T14:57:33Z</time>
      </trkpt>
      <trkpt lat="43.65947" lon="6.16345">
        <ele>594.1</ele>
        <time>2023-10-09T14:57:34Z</time>
      </trkpt>
      <trkpt lat="43.65946" lon="6.16344">
        <ele>594.1</ele>
        <time>2023-10-09T14:57:35Z</time>
      </trkpt>
      <trkpt lat="43.65945" lon="6.16343">
        <ele>594</ele>
        <time>2023-10-09T14:57:36Z</time>
      </trkpt>
      <trkpt lat="43.65943" lon="6.16343">
        <ele>594.1</ele>
        <time>2023-10-09T14:57:37Z</time>
      </trkpt>
      <trkpt lat="43.65942" lon="6.16342">
        <ele>594</ele>
        <time>2023-10-09T14:57:38Z</time>
      </trkpt>
      <trkpt lat="43.65941" lon="6.16342">
        <ele>594.1</ele>
        <time>2023-10-09T14:57:39Z</time>
      </trkpt>
      <trkpt lat="43.6594" lon="6.16341">
        <ele>594</ele>
        <time>2023-10-09T14:57:40Z</time>
      </trkpt>
      <trkpt lat="43.65939" lon="6.16341">
        <ele>594</ele>
        <time>2023-10-09T14:57:41Z</time>
      </trkpt>
      <trkpt lat="43.65937" lon="6.1634">
        <ele>594</ele>
        <time>2023-10-09T14:57:42Z</time>
      </trkpt>
      <trkpt lat="43.65936" lon="6.16339">
        <ele>593.9</ele>
        <time>2023-10-09T14:57:43Z</time>
      </trkpt>
      <trkpt lat="43.65935" lon="6.16339">
        <ele>594</ele>
        <time>2023-10-09T14:57:44Z</time>
      </trkpt>
      <trkpt lat="43.65933" lon="6.16338">
        <ele>593.9</ele>
        <time>2023-10-09T14:57:45Z</time>
      </trkpt>
      <trkpt lat="43.65932" lon="6.16338">
        <ele>594</ele>
        <time>2023-10-09T14:57:46Z</time>
      </trkpt>
      <trkpt lat="43.65932" lon="6.16337">
        <ele>593.8</ele>
        <time>2023-10-09T14:57:47Z</time>
      </trkpt>
      <trkpt lat="43.6593" lon="6.16336">
        <ele>593.8</ele>
        <time>2023-10-09T14:57:48Z</time>
      </trkpt>
      <trkpt lat="43.65929" lon="6.16336">
        <ele>593.8</ele>
        <time>2023-10-09T14:57:49Z</time>
      </trkpt>
      <trkpt lat="43.65928" lon="6.16335">
        <ele>593.8</ele>
        <time>2023-10-09T14:57:50Z</time>
      </trkpt>
      <trkpt lat="43.65926" lon="6.16335">
        <ele>593.8</ele>
        <time>2023-10-09T14:57:51Z</time>
      </trkpt>
      <trkpt lat="43.65925" lon="6.16334">
        <ele>593.8</ele>
        <time>2023-10-09T14:57:52Z</time>
      </trkpt>
      <trkpt lat="43.65923" lon="6.16334">
        <ele>593.8</ele>
        <time>2023-10-09T14:57:53Z</time>
      </trkpt>
      <trkpt lat="43.65922" lon="6.16334">
        <ele>593.9</ele>
        <time>2023-10-09T14:57:54Z</time>
      </trkpt>
      <trkpt lat="43.65921" lon="6.16334">
        <ele>593.9</ele>
        <time>2023-10-09T14:57:55Z</time>
      </trkpt>
      <trkpt lat="43.6592" lon="6.16333">
        <ele>593.9</ele>
        <time>2023-10-09T14:57:56Z</time>
      </trkpt>
      <trkpt lat="43.65919" lon="6.16332">
        <ele>593.8</ele>
        <time>2023-10-09T14:57:57Z</time>
      </trkpt>
      <trkpt lat="43.65918" lon="6.16331">
        <ele>593.8</ele>
        <time>2023-10-09T14:57:58Z</time>
      </trkpt>
      <trkpt lat="43.65917" lon="6.1633">
        <ele>593.7</ele>
        <time>2023-10-09T14:57:59Z</time>
      </trkpt>
      <trkpt lat="43.65916" lon="6.1633">
        <ele>593.7</ele>
        <time>2023-10-09T14:58:00Z</time>
      </trkpt>
      <trkpt lat="43.65915" lon="6.1633">
        <ele>593.7</ele>
        <time>2023-10-09T14:58:01Z</time>
      </trkpt>
      <trkpt lat="43.65913" lon="6.16329">
        <ele>593.6</ele>
        <time>2023-10-09T14:58:02Z</time>
      </trkpt>
      <trkpt lat="43.65912" lon="6.16329">
        <ele>593.5</ele>
        <time>2023-10-09T14:58:03Z</time>
      </trkpt>
      <trkpt lat="43.65911" lon="6.16329">
        <ele>593.5</ele>
        <time>2023-10-09T14:58:04Z</time>
      </trkpt>
      <trkpt lat="43.6591" lon="6.16328">
        <ele>593.4</ele>
        <time>2023-10-09T14:58:05Z</time>
      </trkpt>
      <trkpt lat="43.65908" lon="6.16328">
        <ele>593.3</ele>
        <time>2023-10-09T14:58:06Z</time>
      </trkpt>
      <trkpt lat="43.65907" lon="6.16327">
        <ele>593.2</ele>
        <time>2023-10-09T14:58:07Z</time>
      </trkpt>
      <trkpt lat="43.65906" lon="6.16327">
        <ele>593.2</ele>
        <time>2023-10-09T14:58:08Z</time>
      </trkpt>
      <trkpt lat="43.65905" lon="6.16326">
        <ele>593.1</ele>
        <time>2023-10-09T14:58:09Z</time>
      </trkpt>
      <trkpt lat="43.65904" lon="6.16326">
        <ele>593</ele>
        <time>2023-10-09T14:58:10Z</time>
      </trkpt>
      <trkpt lat="43.65903" lon="6.16326">
        <ele>593</ele>
        <time>2023-10-09T14:58:11Z</time>
      </trkpt>
      <trkpt lat="43.65902" lon="6.16326">
        <ele>592.9</ele>
        <time>2023-10-09T14:58:12Z</time>
      </trkpt>
      <trkpt lat="43.659" lon="6.16326">
        <ele>592.9</ele>
        <time>2023-10-09T14:58:13Z</time>
      </trkpt>
      <trkpt lat="43.65899" lon="6.16325">
        <ele>592.8</ele>
        <time>2023-10-09T14:58:14Z</time>
      </trkpt>
      <trkpt lat="43.65898" lon="6.16325">
        <ele>592.7</ele>
        <time>2023-10-09T14:58:15Z</time>
      </trkpt>
      <trkpt lat="43.65897" lon="6.16325">
        <ele>592.7</ele>
        <time>2023-10-09T14:58:16Z</time>
      </trkpt>
      <trkpt lat="43.65896" lon="6.16324">
        <ele>592.6</ele>
        <time>2023-10-09T14:58:17Z</time>
      </trkpt>
      <trkpt lat="43.65895" lon="6.16324">
        <ele>592.5</ele>
        <time>2023-10-09T14:58:18Z</time>
      </trkpt>
      <trkpt lat="43.65894" lon="6.16324">
        <ele>592.5</ele>
        <time>2023-10-09T14:58:19Z</time>
      </trkpt>
      <trkpt lat="43.65893" lon="6.16324">
        <ele>592.5</ele>
        <time>2023-10-09T14:58:20Z</time>
      </trkpt>
      <trkpt lat="43.65892" lon="6.16324">
        <ele>592.4</ele>
        <time>2023-10-09T14:58:21Z</time>
      </trkpt>
      <trkpt lat="43.65891" lon="6.16323">
        <ele>592.3</ele>
        <time>2023-10-09T14:58:22Z</time>
      </trkpt>
      <trkpt lat="43.6589" lon="6.16323">
        <ele>592.3</ele>
        <time>2023-10-09T14:58:23Z</time>
      </trkpt>
      <trkpt lat="43.6589" lon="6.16323">
        <ele>592.3</ele>
        <time>2023-10-09T14:58:24Z</time>
      </trkpt>
      <trkpt lat="43.65889" lon="6.16322">
        <ele>592.2</ele>
        <time>2023-10-09T14:58:25Z</time>
      </trkpt>
      <trkpt lat="43.65888" lon="6.16321">
        <ele>592.1</ele>
        <time>2023-10-09T14:58:26Z</time>
      </trkpt>
      <trkpt lat="43.65887" lon="6.16321">
        <ele>592</ele>
        <time>2023-10-09T14:58:27Z</time>
      </trkpt>
      <trkpt lat="43.65886" lon="6.1632">
        <ele>591.9</ele>
        <time>2023-10-09T14:58:28Z</time>
      </trkpt>
      <trkpt lat="43.65885" lon="6.1632">
        <ele>591.9</ele>
        <time>2023-10-09T14:58:29Z</time>
      </trkpt>
      <trkpt lat="43.65884" lon="6.16319">
        <ele>591.8</ele>
        <time>2023-10-09T14:58:30Z</time>
      </trkpt>
      <trkpt lat="43.65883" lon="6.16319">
        <ele>591.8</ele>
        <time>2023-10-09T14:58:31Z</time>
      </trkpt>
      <trkpt lat="43.65882" lon="6.16319">
        <ele>591.7</ele>
        <time>2023-10-09T14:58:32Z</time>
      </trkpt>
      <trkpt lat="43.65881" lon="6.16319">
        <ele>591.7</ele>
        <time>2023-10-09T14:58:33Z</time>
      </trkpt>
      <trkpt lat="43.65878" lon="6.16319">
        <ele>591.6</ele>
        <time>2023-10-09T14:58:34Z</time>
      </trkpt>
      <trkpt lat="43.65878" lon="6.16318">
        <ele>591.5</ele>
        <time>2023-10-09T14:58:35Z</time>
      </trkpt>
      <trkpt lat="43.65877" lon="6.16318">
        <ele>591.5</ele>
        <time>2023-10-09T14:58:36Z</time>
      </trkpt>
      <trkpt lat="43.65874" lon="6.16318">
        <ele>591.4</ele>
        <time>2023-10-09T14:58:37Z</time>
      </trkpt>
      <trkpt lat="43.65874" lon="6.16318">
        <ele>591.4</ele>
        <time>2023-10-09T14:58:38Z</time>
      </trkpt>
      <trkpt lat="43.65873" lon="6.16318">
        <ele>591.3</ele>
        <time>2023-10-09T14:58:39Z</time>
      </trkpt>
      <trkpt lat="43.65871" lon="6.16317">
        <ele>591.2</ele>
        <time>2023-10-09T14:58:40Z</time>
      </trkpt>
      <trkpt lat="43.6587" lon="6.16317">
        <ele>591.1</ele>
        <time>2023-10-09T14:58:41Z</time>
      </trkpt>
      <trkpt lat="43.65869" lon="6.16316">
        <ele>591</ele>
        <time>2023-10-09T14:58:42Z</time>
      </trkpt>
      <trkpt lat="43.65867" lon="6.16315">
        <ele>590.9</ele>
        <time>2023-10-09T14:58:43Z</time>
      </trkpt>
      <trkpt lat="43.65867" lon="6.16314">
        <ele>590.8</ele>
        <time>2023-10-09T14:58:44Z</time>
      </trkpt>
      <trkpt lat="43.65866" lon="6.16314">
        <ele>590.8</ele>
        <time>2023-10-09T14:58:45Z</time>
      </trkpt>
      <trkpt lat="43.65865" lon="6.16313">
        <ele>590.7</ele>
        <time>2023-10-09T14:58:46Z</time>
      </trkpt>
      <trkpt lat="43.65864" lon="6.16313">
        <ele>590.6</ele>
        <time>2023-10-09T14:58:47Z</time>
      </trkpt>
      <trkpt lat="43.65863" lon="6.16313">
        <ele>590.6</ele>
        <time>2023-10-09T14:58:48Z</time>
      </trkpt>
      <trkpt lat="43.65862" lon="6.16312">
        <ele>590.5</ele>
        <time>2023-10-09T14:58:49Z</time>
      </trkpt>
      <trkpt lat="43.65861" lon="6.16312">
        <ele>590.5</ele>
        <time>2023-10-09T14:58:50Z</time>
      </trkpt>
      <trkpt lat="43.6586" lon="6.16311">
        <ele>590.4</ele>
        <time>2023-10-09T14:58:51Z</time>
      </trkpt>
      <trkpt lat="43.65857" lon="6.1631">
        <ele>590.4</ele>
        <time>2023-10-09T14:58:52Z</time>
      </trkpt>
      <trkpt lat="43.65857" lon="6.1631">
        <ele>590.4</ele>
        <time>2023-10-09T14:58:53Z</time>
      </trkpt>
      <trkpt lat="43.65856" lon="6.16309">
        <ele>590.4</ele>
        <time>2023-10-09T14:58:54Z</time>
      </trkpt>
      <trkpt lat="43.65854" lon="6.16309">
        <ele>590.5</ele>
        <time>2023-10-09T14:58:55Z</time>
      </trkpt>
      <trkpt lat="43.65853" lon="6.16309">
        <ele>590.5</ele>
        <time>2023-10-09T14:58:56Z</time>
      </trkpt>
      <trkpt lat="43.65852" lon="6.16308">
        <ele>590.5</ele>
        <time>2023-10-09T14:58:57Z</time>
      </trkpt>
      <trkpt lat="43.65851" lon="6.16308">
        <ele>590.5</ele>
        <time>2023-10-09T14:58:58Z</time>
      </trkpt>
      <trkpt lat="43.65849" lon="6.16308">
        <ele>590.6</ele>
        <time>2023-10-09T14:58:59Z</time>
      </trkpt>
      <trkpt lat="43.65847" lon="6.16307">
        <ele>590.6</ele>
        <time>2023-10-09T14:59:00Z</time>
      </trkpt>
      <trkpt lat="43.65846" lon="6.16306">
        <ele>590.6</ele>
        <time>2023-10-09T14:59:01Z</time>
      </trkpt>
      <trkpt lat="43.65846" lon="6.16306">
        <ele>590.6</ele>
        <time>2023-10-09T14:59:02Z</time>
      </trkpt>
      <trkpt lat="43.65845" lon="6.16306">
        <ele>590.6</ele>
        <time>2023-10-09T14:59:03Z</time>
      </trkpt>
      <trkpt lat="43.65844" lon="6.16305">
        <ele>590.6</ele>
        <time>2023-10-09T14:59:04Z</time>
      </trkpt>
      <trkpt lat="43.65843" lon="6.16304">
        <ele>590.6</ele>
        <time>2023-10-09T14:59:05Z</time>
      </trkpt>
      <trkpt lat="43.65842" lon="6.16304">
        <ele>590.6</ele>
        <time>2023-10-09T14:59:06Z</time>
      </trkpt>
      <trkpt lat="43.65841" lon="6.16303">
        <ele>590.6</ele>
        <time>2023-10-09T14:59:07Z</time>
      </trkpt>
      <trkpt lat="43.6584" lon="6.16302">
        <ele>590.6</ele>
        <time>2023-10-09T14:59:08Z</time>
      </trkpt>
      <trkpt lat="43.65838" lon="6.16302">
        <ele>590.7</ele>
        <time>2023-10-09T14:59:09Z</time>
      </trkpt>
      <trkpt lat="43.65837" lon="6.16302">
        <ele>590.7</ele>
        <time>2023-10-09T14:59:10Z</time>
      </trkpt>
      <trkpt lat="43.65836" lon="6.16302">
        <ele>590.8</ele>
        <time>2023-10-09T14:59:11Z</time>
      </trkpt>
      <trkpt lat="43.65835" lon="6.16302">
        <ele>590.8</ele>
        <time>2023-10-09T14:59:12Z</time>
      </trkpt>
      <trkpt lat="43.65834" lon="6.16302">
        <ele>590.8</ele>
        <time>2023-10-09T14:59:13Z</time>
      </trkpt>
      <trkpt lat="43.65833" lon="6.16302">
        <ele>590.9</ele>
        <time>2023-10-09T14:59:14Z</time>
      </trkpt>
      <trkpt lat="43.65831" lon="6.16301">
        <ele>590.9</ele>
        <time>2023-10-09T14:59:15Z</time>
      </trkpt>
      <trkpt lat="43.65831" lon="6.16301">
        <ele>590.9</ele>
        <time>2023-10-09T14:59:16Z</time>
      </trkpt>
      <trkpt lat="43.6583" lon="6.163">
        <ele>590.9</ele>
        <time>2023-10-09T14:59:17Z</time>
      </trkpt>
      <trkpt lat="43.65829" lon="6.163">
        <ele>591</ele>
        <time>2023-10-09T14:59:18Z</time>
      </trkpt>
      <trkpt lat="43.65828" lon="6.16299">
        <ele>591</ele>
        <time>2023-10-09T14:59:19Z</time>
      </trkpt>
      <trkpt lat="43.65827" lon="6.16299">
        <ele>591</ele>
        <time>2023-10-09T14:59:20Z</time>
      </trkpt>
      <trkpt lat="43.65826" lon="6.16299">
        <ele>591</ele>
        <time>2023-10-09T14:59:21Z</time>
      </trkpt>
      <trkpt lat="43.65826" lon="6.16299">
        <ele>591</ele>
        <time>2023-10-09T14:59:22Z</time>
      </trkpt>
      <trkpt lat="43.65825" lon="6.16298">
        <ele>591</ele>
        <time>2023-10-09T14:59:23Z</time>
      </trkpt>
      <trkpt lat="43.65824" lon="6.16298">
        <ele>591.1</ele>
        <time>2023-10-09T14:59:24Z</time>
      </trkpt>
      <trkpt lat="43.65822" lon="6.16297">
        <ele>591.1</ele>
        <time>2023-10-09T14:59:25Z</time>
      </trkpt>
      <trkpt lat="43.65821" lon="6.16297">
        <ele>591.1</ele>
        <time>2023-10-09T14:59:26Z</time>
      </trkpt>
      <trkpt lat="43.6582" lon="6.16297">
        <ele>591.2</ele>
        <time>2023-10-09T14:59:27Z</time>
      </trkpt>
      <trkpt lat="43.65818" lon="6.16297">
        <ele>591.2</ele>
        <time>2023-10-09T14:59:28Z</time>
      </trkpt>
      <trkpt lat="43.65818" lon="6.16296">
        <ele>591.2</ele>
        <time>2023-10-09T14:59:29Z</time>
      </trkpt>
      <trkpt lat="43.65817" lon="6.16296">
        <ele>591.2</ele>
        <time>2023-10-09T14:59:30Z</time>
      </trkpt>
      <trkpt lat="43.65815" lon="6.16296">
        <ele>591.3</ele>
        <time>2023-10-09T14:59:31Z</time>
      </trkpt>
      <trkpt lat="43.65814" lon="6.16295">
        <ele>591.3</ele>
        <time>2023-10-09T14:59:32Z</time>
      </trkpt>
      <trkpt lat="43.65813" lon="6.16295">
        <ele>591.4</ele>
        <time>2023-10-09T14:59:33Z</time>
      </trkpt>
      <trkpt lat="43.65811" lon="6.16295">
        <ele>591.4</ele>
        <time>2023-10-09T14:59:34Z</time>
      </trkpt>
      <trkpt lat="43.6581" lon="6.16295">
        <ele>591.5</ele>
        <time>2023-10-09T14:59:35Z</time>
      </trkpt>
      <trkpt lat="43.65809" lon="6.16295">
        <ele>591.5</ele>
        <time>2023-10-09T14:59:36Z</time>
      </trkpt>
      <trkpt lat="43.65808" lon="6.16295">
        <ele>591.5</ele>
        <time>2023-10-09T14:59:37Z</time>
      </trkpt>
      <trkpt lat="43.65807" lon="6.16295">
        <ele>591.6</ele>
        <time>2023-10-09T14:59:38Z</time>
      </trkpt>
      <trkpt lat="43.65805" lon="6.16294">
        <ele>591.6</ele>
        <time>2023-10-09T14:59:39Z</time>
      </trkpt>
      <trkpt lat="43.65804" lon="6.16294">
        <ele>591.6</ele>
        <time>2023-10-09T14:59:40Z</time>
      </trkpt>
      <trkpt lat="43.65803" lon="6.16294">
        <ele>591.6</ele>
        <time>2023-10-09T14:59:41Z</time>
      </trkpt>
      <trkpt lat="43.65801" lon="6.16294">
        <ele>591.6</ele>
        <time>2023-10-09T14:59:42Z</time>
      </trkpt>
      <trkpt lat="43.658" lon="6.16294">
        <ele>591.6</ele>
        <time>2023-10-09T14:59:43Z</time>
      </trkpt>
      <trkpt lat="43.65799" lon="6.16294">
        <ele>591.6</ele>
        <time>2023-10-09T14:59:44Z</time>
      </trkpt>
      <trkpt lat="43.65798" lon="6.16294">
        <ele>591.6</ele>
        <time>2023-10-09T14:59:45Z</time>
      </trkpt>
      <trkpt lat="43.65797" lon="6.16294">
        <ele>591.6</ele>
        <time>2023-10-09T14:59:46Z</time>
      </trkpt>
      <trkpt lat="43.65796" lon="6.16294">
        <ele>591.6</ele>
        <time>2023-10-09T14:59:47Z</time>
      </trkpt>
      <trkpt lat="43.65795" lon="6.16293">
        <ele>591.5</ele>
        <time>2023-10-09T14:59:48Z</time>
      </trkpt>
      <trkpt lat="43.65794" lon="6.16293">
        <ele>591.5</ele>
        <time>2023-10-09T14:59:49Z</time>
      </trkpt>
      <trkpt lat="43.65793" lon="6.16292">
        <ele>591.5</ele>
        <time>2023-10-09T14:59:50Z</time>
      </trkpt>
      <trkpt lat="43.65792" lon="6.16292">
        <ele>591.5</ele>
        <time>2023-10-09T14:59:51Z</time>
      </trkpt>
      <trkpt lat="43.65791" lon="6.16292">
        <ele>591.5</ele>
        <time>2023-10-09T14:59:52Z</time>
      </trkpt>
      <trkpt lat="43.6579" lon="6.16292">
        <ele>591.5</ele>
        <time>2023-10-09T14:59:53Z</time>
      </trkpt>
      <trkpt lat="43.65788" lon="6.16292">
        <ele>591.5</ele>
        <time>2023-10-09T14:59:54Z</time>
      </trkpt>
      <trkpt lat="43.65787" lon="6.16291">
        <ele>591.5</ele>
        <time>2023-10-09T14:59:55Z</time>
      </trkpt>
      <trkpt lat="43.65786" lon="6.16291">
        <ele>591.5</ele>
        <time>2023-10-09T14:59:56Z</time>
      </trkpt>
      <trkpt lat="43.65785" lon="6.16291">
        <ele>591.5</ele>
        <time>2023-10-09T14:59:57Z</time>
      </trkpt>
      <trkpt lat="43.65784" lon="6.1629">
        <ele>591.4</ele>
        <time>2023-10-09T14:59:58Z</time>
      </trkpt>
      <trkpt lat="43.65783" lon="6.1629">
        <ele>591.4</ele>
        <time>2023-10-09T14:59:59Z</time>
      </trkpt>
      <trkpt lat="43.65781" lon="6.1629">
        <ele>591.4</ele>
        <time>2023-10-09T15:00:00Z</time>
      </trkpt>
      <trkpt lat="43.6578" lon="6.16289">
        <ele>591.4</ele>
        <time>2023-10-09T15:00:01Z</time>
      </trkpt>
      <trkpt lat="43.65779" lon="6.16289">
        <ele>591.4</ele>
        <time>2023-10-09T15:00:02Z</time>
      </trkpt>
      <trkpt lat="43.65778" lon="6.16289">
        <ele>591.4</ele>
        <time>2023-10-09T15:00:03Z</time>
      </trkpt>
      <trkpt lat="43.65777" lon="6.16289">
        <ele>591.4</ele>
        <time>2023-10-09T15:00:04Z</time>
      </trkpt>
      <trkpt lat="43.65776" lon="6.16288">
        <ele>591.4</ele>
        <time>2023-10-09T15:00:05Z</time>
      </trkpt>
      <trkpt lat="43.65775" lon="6.16287">
        <ele>591.3</ele>
        <time>2023-10-09T15:00:06Z</time>
      </trkpt>
      <trkpt lat="43.65774" lon="6.16287">
        <ele>591.3</ele>
        <time>2023-10-09T15:00:07Z</time>
      </trkpt>
      <trkpt lat="43.65773" lon="6.16286">
        <ele>591.3</ele>
        <time>2023-10-09T15:00:08Z</time>
      </trkpt>
      <trkpt lat="43.65772" lon="6.16286">
        <ele>591.3</ele>
        <time>2023-10-09T15:00:09Z</time>
      </trkpt>
      <trkpt lat="43.65771" lon="6.16286">
        <ele>591.3</ele>
        <time>2023-10-09T15:00:10Z</time>
      </trkpt>
      <trkpt lat="43.6577" lon="6.16285">
        <ele>591.3</ele>
        <time>2023-10-09T15:00:11Z</time>
      </trkpt>
      <trkpt lat="43.65769" lon="6.16285">
        <ele>591.3</ele>
        <time>2023-10-09T15:00:12Z</time>
      </trkpt>
      <trkpt lat="43.65768" lon="6.16285">
        <ele>591.3</ele>
        <time>2023-10-09T15:00:13Z</time>
      </trkpt>
      <trkpt lat="43.65766" lon="6.16285">
        <ele>591.3</ele>
        <time>2023-10-09T15:00:14Z</time>
      </trkpt>
      <trkpt lat="43.65765" lon="6.16285">
        <ele>591.3</ele>
        <time>2023-10-09T15:00:15Z</time>
      </trkpt>
      <trkpt lat="43.65764" lon="6.16284">
        <ele>591.2</ele>
        <time>2023-10-09T15:00:16Z</time>
      </trkpt>
      <trkpt lat="43.65762" lon="6.16284">
        <ele>591.2</ele>
        <time>2023-10-09T15:00:17Z</time>
      </trkpt>
      <trkpt lat="43.65761" lon="6.16284">
        <ele>591.2</ele>
        <time>2023-10-09T15:00:18Z</time>
      </trkpt>
      <trkpt lat="43.65758" lon="6.16283">
        <ele>591.2</ele>
        <time>2023-10-09T15:00:19Z</time>
      </trkpt>
      <trkpt lat="43.65758" lon="6.16283">
        <ele>591.2</ele>
        <time>2023-10-09T15:00:20Z</time>
      </trkpt>
      <trkpt lat="43.65757" lon="6.16282">
        <ele>591.2</ele>
        <time>2023-10-09T15:00:21Z</time>
      </trkpt>
      <trkpt lat="43.65756" lon="6.16282">
        <ele>591.2</ele>
        <time>2023-10-09T15:00:22Z</time>
      </trkpt>
      <trkpt lat="43.65755" lon="6.16281">
        <ele>591.1</ele>
        <time>2023-10-09T15:00:23Z</time>
      </trkpt>
      <trkpt lat="43.65754" lon="6.1628">
        <ele>591.1</ele>
        <time>2023-10-09T15:00:24Z</time>
      </trkpt>
      <trkpt lat="43.65752" lon="6.16279">
        <ele>591</ele>
        <time>2023-10-09T15:00:25Z</time>
      </trkpt>
      <trkpt lat="43.65751" lon="6.16279">
        <ele>591</ele>
        <time>2023-10-09T15:00:26Z</time>
      </trkpt>
      <trkpt lat="43.65751" lon="6.16279">
        <ele>591</ele>
        <time>2023-10-09T15:00:27Z</time>
      </trkpt>
      <trkpt lat="43.65748" lon="6.16279">
        <ele>591</ele>
        <time>2023-10-09T15:00:28Z</time>
      </trkpt>
      <trkpt lat="43.65747" lon="6.16279">
        <ele>590.9</ele>
        <time>2023-10-09T15:00:29Z</time>
      </trkpt>
      <trkpt lat="43.65746" lon="6.16279">
        <ele>590.9</ele>
        <time>2023-10-09T15:00:30Z</time>
      </trkpt>
      <trkpt lat="43.65744" lon="6.16278">
        <ele>590.8</ele>
        <time>2023-10-09T15:00:31Z</time>
      </trkpt>
      <trkpt lat="43.65744" lon="6.16278">
        <ele>590.8</ele>
        <time>2023-10-09T15:00:32Z</time>
      </trkpt>
      <trkpt lat="43.65743" lon="6.16278">
        <ele>590.8</ele>
        <time>2023-10-09T15:00:33Z</time>
      </trkpt>
      <trkpt lat="43.65741" lon="6.16277">
        <ele>590.6</ele>
        <time>2023-10-09T15:00:34Z</time>
      </trkpt>
      <trkpt lat="43.6574" lon="6.16277">
        <ele>590.6</ele>
        <time>2023-10-09T15:00:35Z</time>
      </trkpt>
      <trkpt lat="43.65737" lon="6.16276">
        <ele>590.5</ele>
        <time>2023-10-09T15:00:36Z</time>
      </trkpt>
      <trkpt lat="43.65737" lon="6.16276">
        <ele>590.5</ele>
        <time>2023-10-09T15:00:37Z</time>
      </trkpt>
      <trkpt lat="43.65736" lon="6.16276">
        <ele>590.4</ele>
        <time>2023-10-09T15:00:38Z</time>
      </trkpt>
      <trkpt lat="43.65734" lon="6.16276">
        <ele>590.4</ele>
        <time>2023-10-09T15:00:39Z</time>
      </trkpt>
      <trkpt lat="43.65734" lon="6.16276">
        <ele>590.4</ele>
        <time>2023-10-09T15:00:40Z</time>
      </trkpt>
      <trkpt lat="43.65733" lon="6.16276">
        <ele>590.3</ele>
        <time>2023-10-09T15:00:41Z</time>
      </trkpt>
      <trkpt lat="43.65732" lon="6.16275">
        <ele>590.3</ele>
        <time>2023-10-09T15:00:42Z</time>
      </trkpt>
      <trkpt lat="43.65731" lon="6.16275">
        <ele>590.2</ele>
        <time>2023-10-09T15:00:43Z</time>
      </trkpt>
      <trkpt lat="43.6573" lon="6.16274">
        <ele>590.1</ele>
        <time>2023-10-09T15:00:44Z</time>
      </trkpt>
      <trkpt lat="43.65728" lon="6.16274">
        <ele>590.1</ele>
        <time>2023-10-09T15:00:45Z</time>
      </trkpt>
      <trkpt lat="43.65727" lon="6.16274">
        <ele>590</ele>
        <time>2023-10-09T15:00:46Z</time>
      </trkpt>
      <trkpt lat="43.65726" lon="6.16273">
        <ele>590</ele>
        <time>2023-10-09T15:00:47Z</time>
      </trkpt>
      <trkpt lat="43.65724" lon="6.16273">
        <ele>589.9</ele>
        <time>2023-10-09T15:00:48Z</time>
      </trkpt>
      <trkpt lat="43.65723" lon="6.16273">
        <ele>589.9</ele>
        <time>2023-10-09T15:00:49Z</time>
      </trkpt>
      <trkpt lat="43.65722" lon="6.16273">
        <ele>589.8</ele>
        <time>2023-10-09T15:00:50Z</time>
      </trkpt>
      <trkpt lat="43.65721" lon="6.16272">
        <ele>589.7</ele>
        <time>2023-10-09T15:00:51Z</time>
      </trkpt>
      <trkpt lat="43.65719" lon="6.16272">
        <ele>589.7</ele>
        <time>2023-10-09T15:00:52Z</time>
      </trkpt>
      <trkpt lat="43.65718" lon="6.16271">
        <ele>589.6</ele>
        <time>2023-10-09T15:00:53Z</time>
      </trkpt>
      <trkpt lat="43.65716" lon="6.16271">
        <ele>589.5</ele>
        <time>2023-10-09T15:00:54Z</time>
      </trkpt>
      <trkpt lat="43.65715" lon="6.16271">
        <ele>589.5</ele>
        <time>2023-10-09T15:00:55Z</time>
      </trkpt>
      <trkpt lat="43.65714" lon="6.16271">
        <ele>589.5</ele>
        <time>2023-10-09T15:00:56Z</time>
      </trkpt>
      <trkpt lat="43.65713" lon="6.16271">
        <ele>589.4</ele>
        <time>2023-10-09T15:00:57Z</time>
      </trkpt>
      <trkpt lat="43.65712" lon="6.16271">
        <ele>589.4</ele>
        <time>2023-10-09T15:00:58Z</time>
      </trkpt>
      <trkpt lat="43.65711" lon="6.16271">
        <ele>589.4</ele>
        <time>2023-10-09T15:00:59Z</time>
      </trkpt>
      <trkpt lat="43.6571" lon="6.16271">
        <ele>589.3</ele>
        <time>2023-10-09T15:01:00Z</time>
      </trkpt>
      <trkpt lat="43.65709" lon="6.16271">
        <ele>589.3</ele>
        <time>2023-10-09T15:01:01Z</time>
      </trkpt>
      <trkpt lat="43.65708" lon="6.16271">
        <ele>589.2</ele>
        <time>2023-10-09T15:01:02Z</time>
      </trkpt>
      <trkpt lat="43.65707" lon="6.1627">
        <ele>589.2</ele>
        <time>2023-10-09T15:01:03Z</time>
      </trkpt>
      <trkpt lat="43.65705" lon="6.1627">
        <ele>589.1</ele>
        <time>2023-10-09T15:01:04Z</time>
      </trkpt>
      <trkpt lat="43.65705" lon="6.1627">
        <ele>589.1</ele>
        <time>2023-10-09T15:01:05Z</time>
      </trkpt>
      <trkpt lat="43.65704" lon="6.1627">
        <ele>589.1</ele>
        <time>2023-10-09T15:01:06Z</time>
      </trkpt>
      <trkpt lat="43.65703" lon="6.1627">
        <ele>589</ele>
        <time>2023-10-09T15:01:07Z</time>
      </trkpt>
      <trkpt lat="43.65701" lon="6.16269">
        <ele>588.9</ele>
        <time>2023-10-09T15:01:08Z</time>
      </trkpt>
      <trkpt lat="43.65699" lon="6.16269">
        <ele>588.8</ele>
        <time>2023-10-09T15:01:10Z</time>
      </trkpt>
      <trkpt lat="43.65698" lon="6.16269">
        <ele>588.8</ele>
        <time>2023-10-09T15:01:11Z</time>
      </trkpt>
      <trkpt lat="43.65697" lon="6.16269">
        <ele>588.8</ele>
        <time>2023-10-09T15:01:12Z</time>
      </trkpt>
      <trkpt lat="43.65696" lon="6.16268">
        <ele>588.7</ele>
        <time>2023-10-09T15:01:13Z</time>
      </trkpt>
      <trkpt lat="43.65695" lon="6.16268">
        <ele>588.7</ele>
        <time>2023-10-09T15:01:14Z</time>
      </trkpt>
      <trkpt lat="43.65694" lon="6.16269">
        <ele>588.7</ele>
        <time>2023-10-09T15:01:15Z</time>
      </trkpt>
      <trkpt lat="43.65692" lon="6.16269">
        <ele>588.5</ele>
        <time>2023-10-09T15:01:16Z</time>
      </trkpt>
      <trkpt lat="43.65691" lon="6.16269">
        <ele>588.5</ele>
        <time>2023-10-09T15:01:17Z</time>
      </trkpt>
      <trkpt lat="43.6569" lon="6.16268">
        <ele>588.4</ele>
        <time>2023-10-09T15:01:18Z</time>
      </trkpt>
      <trkpt lat="43.65689" lon="6.16268">
        <ele>588.3</ele>
        <time>2023-10-09T15:01:19Z</time>
      </trkpt>
      <trkpt lat="43.65688" lon="6.16267">
        <ele>588.2</ele>
        <time>2023-10-09T15:01:20Z</time>
      </trkpt>
      <trkpt lat="43.65686" lon="6.16267">
        <ele>588.1</ele>
        <time>2023-10-09T15:01:21Z</time>
      </trkpt>
      <trkpt lat="43.65684" lon="6.16266">
        <ele>588</ele>
        <time>2023-10-09T15:01:22Z</time>
      </trkpt>
      <trkpt lat="43.65683" lon="6.16266">
        <ele>587.9</ele>
        <time>2023-10-09T15:01:23Z</time>
      </trkpt>
      <trkpt lat="43.65683" lon="6.16266">
        <ele>587.9</ele>
        <time>2023-10-09T15:01:24Z</time>
      </trkpt>
      <trkpt lat="43.6568" lon="6.16267">
        <ele>587.8</ele>
        <time>2023-10-09T15:01:25Z</time>
      </trkpt>
      <trkpt lat="43.6568" lon="6.16267">
        <ele>587.8</ele>
        <time>2023-10-09T15:01:26Z</time>
      </trkpt>
      <trkpt lat="43.65679" lon="6.16267">
        <ele>587.7</ele>
        <time>2023-10-09T15:01:27Z</time>
      </trkpt>
      <trkpt lat="43.65677" lon="6.16266">
        <ele>587.6</ele>
        <time>2023-10-09T15:01:28Z</time>
      </trkpt>
      <trkpt lat="43.65676" lon="6.16266">
        <ele>587.5</ele>
        <time>2023-10-09T15:01:29Z</time>
      </trkpt>
      <trkpt lat="43.65675" lon="6.16266">
        <ele>587.5</ele>
        <time>2023-10-09T15:01:30Z</time>
      </trkpt>
      <trkpt lat="43.65673" lon="6.16265">
        <ele>587.4</ele>
        <time>2023-10-09T15:01:31Z</time>
      </trkpt>
      <trkpt lat="43.65672" lon="6.16264">
        <ele>587.3</ele>
        <time>2023-10-09T15:01:32Z</time>
      </trkpt>
      <trkpt lat="43.65672" lon="6.16264">
        <ele>587.3</ele>
        <time>2023-10-09T15:01:33Z</time>
      </trkpt>
      <trkpt lat="43.65671" lon="6.16264">
        <ele>587.2</ele>
        <time>2023-10-09T15:01:34Z</time>
      </trkpt>
      <trkpt lat="43.6567" lon="6.16264">
        <ele>587.2</ele>
        <time>2023-10-09T15:01:35Z</time>
      </trkpt>
      <trkpt lat="43.65669" lon="6.16264">
        <ele>587.1</ele>
        <time>2023-10-09T15:01:36Z</time>
      </trkpt>
      <trkpt lat="43.65667" lon="6.16265">
        <ele>587</ele>
        <time>2023-10-09T15:01:37Z</time>
      </trkpt>
      <trkpt lat="43.65666" lon="6.16264">
        <ele>587</ele>
        <time>2023-10-09T15:01:38Z</time>
      </trkpt>
      <trkpt lat="43.65665" lon="6.16264">
        <ele>586.9</ele>
        <time>2023-10-09T15:01:39Z</time>
      </trkpt>
      <trkpt lat="43.65664" lon="6.16263">
        <ele>586.9</ele>
        <time>2023-10-09T15:01:40Z</time>
      </trkpt>
      <trkpt lat="43.65663" lon="6.16262">
        <ele>586.9</ele>
        <time>2023-10-09T15:01:41Z</time>
      </trkpt>
      <trkpt lat="43.65661" lon="6.16261">
        <ele>586.8</ele>
        <time>2023-10-09T15:01:42Z</time>
      </trkpt>
      <trkpt lat="43.6566" lon="6.1626">
        <ele>586.8</ele>
        <time>2023-10-09T15:01:43Z</time>
      </trkpt>
      <trkpt lat="43.65659" lon="6.1626">
        <ele>586.7</ele>
        <time>2023-10-09T15:01:44Z</time>
      </trkpt>
      <trkpt lat="43.65658" lon="6.1626">
        <ele>586.7</ele>
        <time>2023-10-09T15:01:45Z</time>
      </trkpt>
      <trkpt lat="43.65657" lon="6.1626">
        <ele>586.7</ele>
        <time>2023-10-09T15:01:46Z</time>
      </trkpt>
      <trkpt lat="43.65656" lon="6.16259">
        <ele>586.6</ele>
        <time>2023-10-09T15:01:47Z</time>
      </trkpt>
      <trkpt lat="43.65654" lon="6.16259">
        <ele>586.5</ele>
        <time>2023-10-09T15:01:48Z</time>
      </trkpt>
      <trkpt lat="43.65653" lon="6.16258">
        <ele>586.5</ele>
        <time>2023-10-09T15:01:49Z</time>
      </trkpt>
      <trkpt lat="43.65652" lon="6.16257">
        <ele>586.5</ele>
        <time>2023-10-09T15:01:50Z</time>
      </trkpt>
      <trkpt lat="43.6565" lon="6.16257">
        <ele>586.4</ele>
        <time>2023-10-09T15:01:51Z</time>
      </trkpt>
      <trkpt lat="43.65648" lon="6.16257">
        <ele>586.3</ele>
        <time>2023-10-09T15:01:52Z</time>
      </trkpt>
      <trkpt lat="43.65648" lon="6.16256">
        <ele>586.3</ele>
        <time>2023-10-09T15:01:53Z</time>
      </trkpt>
      <trkpt lat="43.65647" lon="6.16256">
        <ele>586.3</ele>
        <time>2023-10-09T15:01:54Z</time>
      </trkpt>
      <trkpt lat="43.65645" lon="6.16256">
        <ele>586.2</ele>
        <time>2023-10-09T15:01:55Z</time>
      </trkpt>
      <trkpt lat="43.65644" lon="6.16255">
        <ele>586.2</ele>
        <time>2023-10-09T15:01:56Z</time>
      </trkpt>
      <trkpt lat="43.65643" lon="6.16255">
        <ele>586.1</ele>
        <time>2023-10-09T15:01:57Z</time>
      </trkpt>
      <trkpt lat="43.65641" lon="6.16254">
        <ele>586.1</ele>
        <time>2023-10-09T15:01:58Z</time>
      </trkpt>
      <trkpt lat="43.6564" lon="6.16253">
        <ele>586</ele>
        <time>2023-10-09T15:01:59Z</time>
      </trkpt>
      <trkpt lat="43.65639" lon="6.16253">
        <ele>586</ele>
        <time>2023-10-09T15:02:00Z</time>
      </trkpt>
      <trkpt lat="43.65638" lon="6.16252">
        <ele>585.9</ele>
        <time>2023-10-09T15:02:01Z</time>
      </trkpt>
      <trkpt lat="43.65637" lon="6.16251">
        <ele>585.9</ele>
        <time>2023-10-09T15:02:02Z</time>
      </trkpt>
      <trkpt lat="43.65636" lon="6.1625">
        <ele>585.8</ele>
        <time>2023-10-09T15:02:03Z</time>
      </trkpt>
      <trkpt lat="43.65635" lon="6.16248">
        <ele>585.7</ele>
        <time>2023-10-09T15:02:04Z</time>
      </trkpt>
      <trkpt lat="43.65635" lon="6.16247">
        <ele>585.7</ele>
        <time>2023-10-09T15:02:05Z</time>
      </trkpt>
      <trkpt lat="43.65634" lon="6.16246">
        <ele>585.7</ele>
        <time>2023-10-09T15:02:06Z</time>
      </trkpt>
      <trkpt lat="43.65633" lon="6.16245">
        <ele>585.6</ele>
        <time>2023-10-09T15:02:07Z</time>
      </trkpt>
      <trkpt lat="43.65631" lon="6.16243">
        <ele>585.5</ele>
        <time>2023-10-09T15:02:08Z</time>
      </trkpt>
      <trkpt lat="43.6563" lon="6.16242">
        <ele>585.5</ele>
        <time>2023-10-09T15:02:09Z</time>
      </trkpt>
      <trkpt lat="43.65628" lon="6.1624">
        <ele>585.4</ele>
        <time>2023-10-09T15:02:10Z</time>
      </trkpt>
      <trkpt lat="43.65628" lon="6.1624">
        <ele>585.4</ele>
        <time>2023-10-09T15:02:11Z</time>
      </trkpt>
      <trkpt lat="43.65627" lon="6.16239">
        <ele>585.3</ele>
        <time>2023-10-09T15:02:12Z</time>
      </trkpt>
      <trkpt lat="43.65626" lon="6.16238">
        <ele>585.3</ele>
        <time>2023-10-09T15:02:13Z</time>
      </trkpt>
      <trkpt lat="43.65625" lon="6.16236">
        <ele>585.3</ele>
        <time>2023-10-09T15:02:14Z</time>
      </trkpt>
      <trkpt lat="43.65624" lon="6.16234">
        <ele>585.2</ele>
        <time>2023-10-09T15:02:15Z</time>
      </trkpt>
      <trkpt lat="43.65623" lon="6.16233">
        <ele>585.2</ele>
        <time>2023-10-09T15:02:16Z</time>
      </trkpt>
      <trkpt lat="43.65623" lon="6.16232">
        <ele>585.2</ele>
        <time>2023-10-09T15:02:17Z</time>
      </trkpt>
      <trkpt lat="43.65622" lon="6.16231">
        <ele>585.2</ele>
        <time>2023-10-09T15:02:18Z</time>
      </trkpt>
      <trkpt lat="43.65621" lon="6.1623">
        <ele>585.2</ele>
        <time>2023-10-09T15:02:19Z</time>
      </trkpt>
      <trkpt lat="43.65621" lon="6.16229">
        <ele>585.2</ele>
        <time>2023-10-09T15:02:20Z</time>
      </trkpt>
      <trkpt lat="43.6562" lon="6.16229">
        <ele>585.2</ele>
        <time>2023-10-09T15:02:21Z</time>
      </trkpt>
      <trkpt lat="43.65619" lon="6.16229">
        <ele>585.1</ele>
        <time>2023-10-09T15:02:22Z</time>
      </trkpt>
      <trkpt lat="43.65618" lon="6.16228">
        <ele>585.1</ele>
        <time>2023-10-09T15:02:23Z</time>
      </trkpt>
      <trkpt lat="43.65617" lon="6.16227">
        <ele>585.1</ele>
        <time>2023-10-09T15:02:24Z</time>
      </trkpt>
      <trkpt lat="43.65616" lon="6.16227">
        <ele>585</ele>
        <time>2023-10-09T15:02:25Z</time>
      </trkpt>
      <trkpt lat="43.65615" lon="6.16226">
        <ele>585</ele>
        <time>2023-10-09T15:02:26Z</time>
      </trkpt>
      <trkpt lat="43.65614" lon="6.16227">
        <ele>584.9</ele>
        <time>2023-10-09T15:02:28Z</time>
      </trkpt>
      <trkpt lat="43.65613" lon="6.16228">
        <ele>584.9</ele>
        <time>2023-10-09T15:02:29Z</time>
      </trkpt>
      <trkpt lat="43.65612" lon="6.16228">
        <ele>584.8</ele>
        <time>2023-10-09T15:02:30Z</time>
      </trkpt>
      <trkpt lat="43.65611" lon="6.16229">
        <ele>584.8</ele>
        <time>2023-10-09T15:02:31Z</time>
      </trkpt>
      <trkpt lat="43.65611" lon="6.16229">
        <ele>584.8</ele>
        <time>2023-10-09T15:02:32Z</time>
      </trkpt>
      <trkpt lat="43.6561" lon="6.1623">
        <ele>584.7</ele>
        <time>2023-10-09T15:02:33Z</time>
      </trkpt>
      <trkpt lat="43.65608" lon="6.1623">
        <ele>584.6</ele>
        <time>2023-10-09T15:02:34Z</time>
      </trkpt>
      <trkpt lat="43.65607" lon="6.1623">
        <ele>584.6</ele>
        <time>2023-10-09T15:02:35Z</time>
      </trkpt>
      <trkpt lat="43.65606" lon="6.16231">
        <ele>584.6</ele>
        <time>2023-10-09T15:02:36Z</time>
      </trkpt>
      <trkpt lat="43.65605" lon="6.16231">
        <ele>584.5</ele>
        <time>2023-10-09T15:02:37Z</time>
      </trkpt>
      <trkpt lat="43.65604" lon="6.16231">
        <ele>584.5</ele>
        <time>2023-10-09T15:02:38Z</time>
      </trkpt>
      <trkpt lat="43.65603" lon="6.16232">
        <ele>584.5</ele>
        <time>2023-10-09T15:02:39Z</time>
      </trkpt>
      <trkpt lat="43.65602" lon="6.16232">
        <ele>584.4</ele>
        <time>2023-10-09T15:02:40Z</time>
      </trkpt>
      <trkpt lat="43.65602" lon="6.16232">
        <ele>584.4</ele>
        <time>2023-10-09T15:02:41Z</time>
      </trkpt>
      <trkpt lat="43.65601" lon="6.16233">
        <ele>584.4</ele>
        <time>2023-10-09T15:02:42Z</time>
      </trkpt>
      <trkpt lat="43.65601" lon="6.16233">
        <ele>584.4</ele>
        <time>2023-10-09T15:02:43Z</time>
      </trkpt>
      <trkpt lat="43.656" lon="6.16233">
        <ele>584.4</ele>
        <time>2023-10-09T15:02:44Z</time>
      </trkpt>
      <trkpt lat="43.656" lon="6.16233">
        <ele>584.4</ele>
        <time>2023-10-09T15:02:45Z</time>
      </trkpt>
      <trkpt lat="43.65599" lon="6.16233">
        <ele>584.3</ele>
        <time>2023-10-09T15:02:46Z</time>
      </trkpt>
      <trkpt lat="43.65597" lon="6.16232">
        <ele>584.3</ele>
        <time>2023-10-09T15:02:47Z</time>
      </trkpt>
      <trkpt lat="43.65597" lon="6.16232">
        <ele>584.3</ele>
        <time>2023-10-09T15:02:48Z</time>
      </trkpt>
      <trkpt lat="43.65596" lon="6.16232">
        <ele>584.3</ele>
        <time>2023-10-09T15:02:49Z</time>
      </trkpt>
      <trkpt lat="43.65595" lon="6.16232">
        <ele>584.3</ele>
        <time>2023-10-09T15:02:50Z</time>
      </trkpt>
      <trkpt lat="43.65594" lon="6.16232">
        <ele>584.2</ele>
        <time>2023-10-09T15:02:51Z</time>
      </trkpt>
      <trkpt lat="43.65593" lon="6.16232">
        <ele>584.2</ele>
        <time>2023-10-09T15:02:52Z</time>
      </trkpt>
      <trkpt lat="43.65593" lon="6.16232">
        <ele>584.2</ele>
        <time>2023-10-09T15:02:53Z</time>
      </trkpt>
      <trkpt lat="43.65592" lon="6.16232">
        <ele>584.2</ele>
        <time>2023-10-09T15:02:54Z</time>
      </trkpt>
      <trkpt lat="43.65591" lon="6.16232">
        <ele>584.2</ele>
        <time>2023-10-09T15:02:55Z</time>
      </trkpt>
      <trkpt lat="43.6559" lon="6.16233">
        <ele>584.1</ele>
        <time>2023-10-09T15:02:56Z</time>
      </trkpt>
      <trkpt lat="43.65589" lon="6.16233">
        <ele>584.1</ele>
        <time>2023-10-09T15:02:57Z</time>
      </trkpt>
      <trkpt lat="43.65588" lon="6.16233">
        <ele>584.1</ele>
        <time>2023-10-09T15:02:58Z</time>
      </trkpt>
      <trkpt lat="43.65586" lon="6.16233">
        <ele>584.1</ele>
        <time>2023-10-09T15:02:59Z</time>
      </trkpt>
      <trkpt lat="43.65586" lon="6.16233">
        <ele>584.1</ele>
        <time>2023-10-09T15:03:00Z</time>
      </trkpt>
      <trkpt lat="43.65585" lon="6.16233">
        <ele>584</ele>
        <time>2023-10-09T15:03:01Z</time>
      </trkpt>
      <trkpt lat="43.65584" lon="6.16233">
        <ele>584</ele>
        <time>2023-10-09T15:03:02Z</time>
      </trkpt>
      <trkpt lat="43.65584" lon="6.16233">
        <ele>584</ele>
        <time>2023-10-09T15:03:03Z</time>
      </trkpt>
      <trkpt lat="43.65583" lon="6.16233">
        <ele>584</ele>
        <time>2023-10-09T15:03:04Z</time>
      </trkpt>
      <trkpt lat="43.65583" lon="6.16233">
        <ele>584</ele>
        <time>2023-10-09T15:03:05Z</time>
      </trkpt>
      <trkpt lat="43.65582" lon="6.16233">
        <ele>584</ele>
        <time>2023-10-09T15:03:06Z</time>
      </trkpt>
      <trkpt lat="43.65582" lon="6.16233">
        <ele>584</ele>
        <time>2023-10-09T15:03:07Z</time>
      </trkpt>
      <trkpt lat="43.65582" lon="6.16233">
        <ele>584</ele>
        <time>2023-10-09T15:03:08Z</time>
      </trkpt>
      <trkpt lat="43.65582" lon="6.16233">
        <ele>584</ele>
        <time>2023-10-09T15:03:09Z</time>
      </trkpt>
      <trkpt lat="43.65582" lon="6.16233">
        <ele>584</ele>
        <time>2023-10-09T15:03:10Z</time>
      </trkpt>
      <trkpt lat="43.65582" lon="6.16233">
        <ele>584</ele>
        <time>2023-10-09T15:03:11Z</time>
      </trkpt>
      <trkpt lat="43.65582" lon="6.16232">
        <ele>584</ele>
        <time>2023-10-09T15:03:12Z</time>
      </trkpt>
      <trkpt lat="43.65582" lon="6.16232">
        <ele>584</ele>
        <time>2023-10-09T15:03:13Z</time>
      </trkpt>
      <trkpt lat="43.65582" lon="6.16232">
        <ele>584</ele>
        <time>2023-10-09T15:03:14Z</time>
      </trkpt>
      <trkpt lat="43.65582" lon="6.16232">
        <ele>584</ele>
        <time>2023-10-09T15:03:15Z</time>
      </trkpt>
      <trkpt lat="43.65582" lon="6.16232">
        <ele>584</ele>
        <time>2023-10-09T15:03:16Z</time>
      </trkpt>
    </trkseg>
  </trk>
</gpx>